<?xml version='1.0' encoding='UTF-8'?><gpx version="1.1" creator="JPX - https://github.com/jenetics/jpx" xmlns="http://www.topografix.com/GPX/1/1"><trk><trkseg><trkpt lat="45.53167331199746" lon="11.365156806816655"><ele>95.0</ele><time>2026-04-06T06:16:21.998Z</time></trkpt><trkpt lat="45.53178516590118" lon="11.365184478549677"><ele>95.0</ele><time>2026-04-06T06:16:22.998Z</time></trkpt><trkpt lat="45.53187884488368" lon="11.36519890379278"><ele>95.0</ele><time>2026-04-06T06:16:23.998Z</time></trkpt><trkpt lat="45.53194186186392" lon="11.365204709954597"><ele>95.0</ele><time>2026-04-06T06:16:24.998Z</time></trkpt><trkpt lat="45.53207746880623" lon="11.365159823480159"><ele>95.0</ele><time>2026-04-06T06:16:26.998Z</time></trkpt><trkpt lat="45.53215432511459" lon="11.365107962855259"><ele>95.4</ele><time>2026-04-06T06:16:27.998Z</time></trkpt><trkpt lat="45.532187462284135" lon="11.365012175543063"><ele>95.8</ele><time>2026-04-06T06:16:28.998Z</time></trkpt><trkpt lat="45.53238767911881" lon="11.364942918366186"><ele>96.19999999999999</ele><time>2026-04-06T06:16:30.998Z</time></trkpt><trkpt lat="45.53244920419334" lon="11.364876913636698"><ele>96.6</ele><time>2026-04-06T06:16:31.998Z</time></trkpt><trkpt lat="45.53248323069103" lon="11.364799474959884"><ele>97.0</ele><time>2026-04-06T06:16:32.998Z</time></trkpt><trkpt lat="45.532517381228445" lon="11.364700570731264"><ele>96.75</ele><time>2026-04-06T06:16:33.998Z</time></trkpt><trkpt lat="45.53255226647921" lon="11.364563065890565"><ele>96.5</ele><time>2026-04-06T06:16:34.998Z</time></trkpt><trkpt lat="45.53259982517507" lon="11.364382251067392"><ele>96.25</ele><time>2026-04-06T06:16:35.998Z</time></trkpt><trkpt lat="45.53263120907111" lon="11.364168286773749"><ele>96.0</ele><time>2026-04-06T06:16:36.998Z</time></trkpt><trkpt lat="45.53264735642908" lon="11.363897311452728"><ele>96.0</ele><time>2026-04-06T06:16:37.998Z</time></trkpt><trkpt lat="45.53265526841877" lon="11.363613348604863"><ele>96.0</ele><time>2026-04-06T06:16:38.998Z</time></trkpt><trkpt lat="45.53265801572091" lon="11.36337328570823"><ele>96.0</ele><time>2026-04-06T06:16:39.998Z</time></trkpt><trkpt lat="45.53267266881081" lon="11.363152573013345"><ele>96.0</ele><time>2026-04-06T06:16:40.998Z</time></trkpt><trkpt lat="45.53268382475918" lon="11.36291875104488"><ele>96.0</ele><time>2026-04-06T06:16:41.998Z</time></trkpt><trkpt lat="45.53269676441496" lon="11.36268901817178"><ele>96.0</ele><time>2026-04-06T06:16:42.998Z</time></trkpt><trkpt lat="45.53270716662979" lon="11.362468106990525"><ele>96.0</ele><time>2026-04-06T06:16:43.998Z</time></trkpt><trkpt lat="45.53272025909711" lon="11.362279106704042"><ele>96.0</ele><time>2026-04-06T06:16:44.998Z</time></trkpt><trkpt lat="45.532733236226655" lon="11.362102068879123"><ele>96.0</ele><time>2026-04-06T06:16:45.998Z</time></trkpt><trkpt lat="45.53274646357409" lon="11.361976078766636"><ele>96.0</ele><time>2026-04-06T06:16:46.998Z</time></trkpt><trkpt lat="45.5327737389158" lon="11.361869083074225"><ele>96.0</ele><time>2026-04-06T06:16:47.998Z</time></trkpt><trkpt lat="45.53283876846654" lon="11.361816056433348"><ele>96.0</ele><time>2026-04-06T06:16:48.998Z</time></trkpt><trkpt lat="45.53288746212835" lon="11.361746915718872"><ele>96.0</ele><time>2026-04-06T06:16:49.998Z</time></trkpt><trkpt lat="45.53298315691889" lon="11.361750573820096"><ele>96.0</ele><time>2026-04-06T06:16:50.998Z</time></trkpt><trkpt lat="45.533041819012" lon="11.361639590309796"><ele>96.0</ele><time>2026-04-06T06:16:51.998Z</time></trkpt><trkpt lat="45.533062043396725" lon="11.36153451307487"><ele>96.0</ele><time>2026-04-06T06:16:52.998Z</time></trkpt><trkpt lat="45.533048812925315" lon="11.361437237898665"><ele>96.0</ele><time>2026-04-06T06:16:53.998Z</time></trkpt><trkpt lat="45.53299694603108" lon="11.361330619172977"><ele>96.75</ele><time>2026-04-06T06:16:54.998Z</time></trkpt><trkpt lat="45.532873570252164" lon="11.361293981172373"><ele>97.5</ele><time>2026-04-06T06:16:55.998Z</time></trkpt><trkpt lat="45.53275861526915" lon="11.361323929731808"><ele>98.25</ele><time>2026-04-06T06:16:56.998Z</time></trkpt><trkpt lat="45.53262086633847" lon="11.36127487816277"><ele>99.0</ele><time>2026-04-06T06:16:57.998Z</time></trkpt><trkpt lat="45.532476321316494" lon="11.361188723643199"><ele>99.0</ele><time>2026-04-06T06:16:58.998Z</time></trkpt><trkpt lat="45.53233463943372" lon="11.36102593050728"><ele>99.0</ele><time>2026-04-06T06:16:59.998Z</time></trkpt><trkpt lat="45.53221473771073" lon="11.360867015098483"><ele>99.0</ele><time>2026-04-06T06:17:00.998Z</time></trkpt><trkpt lat="45.532101789402354" lon="11.3607410474823"><ele>99.25</ele><time>2026-04-06T06:17:01.998Z</time></trkpt><trkpt lat="45.531990495042365" lon="11.360620828320286"><ele>99.5</ele><time>2026-04-06T06:17:02.998Z</time></trkpt><trkpt lat="45.531869957610624" lon="11.360492106009962"><ele>99.75</ele><time>2026-04-06T06:17:03.998Z</time></trkpt><trkpt lat="45.53174687484657" lon="11.36035820292792"><ele>100.0</ele><time>2026-04-06T06:17:04.998Z</time></trkpt><trkpt lat="45.531635165541985" lon="11.360235215386865"><ele>100.0</ele><time>2026-04-06T06:17:05.998Z</time></trkpt><trkpt lat="45.531518947432595" lon="11.360108301740564"><ele>100.0</ele><time>2026-04-06T06:17:06.998Z</time></trkpt><trkpt lat="45.53139507738497" lon="11.359979220744545"><ele>100.0</ele><time>2026-04-06T06:17:07.998Z</time></trkpt><trkpt lat="45.53127036891544" lon="11.359859294812647"><ele>99.25</ele><time>2026-04-06T06:17:08.998Z</time></trkpt><trkpt lat="45.53114556580915" lon="11.359749771512972"><ele>98.5</ele><time>2026-04-06T06:17:09.998Z</time></trkpt><trkpt lat="45.531023322466034" lon="11.359656044915614"><ele>97.75</ele><time>2026-04-06T06:17:10.998Z</time></trkpt><trkpt lat="45.53089445482932" lon="11.359583810046333"><ele>97.0</ele><time>2026-04-06T06:17:11.998Z</time></trkpt><trkpt lat="45.53076752143335" lon="11.359526801217665"><ele>97.75</ele><time>2026-04-06T06:17:12.998Z</time></trkpt><trkpt lat="45.530645171284135" lon="11.359469726888301"><ele>98.5</ele><time>2026-04-06T06:17:13.998Z</time></trkpt><trkpt lat="45.53052233044769" lon="11.359422933445256"><ele>99.25</ele><time>2026-04-06T06:17:14.998Z</time></trkpt><trkpt lat="45.530395015471136" lon="11.359380554237488"><ele>100.0</ele><time>2026-04-06T06:17:15.998Z</time></trkpt><trkpt lat="45.53025676051148" lon="11.359343592855915"><ele>100.0</ele><time>2026-04-06T06:17:16.998Z</time></trkpt><trkpt lat="45.530096619032506" lon="11.359320114519933"><ele>100.0</ele><time>2026-04-06T06:17:17.998Z</time></trkpt><trkpt lat="45.52988385134141" lon="11.359317142714616"><ele>100.0</ele><time>2026-04-06T06:17:18.998Z</time></trkpt><trkpt lat="45.52972110767003" lon="11.359310224679732"><ele>100.0</ele><time>2026-04-06T06:17:19.998Z</time></trkpt><trkpt lat="45.52960926831552" lon="11.359318603921178"><ele>100.0</ele><time>2026-04-06T06:17:20.998Z</time></trkpt><trkpt lat="45.52946372222873" lon="11.359331062391187"><ele>100.0</ele><time>2026-04-06T06:17:21.998Z</time></trkpt><trkpt lat="45.52934596397558" lon="11.359295380968902"><ele>100.0</ele><time>2026-04-06T06:17:22.998Z</time></trkpt><trkpt lat="45.52920271255205" lon="11.359352699687705"><ele>99.5</ele><time>2026-04-06T06:17:23.998Z</time></trkpt><trkpt lat="45.52900928688536" lon="11.359366948110601"><ele>99.0</ele><time>2026-04-06T06:17:24.998Z</time></trkpt><trkpt lat="45.52877433957095" lon="11.35956623666437"><ele>98.0</ele><time>2026-04-06T06:17:25.998Z</time></trkpt><trkpt lat="45.52858198065643" lon="11.359709179861886"><ele>97.0</ele><time>2026-04-06T06:17:26.998Z</time></trkpt><trkpt lat="45.52840286073034" lon="11.359844494599738"><ele>96.0</ele><time>2026-04-06T06:17:27.998Z</time></trkpt><trkpt lat="45.528244725447976" lon="11.35995219097949"><ele>96.0</ele><time>2026-04-06T06:17:28.998Z</time></trkpt><trkpt lat="45.52807974302119" lon="11.36006270594575"><ele>96.0</ele><time>2026-04-06T06:17:29.998Z</time></trkpt><trkpt lat="45.527911705436935" lon="11.360182313656837"><ele>96.0</ele><time>2026-04-06T06:17:30.998Z</time></trkpt><trkpt lat="45.527746510741274" lon="11.360320195501448"><ele>96.0</ele><time>2026-04-06T06:17:31.998Z</time></trkpt><trkpt lat="45.527585852546935" lon="11.360469441382975"><ele>96.0</ele><time>2026-04-06T06:17:32.998Z</time></trkpt><trkpt lat="45.527440688639075" lon="11.360657058008657"><ele>96.0</ele><time>2026-04-06T06:17:33.998Z</time></trkpt><trkpt lat="45.52730348469367" lon="11.360850575126863"><ele>96.0</ele><time>2026-04-06T06:17:34.998Z</time></trkpt><trkpt lat="45.52716948552781" lon="11.361057336857492"><ele>96.0</ele><time>2026-04-06T06:17:35.998Z</time></trkpt><trkpt lat="45.527036207207566" lon="11.361288254032532"><ele>96.0</ele><time>2026-04-06T06:17:36.998Z</time></trkpt><trkpt lat="45.52689341978228" lon="11.36152537293368"><ele>95.66666666666667</ele><time>2026-04-06T06:17:37.998Z</time></trkpt><trkpt lat="45.526744352960655" lon="11.361779385940356"><ele>95.33333333333334</ele><time>2026-04-06T06:17:38.998Z</time></trkpt><trkpt lat="45.52661061904182" lon="11.362013565798797"><ele>95.0</ele><time>2026-04-06T06:17:39.998Z</time></trkpt><trkpt lat="45.52648647919872" lon="11.362220274077671"><ele>94.33333333333334</ele><time>2026-04-06T06:17:40.998Z</time></trkpt><trkpt lat="45.52636386072169" lon="11.362422619640865"><ele>93.66666666666667</ele><time>2026-04-06T06:17:41.998Z</time></trkpt><trkpt lat="45.526244635772535" lon="11.362617426713891"><ele>93.0</ele><time>2026-04-06T06:17:42.998Z</time></trkpt><trkpt lat="45.52612390218836" lon="11.362794944839232"><ele>93.0</ele><time>2026-04-06T06:17:43.998Z</time></trkpt><trkpt lat="45.526010039898175" lon="11.362963221745218"><ele>93.0</ele><time>2026-04-06T06:17:44.998Z</time></trkpt><trkpt lat="45.5258840169863" lon="11.363116588065132"><ele>93.0</ele><time>2026-04-06T06:17:45.998Z</time></trkpt><trkpt lat="45.52574878068074" lon="11.363257009356156"><ele>92.66666666666667</ele><time>2026-04-06T06:17:46.998Z</time></trkpt><trkpt lat="45.52560717040435" lon="11.36338240419437"><ele>92.33333333333334</ele><time>2026-04-06T06:17:47.998Z</time></trkpt><trkpt lat="45.52546052883323" lon="11.363500653935366"><ele>92.0</ele><time>2026-04-06T06:17:48.998Z</time></trkpt><trkpt lat="45.52530415032948" lon="11.363614743813816"><ele>92.0</ele><time>2026-04-06T06:17:49.998Z</time></trkpt><trkpt lat="45.52513428869586" lon="11.363711293341963"><ele>92.0</ele><time>2026-04-06T06:17:50.998Z</time></trkpt><trkpt lat="45.524949551721754" lon="11.363796301303422"><ele>92.0</ele><time>2026-04-06T06:17:51.998Z</time></trkpt><trkpt lat="45.52474617841644" lon="11.36388704117914"><ele>92.5</ele><time>2026-04-06T06:17:52.998Z</time></trkpt><trkpt lat="45.52451990946504" lon="11.363981573991273"><ele>93.0</ele><time>2026-04-06T06:17:53.998Z</time></trkpt><trkpt lat="45.524283174150156" lon="11.36407444074566"><ele>93.0</ele><time>2026-04-06T06:17:54.998Z</time></trkpt><trkpt lat="45.52403546268367" lon="11.364178875499666"><ele>93.0</ele><time>2026-04-06T06:17:55.998Z</time></trkpt><trkpt lat="45.52377588581887" lon="11.364285272038606"><ele>92.0</ele><time>2026-04-06T06:17:56.998Z</time></trkpt><trkpt lat="45.52353051579386" lon="11.364358077869914"><ele>91.0</ele><time>2026-04-06T06:17:57.998Z</time></trkpt><trkpt lat="45.523330027216275" lon="11.364460830476393"><ele>91.0</ele><time>2026-04-06T06:17:58.998Z</time></trkpt><trkpt lat="45.52314841006492" lon="11.364532720476198"><ele>91.0</ele><time>2026-04-06T06:17:59.998Z</time></trkpt><trkpt lat="45.52297789453322" lon="11.36459626185485"><ele>91.0</ele><time>2026-04-06T06:18:00.998Z</time></trkpt><trkpt lat="45.52281598660148" lon="11.364650886858094"><ele>91.33333333333333</ele><time>2026-04-06T06:18:01.998Z</time></trkpt><trkpt lat="45.522661384588396" lon="11.364697367804009"><ele>91.66666666666667</ele><time>2026-04-06T06:18:02.998Z</time></trkpt><trkpt lat="45.522496292219344" lon="11.364694342812447"><ele>92.0</ele><time>2026-04-06T06:18:03.998Z</time></trkpt><trkpt lat="45.52232285362724" lon="11.364687194626978"><ele>92.0</ele><time>2026-04-06T06:18:04.998Z</time></trkpt><trkpt lat="45.52212926845183" lon="11.364648316367193"><ele>92.0</ele><time>2026-04-06T06:18:05.998Z</time></trkpt><trkpt lat="45.52191210602921" lon="11.364600654448765"><ele>92.0</ele><time>2026-04-06T06:18:06.998Z</time></trkpt><trkpt lat="45.52168259359374" lon="11.36448667062898"><ele>91.0</ele><time>2026-04-06T06:18:07.998Z</time></trkpt><trkpt lat="45.52145105897012" lon="11.364319957535356"><ele>90.0</ele><time>2026-04-06T06:18:08.999Z</time></trkpt><trkpt lat="45.52119810118755" lon="11.364171815088072"><ele>90.0</ele><time>2026-04-06T06:18:09.999Z</time></trkpt><trkpt lat="45.52093837667405" lon="11.363994021529733"><ele>90.0</ele><time>2026-04-06T06:18:10.999Z</time></trkpt><trkpt lat="45.52067745250739" lon="11.363834179568762"><ele>90.0</ele><time>2026-04-06T06:18:11.999Z</time></trkpt><trkpt lat="45.52044348849948" lon="11.363694656702748"><ele>90.0</ele><time>2026-04-06T06:18:12.999Z</time></trkpt><trkpt lat="45.520223738343134" lon="11.363584446974517"><ele>90.0</ele><time>2026-04-06T06:18:13.999Z</time></trkpt><trkpt lat="45.52001316898227" lon="11.36349797976051"><ele>90.0</ele><time>2026-04-06T06:18:14.999Z</time></trkpt><trkpt lat="45.519797576425226" lon="11.363445157407982"><ele>90.0</ele><time>2026-04-06T06:18:16Z</time></trkpt><trkpt lat="45.51957122388817" lon="11.363429787987581"><ele>90.0</ele><time>2026-04-06T06:18:17Z</time></trkpt><trkpt lat="45.51933380300612" lon="11.363452873657387"><ele>90.0</ele><time>2026-04-06T06:18:18Z</time></trkpt><trkpt lat="45.51909132513618" lon="11.363497730429453"><ele>90.0</ele><time>2026-04-06T06:18:19Z</time></trkpt><trkpt lat="45.518845228486974" lon="11.363563245831804"><ele>90.0</ele><time>2026-04-06T06:18:20Z</time></trkpt><trkpt lat="45.51862218499136" lon="11.363625458113074"><ele>90.66666666666667</ele><time>2026-04-06T06:18:21Z</time></trkpt><trkpt lat="45.518412263547575" lon="11.363666938062956"><ele>91.33333333333334</ele><time>2026-04-06T06:18:22Z</time></trkpt><trkpt lat="45.51822400335675" lon="11.363696167784397"><ele>92.0</ele><time>2026-04-06T06:18:23Z</time></trkpt><trkpt lat="45.5180406829308" lon="11.363739922044584"><ele>91.66666666666667</ele><time>2026-04-06T06:18:24Z</time></trkpt><trkpt lat="45.5178675930108" lon="11.363785106796971"><ele>91.33333333333333</ele><time>2026-04-06T06:18:25Z</time></trkpt><trkpt lat="45.51771615503509" lon="11.363815323312922"><ele>91.0</ele><time>2026-04-06T06:18:26Z</time></trkpt><trkpt lat="45.517585697831265" lon="11.363833707174816"><ele>91.0</ele><time>2026-04-06T06:18:27Z</time></trkpt><trkpt lat="45.51745170943437" lon="11.363806726346395"><ele>91.0</ele><time>2026-04-06T06:18:28Z</time></trkpt><trkpt lat="45.51731616515942" lon="11.363701503969587"><ele>91.0</ele><time>2026-04-06T06:18:29Z</time></trkpt><trkpt lat="45.51718796197744" lon="11.363575308888706"><ele>91.0</ele><time>2026-04-06T06:18:30Z</time></trkpt><trkpt lat="45.51706388023128" lon="11.363421698855895"><ele>92.0</ele><time>2026-04-06T06:18:31Z</time></trkpt><trkpt lat="45.51693883536334" lon="11.363275921436983"><ele>93.0</ele><time>2026-04-06T06:18:32Z</time></trkpt><trkpt lat="45.516788497655114" lon="11.363197921693954"><ele>94.0</ele><time>2026-04-06T06:18:33Z</time></trkpt><trkpt lat="45.51663125173648" lon="11.36316796595347"><ele>94.0</ele><time>2026-04-06T06:18:34Z</time></trkpt><trkpt lat="45.51644126924813" lon="11.363177737276903"><ele>94.0</ele><time>2026-04-06T06:18:35Z</time></trkpt><trkpt lat="45.51623409357258" lon="11.363212134686549"><ele>94.0</ele><time>2026-04-06T06:18:36Z</time></trkpt><trkpt lat="45.51602281835728" lon="11.363232148201895"><ele>93.66666666666666</ele><time>2026-04-06T06:18:37Z</time></trkpt><trkpt lat="45.515832805152066" lon="11.36323612697129"><ele>93.33333333333333</ele><time>2026-04-06T06:18:38Z</time></trkpt><trkpt lat="45.51565711645404" lon="11.363236895498302"><ele>93.0</ele><time>2026-04-06T06:18:39Z</time></trkpt><trkpt lat="45.51548471868054" lon="11.363250871096357"><ele>92.0</ele><time>2026-04-06T06:18:40Z</time></trkpt><trkpt lat="45.515309671235364" lon="11.363260278366509"><ele>91.0</ele><time>2026-04-06T06:18:41Z</time></trkpt><trkpt lat="45.51512713158345" lon="11.363269325023547"><ele>90.0</ele><time>2026-04-06T06:18:42Z</time></trkpt><trkpt lat="45.514944509835736" lon="11.363280348558527"><ele>90.0</ele><time>2026-04-06T06:18:43Z</time></trkpt><trkpt lat="45.51476392562479" lon="11.363288871614763"><ele>90.0</ele><time>2026-04-06T06:18:44Z</time></trkpt><trkpt lat="45.51459487700891" lon="11.363293637040107"><ele>90.0</ele><time>2026-04-06T06:18:45Z</time></trkpt><trkpt lat="45.51443376908696" lon="11.363305550728128"><ele>90.75</ele><time>2026-04-06T06:18:46Z</time></trkpt><trkpt lat="45.51428555008517" lon="11.36331873575354"><ele>91.5</ele><time>2026-04-06T06:18:47Z</time></trkpt><trkpt lat="45.51414712804785" lon="11.363330203477274"><ele>92.25</ele><time>2026-04-06T06:18:48Z</time></trkpt><trkpt lat="45.51402378280867" lon="11.36333389703171"><ele>93.0</ele><time>2026-04-06T06:18:49Z</time></trkpt><trkpt lat="45.51391207265383" lon="11.363343256122732"><ele>93.0</ele><time>2026-04-06T06:18:50Z</time></trkpt><trkpt lat="45.51380533831893" lon="11.363358671043615"><ele>93.0</ele><time>2026-04-06T06:18:51Z</time></trkpt><trkpt lat="45.51370830889714" lon="11.363342393845395"><ele>93.0</ele><time>2026-04-06T06:18:52Z</time></trkpt><trkpt lat="45.51362294058596" lon="11.363267782313093"><ele>93.0</ele><time>2026-04-06T06:18:53Z</time></trkpt><trkpt lat="45.5135537601688" lon="11.363131567865125"><ele>93.0</ele><time>2026-04-06T06:18:54Z</time></trkpt><trkpt lat="45.51351768100644" lon="11.362954545293624"><ele>92.66666666666667</ele><time>2026-04-06T06:18:55Z</time></trkpt><trkpt lat="45.513518954857574" lon="11.36274148923225"><ele>92.33333333333334</ele><time>2026-04-06T06:18:56Z</time></trkpt><trkpt lat="45.51350948256534" lon="11.362532563216057"><ele>92.0</ele><time>2026-04-06T06:18:57Z</time></trkpt><trkpt lat="45.513520262317165" lon="11.362300562937115"><ele>92.66666666666667</ele><time>2026-04-06T06:18:58Z</time></trkpt><trkpt lat="45.51350259227992" lon="11.362033017057687"><ele>93.33333333333333</ele><time>2026-04-06T06:18:59Z</time></trkpt><trkpt lat="45.513518362158734" lon="11.361763554712354"><ele>94.0</ele><time>2026-04-06T06:19:00Z</time></trkpt><trkpt lat="45.5135107709106" lon="11.361452545788607"><ele>93.66666666666666</ele><time>2026-04-06T06:19:01Z</time></trkpt><trkpt lat="45.51350388337905" lon="11.36113934165962"><ele>93.33333333333333</ele><time>2026-04-06T06:19:02Z</time></trkpt><trkpt lat="45.513501123106934" lon="11.360900769956146"><ele>93.0</ele><time>2026-04-06T06:19:03Z</time></trkpt><trkpt lat="45.51351651015592" lon="11.360699812096346"><ele>93.60000000000001</ele><time>2026-04-06T06:19:04Z</time></trkpt><trkpt lat="45.513555210183796" lon="11.360531508561197"><ele>94.2</ele><time>2026-04-06T06:19:05Z</time></trkpt><trkpt lat="45.51354127014987" lon="11.360396996587298"><ele>94.8</ele><time>2026-04-06T06:19:06Z</time></trkpt><trkpt lat="45.51348303029946" lon="11.360300550354438"><ele>95.4</ele><time>2026-04-06T06:19:07Z</time></trkpt><trkpt lat="45.51340361008935" lon="11.36018424032889"><ele>96.0</ele><time>2026-04-06T06:19:08Z</time></trkpt><trkpt lat="45.51330800973536" lon="11.36010901379088"><ele>96.0</ele><time>2026-04-06T06:19:09Z</time></trkpt><trkpt lat="45.51318773218685" lon="11.360003502605915"><ele>96.0</ele><time>2026-04-06T06:19:10Z</time></trkpt><trkpt lat="45.51310330909492" lon="11.35981513884918"><ele>96.0</ele><time>2026-04-06T06:19:11Z</time></trkpt><trkpt lat="45.51303480789939" lon="11.359560157816837"><ele>95.66666666666667</ele><time>2026-04-06T06:19:12Z</time></trkpt><trkpt lat="45.51295978599142" lon="11.359278767389762"><ele>95.33333333333334</ele><time>2026-04-06T06:19:13Z</time></trkpt><trkpt lat="45.51287028141161" lon="11.358965982025833"><ele>95.0</ele><time>2026-04-06T06:19:14Z</time></trkpt><trkpt lat="45.512764935297916" lon="11.358627863849591"><ele>94.5</ele><time>2026-04-06T06:19:15Z</time></trkpt><trkpt lat="45.51265452683547" lon="11.358254428787816"><ele>94.0</ele><time>2026-04-06T06:19:16Z</time></trkpt><trkpt lat="45.51255182717069" lon="11.357909556915557"><ele>95.5</ele><time>2026-04-06T06:19:17Z</time></trkpt><trkpt lat="45.51245911663389" lon="11.357597984175696"><ele>97.0</ele><time>2026-04-06T06:19:18Z</time></trkpt><trkpt lat="45.51237137185269" lon="11.357259015723589"><ele>97.0</ele><time>2026-04-06T06:19:19Z</time></trkpt><trkpt lat="45.512268996237864" lon="11.356899414222532"><ele>97.0</ele><time>2026-04-06T06:19:20Z</time></trkpt><trkpt lat="45.51215597058892" lon="11.356519456032029"><ele>97.5</ele><time>2026-04-06T06:19:21Z</time></trkpt><trkpt lat="45.51207679883754" lon="11.356097193733074"><ele>98.0</ele><time>2026-04-06T06:19:22Z</time></trkpt><trkpt lat="45.51200473839622" lon="11.355657184485906"><ele>98.0</ele><time>2026-04-06T06:19:23Z</time></trkpt><trkpt lat="45.51195081370169" lon="11.355182869545084"><ele>98.0</ele><time>2026-04-06T06:19:24Z</time></trkpt><trkpt lat="45.51191965269581" lon="11.354683591858928"><ele>98.0</ele><time>2026-04-06T06:19:25Z</time></trkpt><trkpt lat="45.51188776894634" lon="11.354200696113002"><ele>98.0</ele><time>2026-04-06T06:19:26Z</time></trkpt><trkpt lat="45.51185697235232" lon="11.353769765403873"><ele>98.0</ele><time>2026-04-06T06:19:27Z</time></trkpt><trkpt lat="45.51182862249542" lon="11.353366827894895"><ele>98.0</ele><time>2026-04-06T06:19:28Z</time></trkpt><trkpt lat="45.511798568737525" lon="11.352997370577366"><ele>98.0</ele><time>2026-04-06T06:19:29Z</time></trkpt><trkpt lat="45.51177530375526" lon="11.352636262272958"><ele>98.0</ele><time>2026-04-06T06:19:30Z</time></trkpt><trkpt lat="45.51176635460933" lon="11.352321225545722"><ele>98.33333333333333</ele><time>2026-04-06T06:19:31Z</time></trkpt><trkpt lat="45.511742034137235" lon="11.352009279957088"><ele>98.66666666666666</ele><time>2026-04-06T06:19:32Z</time></trkpt><trkpt lat="45.51172301356752" lon="11.351713078112779"><ele>99.0</ele><time>2026-04-06T06:19:33Z</time></trkpt><trkpt lat="45.51170718865238" lon="11.351432383980093"><ele>99.0</ele><time>2026-04-06T06:19:34Z</time></trkpt><trkpt lat="45.511688386007755" lon="11.351154736358364"><ele>99.0</ele><time>2026-04-06T06:19:35Z</time></trkpt><trkpt lat="45.511666824090085" lon="11.350887329481973"><ele>99.0</ele><time>2026-04-06T06:19:36Z</time></trkpt><trkpt lat="45.51164289177182" lon="11.35062005756172"><ele>99.0</ele><time>2026-04-06T06:19:37Z</time></trkpt><trkpt lat="45.51162141167235" lon="11.350353516474035"><ele>99.0</ele><time>2026-04-06T06:19:38Z</time></trkpt><trkpt lat="45.51160670119467" lon="11.350106193429486"><ele>99.0</ele><time>2026-04-06T06:19:39Z</time></trkpt><trkpt lat="45.51159411415312" lon="11.349873228943538"><ele>99.0</ele><time>2026-04-06T06:19:40Z</time></trkpt><trkpt lat="45.51157965428367" lon="11.349647873946964"><ele>99.0</ele><time>2026-04-06T06:19:41Z</time></trkpt><trkpt lat="45.51156164468113" lon="11.349412340469874"><ele>99.0</ele><time>2026-04-06T06:19:42Z</time></trkpt><trkpt lat="45.5115507828348" lon="11.349164276391768"><ele>99.0</ele><time>2026-04-06T06:19:43Z</time></trkpt><trkpt lat="45.51155252807302" lon="11.348904537547545"><ele>99.0</ele><time>2026-04-06T06:19:44Z</time></trkpt><trkpt lat="45.51156968491632" lon="11.34863613307282"><ele>99.0</ele><time>2026-04-06T06:19:45Z</time></trkpt><trkpt lat="45.51160107664219" lon="11.348363334857837"><ele>99.66666666666666</ele><time>2026-04-06T06:19:46Z</time></trkpt><trkpt lat="45.51163318485288" lon="11.34811496357008"><ele>100.33333333333333</ele><time>2026-04-06T06:19:47Z</time></trkpt><trkpt lat="45.51165920939863" lon="11.34789054960523"><ele>101.0</ele><time>2026-04-06T06:19:48Z</time></trkpt><trkpt lat="45.51168667102217" lon="11.347700706667625"><ele>101.0</ele><time>2026-04-06T06:19:49Z</time></trkpt><trkpt lat="45.51169380878197" lon="11.347541041028425"><ele>101.0</ele><time>2026-04-06T06:19:50Z</time></trkpt><trkpt lat="45.51165929505919" lon="11.34738476664289"><ele>101.0</ele><time>2026-04-06T06:19:51Z</time></trkpt><trkpt lat="45.51157797522873" lon="11.347243084550692"><ele>101.0</ele><time>2026-04-06T06:19:52Z</time></trkpt><trkpt lat="45.511448046715394" lon="11.34713248803173"><ele>101.0</ele><time>2026-04-06T06:19:53Z</time></trkpt><trkpt lat="45.51135303487581" lon="11.3470882095836"><ele>101.0</ele><time>2026-04-06T06:19:54Z</time></trkpt><trkpt lat="45.511217042373744" lon="11.347109315378919"><ele>101.0</ele><time>2026-04-06T06:19:55Z</time></trkpt><trkpt lat="45.510927197694755" lon="11.34708254758719"><ele>100.33333333333333</ele><time>2026-04-06T06:19:56Z</time></trkpt><trkpt lat="45.510691349593664" lon="11.347074285278802"><ele>99.66666666666666</ele><time>2026-04-06T06:19:57Z</time></trkpt><trkpt lat="45.510526793968815" lon="11.347040295729295"><ele>99.0</ele><time>2026-04-06T06:19:58Z</time></trkpt><trkpt lat="45.510384918482366" lon="11.346979202841997"><ele>98.66666666666666</ele><time>2026-04-06T06:19:59Z</time></trkpt><trkpt lat="45.5102806643623" lon="11.346966366522022"><ele>98.33333333333333</ele><time>2026-04-06T06:20:00Z</time></trkpt><trkpt lat="45.51019232238305" lon="11.346603151221366"><ele>98.0</ele><time>2026-04-06T06:20:01Z</time></trkpt><trkpt lat="45.51010662253757" lon="11.346356017228434"><ele>98.0</ele><time>2026-04-06T06:20:02Z</time></trkpt><trkpt lat="45.510000243254325" lon="11.346107175412772"><ele>98.0</ele><time>2026-04-06T06:20:03Z</time></trkpt><trkpt lat="45.50989715233637" lon="11.345840216461685"><ele>98.0</ele><time>2026-04-06T06:20:04Z</time></trkpt><trkpt lat="45.50977526250263" lon="11.345567354996184"><ele>97.33333333333333</ele><time>2026-04-06T06:20:05Z</time></trkpt><trkpt lat="45.509668219443256" lon="11.345301774988021"><ele>96.66666666666666</ele><time>2026-04-06T06:20:06Z</time></trkpt><trkpt lat="45.50957933958248" lon="11.345088030335996"><ele>96.0</ele><time>2026-04-06T06:20:07Z</time></trkpt><trkpt lat="45.509505266091196" lon="11.34491341467519"><ele>96.8</ele><time>2026-04-06T06:20:08Z</time></trkpt><trkpt lat="45.509439698934436" lon="11.344769512139562"><ele>97.6</ele><time>2026-04-06T06:20:09Z</time></trkpt><trkpt lat="45.50937979251594" lon="11.344643249389833"><ele>98.4</ele><time>2026-04-06T06:20:10Z</time></trkpt><trkpt lat="45.50933621229996" lon="11.344542169782882"><ele>99.2</ele><time>2026-04-06T06:20:11Z</time></trkpt><trkpt lat="45.50929993164343" lon="11.344466111181353"><ele>100.0</ele><time>2026-04-06T06:20:12Z</time></trkpt><trkpt lat="45.50932751933918" lon="11.344352662269051"><ele>99.8</ele><time>2026-04-06T06:20:13Z</time></trkpt><trkpt lat="45.50937930823998" lon="11.344267153046216"><ele>99.6</ele><time>2026-04-06T06:20:14Z</time></trkpt><trkpt lat="45.509478279545846" lon="11.34420360115292"><ele>99.4</ele><time>2026-04-06T06:20:15.001Z</time></trkpt><trkpt lat="45.509568062910674" lon="11.344090726927723"><ele>99.2</ele><time>2026-04-06T06:20:16.001Z</time></trkpt><trkpt lat="45.509663526679724" lon="11.34394356460645"><ele>99.0</ele><time>2026-04-06T06:20:17.001Z</time></trkpt><trkpt lat="45.50973914143269" lon="11.34374425504497"><ele>99.75</ele><time>2026-04-06T06:20:18.001Z</time></trkpt><trkpt lat="45.50980270609655" lon="11.34351727440995"><ele>100.5</ele><time>2026-04-06T06:20:19.001Z</time></trkpt><trkpt lat="45.509864745273" lon="11.343339392360948"><ele>101.25</ele><time>2026-04-06T06:20:20.001Z</time></trkpt><trkpt lat="45.50991721384452" lon="11.343199198761493"><ele>102.0</ele><time>2026-04-06T06:20:21.001Z</time></trkpt><trkpt lat="45.509958302826035" lon="11.343073169861427"><ele>102.0</ele><time>2026-04-06T06:20:22.001Z</time></trkpt><trkpt lat="45.509988405119024" lon="11.342985483141002"><ele>102.0</ele><time>2026-04-06T06:20:23.001Z</time></trkpt><trkpt lat="45.51004375945065" lon="11.342919120562115"><ele>102.0</ele><time>2026-04-06T06:20:25.001Z</time></trkpt><trkpt lat="45.510107262815986" lon="11.343068313462814"><ele>102.0</ele><time>2026-04-06T06:20:29.001Z</time></trkpt><trkpt lat="45.51007825950439" lon="11.342969050478967"><ele>102.0</ele><time>2026-04-06T06:50:07.016Z</time></trkpt><trkpt lat="45.509986785089566" lon="11.342963951692772"><ele>102.0</ele><time>2026-04-06T06:50:12.016Z</time></trkpt><trkpt lat="45.50993105770271" lon="11.343029811620086"><ele>102.0</ele><time>2026-04-06T06:50:13.016Z</time></trkpt><trkpt lat="45.509868793751714" lon="11.343177299454197"><ele>102.0</ele><time>2026-04-06T06:50:15.016Z</time></trkpt><trkpt lat="45.50981782145361" lon="11.34334679080041"><ele>102.0</ele><time>2026-04-06T06:50:17.016Z</time></trkpt><trkpt lat="45.50977786060429" lon="11.34344142968618"><ele>102.0</ele><time>2026-04-06T06:50:18.016Z</time></trkpt><trkpt lat="45.50974141809317" lon="11.343526906279612"><ele>102.0</ele><time>2026-04-06T06:50:19.016Z</time></trkpt><trkpt lat="45.509682712602945" lon="11.343687373506354"><ele>102.0</ele><time>2026-04-06T06:50:21.016Z</time></trkpt><trkpt lat="45.50964661166989" lon="11.343776539004708"><ele>102.0</ele><time>2026-04-06T06:50:22.016Z</time></trkpt><trkpt lat="45.50960983618614" lon="11.343867099069291"><ele>102.0</ele><time>2026-04-06T06:50:23.016Z</time></trkpt><trkpt lat="45.50956008382027" lon="11.343971476354067"><ele>102.0</ele><time>2026-04-06T06:50:24.016Z</time></trkpt><trkpt lat="45.50948444539731" lon="11.344108575432083"><ele>102.0</ele><time>2026-04-06T06:50:25.016Z</time></trkpt><trkpt lat="45.50940802239384" lon="11.344195470103264"><ele>102.0</ele><time>2026-04-06T06:50:27.016Z</time></trkpt><trkpt lat="45.50934359723089" lon="11.344268125059815"><ele>102.0</ele><time>2026-04-06T06:50:28.016Z</time></trkpt><trkpt lat="45.509284286991225" lon="11.344322398212475"><ele>102.0</ele><time>2026-04-06T06:50:29.016Z</time></trkpt><trkpt lat="45.50922033495338" lon="11.344357668454704"><ele>102.0</ele><time>2026-04-06T06:50:30.016Z</time></trkpt><trkpt lat="45.50915420715059" lon="11.344413882854358"><ele>102.0</ele><time>2026-04-06T06:50:31.016Z</time></trkpt><trkpt lat="45.50908015673357" lon="11.34448288330771"><ele>102.0</ele><time>2026-04-06T06:50:32.016Z</time></trkpt><trkpt lat="45.50899231282605" lon="11.344572197466334"><ele>102.0</ele><time>2026-04-06T06:50:33.016Z</time></trkpt><trkpt lat="45.508877942418366" lon="11.34468483864981"><ele>102.0</ele><time>2026-04-06T06:50:34.016Z</time></trkpt><trkpt lat="45.50876473252795" lon="11.344792058591302"><ele>102.0</ele><time>2026-04-06T06:50:35.016Z</time></trkpt><trkpt lat="45.50865922698232" lon="11.344879226093113"><ele>102.0</ele><time>2026-04-06T06:50:36.016Z</time></trkpt><trkpt lat="45.50853687721943" lon="11.344974320216622"><ele>101.66666666666666</ele><time>2026-04-06T06:50:37.016Z</time></trkpt><trkpt lat="45.50840707603882" lon="11.345089062607649"><ele>101.33333333333333</ele><time>2026-04-06T06:50:38.016Z</time></trkpt><trkpt lat="45.50825247064931" lon="11.345235163247677"><ele>101.0</ele><time>2026-04-06T06:50:39.016Z</time></trkpt><trkpt lat="45.508103710079226" lon="11.345363629836145"><ele>101.0</ele><time>2026-04-06T06:50:40.016Z</time></trkpt><trkpt lat="45.50796278778801" lon="11.34548528893498"><ele>101.0</ele><time>2026-04-06T06:50:41.016Z</time></trkpt><trkpt lat="45.5078228987796" lon="11.345607189680742"><ele>101.0</ele><time>2026-04-06T06:50:42.016Z</time></trkpt><trkpt lat="45.50767564378421" lon="11.345739226658122"><ele>100.33333333333333</ele><time>2026-04-06T06:50:43.016Z</time></trkpt><trkpt lat="45.50749858829435" lon="11.345887418020256"><ele>99.66666666666666</ele><time>2026-04-06T06:50:44.016Z</time></trkpt><trkpt lat="45.5073150721151" lon="11.34603735812693"><ele>99.0</ele><time>2026-04-06T06:50:45.016Z</time></trkpt><trkpt lat="45.50715454437777" lon="11.346181883383247"><ele>99.0</ele><time>2026-04-06T06:50:46.016Z</time></trkpt><trkpt lat="45.5069972875553" lon="11.346313737611426"><ele>99.0</ele><time>2026-04-06T06:50:47.016Z</time></trkpt><trkpt lat="45.506829971242276" lon="11.346454904677733"><ele>99.0</ele><time>2026-04-06T06:50:48.016Z</time></trkpt><trkpt lat="45.50665358810714" lon="11.346617328372078"><ele>99.0</ele><time>2026-04-06T06:50:49.016Z</time></trkpt><trkpt lat="45.5064850661097" lon="11.346768522861707"><ele>99.0</ele><time>2026-04-06T06:50:50.016Z</time></trkpt><trkpt lat="45.50631707298549" lon="11.346919681291102"><ele>99.0</ele><time>2026-04-06T06:50:51.016Z</time></trkpt><trkpt lat="45.50616241073469" lon="11.347058624111385"><ele>98.66666666666666</ele><time>2026-04-06T06:50:52.016Z</time></trkpt><trkpt lat="45.506010672005694" lon="11.347189369845381"><ele>98.33333333333333</ele><time>2026-04-06T06:50:53.016Z</time></trkpt><trkpt lat="45.50585830113922" lon="11.347325493887466"><ele>98.0</ele><time>2026-04-06T06:50:54.016Z</time></trkpt><trkpt lat="45.50570006994024" lon="11.347472309976062"><ele>98.0</ele><time>2026-04-06T06:50:55.016Z</time></trkpt><trkpt lat="45.50553069845279" lon="11.347641236193235"><ele>98.0</ele><time>2026-04-06T06:50:56.016Z</time></trkpt><trkpt lat="45.50535106841248" lon="11.34782605665946"><ele>98.0</ele><time>2026-04-06T06:50:57.016Z</time></trkpt><trkpt lat="45.505178121169614" lon="11.348017390093727"><ele>97.66666666666666</ele><time>2026-04-06T06:50:58.016Z</time></trkpt><trkpt lat="45.50502393928181" lon="11.348195688806033"><ele>97.33333333333334</ele><time>2026-04-06T06:50:59.016Z</time></trkpt><trkpt lat="45.504879682431" lon="11.348371607119256"><ele>97.0</ele><time>2026-04-06T06:51:00.016Z</time></trkpt><trkpt lat="45.504723228481204" lon="11.348568855207585"><ele>97.0</ele><time>2026-04-06T06:51:01.016Z</time></trkpt><trkpt lat="45.50457361463019" lon="11.348779532793763"><ele>97.0</ele><time>2026-04-06T06:51:02.016Z</time></trkpt><trkpt lat="45.50441878656644" lon="11.349006023831564"><ele>97.0</ele><time>2026-04-06T06:51:03.016Z</time></trkpt><trkpt lat="45.50425404917042" lon="11.349245044450113"><ele>96.66666666666667</ele><time>2026-04-06T06:51:04.016Z</time></trkpt><trkpt lat="45.50410303972847" lon="11.349473996767008"><ele>96.33333333333334</ele><time>2026-04-06T06:51:05.016Z</time></trkpt><trkpt lat="45.503970855548964" lon="11.349688396521765"><ele>96.0</ele><time>2026-04-06T06:51:06.016Z</time></trkpt><trkpt lat="45.50384155153224" lon="11.349894675086418"><ele>95.0</ele><time>2026-04-06T06:51:07.016Z</time></trkpt><trkpt lat="45.50371074499753" lon="11.350092405104826"><ele>94.0</ele><time>2026-04-06T06:51:08.016Z</time></trkpt><trkpt lat="45.50357742395419" lon="11.35029523454725"><ele>93.0</ele><time>2026-04-06T06:51:09.016Z</time></trkpt><trkpt lat="45.50343362544171" lon="11.35051974880807"><ele>93.5</ele><time>2026-04-06T06:51:10.016Z</time></trkpt><trkpt lat="45.503278925441194" lon="11.350751701969873"><ele>94.0</ele><time>2026-04-06T06:51:11.016Z</time></trkpt><trkpt lat="45.50312145155193" lon="11.350982439773722"><ele>94.0</ele><time>2026-04-06T06:51:12.016Z</time></trkpt><trkpt lat="45.50295902934888" lon="11.35120953659341"><ele>94.0</ele><time>2026-04-06T06:51:13.016Z</time></trkpt><trkpt lat="45.50280385678513" lon="11.351425443849328"><ele>94.0</ele><time>2026-04-06T06:51:14.016Z</time></trkpt><trkpt lat="45.502653222485286" lon="11.35164206591247"><ele>94.0</ele><time>2026-04-06T06:51:15.016Z</time></trkpt><trkpt lat="45.50250784076042" lon="11.351859005027423"><ele>94.0</ele><time>2026-04-06T06:51:16.016Z</time></trkpt><trkpt lat="45.50235909982114" lon="11.352069921257387"><ele>94.0</ele><time>2026-04-06T06:51:17.016Z</time></trkpt><trkpt lat="45.50222322773651" lon="11.352275861271105"><ele>94.0</ele><time>2026-04-06T06:51:18.016Z</time></trkpt><trkpt lat="45.50208883104111" lon="11.352483036684413"><ele>94.0</ele><time>2026-04-06T06:51:19.016Z</time></trkpt><trkpt lat="45.50195009829654" lon="11.352696519173946"><ele>94.0</ele><time>2026-04-06T06:51:20.016Z</time></trkpt><trkpt lat="45.50180765044795" lon="11.352913601093354"><ele>93.0</ele><time>2026-04-06T06:51:21.016Z</time></trkpt><trkpt lat="45.50165704339539" lon="11.353137926221567"><ele>92.0</ele><time>2026-04-06T06:51:22.016Z</time></trkpt><trkpt lat="45.50151111483638" lon="11.353350998700682"><ele>91.0</ele><time>2026-04-06T06:51:23.016Z</time></trkpt><trkpt lat="45.50136915188947" lon="11.353557880973172"><ele>91.33333333333333</ele><time>2026-04-06T06:51:24.016Z</time></trkpt><trkpt lat="45.501231435458244" lon="11.353773399901241"><ele>91.66666666666667</ele><time>2026-04-06T06:51:25.016Z</time></trkpt><trkpt lat="45.5010918203799" lon="11.353993346152228"><ele>92.0</ele><time>2026-04-06T06:51:26.016Z</time></trkpt><trkpt lat="45.500948956193184" lon="11.354233192837711"><ele>92.0</ele><time>2026-04-06T06:51:27.016Z</time></trkpt><trkpt lat="45.500816865895594" lon="11.354457824296606"><ele>92.0</ele><time>2026-04-06T06:51:28.016Z</time></trkpt><trkpt lat="45.50069167324483" lon="11.354659795645498"><ele>92.0</ele><time>2026-04-06T06:51:29.016Z</time></trkpt><trkpt lat="45.50056894370109" lon="11.354858036622925"><ele>92.0</ele><time>2026-04-06T06:51:30.016Z</time></trkpt><trkpt lat="45.50044180362817" lon="11.355042081623347"><ele>92.0</ele><time>2026-04-06T06:51:31.016Z</time></trkpt><trkpt lat="45.50031820908282" lon="11.35521485760531"><ele>92.0</ele><time>2026-04-06T06:51:32.016Z</time></trkpt><trkpt lat="45.50019331976103" lon="11.355380957628551"><ele>92.0</ele><time>2026-04-06T06:51:33.016Z</time></trkpt><trkpt lat="45.50005924560471" lon="11.355559729899076"><ele>92.0</ele><time>2026-04-06T06:51:34.016Z</time></trkpt><trkpt lat="45.49991124067567" lon="11.355747114698028"><ele>92.0</ele><time>2026-04-06T06:51:35.016Z</time></trkpt><trkpt lat="45.499756717617274" lon="11.355945701780186"><ele>92.0</ele><time>2026-04-06T06:51:36.016Z</time></trkpt><trkpt lat="45.49959742317963" lon="11.356150854349426"><ele>92.0</ele><time>2026-04-06T06:51:37.016Z</time></trkpt><trkpt lat="45.49943523063237" lon="11.3563662177512"><ele>92.0</ele><time>2026-04-06T06:51:38.016Z</time></trkpt><trkpt lat="45.49926147770758" lon="11.356576706776181"><ele>91.66666666666667</ele><time>2026-04-06T06:51:39.016Z</time></trkpt><trkpt lat="45.499111897401114" lon="11.356776685078328"><ele>91.33333333333333</ele><time>2026-04-06T06:51:40.016Z</time></trkpt><trkpt lat="45.49895682632909" lon="11.356964122589373"><ele>91.0</ele><time>2026-04-06T06:51:41.016Z</time></trkpt><trkpt lat="45.49880160575909" lon="11.357154755515023"><ele>90.0</ele><time>2026-04-06T06:51:42.016Z</time></trkpt><trkpt lat="45.498648697519805" lon="11.357355816172067"><ele>89.0</ele><time>2026-04-06T06:51:43.016Z</time></trkpt><trkpt lat="45.498500416772785" lon="11.35755338558101"><ele>88.0</ele><time>2026-04-06T06:51:44.016Z</time></trkpt><trkpt lat="45.4983480939758" lon="11.357745021132484"><ele>88.0</ele><time>2026-04-06T06:51:45.016Z</time></trkpt><trkpt lat="45.49819794999452" lon="11.357924878566923"><ele>88.0</ele><time>2026-04-06T06:51:46.016Z</time></trkpt><trkpt lat="45.498044660726265" lon="11.35809958622998"><ele>88.0</ele><time>2026-04-06T06:51:47.016Z</time></trkpt><trkpt lat="45.4978924841899" lon="11.35829297545224"><ele>87.33333333333333</ele><time>2026-04-06T06:51:48.016Z</time></trkpt><trkpt lat="45.497738084935754" lon="11.358486314959135"><ele>86.66666666666667</ele><time>2026-04-06T06:51:49.016Z</time></trkpt><trkpt lat="45.497590242056575" lon="11.358690598403829"><ele>86.0</ele><time>2026-04-06T06:51:50.016Z</time></trkpt><trkpt lat="45.49744789444479" lon="11.358908942490011"><ele>86.0</ele><time>2026-04-06T06:51:51.016Z</time></trkpt><trkpt lat="45.497309636251224" lon="11.359137113769012"><ele>86.0</ele><time>2026-04-06T06:51:52.016Z</time></trkpt><trkpt lat="45.49717782975318" lon="11.359394299220986"><ele>86.0</ele><time>2026-04-06T06:51:53.016Z</time></trkpt><trkpt lat="45.49705437062962" lon="11.359656179654335"><ele>85.0</ele><time>2026-04-06T06:51:54.016Z</time></trkpt><trkpt lat="45.49692381483895" lon="11.359917378246937"><ele>84.0</ele><time>2026-04-06T06:51:55.016Z</time></trkpt><trkpt lat="45.49678183774533" lon="11.360168056149275"><ele>84.0</ele><time>2026-04-06T06:51:56.016Z</time></trkpt><trkpt lat="45.496638537711064" lon="11.360424532865942"><ele>84.0</ele><time>2026-04-06T06:51:57.016Z</time></trkpt><trkpt lat="45.496513246940275" lon="11.360676543203896"><ele>84.0</ele><time>2026-04-06T06:51:58.016Z</time></trkpt><trkpt lat="45.496393748324586" lon="11.360921260859428"><ele>84.0</ele><time>2026-04-06T06:51:59.016Z</time></trkpt><trkpt lat="45.49627207579774" lon="11.36116190756961"><ele>84.0</ele><time>2026-04-06T06:52:00.016Z</time></trkpt><trkpt lat="45.4961560766546" lon="11.361402116708256"><ele>84.0</ele><time>2026-04-06T06:52:01.016Z</time></trkpt><trkpt lat="45.49603675909619" lon="11.361638682987005"><ele>84.66666666666667</ele><time>2026-04-06T06:52:02.016Z</time></trkpt><trkpt lat="45.495916133130386" lon="11.361870730490752"><ele>85.33333333333334</ele><time>2026-04-06T06:52:03.016Z</time></trkpt><trkpt lat="45.49579574178299" lon="11.36208518213847"><ele>86.0</ele><time>2026-04-06T06:52:04.016Z</time></trkpt><trkpt lat="45.495677522899314" lon="11.362289763222178"><ele>86.0</ele><time>2026-04-06T06:52:05.016Z</time></trkpt><trkpt lat="45.49555658009188" lon="11.362491980465446"><ele>86.0</ele><time>2026-04-06T06:52:06.016Z</time></trkpt><trkpt lat="45.49542416318576" lon="11.362685060284083"><ele>86.0</ele><time>2026-04-06T06:52:07.016Z</time></trkpt><trkpt lat="45.49529334864267" lon="11.362881020390137"><ele>85.33333333333334</ele><time>2026-04-06T06:52:08.016Z</time></trkpt><trkpt lat="45.49516127296509" lon="11.363068806608421"><ele>84.66666666666667</ele><time>2026-04-06T06:52:09.016Z</time></trkpt><trkpt lat="45.49502503257584" lon="11.363243639869689"><ele>84.0</ele><time>2026-04-06T06:52:10.016Z</time></trkpt><trkpt lat="45.4949019513251" lon="11.36341568788307"><ele>84.0</ele><time>2026-04-06T06:52:11.016Z</time></trkpt><trkpt lat="45.4947750212965" lon="11.363604619549331"><ele>84.0</ele><time>2026-04-06T06:52:12.016Z</time></trkpt><trkpt lat="45.49465110625499" lon="11.3637879635254"><ele>84.0</ele><time>2026-04-06T06:52:13.016Z</time></trkpt><trkpt lat="45.494520055886845" lon="11.363976192573727"><ele>83.66666666666667</ele><time>2026-04-06T06:52:14.016Z</time></trkpt><trkpt lat="45.49438231889929" lon="11.364185562277227"><ele>83.33333333333334</ele><time>2026-04-06T06:52:15.016Z</time></trkpt><trkpt lat="45.4942395312821" lon="11.364403117156604"><ele>83.0</ele><time>2026-04-06T06:52:16.016Z</time></trkpt><trkpt lat="45.49409742492094" lon="11.36462548753491"><ele>83.0</ele><time>2026-04-06T06:52:17.016Z</time></trkpt><trkpt lat="45.4939642328461" lon="11.364825661248192"><ele>83.0</ele><time>2026-04-06T06:52:18.016Z</time></trkpt><trkpt lat="45.493839386932436" lon="11.365005558498186"><ele>83.0</ele><time>2026-04-06T06:52:19.016Z</time></trkpt><trkpt lat="45.49370695285186" lon="11.365180404475364"><ele>82.33333333333334</ele><time>2026-04-06T06:52:20.016Z</time></trkpt><trkpt lat="45.493575876541904" lon="11.365354123532192"><ele>81.66666666666667</ele><time>2026-04-06T06:52:21.016Z</time></trkpt><trkpt lat="45.493449912626446" lon="11.365519224533505"><ele>81.0</ele><time>2026-04-06T06:52:22.016Z</time></trkpt><trkpt lat="45.49333273600805" lon="11.365678234244214"><ele>81.0</ele><time>2026-04-06T06:52:23.016Z</time></trkpt><trkpt lat="45.49321540519619" lon="11.365816120519302"><ele>81.0</ele><time>2026-04-06T06:52:24.016Z</time></trkpt><trkpt lat="45.493099161642114" lon="11.365941667225941"><ele>81.0</ele><time>2026-04-06T06:52:25.016Z</time></trkpt><trkpt lat="45.492989916245335" lon="11.366061214365663"><ele>81.0</ele><time>2026-04-06T06:52:26.016Z</time></trkpt><trkpt lat="45.49287982246384" lon="11.366194803268643"><ele>80.75</ele><time>2026-04-06T06:52:27.016Z</time></trkpt><trkpt lat="45.49278165321216" lon="11.366305516853364"><ele>80.5</ele><time>2026-04-06T06:52:28.016Z</time></trkpt><trkpt lat="45.49268540099647" lon="11.366408481336471"><ele>80.25</ele><time>2026-04-06T06:52:29.016Z</time></trkpt><trkpt lat="45.492593290161665" lon="11.366525444465232"><ele>80.0</ele><time>2026-04-06T06:52:30.016Z</time></trkpt><trkpt lat="45.4925019904608" lon="11.366628587739593"><ele>80.0</ele><time>2026-04-06T06:52:31.016Z</time></trkpt><trkpt lat="45.49239798858508" lon="11.366746041947778"><ele>80.0</ele><time>2026-04-06T06:52:32.016Z</time></trkpt><trkpt lat="45.492301527861216" lon="11.366838800666113"><ele>80.0</ele><time>2026-04-06T06:52:33.016Z</time></trkpt><trkpt lat="45.49219165382789" lon="11.366955958979668"><ele>80.0</ele><time>2026-04-06T06:52:34.016Z</time></trkpt><trkpt lat="45.49207979669376" lon="11.367064710321396"><ele>80.0</ele><time>2026-04-06T06:52:35.016Z</time></trkpt><trkpt lat="45.4919671748821" lon="11.367156197627427"><ele>80.0</ele><time>2026-04-06T06:52:36.016Z</time></trkpt><trkpt lat="45.49186106417753" lon="11.367238885860232"><ele>80.0</ele><time>2026-04-06T06:52:37.016Z</time></trkpt><trkpt lat="45.491757256628674" lon="11.367327619396297"><ele>80.0</ele><time>2026-04-06T06:52:38.016Z</time></trkpt><trkpt lat="45.49164603856873" lon="11.367410340221692"><ele>80.0</ele><time>2026-04-06T06:52:39.016Z</time></trkpt><trkpt lat="45.49153446205747" lon="11.367490229596937"><ele>80.0</ele><time>2026-04-06T06:52:40.016Z</time></trkpt><trkpt lat="45.49142707065689" lon="11.367557079960497"><ele>80.0</ele><time>2026-04-06T06:52:41.016Z</time></trkpt><trkpt lat="45.49132175943727" lon="11.367618113949929"><ele>80.0</ele><time>2026-04-06T06:52:42.016Z</time></trkpt><trkpt lat="45.49121656720596" lon="11.367665496217473"><ele>79.5</ele><time>2026-04-06T06:52:43.016Z</time></trkpt><trkpt lat="45.49110854009777" lon="11.367705597317219"><ele>79.0</ele><time>2026-04-06T06:52:44.016Z</time></trkpt><trkpt lat="45.4909908986785" lon="11.36773857548006"><ele>78.5</ele><time>2026-04-06T06:52:45.016Z</time></trkpt><trkpt lat="45.49087118353739" lon="11.367767008342312"><ele>78.0</ele><time>2026-04-06T06:52:46.016Z</time></trkpt><trkpt lat="45.49076603324524" lon="11.36779731946476"><ele>78.0</ele><time>2026-04-06T06:52:47.016Z</time></trkpt><trkpt lat="45.49066681521065" lon="11.367827704267015"><ele>78.0</ele><time>2026-04-06T06:52:48.016Z</time></trkpt><trkpt lat="45.49058536691298" lon="11.367852719549546"><ele>78.0</ele><time>2026-04-06T06:52:49.016Z</time></trkpt><trkpt lat="45.49050553220991" lon="11.367885603462662"><ele>78.0</ele><time>2026-04-06T06:52:50.016Z</time></trkpt><trkpt lat="45.490426498179104" lon="11.367919683057131"><ele>78.0</ele><time>2026-04-06T06:52:51.016Z</time></trkpt><trkpt lat="45.490355230066186" lon="11.367952939047516"><ele>78.0</ele><time>2026-04-06T06:52:52.016Z</time></trkpt><trkpt lat="45.49028831871052" lon="11.368022587941294"><ele>77.66666666666667</ele><time>2026-04-06T06:52:53.016Z</time></trkpt><trkpt lat="45.49021634232786" lon="11.368082184123944"><ele>77.33333333333333</ele><time>2026-04-06T06:52:54.016Z</time></trkpt><trkpt lat="45.49014642210352" lon="11.368110423123733"><ele>77.0</ele><time>2026-04-06T06:52:55.016Z</time></trkpt><trkpt lat="45.49007624911404" lon="11.368147560560708"><ele>76.66666666666666</ele><time>2026-04-06T06:52:56.016Z</time></trkpt><trkpt lat="45.489999321877356" lon="11.368218475707012"><ele>76.33333333333333</ele><time>2026-04-06T06:52:57.016Z</time></trkpt><trkpt lat="45.48994204504573" lon="11.368328801154185"><ele>76.0</ele><time>2026-04-06T06:52:58.016Z</time></trkpt><trkpt lat="45.489918668569096" lon="11.36846596335528"><ele>76.0</ele><time>2026-04-06T06:52:59.016Z</time></trkpt><trkpt lat="45.4899316527578" lon="11.368613556928432"><ele>76.0</ele><time>2026-04-06T06:53:00.016Z</time></trkpt><trkpt lat="45.489936110659826" lon="11.368762782753274"><ele>76.0</ele><time>2026-04-06T06:53:01.016Z</time></trkpt><trkpt lat="45.48994085473577" lon="11.368910263201583"><ele>76.0</ele><time>2026-04-06T06:53:02.016Z</time></trkpt><trkpt lat="45.48983093521912" lon="11.369049080295756"><ele>76.0</ele><time>2026-04-06T06:53:03.016Z</time></trkpt><trkpt lat="45.489738265212836" lon="11.36916718912171"><ele>76.0</ele><time>2026-04-06T06:53:04.016Z</time></trkpt><trkpt lat="45.48963114745143" lon="11.369259894841129"><ele>76.0</ele><time>2026-04-06T06:53:05.016Z</time></trkpt><trkpt lat="45.48951350578109" lon="11.369346775889447"><ele>76.0</ele><time>2026-04-06T06:53:06.016Z</time></trkpt><trkpt lat="45.48938940225667" lon="11.369445659218933"><ele>76.0</ele><time>2026-04-06T06:53:07.016Z</time></trkpt><trkpt lat="45.48926536990291" lon="11.369565541968914"><ele>76.0</ele><time>2026-04-06T06:53:08.016Z</time></trkpt><trkpt lat="45.48914248815149" lon="11.369689189701226"><ele>76.0</ele><time>2026-04-06T06:53:09.016Z</time></trkpt><trkpt lat="45.489009139039815" lon="11.369814559457057"><ele>75.66666666666666</ele><time>2026-04-06T06:53:10.016Z</time></trkpt><trkpt lat="45.48887789507058" lon="11.369956431473629"><ele>75.33333333333333</ele><time>2026-04-06T06:53:11.016Z</time></trkpt><trkpt lat="45.488748821988004" lon="11.370095142418657"><ele>75.0</ele><time>2026-04-06T06:53:12.016Z</time></trkpt><trkpt lat="45.48861101934348" lon="11.370244599117656"><ele>75.0</ele><time>2026-04-06T06:53:13.016Z</time></trkpt><trkpt lat="45.4884745219187" lon="11.370408102702541"><ele>75.0</ele><time>2026-04-06T06:53:14.016Z</time></trkpt><trkpt lat="45.4883495223448" lon="11.370551915812406"><ele>75.0</ele><time>2026-04-06T06:53:15.016Z</time></trkpt><trkpt lat="45.48821202699342" lon="11.3706921607356"><ele>75.66666666666667</ele><time>2026-04-06T06:53:16.016Z</time></trkpt><trkpt lat="45.48807524363242" lon="11.370850820325531"><ele>76.33333333333334</ele><time>2026-04-06T06:53:17.016Z</time></trkpt><trkpt lat="45.487938549986936" lon="11.371020993521714"><ele>77.0</ele><time>2026-04-06T06:53:18.016Z</time></trkpt><trkpt lat="45.48778073477036" lon="11.371210090938696"><ele>76.33333333333334</ele><time>2026-04-06T06:53:19.016Z</time></trkpt><trkpt lat="45.487622236300375" lon="11.37139814858807"><ele>75.66666666666667</ele><time>2026-04-06T06:53:20.016Z</time></trkpt><trkpt lat="45.487475626817556" lon="11.371568431446157"><ele>75.0</ele><time>2026-04-06T06:53:21.016Z</time></trkpt><trkpt lat="45.487324909075205" lon="11.371754192665295"><ele>75.0</ele><time>2026-04-06T06:53:22.016Z</time></trkpt><trkpt lat="45.48716190968035" lon="11.371959351192151"><ele>75.0</ele><time>2026-04-06T06:53:23.016Z</time></trkpt><trkpt lat="45.486988088094854" lon="11.372182596614612"><ele>74.0</ele><time>2026-04-06T06:53:24.016Z</time></trkpt><trkpt lat="45.48680155226965" lon="11.372420490921574"><ele>73.0</ele><time>2026-04-06T06:53:25.016Z</time></trkpt><trkpt lat="45.48660601074915" lon="11.372670388939133"><ele>73.0</ele><time>2026-04-06T06:53:26.016Z</time></trkpt><trkpt lat="45.486423172780384" lon="11.372908520735177"><ele>73.0</ele><time>2026-04-06T06:53:27.016Z</time></trkpt><trkpt lat="45.48626421765921" lon="11.373132958085094"><ele>73.33333333333333</ele><time>2026-04-06T06:53:28.016Z</time></trkpt><trkpt lat="45.48611171299339" lon="11.373352379703244"><ele>73.66666666666667</ele><time>2026-04-06T06:53:29.016Z</time></trkpt><trkpt lat="45.48595648833794" lon="11.373566272146086"><ele>74.0</ele><time>2026-04-06T06:53:30.016Z</time></trkpt><trkpt lat="45.48580789370822" lon="11.373776843230436"><ele>74.0</ele><time>2026-04-06T06:53:31.016Z</time></trkpt><trkpt lat="45.485660443457576" lon="11.373997001687755"><ele>74.0</ele><time>2026-04-06T06:53:32.016Z</time></trkpt><trkpt lat="45.48551510309744" lon="11.374212607418718"><ele>74.0</ele><time>2026-04-06T06:53:33.016Z</time></trkpt><trkpt lat="45.48536019917575" lon="11.374440068907372"><ele>74.0</ele><time>2026-04-06T06:53:34.016Z</time></trkpt><trkpt lat="45.48520585702146" lon="11.374658234464508"><ele>74.0</ele><time>2026-04-06T06:53:35.016Z</time></trkpt><trkpt lat="45.48504109308185" lon="11.374882848893206"><ele>74.0</ele><time>2026-04-06T06:53:36.016Z</time></trkpt><trkpt lat="45.48487214366938" lon="11.375107353478263"><ele>74.0</ele><time>2026-04-06T06:53:37.016Z</time></trkpt><trkpt lat="45.48469582575888" lon="11.37533086889137"><ele>74.0</ele><time>2026-04-06T06:53:38.016Z</time></trkpt><trkpt lat="45.48451007231923" lon="11.375544035176269"><ele>74.5</ele><time>2026-04-06T06:53:39.016Z</time></trkpt><trkpt lat="45.48432672478765" lon="11.375745805837129"><ele>75.0</ele><time>2026-04-06T06:53:40.016Z</time></trkpt><trkpt lat="45.484150764876475" lon="11.375943449294917"><ele>75.0</ele><time>2026-04-06T06:53:41.016Z</time></trkpt><trkpt lat="45.483978730054034" lon="11.376139664877444"><ele>75.0</ele><time>2026-04-06T06:53:42.016Z</time></trkpt><trkpt lat="45.483807265069544" lon="11.376330283400582"><ele>75.0</ele><time>2026-04-06T06:53:43.016Z</time></trkpt><trkpt lat="45.48363869632062" lon="11.376523069825302"><ele>73.33333333333333</ele><time>2026-04-06T06:53:44.016Z</time></trkpt><trkpt lat="45.483469579802275" lon="11.376713787966656"><ele>71.66666666666666</ele><time>2026-04-06T06:53:45.016Z</time></trkpt><trkpt lat="45.48330024910213" lon="11.37691184508722"><ele>70.0</ele><time>2026-04-06T06:53:46.016Z</time></trkpt><trkpt lat="45.483125511261484" lon="11.377111813640514"><ele>70.0</ele><time>2026-04-06T06:53:47.016Z</time></trkpt><trkpt lat="45.48294316413128" lon="11.377303846207534"><ele>70.0</ele><time>2026-04-06T06:53:48.016Z</time></trkpt><trkpt lat="45.48274886480662" lon="11.377484180755044"><ele>70.0</ele><time>2026-04-06T06:53:49.016Z</time></trkpt><trkpt lat="45.4825514435043" lon="11.377661461134977"><ele>70.0</ele><time>2026-04-06T06:53:50.016Z</time></trkpt><trkpt lat="45.48234515494987" lon="11.377840245379877"><ele>70.0</ele><time>2026-04-06T06:53:51.017Z</time></trkpt><trkpt lat="45.482135830470554" lon="11.37801444794054"><ele>70.0</ele><time>2026-04-06T06:53:52.017Z</time></trkpt><trkpt lat="45.48192359215075" lon="11.378186989173477"><ele>70.0</ele><time>2026-04-06T06:53:53.017Z</time></trkpt><trkpt lat="45.481714450118055" lon="11.378354716186394"><ele>70.0</ele><time>2026-04-06T06:53:54.017Z</time></trkpt><trkpt lat="45.48151022883746" lon="11.378513126664965"><ele>70.0</ele><time>2026-04-06T06:53:55.017Z</time></trkpt><trkpt lat="45.481320158712975" lon="11.378655519251431"><ele>70.0</ele><time>2026-04-06T06:53:56.017Z</time></trkpt><trkpt lat="45.48113443296895" lon="11.378791555786545"><ele>70.0</ele><time>2026-04-06T06:53:57.017Z</time></trkpt><trkpt lat="45.4809477669593" lon="11.378938633141983"><ele>68.5</ele><time>2026-04-06T06:53:58.017Z</time></trkpt><trkpt lat="45.480725879015196" lon="11.379117305889695"><ele>67.0</ele><time>2026-04-06T06:53:59.017Z</time></trkpt><trkpt lat="45.480540461669555" lon="11.37925333925589"><ele>66.66666666666666</ele><time>2026-04-06T06:54:00.017Z</time></trkpt><trkpt lat="45.480362769440404" lon="11.379395003947733"><ele>66.33333333333333</ele><time>2026-04-06T06:54:01.017Z</time></trkpt><trkpt lat="45.480156334805216" lon="11.379564935802664"><ele>66.0</ele><time>2026-04-06T06:54:02.017Z</time></trkpt><trkpt lat="45.4799395789751" lon="11.379729555655022"><ele>66.0</ele><time>2026-04-06T06:54:03.017Z</time></trkpt><trkpt lat="45.47971985113219" lon="11.37988823529948"><ele>66.0</ele><time>2026-04-06T06:54:04.017Z</time></trkpt><trkpt lat="45.47951968889133" lon="11.380044321701707"><ele>66.0</ele><time>2026-04-06T06:54:05.017Z</time></trkpt><trkpt lat="45.47933217367642" lon="11.380191498797059"><ele>66.0</ele><time>2026-04-06T06:54:06.017Z</time></trkpt><trkpt lat="45.479146713607776" lon="11.380329898776813"><ele>66.0</ele><time>2026-04-06T06:54:07.017Z</time></trkpt><trkpt lat="45.478960730094904" lon="11.380467452989093"><ele>66.66666666666667</ele><time>2026-04-06T06:54:08.017Z</time></trkpt><trkpt lat="45.47876968958458" lon="11.380618172912042"><ele>67.33333333333334</ele><time>2026-04-06T06:54:09.017Z</time></trkpt><trkpt lat="45.478583604934386" lon="11.38076302934889"><ele>68.0</ele><time>2026-04-06T06:54:10.017Z</time></trkpt><trkpt lat="45.47839911971459" lon="11.380906647580527"><ele>68.0</ele><time>2026-04-06T06:54:11.017Z</time></trkpt><trkpt lat="45.47821200247137" lon="11.381027922953148"><ele>68.0</ele><time>2026-04-06T06:54:12.017Z</time></trkpt><trkpt lat="45.47803148355716" lon="11.381160272056949"><ele>68.0</ele><time>2026-04-06T06:54:13.017Z</time></trkpt><trkpt lat="45.47783730386601" lon="11.381289288640433"><ele>68.33333333333334</ele><time>2026-04-06T06:54:14.017Z</time></trkpt><trkpt lat="45.47763180386506" lon="11.381402914259931"><ele>68.66666666666667</ele><time>2026-04-06T06:54:15.017Z</time></trkpt><trkpt lat="45.47742505457332" lon="11.381494795923654"><ele>69.0</ele><time>2026-04-06T06:54:16.017Z</time></trkpt><trkpt lat="45.477218418462456" lon="11.38157624026043"><ele>68.66666666666667</ele><time>2026-04-06T06:54:17.017Z</time></trkpt><trkpt lat="45.47701794077251" lon="11.381661052673769"><ele>68.33333333333334</ele><time>2026-04-06T06:54:18.017Z</time></trkpt><trkpt lat="45.4768147317351" lon="11.381756247421341"><ele>68.0</ele><time>2026-04-06T06:54:19.017Z</time></trkpt><trkpt lat="45.47661255469513" lon="11.381865142558967"><ele>68.0</ele><time>2026-04-06T06:54:20.017Z</time></trkpt><trkpt lat="45.476411333820046" lon="11.381959370072828"><ele>68.0</ele><time>2026-04-06T06:54:21.017Z</time></trkpt><trkpt lat="45.47620948293949" lon="11.38204993429217"><ele>68.0</ele><time>2026-04-06T06:54:22.017Z</time></trkpt><trkpt lat="45.47599731560392" lon="11.382155679702453"><ele>67.5</ele><time>2026-04-06T06:54:23.017Z</time></trkpt><trkpt lat="45.4757687597438" lon="11.38226546985965"><ele>67.0</ele><time>2026-04-06T06:54:24.017Z</time></trkpt><trkpt lat="45.475521344594426" lon="11.382385742559686"><ele>65.5</ele><time>2026-04-06T06:54:25.017Z</time></trkpt><trkpt lat="45.47526403650205" lon="11.382532834875267"><ele>64.0</ele><time>2026-04-06T06:54:26.017Z</time></trkpt><trkpt lat="45.47499423275517" lon="11.382685999764629"><ele>64.0</ele><time>2026-04-06T06:54:27.017Z</time></trkpt><trkpt lat="45.474707221658534" lon="11.382820189409058"><ele>64.0</ele><time>2026-04-06T06:54:28.017Z</time></trkpt><trkpt lat="45.474404875292734" lon="11.382955880407668"><ele>64.0</ele><time>2026-04-06T06:54:29.017Z</time></trkpt><trkpt lat="45.47410128104093" lon="11.383092592923655"><ele>64.0</ele><time>2026-04-06T06:54:30.017Z</time></trkpt><trkpt lat="45.47380413421732" lon="11.383231596624618"><ele>63.0</ele><time>2026-04-06T06:54:31.017Z</time></trkpt><trkpt lat="45.47351445594375" lon="11.383362631656402"><ele>62.0</ele><time>2026-04-06T06:54:32.017Z</time></trkpt><trkpt lat="45.47323027295152" lon="11.38350640474051"><ele>62.0</ele><time>2026-04-06T06:54:33.017Z</time></trkpt><trkpt lat="45.472956522677926" lon="11.38363958111727"><ele>62.0</ele><time>2026-04-06T06:54:34.017Z</time></trkpt><trkpt lat="45.47269900109984" lon="11.383758695028662"><ele>63.0</ele><time>2026-04-06T06:54:35.017Z</time></trkpt><trkpt lat="45.47245631578292" lon="11.383871850946802"><ele>64.0</ele><time>2026-04-06T06:54:36.017Z</time></trkpt><trkpt lat="45.47220062425389" lon="11.383989303868285"><ele>64.5</ele><time>2026-04-06T06:54:37.017Z</time></trkpt><trkpt lat="45.471938074386415" lon="11.384118034956767"><ele>65.0</ele><time>2026-04-06T06:54:38.017Z</time></trkpt><trkpt lat="45.47167291265997" lon="11.384244144927708"><ele>65.0</ele><time>2026-04-06T06:54:39.017Z</time></trkpt><trkpt lat="45.47141458752243" lon="11.384369182367221"><ele>65.0</ele><time>2026-04-06T06:54:40.017Z</time></trkpt><trkpt lat="45.47118305301674" lon="11.384490375786365"><ele>65.0</ele><time>2026-04-06T06:54:41.017Z</time></trkpt><trkpt lat="45.470958458385205" lon="11.384601597660124"><ele>65.0</ele><time>2026-04-06T06:54:42.017Z</time></trkpt><trkpt lat="45.47074378736744" lon="11.384703603510108"><ele>64.5</ele><time>2026-04-06T06:54:43.017Z</time></trkpt><trkpt lat="45.47052758942915" lon="11.384812110790701"><ele>64.0</ele><time>2026-04-06T06:54:44.017Z</time></trkpt><trkpt lat="45.47030954284339" lon="11.38493076622351"><ele>63.33333333333333</ele><time>2026-04-06T06:54:45.017Z</time></trkpt><trkpt lat="45.47010782463898" lon="11.385050497030878"><ele>62.66666666666667</ele><time>2026-04-06T06:54:46.017Z</time></trkpt><trkpt lat="45.469904021840414" lon="11.38515269106181"><ele>62.0</ele><time>2026-04-06T06:54:47.017Z</time></trkpt><trkpt lat="45.46968837766698" lon="11.385263699340884"><ele>61.5</ele><time>2026-04-06T06:54:48.017Z</time></trkpt><trkpt lat="45.46947346244762" lon="11.385391122246153"><ele>61.0</ele><time>2026-04-06T06:54:49.017Z</time></trkpt><trkpt lat="45.46926127136651" lon="11.385515825655933"><ele>61.0</ele><time>2026-04-06T06:54:50.017Z</time></trkpt><trkpt lat="45.46904616915321" lon="11.38563502935764"><ele>61.0</ele><time>2026-04-06T06:54:51.017Z</time></trkpt><trkpt lat="45.468829306739124" lon="11.38575227204465"><ele>61.0</ele><time>2026-04-06T06:54:52.017Z</time></trkpt><trkpt lat="45.46861751565993" lon="11.385867890805402"><ele>61.0</ele><time>2026-04-06T06:54:53.017Z</time></trkpt><trkpt lat="45.46841168037716" lon="11.385985036933198"><ele>61.0</ele><time>2026-04-06T06:54:54.017Z</time></trkpt><trkpt lat="45.46821426463994" lon="11.386092923993035"><ele>61.0</ele><time>2026-04-06T06:54:55.017Z</time></trkpt><trkpt lat="45.468014896056644" lon="11.38620028782332"><ele>61.0</ele><time>2026-04-06T06:54:56.017Z</time></trkpt><trkpt lat="45.46782705196604" lon="11.386298005630556"><ele>61.0</ele><time>2026-04-06T06:54:57.017Z</time></trkpt><trkpt lat="45.46764239731503" lon="11.386400973917167"><ele>61.33333333333333</ele><time>2026-04-06T06:54:58.017Z</time></trkpt><trkpt lat="45.46745652273318" lon="11.386501358197869"><ele>61.66666666666667</ele><time>2026-04-06T06:54:59.017Z</time></trkpt><trkpt lat="45.46726385661991" lon="11.386610967925979"><ele>62.0</ele><time>2026-04-06T06:55:00.017Z</time></trkpt><trkpt lat="45.46706956319403" lon="11.38672352370096"><ele>62.0</ele><time>2026-04-06T06:55:01.017Z</time></trkpt><trkpt lat="45.466878290374474" lon="11.386825828605465"><ele>62.0</ele><time>2026-04-06T06:55:02.017Z</time></trkpt><trkpt lat="45.46668362359422" lon="11.386927067970095"><ele>62.0</ele><time>2026-04-06T06:55:03.017Z</time></trkpt><trkpt lat="45.46648701213551" lon="11.387028368102245"><ele>62.0</ele><time>2026-04-06T06:55:04.017Z</time></trkpt><trkpt lat="45.466284717878054" lon="11.387132599188575"><ele>62.0</ele><time>2026-04-06T06:55:05.017Z</time></trkpt><trkpt lat="45.4660733994068" lon="11.387248091463896"><ele>62.0</ele><time>2026-04-06T06:55:06.017Z</time></trkpt><trkpt lat="45.46584777759715" lon="11.387388754171717"><ele>61.5</ele><time>2026-04-06T06:55:07.017Z</time></trkpt><trkpt lat="45.46561834345836" lon="11.387529444951976"><ele>61.0</ele><time>2026-04-06T06:55:08.017Z</time></trkpt><trkpt lat="45.46536702761751" lon="11.387685171748894"><ele>61.0</ele><time>2026-04-06T06:55:09.017Z</time></trkpt><trkpt lat="45.46510482242225" lon="11.387840086322836"><ele>61.0</ele><time>2026-04-06T06:55:10.017Z</time></trkpt><trkpt lat="45.46483630479477" lon="11.3879969693056"><ele>60.5</ele><time>2026-04-06T06:55:11.017Z</time></trkpt><trkpt lat="45.46457290902898" lon="11.388130916860748"><ele>60.0</ele><time>2026-04-06T06:55:12.017Z</time></trkpt><trkpt lat="45.46432651004132" lon="11.388256163588826"><ele>60.0</ele><time>2026-04-06T06:55:13.017Z</time></trkpt><trkpt lat="45.46411112207362" lon="11.38837253248006"><ele>60.0</ele><time>2026-04-06T06:55:14.017Z</time></trkpt><trkpt lat="45.46391882880026" lon="11.38848059495746"><ele>60.0</ele><time>2026-04-06T06:55:15.017Z</time></trkpt><trkpt lat="45.46374122242766" lon="11.388572567002717"><ele>59.66666666666667</ele><time>2026-04-06T06:55:16.017Z</time></trkpt><trkpt lat="45.46356615312549" lon="11.388651936456379"><ele>59.333333333333336</ele><time>2026-04-06T06:55:17.017Z</time></trkpt><trkpt lat="45.4633934193377" lon="11.388731484064225"><ele>59.0</ele><time>2026-04-06T06:55:18.017Z</time></trkpt><trkpt lat="45.46322502029779" lon="11.38880237914924"><ele>58.66666666666667</ele><time>2026-04-06T06:55:19.017Z</time></trkpt><trkpt lat="45.463060656951114" lon="11.388867732231112"><ele>58.33333333333333</ele><time>2026-04-06T06:55:20.017Z</time></trkpt><trkpt lat="45.46289737917808" lon="11.388925403036879"><ele>58.0</ele><time>2026-04-06T06:55:21.017Z</time></trkpt><trkpt lat="45.46274357369502" lon="11.38897298393398"><ele>58.0</ele><time>2026-04-06T06:55:22.017Z</time></trkpt><trkpt lat="45.462599866108164" lon="11.389019542393005"><ele>58.0</ele><time>2026-04-06T06:55:23.017Z</time></trkpt><trkpt lat="45.46246041942582" lon="11.389054280277076"><ele>58.0</ele><time>2026-04-06T06:55:24.017Z</time></trkpt><trkpt lat="45.46233569059424" lon="11.389086477540815"><ele>58.0</ele><time>2026-04-06T06:55:25.017Z</time></trkpt><trkpt lat="45.46219359484004" lon="11.389139419557678"><ele>58.5</ele><time>2026-04-06T06:55:26.017Z</time></trkpt><trkpt lat="45.462060820661186" lon="11.389173899652674"><ele>59.0</ele><time>2026-04-06T06:55:27.017Z</time></trkpt><trkpt lat="45.461924227653206" lon="11.389220204908344"><ele>59.5</ele><time>2026-04-06T06:55:28.017Z</time></trkpt><trkpt lat="45.4617903052773" lon="11.389222491134957"><ele>60.0</ele><time>2026-04-06T06:55:29.017Z</time></trkpt><trkpt lat="45.461669829623915" lon="11.389224550688054"><ele>60.0</ele><time>2026-04-06T06:55:30.017Z</time></trkpt><trkpt lat="45.461475264050456" lon="11.389360774359536"><ele>60.0</ele><time>2026-04-06T06:55:31.017Z</time></trkpt><trkpt lat="45.461316922510974" lon="11.389403514229892"><ele>60.0</ele><time>2026-04-06T06:55:32.017Z</time></trkpt><trkpt lat="45.46116669658369" lon="11.389451446412943"><ele>59.0</ele><time>2026-04-06T06:55:33.017Z</time></trkpt><trkpt lat="45.461017530899376" lon="11.389493656953748"><ele>58.0</ele><time>2026-04-06T06:55:34.017Z</time></trkpt><trkpt lat="45.46086257739686" lon="11.389543289091986"><ele>57.0</ele><time>2026-04-06T06:55:35.017Z</time></trkpt><trkpt lat="45.46071089519371" lon="11.389592753006239"><ele>57.0</ele><time>2026-04-06T06:55:36.017Z</time></trkpt><trkpt lat="45.46057116795145" lon="11.38963395334026"><ele>57.0</ele><time>2026-04-06T06:55:37.017Z</time></trkpt><trkpt lat="45.46043698403366" lon="11.389672221685158"><ele>57.0</ele><time>2026-04-06T06:55:38.017Z</time></trkpt><trkpt lat="45.46030811676163" lon="11.389717536636152"><ele>57.0</ele><time>2026-04-06T06:55:39.017Z</time></trkpt><trkpt lat="45.4601766038144" lon="11.389756519661411"><ele>56.5</ele><time>2026-04-06T06:55:40.017Z</time></trkpt><trkpt lat="45.460038802735404" lon="11.389796245532343"><ele>56.0</ele><time>2026-04-06T06:55:41.017Z</time></trkpt><trkpt lat="45.45991219267322" lon="11.389826125356311"><ele>55.5</ele><time>2026-04-06T06:55:42.017Z</time></trkpt><trkpt lat="45.459787438021316" lon="11.389854772522435"><ele>55.0</ele><time>2026-04-06T06:55:43.017Z</time></trkpt><trkpt lat="45.45965986658728" lon="11.3898752536509"><ele>55.0</ele><time>2026-04-06T06:55:44.017Z</time></trkpt><trkpt lat="45.459524794785665" lon="11.38987550609537"><ele>55.0</ele><time>2026-04-06T06:55:45.017Z</time></trkpt><trkpt lat="45.45939402288609" lon="11.389867632372031"><ele>55.0</ele><time>2026-04-06T06:55:46.017Z</time></trkpt><trkpt lat="45.45926499388678" lon="11.38984498279123"><ele>55.0</ele><time>2026-04-06T06:55:47.017Z</time></trkpt><trkpt lat="45.45914962768169" lon="11.38982715799943"><ele>55.0</ele><time>2026-04-06T06:55:48.017Z</time></trkpt><trkpt lat="45.45904345177244" lon="11.389794212804397"><ele>55.0</ele><time>2026-04-06T06:55:49.017Z</time></trkpt><trkpt lat="45.4589417206576" lon="11.389752252511213"><ele>55.0</ele><time>2026-04-06T06:55:50.017Z</time></trkpt><trkpt lat="45.458841884440304" lon="11.389713303422957"><ele>55.0</ele><time>2026-04-06T06:55:51.017Z</time></trkpt><trkpt lat="45.45875364526104" lon="11.389676904904425"><ele>55.0</ele><time>2026-04-06T06:55:52.017Z</time></trkpt><trkpt lat="45.45867267519697" lon="11.389647963147318"><ele>54.99999999999999</ele><time>2026-04-06T06:55:53.017Z</time></trkpt><trkpt lat="45.45858872615747" lon="11.389625253311088"><ele>55.0</ele><time>2026-04-06T06:55:54.017Z</time></trkpt><trkpt lat="45.45851710125248" lon="11.389594139335465"><ele>55.0</ele><time>2026-04-06T06:55:55.017Z</time></trkpt><trkpt lat="45.458444927714844" lon="11.38957126526194"><ele>55.0</ele><time>2026-04-06T06:55:56.017Z</time></trkpt><trkpt lat="45.45837219413617" lon="11.38956020367757"><ele>55.0</ele><time>2026-04-06T06:55:57.018Z</time></trkpt><trkpt lat="45.45830663730357" lon="11.389557092562457"><ele>54.99999999999999</ele><time>2026-04-06T06:55:58.018Z</time></trkpt><trkpt lat="45.45824270959989" lon="11.389581310014671"><ele>55.0</ele><time>2026-04-06T06:55:59.018Z</time></trkpt><trkpt lat="45.45814484602901" lon="11.389620476027558"><ele>54.99999999999999</ele><time>2026-04-06T06:56:01.018Z</time></trkpt><trkpt lat="45.458064759509945" lon="11.389659470949972"><ele>55.0</ele><time>2026-04-06T06:56:03.018Z</time></trkpt><trkpt lat="45.457983347588176" lon="11.389668592820946"><ele>55.0</ele><time>2026-04-06T06:56:05.018Z</time></trkpt><trkpt lat="45.4579187031006" lon="11.389704713289852"><ele>55.0</ele><time>2026-04-06T06:56:06.018Z</time></trkpt><trkpt lat="45.457833859256866" lon="11.389640722471404"><ele>54.99999999999999</ele><time>2026-04-06T06:56:07.018Z</time></trkpt><trkpt lat="45.457756317864565" lon="11.389622360847204"><ele>55.0</ele><time>2026-04-06T06:56:08.018Z</time></trkpt><trkpt lat="45.45765421467644" lon="11.389633548939225"><ele>55.0</ele><time>2026-04-06T06:56:09.019Z</time></trkpt><trkpt lat="45.45753374548467" lon="11.389657068867152"><ele>55.0</ele><time>2026-04-06T06:56:10.019Z</time></trkpt><trkpt lat="45.457425911913354" lon="11.389674303388054"><ele>55.0</ele><time>2026-04-06T06:56:11.019Z</time></trkpt><trkpt lat="45.45730920625941" lon="11.389672947101607"><ele>55.0</ele><time>2026-04-06T06:56:12.019Z</time></trkpt><trkpt lat="45.45716500517485" lon="11.389676717749266"><ele>54.75</ele><time>2026-04-06T06:56:13.019Z</time></trkpt><trkpt lat="45.457022386429415" lon="11.38969257250183"><ele>54.5</ele><time>2026-04-06T06:56:14.019Z</time></trkpt><trkpt lat="45.45688986923506" lon="11.389710689221227"><ele>54.25</ele><time>2026-04-06T06:56:15.019Z</time></trkpt><trkpt lat="45.45673703890486" lon="11.389737828026883"><ele>54.0</ele><time>2026-04-06T06:56:16.019Z</time></trkpt><trkpt lat="45.45658484042309" lon="11.389773280143928"><ele>54.0</ele><time>2026-04-06T06:56:17.019Z</time></trkpt><trkpt lat="45.45643881157341" lon="11.389805071738953"><ele>54.0</ele><time>2026-04-06T06:56:18.019Z</time></trkpt><trkpt lat="45.45627721193196" lon="11.389843296984328"><ele>54.0</ele><time>2026-04-06T06:56:19.019Z</time></trkpt><trkpt lat="45.45612162522447" lon="11.389877614184776"><ele>53.75</ele><time>2026-04-06T06:56:20.019Z</time></trkpt><trkpt lat="45.455966400276125" lon="11.389913966150063"><ele>53.5</ele><time>2026-04-06T06:56:21.019Z</time></trkpt><trkpt lat="45.45582427167209" lon="11.389943287537584"><ele>53.25</ele><time>2026-04-06T06:56:22.019Z</time></trkpt><trkpt lat="45.455689644609045" lon="11.389965694207632"><ele>53.0</ele><time>2026-04-06T06:56:23.019Z</time></trkpt><trkpt lat="45.45555986767144" lon="11.389997743100775"><ele>53.0</ele><time>2026-04-06T06:56:24.019Z</time></trkpt><trkpt lat="45.455433815513906" lon="11.390035806587713"><ele>53.0</ele><time>2026-04-06T06:56:25.019Z</time></trkpt><trkpt lat="45.45531132757212" lon="11.390054520720536"><ele>53.0</ele><time>2026-04-06T06:56:26.019Z</time></trkpt><trkpt lat="45.45519020186084" lon="11.390045861360054"><ele>53.0</ele><time>2026-04-06T06:56:27.019Z</time></trkpt><trkpt lat="45.4550734791583" lon="11.390006324709844"><ele>53.0</ele><time>2026-04-06T06:56:28.019Z</time></trkpt><trkpt lat="45.45496404247441" lon="11.389936566714267"><ele>53.0</ele><time>2026-04-06T06:56:29.019Z</time></trkpt><trkpt lat="45.45484824754393" lon="11.389867327019664"><ele>53.0</ele><time>2026-04-06T06:56:30.019Z</time></trkpt><trkpt lat="45.454723727655676" lon="11.389771638675311"><ele>53.0</ele><time>2026-04-06T06:56:31.019Z</time></trkpt><trkpt lat="45.454609968414985" lon="11.3896539727791"><ele>53.0</ele><time>2026-04-06T06:56:32.019Z</time></trkpt><trkpt lat="45.45448947950406" lon="11.38952267645024"><ele>53.0</ele><time>2026-04-06T06:56:33.019Z</time></trkpt><trkpt lat="45.45436512829355" lon="11.389372746098822"><ele>53.0</ele><time>2026-04-06T06:56:34.019Z</time></trkpt><trkpt lat="45.45425363177838" lon="11.389224574643157"><ele>53.0</ele><time>2026-04-06T06:56:35.019Z</time></trkpt><trkpt lat="45.45413609976372" lon="11.389078538767977"><ele>53.0</ele><time>2026-04-06T06:56:36.019Z</time></trkpt><trkpt lat="45.45402347054609" lon="11.38892800725429"><ele>53.0</ele><time>2026-04-06T06:56:37.019Z</time></trkpt><trkpt lat="45.453909325185094" lon="11.38877788955584"><ele>52.75</ele><time>2026-04-06T06:56:38.019Z</time></trkpt><trkpt lat="45.453795014119954" lon="11.388634727914988"><ele>52.5</ele><time>2026-04-06T06:56:39.019Z</time></trkpt><trkpt lat="45.4536932262473" lon="11.388498304428285"><ele>52.25</ele><time>2026-04-06T06:56:40.019Z</time></trkpt><trkpt lat="45.45358727275631" lon="11.38835802976231"><ele>52.0</ele><time>2026-04-06T06:56:41.019Z</time></trkpt><trkpt lat="45.453477915581985" lon="11.388216777550554"><ele>52.0</ele><time>2026-04-06T06:56:42.019Z</time></trkpt><trkpt lat="45.45336274245978" lon="11.388073876560554"><ele>52.0</ele><time>2026-04-06T06:56:43.019Z</time></trkpt><trkpt lat="45.45323715357217" lon="11.38792309465703"><ele>52.0</ele><time>2026-04-06T06:56:44.019Z</time></trkpt><trkpt lat="45.453092119548266" lon="11.387758224237206"><ele>52.33333333333333</ele><time>2026-04-06T06:56:45.019Z</time></trkpt><trkpt lat="45.45296503087599" lon="11.38758731007746"><ele>52.66666666666667</ele><time>2026-04-06T06:56:46.019Z</time></trkpt><trkpt lat="45.45283799444647" lon="11.387417018135354"><ele>53.0</ele><time>2026-04-06T06:56:47.019Z</time></trkpt><trkpt lat="45.452698106119904" lon="11.387238524302528"><ele>53.0</ele><time>2026-04-06T06:56:48.019Z</time></trkpt><trkpt lat="45.4525612149499" lon="11.387063827112229"><ele>53.0</ele><time>2026-04-06T06:56:49.019Z</time></trkpt><trkpt lat="45.45242987274469" lon="11.386899160098968"><ele>53.0</ele><time>2026-04-06T06:56:50.019Z</time></trkpt><trkpt lat="45.45230005129759" lon="11.38674039063495"><ele>53.0</ele><time>2026-04-06T06:56:51.019Z</time></trkpt><trkpt lat="45.45218147292539" lon="11.386593188507954"><ele>53.0</ele><time>2026-04-06T06:56:52.019Z</time></trkpt><trkpt lat="45.45205870978153" lon="11.386435797698926"><ele>53.0</ele><time>2026-04-06T06:56:53.019Z</time></trkpt><trkpt lat="45.451931625582226" lon="11.386269480309211"><ele>52.66666666666667</ele><time>2026-04-06T06:56:54.019Z</time></trkpt><trkpt lat="45.45179592013001" lon="11.386095489566335"><ele>52.33333333333333</ele><time>2026-04-06T06:56:55.019Z</time></trkpt><trkpt lat="45.45166748117186" lon="11.385920190437108"><ele>52.0</ele><time>2026-04-06T06:56:56.019Z</time></trkpt><trkpt lat="45.451546817728584" lon="11.385747353800136"><ele>52.0</ele><time>2026-04-06T06:56:57.019Z</time></trkpt><trkpt lat="45.45142426810048" lon="11.385570500234204"><ele>52.0</ele><time>2026-04-06T06:56:58.019Z</time></trkpt><trkpt lat="45.45130812569302" lon="11.385398180867627"><ele>52.0</ele><time>2026-04-06T06:56:59.019Z</time></trkpt><trkpt lat="45.45119754875554" lon="11.385225332381104"><ele>51.0</ele><time>2026-04-06T06:57:00.019Z</time></trkpt><trkpt lat="45.451084687230946" lon="11.385040965335962"><ele>50.0</ele><time>2026-04-06T06:57:01.019Z</time></trkpt><trkpt lat="45.450957200186984" lon="11.384835520779722"><ele>49.0</ele><time>2026-04-06T06:57:02.019Z</time></trkpt><trkpt lat="45.45082432553127" lon="11.384615456850426"><ele>49.0</ele><time>2026-04-06T06:57:03.019Z</time></trkpt><trkpt lat="45.450685607604186" lon="11.3843784826513"><ele>49.0</ele><time>2026-04-06T06:57:04.019Z</time></trkpt><trkpt lat="45.45054337009439" lon="11.384131047666765"><ele>49.0</ele><time>2026-04-06T06:57:05.019Z</time></trkpt><trkpt lat="45.45040464819964" lon="11.383902234201923"><ele>48.666666666666664</ele><time>2026-04-06T06:57:06.019Z</time></trkpt><trkpt lat="45.45026788009994" lon="11.383681299421614"><ele>48.33333333333333</ele><time>2026-04-06T06:57:07.019Z</time></trkpt><trkpt lat="45.45013475195821" lon="11.383450073360283"><ele>48.0</ele><time>2026-04-06T06:57:08.019Z</time></trkpt><trkpt lat="45.44998749072872" lon="11.383203981594571"><ele>48.0</ele><time>2026-04-06T06:57:09.019Z</time></trkpt><trkpt lat="45.4498182922911" lon="11.382947935468247"><ele>48.0</ele><time>2026-04-06T06:57:10.019Z</time></trkpt><trkpt lat="45.44963499184848" lon="11.382687564701847"><ele>48.0</ele><time>2026-04-06T06:57:11.019Z</time></trkpt><trkpt lat="45.44943447466007" lon="11.382418233719704"><ele>48.0</ele><time>2026-04-06T06:57:12.019Z</time></trkpt><trkpt lat="45.44922548688729" lon="11.382138026196657"><ele>47.0</ele><time>2026-04-06T06:57:13.019Z</time></trkpt><trkpt lat="45.44900944292112" lon="11.381847979166743"><ele>46.0</ele><time>2026-04-06T06:57:14.019Z</time></trkpt><trkpt lat="45.44879304935158" lon="11.381529401650523"><ele>47.0</ele><time>2026-04-06T06:57:15.019Z</time></trkpt><trkpt lat="45.44855722774645" lon="11.381215147713121"><ele>48.0</ele><time>2026-04-06T06:57:16.019Z</time></trkpt><trkpt lat="45.44831554569021" lon="11.380880596052288"><ele>48.0</ele><time>2026-04-06T06:57:17.019Z</time></trkpt><trkpt lat="45.44808021583723" lon="11.38058069597614"><ele>48.0</ele><time>2026-04-06T06:57:18.019Z</time></trkpt><trkpt lat="45.447880429255925" lon="11.380284836084941"><ele>48.5</ele><time>2026-04-06T06:57:19.019Z</time></trkpt><trkpt lat="45.44769277785539" lon="11.380013737383118"><ele>49.0</ele><time>2026-04-06T06:57:20.019Z</time></trkpt><trkpt lat="45.44751051476114" lon="11.379753230925981"><ele>48.0</ele><time>2026-04-06T06:57:21.019Z</time></trkpt><trkpt lat="45.447326145189834" lon="11.379492768138526"><ele>47.0</ele><time>2026-04-06T06:57:22.019Z</time></trkpt><trkpt lat="45.44714269775652" lon="11.379232637784629"><ele>46.0</ele><time>2026-04-06T06:57:23.019Z</time></trkpt><trkpt lat="45.446958192662386" lon="11.378978540578721"><ele>45.0</ele><time>2026-04-06T06:57:24.019Z</time></trkpt><trkpt lat="45.44678124048818" lon="11.378734519711298"><ele>44.0</ele><time>2026-04-06T06:57:25.019Z</time></trkpt><trkpt lat="45.446617788005376" lon="11.378496812443652"><ele>43.0</ele><time>2026-04-06T06:57:26.019Z</time></trkpt><trkpt lat="45.446451414919984" lon="11.37825503315582"><ele>43.5</ele><time>2026-04-06T06:57:27.019Z</time></trkpt><trkpt lat="45.446280674703864" lon="11.378014427912372"><ele>44.0</ele><time>2026-04-06T06:57:28.019Z</time></trkpt><trkpt lat="45.4461087931466" lon="11.377772480215492"><ele>44.0</ele><time>2026-04-06T06:57:29.019Z</time></trkpt><trkpt lat="45.44594613511854" lon="11.377543182924759"><ele>44.0</ele><time>2026-04-06T06:57:30.019Z</time></trkpt><trkpt lat="45.445797716369995" lon="11.377324387131685"><ele>44.0</ele><time>2026-04-06T06:57:31.019Z</time></trkpt><trkpt lat="45.44565586529277" lon="11.377109028869558"><ele>44.33333333333333</ele><time>2026-04-06T06:57:32.019Z</time></trkpt><trkpt lat="45.44553526046357" lon="11.37690214299582"><ele>44.666666666666664</ele><time>2026-04-06T06:57:33.019Z</time></trkpt><trkpt lat="45.44542453877907" lon="11.376695670629912"><ele>45.0</ele><time>2026-04-06T06:57:34.019Z</time></trkpt><trkpt lat="45.44531882341798" lon="11.376495644552318"><ele>45.0</ele><time>2026-04-06T06:57:35.019Z</time></trkpt><trkpt lat="45.44520885749121" lon="11.376300211996933"><ele>45.0</ele><time>2026-04-06T06:57:36.019Z</time></trkpt><trkpt lat="45.44509568122281" lon="11.37610800707439"><ele>45.0</ele><time>2026-04-06T06:57:37.019Z</time></trkpt><trkpt lat="45.44499175900738" lon="11.37591965367729"><ele>45.0</ele><time>2026-04-06T06:57:38.019Z</time></trkpt><trkpt lat="45.444894177741865" lon="11.375736077161523"><ele>45.0</ele><time>2026-04-06T06:57:39.019Z</time></trkpt><trkpt lat="45.444809780609695" lon="11.37556662041953"><ele>45.0</ele><time>2026-04-06T06:57:40.019Z</time></trkpt><trkpt lat="45.444742078239415" lon="11.375422076446313"><ele>45.0</ele><time>2026-04-06T06:57:41.019Z</time></trkpt><trkpt lat="45.44467456214946" lon="11.375298416709215"><ele>45.0</ele><time>2026-04-06T06:57:42.019Z</time></trkpt><trkpt lat="45.444608407038565" lon="11.37518602689752"><ele>45.0</ele><time>2026-04-06T06:57:43.019Z</time></trkpt><trkpt lat="45.444552341509144" lon="11.37507904595851"><ele>45.0</ele><time>2026-04-06T06:57:44.019Z</time></trkpt><trkpt lat="45.44450704348023" lon="11.374978024023669"><ele>45.0</ele><time>2026-04-06T06:57:45.019Z</time></trkpt><trkpt lat="45.4444778320709" lon="11.374880535590965"><ele>45.0</ele><time>2026-04-06T06:57:46.019Z</time></trkpt><trkpt lat="45.44446828388321" lon="11.374772346466719"><ele>45.0</ele><time>2026-04-06T06:57:47.019Z</time></trkpt><trkpt lat="45.44447825685876" lon="11.374670557146205"><ele>45.0</ele><time>2026-04-06T06:57:48.019Z</time></trkpt><trkpt lat="45.44450878234921" lon="11.374576343047284"><ele>45.0</ele><time>2026-04-06T06:57:49.019Z</time></trkpt><trkpt lat="45.44455815521612" lon="11.3744661299284"><ele>45.0</ele><time>2026-04-06T06:57:50.019Z</time></trkpt><trkpt lat="45.44459243748009" lon="11.374346544050423"><ele>45.0</ele><time>2026-04-06T06:57:51.019Z</time></trkpt><trkpt lat="45.44459465570807" lon="11.374216373955482"><ele>45.0</ele><time>2026-04-06T06:57:52.019Z</time></trkpt><trkpt lat="45.44456623035754" lon="11.374101339614663"><ele>45.0</ele><time>2026-04-06T06:57:53.019Z</time></trkpt><trkpt lat="45.44451579076234" lon="11.37400108023214"><ele>45.0</ele><time>2026-04-06T06:57:54.019Z</time></trkpt><trkpt lat="45.44443526127241" lon="11.373916593755244"><ele>45.0</ele><time>2026-04-06T06:57:55.019Z</time></trkpt><trkpt lat="45.444339708213235" lon="11.373871090119835"><ele>45.0</ele><time>2026-04-06T06:57:56.019Z</time></trkpt><trkpt lat="45.444242037625074" lon="11.373877498325822"><ele>45.0</ele><time>2026-04-06T06:57:57.019Z</time></trkpt><trkpt lat="45.44414815774842" lon="11.373918964674827"><ele>45.0</ele><time>2026-04-06T06:57:58.019Z</time></trkpt><trkpt lat="45.44404589070851" lon="11.37392148767317"><ele>44.666666666666664</ele><time>2026-04-06T06:57:59.019Z</time></trkpt><trkpt lat="45.44394034367106" lon="11.373838035424793"><ele>44.33333333333333</ele><time>2026-04-06T06:58:00.019Z</time></trkpt><trkpt lat="45.443824342041495" lon="11.373687857405772"><ele>44.0</ele><time>2026-04-06T06:58:01.019Z</time></trkpt><trkpt lat="45.44372367962817" lon="11.373477117451243"><ele>44.0</ele><time>2026-04-06T06:58:02.019Z</time></trkpt><trkpt lat="45.44361804937376" lon="11.373231646451014"><ele>44.0</ele><time>2026-04-06T06:58:03.02Z</time></trkpt><trkpt lat="45.443489492456955" lon="11.372970663814812"><ele>44.0</ele><time>2026-04-06T06:58:04.02Z</time></trkpt><trkpt lat="45.44333997263848" lon="11.372697967987186"><ele>44.0</ele><time>2026-04-06T06:58:05.02Z</time></trkpt><trkpt lat="45.44319933998639" lon="11.372450246323453"><ele>44.0</ele><time>2026-04-06T06:58:06.02Z</time></trkpt><trkpt lat="45.44307573491458" lon="11.372220355134404"><ele>44.0</ele><time>2026-04-06T06:58:07.02Z</time></trkpt><trkpt lat="45.44296039460669" lon="11.371995764679738"><ele>43.33333333333333</ele><time>2026-04-06T06:58:08.02Z</time></trkpt><trkpt lat="45.44284025898411" lon="11.371772715024244"><ele>42.666666666666664</ele><time>2026-04-06T06:58:09.02Z</time></trkpt><trkpt lat="45.44271468274385" lon="11.37155720191527"><ele>42.0</ele><time>2026-04-06T06:58:10.02Z</time></trkpt><trkpt lat="45.44257692827864" lon="11.371351917447797"><ele>42.0</ele><time>2026-04-06T06:58:11.02Z</time></trkpt><trkpt lat="45.442421167542356" lon="11.371149789445434"><ele>42.0</ele><time>2026-04-06T06:58:12.02Z</time></trkpt><trkpt lat="45.44223814357598" lon="11.37095837554544"><ele>42.0</ele><time>2026-04-06T06:58:13.02Z</time></trkpt><trkpt lat="45.44203113941419" lon="11.370774386783495"><ele>42.0</ele><time>2026-04-06T06:58:14.02Z</time></trkpt><trkpt lat="45.441797829250966" lon="11.370608781282337"><ele>42.0</ele><time>2026-04-06T06:58:15.02Z</time></trkpt><trkpt lat="45.44156315667601" lon="11.370463205640927"><ele>42.0</ele><time>2026-04-06T06:58:16.02Z</time></trkpt><trkpt lat="45.441342093591786" lon="11.370311703266573"><ele>42.0</ele><time>2026-04-06T06:58:17.02Z</time></trkpt><trkpt lat="45.44114050882789" lon="11.370161609790067"><ele>41.666666666666664</ele><time>2026-04-06T06:58:18.02Z</time></trkpt><trkpt lat="45.44095433072522" lon="11.37000251421654"><ele>41.33333333333333</ele><time>2026-04-06T06:58:19.02Z</time></trkpt><trkpt lat="45.44076729320276" lon="11.369820560622701"><ele>41.0</ele><time>2026-04-06T06:58:20.02Z</time></trkpt><trkpt lat="45.44058380172485" lon="11.369608116752037"><ele>41.0</ele><time>2026-04-06T06:58:21.02Z</time></trkpt><trkpt lat="45.440414185452816" lon="11.36935766023869"><ele>41.0</ele><time>2026-04-06T06:58:22.02Z</time></trkpt><trkpt lat="45.44025053637659" lon="11.369085831859453"><ele>41.0</ele><time>2026-04-06T06:58:23.02Z</time></trkpt><trkpt lat="45.440097130220764" lon="11.368832098675368"><ele>41.0</ele><time>2026-04-06T06:58:24.02Z</time></trkpt><trkpt lat="45.43993786315881" lon="11.368586029807627"><ele>41.0</ele><time>2026-04-06T06:58:25.02Z</time></trkpt><trkpt lat="45.439773643647484" lon="11.36834030519436"><ele>41.0</ele><time>2026-04-06T06:58:26.02Z</time></trkpt><trkpt lat="45.439608577350725" lon="11.368089158879142"><ele>41.0</ele><time>2026-04-06T06:58:27.02Z</time></trkpt><trkpt lat="45.439450844909416" lon="11.367835182580441"><ele>41.0</ele><time>2026-04-06T06:58:28.02Z</time></trkpt><trkpt lat="45.43929329375923" lon="11.367581028987429"><ele>41.0</ele><time>2026-04-06T06:58:29.02Z</time></trkpt><trkpt lat="45.439132163806754" lon="11.367322700584598"><ele>41.0</ele><time>2026-04-06T06:58:30.02Z</time></trkpt><trkpt lat="45.43897246487543" lon="11.367055033401916"><ele>40.5</ele><time>2026-04-06T06:58:31.02Z</time></trkpt><trkpt lat="45.43881013373563" lon="11.366772121535583"><ele>40.0</ele><time>2026-04-06T06:58:32.02Z</time></trkpt><trkpt lat="45.43864507559552" lon="11.366472596769839"><ele>41.0</ele><time>2026-04-06T06:58:33.02Z</time></trkpt><trkpt lat="45.43848289501928" lon="11.366166673232849"><ele>42.0</ele><time>2026-04-06T06:58:34.02Z</time></trkpt><trkpt lat="45.4383089758337" lon="11.365851109141849"><ele>42.0</ele><time>2026-04-06T06:58:35.02Z</time></trkpt><trkpt lat="45.438132467189504" lon="11.365534610885279"><ele>42.0</ele><time>2026-04-06T06:58:36.02Z</time></trkpt><trkpt lat="45.43795886064087" lon="11.365222597937917"><ele>39.5</ele><time>2026-04-06T06:58:37.02Z</time></trkpt><trkpt lat="45.43779624727939" lon="11.364922755406885"><ele>37.0</ele><time>2026-04-06T06:58:38.02Z</time></trkpt><trkpt lat="45.43764560204711" lon="11.364643465411131"><ele>36.0</ele><time>2026-04-06T06:58:39.02Z</time></trkpt><trkpt lat="45.43750371368962" lon="11.364378445960952"><ele>35.0</ele><time>2026-04-06T06:58:40.02Z</time></trkpt><trkpt lat="45.43736683782222" lon="11.364127549659129"><ele>35.0</ele><time>2026-04-06T06:58:41.02Z</time></trkpt><trkpt lat="45.437238840548694" lon="11.363892563551946"><ele>35.0</ele><time>2026-04-06T06:58:42.02Z</time></trkpt><trkpt lat="45.4371192249817" lon="11.363668927481406"><ele>35.0</ele><time>2026-04-06T06:58:43.02Z</time></trkpt><trkpt lat="45.43699938545904" lon="11.363436974133746"><ele>36.0</ele><time>2026-04-06T06:58:44.02Z</time></trkpt><trkpt lat="45.43687319194925" lon="11.36320691250882"><ele>37.0</ele><time>2026-04-06T06:58:45.02Z</time></trkpt><trkpt lat="45.43674288792206" lon="11.362967899803046"><ele>38.0</ele><time>2026-04-06T06:58:46.02Z</time></trkpt><trkpt lat="45.436620261211246" lon="11.362730465602915"><ele>38.0</ele><time>2026-04-06T06:58:47.02Z</time></trkpt><trkpt lat="45.43648623052122" lon="11.362483445804088"><ele>38.0</ele><time>2026-04-06T06:58:48.02Z</time></trkpt><trkpt lat="45.43634312981909" lon="11.362219570200674"><ele>38.5</ele><time>2026-04-06T06:58:49.02Z</time></trkpt><trkpt lat="45.436194892284746" lon="11.361945320415659"><ele>39.0</ele><time>2026-04-06T06:58:50.02Z</time></trkpt><trkpt lat="45.43603937477632" lon="11.361669328396106"><ele>39.0</ele><time>2026-04-06T06:58:51.02Z</time></trkpt><trkpt lat="45.435880102592336" lon="11.361382165003524"><ele>39.0</ele><time>2026-04-06T06:58:52.02Z</time></trkpt><trkpt lat="45.435710176324065" lon="11.361078561408103"><ele>38.0</ele><time>2026-04-06T06:58:53.02Z</time></trkpt><trkpt lat="45.43553769723996" lon="11.360761191457586"><ele>37.0</ele><time>2026-04-06T06:58:54.02Z</time></trkpt><trkpt lat="45.4353663636001" lon="11.36044634116985"><ele>37.0</ele><time>2026-04-06T06:58:55.02Z</time></trkpt><trkpt lat="45.43520249023964" lon="11.360136431233892"><ele>37.0</ele><time>2026-04-06T06:58:56.02Z</time></trkpt><trkpt lat="45.43503955079752" lon="11.359838225917837"><ele>36.5</ele><time>2026-04-06T06:58:57.02Z</time></trkpt><trkpt lat="45.43489112234901" lon="11.35955809845043"><ele>36.0</ele><time>2026-04-06T06:58:58.02Z</time></trkpt><trkpt lat="45.434745265612975" lon="11.359292626713975"><ele>36.0</ele><time>2026-04-06T06:58:59.02Z</time></trkpt><trkpt lat="45.43459983954852" lon="11.359028569063463"><ele>36.0</ele><time>2026-04-06T06:59:00.02Z</time></trkpt><trkpt lat="45.43446241862742" lon="11.358764915913053"><ele>37.5</ele><time>2026-04-06T06:59:01.02Z</time></trkpt><trkpt lat="45.434321693843984" lon="11.35850272681512"><ele>39.0</ele><time>2026-04-06T06:59:02.02Z</time></trkpt><trkpt lat="45.43418073349076" lon="11.358246544592308"><ele>39.333333333333336</ele><time>2026-04-06T06:59:03.02Z</time></trkpt><trkpt lat="45.43403953372817" lon="11.357993093550244"><ele>39.66666666666667</ele><time>2026-04-06T06:59:04.02Z</time></trkpt><trkpt lat="45.43390046624242" lon="11.357746863539765"><ele>40.0</ele><time>2026-04-06T06:59:05.02Z</time></trkpt><trkpt lat="45.433767368511475" lon="11.357499101417075"><ele>39.333333333333336</ele><time>2026-04-06T06:59:06.02Z</time></trkpt><trkpt lat="45.433637614419986" lon="11.357264976330583"><ele>38.666666666666664</ele><time>2026-04-06T06:59:07.02Z</time></trkpt><trkpt lat="45.43351103198025" lon="11.357036595398984"><ele>38.0</ele><time>2026-04-06T06:59:08.02Z</time></trkpt><trkpt lat="45.433380398651835" lon="11.356799428478771"><ele>38.0</ele><time>2026-04-06T06:59:09.02Z</time></trkpt><trkpt lat="45.43326145193593" lon="11.356575364282754"><ele>38.0</ele><time>2026-04-06T06:59:10.02Z</time></trkpt><trkpt lat="45.43314757895514" lon="11.356363623323675"><ele>38.0</ele><time>2026-04-06T06:59:11.02Z</time></trkpt><trkpt lat="45.43302612756319" lon="11.356141257340385"><ele>38.0</ele><time>2026-04-06T06:59:12.02Z</time></trkpt><trkpt lat="45.432907549907775" lon="11.355923633255347"><ele>38.0</ele><time>2026-04-06T06:59:13.02Z</time></trkpt><trkpt lat="45.43279310373223" lon="11.355709673260481"><ele>38.0</ele><time>2026-04-06T06:59:14.02Z</time></trkpt><trkpt lat="45.43268140321695" lon="11.355503387480312"><ele>38.0</ele><time>2026-04-06T06:59:15.02Z</time></trkpt><trkpt lat="45.432566218797824" lon="11.355300647724382"><ele>38.0</ele><time>2026-04-06T06:59:16.02Z</time></trkpt><trkpt lat="45.43243726507664" lon="11.355080067782358"><ele>38.0</ele><time>2026-04-06T06:59:17.02Z</time></trkpt><trkpt lat="45.432293721212034" lon="11.354828275178349"><ele>38.0</ele><time>2026-04-06T06:59:18.02Z</time></trkpt><trkpt lat="45.43214606627773" lon="11.354566538881734"><ele>38.0</ele><time>2026-04-06T06:59:19.02Z</time></trkpt><trkpt lat="45.432007921993204" lon="11.354289232208009"><ele>38.0</ele><time>2026-04-06T06:59:20.02Z</time></trkpt><trkpt lat="45.431871373638806" lon="11.354036514679942"><ele>38.0</ele><time>2026-04-06T06:59:21.02Z</time></trkpt><trkpt lat="45.43174603597413" lon="11.353799596684176"><ele>38.0</ele><time>2026-04-06T06:59:22.02Z</time></trkpt><trkpt lat="45.43161750982487" lon="11.353557907272453"><ele>38.0</ele><time>2026-04-06T06:59:23.02Z</time></trkpt><trkpt lat="45.43148431066612" lon="11.35331248724943"><ele>38.0</ele><time>2026-04-06T06:59:24.02Z</time></trkpt><trkpt lat="45.431351416240375" lon="11.353064647973266"><ele>38.0</ele><time>2026-04-06T06:59:25.02Z</time></trkpt><trkpt lat="45.43121682413176" lon="11.352810939190107"><ele>38.0</ele><time>2026-04-06T06:59:26.02Z</time></trkpt><trkpt lat="45.43108194458695" lon="11.35255602326551"><ele>38.0</ele><time>2026-04-06T06:59:27.02Z</time></trkpt><trkpt lat="45.43094086267825" lon="11.352302643224899"><ele>38.0</ele><time>2026-04-06T06:59:28.02Z</time></trkpt><trkpt lat="45.430799167006136" lon="11.352041936999498"><ele>38.0</ele><time>2026-04-06T06:59:29.02Z</time></trkpt><trkpt lat="45.43065609686472" lon="11.351778764489078"><ele>38.0</ele><time>2026-04-06T06:59:30.02Z</time></trkpt><trkpt lat="45.430512308432505" lon="11.351514725117509"><ele>38.0</ele><time>2026-04-06T06:59:31.02Z</time></trkpt><trkpt lat="45.43036742471986" lon="11.351245421601039"><ele>37.0</ele><time>2026-04-06T06:59:32.02Z</time></trkpt><trkpt lat="45.43021888363805" lon="11.350969635746107"><ele>36.0</ele><time>2026-04-06T06:59:33.02Z</time></trkpt><trkpt lat="45.43006433212298" lon="11.350686141673231"><ele>36.5</ele><time>2026-04-06T06:59:34.02Z</time></trkpt><trkpt lat="45.42990060928056" lon="11.350398170981318"><ele>37.0</ele><time>2026-04-06T06:59:35.02Z</time></trkpt><trkpt lat="45.4297353251972" lon="11.350102509205074"><ele>36.5</ele><time>2026-04-06T06:59:36.02Z</time></trkpt><trkpt lat="45.429565970527015" lon="11.349791172842814"><ele>36.0</ele><time>2026-04-06T06:59:37.02Z</time></trkpt><trkpt lat="45.429400927842956" lon="11.349482337827155"><ele>36.0</ele><time>2026-04-06T06:59:38.02Z</time></trkpt><trkpt lat="45.429251782156385" lon="11.349204175501983"><ele>36.0</ele><time>2026-04-06T06:59:39.02Z</time></trkpt><trkpt lat="45.42910562392587" lon="11.348928195324765"><ele>36.0</ele><time>2026-04-06T06:59:40.02Z</time></trkpt><trkpt lat="45.428959673113994" lon="11.348657766312366"><ele>36.0</ele><time>2026-04-06T06:59:41.02Z</time></trkpt><trkpt lat="45.42881079827106" lon="11.348390530632594"><ele>35.5</ele><time>2026-04-06T06:59:42.02Z</time></trkpt><trkpt lat="45.428663632165936" lon="11.348127060800465"><ele>35.0</ele><time>2026-04-06T06:59:43.02Z</time></trkpt><trkpt lat="45.428516867301475" lon="11.347863387930882"><ele>36.0</ele><time>2026-04-06T06:59:44.02Z</time></trkpt><trkpt lat="45.428374022252584" lon="11.347598534725133"><ele>37.0</ele><time>2026-04-06T06:59:45.02Z</time></trkpt><trkpt lat="45.42823568664087" lon="11.347330311820276"><ele>36.5</ele><time>2026-04-06T06:59:46.02Z</time></trkpt><trkpt lat="45.4280925832759" lon="11.347064261877838"><ele>36.0</ele><time>2026-04-06T06:59:47.02Z</time></trkpt><trkpt lat="45.4279474008565" lon="11.346800474972381"><ele>36.0</ele><time>2026-04-06T06:59:48.02Z</time></trkpt><trkpt lat="45.42779967190502" lon="11.346533156448903"><ele>36.0</ele><time>2026-04-06T06:59:49.02Z</time></trkpt><trkpt lat="45.42765339517048" lon="11.346258641949564"><ele>36.0</ele><time>2026-04-06T06:59:50.02Z</time></trkpt><trkpt lat="45.427506813082644" lon="11.34598512986916"><ele>36.0</ele><time>2026-04-06T06:59:51.02Z</time></trkpt><trkpt lat="45.427355476773776" lon="11.345714009783615"><ele>36.0</ele><time>2026-04-06T06:59:52.02Z</time></trkpt><trkpt lat="45.42720279130268" lon="11.345437653316695"><ele>36.0</ele><time>2026-04-06T06:59:53.02Z</time></trkpt><trkpt lat="45.42705620737725" lon="11.345158630003706"><ele>36.0</ele><time>2026-04-06T06:59:54.02Z</time></trkpt><trkpt lat="45.42691128612164" lon="11.344890710936019"><ele>36.0</ele><time>2026-04-06T06:59:55.02Z</time></trkpt><trkpt lat="45.42677346447079" lon="11.344643784358603"><ele>36.0</ele><time>2026-04-06T06:59:56.02Z</time></trkpt><trkpt lat="45.4266389934671" lon="11.344406834074343"><ele>36.0</ele><time>2026-04-06T06:59:57.02Z</time></trkpt><trkpt lat="45.426511523434435" lon="11.344170791202956"><ele>36.0</ele><time>2026-04-06T06:59:58.02Z</time></trkpt><trkpt lat="45.42638452225957" lon="11.34392677706029"><ele>35.0</ele><time>2026-04-06T06:59:59.02Z</time></trkpt><trkpt lat="45.426256030371846" lon="11.343687002581609"><ele>34.0</ele><time>2026-04-06T07:00:00.02Z</time></trkpt><trkpt lat="45.42611577478086" lon="11.343435402595702"><ele>33.0</ele><time>2026-04-06T07:00:01.02Z</time></trkpt><trkpt lat="45.425974141231656" lon="11.343173229629167"><ele>33.0</ele><time>2026-04-06T07:00:02.02Z</time></trkpt><trkpt lat="45.425828467935375" lon="11.34290789281104"><ele>33.0</ele><time>2026-04-06T07:00:03.02Z</time></trkpt><trkpt lat="45.42569349389511" lon="11.342666585463824"><ele>33.0</ele><time>2026-04-06T07:00:04.02Z</time></trkpt><trkpt lat="45.425569284918474" lon="11.342435701029096"><ele>33.0</ele><time>2026-04-06T07:00:05.02Z</time></trkpt><trkpt lat="45.425437963900684" lon="11.342191662160833"><ele>33.0</ele><time>2026-04-06T07:00:06.02Z</time></trkpt><trkpt lat="45.425305798449514" lon="11.341947345356745"><ele>34.0</ele><time>2026-04-06T07:00:07.02Z</time></trkpt><trkpt lat="45.425172612134936" lon="11.341698143762391"><ele>35.0</ele><time>2026-04-06T07:00:08.02Z</time></trkpt><trkpt lat="45.42503260802353" lon="11.34143814517789"><ele>35.0</ele><time>2026-04-06T07:00:09.021Z</time></trkpt><trkpt lat="45.42488830443205" lon="11.34117389128356"><ele>35.0</ele><time>2026-04-06T07:00:10.021Z</time></trkpt><trkpt lat="45.42474034061402" lon="11.340903805317922"><ele>35.5</ele><time>2026-04-06T07:00:11.021Z</time></trkpt><trkpt lat="45.42459249851492" lon="11.34063344531219"><ele>36.0</ele><time>2026-04-06T07:00:12.021Z</time></trkpt><trkpt lat="45.42444757425482" lon="11.34036996728174"><ele>36.5</ele><time>2026-04-06T07:00:13.021Z</time></trkpt><trkpt lat="45.42430556896548" lon="11.340119790518767"><ele>37.0</ele><time>2026-04-06T07:00:14.021Z</time></trkpt><trkpt lat="45.424165728072396" lon="11.339867582900872"><ele>36.5</ele><time>2026-04-06T07:00:15.021Z</time></trkpt><trkpt lat="45.424022012616774" lon="11.339612921419224"><ele>36.0</ele><time>2026-04-06T07:00:16.021Z</time></trkpt><trkpt lat="45.423871560208134" lon="11.33936934026299"><ele>36.0</ele><time>2026-04-06T07:00:17.021Z</time></trkpt><trkpt lat="45.42371746628272" lon="11.33914003642779"><ele>36.0</ele><time>2026-04-06T07:00:18.021Z</time></trkpt><trkpt lat="45.42356261443802" lon="11.33892009529107"><ele>36.0</ele><time>2026-04-06T07:00:19.021Z</time></trkpt><trkpt lat="45.42341948372398" lon="11.338690932979214"><ele>36.0</ele><time>2026-04-06T07:00:20.021Z</time></trkpt><trkpt lat="45.42327833708187" lon="11.338463456477005"><ele>36.0</ele><time>2026-04-06T07:00:21.021Z</time></trkpt><trkpt lat="45.42312501313242" lon="11.338234588452318"><ele>36.0</ele><time>2026-04-06T07:00:22.021Z</time></trkpt><trkpt lat="45.422968096234044" lon="11.338007245172419"><ele>33.5</ele><time>2026-04-06T07:00:23.021Z</time></trkpt><trkpt lat="45.42280601903991" lon="11.33777267806617"><ele>31.0</ele><time>2026-04-06T07:00:24.021Z</time></trkpt><trkpt lat="45.42264551629743" lon="11.337528712419306"><ele>31.0</ele><time>2026-04-06T07:00:25.021Z</time></trkpt><trkpt lat="45.42247624214943" lon="11.337270725048356"><ele>31.0</ele><time>2026-04-06T07:00:26.021Z</time></trkpt><trkpt lat="45.422283203118056" lon="11.33700391783702"><ele>31.0</ele><time>2026-04-06T07:00:27.021Z</time></trkpt><trkpt lat="45.422090673668265" lon="11.33673014120924"><ele>31.0</ele><time>2026-04-06T07:00:28.021Z</time></trkpt><trkpt lat="45.42189275486651" lon="11.33642964204198"><ele>32.0</ele><time>2026-04-06T07:00:29.021Z</time></trkpt><trkpt lat="45.42168689014664" lon="11.33611371238918"><ele>33.0</ele><time>2026-04-06T07:00:30.021Z</time></trkpt><trkpt lat="45.42146850165909" lon="11.335795597255927"><ele>32.5</ele><time>2026-04-06T07:00:31.021Z</time></trkpt><trkpt lat="45.42123901613059" lon="11.335463772090238"><ele>32.0</ele><time>2026-04-06T07:00:32.021Z</time></trkpt><trkpt lat="45.42100772824558" lon="11.335118168813201"><ele>32.0</ele><time>2026-04-06T07:00:33.021Z</time></trkpt><trkpt lat="45.42077400746361" lon="11.334769190985108"><ele>32.0</ele><time>2026-04-06T07:00:34.021Z</time></trkpt><trkpt lat="45.420569493261475" lon="11.3344481514689"><ele>32.5</ele><time>2026-04-06T07:00:35.021Z</time></trkpt><trkpt lat="45.42037087737999" lon="11.334144710553954"><ele>33.0</ele><time>2026-04-06T07:00:36.021Z</time></trkpt><trkpt lat="45.42016827612711" lon="11.333845514593513"><ele>33.0</ele><time>2026-04-06T07:00:37.021Z</time></trkpt><trkpt lat="45.41996096550232" lon="11.333544267187001"><ele>33.0</ele><time>2026-04-06T07:00:38.021Z</time></trkpt><trkpt lat="45.41975473143728" lon="11.333228720662634"><ele>33.0</ele><time>2026-04-06T07:00:39.021Z</time></trkpt><trkpt lat="45.419546276539194" lon="11.332905759772114"><ele>33.0</ele><time>2026-04-06T07:00:40.021Z</time></trkpt><trkpt lat="45.419327821383575" lon="11.332581517997975"><ele>33.0</ele><time>2026-04-06T07:00:41.021Z</time></trkpt><trkpt lat="45.41910093344115" lon="11.33224613018471"><ele>33.0</ele><time>2026-04-06T07:00:42.021Z</time></trkpt><trkpt lat="45.41887500666357" lon="11.331903686521613"><ele>32.0</ele><time>2026-04-06T07:00:43.021Z</time></trkpt><trkpt lat="45.418645135308864" lon="11.331560571639136"><ele>31.0</ele><time>2026-04-06T07:00:44.021Z</time></trkpt><trkpt lat="45.41841017587457" lon="11.331214221163377"><ele>31.0</ele><time>2026-04-06T07:00:45.021Z</time></trkpt><trkpt lat="45.41818199595415" lon="11.330879862179039"><ele>31.0</ele><time>2026-04-06T07:00:46.021Z</time></trkpt><trkpt lat="45.4179812055022" lon="11.330569180059106"><ele>30.5</ele><time>2026-04-06T07:00:47.021Z</time></trkpt><trkpt lat="45.41777769774274" lon="11.33026195883435"><ele>30.0</ele><time>2026-04-06T07:00:48.021Z</time></trkpt><trkpt lat="45.41756625808895" lon="11.329953926750553"><ele>30.5</ele><time>2026-04-06T07:00:49.021Z</time></trkpt><trkpt lat="45.417348285587934" lon="11.329643822540731"><ele>31.0</ele><time>2026-04-06T07:00:50.021Z</time></trkpt><trkpt lat="45.41713590227681" lon="11.329327971272498"><ele>31.0</ele><time>2026-04-06T07:00:51.021Z</time></trkpt><trkpt lat="45.4169237907082" lon="11.329011140056368"><ele>31.0</ele><time>2026-04-06T07:00:52.021Z</time></trkpt><trkpt lat="45.4167220926173" lon="11.328708785294708"><ele>31.0</ele><time>2026-04-06T07:00:53.021Z</time></trkpt><trkpt lat="45.416530301972045" lon="11.328418794182646"><ele>31.0</ele><time>2026-04-06T07:00:54.021Z</time></trkpt><trkpt lat="45.41635014969449" lon="11.328149298500092"><ele>31.0</ele><time>2026-04-06T07:00:55.021Z</time></trkpt><trkpt lat="45.41617733344896" lon="11.327886564168892"><ele>31.0</ele><time>2026-04-06T07:00:56.021Z</time></trkpt><trkpt lat="45.416010351671076" lon="11.327605893513137"><ele>31.0</ele><time>2026-04-06T07:00:57.021Z</time></trkpt><trkpt lat="45.4158561042426" lon="11.327295880531029"><ele>31.0</ele><time>2026-04-06T07:00:58.021Z</time></trkpt><trkpt lat="45.415715245143936" lon="11.326957045996318"><ele>31.0</ele><time>2026-04-06T07:00:59.021Z</time></trkpt><trkpt lat="45.415596133487476" lon="11.326592743259052"><ele>31.0</ele><time>2026-04-06T07:01:00.021Z</time></trkpt><trkpt lat="45.415482421192216" lon="11.326220133401867"><ele>32.0</ele><time>2026-04-06T07:01:01.021Z</time></trkpt><trkpt lat="45.41536723420215" lon="11.325804262205455"><ele>33.0</ele><time>2026-04-06T07:01:02.021Z</time></trkpt><trkpt lat="45.41524548369289" lon="11.325436354684312"><ele>33.0</ele><time>2026-04-06T07:01:03.021Z</time></trkpt><trkpt lat="45.41513004624743" lon="11.325055268768828"><ele>33.0</ele><time>2026-04-06T07:01:04.021Z</time></trkpt><trkpt lat="45.415014193046375" lon="11.324666479505932"><ele>32.0</ele><time>2026-04-06T07:01:05.021Z</time></trkpt><trkpt lat="45.41490037079014" lon="11.324285879300852"><ele>31.0</ele><time>2026-04-06T07:01:06.021Z</time></trkpt><trkpt lat="45.41478859722434" lon="11.323903986393537"><ele>31.5</ele><time>2026-04-06T07:01:07.021Z</time></trkpt><trkpt lat="45.41467980629444" lon="11.323524552249879"><ele>32.0</ele><time>2026-04-06T07:01:08.021Z</time></trkpt><trkpt lat="45.41456592276425" lon="11.323148655644813"><ele>30.5</ele><time>2026-04-06T07:01:09.021Z</time></trkpt><trkpt lat="45.414451444174034" lon="11.322774015094026"><ele>29.0</ele><time>2026-04-06T07:01:10.021Z</time></trkpt><trkpt lat="45.41434267589529" lon="11.32239689932611"><ele>29.0</ele><time>2026-04-06T07:01:11.021Z</time></trkpt><trkpt lat="45.41423724701662" lon="11.322025071816569"><ele>29.0</ele><time>2026-04-06T07:01:12.021Z</time></trkpt><trkpt lat="45.41413151874908" lon="11.321662530260317"><ele>28.5</ele><time>2026-04-06T07:01:13.021Z</time></trkpt><trkpt lat="45.414025050090444" lon="11.321299482473153"><ele>28.0</ele><time>2026-04-06T07:01:14.021Z</time></trkpt><trkpt lat="45.413917892870025" lon="11.320935692721951"><ele>29.0</ele><time>2026-04-06T07:01:15.021Z</time></trkpt><trkpt lat="45.41381269709499" lon="11.320570971249502"><ele>30.0</ele><time>2026-04-06T07:01:16.021Z</time></trkpt><trkpt lat="45.41370587202313" lon="11.32021417299763"><ele>30.0</ele><time>2026-04-06T07:01:17.021Z</time></trkpt><trkpt lat="45.413604463879395" lon="11.31986937318949"><ele>30.0</ele><time>2026-04-06T07:01:18.021Z</time></trkpt><trkpt lat="45.413502460966576" lon="11.319521510174358"><ele>30.5</ele><time>2026-04-06T07:01:19.021Z</time></trkpt><trkpt lat="45.4133990081671" lon="11.319170902460437"><ele>31.0</ele><time>2026-04-06T07:01:20.021Z</time></trkpt><trkpt lat="45.41329440248153" lon="11.318814814727846"><ele>31.0</ele><time>2026-04-06T07:01:21.021Z</time></trkpt><trkpt lat="45.41319128298861" lon="11.318453988229006"><ele>31.0</ele><time>2026-04-06T07:01:22.021Z</time></trkpt><trkpt lat="45.41308407077722" lon="11.318089741724041"><ele>31.0</ele><time>2026-04-06T07:01:23.021Z</time></trkpt><trkpt lat="45.412977460360096" lon="11.317721158900616"><ele>31.0</ele><time>2026-04-06T07:01:24.021Z</time></trkpt><trkpt lat="45.41287045818666" lon="11.317351978255665"><ele>30.5</ele><time>2026-04-06T07:01:25.021Z</time></trkpt><trkpt lat="45.41276529189954" lon="11.316986827656443"><ele>30.0</ele><time>2026-04-06T07:01:26.021Z</time></trkpt><trkpt lat="45.412658353514274" lon="11.316620523675624"><ele>30.0</ele><time>2026-04-06T07:01:27.021Z</time></trkpt><trkpt lat="45.41255136645703" lon="11.316259376904338"><ele>30.0</ele><time>2026-04-06T07:01:28.021Z</time></trkpt><trkpt lat="45.41244468326406" lon="11.315898599093938"><ele>29.5</ele><time>2026-04-06T07:01:29.021Z</time></trkpt><trkpt lat="45.4123374873302" lon="11.31553466424644"><ele>29.0</ele><time>2026-04-06T07:01:30.021Z</time></trkpt><trkpt lat="45.41223354190522" lon="11.315169781044112"><ele>28.5</ele><time>2026-04-06T07:01:31.021Z</time></trkpt><trkpt lat="45.412129013418486" lon="11.314802592116298"><ele>28.0</ele><time>2026-04-06T07:01:32.021Z</time></trkpt><trkpt lat="45.412021407203866" lon="11.31443861351846"><ele>28.0</ele><time>2026-04-06T07:01:33.021Z</time></trkpt><trkpt lat="45.41191509052538" lon="11.314069691419819"><ele>28.0</ele><time>2026-04-06T07:01:34.021Z</time></trkpt><trkpt lat="45.41180650811506" lon="11.313695980683095"><ele>28.0</ele><time>2026-04-06T07:01:35.021Z</time></trkpt><trkpt lat="45.41169532250588" lon="11.313317819241917"><ele>28.0</ele><time>2026-04-06T07:01:36.021Z</time></trkpt><trkpt lat="45.411580904874725" lon="11.31293131034943"><ele>29.0</ele><time>2026-04-06T07:01:37.021Z</time></trkpt><trkpt lat="45.41146515466449" lon="11.31253795175639"><ele>30.0</ele><time>2026-04-06T07:01:38.021Z</time></trkpt><trkpt lat="45.41134979791352" lon="11.312142571051872"><ele>30.0</ele><time>2026-04-06T07:01:39.021Z</time></trkpt><trkpt lat="45.41123252138982" lon="11.311743848743612"><ele>30.0</ele><time>2026-04-06T07:01:40.021Z</time></trkpt><trkpt lat="45.411119581429325" lon="11.311352015879946"><ele>30.0</ele><time>2026-04-06T07:01:41.021Z</time></trkpt><trkpt lat="45.41100528279267" lon="11.310963378897053"><ele>30.0</ele><time>2026-04-06T07:01:42.021Z</time></trkpt><trkpt lat="45.41089648510947" lon="11.31058669044547"><ele>31.0</ele><time>2026-04-06T07:01:43.021Z</time></trkpt><trkpt lat="45.41078926942731" lon="11.310214801271197"><ele>32.0</ele><time>2026-04-06T07:01:44.021Z</time></trkpt><trkpt lat="45.410686812712505" lon="11.309846200808751"><ele>30.5</ele><time>2026-04-06T07:01:45.021Z</time></trkpt><trkpt lat="45.4105816218818" lon="11.309483167502615"><ele>29.0</ele><time>2026-04-06T07:01:46.021Z</time></trkpt><trkpt lat="45.41047297719273" lon="11.30912417893562"><ele>28.5</ele><time>2026-04-06T07:01:47.021Z</time></trkpt><trkpt lat="45.41036573038039" lon="11.308766506078388"><ele>28.0</ele><time>2026-04-06T07:01:48.021Z</time></trkpt><trkpt lat="45.41026578514143" lon="11.308408134993147"><ele>28.5</ele><time>2026-04-06T07:01:49.021Z</time></trkpt><trkpt lat="45.41015945685779" lon="11.308042511308734"><ele>29.0</ele><time>2026-04-06T07:01:50.021Z</time></trkpt><trkpt lat="45.41005096887439" lon="11.307678065009863"><ele>29.0</ele><time>2026-04-06T07:01:51.021Z</time></trkpt><trkpt lat="45.40994227674179" lon="11.307318014430608"><ele>29.0</ele><time>2026-04-06T07:01:52.021Z</time></trkpt><trkpt lat="45.4098302664368" lon="11.306957141276923"><ele>29.0</ele><time>2026-04-06T07:01:53.021Z</time></trkpt><trkpt lat="45.40972452550053" lon="11.30659395336992"><ele>29.0</ele><time>2026-04-06T07:01:54.021Z</time></trkpt><trkpt lat="45.4096250659504" lon="11.306226412871393"><ele>28.5</ele><time>2026-04-06T07:01:55.021Z</time></trkpt><trkpt lat="45.409518974665644" lon="11.305857801542533"><ele>28.0</ele><time>2026-04-06T07:01:56.021Z</time></trkpt><trkpt lat="45.409409863472064" lon="11.305485558253332"><ele>28.0</ele><time>2026-04-06T07:01:57.021Z</time></trkpt><trkpt lat="45.40929603386295" lon="11.305111590405886"><ele>28.0</ele><time>2026-04-06T07:01:58.021Z</time></trkpt><trkpt lat="45.40918485981051" lon="11.304739640068187"><ele>28.5</ele><time>2026-04-06T07:01:59.021Z</time></trkpt><trkpt lat="45.40907960778196" lon="11.30436693612863"><ele>29.0</ele><time>2026-04-06T07:02:00.021Z</time></trkpt><trkpt lat="45.408971687350615" lon="11.304006859834688"><ele>29.0</ele><time>2026-04-06T07:02:01.021Z</time></trkpt><trkpt lat="45.40887220285428" lon="11.303670297750628"><ele>29.0</ele><time>2026-04-06T07:02:02.021Z</time></trkpt><trkpt lat="45.40877843141633" lon="11.303354354951392"><ele>29.0</ele><time>2026-04-06T07:02:03.021Z</time></trkpt><trkpt lat="45.4086940904565" lon="11.303059567455202"><ele>29.0</ele><time>2026-04-06T07:02:04.021Z</time></trkpt><trkpt lat="45.408609789244586" lon="11.30275961894835"><ele>29.0</ele><time>2026-04-06T07:02:05.021Z</time></trkpt><trkpt lat="45.408525423971554" lon="11.302472612297256"><ele>29.0</ele><time>2026-04-06T07:02:06.021Z</time></trkpt><trkpt lat="45.40844335781156" lon="11.30219968061437"><ele>29.0</ele><time>2026-04-06T07:02:07.021Z</time></trkpt><trkpt lat="45.40837039909099" lon="11.301944108243873"><ele>28.666666666666664</ele><time>2026-04-06T07:02:08.021Z</time></trkpt><trkpt lat="45.408304741611055" lon="11.301705225407277"><ele>28.333333333333336</ele><time>2026-04-06T07:02:09.021Z</time></trkpt><trkpt lat="45.40824085969956" lon="11.301476270854248"><ele>28.0</ele><time>2026-04-06T07:02:10.021Z</time></trkpt><trkpt lat="45.408174049165154" lon="11.301248975697495"><ele>28.0</ele><time>2026-04-06T07:02:11.021Z</time></trkpt><trkpt lat="45.40810451044267" lon="11.301019890817663"><ele>28.0</ele><time>2026-04-06T07:02:12.021Z</time></trkpt><trkpt lat="45.408035377821214" lon="11.300787981846154"><ele>28.0</ele><time>2026-04-06T07:02:13.021Z</time></trkpt><trkpt lat="45.40796744453063" lon="11.300545456011811"><ele>28.0</ele><time>2026-04-06T07:02:14.021Z</time></trkpt><trkpt lat="45.40789955612294" lon="11.300305573881854"><ele>28.0</ele><time>2026-04-06T07:02:15.022Z</time></trkpt><trkpt lat="45.40782891279037" lon="11.300073161287823"><ele>28.0</ele><time>2026-04-06T07:02:16.022Z</time></trkpt><trkpt lat="45.407759333395674" lon="11.299823729454406"><ele>28.0</ele><time>2026-04-06T07:02:17.022Z</time></trkpt><trkpt lat="45.40769258848699" lon="11.299579610802212"><ele>28.0</ele><time>2026-04-06T07:02:18.022Z</time></trkpt><trkpt lat="45.407616943445575" lon="11.299326945116047"><ele>28.0</ele><time>2026-04-06T07:02:19.022Z</time></trkpt><trkpt lat="45.40754100605752" lon="11.299074964203063"><ele>28.666666666666668</ele><time>2026-04-06T07:02:20.022Z</time></trkpt><trkpt lat="45.40746904764799" lon="11.298835953276434"><ele>29.333333333333336</ele><time>2026-04-06T07:02:21.022Z</time></trkpt><trkpt lat="45.40740199367887" lon="11.298608101669888"><ele>30.0</ele><time>2026-04-06T07:02:22.022Z</time></trkpt><trkpt lat="45.407340055097904" lon="11.298388957848005"><ele>30.0</ele><time>2026-04-06T07:02:23.022Z</time></trkpt><trkpt lat="45.40728370567892" lon="11.298186101782184"><ele>30.0</ele><time>2026-04-06T07:02:24.022Z</time></trkpt><trkpt lat="45.40722628469297" lon="11.297992772883582"><ele>30.0</ele><time>2026-04-06T07:02:25.022Z</time></trkpt><trkpt lat="45.407167312960475" lon="11.297802441527454"><ele>30.0</ele><time>2026-04-06T07:02:26.022Z</time></trkpt><trkpt lat="45.40711243345564" lon="11.297618740738137"><ele>29.666666666666664</ele><time>2026-04-06T07:02:27.022Z</time></trkpt><trkpt lat="45.40704315787777" lon="11.29742142485828"><ele>29.333333333333332</ele><time>2026-04-06T07:02:28.022Z</time></trkpt><trkpt lat="45.406934431365094" lon="11.297196641048277"><ele>29.0</ele><time>2026-04-06T07:02:29.022Z</time></trkpt><trkpt lat="45.40681773454258" lon="11.296956259525594"><ele>29.0</ele><time>2026-04-06T07:02:30.022Z</time></trkpt><trkpt lat="45.406690375061686" lon="11.296718401749363"><ele>29.0</ele><time>2026-04-06T07:02:31.022Z</time></trkpt><trkpt lat="45.40687565273497" lon="11.296807247096766"><ele>29.0</ele><time>2026-04-06T07:02:32.022Z</time></trkpt><trkpt lat="45.406834864031914" lon="11.296661116894054"><ele>29.0</ele><time>2026-04-06T07:02:33.022Z</time></trkpt><trkpt lat="45.406795422680005" lon="11.296525512730252"><ele>29.0</ele><time>2026-04-06T07:02:34.022Z</time></trkpt><trkpt lat="45.40676857535895" lon="11.296390971638921"><ele>29.0</ele><time>2026-04-06T07:02:35.022Z</time></trkpt><trkpt lat="45.40675805013011" lon="11.296251559910418"><ele>29.0</ele><time>2026-04-06T07:02:36.022Z</time></trkpt><trkpt lat="45.4067981189272" lon="11.296126096217744"><ele>29.0</ele><time>2026-04-06T07:02:37.022Z</time></trkpt><trkpt lat="45.406846770283295" lon="11.296004190433692"><ele>29.0</ele><time>2026-04-06T07:02:38.022Z</time></trkpt><trkpt lat="45.406841744028235" lon="11.295859915336365"><ele>29.0</ele><time>2026-04-06T07:02:39.022Z</time></trkpt><trkpt lat="45.4067891284148" lon="11.295713869348088"><ele>29.0</ele><time>2026-04-06T07:02:40.022Z</time></trkpt><trkpt lat="45.40668775573461" lon="11.295633428520732"><ele>29.0</ele><time>2026-04-06T07:02:41.022Z</time></trkpt><trkpt lat="45.40657677823147" lon="11.295622956885898"><ele>29.0</ele><time>2026-04-06T07:02:42.022Z</time></trkpt><trkpt lat="45.406514137804464" lon="11.295439520223672"><ele>29.666666666666664</ele><time>2026-04-06T07:02:43.022Z</time></trkpt><trkpt lat="45.40647180935834" lon="11.295247422547794"><ele>30.333333333333336</ele><time>2026-04-06T07:02:44.022Z</time></trkpt><trkpt lat="45.40645363785381" lon="11.295019129083583"><ele>31.0</ele><time>2026-04-06T07:02:45.022Z</time></trkpt><trkpt lat="45.40643004600527" lon="11.294803058001374"><ele>31.0</ele><time>2026-04-06T07:02:46.022Z</time></trkpt><trkpt lat="45.40640260130877" lon="11.29459195258606"><ele>31.0</ele><time>2026-04-06T07:02:47.022Z</time></trkpt><trkpt lat="45.40638711947984" lon="11.294398823787061"><ele>31.0</ele><time>2026-04-06T07:02:48.022Z</time></trkpt><trkpt lat="45.40636736105767" lon="11.294217040354939"><ele>31.0</ele><time>2026-04-06T07:02:49.022Z</time></trkpt><trkpt lat="45.406355344701296" lon="11.294039211313027"><ele>30.75</ele><time>2026-04-06T07:02:50.022Z</time></trkpt><trkpt lat="45.406339798749094" lon="11.293866706664742"><ele>30.5</ele><time>2026-04-06T07:02:51.022Z</time></trkpt><trkpt lat="45.40632451354107" lon="11.293678287727928"><ele>30.25</ele><time>2026-04-06T07:02:52.022Z</time></trkpt><trkpt lat="45.40629793865545" lon="11.293475223904666"><ele>30.0</ele><time>2026-04-06T07:02:53.022Z</time></trkpt><trkpt lat="45.406290883325624" lon="11.29324940820087"><ele>30.333333333333336</ele><time>2026-04-06T07:02:54.022Z</time></trkpt><trkpt lat="45.40625766857301" lon="11.292988617417725"><ele>30.666666666666668</ele><time>2026-04-06T07:02:55.022Z</time></trkpt><trkpt lat="45.40623751072911" lon="11.292732334225573"><ele>31.0</ele><time>2026-04-06T07:02:56.022Z</time></trkpt><trkpt lat="45.40621655342692" lon="11.292462790744334"><ele>30.333333333333336</ele><time>2026-04-06T07:02:57.022Z</time></trkpt><trkpt lat="45.40618628374057" lon="11.292172556705399"><ele>29.666666666666664</ele><time>2026-04-06T07:02:58.022Z</time></trkpt><trkpt lat="45.40615948762789" lon="11.291870906787876"><ele>29.0</ele><time>2026-04-06T07:02:59.022Z</time></trkpt><trkpt lat="45.406132039795665" lon="11.291556663180986"><ele>29.0</ele><time>2026-04-06T07:03:00.022Z</time></trkpt><trkpt lat="45.40609690213801" lon="11.291234061077505"><ele>29.0</ele><time>2026-04-06T07:03:01.022Z</time></trkpt><trkpt lat="45.406066714216585" lon="11.290939950688756"><ele>29.0</ele><time>2026-04-06T07:03:02.022Z</time></trkpt><trkpt lat="45.406041690859794" lon="11.290662195146528"><ele>29.333333333333332</ele><time>2026-04-06T07:03:03.022Z</time></trkpt><trkpt lat="45.40601229262551" lon="11.290381950883202"><ele>29.666666666666664</ele><time>2026-04-06T07:03:04.022Z</time></trkpt><trkpt lat="45.40598757244777" lon="11.290100103157908"><ele>30.0</ele><time>2026-04-06T07:03:05.022Z</time></trkpt><trkpt lat="45.405972484719115" lon="11.289799648857423"><ele>30.0</ele><time>2026-04-06T07:03:06.022Z</time></trkpt><trkpt lat="45.40594372909206" lon="11.289485242594306"><ele>30.0</ele><time>2026-04-06T07:03:07.022Z</time></trkpt><trkpt lat="45.40589721926073" lon="11.289149333013313"><ele>29.0</ele><time>2026-04-06T07:03:08.022Z</time></trkpt><trkpt lat="45.405880461970035" lon="11.28878285567183"><ele>28.0</ele><time>2026-04-06T07:03:09.022Z</time></trkpt><trkpt lat="45.40584447612163" lon="11.288395178492921"><ele>29.0</ele><time>2026-04-06T07:03:10.022Z</time></trkpt><trkpt lat="45.4058080913656" lon="11.288005683599481"><ele>30.0</ele><time>2026-04-06T07:03:11.022Z</time></trkpt><trkpt lat="45.40577000355908" lon="11.287598065504907"><ele>30.0</ele><time>2026-04-06T07:03:12.022Z</time></trkpt><trkpt lat="45.40573016749208" lon="11.287171188578828"><ele>30.0</ele><time>2026-04-06T07:03:13.022Z</time></trkpt><trkpt lat="45.40568896907607" lon="11.286722016493949"><ele>29.5</ele><time>2026-04-06T07:03:14.022Z</time></trkpt><trkpt lat="45.40563799084908" lon="11.286307143195888"><ele>29.0</ele><time>2026-04-06T07:03:15.022Z</time></trkpt><trkpt lat="45.405599026699946" lon="11.285910479880418"><ele>29.5</ele><time>2026-04-06T07:03:16.022Z</time></trkpt><trkpt lat="45.4055623137147" lon="11.285512800024302"><ele>30.0</ele><time>2026-04-06T07:03:17.022Z</time></trkpt><trkpt lat="45.405520836207415" lon="11.285111660844176"><ele>30.5</ele><time>2026-04-06T07:03:18.022Z</time></trkpt><trkpt lat="45.40547906976366" lon="11.284711978442692"><ele>31.0</ele><time>2026-04-06T07:03:19.022Z</time></trkpt><trkpt lat="45.405443948772735" lon="11.284322060180395"><ele>31.0</ele><time>2026-04-06T07:03:20.022Z</time></trkpt><trkpt lat="45.40540494119247" lon="11.283944854547665"><ele>31.0</ele><time>2026-04-06T07:03:21.022Z</time></trkpt><trkpt lat="45.40537614323767" lon="11.283587055939298"><ele>31.0</ele><time>2026-04-06T07:03:22.022Z</time></trkpt><trkpt lat="45.40534458952823" lon="11.283243869837277"><ele>31.0</ele><time>2026-04-06T07:03:23.022Z</time></trkpt><trkpt lat="45.405313186908664" lon="11.282915512589453"><ele>31.0</ele><time>2026-04-06T07:03:24.022Z</time></trkpt><trkpt lat="45.40527687571737" lon="11.282601200142956"><ele>31.0</ele><time>2026-04-06T07:03:25.022Z</time></trkpt><trkpt lat="45.40525035977876" lon="11.282292057675578"><ele>31.0</ele><time>2026-04-06T07:03:26.022Z</time></trkpt><trkpt lat="45.40521988067682" lon="11.281981559919577"><ele>30.666666666666668</ele><time>2026-04-06T07:03:27.022Z</time></trkpt><trkpt lat="45.40519071728613" lon="11.281673071950362"><ele>30.333333333333336</ele><time>2026-04-06T07:03:28.022Z</time></trkpt><trkpt lat="45.405163461556725" lon="11.281359859045335"><ele>30.0</ele><time>2026-04-06T07:03:29.022Z</time></trkpt><trkpt lat="45.40516498199961" lon="11.281028458120362"><ele>30.0</ele><time>2026-04-06T07:03:30.022Z</time></trkpt><trkpt lat="45.405109511492135" lon="11.280706522179392"><ele>30.0</ele><time>2026-04-06T07:03:31.022Z</time></trkpt><trkpt lat="45.40508444725358" lon="11.28037320193664"><ele>30.0</ele><time>2026-04-06T07:03:32.022Z</time></trkpt><trkpt lat="45.40505151866167" lon="11.280034988260914"><ele>30.0</ele><time>2026-04-06T07:03:33.022Z</time></trkpt><trkpt lat="45.405023885653875" lon="11.279692236335164"><ele>30.5</ele><time>2026-04-06T07:03:34.022Z</time></trkpt><trkpt lat="45.404988297015045" lon="11.279349419525436"><ele>31.0</ele><time>2026-04-06T07:03:35.022Z</time></trkpt><trkpt lat="45.40498454435211" lon="11.279023047074316"><ele>31.0</ele><time>2026-04-06T07:03:36.022Z</time></trkpt><trkpt lat="45.40495793776126" lon="11.278725563838425"><ele>31.0</ele><time>2026-04-06T07:03:37.022Z</time></trkpt><trkpt lat="45.40493228643509" lon="11.278439363563777"><ele>31.0</ele><time>2026-04-06T07:03:38.022Z</time></trkpt><trkpt lat="45.404905436799055" lon="11.27813915815677"><ele>30.666666666666668</ele><time>2026-04-06T07:03:39.022Z</time></trkpt><trkpt lat="45.404881981009225" lon="11.27787689937344"><ele>30.333333333333336</ele><time>2026-04-06T07:03:40.022Z</time></trkpt><trkpt lat="45.40485914363277" lon="11.277622549734815"><ele>30.0</ele><time>2026-04-06T07:03:41.022Z</time></trkpt><trkpt lat="45.40483746165639" lon="11.277375183822661"><ele>29.666666666666664</ele><time>2026-04-06T07:03:42.022Z</time></trkpt><trkpt lat="45.40481596253346" lon="11.277135752906236"><ele>29.333333333333332</ele><time>2026-04-06T07:03:43.022Z</time></trkpt><trkpt lat="45.40479508084769" lon="11.276905376387989"><ele>29.0</ele><time>2026-04-06T07:03:44.022Z</time></trkpt><trkpt lat="45.40475017656979" lon="11.276677705431995"><ele>29.0</ele><time>2026-04-06T07:03:45.022Z</time></trkpt><trkpt lat="45.40472958139911" lon="11.276455056794399"><ele>29.0</ele><time>2026-04-06T07:03:46.022Z</time></trkpt><trkpt lat="45.404712333804845" lon="11.27625537353699"><ele>29.0</ele><time>2026-04-06T07:03:47.022Z</time></trkpt><trkpt lat="45.40469039358501" lon="11.276037921801787"><ele>29.25</ele><time>2026-04-06T07:03:48.022Z</time></trkpt><trkpt lat="45.40469866263281" lon="11.275825538346165"><ele>29.5</ele><time>2026-04-06T07:03:49.022Z</time></trkpt><trkpt lat="45.40468116073313" lon="11.275620484038262"><ele>29.75</ele><time>2026-04-06T07:03:50.022Z</time></trkpt><trkpt lat="45.40463104132509" lon="11.27543561464583"><ele>30.0</ele><time>2026-04-06T07:03:51.022Z</time></trkpt><trkpt lat="45.40461476747872" lon="11.275247872408286"><ele>30.0</ele><time>2026-04-06T07:03:52.022Z</time></trkpt><trkpt lat="45.404598200466644" lon="11.275053969183936"><ele>30.0</ele><time>2026-04-06T07:03:53.022Z</time></trkpt><trkpt lat="45.40457407210577" lon="11.274861213286625"><ele>30.0</ele><time>2026-04-06T07:03:54.022Z</time></trkpt><trkpt lat="45.4045968932272" lon="11.274666264064589"><ele>30.0</ele><time>2026-04-06T07:03:55.022Z</time></trkpt><trkpt lat="45.40457995834807" lon="11.274479703450769"><ele>30.0</ele><time>2026-04-06T07:03:56.022Z</time></trkpt><trkpt lat="45.404561841827096" lon="11.274280635275174"><ele>30.0</ele><time>2026-04-06T07:03:57.022Z</time></trkpt><trkpt lat="45.4045435948841" lon="11.27408022398207"><ele>30.0</ele><time>2026-04-06T07:03:58.022Z</time></trkpt><trkpt lat="45.40452531311779" lon="11.273881143403669"><ele>30.0</ele><time>2026-04-06T07:03:59.022Z</time></trkpt><trkpt lat="45.40450680409531" lon="11.273679588097298"><ele>30.0</ele><time>2026-04-06T07:04:00.022Z</time></trkpt><trkpt lat="45.40448717208067" lon="11.273465803830293"><ele>30.0</ele><time>2026-04-06T07:04:01.022Z</time></trkpt><trkpt lat="45.40446765539225" lon="11.27325327531759"><ele>30.0</ele><time>2026-04-06T07:04:02.022Z</time></trkpt><trkpt lat="45.404447271585155" lon="11.273031304258033"><ele>30.0</ele><time>2026-04-06T07:04:03.022Z</time></trkpt><trkpt lat="45.40440398164699" lon="11.272820947572797"><ele>30.0</ele><time>2026-04-06T07:04:04.022Z</time></trkpt><trkpt lat="45.404380087625704" lon="11.272582631723292"><ele>30.0</ele><time>2026-04-06T07:04:05.022Z</time></trkpt><trkpt lat="45.40435837615839" lon="11.272317386586638"><ele>30.333333333333336</ele><time>2026-04-06T07:04:06.022Z</time></trkpt><trkpt lat="45.40433047134652" lon="11.27202759958304"><ele>30.666666666666668</ele><time>2026-04-06T07:04:07.022Z</time></trkpt><trkpt lat="45.4043033401697" lon="11.271707814888716"><ele>31.0</ele><time>2026-04-06T07:04:08.022Z</time></trkpt><trkpt lat="45.404274822193685" lon="11.271368162093431"><ele>31.0</ele><time>2026-04-06T07:04:09.022Z</time></trkpt><trkpt lat="45.40424317300385" lon="11.27100585865381"><ele>31.0</ele><time>2026-04-06T07:04:10.022Z</time></trkpt><trkpt lat="45.404208736229094" lon="11.270627566782798"><ele>30.5</ele><time>2026-04-06T07:04:11.022Z</time></trkpt><trkpt lat="45.404176890333126" lon="11.270250019387598"><ele>30.0</ele><time>2026-04-06T07:04:12.022Z</time></trkpt><trkpt lat="45.40414919380148" lon="11.269901489370616"><ele>29.5</ele><time>2026-04-06T07:04:13.022Z</time></trkpt><trkpt lat="45.40411085504625" lon="11.269554139002478"><ele>29.0</ele><time>2026-04-06T07:04:14.022Z</time></trkpt><trkpt lat="45.404087310820394" lon="11.26923031282548"><ele>29.666666666666664</ele><time>2026-04-06T07:04:15.022Z</time></trkpt><trkpt lat="45.404061529448356" lon="11.268922399776615"><ele>30.333333333333336</ele><time>2026-04-06T07:04:16.022Z</time></trkpt><trkpt lat="45.40403674616016" lon="11.268633143659574"><ele>31.0</ele><time>2026-04-06T07:04:17.022Z</time></trkpt><trkpt lat="45.40399807522718" lon="11.268347290549572"><ele>31.333333333333336</ele><time>2026-04-06T07:04:18.022Z</time></trkpt><trkpt lat="45.40398202510766" lon="11.268074655412423"><ele>31.666666666666664</ele><time>2026-04-06T07:04:19.022Z</time></trkpt><trkpt lat="45.403964460000225" lon="11.267802667754307"><ele>32.0</ele><time>2026-04-06T07:04:20.022Z</time></trkpt><trkpt lat="45.40394407436181" lon="11.267535603632485"><ele>32.0</ele><time>2026-04-06T07:04:21.023Z</time></trkpt><trkpt lat="45.40393090530033" lon="11.267283632118458"><ele>32.0</ele><time>2026-04-06T07:04:22.023Z</time></trkpt><trkpt lat="45.40391553073358" lon="11.267038705036866"><ele>32.0</ele><time>2026-04-06T07:04:23.023Z</time></trkpt><trkpt lat="45.403908709973166" lon="11.266821221649288"><ele>31.75</ele><time>2026-04-06T07:04:24.023Z</time></trkpt><trkpt lat="45.40389498751505" lon="11.266611378966383"><ele>31.5</ele><time>2026-04-06T07:04:25.023Z</time></trkpt><trkpt lat="45.40387749737376" lon="11.266430481472751"><ele>31.25</ele><time>2026-04-06T07:04:26.023Z</time></trkpt><trkpt lat="45.403860020779106" lon="11.266265000935705"><ele>31.0</ele><time>2026-04-06T07:04:27.023Z</time></trkpt><trkpt lat="45.40384397286279" lon="11.266143102531835"><ele>31.000000000000004</ele><time>2026-04-06T07:04:28.023Z</time></trkpt><trkpt lat="45.40382757360062" lon="11.266032826467693"><ele>31.0</ele><time>2026-04-06T07:04:29.023Z</time></trkpt><trkpt lat="45.403829358890626" lon="11.265890947956388"><ele>31.0</ele><time>2026-04-06T07:04:31.023Z</time></trkpt><trkpt lat="45.403844975579965" lon="11.265801070737629"><ele>31.0</ele><time>2026-04-06T07:04:32.023Z</time></trkpt><trkpt lat="45.403834353338844" lon="11.265691077909379"><ele>31.000000000000004</ele><time>2026-04-06T07:04:33.023Z</time></trkpt><trkpt lat="45.4037857432912" lon="11.26557219304389"><ele>31.0</ele><time>2026-04-06T07:04:34.023Z</time></trkpt><trkpt lat="45.40373958352421" lon="11.26545671997012"><ele>31.25</ele><time>2026-04-06T07:04:35.023Z</time></trkpt><trkpt lat="45.403710484278534" lon="11.265339210740159"><ele>31.5</ele><time>2026-04-06T07:04:36.023Z</time></trkpt><trkpt lat="45.40368577789642" lon="11.265208484675338"><ele>31.75</ele><time>2026-04-06T07:04:37.023Z</time></trkpt><trkpt lat="45.40367469575618" lon="11.265029726860927"><ele>32.0</ele><time>2026-04-06T07:04:38.023Z</time></trkpt><trkpt lat="45.40366761068544" lon="11.264781313172067"><ele>31.666666666666664</ele><time>2026-04-06T07:04:39.023Z</time></trkpt><trkpt lat="45.40365065297991" lon="11.264496570183718"><ele>31.333333333333336</ele><time>2026-04-06T07:04:40.023Z</time></trkpt><trkpt lat="45.40359545838685" lon="11.264180506585655"><ele>31.0</ele><time>2026-04-06T07:04:41.023Z</time></trkpt><trkpt lat="45.403509677714254" lon="11.263890774225404"><ele>31.0</ele><time>2026-04-06T07:04:42.023Z</time></trkpt><trkpt lat="45.40341841302307" lon="11.263649353729217"><ele>31.0</ele><time>2026-04-06T07:04:43.023Z</time></trkpt><trkpt lat="45.403347776249916" lon="11.263426158047952"><ele>31.0</ele><time>2026-04-06T07:04:44.023Z</time></trkpt><trkpt lat="45.40328914413048" lon="11.263216441964031"><ele>31.25</ele><time>2026-04-06T07:04:45.023Z</time></trkpt><trkpt lat="45.40325637347184" lon="11.26303366523919"><ele>31.5</ele><time>2026-04-06T07:04:46.023Z</time></trkpt><trkpt lat="45.403240193270875" lon="11.262870472918092"><ele>31.75</ele><time>2026-04-06T07:04:47.023Z</time></trkpt><trkpt lat="45.403247686480654" lon="11.262717508907425"><ele>32.0</ele><time>2026-04-06T07:04:48.023Z</time></trkpt><trkpt lat="45.40328809363307" lon="11.262565529375975"><ele>32.0</ele><time>2026-04-06T07:04:49.023Z</time></trkpt><trkpt lat="45.40335276952069" lon="11.262409596402026"><ele>32.0</ele><time>2026-04-06T07:04:50.023Z</time></trkpt><trkpt lat="45.40337750419528" lon="11.262245742950661"><ele>32.0</ele><time>2026-04-06T07:04:51.023Z</time></trkpt><trkpt lat="45.40335289045063" lon="11.262033563821092"><ele>32.0</ele><time>2026-04-06T07:04:52.023Z</time></trkpt><trkpt lat="45.40330506094481" lon="11.261815529895204"><ele>32.0</ele><time>2026-04-06T07:04:53.023Z</time></trkpt><trkpt lat="45.40328025294333" lon="11.26161042389225"><ele>32.0</ele><time>2026-04-06T07:04:54.023Z</time></trkpt><trkpt lat="45.40327944988361" lon="11.26141596717342"><ele>32.0</ele><time>2026-04-06T07:04:55.023Z</time></trkpt><trkpt lat="45.403303776996594" lon="11.261230618644092"><ele>32.0</ele><time>2026-04-06T07:04:56.023Z</time></trkpt><trkpt lat="45.403334247671175" lon="11.261054961286959"><ele>32.0</ele><time>2026-04-06T07:04:57.023Z</time></trkpt><trkpt lat="45.403379717379536" lon="11.2609048715177"><ele>32.0</ele><time>2026-04-06T07:04:58.023Z</time></trkpt><trkpt lat="45.403430641473534" lon="11.260775681059831"><ele>32.0</ele><time>2026-04-06T07:04:59.023Z</time></trkpt><trkpt lat="45.40345903537496" lon="11.26062947394109"><ele>32.0</ele><time>2026-04-06T07:05:00.023Z</time></trkpt><trkpt lat="45.403479890235566" lon="11.260347495505684"><ele>31.25</ele><time>2026-04-06T07:05:01.023Z</time></trkpt><trkpt lat="45.40351515855445" lon="11.260143954661103"><ele>30.5</ele><time>2026-04-06T07:05:02.023Z</time></trkpt><trkpt lat="45.403551696262774" lon="11.259940646894332"><ele>29.75</ele><time>2026-04-06T07:05:03.023Z</time></trkpt><trkpt lat="45.40358601099739" lon="11.259745140056978"><ele>29.0</ele><time>2026-04-06T07:05:04.023Z</time></trkpt><trkpt lat="45.40362240526501" lon="11.259568765617225"><ele>28.5</ele><time>2026-04-06T07:05:05.023Z</time></trkpt><trkpt lat="45.40365480358414" lon="11.259408826161177"><ele>28.0</ele><time>2026-04-06T07:05:06.023Z</time></trkpt><trkpt lat="45.403685229436384" lon="11.259247163087032"><ele>27.5</ele><time>2026-04-06T07:05:07.023Z</time></trkpt><trkpt lat="45.40372445366847" lon="11.25907276865531"><ele>27.0</ele><time>2026-04-06T07:05:08.023Z</time></trkpt><trkpt lat="45.40377185132432" lon="11.258883251942013"><ele>27.0</ele><time>2026-04-06T07:05:09.023Z</time></trkpt><trkpt lat="45.40381858089511" lon="11.258706849064419"><ele>27.0</ele><time>2026-04-06T07:05:10.023Z</time></trkpt><trkpt lat="45.403861883553965" lon="11.25851794788655"><ele>27.0</ele><time>2026-04-06T07:05:11.023Z</time></trkpt><trkpt lat="45.403911543082785" lon="11.258322838622975"><ele>27.0</ele><time>2026-04-06T07:05:12.023Z</time></trkpt><trkpt lat="45.403949239410906" lon="11.258100286467688"><ele>26.333333333333336</ele><time>2026-04-06T07:05:13.023Z</time></trkpt><trkpt lat="45.403989968850155" lon="11.257876444180331"><ele>25.666666666666668</ele><time>2026-04-06T07:05:14.023Z</time></trkpt><trkpt lat="45.40403934820153" lon="11.257667710355824"><ele>25.0</ele><time>2026-04-06T07:05:15.023Z</time></trkpt><trkpt lat="45.404068657936605" lon="11.257461344774095"><ele>25.666666666666668</ele><time>2026-04-06T07:05:16.023Z</time></trkpt><trkpt lat="45.40408069963163" lon="11.257241115534299"><ele>26.333333333333336</ele><time>2026-04-06T07:05:17.023Z</time></trkpt><trkpt lat="45.404107431106894" lon="11.257021523205161"><ele>27.0</ele><time>2026-04-06T07:05:18.023Z</time></trkpt><trkpt lat="45.40413452528424" lon="11.25679412532481"><ele>27.0</ele><time>2026-04-06T07:05:19.023Z</time></trkpt><trkpt lat="45.404201223964776" lon="11.256569932448985"><ele>27.0</ele><time>2026-04-06T07:05:20.023Z</time></trkpt><trkpt lat="45.40424963611878" lon="11.256346808832273"><ele>27.0</ele><time>2026-04-06T07:05:21.023Z</time></trkpt><trkpt lat="45.404206670863566" lon="11.2560817418797"><ele>26.333333333333336</ele><time>2026-04-06T07:05:22.023Z</time></trkpt><trkpt lat="45.404232261794675" lon="11.255839839129933"><ele>25.666666666666668</ele><time>2026-04-06T07:05:23.023Z</time></trkpt><trkpt lat="45.404257643649125" lon="11.25560050019435"><ele>25.0</ele><time>2026-04-06T07:05:24.023Z</time></trkpt><trkpt lat="45.40429188074147" lon="11.255360766100463"><ele>24.333333333333336</ele><time>2026-04-06T07:05:25.023Z</time></trkpt><trkpt lat="45.40433671914461" lon="11.255124403598591"><ele>23.666666666666668</ele><time>2026-04-06T07:05:26.023Z</time></trkpt><trkpt lat="45.404364200827594" lon="11.254882641995646"><ele>23.0</ele><time>2026-04-06T07:05:27.023Z</time></trkpt><trkpt lat="45.40439035068256" lon="11.254652596740918"><ele>23.0</ele><time>2026-04-06T07:05:28.023Z</time></trkpt><trkpt lat="45.40441691531677" lon="11.254418902599944"><ele>23.0</ele><time>2026-04-06T07:05:29.023Z</time></trkpt><trkpt lat="45.404443932113786" lon="11.25418123068849"><ele>23.0</ele><time>2026-04-06T07:05:30.023Z</time></trkpt><trkpt lat="45.40447029047958" lon="11.253948293147726"><ele>23.666666666666668</ele><time>2026-04-06T07:05:31.023Z</time></trkpt><trkpt lat="45.40449702453496" lon="11.253714921039027"><ele>24.333333333333336</ele><time>2026-04-06T07:05:32.023Z</time></trkpt><trkpt lat="45.40452351401194" lon="11.253482438163218"><ele>25.0</ele><time>2026-04-06T07:05:33.023Z</time></trkpt><trkpt lat="45.40454803682315" lon="11.253265845092713"><ele>25.333333333333336</ele><time>2026-04-06T07:05:34.023Z</time></trkpt><trkpt lat="45.40457141057629" lon="11.253060143752839"><ele>25.666666666666664</ele><time>2026-04-06T07:05:35.023Z</time></trkpt><trkpt lat="45.404596336968986" lon="11.252844213945481"><ele>26.0</ele><time>2026-04-06T07:05:36.023Z</time></trkpt><trkpt lat="45.404622133958604" lon="11.252620742417859"><ele>26.0</ele><time>2026-04-06T07:05:37.023Z</time></trkpt><trkpt lat="45.404647168795734" lon="11.252403873181683"><ele>26.0</ele><time>2026-04-06T07:05:38.023Z</time></trkpt><trkpt lat="45.40466944314764" lon="11.252209837003218"><ele>26.0</ele><time>2026-04-06T07:05:39.023Z</time></trkpt><trkpt lat="45.404689894714984" lon="11.252018873249394"><ele>26.0</ele><time>2026-04-06T07:05:40.023Z</time></trkpt><trkpt lat="45.40470969897767" lon="11.251833953620284"><ele>26.25</ele><time>2026-04-06T07:05:41.023Z</time></trkpt><trkpt lat="45.40472865784105" lon="11.251656927781978"><ele>26.5</ele><time>2026-04-06T07:05:42.023Z</time></trkpt><trkpt lat="45.404746900160696" lon="11.251482633100895"><ele>26.75</ele><time>2026-04-06T07:05:43.023Z</time></trkpt><trkpt lat="45.40476569254912" lon="11.251291083931003"><ele>27.0</ele><time>2026-04-06T07:05:44.023Z</time></trkpt><trkpt lat="45.40478996294204" lon="11.251069477847281"><ele>27.333333333333336</ele><time>2026-04-06T07:05:45.023Z</time></trkpt><trkpt lat="45.40481665903583" lon="11.250828233798433"><ele>27.666666666666668</ele><time>2026-04-06T07:05:46.023Z</time></trkpt><trkpt lat="45.4048434038802" lon="11.250587779782805"><ele>28.0</ele><time>2026-04-06T07:05:47.023Z</time></trkpt><trkpt lat="45.40485260285345" lon="11.250405092406826"><ele>28.000000000000004</ele><time>2026-04-06T07:05:48.023Z</time></trkpt><trkpt lat="45.40487469554823" lon="11.250268049322196"><ele>28.0</ele><time>2026-04-06T07:05:49.023Z</time></trkpt><trkpt lat="45.404897707437065" lon="11.250175162459495"><ele>28.0</ele><time>2026-04-06T07:05:50.023Z</time></trkpt><trkpt lat="45.40494930804607" lon="11.25008711049276"><ele>28.0</ele><time>2026-04-06T07:05:51.023Z</time></trkpt><trkpt lat="45.404991557350414" lon="11.250011754652242"><ele>28.000000000000004</ele><time>2026-04-06T07:05:52.023Z</time></trkpt><trkpt lat="45.40498678976613" lon="11.249854349784485"><ele>28.0</ele><time>2026-04-06T07:05:54.023Z</time></trkpt><trkpt lat="45.40504450425354" lon="11.24978970414788"><ele>28.2</ele><time>2026-04-06T07:06:31.024Z</time></trkpt><trkpt lat="45.40505575425925" lon="11.249635812151386"><ele>28.4</ele><time>2026-04-06T07:06:33.024Z</time></trkpt><trkpt lat="45.40502131895977" lon="11.249469563689123"><ele>28.599999999999998</ele><time>2026-04-06T07:06:35.024Z</time></trkpt><trkpt lat="45.40502359589282" lon="11.249339653144824"><ele>28.799999999999997</ele><time>2026-04-06T07:06:36.024Z</time></trkpt><trkpt lat="45.40503284703332" lon="11.249174408221577"><ele>29.0</ele><time>2026-04-06T07:06:37.024Z</time></trkpt><trkpt lat="45.405058317337776" lon="11.249024443915202"><ele>29.0</ele><time>2026-04-06T07:06:38.024Z</time></trkpt><trkpt lat="45.405114202472696" lon="11.248917105599322"><ele>29.0</ele><time>2026-04-06T07:06:39.024Z</time></trkpt><trkpt lat="45.405193996751166" lon="11.248840933073568"><ele>29.0</ele><time>2026-04-06T07:06:40.024Z</time></trkpt><trkpt lat="45.405275810606724" lon="11.248758199184373"><ele>29.0</ele><time>2026-04-06T07:06:41.024Z</time></trkpt><trkpt lat="45.40532041800534" lon="11.24862551355125"><ele>29.0</ele><time>2026-04-06T07:06:42.024Z</time></trkpt><trkpt lat="45.40532257319305" lon="11.248489647060845"><ele>29.0</ele><time>2026-04-06T07:06:43.024Z</time></trkpt><trkpt lat="45.40527628963906" lon="11.248347235776341"><ele>29.0</ele><time>2026-04-06T07:06:44.024Z</time></trkpt><trkpt lat="45.40519924826934" lon="11.248205775053105"><ele>29.0</ele><time>2026-04-06T07:06:45.024Z</time></trkpt><trkpt lat="45.40518991968898" lon="11.24807498997928"><ele>29.0</ele><time>2026-04-06T07:06:46.024Z</time></trkpt><trkpt lat="45.40520269480749" lon="11.247946111424799"><ele>29.0</ele><time>2026-04-06T07:06:47.024Z</time></trkpt><trkpt lat="45.405284653950645" lon="11.24780958293405"><ele>29.0</ele><time>2026-04-06T07:06:49.024Z</time></trkpt><trkpt lat="45.405382553884486" lon="11.247781797913452"><ele>29.0</ele><time>2026-04-06T07:06:51.024Z</time></trkpt><trkpt lat="45.40540009475504" lon="11.247661192326293"><ele>29.0</ele><time>2026-04-06T07:06:53.024Z</time></trkpt><trkpt lat="45.40543838450709" lon="11.247538131720512"><ele>29.0</ele><time>2026-04-06T07:06:57.024Z</time></trkpt><trkpt lat="45.405490213452694" lon="11.247412076692095"><ele>29.0</ele><time>2026-04-06T07:06:59.024Z</time></trkpt><trkpt lat="45.4054976453714" lon="11.247309877187826"><ele>29.333333333333332</ele><time>2026-04-06T07:07:02.024Z</time></trkpt><trkpt lat="45.40550762402606" lon="11.247403675637477"><ele>29.666666666666664</ele><time>2026-04-06T07:08:51.026Z</time></trkpt><trkpt lat="45.40563948763225" lon="11.247449139197464"><ele>30.0</ele><time>2026-04-06T07:09:16.026Z</time></trkpt><trkpt lat="45.40579760451397" lon="11.248189173649294"><ele>30.0</ele><time>2026-04-06T07:10:05.026Z</time></trkpt><trkpt lat="45.40590392895572" lon="11.248524449776157"><ele>30.0</ele><time>2026-04-06T07:10:07.026Z</time></trkpt><trkpt lat="45.405770909315436" lon="11.248428489887475"><ele>30.0</ele><time>2026-04-06T07:10:23.026Z</time></trkpt><trkpt lat="45.405754827820964" lon="11.248196057617687"><ele>30.0</ele><time>2026-04-06T07:10:27.026Z</time></trkpt><trkpt lat="45.4056536285491" lon="11.247534213137337"><ele>30.0</ele><time>2026-04-06T07:10:32.026Z</time></trkpt><trkpt lat="45.40573709857211" lon="11.248217917916865"><ele>30.0</ele><time>2026-04-06T07:10:42.027Z</time></trkpt><trkpt lat="45.40572700348508" lon="11.248046472559269"><ele>30.0</ele><time>2026-04-06T07:10:54.027Z</time></trkpt><trkpt lat="45.40567995242149" lon="11.247493466548443"><ele>30.0</ele><time>2026-04-06T07:11:02.027Z</time></trkpt><trkpt lat="45.405760212278764" lon="11.247773486998748"><ele>30.0</ele><time>2026-04-06T07:11:25.027Z</time></trkpt><trkpt lat="45.40565306402751" lon="11.247398463883686"><ele>30.0</ele><time>2026-04-06T07:13:30.027Z</time></trkpt><trkpt lat="45.4056654777642" lon="11.24756570142022"><ele>30.0</ele><time>2026-04-06T07:13:41.028Z</time></trkpt><trkpt lat="45.405684376579835" lon="11.247755091346674"><ele>30.0</ele><time>2026-04-06T07:13:42.028Z</time></trkpt><trkpt lat="45.405694070586435" lon="11.247867776350759"><ele>30.0</ele><time>2026-04-06T07:13:46.028Z</time></trkpt><trkpt lat="45.405643211542035" lon="11.247807120121037"><ele>30.0</ele><time>2026-04-06T07:14:04.028Z</time></trkpt><trkpt lat="45.40560079051479" lon="11.247689912521077"><ele>30.0</ele><time>2026-04-06T07:14:05.028Z</time></trkpt><trkpt lat="45.40555435904264" lon="11.247562314556648"><ele>30.0</ele><time>2026-04-06T07:14:08.028Z</time></trkpt><trkpt lat="45.40559593957258" lon="11.24768024030257"><ele>30.0</ele><time>2026-04-06T07:14:21.028Z</time></trkpt><trkpt lat="45.40563432532559" lon="11.247872442524278"><ele>30.0</ele><time>2026-04-06T07:14:24.028Z</time></trkpt><trkpt lat="45.405650293044694" lon="11.247982744501755"><ele>30.0</ele><time>2026-04-06T07:14:26.028Z</time></trkpt><trkpt lat="45.40567070422021" lon="11.247854049286106"><ele>30.0</ele><time>2026-04-06T07:14:34.028Z</time></trkpt><trkpt lat="45.40568757885627" lon="11.247753656812234"><ele>30.0</ele><time>2026-04-06T07:14:37.028Z</time></trkpt><trkpt lat="45.40569466242651" lon="11.247663978710527"><ele>30.0</ele><time>2026-04-06T07:14:44.028Z</time></trkpt><trkpt lat="45.405647552619726" lon="11.247564986753847"><ele>30.0</ele><time>2026-04-06T07:14:51.028Z</time></trkpt><trkpt lat="45.405734954025455" lon="11.247354732248045"><ele>30.0</ele><time>2026-04-06T07:16:02.029Z</time></trkpt><trkpt lat="45.40567398083434" lon="11.247517563912162"><ele>30.0</ele><time>2026-04-06T07:16:57.861Z</time></trkpt><trkpt lat="45.4056404370852" lon="11.247272816489401"><ele>30.0</ele><time>2026-04-06T07:17:35.029Z</time></trkpt><trkpt lat="45.40562004729846" lon="11.247106476834583"><ele>30.0</ele><time>2026-04-06T07:17:36.029Z</time></trkpt><trkpt lat="45.40566679133755" lon="11.247505907102495"><ele>30.0</ele><time>2026-04-06T07:19:18.419Z</time></trkpt><trkpt lat="45.40561006500227" lon="11.247433725047046"><ele>30.0</ele><time>2026-04-06T07:37:53.034Z</time></trkpt><trkpt lat="45.40555435852313" lon="11.247480059245087"><ele>30.0</ele><time>2026-04-06T07:38:52.034Z</time></trkpt><trkpt lat="45.40547522678881" lon="11.247349466088918"><ele>30.0</ele><time>2026-04-06T07:39:39.034Z</time></trkpt><trkpt lat="45.40562341360719" lon="11.247355973073073"><ele>30.0</ele><time>2026-04-06T07:44:09.033Z</time></trkpt><trkpt lat="45.40572119089057" lon="11.24739850220292"><ele>30.2</ele><time>2026-04-06T07:44:11.032Z</time></trkpt><trkpt lat="45.405797766368536" lon="11.247291446029205"><ele>30.4</ele><time>2026-04-06T07:44:14.032Z</time></trkpt><trkpt lat="45.405853129717784" lon="11.247184397248937"><ele>30.6</ele><time>2026-04-06T07:44:17.032Z</time></trkpt><trkpt lat="45.40593159872288" lon="11.247079014983983"><ele>30.8</ele><time>2026-04-06T07:44:19.032Z</time></trkpt><trkpt lat="45.40583846807346" lon="11.247016023404496"><ele>31.0</ele><time>2026-04-06T07:44:21.032Z</time></trkpt><trkpt lat="45.40576767692671" lon="11.247030892738913"><ele>31.0</ele><time>2026-04-06T07:44:23.032Z</time></trkpt><trkpt lat="45.405664535938364" lon="11.247025534870188"><ele>31.0</ele><time>2026-04-06T07:44:26.032Z</time></trkpt><trkpt lat="45.40558082981041" lon="11.247009867397663"><ele>31.0</ele><time>2026-04-06T07:44:28.032Z</time></trkpt><trkpt lat="45.40552406500863" lon="11.24696748902959"><ele>31.0</ele><time>2026-04-06T07:44:30.032Z</time></trkpt><trkpt lat="45.40544237306765" lon="11.246891199838409"><ele>31.0</ele><time>2026-04-06T07:44:32.032Z</time></trkpt><trkpt lat="45.40539944255356" lon="11.24673097442375"><ele>30.833333333333336</ele><time>2026-04-06T07:44:34.032Z</time></trkpt><trkpt lat="45.40540902327784" lon="11.246569467634002"><ele>30.666666666666668</ele><time>2026-04-06T07:44:36.032Z</time></trkpt><trkpt lat="45.40541506562244" lon="11.246473482981601"><ele>30.5</ele><time>2026-04-06T07:44:37.032Z</time></trkpt><trkpt lat="45.40543524802331" lon="11.246362450106604"><ele>30.333333333333336</ele><time>2026-04-06T07:44:38.032Z</time></trkpt><trkpt lat="45.40545586004849" lon="11.246271552245155"><ele>30.166666666666668</ele><time>2026-04-06T07:44:39.032Z</time></trkpt><trkpt lat="45.405468797448734" lon="11.246138688747969"><ele>30.0</ele><time>2026-04-06T07:44:40.032Z</time></trkpt><trkpt lat="45.40549004809779" lon="11.245972648595952"><ele>30.0</ele><time>2026-04-06T07:44:41.032Z</time></trkpt><trkpt lat="45.40553086469441" lon="11.245819567764707"><ele>30.0</ele><time>2026-04-06T07:44:42.032Z</time></trkpt><trkpt lat="45.40554861732975" lon="11.245699331366449"><ele>30.0</ele><time>2026-04-06T07:44:43.032Z</time></trkpt><trkpt lat="45.40555721939177" lon="11.245551384592645"><ele>30.0</ele><time>2026-04-06T07:44:44.032Z</time></trkpt><trkpt lat="45.4055896569734" lon="11.245436182127088"><ele>30.0</ele><time>2026-04-06T07:44:45.032Z</time></trkpt><trkpt lat="45.405600126425824" lon="11.245242263319954"><ele>30.0</ele><time>2026-04-06T07:44:46.032Z</time></trkpt><trkpt lat="45.40561745632097" lon="11.245085737984533"><ele>30.0</ele><time>2026-04-06T07:44:47.032Z</time></trkpt><trkpt lat="45.40564633953312" lon="11.244915632214617"><ele>30.0</ele><time>2026-04-06T07:44:48.032Z</time></trkpt><trkpt lat="45.405688089398964" lon="11.244708601439608"><ele>30.0</ele><time>2026-04-06T07:44:49.032Z</time></trkpt><trkpt lat="45.40571798758953" lon="11.24448144345146"><ele>30.0</ele><time>2026-04-06T07:44:50.032Z</time></trkpt><trkpt lat="45.40574580840305" lon="11.24429082529477"><ele>30.0</ele><time>2026-04-06T07:44:51.032Z</time></trkpt><trkpt lat="45.405773391376286" lon="11.244106321979919"><ele>30.0</ele><time>2026-04-06T07:44:52.032Z</time></trkpt><trkpt lat="45.405803695528796" lon="11.243914481445685"><ele>30.0</ele><time>2026-04-06T07:44:53.032Z</time></trkpt><trkpt lat="45.40583280737047" lon="11.243712282298874"><ele>29.666666666666664</ele><time>2026-04-06T07:44:54.032Z</time></trkpt><trkpt lat="45.405862340303635" lon="11.243492523339476"><ele>29.333333333333332</ele><time>2026-04-06T07:44:55.032Z</time></trkpt><trkpt lat="45.40589494668572" lon="11.24324750110156"><ele>29.0</ele><time>2026-04-06T07:44:56.032Z</time></trkpt><trkpt lat="45.40593575689095" lon="11.24298007311679"><ele>29.0</ele><time>2026-04-06T07:44:57.032Z</time></trkpt><trkpt lat="45.405969679704945" lon="11.242753568105073"><ele>29.0</ele><time>2026-04-06T07:44:58.032Z</time></trkpt><trkpt lat="45.4060027585208" lon="11.24252544332725"><ele>29.0</ele><time>2026-04-06T07:44:59.032Z</time></trkpt><trkpt lat="45.4060366480395" lon="11.242284717879171"><ele>29.333333333333332</ele><time>2026-04-06T07:45:00.032Z</time></trkpt><trkpt lat="45.40606811173536" lon="11.242040831797151"><ele>29.666666666666664</ele><time>2026-04-06T07:45:01.032Z</time></trkpt><trkpt lat="45.40609667708086" lon="11.241834047303355"><ele>30.0</ele><time>2026-04-06T07:45:02.032Z</time></trkpt><trkpt lat="45.40612792312172" lon="11.24163614369359"><ele>30.0</ele><time>2026-04-06T07:45:03.032Z</time></trkpt><trkpt lat="45.40615362418883" lon="11.241446711710564"><ele>30.0</ele><time>2026-04-06T07:45:04.032Z</time></trkpt><trkpt lat="45.40618061969396" lon="11.241258605906264"><ele>30.0</ele><time>2026-04-06T07:45:05.032Z</time></trkpt><trkpt lat="45.406210081801625" lon="11.241084390651764"><ele>30.0</ele><time>2026-04-06T07:45:06.032Z</time></trkpt><trkpt lat="45.406237720790564" lon="11.240910452636749"><ele>30.0</ele><time>2026-04-06T07:45:07.032Z</time></trkpt><trkpt lat="45.40627165435862" lon="11.24073628813973"><ele>30.0</ele><time>2026-04-06T07:45:08.032Z</time></trkpt><trkpt lat="45.406288457879036" lon="11.240591319727164"><ele>30.0</ele><time>2026-04-06T07:45:09.032Z</time></trkpt><trkpt lat="45.406313222696994" lon="11.240429984475703"><ele>30.0</ele><time>2026-04-06T07:45:10.032Z</time></trkpt><trkpt lat="45.40634136961529" lon="11.240294350416201"><ele>30.0</ele><time>2026-04-06T07:45:11.032Z</time></trkpt><trkpt lat="45.4063721099482" lon="11.240168584775951"><ele>30.0</ele><time>2026-04-06T07:45:12.032Z</time></trkpt><trkpt lat="45.40640815446412" lon="11.240067703353274"><ele>30.0</ele><time>2026-04-06T07:45:13.032Z</time></trkpt><trkpt lat="45.40646733655238" lon="11.240004455150949"><ele>30.0</ele><time>2026-04-06T07:45:14.032Z</time></trkpt><trkpt lat="45.406537408232026" lon="11.239957878422956"><ele>30.0</ele><time>2026-04-06T07:45:15.032Z</time></trkpt><trkpt lat="45.40659888157662" lon="11.23989659654414"><ele>30.0</ele><time>2026-04-06T07:45:16.032Z</time></trkpt><trkpt lat="45.40664454154946" lon="11.239793419809445"><ele>30.0</ele><time>2026-04-06T07:45:17.032Z</time></trkpt><trkpt lat="45.406657729448284" lon="11.239684572260103"><ele>29.8</ele><time>2026-04-06T07:45:18.032Z</time></trkpt><trkpt lat="45.40664274065037" lon="11.239580597996822"><ele>29.6</ele><time>2026-04-06T07:45:19.032Z</time></trkpt><trkpt lat="45.40659643893276" lon="11.239484088981534"><ele>29.4</ele><time>2026-04-06T07:45:20.032Z</time></trkpt><trkpt lat="45.40655497228302" lon="11.239362303723693"><ele>29.2</ele><time>2026-04-06T07:45:21.032Z</time></trkpt><trkpt lat="45.40654327486404" lon="11.23920858196099"><ele>29.0</ele><time>2026-04-06T07:45:22.032Z</time></trkpt><trkpt lat="45.406556603048585" lon="11.239047919333238"><ele>28.75</ele><time>2026-04-06T07:45:23.032Z</time></trkpt><trkpt lat="45.40657462705788" lon="11.238878996888703"><ele>28.5</ele><time>2026-04-06T07:45:24.032Z</time></trkpt><trkpt lat="45.406591548164435" lon="11.238713530752486"><ele>28.25</ele><time>2026-04-06T07:45:25.032Z</time></trkpt><trkpt lat="45.40660569702855" lon="11.238538868758022"><ele>28.0</ele><time>2026-04-06T07:45:26.032Z</time></trkpt><trkpt lat="45.40662813001466" lon="11.238346925149667"><ele>28.0</ele><time>2026-04-06T07:45:27.032Z</time></trkpt><trkpt lat="45.40665878396725" lon="11.238135940031993"><ele>28.0</ele><time>2026-04-06T07:45:28.032Z</time></trkpt><trkpt lat="45.40668474649167" lon="11.237935537874648"><ele>28.0</ele><time>2026-04-06T07:45:29.032Z</time></trkpt><trkpt lat="45.406728156145284" lon="11.237750020430644"><ele>28.0</ele><time>2026-04-06T07:45:30.032Z</time></trkpt><trkpt lat="45.406747209378125" lon="11.237552924788789"><ele>28.0</ele><time>2026-04-06T07:45:31.032Z</time></trkpt><trkpt lat="45.40677484408371" lon="11.23733533669526"><ele>28.0</ele><time>2026-04-06T07:45:32.032Z</time></trkpt><trkpt lat="45.40680940030409" lon="11.237145796316764"><ele>28.0</ele><time>2026-04-06T07:45:33.032Z</time></trkpt><trkpt lat="45.406839368162956" lon="11.236921166866466"><ele>28.0</ele><time>2026-04-06T07:45:34.032Z</time></trkpt><trkpt lat="45.40687396873661" lon="11.236701299944137"><ele>28.0</ele><time>2026-04-06T07:45:35.032Z</time></trkpt><trkpt lat="45.40691220039735" lon="11.236474407978115"><ele>28.0</ele><time>2026-04-06T07:45:36.032Z</time></trkpt><trkpt lat="45.40694630725974" lon="11.236242428931023"><ele>28.333333333333336</ele><time>2026-04-06T07:45:37.032Z</time></trkpt><trkpt lat="45.406979938353835" lon="11.236000754655475"><ele>28.666666666666664</ele><time>2026-04-06T07:45:38.032Z</time></trkpt><trkpt lat="45.40701742511384" lon="11.235741790399851"><ele>29.0</ele><time>2026-04-06T07:45:39.032Z</time></trkpt><trkpt lat="45.40705801070604" lon="11.235455478763388"><ele>29.0</ele><time>2026-04-06T07:45:40.032Z</time></trkpt><trkpt lat="45.40709909413194" lon="11.235179282684879"><ele>29.0</ele><time>2026-04-06T07:45:41.032Z</time></trkpt><trkpt lat="45.407137144935916" lon="11.23493615377427"><ele>29.0</ele><time>2026-04-06T07:45:42.032Z</time></trkpt><trkpt lat="45.40717458256034" lon="11.234694269111756"><ele>29.0</ele><time>2026-04-06T07:45:43.032Z</time></trkpt><trkpt lat="45.40721284833" lon="11.234449294267389"><ele>29.0</ele><time>2026-04-06T07:45:44.032Z</time></trkpt><trkpt lat="45.40725233485523" lon="11.234195522604569"><ele>29.0</ele><time>2026-04-06T07:45:45.032Z</time></trkpt><trkpt lat="45.407290588123814" lon="11.233936227273157"><ele>29.333333333333332</ele><time>2026-04-06T07:45:46.032Z</time></trkpt><trkpt lat="45.40733178710075" lon="11.233673908985851"><ele>29.666666666666664</ele><time>2026-04-06T07:45:47.032Z</time></trkpt><trkpt lat="45.40736863608469" lon="11.233405472307215"><ele>30.0</ele><time>2026-04-06T07:45:48.032Z</time></trkpt><trkpt lat="45.40740723400827" lon="11.233132509966248"><ele>30.666666666666664</ele><time>2026-04-06T07:45:49.032Z</time></trkpt><trkpt lat="45.40744996436987" lon="11.232854705251082"><ele>31.333333333333332</ele><time>2026-04-06T07:45:50.032Z</time></trkpt><trkpt lat="45.40749396249481" lon="11.232553527684498"><ele>32.0</ele><time>2026-04-06T07:45:51.032Z</time></trkpt><trkpt lat="45.4075397960191" lon="11.232233563022005"><ele>32.0</ele><time>2026-04-06T07:45:52.032Z</time></trkpt><trkpt lat="45.4075877438898" lon="11.231938812522982"><ele>32.0</ele><time>2026-04-06T07:45:53.032Z</time></trkpt><trkpt lat="45.40762914195378" lon="11.2316613015341"><ele>32.0</ele><time>2026-04-06T07:45:54.032Z</time></trkpt><trkpt lat="45.407663903536736" lon="11.23140492131631"><ele>32.0</ele><time>2026-04-06T07:45:55.032Z</time></trkpt><trkpt lat="45.40770165336905" lon="11.231149626196702"><ele>32.0</ele><time>2026-04-06T07:45:56.032Z</time></trkpt><trkpt lat="45.40773907426418" lon="11.2309015045178"><ele>32.0</ele><time>2026-04-06T07:45:57.032Z</time></trkpt><trkpt lat="45.40777879452079" lon="11.230652257604511"><ele>31.333333333333332</ele><time>2026-04-06T07:45:58.032Z</time></trkpt><trkpt lat="45.40781599910498" lon="11.230397344253154"><ele>30.666666666666664</ele><time>2026-04-06T07:45:59.032Z</time></trkpt><trkpt lat="45.40785379726056" lon="11.23014225976698"><ele>30.0</ele><time>2026-04-06T07:46:00.032Z</time></trkpt><trkpt lat="45.407893697467266" lon="11.229890469967016"><ele>30.0</ele><time>2026-04-06T07:46:01.032Z</time></trkpt><trkpt lat="45.407931571586694" lon="11.229629871091912"><ele>30.0</ele><time>2026-04-06T07:46:02.032Z</time></trkpt><trkpt lat="45.40797187760175" lon="11.229361096640796"><ele>30.0</ele><time>2026-04-06T07:46:03.032Z</time></trkpt><trkpt lat="45.408015936372784" lon="11.229082750742648"><ele>30.666666666666664</ele><time>2026-04-06T07:46:04.032Z</time></trkpt><trkpt lat="45.40805891198007" lon="11.228806496752158"><ele>31.333333333333332</ele><time>2026-04-06T07:46:05.032Z</time></trkpt><trkpt lat="45.40809858299444" lon="11.228544330618622"><ele>32.0</ele><time>2026-04-06T07:46:06.032Z</time></trkpt><trkpt lat="45.40813775105386" lon="11.228286901181693"><ele>31.666666666666664</ele><time>2026-04-06T07:46:07.032Z</time></trkpt><trkpt lat="45.408176359468015" lon="11.228027472808575"><ele>31.333333333333336</ele><time>2026-04-06T07:46:08.032Z</time></trkpt><trkpt lat="45.408214905747315" lon="11.227773852035511"><ele>31.0</ele><time>2026-04-06T07:46:09.032Z</time></trkpt><trkpt lat="45.40825022113751" lon="11.22752678115211"><ele>30.666666666666668</ele><time>2026-04-06T07:46:10.032Z</time></trkpt><trkpt lat="45.40828835065686" lon="11.22727372679269"><ele>30.333333333333336</ele><time>2026-04-06T07:46:11.032Z</time></trkpt><trkpt lat="45.408323448783044" lon="11.227023357036886"><ele>30.0</ele><time>2026-04-06T07:46:12.032Z</time></trkpt><trkpt lat="45.40835994152373" lon="11.226779532083535"><ele>30.0</ele><time>2026-04-06T07:46:13.032Z</time></trkpt><trkpt lat="45.40840084815339" lon="11.226533975617853"><ele>30.0</ele><time>2026-04-06T07:46:14.032Z</time></trkpt><trkpt lat="45.40843671413492" lon="11.226288020035101"><ele>30.0</ele><time>2026-04-06T07:46:15.032Z</time></trkpt><trkpt lat="45.408472671918744" lon="11.226039336537484"><ele>30.0</ele><time>2026-04-06T07:46:16.032Z</time></trkpt><trkpt lat="45.40850975884117" lon="11.225799174762662"><ele>30.0</ele><time>2026-04-06T07:46:17.032Z</time></trkpt><trkpt lat="45.40854578826784" lon="11.225552516773748"><ele>30.0</ele><time>2026-04-06T07:46:18.032Z</time></trkpt><trkpt lat="45.40858372811711" lon="11.225308571599214"><ele>30.0</ele><time>2026-04-06T07:46:19.032Z</time></trkpt><trkpt lat="45.408620831994796" lon="11.225070911551844"><ele>30.0</ele><time>2026-04-06T07:46:20.032Z</time></trkpt><trkpt lat="45.40865498601305" lon="11.224830015247079"><ele>30.0</ele><time>2026-04-06T07:46:21.032Z</time></trkpt><trkpt lat="45.40869002504523" lon="11.224591048615283"><ele>30.0</ele><time>2026-04-06T07:46:22.032Z</time></trkpt><trkpt lat="45.40872629023361" lon="11.224351361327516"><ele>30.0</ele><time>2026-04-06T07:46:23.032Z</time></trkpt><trkpt lat="45.40875657594806" lon="11.224102645701873"><ele>30.0</ele><time>2026-04-06T07:46:24.032Z</time></trkpt><trkpt lat="45.40879123454985" lon="11.223875223773655"><ele>29.75</ele><time>2026-04-06T07:46:25.032Z</time></trkpt><trkpt lat="45.4088272269243" lon="11.223644261807635"><ele>29.5</ele><time>2026-04-06T07:46:26.032Z</time></trkpt><trkpt lat="45.40886280508376" lon="11.223433232242783"><ele>29.25</ele><time>2026-04-06T07:46:27.032Z</time></trkpt><trkpt lat="45.40888666094396" lon="11.223259055116818"><ele>29.0</ele><time>2026-04-06T07:46:28.032Z</time></trkpt><trkpt lat="45.40890636732464" lon="11.223092187952355"><ele>28.799999999999997</ele><time>2026-04-06T07:46:29.032Z</time></trkpt><trkpt lat="45.408932474099565" lon="11.222954280524695"><ele>28.599999999999998</ele><time>2026-04-06T07:46:30.032Z</time></trkpt><trkpt lat="45.40897576440848" lon="11.222829803692372"><ele>28.4</ele><time>2026-04-06T07:46:31.032Z</time></trkpt><trkpt lat="45.409040422755574" lon="11.222726342820291"><ele>28.2</ele><time>2026-04-06T07:46:32.032Z</time></trkpt><trkpt lat="45.409126842301745" lon="11.222635840128532"><ele>28.0</ele><time>2026-04-06T07:46:33.032Z</time></trkpt><trkpt lat="45.4092355799335" lon="11.222578816751037"><ele>28.0</ele><time>2026-04-06T07:46:34.032Z</time></trkpt><trkpt lat="45.40934839832983" lon="11.222527243368484"><ele>28.0</ele><time>2026-04-06T07:46:35.032Z</time></trkpt><trkpt lat="45.40943394229012" lon="11.222428600955997"><ele>28.0</ele><time>2026-04-06T07:46:36.032Z</time></trkpt><trkpt lat="45.40949068193174" lon="11.222277794902118"><ele>28.0</ele><time>2026-04-06T07:46:37.032Z</time></trkpt><trkpt lat="45.4095215062297" lon="11.2221032441037"><ele>28.25</ele><time>2026-04-06T07:46:38.032Z</time></trkpt><trkpt lat="45.409505318723895" lon="11.221939041138203"><ele>28.5</ele><time>2026-04-06T07:46:39.032Z</time></trkpt><trkpt lat="45.409452933439184" lon="11.221788153418169"><ele>28.75</ele><time>2026-04-06T07:46:40.032Z</time></trkpt><trkpt lat="45.409369317484185" lon="11.22164821376396"><ele>29.0</ele><time>2026-04-06T07:46:41.032Z</time></trkpt><trkpt lat="45.40927954141775" lon="11.221511778205869"><ele>29.0</ele><time>2026-04-06T07:46:42.032Z</time></trkpt><trkpt lat="45.40922903488088" lon="11.22134055062025"><ele>29.0</ele><time>2026-04-06T07:46:43.032Z</time></trkpt><trkpt lat="45.40921152587988" lon="11.221143990969487"><ele>29.0</ele><time>2026-04-06T07:46:44.032Z</time></trkpt><trkpt lat="45.40921858251845" lon="11.220926445891045"><ele>29.0</ele><time>2026-04-06T07:46:45.032Z</time></trkpt><trkpt lat="45.409276545427744" lon="11.220735038056654"><ele>29.5</ele><time>2026-04-06T07:46:46.032Z</time></trkpt><trkpt lat="45.4093051887769" lon="11.22054302966052"><ele>30.0</ele><time>2026-04-06T07:46:47.032Z</time></trkpt><trkpt lat="45.40932165760105" lon="11.220343041157236"><ele>30.5</ele><time>2026-04-06T07:46:48.032Z</time></trkpt><trkpt lat="45.409356968584994" lon="11.220122303966429"><ele>31.0</ele><time>2026-04-06T07:46:49.032Z</time></trkpt><trkpt lat="45.40939638940077" lon="11.219888828942642"><ele>30.0</ele><time>2026-04-06T07:46:50.032Z</time></trkpt><trkpt lat="45.40942918788057" lon="11.219637808054413"><ele>29.0</ele><time>2026-04-06T07:46:51.032Z</time></trkpt><trkpt lat="45.409458387562765" lon="11.219414155917208"><ele>28.0</ele><time>2026-04-06T07:46:52.032Z</time></trkpt><trkpt lat="45.40950581283232" lon="11.219193609153116"><ele>28.0</ele><time>2026-04-06T07:46:53.032Z</time></trkpt><trkpt lat="45.409521107702346" lon="11.218945256388547"><ele>28.0</ele><time>2026-04-06T07:46:54.032Z</time></trkpt><trkpt lat="45.409561491810805" lon="11.218684229063097"><ele>28.0</ele><time>2026-04-06T07:46:55.032Z</time></trkpt><trkpt lat="45.40960481069523" lon="11.218403820762859"><ele>28.666666666666668</ele><time>2026-04-06T07:46:56.032Z</time></trkpt><trkpt lat="45.40964482050758" lon="11.218108802885665"><ele>29.333333333333336</ele><time>2026-04-06T07:46:57.032Z</time></trkpt><trkpt lat="45.40968590721194" lon="11.217838203577426"><ele>30.0</ele><time>2026-04-06T07:46:58.032Z</time></trkpt><trkpt lat="45.40972338910446" lon="11.217580185440298"><ele>30.0</ele><time>2026-04-06T07:46:59.032Z</time></trkpt><trkpt lat="45.40978552939456" lon="11.21732365601215"><ele>30.0</ele><time>2026-04-06T07:47:00.032Z</time></trkpt><trkpt lat="45.40981234959494" lon="11.217049549857967"><ele>30.0</ele><time>2026-04-06T07:47:01.032Z</time></trkpt><trkpt lat="45.40985409063654" lon="11.216773667066947"><ele>30.333333333333336</ele><time>2026-04-06T07:47:02.032Z</time></trkpt><trkpt lat="45.40989424822343" lon="11.216491795999266"><ele>30.666666666666668</ele><time>2026-04-06T07:47:03.032Z</time></trkpt><trkpt lat="45.40993704737111" lon="11.216197620009616"><ele>31.0</ele><time>2026-04-06T07:47:04.032Z</time></trkpt><trkpt lat="45.40997801977213" lon="11.215907098291936"><ele>30.666666666666668</ele><time>2026-04-06T07:47:05.032Z</time></trkpt><trkpt lat="45.41002181177415" lon="11.215609667826675"><ele>30.333333333333336</ele><time>2026-04-06T07:47:06.032Z</time></trkpt><trkpt lat="45.41008841363461" lon="11.215313969792991"><ele>30.0</ele><time>2026-04-06T07:47:07.032Z</time></trkpt><trkpt lat="45.41013463767846" lon="11.215014198872966"><ele>29.666666666666664</ele><time>2026-04-06T07:47:08.032Z</time></trkpt><trkpt lat="45.410182187661796" lon="11.214706732569462"><ele>29.333333333333332</ele><time>2026-04-06T07:47:09.032Z</time></trkpt><trkpt lat="45.41022933971129" lon="11.214401843589673"><ele>29.0</ele><time>2026-04-06T07:47:10.032Z</time></trkpt><trkpt lat="45.410250432099225" lon="11.214096117169667"><ele>29.0</ele><time>2026-04-06T07:47:11.032Z</time></trkpt><trkpt lat="45.41030163156179" lon="11.21379147689738"><ele>29.0</ele><time>2026-04-06T07:47:12.032Z</time></trkpt><trkpt lat="45.41034986376803" lon="11.21347948819058"><ele>29.0</ele><time>2026-04-06T07:47:13.032Z</time></trkpt><trkpt lat="45.410399159746724" lon="11.213156256659756"><ele>29.0</ele><time>2026-04-06T07:47:14.032Z</time></trkpt><trkpt lat="45.41046682024813" lon="11.212842380190303"><ele>29.0</ele><time>2026-04-06T07:47:15.032Z</time></trkpt><trkpt lat="45.410516549173224" lon="11.212515947225478"><ele>29.0</ele><time>2026-04-06T07:47:16.032Z</time></trkpt><trkpt lat="45.41056657270964" lon="11.212187580361885"><ele>29.0</ele><time>2026-04-06T07:47:17.032Z</time></trkpt><trkpt lat="45.41061629326634" lon="11.211861202335271"><ele>29.0</ele><time>2026-04-06T07:47:18.032Z</time></trkpt><trkpt lat="45.410650199459866" lon="11.21153467792127"><ele>29.0</ele><time>2026-04-06T07:47:19.032Z</time></trkpt><trkpt lat="45.41071430954908" lon="11.211215980524845"><ele>28.5</ele><time>2026-04-06T07:47:20.032Z</time></trkpt><trkpt lat="45.41076269907503" lon="11.210896618575056"><ele>28.0</ele><time>2026-04-06T07:47:21.032Z</time></trkpt><trkpt lat="45.41081061091322" lon="11.210580409202617"><ele>27.0</ele><time>2026-04-06T07:47:22.032Z</time></trkpt><trkpt lat="45.41085873669282" lon="11.21026278789608"><ele>26.0</ele><time>2026-04-06T07:47:23.032Z</time></trkpt><trkpt lat="45.41089120378634" lon="11.209939001203551"><ele>25.0</ele><time>2026-04-06T07:47:24.032Z</time></trkpt><trkpt lat="45.41093976579856" lon="11.209617708041161"><ele>24.0</ele><time>2026-04-06T07:47:25.032Z</time></trkpt><trkpt lat="45.41100489247816" lon="11.209298323420194"><ele>24.0</ele><time>2026-04-06T07:47:26.032Z</time></trkpt><trkpt lat="45.411038063402536" lon="11.208975528810832"><ele>24.0</ele><time>2026-04-06T07:47:27.032Z</time></trkpt><trkpt lat="45.41109908599368" lon="11.208677577019856"><ele>24.0</ele><time>2026-04-06T07:47:28.032Z</time></trkpt><trkpt lat="45.41114301649056" lon="11.208388073037181"><ele>24.0</ele><time>2026-04-06T07:47:29.032Z</time></trkpt><trkpt lat="45.41118509574251" lon="11.2081107689706"><ele>24.0</ele><time>2026-04-06T07:47:30.032Z</time></trkpt><trkpt lat="45.41122719299311" lon="11.207833346292071"><ele>24.0</ele><time>2026-04-06T07:47:31.032Z</time></trkpt><trkpt lat="45.41124594689627" lon="11.20754537476111"><ele>23.666666666666668</ele><time>2026-04-06T07:47:32.032Z</time></trkpt><trkpt lat="45.411285988080806" lon="11.207257684673566"><ele>23.333333333333336</ele><time>2026-04-06T07:47:33.032Z</time></trkpt><trkpt lat="45.41133257997179" lon="11.206967409870984"><ele>23.0</ele><time>2026-04-06T07:47:34.032Z</time></trkpt><trkpt lat="45.411378093785245" lon="11.20667825681315"><ele>23.666666666666668</ele><time>2026-04-06T07:47:35.032Z</time></trkpt><trkpt lat="45.41142209555957" lon="11.206384603020124"><ele>24.333333333333336</ele><time>2026-04-06T07:47:36.032Z</time></trkpt><trkpt lat="45.41146782425157" lon="11.206078080804195"><ele>25.0</ele><time>2026-04-06T07:47:37.032Z</time></trkpt><trkpt lat="45.41150927623984" lon="11.205757600728651"><ele>25.333333333333336</ele><time>2026-04-06T07:47:38.032Z</time></trkpt><trkpt lat="45.41154190434821" lon="11.205409178957886"><ele>25.666666666666664</ele><time>2026-04-06T07:47:39.032Z</time></trkpt><trkpt lat="45.41159640743655" lon="11.205146117930683"><ele>26.0</ele><time>2026-04-06T07:47:40.032Z</time></trkpt><trkpt lat="45.41164890428518" lon="11.204820069514085"><ele>26.0</ele><time>2026-04-06T07:47:41.032Z</time></trkpt><trkpt lat="45.411700938291595" lon="11.20448877854619"><ele>26.0</ele><time>2026-04-06T07:47:42.032Z</time></trkpt><trkpt lat="45.41174535366998" lon="11.204156030799725"><ele>25.5</ele><time>2026-04-06T07:47:43.032Z</time></trkpt><trkpt lat="45.411793820003076" lon="11.20381958870297"><ele>25.0</ele><time>2026-04-06T07:47:44.032Z</time></trkpt><trkpt lat="45.411846719734996" lon="11.203489395899002"><ele>26.0</ele><time>2026-04-06T07:47:45.032Z</time></trkpt><trkpt lat="45.4118976254831" lon="11.20315682861753"><ele>27.0</ele><time>2026-04-06T07:47:46.032Z</time></trkpt><trkpt lat="45.41194683104224" lon="11.202832664632705"><ele>27.0</ele><time>2026-04-06T07:47:47.032Z</time></trkpt><trkpt lat="45.411993271799815" lon="11.202505079897225"><ele>27.0</ele><time>2026-04-06T07:47:48.032Z</time></trkpt><trkpt lat="45.412042155803604" lon="11.20217394205442"><ele>27.5</ele><time>2026-04-06T07:47:49.032Z</time></trkpt><trkpt lat="45.41208712758015" lon="11.201849685228352"><ele>28.0</ele><time>2026-04-06T07:47:50.032Z</time></trkpt><trkpt lat="45.412129904833385" lon="11.20154341998749"><ele>27.666666666666668</ele><time>2026-04-06T07:47:51.032Z</time></trkpt><trkpt lat="45.41217749066914" lon="11.201238431535984"><ele>27.333333333333336</ele><time>2026-04-06T07:47:52.032Z</time></trkpt><trkpt lat="45.41222688038492" lon="11.200924210436453"><ele>27.0</ele><time>2026-04-06T07:47:53.032Z</time></trkpt><trkpt lat="45.412277523740364" lon="11.200609214149386"><ele>28.333333333333336</ele><time>2026-04-06T07:47:54.032Z</time></trkpt><trkpt lat="45.41232486007068" lon="11.200287323074749"><ele>29.666666666666668</ele><time>2026-04-06T07:47:55.032Z</time></trkpt><trkpt lat="45.41237171376677" lon="11.199987243683246"><ele>31.0</ele><time>2026-04-06T07:47:56.032Z</time></trkpt><trkpt lat="45.41241253773607" lon="11.199697001261784"><ele>31.666666666666668</ele><time>2026-04-06T07:47:57.032Z</time></trkpt><trkpt lat="45.41245005851123" lon="11.199414768030556"><ele>32.333333333333336</ele><time>2026-04-06T07:47:58.032Z</time></trkpt><trkpt lat="45.41249021206191" lon="11.199137221035308"><ele>33.0</ele><time>2026-04-06T07:47:59.032Z</time></trkpt><trkpt lat="45.41253574619112" lon="11.198863938762214"><ele>33.333333333333336</ele><time>2026-04-06T07:48:00.032Z</time></trkpt><trkpt lat="45.41257737624635" lon="11.198583423227413"><ele>33.66666666666667</ele><time>2026-04-06T07:48:01.032Z</time></trkpt><trkpt lat="45.412616851936434" lon="11.198314427036903"><ele>34.0</ele><time>2026-04-06T07:48:02.032Z</time></trkpt><trkpt lat="45.4126504607571" lon="11.198056235988066"><ele>34.66666666666667</ele><time>2026-04-06T07:48:03.032Z</time></trkpt><trkpt lat="45.41268726255213" lon="11.197802889605946"><ele>35.333333333333336</ele><time>2026-04-06T07:48:04.032Z</time></trkpt><trkpt lat="45.412723131833296" lon="11.19754751870631"><ele>36.0</ele><time>2026-04-06T07:48:05.032Z</time></trkpt><trkpt lat="45.41275814787961" lon="11.19728452443535"><ele>36.0</ele><time>2026-04-06T07:48:06.032Z</time></trkpt><trkpt lat="45.41279920510385" lon="11.197033221382581"><ele>36.0</ele><time>2026-04-06T07:48:07.032Z</time></trkpt><trkpt lat="45.41283054840975" lon="11.19680259585551"><ele>36.0</ele><time>2026-04-06T07:48:08.032Z</time></trkpt><trkpt lat="45.4128598111302" lon="11.196563090374914"><ele>37.0</ele><time>2026-04-06T07:48:09.032Z</time></trkpt><trkpt lat="45.412899523753715" lon="11.196324511903038"><ele>38.0</ele><time>2026-04-06T07:48:10.032Z</time></trkpt><trkpt lat="45.412942400931335" lon="11.19608172084575"><ele>39.0</ele><time>2026-04-06T07:48:11.032Z</time></trkpt><trkpt lat="45.41297956861954" lon="11.195836466507675"><ele>39.666666666666664</ele><time>2026-04-06T07:48:12.032Z</time></trkpt><trkpt lat="45.41301963452123" lon="11.195600659430545"><ele>40.33333333333333</ele><time>2026-04-06T07:48:13.032Z</time></trkpt><trkpt lat="45.41305480635762" lon="11.195358830435408"><ele>41.0</ele><time>2026-04-06T07:48:14.032Z</time></trkpt><trkpt lat="45.41308852444191" lon="11.195122928385134"><ele>41.0</ele><time>2026-04-06T07:48:15.032Z</time></trkpt><trkpt lat="45.41312312680931" lon="11.194886113746833"><ele>41.0</ele><time>2026-04-06T07:48:16.032Z</time></trkpt><trkpt lat="45.41315271223894" lon="11.194650849039565"><ele>41.0</ele><time>2026-04-06T07:48:17.032Z</time></trkpt><trkpt lat="45.413194469127376" lon="11.194415260077566"><ele>41.0</ele><time>2026-04-06T07:48:18.032Z</time></trkpt><trkpt lat="45.41322850731434" lon="11.194175308953279"><ele>41.0</ele><time>2026-04-06T07:48:19.032Z</time></trkpt><trkpt lat="45.41326408682064" lon="11.19393799365086"><ele>41.0</ele><time>2026-04-06T07:48:20.032Z</time></trkpt><trkpt lat="45.413298725139114" lon="11.193691323675475"><ele>41.0</ele><time>2026-04-06T07:48:21.032Z</time></trkpt><trkpt lat="45.413337150621786" lon="11.193440546442424"><ele>41.0</ele><time>2026-04-06T07:48:22.032Z</time></trkpt><trkpt lat="45.4133716663419" lon="11.193187102819525"><ele>41.0</ele><time>2026-04-06T07:48:23.032Z</time></trkpt><trkpt lat="45.41341031893619" lon="11.192936205970435"><ele>41.33333333333333</ele><time>2026-04-06T07:48:24.032Z</time></trkpt><trkpt lat="45.41344698268226" lon="11.192687492049597"><ele>41.666666666666664</ele><time>2026-04-06T07:48:25.032Z</time></trkpt><trkpt lat="45.41348691936992" lon="11.192439170339025"><ele>42.0</ele><time>2026-04-06T07:48:26.032Z</time></trkpt><trkpt lat="45.41352702913226" lon="11.192186572659194"><ele>42.333333333333336</ele><time>2026-04-06T07:48:27.032Z</time></trkpt><trkpt lat="45.4135639070934" lon="11.191932612217462"><ele>42.66666666666667</ele><time>2026-04-06T07:48:28.032Z</time></trkpt><trkpt lat="45.41359661551766" lon="11.191670614169968"><ele>43.0</ele><time>2026-04-06T07:48:29.032Z</time></trkpt><trkpt lat="45.413635071593376" lon="11.19140697913591"><ele>44.0</ele><time>2026-04-06T07:48:30.032Z</time></trkpt><trkpt lat="45.41367753957496" lon="11.191142883134411"><ele>45.0</ele><time>2026-04-06T07:48:31.032Z</time></trkpt><trkpt lat="45.41371781842142" lon="11.1908794244525"><ele>46.0</ele><time>2026-04-06T07:48:32.032Z</time></trkpt><trkpt lat="45.4137586190127" lon="11.190620125738375"><ele>46.0</ele><time>2026-04-06T07:48:33.032Z</time></trkpt><trkpt lat="45.41379425239911" lon="11.190359380986028"><ele>46.0</ele><time>2026-04-06T07:48:34.032Z</time></trkpt><trkpt lat="45.413833208638245" lon="11.190103162136895"><ele>46.0</ele><time>2026-04-06T07:48:35.032Z</time></trkpt><trkpt lat="45.41387282872335" lon="11.18984859262773"><ele>46.333333333333336</ele><time>2026-04-06T07:48:36.032Z</time></trkpt><trkpt lat="45.4139084885" lon="11.189591056016285"><ele>46.666666666666664</ele><time>2026-04-06T07:48:37.032Z</time></trkpt><trkpt lat="45.41394440201928" lon="11.189341960196066"><ele>47.0</ele><time>2026-04-06T07:48:38.032Z</time></trkpt><trkpt lat="45.41397304850459" lon="11.18910777216624"><ele>47.0</ele><time>2026-04-06T07:48:39.032Z</time></trkpt><trkpt lat="45.414008861531535" lon="11.188892940394776"><ele>47.0</ele><time>2026-04-06T07:48:40.032Z</time></trkpt><trkpt lat="45.41403937884402" lon="11.188678470622785"><ele>47.0</ele><time>2026-04-06T07:48:41.032Z</time></trkpt><trkpt lat="45.41406855961982" lon="11.188471963670555"><ele>47.0</ele><time>2026-04-06T07:48:42.032Z</time></trkpt><trkpt lat="45.41409661566592" lon="11.188282284111104"><ele>47.0</ele><time>2026-04-06T07:48:43.032Z</time></trkpt><trkpt lat="45.41412882274145" lon="11.18811226636848"><ele>47.0</ele><time>2026-04-06T07:48:44.032Z</time></trkpt><trkpt lat="45.4141492264906" lon="11.187927762908558"><ele>47.0</ele><time>2026-04-06T07:48:45.032Z</time></trkpt><trkpt lat="45.41416975849574" lon="11.187757121803937"><ele>46.75</ele><time>2026-04-06T07:48:46.032Z</time></trkpt><trkpt lat="45.414195693672625" lon="11.187588375384816"><ele>46.5</ele><time>2026-04-06T07:48:47.032Z</time></trkpt><trkpt lat="45.4142314557031" lon="11.187416116369262"><ele>46.25</ele><time>2026-04-06T07:48:48.032Z</time></trkpt><trkpt lat="45.41426263426818" lon="11.187243094513356"><ele>46.0</ele><time>2026-04-06T07:48:49.032Z</time></trkpt><trkpt lat="45.41428089988527" lon="11.187060512404932"><ele>46.4</ele><time>2026-04-06T07:48:50.032Z</time></trkpt><trkpt lat="45.414303211103984" lon="11.186891133511795"><ele>46.8</ele><time>2026-04-06T07:48:51.032Z</time></trkpt><trkpt lat="45.41432817522436" lon="11.186729976312296"><ele>47.199999999999996</ele><time>2026-04-06T07:48:52.032Z</time></trkpt><trkpt lat="45.41434720446301" lon="11.1865791173241"><ele>47.599999999999994</ele><time>2026-04-06T07:48:53.032Z</time></trkpt><trkpt lat="45.41437060230465" lon="11.18643713515703"><ele>48.0</ele><time>2026-04-06T07:48:54.032Z</time></trkpt><trkpt lat="45.414394667087606" lon="11.1863035836526"><ele>48.0</ele><time>2026-04-06T07:48:55.032Z</time></trkpt><trkpt lat="45.41441363949783" lon="11.186161326771211"><ele>48.0</ele><time>2026-04-06T07:48:56.032Z</time></trkpt><trkpt lat="45.41443225474787" lon="11.186024746308126"><ele>48.0</ele><time>2026-04-06T07:48:57.032Z</time></trkpt><trkpt lat="45.41445609452748" lon="11.185902678780451"><ele>48.0</ele><time>2026-04-06T07:48:58.032Z</time></trkpt><trkpt lat="45.41447579550513" lon="11.185780513812269"><ele>48.0</ele><time>2026-04-06T07:48:59.032Z</time></trkpt><trkpt lat="45.41449645055631" lon="11.18564708580827"><ele>48.4</ele><time>2026-04-06T07:49:00.032Z</time></trkpt><trkpt lat="45.4145154338868" lon="11.185508261891403"><ele>48.8</ele><time>2026-04-06T07:49:01.032Z</time></trkpt><trkpt lat="45.41453904771481" lon="11.185360708868663"><ele>49.2</ele><time>2026-04-06T07:49:02.032Z</time></trkpt><trkpt lat="45.41456390622927" lon="11.185217873804692"><ele>49.6</ele><time>2026-04-06T07:49:03.032Z</time></trkpt><trkpt lat="45.41458557870171" lon="11.185092427189824"><ele>50.0</ele><time>2026-04-06T07:49:04.032Z</time></trkpt><trkpt lat="45.41460406000544" lon="11.184981489497623"><ele>50.0</ele><time>2026-04-06T07:49:05.032Z</time></trkpt><trkpt lat="45.41461662972404" lon="11.184878842063815"><ele>50.0</ele><time>2026-04-06T07:49:06.032Z</time></trkpt><trkpt lat="45.41462730054769" lon="11.18478897629153"><ele>50.0</ele><time>2026-04-06T07:49:07.032Z</time></trkpt><trkpt lat="45.41464565321136" lon="11.184621880661583"><ele>50.0</ele><time>2026-04-06T07:49:09.032Z</time></trkpt><trkpt lat="45.41467157096423" lon="11.184474178529866"><ele>50.0</ele><time>2026-04-06T07:49:11.032Z</time></trkpt><trkpt lat="45.41469305210982" lon="11.184320787921502"><ele>49.8</ele><time>2026-04-06T07:49:13.032Z</time></trkpt><trkpt lat="45.41471504275855" lon="11.184169698864352"><ele>49.6</ele><time>2026-04-06T07:49:15.032Z</time></trkpt><trkpt lat="45.41472066444221" lon="11.184062168900493"><ele>49.400000000000006</ele><time>2026-04-06T07:49:18.032Z</time></trkpt><trkpt lat="45.414757059254846" lon="11.183968363242581"><ele>49.2</ele><time>2026-04-06T07:49:49.032Z</time></trkpt><trkpt lat="45.414779106435496" lon="11.18382130913502"><ele>49.0</ele><time>2026-04-06T07:49:51.032Z</time></trkpt><trkpt lat="45.4147993702284" lon="11.183682737909463"><ele>48.99999999999999</ele><time>2026-04-06T07:49:53.032Z</time></trkpt><trkpt lat="45.414771218327154" lon="11.18356634308749"><ele>49.0</ele><time>2026-04-06T07:49:54.032Z</time></trkpt><trkpt lat="45.414791368722916" lon="11.18345541009254"><ele>49.0</ele><time>2026-04-06T07:49:55.032Z</time></trkpt><trkpt lat="45.41480786292479" lon="11.18335122187771"><ele>49.0</ele><time>2026-04-06T07:49:56.032Z</time></trkpt><trkpt lat="45.41482133747294" lon="11.183257704507398"><ele>48.99999999999999</ele><time>2026-04-06T07:49:57.032Z</time></trkpt><trkpt lat="45.414877670055404" lon="11.183154617235333"><ele>49.0</ele><time>2026-04-06T07:49:58.032Z</time></trkpt><trkpt lat="45.4148958912004" lon="11.183031032461384"><ele>49.0</ele><time>2026-04-06T07:49:59.032Z</time></trkpt><trkpt lat="45.41491610399542" lon="11.1828933629013"><ele>49.0</ele><time>2026-04-06T07:50:00.032Z</time></trkpt><trkpt lat="45.414938514770135" lon="11.182737920530172"><ele>49.0</ele><time>2026-04-06T07:50:01.032Z</time></trkpt><trkpt lat="45.41496125564195" lon="11.1825840562347"><ele>49.0</ele><time>2026-04-06T07:50:02.032Z</time></trkpt><trkpt lat="45.41498250472961" lon="11.182440285387893"><ele>49.0</ele><time>2026-04-06T07:50:03.032Z</time></trkpt><trkpt lat="45.41500295125014" lon="11.182301944655539"><ele>49.0</ele><time>2026-04-06T07:50:04.032Z</time></trkpt><trkpt lat="45.41502359268567" lon="11.182162285124054"><ele>49.0</ele><time>2026-04-06T07:50:05.032Z</time></trkpt><trkpt lat="45.41504547826521" lon="11.18201205872015"><ele>49.0</ele><time>2026-04-06T07:50:06.032Z</time></trkpt><trkpt lat="45.41506822833509" lon="11.181855569968558"><ele>49.0</ele><time>2026-04-06T07:50:07.032Z</time></trkpt><trkpt lat="45.41509125299084" lon="11.181697192505455"><ele>49.0</ele><time>2026-04-06T07:50:08.032Z</time></trkpt><trkpt lat="45.41511490615149" lon="11.181535529512313"><ele>48.75</ele><time>2026-04-06T07:50:09.032Z</time></trkpt><trkpt lat="45.41513747129821" lon="11.181377643458319"><ele>48.5</ele><time>2026-04-06T07:50:10.032Z</time></trkpt><trkpt lat="45.415159326674846" lon="11.181224019613511"><ele>48.25</ele><time>2026-04-06T07:50:11.032Z</time></trkpt><trkpt lat="45.41518131331477" lon="11.181069473478361"><ele>48.0</ele><time>2026-04-06T07:50:12.032Z</time></trkpt><trkpt lat="45.415178771631346" lon="11.180900800958664"><ele>48.0</ele><time>2026-04-06T07:50:13.032Z</time></trkpt><trkpt lat="45.41520340204048" lon="11.180733933475851"><ele>48.0</ele><time>2026-04-06T07:50:14.032Z</time></trkpt><trkpt lat="45.415232404180706" lon="11.180568737150187"><ele>48.0</ele><time>2026-04-06T07:50:15.032Z</time></trkpt><trkpt lat="45.415280792146774" lon="11.180410966407383"><ele>48.0</ele><time>2026-04-06T07:50:16.032Z</time></trkpt><trkpt lat="45.41527310304136" lon="11.180192796523901"><ele>48.25</ele><time>2026-04-06T07:50:17.032Z</time></trkpt><trkpt lat="45.41529737340152" lon="11.180013620300679"><ele>48.5</ele><time>2026-04-06T07:50:18.032Z</time></trkpt><trkpt lat="45.415352336874314" lon="11.17986681669282"><ele>48.75</ele><time>2026-04-06T07:50:19.032Z</time></trkpt><trkpt lat="45.41537543836437" lon="11.179706751924543"><ele>49.0</ele><time>2026-04-06T07:50:20.032Z</time></trkpt><trkpt lat="45.41539627486332" lon="11.179561441793624"><ele>48.99999999999999</ele><time>2026-04-06T07:50:21.032Z</time></trkpt><trkpt lat="45.415415410575235" lon="11.179426746794773"><ele>49.0</ele><time>2026-04-06T07:50:22.032Z</time></trkpt><trkpt lat="45.415432820546904" lon="11.179304199053503"><ele>49.0</ele><time>2026-04-06T07:50:23.032Z</time></trkpt><trkpt lat="45.415449824143714" lon="11.179184511850831"><ele>49.0</ele><time>2026-04-06T07:50:24.032Z</time></trkpt><trkpt lat="45.41546535054659" lon="11.17907522240435"><ele>48.99999999999999</ele><time>2026-04-06T07:50:25.032Z</time></trkpt><trkpt lat="45.415485194398144" lon="11.17893554288075"><ele>49.0</ele><time>2026-04-06T07:50:27.032Z</time></trkpt><trkpt lat="45.41549899630139" lon="11.178838392069096"><ele>49.166666666666664</ele><time>2026-04-06T07:50:29.033Z</time></trkpt><trkpt lat="45.41550565581969" lon="11.178694002478565"><ele>49.33333333333333</ele><time>2026-04-06T07:50:31.033Z</time></trkpt><trkpt lat="45.415541807976034" lon="11.178559785241582"><ele>49.5</ele><time>2026-04-06T07:50:33.033Z</time></trkpt><trkpt lat="45.415578395092886" lon="11.17847967661012"><ele>49.66666666666667</ele><time>2026-04-06T07:50:36.033Z</time></trkpt><trkpt lat="45.41563302943399" lon="11.178433950937901"><ele>49.833333333333336</ele><time>2026-04-06T07:50:39.033Z</time></trkpt><trkpt lat="45.41570455204161" lon="11.178395783194915"><ele>50.0</ele><time>2026-04-06T07:50:43.033Z</time></trkpt><trkpt lat="45.41576757237353" lon="11.178388029473465"><ele>50.0</ele><time>2026-04-06T07:50:47.033Z</time></trkpt><trkpt lat="45.415641566175616" lon="11.178355208685645"><ele>50.0</ele><time>2026-04-06T07:50:52.033Z</time></trkpt><trkpt lat="45.41575201310219" lon="11.17839941002352"><ele>50.0</ele><time>2026-04-06T07:50:55.033Z</time></trkpt><trkpt lat="45.41563299691804" lon="11.17841094326806"><ele>50.0</ele><time>2026-04-06T07:51:08.033Z</time></trkpt><trkpt lat="45.4156469445437" lon="11.178315185820326"><ele>50.0</ele><time>2026-04-06T07:51:24.033Z</time></trkpt><trkpt lat="45.41570022023362" lon="11.178261598146705"><ele>50.00000000000001</ele><time>2026-04-06T07:51:32.033Z</time></trkpt><trkpt lat="45.41563345593575" lon="11.178298213831017"><ele>50.0</ele><time>2026-04-06T07:52:01.033Z</time></trkpt><trkpt lat="45.415574153191095" lon="11.178370707200424"><ele>50.0</ele><time>2026-04-06T07:52:08.033Z</time></trkpt><trkpt lat="45.41567898832854" lon="11.178319758388408"><ele>50.0</ele><time>2026-04-06T07:52:11.033Z</time></trkpt><trkpt lat="45.41572467605544" lon="11.17825586766951"><ele>50.00000000000001</ele><time>2026-04-06T07:53:41.034Z</time></trkpt><trkpt lat="45.415719544903006" lon="11.178163052508395"><ele>50.0</ele><time>2026-04-06T07:54:54.035Z</time></trkpt><trkpt lat="45.41571136367249" lon="11.178073314687127"><ele>50.0</ele><time>2026-04-06T07:54:58.035Z</time></trkpt><trkpt lat="45.41569332614404" lon="11.177973296653514"><ele>50.0</ele><time>2026-04-06T07:55:00.035Z</time></trkpt><trkpt lat="45.415655019322614" lon="11.177866309191499"><ele>50.0</ele><time>2026-04-06T07:55:02.035Z</time></trkpt><trkpt lat="45.41566301921548" lon="11.177687556404175"><ele>50.0</ele><time>2026-04-06T07:55:04.035Z</time></trkpt><trkpt lat="45.41568324253636" lon="11.177549295060242"><ele>50.0</ele><time>2026-04-06T07:55:05.035Z</time></trkpt><trkpt lat="45.41571111519606" lon="11.1773977381116"><ele>49.66666666666667</ele><time>2026-04-06T07:55:06.035Z</time></trkpt><trkpt lat="45.41575894222255" lon="11.17717245949476"><ele>49.33333333333333</ele><time>2026-04-06T07:55:07.035Z</time></trkpt><trkpt lat="45.415805940006194" lon="11.17687344123556"><ele>49.0</ele><time>2026-04-06T07:55:08.035Z</time></trkpt><trkpt lat="45.415845225067905" lon="11.176623494367206"><ele>49.0</ele><time>2026-04-06T07:55:09.035Z</time></trkpt><trkpt lat="45.41587909725939" lon="11.176407986321792"><ele>49.0</ele><time>2026-04-06T07:55:10.035Z</time></trkpt><trkpt lat="45.41590983899639" lon="11.176212395345562"><ele>49.0</ele><time>2026-04-06T07:55:11.035Z</time></trkpt><trkpt lat="45.41593586986425" lon="11.176046776884688"><ele>49.0</ele><time>2026-04-06T07:55:12.035Z</time></trkpt><trkpt lat="45.415963736547226" lon="11.175869478159806"><ele>48.800000000000004</ele><time>2026-04-06T07:55:13.035Z</time></trkpt><trkpt lat="45.41599347778258" lon="11.175682449261064"><ele>48.6</ele><time>2026-04-06T07:55:14.035Z</time></trkpt><trkpt lat="45.416017397431276" lon="11.175530508323012"><ele>48.4</ele><time>2026-04-06T07:55:15.035Z</time></trkpt><trkpt lat="45.41602811261138" lon="11.17539469914222"><ele>48.2</ele><time>2026-04-06T07:55:16.035Z</time></trkpt><trkpt lat="45.416046160814034" lon="11.175283822306652"><ele>48.0</ele><time>2026-04-06T07:55:17.035Z</time></trkpt><trkpt lat="45.416064582744866" lon="11.175175712711459"><ele>48.0</ele><time>2026-04-06T07:55:18.035Z</time></trkpt><trkpt lat="45.416081402265334" lon="11.1750753799058"><ele>48.0</ele><time>2026-04-06T07:55:19.035Z</time></trkpt><trkpt lat="45.41609872775425" lon="11.174981851016812"><ele>48.0</ele><time>2026-04-06T07:55:20.035Z</time></trkpt><trkpt lat="45.41611670356702" lon="11.174891674327547"><ele>48.0</ele><time>2026-04-06T07:55:21.035Z</time></trkpt><trkpt lat="45.41612893406667" lon="11.174748507940716"><ele>48.0</ele><time>2026-04-06T07:55:23.035Z</time></trkpt><trkpt lat="45.41614969456742" lon="11.17465392116405"><ele>48.0</ele><time>2026-04-06T07:55:25.035Z</time></trkpt><trkpt lat="45.41617356139556" lon="11.174527002823938"><ele>48.0</ele><time>2026-04-06T07:55:45.035Z</time></trkpt><trkpt lat="45.41618442605981" lon="11.17435545191018"><ele>48.0</ele><time>2026-04-06T07:55:46.035Z</time></trkpt><trkpt lat="45.41620486559292" lon="11.174061429192383"><ele>48.0</ele><time>2026-04-06T07:55:47.035Z</time></trkpt><trkpt lat="45.416219976437965" lon="11.17375525285992"><ele>48.0</ele><time>2026-04-06T07:55:48.035Z</time></trkpt><trkpt lat="45.4162961492652" lon="11.173748502565605"><ele>48.0</ele><time>2026-04-06T07:55:49.035Z</time></trkpt><trkpt lat="45.41633354649753" lon="11.173475898401737"><ele>48.0</ele><time>2026-04-06T07:55:50.035Z</time></trkpt><trkpt lat="45.41638049632792" lon="11.173126134042816"><ele>48.0</ele><time>2026-04-06T07:55:51.035Z</time></trkpt><trkpt lat="45.41643206652766" lon="11.172739966250731"><ele>48.0</ele><time>2026-04-06T07:55:52.035Z</time></trkpt><trkpt lat="45.41647397792878" lon="11.17240916591203"><ele>48.0</ele><time>2026-04-06T07:55:53.035Z</time></trkpt><trkpt lat="45.41651237978099" lon="11.172113843607208"><ele>48.0</ele><time>2026-04-06T07:55:54.035Z</time></trkpt><trkpt lat="45.41654925588387" lon="11.171851530743995"><ele>48.0</ele><time>2026-04-06T07:55:55.035Z</time></trkpt><trkpt lat="45.4165861778849" lon="11.17160527497382"><ele>48.0</ele><time>2026-04-06T07:55:56.035Z</time></trkpt><trkpt lat="45.41661712261606" lon="11.171365158987921"><ele>48.0</ele><time>2026-04-06T07:55:57.035Z</time></trkpt><trkpt lat="45.416648288752874" lon="11.171136428718858"><ele>48.0</ele><time>2026-04-06T07:55:58.035Z</time></trkpt><trkpt lat="45.416683187759155" lon="11.170903064693242"><ele>47.75</ele><time>2026-04-06T07:55:59.035Z</time></trkpt><trkpt lat="45.41671363082069" lon="11.170689237818879"><ele>47.5</ele><time>2026-04-06T07:56:00.035Z</time></trkpt><trkpt lat="45.416745444269914" lon="11.170491334622879"><ele>47.25</ele><time>2026-04-06T07:56:01.035Z</time></trkpt><trkpt lat="45.41676615515456" lon="11.170292127705562"><ele>47.0</ele><time>2026-04-06T07:56:02.035Z</time></trkpt><trkpt lat="45.41678871399317" lon="11.170104679109693"><ele>47.0</ele><time>2026-04-06T07:56:03.035Z</time></trkpt><trkpt lat="45.41680370214186" lon="11.169924713447141"><ele>47.0</ele><time>2026-04-06T07:56:04.035Z</time></trkpt><trkpt lat="45.41681613388657" lon="11.16975035770477"><ele>47.0</ele><time>2026-04-06T07:56:05.035Z</time></trkpt><trkpt lat="45.416830073074294" lon="11.16957370421449"><ele>47.0</ele><time>2026-04-06T07:56:06.035Z</time></trkpt><trkpt lat="45.41683432993461" lon="11.1693864403797"><ele>46.75</ele><time>2026-04-06T07:56:07.035Z</time></trkpt><trkpt lat="45.416847117754415" lon="11.169184499662625"><ele>46.5</ele><time>2026-04-06T07:56:08.035Z</time></trkpt><trkpt lat="45.416856006455085" lon="11.168995173374354"><ele>46.25</ele><time>2026-04-06T07:56:09.035Z</time></trkpt><trkpt lat="45.41686829265999" lon="11.16881114890619"><ele>46.0</ele><time>2026-04-06T07:56:10.035Z</time></trkpt><trkpt lat="45.416897722755905" lon="11.168633566980152"><ele>45.75</ele><time>2026-04-06T07:56:11.035Z</time></trkpt><trkpt lat="45.416889721498954" lon="11.16848967224729"><ele>45.5</ele><time>2026-04-06T07:56:12.035Z</time></trkpt><trkpt lat="45.41690508697956" lon="11.168313660908781"><ele>45.25</ele><time>2026-04-06T07:56:13.035Z</time></trkpt><trkpt lat="45.41691654287172" lon="11.168132109184633"><ele>45.0</ele><time>2026-04-06T07:56:14.035Z</time></trkpt><trkpt lat="45.41692821532458" lon="11.167975660771168"><ele>45.0</ele><time>2026-04-06T07:56:15.035Z</time></trkpt><trkpt lat="45.41693434934859" lon="11.167835740864449"><ele>45.0</ele><time>2026-04-06T07:56:16.035Z</time></trkpt><trkpt lat="45.41694626401637" lon="11.167697273958794"><ele>45.0</ele><time>2026-04-06T07:56:17.035Z</time></trkpt><trkpt lat="45.41696335789674" lon="11.16756468245123"><ele>45.0</ele><time>2026-04-06T07:56:18.035Z</time></trkpt><trkpt lat="45.41697269642081" lon="11.167407988410268"><ele>45.0</ele><time>2026-04-06T07:56:19.035Z</time></trkpt><trkpt lat="45.41697870188963" lon="11.167220921390042"><ele>45.333333333333336</ele><time>2026-04-06T07:56:20.035Z</time></trkpt><trkpt lat="45.41698281118102" lon="11.167016131664223"><ele>45.66666666666667</ele><time>2026-04-06T07:56:21.035Z</time></trkpt><trkpt lat="45.417004420351994" lon="11.166759888861153"><ele>46.0</ele><time>2026-04-06T07:56:22.035Z</time></trkpt><trkpt lat="45.41703629394812" lon="11.166477496288207"><ele>46.0</ele><time>2026-04-06T07:56:23.035Z</time></trkpt><trkpt lat="45.41706283379361" lon="11.166158913245921"><ele>46.0</ele><time>2026-04-06T07:56:24.035Z</time></trkpt><trkpt lat="45.41712112956958" lon="11.165829422176625"><ele>46.0</ele><time>2026-04-06T07:56:25.035Z</time></trkpt><trkpt lat="45.41714649588885" lon="11.165516838257442"><ele>46.0</ele><time>2026-04-06T07:56:26.035Z</time></trkpt><trkpt lat="45.41716835099222" lon="11.165236736219919"><ele>46.0</ele><time>2026-04-06T07:56:27.035Z</time></trkpt><trkpt lat="45.417175588506076" lon="11.164953174235814"><ele>46.333333333333336</ele><time>2026-04-06T07:56:28.035Z</time></trkpt><trkpt lat="45.41720338667879" lon="11.16466165793985"><ele>46.666666666666664</ele><time>2026-04-06T07:56:29.035Z</time></trkpt><trkpt lat="45.41722397849874" lon="11.164368903859755"><ele>47.0</ele><time>2026-04-06T07:56:30.035Z</time></trkpt><trkpt lat="45.417238601106504" lon="11.164082235759457"><ele>47.33333333333333</ele><time>2026-04-06T07:56:31.035Z</time></trkpt><trkpt lat="45.417260196573096" lon="11.163829408677607"><ele>47.666666666666664</ele><time>2026-04-06T07:56:32.035Z</time></trkpt><trkpt lat="45.417278827059725" lon="11.163572232571713"><ele>48.0</ele><time>2026-04-06T07:56:33.035Z</time></trkpt><trkpt lat="45.41729752495861" lon="11.16330652613047"><ele>48.33333333333333</ele><time>2026-04-06T07:56:34.035Z</time></trkpt><trkpt lat="45.417320299121975" lon="11.163039094028273"><ele>48.666666666666664</ele><time>2026-04-06T07:56:35.035Z</time></trkpt><trkpt lat="45.41734258851136" lon="11.162768190213168"><ele>49.0</ele><time>2026-04-06T07:56:36.035Z</time></trkpt><trkpt lat="45.41736142256394" lon="11.162492064176798"><ele>49.33333333333333</ele><time>2026-04-06T07:56:37.035Z</time></trkpt><trkpt lat="45.41738231985375" lon="11.162203794738227"><ele>49.66666666666667</ele><time>2026-04-06T07:56:38.035Z</time></trkpt><trkpt lat="45.417401389985955" lon="11.161908102145736"><ele>50.0</ele><time>2026-04-06T07:56:39.035Z</time></trkpt><trkpt lat="45.41741639086233" lon="11.161639996236262"><ele>49.66666666666667</ele><time>2026-04-06T07:56:40.035Z</time></trkpt><trkpt lat="45.417433873760054" lon="11.161383255628303"><ele>49.33333333333333</ele><time>2026-04-06T07:56:41.035Z</time></trkpt><trkpt lat="45.41745331238448" lon="11.161118253978989"><ele>49.0</ele><time>2026-04-06T07:56:42.035Z</time></trkpt><trkpt lat="45.41747296943522" lon="11.160848816438715"><ele>48.33333333333333</ele><time>2026-04-06T07:56:43.035Z</time></trkpt><trkpt lat="45.41749291479449" lon="11.160577486137297"><ele>47.666666666666664</ele><time>2026-04-06T07:56:44.035Z</time></trkpt><trkpt lat="45.41751478156402" lon="11.160307355515378"><ele>47.0</ele><time>2026-04-06T07:56:45.035Z</time></trkpt><trkpt lat="45.41753151180437" lon="11.160031331630616"><ele>46.666666666666664</ele><time>2026-04-06T07:56:46.035Z</time></trkpt><trkpt lat="45.417553594823616" lon="11.15975462843548"><ele>46.333333333333336</ele><time>2026-04-06T07:56:47.036Z</time></trkpt><trkpt lat="45.417577146166394" lon="11.15947827077846"><ele>46.0</ele><time>2026-04-06T07:56:48.036Z</time></trkpt><trkpt lat="45.41759614434369" lon="11.159201031532486"><ele>46.333333333333336</ele><time>2026-04-06T07:56:49.036Z</time></trkpt><trkpt lat="45.4176142591429" lon="11.158926960851812"><ele>46.666666666666664</ele><time>2026-04-06T07:56:50.036Z</time></trkpt><trkpt lat="45.41763047909485" lon="11.158648374839915"><ele>47.0</ele><time>2026-04-06T07:56:51.036Z</time></trkpt><trkpt lat="45.41765306801575" lon="11.158370458807699"><ele>47.0</ele><time>2026-04-06T07:56:52.036Z</time></trkpt><trkpt lat="45.41767835370925" lon="11.158092080392123"><ele>47.0</ele><time>2026-04-06T07:56:53.036Z</time></trkpt><trkpt lat="45.41769891173484" lon="11.157815371323935"><ele>47.0</ele><time>2026-04-06T07:56:54.036Z</time></trkpt><trkpt lat="45.41772049637124" lon="11.157542157151406"><ele>47.0</ele><time>2026-04-06T07:56:55.036Z</time></trkpt><trkpt lat="45.41774276512407" lon="11.15727011705716"><ele>47.0</ele><time>2026-04-06T07:56:56.036Z</time></trkpt><trkpt lat="45.41776247914147" lon="11.157001842663908"><ele>47.0</ele><time>2026-04-06T07:56:57.036Z</time></trkpt><trkpt lat="45.417778616708006" lon="11.15673445488205"><ele>46.666666666666664</ele><time>2026-04-06T07:56:58.036Z</time></trkpt><trkpt lat="45.41779760398705" lon="11.156468887359077"><ele>46.333333333333336</ele><time>2026-04-06T07:56:59.036Z</time></trkpt><trkpt lat="45.41781412554325" lon="11.156205583256517"><ele>46.0</ele><time>2026-04-06T07:57:00.036Z</time></trkpt><trkpt lat="45.417830948580395" lon="11.15593689649029"><ele>45.66666666666667</ele><time>2026-04-06T07:57:01.036Z</time></trkpt><trkpt lat="45.41784876897007" lon="11.155670896689353"><ele>45.333333333333336</ele><time>2026-04-06T07:57:02.036Z</time></trkpt><trkpt lat="45.417867034782624" lon="11.155402060621878"><ele>45.0</ele><time>2026-04-06T07:57:03.036Z</time></trkpt><trkpt lat="45.41788493353302" lon="11.155131104595998"><ele>45.0</ele><time>2026-04-06T07:57:04.036Z</time></trkpt><trkpt lat="45.41790763990568" lon="11.15486649960954"><ele>45.0</ele><time>2026-04-06T07:57:05.036Z</time></trkpt><trkpt lat="45.41792744557319" lon="11.154598475649173"><ele>45.0</ele><time>2026-04-06T07:57:06.036Z</time></trkpt><trkpt lat="45.417945840963654" lon="11.154330344983032"><ele>45.0</ele><time>2026-04-06T07:57:07.036Z</time></trkpt><trkpt lat="45.41796223349158" lon="11.15405799535393"><ele>45.0</ele><time>2026-04-06T07:57:08.036Z</time></trkpt><trkpt lat="45.41798284720846" lon="11.153804153517456"><ele>45.0</ele><time>2026-04-06T07:57:09.036Z</time></trkpt><trkpt lat="45.4180025168969" lon="11.15356789116089"><ele>46.0</ele><time>2026-04-06T07:57:10.036Z</time></trkpt><trkpt lat="45.418022330663405" lon="11.153339893682999"><ele>47.0</ele><time>2026-04-06T07:57:11.036Z</time></trkpt><trkpt lat="45.41804004947052" lon="11.15312363172968"><ele>48.0</ele><time>2026-04-06T07:57:12.036Z</time></trkpt><trkpt lat="45.41806225129148" lon="11.15291525021813"><ele>48.0</ele><time>2026-04-06T07:57:13.036Z</time></trkpt><trkpt lat="45.418073917462856" lon="11.152708585746081"><ele>48.0</ele><time>2026-04-06T07:57:14.036Z</time></trkpt><trkpt lat="45.418086964307165" lon="11.152511515325058"><ele>48.0</ele><time>2026-04-06T07:57:15.036Z</time></trkpt><trkpt lat="45.418101435806165" lon="11.152318022582046"><ele>48.0</ele><time>2026-04-06T07:57:16.036Z</time></trkpt><trkpt lat="45.41811818633867" lon="11.152142510411172"><ele>47.5</ele><time>2026-04-06T07:57:17.036Z</time></trkpt><trkpt lat="45.41812865777132" lon="11.1519685276217"><ele>47.0</ele><time>2026-04-06T07:57:18.036Z</time></trkpt><trkpt lat="45.41814591492003" lon="11.151795115250351"><ele>46.5</ele><time>2026-04-06T07:57:19.036Z</time></trkpt><trkpt lat="45.41816093031609" lon="11.151604786997906"><ele>46.0</ele><time>2026-04-06T07:57:20.036Z</time></trkpt><trkpt lat="45.418173228200764" lon="11.151413841084718"><ele>45.8</ele><time>2026-04-06T07:57:21.036Z</time></trkpt><trkpt lat="45.41818151186747" lon="11.151237980245288"><ele>45.599999999999994</ele><time>2026-04-06T07:57:22.036Z</time></trkpt><trkpt lat="45.418194439504" lon="11.151082419052475"><ele>45.4</ele><time>2026-04-06T07:57:23.036Z</time></trkpt><trkpt lat="45.418201341051955" lon="11.15094663620657"><ele>45.2</ele><time>2026-04-06T07:57:24.036Z</time></trkpt><trkpt lat="45.41820770924207" lon="11.150815647075554"><ele>45.0</ele><time>2026-04-06T07:57:25.036Z</time></trkpt><trkpt lat="45.41821767614941" lon="11.150685756531944"><ele>45.4</ele><time>2026-04-06T07:57:26.036Z</time></trkpt><trkpt lat="45.41823200321069" lon="11.150565282186038"><ele>45.8</ele><time>2026-04-06T07:57:27.036Z</time></trkpt><trkpt lat="45.418254573895986" lon="11.150450038785436"><ele>46.2</ele><time>2026-04-06T07:57:28.036Z</time></trkpt><trkpt lat="45.41829871787404" lon="11.15033228510244"><ele>46.6</ele><time>2026-04-06T07:57:29.036Z</time></trkpt><trkpt lat="45.418354844084895" lon="11.150198122335334"><ele>47.0</ele><time>2026-04-06T07:57:30.036Z</time></trkpt><trkpt lat="45.418373898400525" lon="11.150027773971917"><ele>47.0</ele><time>2026-04-06T07:57:31.036Z</time></trkpt><trkpt lat="45.41834258842385" lon="11.149828410876479"><ele>47.0</ele><time>2026-04-06T07:57:32.036Z</time></trkpt><trkpt lat="45.41830377250953" lon="11.149608339565077"><ele>47.0</ele><time>2026-04-06T07:57:33.036Z</time></trkpt><trkpt lat="45.41830487269043" lon="11.149427960406584"><ele>47.0</ele><time>2026-04-06T07:57:34.036Z</time></trkpt><trkpt lat="45.418309902135526" lon="11.14923142208584"><ele>47.0</ele><time>2026-04-06T07:57:35.036Z</time></trkpt><trkpt lat="45.41833073656765" lon="11.149054964366492"><ele>47.0</ele><time>2026-04-06T07:57:36.036Z</time></trkpt><trkpt lat="45.41834864998497" lon="11.148873882655195"><ele>47.0</ele><time>2026-04-06T07:57:37.036Z</time></trkpt><trkpt lat="45.41835937043403" lon="11.148695702231564"><ele>47.0</ele><time>2026-04-06T07:57:38.036Z</time></trkpt><trkpt lat="45.4183708901597" lon="11.148514079921732"><ele>46.75</ele><time>2026-04-06T07:57:39.036Z</time></trkpt><trkpt lat="45.41838123157602" lon="11.148336078475431"><ele>46.5</ele><time>2026-04-06T07:57:40.036Z</time></trkpt><trkpt lat="45.41839639781811" lon="11.148147711316293"><ele>46.25</ele><time>2026-04-06T07:57:41.036Z</time></trkpt><trkpt lat="45.418409590843915" lon="11.147954584396254"><ele>46.0</ele><time>2026-04-06T07:57:42.036Z</time></trkpt><trkpt lat="45.418422773096125" lon="11.14775509008388"><ele>45.75</ele><time>2026-04-06T07:57:43.036Z</time></trkpt><trkpt lat="45.41844064498631" lon="11.147559472399804"><ele>45.5</ele><time>2026-04-06T07:57:44.036Z</time></trkpt><trkpt lat="45.418454646842406" lon="11.147364075708879"><ele>45.25</ele><time>2026-04-06T07:57:45.036Z</time></trkpt><trkpt lat="45.4184681727411" lon="11.147171295636449"><ele>45.0</ele><time>2026-04-06T07:57:46.036Z</time></trkpt><trkpt lat="45.41848335942255" lon="11.146966896399725"><ele>44.75</ele><time>2026-04-06T07:57:47.036Z</time></trkpt><trkpt lat="45.41849857187746" lon="11.14677920792526"><ele>44.5</ele><time>2026-04-06T07:57:48.036Z</time></trkpt><trkpt lat="45.418511200347425" lon="11.146595799658744"><ele>44.25</ele><time>2026-04-06T07:57:49.036Z</time></trkpt><trkpt lat="45.41852476357471" lon="11.146422607071232"><ele>44.0</ele><time>2026-04-06T07:57:50.036Z</time></trkpt><trkpt lat="45.41853992889972" lon="11.146261052640305"><ele>43.83333333333333</ele><time>2026-04-06T07:57:51.036Z</time></trkpt><trkpt lat="45.41855280505771" lon="11.146120042195745"><ele>43.666666666666664</ele><time>2026-04-06T07:57:52.036Z</time></trkpt><trkpt lat="45.418563897713035" lon="11.146001429438309"><ele>43.5</ele><time>2026-04-06T07:57:53.036Z</time></trkpt><trkpt lat="45.41857697639177" lon="11.145900318332934"><ele>43.333333333333336</ele><time>2026-04-06T07:57:54.036Z</time></trkpt><trkpt lat="45.41859727346773" lon="11.145815030016124"><ele>43.16666666666667</ele><time>2026-04-06T07:57:55.036Z</time></trkpt><trkpt lat="45.41864100380343" lon="11.145740711892111"><ele>43.0</ele><time>2026-04-06T07:57:56.036Z</time></trkpt><trkpt lat="45.41870647392048" lon="11.14565763452889"><ele>43.0</ele><time>2026-04-06T07:57:57.036Z</time></trkpt><trkpt lat="45.418768660767036" lon="11.145554101734824"><ele>43.0</ele><time>2026-04-06T07:57:58.036Z</time></trkpt><trkpt lat="45.418809268063924" lon="11.145422572952889"><ele>43.0</ele><time>2026-04-06T07:57:59.036Z</time></trkpt><trkpt lat="45.418809930941954" lon="11.145285631046743"><ele>43.0</ele><time>2026-04-06T07:58:00.036Z</time></trkpt><trkpt lat="45.418778508047964" lon="11.145164181157018"><ele>43.0</ele><time>2026-04-06T07:58:01.036Z</time></trkpt><trkpt lat="45.41872589028232" lon="11.14506857178294"><ele>43.0</ele><time>2026-04-06T07:58:02.036Z</time></trkpt><trkpt lat="45.41865960111558" lon="11.145009550236004"><ele>43.0</ele><time>2026-04-06T07:58:03.036Z</time></trkpt><trkpt lat="45.41858877417431" lon="11.144986284643048"><ele>43.0</ele><time>2026-04-06T07:58:04.036Z</time></trkpt><trkpt lat="45.41850687257281" lon="11.144987263828723"><ele>43.0</ele><time>2026-04-06T07:58:05.036Z</time></trkpt><trkpt lat="45.41842549288888" lon="11.145013594969905"><ele>43.0</ele><time>2026-04-06T07:58:06.036Z</time></trkpt><trkpt lat="45.41835175185434" lon="11.145048876482722"><ele>43.0</ele><time>2026-04-06T07:58:07.036Z</time></trkpt><trkpt lat="45.41827441887467" lon="11.145056802669446"><ele>43.0</ele><time>2026-04-06T07:58:08.036Z</time></trkpt><trkpt lat="45.41818486639996" lon="11.14503295742129"><ele>43.0</ele><time>2026-04-06T07:58:09.036Z</time></trkpt><trkpt lat="45.41809980657983" lon="11.144994734032776"><ele>43.0</ele><time>2026-04-06T07:58:10.036Z</time></trkpt><trkpt lat="45.41803569600173" lon="11.144936389504192"><ele>43.0</ele><time>2026-04-06T07:58:11.036Z</time></trkpt><trkpt lat="45.4179744966824" lon="11.144878078336646"><ele>43.0</ele><time>2026-04-06T07:58:12.036Z</time></trkpt><trkpt lat="45.41791257957456" lon="11.144828762503433"><ele>43.0</ele><time>2026-04-06T07:58:13.036Z</time></trkpt><trkpt lat="45.417853866762314" lon="11.144792900792659"><ele>43.0</ele><time>2026-04-06T07:58:14.036Z</time></trkpt><trkpt lat="45.41778910256627" lon="11.144764088005811"><ele>43.0</ele><time>2026-04-06T07:58:15.036Z</time></trkpt><trkpt lat="45.41772352625824" lon="11.14473478966093"><ele>43.0</ele><time>2026-04-06T07:58:16.036Z</time></trkpt><trkpt lat="45.41762201672194" lon="11.144713501026434"><ele>43.0</ele><time>2026-04-06T07:58:17.036Z</time></trkpt><trkpt lat="45.41751879628438" lon="11.144694675340672"><ele>43.0</ele><time>2026-04-06T07:58:18.036Z</time></trkpt><trkpt lat="45.41739697501813" lon="11.144686762940717"><ele>43.0</ele><time>2026-04-06T07:58:19.036Z</time></trkpt><trkpt lat="45.41723343540789" lon="11.144666550078338"><ele>43.0</ele><time>2026-04-06T07:58:20.036Z</time></trkpt><trkpt lat="45.41704549127705" lon="11.144642076645468"><ele>43.0</ele><time>2026-04-06T07:58:21.036Z</time></trkpt><trkpt lat="45.41687094016734" lon="11.144619111644463"><ele>42.333333333333336</ele><time>2026-04-06T07:58:22.036Z</time></trkpt><trkpt lat="45.416682788325296" lon="11.144596707101785"><ele>41.666666666666664</ele><time>2026-04-06T07:58:23.036Z</time></trkpt><trkpt lat="45.416466147041035" lon="11.144550029982579"><ele>41.0</ele><time>2026-04-06T07:58:24.036Z</time></trkpt><trkpt lat="45.41622784086988" lon="11.144485173568967"><ele>41.0</ele><time>2026-04-06T07:58:25.036Z</time></trkpt><trkpt lat="45.41595533131421" lon="11.144401926844063"><ele>41.0</ele><time>2026-04-06T07:58:26.036Z</time></trkpt><trkpt lat="45.41570058647785" lon="11.144327363640857"><ele>41.0</ele><time>2026-04-06T07:58:27.036Z</time></trkpt><trkpt lat="45.415487560510506" lon="11.144253081491593"><ele>41.0</ele><time>2026-04-06T07:58:28.036Z</time></trkpt><trkpt lat="45.41526344289505" lon="11.144195183525893"><ele>41.0</ele><time>2026-04-06T07:58:29.036Z</time></trkpt><trkpt lat="45.41506013459964" lon="11.144132411553784"><ele>41.0</ele><time>2026-04-06T07:58:30.036Z</time></trkpt><trkpt lat="45.41486605341907" lon="11.144075124878713"><ele>41.0</ele><time>2026-04-06T07:58:31.036Z</time></trkpt><trkpt lat="45.41468416822039" lon="11.144028539308831"><ele>41.0</ele><time>2026-04-06T07:58:32.036Z</time></trkpt><trkpt lat="45.414501178178256" lon="11.143988905096467"><ele>41.0</ele><time>2026-04-06T07:58:33.036Z</time></trkpt><trkpt lat="45.4143225064346" lon="11.143964125615959"><ele>41.0</ele><time>2026-04-06T07:58:34.036Z</time></trkpt><trkpt lat="45.414171436444754" lon="11.143963476413592"><ele>41.0</ele><time>2026-04-06T07:58:35.036Z</time></trkpt><trkpt lat="45.414013909110466" lon="11.143967254887608"><ele>41.0</ele><time>2026-04-06T07:58:36.036Z</time></trkpt><trkpt lat="45.41385812191881" lon="11.143988460744374"><ele>41.0</ele><time>2026-04-06T07:58:37.036Z</time></trkpt><trkpt lat="45.413713782314325" lon="11.143999425309248"><ele>41.0</ele><time>2026-04-06T07:58:38.036Z</time></trkpt><trkpt lat="45.41357144493708" lon="11.14402164720628"><ele>41.0</ele><time>2026-04-06T07:58:39.036Z</time></trkpt><trkpt lat="45.41338284052084" lon="11.144053356082658"><ele>40.33333333333333</ele><time>2026-04-06T07:58:40.036Z</time></trkpt><trkpt lat="45.41319135681416" lon="11.14408742438628"><ele>39.666666666666664</ele><time>2026-04-06T07:58:41.036Z</time></trkpt><trkpt lat="45.41301314048499" lon="11.144091249395103"><ele>39.0</ele><time>2026-04-06T07:58:42.036Z</time></trkpt><trkpt lat="45.41283313503801" lon="11.14408649935924"><ele>38.666666666666664</ele><time>2026-04-06T07:58:43.036Z</time></trkpt><trkpt lat="45.41266913022095" lon="11.144060612324372"><ele>38.33333333333333</ele><time>2026-04-06T07:58:44.036Z</time></trkpt><trkpt lat="45.412499295849685" lon="11.14403962656695"><ele>38.0</ele><time>2026-04-06T07:58:45.036Z</time></trkpt><trkpt lat="45.412326793177535" lon="11.144009476368048"><ele>37.666666666666664</ele><time>2026-04-06T07:58:46.036Z</time></trkpt><trkpt lat="45.41215193796739" lon="11.143964001873272"><ele>37.333333333333336</ele><time>2026-04-06T07:58:47.036Z</time></trkpt><trkpt lat="45.41196535645954" lon="11.143902044059756"><ele>37.0</ele><time>2026-04-06T07:58:48.036Z</time></trkpt><trkpt lat="45.411774025284494" lon="11.14383743675043"><ele>37.0</ele><time>2026-04-06T07:58:49.036Z</time></trkpt><trkpt lat="45.411566435800495" lon="11.14376647945132"><ele>37.0</ele><time>2026-04-06T07:58:50.036Z</time></trkpt><trkpt lat="45.41133549163017" lon="11.143688159099014"><ele>36.0</ele><time>2026-04-06T07:58:51.036Z</time></trkpt><trkpt lat="45.41108700727917" lon="11.143601508009715"><ele>35.0</ele><time>2026-04-06T07:58:52.036Z</time></trkpt><trkpt lat="45.41083051425218" lon="11.143507965411692"><ele>35.0</ele><time>2026-04-06T07:58:53.036Z</time></trkpt><trkpt lat="45.41057814774876" lon="11.1434186015545"><ele>35.0</ele><time>2026-04-06T07:58:54.036Z</time></trkpt><trkpt lat="45.41033599898362" lon="11.143340770093058"><ele>35.0</ele><time>2026-04-06T07:58:55.036Z</time></trkpt><trkpt lat="45.4101073361661" lon="11.143282238511421"><ele>35.0</ele><time>2026-04-06T07:58:56.036Z</time></trkpt><trkpt lat="45.40986593718366" lon="11.143225031771541"><ele>35.0</ele><time>2026-04-06T07:58:57.036Z</time></trkpt><trkpt lat="45.409616695309204" lon="11.14320798934486"><ele>35.0</ele><time>2026-04-06T07:58:58.036Z</time></trkpt><trkpt lat="45.40936612754551" lon="11.143215811485884"><ele>34.33333333333333</ele><time>2026-04-06T07:58:59.036Z</time></trkpt><trkpt lat="45.409143372379994" lon="11.143243829564446"><ele>33.666666666666664</ele><time>2026-04-06T07:59:00.036Z</time></trkpt><trkpt lat="45.40894203359706" lon="11.14329224321855"><ele>33.0</ele><time>2026-04-06T07:59:01.036Z</time></trkpt><trkpt lat="45.40876083681694" lon="11.143361206186364"><ele>33.0</ele><time>2026-04-06T07:59:02.036Z</time></trkpt><trkpt lat="45.40861533417101" lon="11.143430881546895"><ele>33.0</ele><time>2026-04-06T07:59:03.036Z</time></trkpt><trkpt lat="45.408486237905215" lon="11.143498172352036"><ele>33.0</ele><time>2026-04-06T07:59:04.036Z</time></trkpt><trkpt lat="45.408377652100235" lon="11.143555313188754"><ele>33.0</ele><time>2026-04-06T07:59:05.036Z</time></trkpt><trkpt lat="45.40828106287223" lon="11.14359182039273"><ele>33.0</ele><time>2026-04-06T07:59:07.036Z</time></trkpt><trkpt lat="45.40822542912907" lon="11.14354854625604"><ele>33.0</ele><time>2026-04-06T07:59:10.036Z</time></trkpt><trkpt lat="45.40816160468907" lon="11.143490140174537"><ele>33.0</ele><time>2026-04-06T07:59:15.036Z</time></trkpt><trkpt lat="45.40811704082982" lon="11.143417355125548"><ele>33.0</ele><time>2026-04-06T07:59:16.036Z</time></trkpt><trkpt lat="45.40808037264026" lon="11.143313239481602"><ele>33.0</ele><time>2026-04-06T07:59:17.036Z</time></trkpt><trkpt lat="45.40807438290842" lon="11.143205048351096"><ele>33.0</ele><time>2026-04-06T07:59:18.036Z</time></trkpt><trkpt lat="45.40807210643117" lon="11.143107897293724"><ele>33.0</ele><time>2026-04-06T07:59:19.036Z</time></trkpt><trkpt lat="45.40805463751993" lon="11.142997576097182"><ele>33.5</ele><time>2026-04-06T07:59:20.036Z</time></trkpt><trkpt lat="45.408118878770026" lon="11.14282263474028"><ele>34.0</ele><time>2026-04-06T07:59:21.036Z</time></trkpt><trkpt lat="45.40816999984186" lon="11.142604092924456"><ele>34.5</ele><time>2026-04-06T07:59:22.036Z</time></trkpt><trkpt lat="45.4082196299105" lon="11.142406577846565"><ele>35.0</ele><time>2026-04-06T07:59:23.036Z</time></trkpt><trkpt lat="45.408284535261856" lon="11.142232542794765"><ele>35.666666666666664</ele><time>2026-04-06T07:59:24.036Z</time></trkpt><trkpt lat="45.40834242872515" lon="11.142023340104888"><ele>36.333333333333336</ele><time>2026-04-06T07:59:25.036Z</time></trkpt><trkpt lat="45.408412765040524" lon="11.14175437792321"><ele>37.0</ele><time>2026-04-06T07:59:26.036Z</time></trkpt><trkpt lat="45.40849159404231" lon="11.141446195594481"><ele>37.5</ele><time>2026-04-06T07:59:27.036Z</time></trkpt><trkpt lat="45.40858295927672" lon="11.14111146779711"><ele>38.0</ele><time>2026-04-06T07:59:28.036Z</time></trkpt><trkpt lat="45.40865103255208" lon="11.140818925572262"><ele>38.0</ele><time>2026-04-06T07:59:29.036Z</time></trkpt><trkpt lat="45.40873354971581" lon="11.140553702210536"><ele>38.0</ele><time>2026-04-06T07:59:30.036Z</time></trkpt><trkpt lat="45.40882062688102" lon="11.140293595485101"><ele>38.0</ele><time>2026-04-06T07:59:31.036Z</time></trkpt><trkpt lat="45.40893175890698" lon="11.140006562526361"><ele>37.5</ele><time>2026-04-06T07:59:32.036Z</time></trkpt><trkpt lat="45.40905572892757" lon="11.1397073257625"><ele>37.0</ele><time>2026-04-06T07:59:33.036Z</time></trkpt><trkpt lat="45.409170027524375" lon="11.139431318694704"><ele>37.0</ele><time>2026-04-06T07:59:34.036Z</time></trkpt><trkpt lat="45.40928102934888" lon="11.139170014605666"><ele>37.0</ele><time>2026-04-06T07:59:35.036Z</time></trkpt><trkpt lat="45.40939676521467" lon="11.138914865635465"><ele>37.0</ele><time>2026-04-06T07:59:36.036Z</time></trkpt><trkpt lat="45.409508391253496" lon="11.138664811998282"><ele>36.333333333333336</ele><time>2026-04-06T07:59:37.036Z</time></trkpt><trkpt lat="45.40961231284351" lon="11.138417440606855"><ele>35.666666666666664</ele><time>2026-04-06T07:59:38.036Z</time></trkpt><trkpt lat="45.409716692833065" lon="11.138157253329872"><ele>35.0</ele><time>2026-04-06T07:59:39.036Z</time></trkpt><trkpt lat="45.409819514259496" lon="11.137886281940336"><ele>35.0</ele><time>2026-04-06T07:59:40.036Z</time></trkpt><trkpt lat="45.40992708072504" lon="11.137591072627217"><ele>35.0</ele><time>2026-04-06T07:59:41.036Z</time></trkpt><trkpt lat="45.41002759843549" lon="11.137257562260462"><ele>34.5</ele><time>2026-04-06T07:59:42.036Z</time></trkpt><trkpt lat="45.41014854981868" lon="11.136918457628932"><ele>34.0</ele><time>2026-04-06T07:59:43.036Z</time></trkpt><trkpt lat="45.41026278308271" lon="11.136548895475995"><ele>35.0</ele><time>2026-04-06T07:59:44.036Z</time></trkpt><trkpt lat="45.41037466441306" lon="11.136185006586985"><ele>36.0</ele><time>2026-04-06T07:59:45.036Z</time></trkpt><trkpt lat="45.41047786049914" lon="11.135849372594786"><ele>36.5</ele><time>2026-04-06T07:59:46.036Z</time></trkpt><trkpt lat="45.4105720684195" lon="11.13554297180642"><ele>37.0</ele><time>2026-04-06T07:59:47.036Z</time></trkpt><trkpt lat="45.4106613412293" lon="11.135256201733327"><ele>37.0</ele><time>2026-04-06T07:59:48.036Z</time></trkpt><trkpt lat="45.41074256248155" lon="11.134997441822097"><ele>37.0</ele><time>2026-04-06T07:59:49.036Z</time></trkpt><trkpt lat="45.41081934390722" lon="11.134752826752967"><ele>37.0</ele><time>2026-04-06T07:59:50.036Z</time></trkpt><trkpt lat="45.41087871109627" lon="11.134506574400014"><ele>37.66666666666667</ele><time>2026-04-06T07:59:51.036Z</time></trkpt><trkpt lat="45.41097757615553" lon="11.134259081706022"><ele>38.333333333333336</ele><time>2026-04-06T07:59:52.036Z</time></trkpt><trkpt lat="45.41105073868697" lon="11.133982086539199"><ele>39.0</ele><time>2026-04-06T07:59:53.036Z</time></trkpt><trkpt lat="45.41113341973285" lon="11.13373824822274"><ele>39.0</ele><time>2026-04-06T07:59:54.036Z</time></trkpt><trkpt lat="45.41120385140874" lon="11.13351141498919"><ele>39.0</ele><time>2026-04-06T07:59:55.036Z</time></trkpt><trkpt lat="45.41127349019486" lon="11.133282191111311"><ele>39.0</ele><time>2026-04-06T07:59:56.036Z</time></trkpt><trkpt lat="45.41136221435209" lon="11.133045148271746"><ele>39.0</ele><time>2026-04-06T07:59:57.036Z</time></trkpt><trkpt lat="45.41142081923815" lon="11.132784803828944"><ele>39.0</ele><time>2026-04-06T07:59:58.036Z</time></trkpt><trkpt lat="45.41147992988264" lon="11.13256538260968"><ele>39.0</ele><time>2026-04-06T07:59:59.036Z</time></trkpt><trkpt lat="45.41152684294099" lon="11.132375160780246"><ele>39.0</ele><time>2026-04-06T08:00:00.036Z</time></trkpt><trkpt lat="45.41156993992048" lon="11.132208669342063"><ele>39.0</ele><time>2026-04-06T08:00:01.036Z</time></trkpt><trkpt lat="45.41161440140823" lon="11.13206975578989"><ele>39.0</ele><time>2026-04-06T08:00:02.036Z</time></trkpt><trkpt lat="45.41163940304274" lon="11.1319540798221"><ele>39.0</ele><time>2026-04-06T08:00:03.036Z</time></trkpt><trkpt lat="45.41168230161343" lon="11.13185855448725"><ele>39.0</ele><time>2026-04-06T08:00:04.036Z</time></trkpt><trkpt lat="45.41172866564413" lon="11.131773122114986"><ele>39.0</ele><time>2026-04-06T08:00:05.036Z</time></trkpt><trkpt lat="45.4117805934446" lon="11.131701915195036"><ele>39.0</ele><time>2026-04-06T08:00:06.036Z</time></trkpt><trkpt lat="45.41183510307801" lon="11.131642318735555"><ele>39.0</ele><time>2026-04-06T08:00:07.036Z</time></trkpt><trkpt lat="45.41190000640577" lon="11.131577696620115"><ele>39.0</ele><time>2026-04-06T08:00:08.036Z</time></trkpt><trkpt lat="45.41197160557814" lon="11.131508659357372"><ele>39.0</ele><time>2026-04-06T08:00:09.036Z</time></trkpt><trkpt lat="45.41204464770688" lon="11.131437756068392"><ele>39.0</ele><time>2026-04-06T08:00:10.036Z</time></trkpt><trkpt lat="45.41210119547209" lon="11.131340467474043"><ele>39.0</ele><time>2026-04-06T08:00:11.036Z</time></trkpt><trkpt lat="45.41213725061576" lon="11.131223777888504"><ele>39.0</ele><time>2026-04-06T08:00:12.036Z</time></trkpt><trkpt lat="45.412148973718836" lon="11.131084530959308"><ele>39.0</ele><time>2026-04-06T08:00:13.036Z</time></trkpt><trkpt lat="45.412125545170355" lon="11.130942688307929"><ele>39.0</ele><time>2026-04-06T08:00:14.036Z</time></trkpt><trkpt lat="45.41206983247655" lon="11.130815892516187"><ele>39.0</ele><time>2026-04-06T08:00:15.036Z</time></trkpt><trkpt lat="45.41203019368513" lon="11.130666830269247"><ele>39.0</ele><time>2026-04-06T08:00:16.036Z</time></trkpt><trkpt lat="45.41199288495003" lon="11.130537413925039"><ele>39.0</ele><time>2026-04-06T08:00:17.036Z</time></trkpt><trkpt lat="45.41195708142163" lon="11.130422264110589"><ele>39.0</ele><time>2026-04-06T08:00:18.036Z</time></trkpt><trkpt lat="45.41212441151791" lon="11.13016508824114"><ele>39.0</ele><time>2026-04-06T08:00:19.036Z</time></trkpt><trkpt lat="45.41219550088787" lon="11.12995098628476"><ele>39.0</ele><time>2026-04-06T08:00:20.036Z</time></trkpt><trkpt lat="45.41227920218675" lon="11.129695098930723"><ele>39.0</ele><time>2026-04-06T08:00:21.036Z</time></trkpt><trkpt lat="45.412363888660195" lon="11.129413939708725"><ele>39.0</ele><time>2026-04-06T08:00:22.036Z</time></trkpt><trkpt lat="45.41244096567767" lon="11.12914514066851"><ele>39.0</ele><time>2026-04-06T08:00:23.036Z</time></trkpt><trkpt lat="45.4125280213067" lon="11.128862051439656"><ele>39.0</ele><time>2026-04-06T08:00:24.036Z</time></trkpt><trkpt lat="45.4126207148306" lon="11.128544110885874"><ele>39.5</ele><time>2026-04-06T08:00:25.036Z</time></trkpt><trkpt lat="45.41272417675588" lon="11.128201717358193"><ele>40.0</ele><time>2026-04-06T08:00:26.036Z</time></trkpt><trkpt lat="45.41284385303451" lon="11.127842014478217"><ele>40.0</ele><time>2026-04-06T08:00:27.036Z</time></trkpt><trkpt lat="45.41296757107535" lon="11.127469375102043"><ele>40.0</ele><time>2026-04-06T08:00:28.036Z</time></trkpt><trkpt lat="45.41308869488147" lon="11.127064564408117"><ele>40.0</ele><time>2026-04-06T08:00:29.036Z</time></trkpt><trkpt lat="45.41321957220195" lon="11.126636289618089"><ele>40.0</ele><time>2026-04-06T08:00:30.036Z</time></trkpt><trkpt lat="45.413357636030085" lon="11.126197417288227"><ele>39.5</ele><time>2026-04-06T08:00:31.036Z</time></trkpt><trkpt lat="45.41348050738142" lon="11.125796844805343"><ele>39.0</ele><time>2026-04-06T08:00:32.036Z</time></trkpt><trkpt lat="45.41359045599906" lon="11.125439437244921"><ele>39.0</ele><time>2026-04-06T08:00:33.036Z</time></trkpt><trkpt lat="45.41369474492467" lon="11.125114186867933"><ele>39.0</ele><time>2026-04-06T08:00:34.036Z</time></trkpt><trkpt lat="45.41379022512332" lon="11.124806918311583"><ele>40.0</ele><time>2026-04-06T08:00:35.036Z</time></trkpt><trkpt lat="45.41388893529396" lon="11.12451857082126"><ele>41.0</ele><time>2026-04-06T08:00:36.036Z</time></trkpt><trkpt lat="45.41398166375475" lon="11.124222991988876"><ele>41.0</ele><time>2026-04-06T08:00:37.036Z</time></trkpt><trkpt lat="45.414075347561415" lon="11.123920614486172"><ele>41.0</ele><time>2026-04-06T08:00:38.036Z</time></trkpt><trkpt lat="45.41417228789469" lon="11.123591983894089"><ele>41.0</ele><time>2026-04-06T08:00:39.036Z</time></trkpt><trkpt lat="45.41428213322168" lon="11.123258852805046"><ele>41.0</ele><time>2026-04-06T08:00:40.036Z</time></trkpt><trkpt lat="45.41439876777129" lon="11.12290498744815"><ele>40.5</ele><time>2026-04-06T08:00:41.036Z</time></trkpt><trkpt lat="45.41451802932772" lon="11.122536380384439"><ele>40.0</ele><time>2026-04-06T08:00:42.036Z</time></trkpt><trkpt lat="45.41463306297281" lon="11.122177707808273"><ele>40.0</ele><time>2026-04-06T08:00:43.036Z</time></trkpt><trkpt lat="45.41472868292563" lon="11.121868655317611"><ele>40.0</ele><time>2026-04-06T08:00:44.036Z</time></trkpt><trkpt lat="45.41481168706073" lon="11.121601567871084"><ele>40.0</ele><time>2026-04-06T08:00:45.036Z</time></trkpt><trkpt lat="45.414892516811726" lon="11.121365728802981"><ele>40.66666666666667</ele><time>2026-04-06T08:00:46.036Z</time></trkpt><trkpt lat="45.41496494742762" lon="11.12113937911502"><ele>41.333333333333336</ele><time>2026-04-06T08:00:47.036Z</time></trkpt><trkpt lat="45.415024202771484" lon="11.120932797600608"><ele>42.0</ele><time>2026-04-06T08:00:48.036Z</time></trkpt><trkpt lat="45.41508526133174" lon="11.12075709105943"><ele>41.8</ele><time>2026-04-06T08:00:49.036Z</time></trkpt><trkpt lat="45.41514453366644" lon="11.120616274148949"><ele>41.6</ele><time>2026-04-06T08:00:50.036Z</time></trkpt><trkpt lat="45.41520610439637" lon="11.120473867020173"><ele>41.4</ele><time>2026-04-06T08:00:51.036Z</time></trkpt><trkpt lat="45.41526583869266" lon="11.120364875965565"><ele>41.199999999999996</ele><time>2026-04-06T08:00:52.036Z</time></trkpt><trkpt lat="45.415332685523005" lon="11.120284895754654"><ele>41.0</ele><time>2026-04-06T08:00:53.036Z</time></trkpt><trkpt lat="45.41541095227632" lon="11.120221722865614"><ele>41.199999999999996</ele><time>2026-04-06T08:00:54.036Z</time></trkpt><trkpt lat="45.41550748716097" lon="11.120176878251797"><ele>41.4</ele><time>2026-04-06T08:00:55.036Z</time></trkpt><trkpt lat="45.415597972916096" lon="11.120080106432018"><ele>41.6</ele><time>2026-04-06T08:00:56.036Z</time></trkpt><trkpt lat="45.41564586252983" lon="11.119932540497393"><ele>41.8</ele><time>2026-04-06T08:00:57.036Z</time></trkpt><trkpt lat="45.41564965210473" lon="11.119763184560316"><ele>42.0</ele><time>2026-04-06T08:00:58.036Z</time></trkpt><trkpt lat="45.41561467216409" lon="11.119609541281399"><ele>42.25</ele><time>2026-04-06T08:00:59.037Z</time></trkpt><trkpt lat="45.415567119180686" lon="11.119447718089733"><ele>42.5</ele><time>2026-04-06T08:01:00.037Z</time></trkpt><trkpt lat="45.41558234821405" lon="11.119259702329478"><ele>42.75</ele><time>2026-04-06T08:01:01.037Z</time></trkpt><trkpt lat="45.41565195344517" lon="11.11903000736898"><ele>43.0</ele><time>2026-04-06T08:01:02.037Z</time></trkpt><trkpt lat="45.415730529085685" lon="11.1187751117908"><ele>43.0</ele><time>2026-04-06T08:01:03.037Z</time></trkpt><trkpt lat="45.415818118629616" lon="11.118500324189794"><ele>43.0</ele><time>2026-04-06T08:01:04.037Z</time></trkpt><trkpt lat="45.41591478391188" lon="11.118203689248473"><ele>43.0</ele><time>2026-04-06T08:01:05.037Z</time></trkpt><trkpt lat="45.416011806063175" lon="11.117928401901386"><ele>42.5</ele><time>2026-04-06T08:01:06.037Z</time></trkpt><trkpt lat="45.41610569007336" lon="11.117655163625443"><ele>42.0</ele><time>2026-04-06T08:01:07.037Z</time></trkpt><trkpt lat="45.416209086404706" lon="11.117351153500255"><ele>41.5</ele><time>2026-04-06T08:01:08.037Z</time></trkpt><trkpt lat="45.416320233333536" lon="11.11701562210391"><ele>41.0</ele><time>2026-04-06T08:01:09.037Z</time></trkpt><trkpt lat="45.41643340870378" lon="11.116671931514766"><ele>42.0</ele><time>2026-04-06T08:01:10.037Z</time></trkpt><trkpt lat="45.416532556420634" lon="11.116364175849654"><ele>43.0</ele><time>2026-04-06T08:01:11.037Z</time></trkpt><trkpt lat="45.41662421559365" lon="11.116080743822431"><ele>43.0</ele><time>2026-04-06T08:01:12.037Z</time></trkpt><trkpt lat="45.41672051870325" lon="11.115803773825162"><ele>43.0</ele><time>2026-04-06T08:01:13.037Z</time></trkpt><trkpt lat="45.416810472331385" lon="11.11554742575457"><ele>43.0</ele><time>2026-04-06T08:01:14.037Z</time></trkpt><trkpt lat="45.41688738811752" lon="11.115301409803466"><ele>42.66666666666667</ele><time>2026-04-06T08:01:15.037Z</time></trkpt><trkpt lat="45.41695271717704" lon="11.115035766044722"><ele>42.333333333333336</ele><time>2026-04-06T08:01:16.037Z</time></trkpt><trkpt lat="45.417003307897424" lon="11.114747627467946"><ele>42.0</ele><time>2026-04-06T08:01:17.037Z</time></trkpt><trkpt lat="45.41702623908163" lon="11.114430384391872"><ele>42.0</ele><time>2026-04-06T08:01:18.037Z</time></trkpt><trkpt lat="45.41702773992768" lon="11.114104653099506"><ele>42.0</ele><time>2026-04-06T08:01:19.037Z</time></trkpt><trkpt lat="45.41700596047723" lon="11.113760892405466"><ele>42.0</ele><time>2026-04-06T08:01:20.037Z</time></trkpt><trkpt lat="45.416963582481756" lon="11.113409025712928"><ele>42.0</ele><time>2026-04-06T08:01:21.037Z</time></trkpt><trkpt lat="45.41689004569283" lon="11.113043818233269"><ele>42.0</ele><time>2026-04-06T08:01:22.037Z</time></trkpt><trkpt lat="45.4167802327752" lon="11.11267627168188"><ele>42.0</ele><time>2026-04-06T08:01:23.037Z</time></trkpt><trkpt lat="45.416655634606215" lon="11.112321145228398"><ele>42.0</ele><time>2026-04-06T08:01:24.037Z</time></trkpt><trkpt lat="45.41651281172338" lon="11.111943001977394"><ele>42.0</ele><time>2026-04-06T08:01:25.037Z</time></trkpt><trkpt lat="45.41636310969213" lon="11.111540731518451"><ele>41.0</ele><time>2026-04-06T08:01:26.037Z</time></trkpt><trkpt lat="45.41623188306425" lon="11.11117773392663"><ele>40.0</ele><time>2026-04-06T08:01:27.037Z</time></trkpt><trkpt lat="45.416103966471816" lon="11.110834524464643"><ele>40.0</ele><time>2026-04-06T08:01:28.037Z</time></trkpt><trkpt lat="45.416014362298846" lon="11.110510326102474"><ele>40.0</ele><time>2026-04-06T08:01:29.037Z</time></trkpt><trkpt lat="45.415903849132604" lon="11.110200742983771"><ele>40.5</ele><time>2026-04-06T08:01:30.037Z</time></trkpt><trkpt lat="45.41579701981671" lon="11.10989524240645"><ele>41.0</ele><time>2026-04-06T08:01:31.037Z</time></trkpt><trkpt lat="45.415690438882265" lon="11.109586057443623"><ele>41.0</ele><time>2026-04-06T08:01:32.037Z</time></trkpt><trkpt lat="45.41560772376622" lon="11.109281709940534"><ele>41.0</ele><time>2026-04-06T08:01:33.037Z</time></trkpt><trkpt lat="45.415526799634875" lon="11.109003481724098"><ele>41.0</ele><time>2026-04-06T08:01:34.037Z</time></trkpt><trkpt lat="45.41545282788936" lon="11.108745399548352"><ele>41.0</ele><time>2026-04-06T08:01:35.037Z</time></trkpt><trkpt lat="45.41538857058864" lon="11.108520856833906"><ele>41.0</ele><time>2026-04-06T08:01:36.037Z</time></trkpt><trkpt lat="45.41532842659302" lon="11.108297832418035"><ele>41.0</ele><time>2026-04-06T08:01:37.037Z</time></trkpt><trkpt lat="45.415269292125515" lon="11.108077798307633"><ele>41.0</ele><time>2026-04-06T08:01:38.037Z</time></trkpt><trkpt lat="45.415190508697926" lon="11.107855970415336"><ele>41.0</ele><time>2026-04-06T08:01:39.037Z</time></trkpt><trkpt lat="45.41512690432978" lon="11.107628239549515"><ele>41.0</ele><time>2026-04-06T08:01:40.037Z</time></trkpt><trkpt lat="45.41506402496176" lon="11.10738961619516"><ele>42.0</ele><time>2026-04-06T08:01:41.037Z</time></trkpt><trkpt lat="45.41499560108361" lon="11.107135940105264"><ele>43.0</ele><time>2026-04-06T08:01:42.037Z</time></trkpt><trkpt lat="45.41492778045611" lon="11.10687823722221"><ele>44.0</ele><time>2026-04-06T08:01:43.037Z</time></trkpt><trkpt lat="45.4148632685983" lon="11.106623033689196"><ele>44.0</ele><time>2026-04-06T08:01:44.037Z</time></trkpt><trkpt lat="45.414805817537065" lon="11.106394924537373"><ele>44.0</ele><time>2026-04-06T08:01:45.037Z</time></trkpt><trkpt lat="45.414751068470025" lon="11.106188299440724"><ele>44.0</ele><time>2026-04-06T08:01:46.037Z</time></trkpt><trkpt lat="45.41470072804928" lon="11.105985339653518"><ele>44.0</ele><time>2026-04-06T08:01:47.037Z</time></trkpt><trkpt lat="45.41467175279605" lon="11.1058122561051"><ele>44.0</ele><time>2026-04-06T08:01:48.037Z</time></trkpt><trkpt lat="45.41462889179435" lon="11.105624499863403"><ele>44.0</ele><time>2026-04-06T08:01:49.037Z</time></trkpt><trkpt lat="45.414558922195354" lon="11.10541566885761"><ele>44.0</ele><time>2026-04-06T08:01:50.037Z</time></trkpt><trkpt lat="45.41446898981502" lon="11.105229972314222"><ele>44.0</ele><time>2026-04-06T08:01:51.037Z</time></trkpt><trkpt lat="45.41434245744897" lon="11.105044915923514"><ele>44.0</ele><time>2026-04-06T08:01:52.037Z</time></trkpt><trkpt lat="45.414201891992036" lon="11.10485314128444"><ele>44.0</ele><time>2026-04-06T08:01:53.037Z</time></trkpt><trkpt lat="45.41404411870547" lon="11.104676132985531"><ele>44.33333333333333</ele><time>2026-04-06T08:01:54.037Z</time></trkpt><trkpt lat="45.41391064954424" lon="11.10452572339384"><ele>44.666666666666664</ele><time>2026-04-06T08:01:55.037Z</time></trkpt><trkpt lat="45.413797639354634" lon="11.104360074182075"><ele>45.0</ele><time>2026-04-06T08:01:56.037Z</time></trkpt><trkpt lat="45.41370662756863" lon="11.104186124534879"><ele>43.0</ele><time>2026-04-06T08:01:57.037Z</time></trkpt><trkpt lat="45.41362780037316" lon="11.103996361589521"><ele>41.0</ele><time>2026-04-06T08:01:58.037Z</time></trkpt><trkpt lat="45.4135649648021" lon="11.103782038040405"><ele>39.0</ele><time>2026-04-06T08:01:59.037Z</time></trkpt><trkpt lat="45.413522848292054" lon="11.103553755070369"><ele>39.0</ele><time>2026-04-06T08:02:00.037Z</time></trkpt><trkpt lat="45.41350265365401" lon="11.103310575322634"><ele>39.0</ele><time>2026-04-06T08:02:01.037Z</time></trkpt><trkpt lat="45.41350667634557" lon="11.103063942887701"><ele>39.0</ele><time>2026-04-06T08:02:02.037Z</time></trkpt><trkpt lat="45.41352457356949" lon="11.102804325592633"><ele>39.666666666666664</ele><time>2026-04-06T08:02:03.037Z</time></trkpt><trkpt lat="45.41353587841684" lon="11.102541034657966"><ele>40.33333333333333</ele><time>2026-04-06T08:02:04.037Z</time></trkpt><trkpt lat="45.41352757479773" lon="11.102252030753597"><ele>41.0</ele><time>2026-04-06T08:02:05.037Z</time></trkpt><trkpt lat="45.41351811865293" lon="11.101981247981364"><ele>41.666666666666664</ele><time>2026-04-06T08:02:06.037Z</time></trkpt><trkpt lat="45.413494413343635" lon="11.101713555593365"><ele>42.333333333333336</ele><time>2026-04-06T08:02:07.037Z</time></trkpt><trkpt lat="45.41345314822866" lon="11.101420555536798"><ele>43.0</ele><time>2026-04-06T08:02:08.037Z</time></trkpt><trkpt lat="45.41338491592073" lon="11.101109482340572"><ele>43.0</ele><time>2026-04-06T08:02:09.037Z</time></trkpt><trkpt lat="45.4132939653823" lon="11.100801073563987"><ele>43.0</ele><time>2026-04-06T08:02:10.037Z</time></trkpt><trkpt lat="45.41320111645858" lon="11.100490697579431"><ele>43.5</ele><time>2026-04-06T08:02:11.037Z</time></trkpt><trkpt lat="45.41310841306509" lon="11.10014776638775"><ele>44.0</ele><time>2026-04-06T08:02:12.037Z</time></trkpt><trkpt lat="45.41300190934606" lon="11.0997885903215"><ele>43.5</ele><time>2026-04-06T08:02:13.037Z</time></trkpt><trkpt lat="45.41289211131412" lon="11.099424396205258"><ele>43.0</ele><time>2026-04-06T08:02:14.037Z</time></trkpt><trkpt lat="45.41278768199703" lon="11.09902837733097"><ele>43.0</ele><time>2026-04-06T08:02:15.037Z</time></trkpt><trkpt lat="45.412677593752285" lon="11.098615206912072"><ele>43.0</ele><time>2026-04-06T08:02:16.037Z</time></trkpt><trkpt lat="45.412566810883725" lon="11.098215413642528"><ele>44.0</ele><time>2026-04-06T08:02:17.037Z</time></trkpt><trkpt lat="45.41246945368806" lon="11.097848575226937"><ele>45.0</ele><time>2026-04-06T08:02:18.037Z</time></trkpt><trkpt lat="45.412375279396244" lon="11.097484772897587"><ele>45.5</ele><time>2026-04-06T08:02:19.037Z</time></trkpt><trkpt lat="45.41227259437768" lon="11.097105739400003"><ele>46.0</ele><time>2026-04-06T08:02:20.037Z</time></trkpt><trkpt lat="45.41217348543656" lon="11.096735918859006"><ele>44.5</ele><time>2026-04-06T08:02:21.037Z</time></trkpt><trkpt lat="45.41207649252696" lon="11.09638688408052"><ele>43.0</ele><time>2026-04-06T08:02:22.037Z</time></trkpt><trkpt lat="45.411965715062756" lon="11.096066333968412"><ele>43.0</ele><time>2026-04-06T08:02:23.037Z</time></trkpt><trkpt lat="45.4118325113092" lon="11.095766134152589"><ele>43.0</ele><time>2026-04-06T08:02:24.037Z</time></trkpt><trkpt lat="45.4116802982138" lon="11.095489239841227"><ele>42.5</ele><time>2026-04-06T08:02:25.037Z</time></trkpt><trkpt lat="45.4115012699273" lon="11.095247089507618"><ele>42.0</ele><time>2026-04-06T08:02:26.037Z</time></trkpt><trkpt lat="45.41130005049797" lon="11.095026313903706"><ele>42.5</ele><time>2026-04-06T08:02:27.037Z</time></trkpt><trkpt lat="45.411079720513754" lon="11.0948313649618"><ele>43.0</ele><time>2026-04-06T08:02:28.037Z</time></trkpt><trkpt lat="45.41084217233937" lon="11.094660775951104"><ele>43.0</ele><time>2026-04-06T08:02:29.037Z</time></trkpt><trkpt lat="45.41060421429939" lon="11.09451262286926"><ele>43.0</ele><time>2026-04-06T08:02:30.037Z</time></trkpt><trkpt lat="45.41040281018496" lon="11.09437671078596"><ele>42.66666666666667</ele><time>2026-04-06T08:02:31.037Z</time></trkpt><trkpt lat="45.41022727440114" lon="11.094232457534222"><ele>42.333333333333336</ele><time>2026-04-06T08:02:32.037Z</time></trkpt><trkpt lat="45.41006337741875" lon="11.094074353611623"><ele>42.0</ele><time>2026-04-06T08:02:33.037Z</time></trkpt><trkpt lat="45.40989199607103" lon="11.093883769481462"><ele>42.0</ele><time>2026-04-06T08:02:34.037Z</time></trkpt><trkpt lat="45.40971443941639" lon="11.093742653056998"><ele>42.0</ele><time>2026-04-06T08:02:35.037Z</time></trkpt><trkpt lat="45.409520866441305" lon="11.093602364944196"><ele>42.0</ele><time>2026-04-06T08:02:36.037Z</time></trkpt><trkpt lat="45.409313293294396" lon="11.093383957658082"><ele>42.5</ele><time>2026-04-06T08:02:37.037Z</time></trkpt><trkpt lat="45.40912035493444" lon="11.09302984603675"><ele>43.0</ele><time>2026-04-06T08:02:38.037Z</time></trkpt><trkpt lat="45.40901413290007" lon="11.092593899150547"><ele>43.0</ele><time>2026-04-06T08:02:39.037Z</time></trkpt><trkpt lat="45.40900462640606" lon="11.092154169418924"><ele>43.0</ele><time>2026-04-06T08:02:40.037Z</time></trkpt><trkpt lat="45.40908885767647" lon="11.091750771999925"><ele>44.5</ele><time>2026-04-06T08:02:41.037Z</time></trkpt><trkpt lat="45.40918417794154" lon="11.091434785630716"><ele>46.0</ele><time>2026-04-06T08:02:42.037Z</time></trkpt><trkpt lat="45.40921566870517" lon="11.091065535039899"><ele>46.5</ele><time>2026-04-06T08:02:43.037Z</time></trkpt><trkpt lat="45.40927940172694" lon="11.09069311598673"><ele>47.0</ele><time>2026-04-06T08:02:44.037Z</time></trkpt><trkpt lat="45.40936501182483" lon="11.090316233634217"><ele>47.0</ele><time>2026-04-06T08:02:45.037Z</time></trkpt><trkpt lat="45.409469821580714" lon="11.089932949050926"><ele>47.0</ele><time>2026-04-06T08:02:46.037Z</time></trkpt><trkpt lat="45.40958373708563" lon="11.089600097927192"><ele>45.5</ele><time>2026-04-06T08:02:47.037Z</time></trkpt><trkpt lat="45.40966327442706" lon="11.089283029214196"><ele>44.0</ele><time>2026-04-06T08:02:48.037Z</time></trkpt><trkpt lat="45.409721950865716" lon="11.088969188971836"><ele>44.0</ele><time>2026-04-06T08:02:49.037Z</time></trkpt><trkpt lat="45.409761447346085" lon="11.088637078676518"><ele>44.0</ele><time>2026-04-06T08:02:50.037Z</time></trkpt><trkpt lat="45.40976949641184" lon="11.088278394289892"><ele>44.5</ele><time>2026-04-06T08:02:51.037Z</time></trkpt><trkpt lat="45.40975196163657" lon="11.087903576827568"><ele>45.0</ele><time>2026-04-06T08:02:52.037Z</time></trkpt><trkpt lat="45.40970130583013" lon="11.08752626311762"><ele>44.5</ele><time>2026-04-06T08:02:53.037Z</time></trkpt><trkpt lat="45.40962396534954" lon="11.087149627357029"><ele>44.0</ele><time>2026-04-06T08:02:54.037Z</time></trkpt><trkpt lat="45.40951664652183" lon="11.086762031147778"><ele>44.0</ele><time>2026-04-06T08:02:55.037Z</time></trkpt><trkpt lat="45.409395435328506" lon="11.08636452040969"><ele>44.0</ele><time>2026-04-06T08:02:56.037Z</time></trkpt><trkpt lat="45.40928278592806" lon="11.08594966786329"><ele>44.0</ele><time>2026-04-06T08:02:57.037Z</time></trkpt><trkpt lat="45.40916595186918" lon="11.085525170168092"><ele>44.0</ele><time>2026-04-06T08:02:58.037Z</time></trkpt><trkpt lat="45.409045297689104" lon="11.085087111109042"><ele>44.0</ele><time>2026-04-06T08:02:59.037Z</time></trkpt><trkpt lat="45.40892307801523" lon="11.084634421578544"><ele>44.0</ele><time>2026-04-06T08:03:00.037Z</time></trkpt><trkpt lat="45.408801641331586" lon="11.084170827635589"><ele>43.5</ele><time>2026-04-06T08:03:01.037Z</time></trkpt><trkpt lat="45.408677483465716" lon="11.083691472471378"><ele>43.0</ele><time>2026-04-06T08:03:02.037Z</time></trkpt><trkpt lat="45.408548968575886" lon="11.08320696146344"><ele>43.0</ele><time>2026-04-06T08:03:03.037Z</time></trkpt><trkpt lat="45.40841974129503" lon="11.082718504724717"><ele>43.0</ele><time>2026-04-06T08:03:04.037Z</time></trkpt><trkpt lat="45.40829808424487" lon="11.082260636759267"><ele>43.0</ele><time>2026-04-06T08:03:05.038Z</time></trkpt><trkpt lat="45.40818209908115" lon="11.081806341868969"><ele>43.0</ele><time>2026-04-06T08:03:06.038Z</time></trkpt><trkpt lat="45.40806917479311" lon="11.081354869089848"><ele>41.5</ele><time>2026-04-06T08:03:07.038Z</time></trkpt><trkpt lat="45.40794822943213" lon="11.080895175078114"><ele>40.0</ele><time>2026-04-06T08:03:08.038Z</time></trkpt><trkpt lat="45.40782291629808" lon="11.080436194227154"><ele>40.0</ele><time>2026-04-06T08:03:09.038Z</time></trkpt><trkpt lat="45.40768974399852" lon="11.079974300506356"><ele>40.0</ele><time>2026-04-06T08:03:10.038Z</time></trkpt><trkpt lat="45.40755384141686" lon="11.07953812769832"><ele>40.0</ele><time>2026-04-06T08:03:11.038Z</time></trkpt><trkpt lat="45.40740149235392" lon="11.079124406398655"><ele>40.0</ele><time>2026-04-06T08:03:12.038Z</time></trkpt><trkpt lat="45.40724635794284" lon="11.07870932629679"><ele>40.5</ele><time>2026-04-06T08:03:13.038Z</time></trkpt><trkpt lat="45.40705648557184" lon="11.07827274622524"><ele>41.0</ele><time>2026-04-06T08:03:14.038Z</time></trkpt><trkpt lat="45.40686889852038" lon="11.07782896281461"><ele>41.0</ele><time>2026-04-06T08:03:15.038Z</time></trkpt><trkpt lat="45.40669531598736" lon="11.077409514650364"><ele>41.0</ele><time>2026-04-06T08:03:16.038Z</time></trkpt><trkpt lat="45.406539954440554" lon="11.07701926964578"><ele>41.0</ele><time>2026-04-06T08:03:17.038Z</time></trkpt><trkpt lat="45.40640240661728" lon="11.076642036186971"><ele>41.0</ele><time>2026-04-06T08:03:18.038Z</time></trkpt><trkpt lat="45.40626926035881" lon="11.07625260627755"><ele>41.0</ele><time>2026-04-06T08:03:19.038Z</time></trkpt><trkpt lat="45.40614657377972" lon="11.07584377701225"><ele>41.0</ele><time>2026-04-06T08:03:20.038Z</time></trkpt><trkpt lat="45.40601878086329" lon="11.075411272956146"><ele>41.0</ele><time>2026-04-06T08:03:21.038Z</time></trkpt><trkpt lat="45.40591201206332" lon="11.074997248046843"><ele>41.0</ele><time>2026-04-06T08:03:22.038Z</time></trkpt><trkpt lat="45.40582037195701" lon="11.074605097467256"><ele>41.0</ele><time>2026-04-06T08:03:23.038Z</time></trkpt><trkpt lat="45.40573332217246" lon="11.074189932655258"><ele>41.0</ele><time>2026-04-06T08:03:24.038Z</time></trkpt><trkpt lat="45.40564903961639" lon="11.073757908548385"><ele>41.0</ele><time>2026-04-06T08:03:25.038Z</time></trkpt><trkpt lat="45.40557939300033" lon="11.073295801116034"><ele>41.0</ele><time>2026-04-06T08:03:26.038Z</time></trkpt><trkpt lat="45.40552324304102" lon="11.072816694238412"><ele>41.5</ele><time>2026-04-06T08:03:27.038Z</time></trkpt><trkpt lat="45.40548229732053" lon="11.072327577449819"><ele>42.0</ele><time>2026-04-06T08:03:28.038Z</time></trkpt><trkpt lat="45.40544194866931" lon="11.071820935683487"><ele>42.5</ele><time>2026-04-06T08:03:29.038Z</time></trkpt><trkpt lat="45.405399517326444" lon="11.071306060943243"><ele>43.0</ele><time>2026-04-06T08:03:30.038Z</time></trkpt><trkpt lat="45.40535646506931" lon="11.07077553168688"><ele>42.0</ele><time>2026-04-06T08:03:31.038Z</time></trkpt><trkpt lat="45.405315235222766" lon="11.070265274813295"><ele>41.0</ele><time>2026-04-06T08:03:32.038Z</time></trkpt><trkpt lat="45.40527697881354" lon="11.069797726945746"><ele>40.5</ele><time>2026-04-06T08:03:33.038Z</time></trkpt><trkpt lat="45.40524361399024" lon="11.069377898424927"><ele>40.0</ele><time>2026-04-06T08:03:34.038Z</time></trkpt><trkpt lat="45.405209909931806" lon="11.068958775778398"><ele>39.5</ele><time>2026-04-06T08:03:35.038Z</time></trkpt><trkpt lat="45.40517061507444" lon="11.068532466756945"><ele>39.0</ele><time>2026-04-06T08:03:36.038Z</time></trkpt><trkpt lat="45.405133573964406" lon="11.068097742536663"><ele>38.5</ele><time>2026-04-06T08:03:37.038Z</time></trkpt><trkpt lat="45.405098100742315" lon="11.067664310440968"><ele>38.0</ele><time>2026-04-06T08:03:38.038Z</time></trkpt><trkpt lat="45.40506491605545" lon="11.067226990108917"><ele>38.0</ele><time>2026-04-06T08:03:39.038Z</time></trkpt><trkpt lat="45.40503325399658" lon="11.066798038585059"><ele>38.0</ele><time>2026-04-06T08:03:40.038Z</time></trkpt><trkpt lat="45.40499690328723" lon="11.066361461493546"><ele>37.5</ele><time>2026-04-06T08:03:41.038Z</time></trkpt><trkpt lat="45.404957578833944" lon="11.065915728224411"><ele>37.0</ele><time>2026-04-06T08:03:42.038Z</time></trkpt><trkpt lat="45.40492070331713" lon="11.065476351028822"><ele>36.5</ele><time>2026-04-06T08:03:43.038Z</time></trkpt><trkpt lat="45.40488094447507" lon="11.065032273196987"><ele>36.0</ele><time>2026-04-06T08:03:44.038Z</time></trkpt><trkpt lat="45.404852538520785" lon="11.064580223709314"><ele>36.5</ele><time>2026-04-06T08:03:45.038Z</time></trkpt><trkpt lat="45.404811713815725" lon="11.064107961477262"><ele>37.0</ele><time>2026-04-06T08:03:46.038Z</time></trkpt><trkpt lat="45.404770609227484" lon="11.063634901005129"><ele>36.5</ele><time>2026-04-06T08:03:47.038Z</time></trkpt><trkpt lat="45.404728743305654" lon="11.063165804513865"><ele>36.0</ele><time>2026-04-06T08:03:48.038Z</time></trkpt><trkpt lat="45.40468757882117" lon="11.062707302946997"><ele>37.0</ele><time>2026-04-06T08:03:49.038Z</time></trkpt><trkpt lat="45.40465503126234" lon="11.06226644915542"><ele>38.0</ele><time>2026-04-06T08:03:50.038Z</time></trkpt><trkpt lat="45.40461130427349" lon="11.061812874816694"><ele>37.5</ele><time>2026-04-06T08:03:51.038Z</time></trkpt><trkpt lat="45.404564514096236" lon="11.061363280970536"><ele>37.0</ele><time>2026-04-06T08:03:52.038Z</time></trkpt><trkpt lat="45.40452406917039" lon="11.060908673044773"><ele>37.0</ele><time>2026-04-06T08:03:53.038Z</time></trkpt><trkpt lat="45.404492480963235" lon="11.060486152963074"><ele>37.0</ele><time>2026-04-06T08:03:54.038Z</time></trkpt><trkpt lat="45.404455413597425" lon="11.060052864938962"><ele>36.0</ele><time>2026-04-06T08:03:55.038Z</time></trkpt><trkpt lat="45.404421041011474" lon="11.0596211957281"><ele>35.0</ele><time>2026-04-06T08:03:56.038Z</time></trkpt><trkpt lat="45.404389469857406" lon="11.059186780963735"><ele>36.0</ele><time>2026-04-06T08:03:57.038Z</time></trkpt><trkpt lat="45.404356040390255" lon="11.05874879752938"><ele>37.0</ele><time>2026-04-06T08:03:58.038Z</time></trkpt><trkpt lat="45.40431723093852" lon="11.058309785469184"><ele>37.5</ele><time>2026-04-06T08:03:59.038Z</time></trkpt><trkpt lat="45.40427829694611" lon="11.057861998124674"><ele>38.0</ele><time>2026-04-06T08:04:00.038Z</time></trkpt><trkpt lat="45.40423639981716" lon="11.057411066570598"><ele>38.0</ele><time>2026-04-06T08:04:01.038Z</time></trkpt><trkpt lat="45.404201152087595" lon="11.056959679200105"><ele>38.0</ele><time>2026-04-06T08:04:02.038Z</time></trkpt><trkpt lat="45.404162176754525" lon="11.05649811682909"><ele>38.5</ele><time>2026-04-06T08:04:03.038Z</time></trkpt><trkpt lat="45.4041282076775" lon="11.056029022156629"><ele>39.0</ele><time>2026-04-06T08:04:04.038Z</time></trkpt><trkpt lat="45.40408667016614" lon="11.055553464506392"><ele>38.0</ele><time>2026-04-06T08:04:05.038Z</time></trkpt><trkpt lat="45.40404679954172" lon="11.055071978957763"><ele>37.0</ele><time>2026-04-06T08:04:06.038Z</time></trkpt><trkpt lat="45.40400755335607" lon="11.054569960499085"><ele>37.5</ele><time>2026-04-06T08:04:07.038Z</time></trkpt><trkpt lat="45.403967591381516" lon="11.054065409277886"><ele>38.0</ele><time>2026-04-06T08:04:08.038Z</time></trkpt><trkpt lat="45.40392051489219" lon="11.053554884724889"><ele>38.0</ele><time>2026-04-06T08:04:09.038Z</time></trkpt><trkpt lat="45.40387283034237" lon="11.05304112135203"><ele>38.0</ele><time>2026-04-06T08:04:10.038Z</time></trkpt><trkpt lat="45.403825791242554" lon="11.0525360997638"><ele>37.0</ele><time>2026-04-06T08:04:11.038Z</time></trkpt><trkpt lat="45.40378144363441" lon="11.052049664418227"><ele>36.0</ele><time>2026-04-06T08:04:12.038Z</time></trkpt><trkpt lat="45.40373302452113" lon="11.051577191882622"><ele>36.0</ele><time>2026-04-06T08:04:13.038Z</time></trkpt><trkpt lat="45.40368541895796" lon="11.051102508448245"><ele>36.0</ele><time>2026-04-06T08:04:14.038Z</time></trkpt><trkpt lat="45.40364000542643" lon="11.050634609908982"><ele>36.5</ele><time>2026-04-06T08:04:15.038Z</time></trkpt><trkpt lat="45.403593118434216" lon="11.050170307990873"><ele>37.0</ele><time>2026-04-06T08:04:16.038Z</time></trkpt><trkpt lat="45.40354705120543" lon="11.049712800284697"><ele>37.0</ele><time>2026-04-06T08:04:17.038Z</time></trkpt><trkpt lat="45.403500187193856" lon="11.049255033970079"><ele>37.0</ele><time>2026-04-06T08:04:18.038Z</time></trkpt><trkpt lat="45.40345634872762" lon="11.048798627867402"><ele>37.0</ele><time>2026-04-06T08:04:19.038Z</time></trkpt><trkpt lat="45.40341538204273" lon="11.048348393122495"><ele>37.0</ele><time>2026-04-06T08:04:20.038Z</time></trkpt><trkpt lat="45.403377947241644" lon="11.047907509245837"><ele>37.0</ele><time>2026-04-06T08:04:21.038Z</time></trkpt><trkpt lat="45.403337498866165" lon="11.047472412045133"><ele>37.0</ele><time>2026-04-06T08:04:22.038Z</time></trkpt><trkpt lat="45.40328725526097" lon="11.047027827799363"><ele>38.0</ele><time>2026-04-06T08:04:23.038Z</time></trkpt><trkpt lat="45.40324350854865" lon="11.046586824137984"><ele>39.0</ele><time>2026-04-06T08:04:24.038Z</time></trkpt><trkpt lat="45.4032034841081" lon="11.04617113967387"><ele>40.0</ele><time>2026-04-06T08:04:25.038Z</time></trkpt><trkpt lat="45.40316486965592" lon="11.045775330765784"><ele>41.0</ele><time>2026-04-06T08:04:26.038Z</time></trkpt><trkpt lat="45.40312974210918" lon="11.045376729725135"><ele>41.0</ele><time>2026-04-06T08:04:27.038Z</time></trkpt><trkpt lat="45.40309994358008" lon="11.044975942972096"><ele>41.0</ele><time>2026-04-06T08:04:28.038Z</time></trkpt><trkpt lat="45.40306626023379" lon="11.044579873959963"><ele>40.0</ele><time>2026-04-06T08:04:29.038Z</time></trkpt><trkpt lat="45.40304211816503" lon="11.044236295483337"><ele>39.0</ele><time>2026-04-06T08:04:30.038Z</time></trkpt><trkpt lat="45.40300221127652" lon="11.043879569257442"><ele>38.5</ele><time>2026-04-06T08:04:31.038Z</time></trkpt><trkpt lat="45.402973816346865" lon="11.043546875579937"><ele>38.0</ele><time>2026-04-06T08:04:32.038Z</time></trkpt><trkpt lat="45.4029308189893" lon="11.043214811983717"><ele>38.0</ele><time>2026-04-06T08:04:33.038Z</time></trkpt><trkpt lat="45.40286987332462" lon="11.04288899469546"><ele>38.0</ele><time>2026-04-06T08:04:34.038Z</time></trkpt><trkpt lat="45.402775911566785" lon="11.042576069339674"><ele>38.0</ele><time>2026-04-06T08:04:35.038Z</time></trkpt><trkpt lat="45.40265052011329" lon="11.04228353915204"><ele>38.0</ele><time>2026-04-06T08:04:36.038Z</time></trkpt><trkpt lat="45.402520294548516" lon="11.042020614664724"><ele>38.0</ele><time>2026-04-06T08:04:37.038Z</time></trkpt><trkpt lat="45.40238317476013" lon="11.041777287975782"><ele>38.0</ele><time>2026-04-06T08:04:38.038Z</time></trkpt><trkpt lat="45.4022782241505" lon="11.041507622103218"><ele>38.0</ele><time>2026-04-06T08:04:39.038Z</time></trkpt><trkpt lat="45.40218772918495" lon="11.04121220893417"><ele>37.33333333333333</ele><time>2026-04-06T08:04:40.038Z</time></trkpt><trkpt lat="45.40211981408471" lon="11.04090683022787"><ele>36.666666666666664</ele><time>2026-04-06T08:04:41.038Z</time></trkpt><trkpt lat="45.40209103983186" lon="11.040594994507487"><ele>36.0</ele><time>2026-04-06T08:04:42.038Z</time></trkpt><trkpt lat="45.40208384340526" lon="11.040280932364043"><ele>36.333333333333336</ele><time>2026-04-06T08:04:43.038Z</time></trkpt><trkpt lat="45.40210233414487" lon="11.039996765286043"><ele>36.66666666666667</ele><time>2026-04-06T08:04:44.038Z</time></trkpt><trkpt lat="45.40215083720564" lon="11.039689250835243"><ele>37.0</ele><time>2026-04-06T08:04:45.038Z</time></trkpt><trkpt lat="45.40223610778059" lon="11.039358584319384"><ele>40.5</ele><time>2026-04-06T08:04:46.038Z</time></trkpt><trkpt lat="45.402352333866034" lon="11.039009023177066"><ele>44.0</ele><time>2026-04-06T08:04:47.038Z</time></trkpt><trkpt lat="45.40250007863298" lon="11.038645641881676"><ele>43.0</ele><time>2026-04-06T08:04:48.038Z</time></trkpt><trkpt lat="45.40266254640613" lon="11.038272654875746"><ele>42.0</ele><time>2026-04-06T08:04:49.038Z</time></trkpt><trkpt lat="45.40284151955248" lon="11.038032622057463"><ele>41.5</ele><time>2026-04-06T08:04:51.038Z</time></trkpt><trkpt lat="45.40299811490112" lon="11.037751585326228"><ele>41.0</ele><time>2026-04-06T08:04:52.038Z</time></trkpt><trkpt lat="45.40312591170091" lon="11.037491606133644"><ele>41.5</ele><time>2026-04-06T08:04:53.038Z</time></trkpt><trkpt lat="45.403248028236" lon="11.037210591552967"><ele>42.0</ele><time>2026-04-06T08:04:54.038Z</time></trkpt><trkpt lat="45.40335266390128" lon="11.03690688258728"><ele>41.5</ele><time>2026-04-06T08:04:55.038Z</time></trkpt><trkpt lat="45.40342414170409" lon="11.03657774808404"><ele>41.0</ele><time>2026-04-06T08:04:56.038Z</time></trkpt><trkpt lat="45.40346005313946" lon="11.036225122436798"><ele>41.0</ele><time>2026-04-06T08:04:57.038Z</time></trkpt><trkpt lat="45.403458552409106" lon="11.035863853024752"><ele>41.0</ele><time>2026-04-06T08:04:58.038Z</time></trkpt><trkpt lat="45.40342369985027" lon="11.035501725137838"><ele>40.5</ele><time>2026-04-06T08:04:59.038Z</time></trkpt><trkpt lat="45.40335074720887" lon="11.035134823315815"><ele>40.0</ele><time>2026-04-06T08:05:00.038Z</time></trkpt><trkpt lat="45.40324028845178" lon="11.034765208918882"><ele>39.5</ele><time>2026-04-06T08:05:01.038Z</time></trkpt><trkpt lat="45.40309220339261" lon="11.034412060655029"><ele>39.0</ele><time>2026-04-06T08:05:02.038Z</time></trkpt><trkpt lat="45.4029093908173" lon="11.03406471089005"><ele>40.5</ele><time>2026-04-06T08:05:03.038Z</time></trkpt><trkpt lat="45.40274912655671" lon="11.033760788512195"><ele>42.0</ele><time>2026-04-06T08:05:04.038Z</time></trkpt><trkpt lat="45.402633999513796" lon="11.033461543944465"><ele>41.5</ele><time>2026-04-06T08:05:05.038Z</time></trkpt><trkpt lat="45.40253807094612" lon="11.033129748760334"><ele>41.0</ele><time>2026-04-06T08:05:06.038Z</time></trkpt><trkpt lat="45.40247764772733" lon="11.03275564311515"><ele>40.5</ele><time>2026-04-06T08:05:07.038Z</time></trkpt><trkpt lat="45.402446025083215" lon="11.032361475758439"><ele>40.0</ele><time>2026-04-06T08:05:08.038Z</time></trkpt><trkpt lat="45.40241106953542" lon="11.03194050976497"><ele>41.0</ele><time>2026-04-06T08:05:09.038Z</time></trkpt><trkpt lat="45.40237079707767" lon="11.03151831650188"><ele>42.0</ele><time>2026-04-06T08:05:10.038Z</time></trkpt><trkpt lat="45.40232366127302" lon="11.031070078064285"><ele>42.5</ele><time>2026-04-06T08:05:11.039Z</time></trkpt><trkpt lat="45.40227615544348" lon="11.030613586037658"><ele>43.0</ele><time>2026-04-06T08:05:12.039Z</time></trkpt><trkpt lat="45.40222566836278" lon="11.030108960968098"><ele>42.5</ele><time>2026-04-06T08:05:13.039Z</time></trkpt><trkpt lat="45.40218193532823" lon="11.029658280812944"><ele>42.0</ele><time>2026-04-06T08:05:14.039Z</time></trkpt><trkpt lat="45.40213517083621" lon="11.02922131850235"><ele>45.5</ele><time>2026-04-06T08:05:15.039Z</time></trkpt><trkpt lat="45.402086318395845" lon="11.028767259941656"><ele>49.0</ele><time>2026-04-06T08:05:16.039Z</time></trkpt><trkpt lat="45.40204200401266" lon="11.028304892153198"><ele>49.5</ele><time>2026-04-06T08:05:17.039Z</time></trkpt><trkpt lat="45.4019932988339" lon="11.02782672373081"><ele>50.0</ele><time>2026-04-06T08:05:18.039Z</time></trkpt><trkpt lat="45.40194431917259" lon="11.027337054957837"><ele>50.5</ele><time>2026-04-06T08:05:19.039Z</time></trkpt><trkpt lat="45.401892487898856" lon="11.026861073890542"><ele>51.0</ele><time>2026-04-06T08:05:20.039Z</time></trkpt><trkpt lat="45.40183879916056" lon="11.026402935842917"><ele>51.0</ele><time>2026-04-06T08:05:21.039Z</time></trkpt><trkpt lat="45.40178012524929" lon="11.025930804030756"><ele>51.0</ele><time>2026-04-06T08:05:22.039Z</time></trkpt><trkpt lat="45.40171766053969" lon="11.025453968468666"><ele>50.0</ele><time>2026-04-06T08:05:23.039Z</time></trkpt><trkpt lat="45.401660208870325" lon="11.025002927145874"><ele>49.0</ele><time>2026-04-06T08:05:24.039Z</time></trkpt><trkpt lat="45.4016081621313" lon="11.024578805033752"><ele>49.0</ele><time>2026-04-06T08:05:25.039Z</time></trkpt><trkpt lat="45.40155572503527" lon="11.024154766474922"><ele>49.0</ele><time>2026-04-06T08:05:26.039Z</time></trkpt><trkpt lat="45.40150144624846" lon="11.023741176925029"><ele>50.0</ele><time>2026-04-06T08:05:27.039Z</time></trkpt><trkpt lat="45.40145205041616" lon="11.023337120494181"><ele>51.0</ele><time>2026-04-06T08:05:28.039Z</time></trkpt><trkpt lat="45.40140367743962" lon="11.022933647765363"><ele>51.0</ele><time>2026-04-06T08:05:29.039Z</time></trkpt><trkpt lat="45.401354332755076" lon="11.022526206015518"><ele>51.0</ele><time>2026-04-06T08:05:30.039Z</time></trkpt><trkpt lat="45.40130558432986" lon="11.022117041217227"><ele>51.0</ele><time>2026-04-06T08:05:31.039Z</time></trkpt><trkpt lat="45.40126280781789" lon="11.021710189047011"><ele>51.0</ele><time>2026-04-06T08:05:32.039Z</time></trkpt><trkpt lat="45.401223333177235" lon="11.021299057643851"><ele>51.0</ele><time>2026-04-06T08:05:33.039Z</time></trkpt><trkpt lat="45.40118671260685" lon="11.020906733239546"><ele>51.0</ele><time>2026-04-06T08:05:34.039Z</time></trkpt><trkpt lat="45.40114891605072" lon="11.020534585708695"><ele>52.0</ele><time>2026-04-06T08:05:35.039Z</time></trkpt><trkpt lat="45.401108763472344" lon="11.020159374931445"><ele>53.0</ele><time>2026-04-06T08:05:36.039Z</time></trkpt><trkpt lat="45.40106912459479" lon="11.019770803498817"><ele>53.5</ele><time>2026-04-06T08:05:37.039Z</time></trkpt><trkpt lat="45.40102950154371" lon="11.019370106463754"><ele>54.0</ele><time>2026-04-06T08:05:38.039Z</time></trkpt><trkpt lat="45.400986935893414" lon="11.018960197948543"><ele>55.0</ele><time>2026-04-06T08:05:39.039Z</time></trkpt><trkpt lat="45.40094605171883" lon="11.018525223706641"><ele>56.0</ele><time>2026-04-06T08:05:40.039Z</time></trkpt><trkpt lat="45.40091613281831" lon="11.01807591810557"><ele>56.0</ele><time>2026-04-06T08:05:41.039Z</time></trkpt><trkpt lat="45.40089962043186" lon="11.017644555604237"><ele>56.0</ele><time>2026-04-06T08:05:42.039Z</time></trkpt><trkpt lat="45.400868976369836" lon="11.017213693474812"><ele>55.0</ele><time>2026-04-06T08:05:43.039Z</time></trkpt><trkpt lat="45.400830588058874" lon="11.016796708047147"><ele>54.0</ele><time>2026-04-06T08:05:44.039Z</time></trkpt><trkpt lat="45.400777659084035" lon="11.0163715561055"><ele>54.0</ele><time>2026-04-06T08:05:45.039Z</time></trkpt><trkpt lat="45.40073466774307" lon="11.015935793746753"><ele>54.0</ele><time>2026-04-06T08:05:46.039Z</time></trkpt><trkpt lat="45.400694538307555" lon="11.015499412405392"><ele>54.0</ele><time>2026-04-06T08:05:47.039Z</time></trkpt><trkpt lat="45.400653970108756" lon="11.015053713040139"><ele>54.0</ele><time>2026-04-06T08:05:48.039Z</time></trkpt><trkpt lat="45.40061155678257" lon="11.014617251396649"><ele>54.0</ele><time>2026-04-06T08:05:49.039Z</time></trkpt><trkpt lat="45.40057225273709" lon="11.014209272372034"><ele>54.0</ele><time>2026-04-06T08:05:50.039Z</time></trkpt><trkpt lat="45.40053694751612" lon="11.013816120712862"><ele>51.0</ele><time>2026-04-06T08:05:51.039Z</time></trkpt><trkpt lat="45.40049894244289" lon="11.01341967387055"><ele>48.0</ele><time>2026-04-06T08:05:52.039Z</time></trkpt><trkpt lat="45.400455692660756" lon="11.013013004621309"><ele>47.5</ele><time>2026-04-06T08:05:53.039Z</time></trkpt><trkpt lat="45.400414773755294" lon="11.012610447997497"><ele>47.0</ele><time>2026-04-06T08:05:54.039Z</time></trkpt><trkpt lat="45.40037785986361" lon="11.012202878887056"><ele>48.5</ele><time>2026-04-06T08:05:55.039Z</time></trkpt><trkpt lat="45.40033793655916" lon="11.011790197900211"><ele>50.0</ele><time>2026-04-06T08:05:56.039Z</time></trkpt><trkpt lat="45.40029658703047" lon="11.011381406579002"><ele>51.5</ele><time>2026-04-06T08:05:57.039Z</time></trkpt><trkpt lat="45.400257283406326" lon="11.010984255675615"><ele>53.0</ele><time>2026-04-06T08:05:58.039Z</time></trkpt><trkpt lat="45.40021360739756" lon="11.010595350031553"><ele>53.0</ele><time>2026-04-06T08:05:59.039Z</time></trkpt><trkpt lat="45.400172147134896" lon="11.010226166898617"><ele>53.0</ele><time>2026-04-06T08:06:00.039Z</time></trkpt><trkpt lat="45.40012803612712" lon="11.009847719413898"><ele>52.5</ele><time>2026-04-06T08:06:01.039Z</time></trkpt><trkpt lat="45.400094483273186" lon="11.009464940518862"><ele>52.0</ele><time>2026-04-06T08:06:02.039Z</time></trkpt><trkpt lat="45.40005861954737" lon="11.009080458074628"><ele>52.0</ele><time>2026-04-06T08:06:03.039Z</time></trkpt><trkpt lat="45.40002176053769" lon="11.008719037006044"><ele>52.0</ele><time>2026-04-06T08:06:04.039Z</time></trkpt><trkpt lat="45.39998119515703" lon="11.00837310405976"><ele>52.5</ele><time>2026-04-06T08:06:05.039Z</time></trkpt><trkpt lat="45.39994201309703" lon="11.00803913616087"><ele>53.0</ele><time>2026-04-06T08:06:06.039Z</time></trkpt><trkpt lat="45.3998963368579" lon="11.007678171915572"><ele>51.5</ele><time>2026-04-06T08:06:07.039Z</time></trkpt><trkpt lat="45.399854706763904" lon="11.00730905396331"><ele>50.0</ele><time>2026-04-06T08:06:08.039Z</time></trkpt><trkpt lat="45.399824618058" lon="11.006952193438252"><ele>50.5</ele><time>2026-04-06T08:06:09.039Z</time></trkpt><trkpt lat="45.39979341343306" lon="11.006619890976772"><ele>51.0</ele><time>2026-04-06T08:06:10.039Z</time></trkpt><trkpt lat="45.3997575278229" lon="11.006286441147958"><ele>51.0</ele><time>2026-04-06T08:06:11.039Z</time></trkpt><trkpt lat="45.399720984089456" lon="11.005944166041665"><ele>51.0</ele><time>2026-04-06T08:06:12.039Z</time></trkpt><trkpt lat="45.39968374250938" lon="11.005587291569057"><ele>51.0</ele><time>2026-04-06T08:06:13.039Z</time></trkpt><trkpt lat="45.39964588407458" lon="11.005230692082323"><ele>51.0</ele><time>2026-04-06T08:06:14.039Z</time></trkpt><trkpt lat="45.39960593543219" lon="11.004858187257389"><ele>51.0</ele><time>2026-04-06T08:06:15.039Z</time></trkpt><trkpt lat="45.39957035589936" lon="11.004469896836152"><ele>51.0</ele><time>2026-04-06T08:06:16.039Z</time></trkpt><trkpt lat="45.399534182230724" lon="11.004080392322631"><ele>51.0</ele><time>2026-04-06T08:06:17.039Z</time></trkpt><trkpt lat="45.399497975337226" lon="11.003703428978605"><ele>51.0</ele><time>2026-04-06T08:06:18.039Z</time></trkpt><trkpt lat="45.39946191574631" lon="11.003330411486376"><ele>52.0</ele><time>2026-04-06T08:06:19.039Z</time></trkpt><trkpt lat="45.399426953270556" lon="11.00295929669188"><ele>53.0</ele><time>2026-04-06T08:06:20.039Z</time></trkpt><trkpt lat="45.399387073513594" lon="11.002585504714489"><ele>52.0</ele><time>2026-04-06T08:06:21.039Z</time></trkpt><trkpt lat="45.39935290996771" lon="11.002217646844052"><ele>51.0</ele><time>2026-04-06T08:06:22.039Z</time></trkpt><trkpt lat="45.399316394901234" lon="11.001840420694856"><ele>49.0</ele><time>2026-04-06T08:06:23.039Z</time></trkpt><trkpt lat="45.399273630452655" lon="11.001448965582941"><ele>47.0</ele><time>2026-04-06T08:06:24.039Z</time></trkpt><trkpt lat="45.39923049728422" lon="11.001044005140631"><ele>48.0</ele><time>2026-04-06T08:06:25.039Z</time></trkpt><trkpt lat="45.39919285277404" lon="11.000632692083009"><ele>49.0</ele><time>2026-04-06T08:06:26.039Z</time></trkpt><trkpt lat="45.399157744586255" lon="11.000220204981467"><ele>49.0</ele><time>2026-04-06T08:06:27.039Z</time></trkpt><trkpt lat="45.39912846812913" lon="10.999807606551729"><ele>49.0</ele><time>2026-04-06T08:06:28.039Z</time></trkpt><trkpt lat="45.39909971866379" lon="10.999392971997473"><ele>50.5</ele><time>2026-04-06T08:06:29.039Z</time></trkpt><trkpt lat="45.399071545047974" lon="10.99897340649722"><ele>52.0</ele><time>2026-04-06T08:06:30.039Z</time></trkpt><trkpt lat="45.39904052782612" lon="10.99855702273759"><ele>51.0</ele><time>2026-04-06T08:06:31.039Z</time></trkpt><trkpt lat="45.39901018934026" lon="10.998135845747663"><ele>50.0</ele><time>2026-04-06T08:06:32.039Z</time></trkpt><trkpt lat="45.39897741259043" lon="10.997723003066316"><ele>50.0</ele><time>2026-04-06T08:06:33.039Z</time></trkpt><trkpt lat="45.398945975589086" lon="10.997304605038153"><ele>50.0</ele><time>2026-04-06T08:06:34.039Z</time></trkpt><trkpt lat="45.3989115648502" lon="10.996895723714912"><ele>51.0</ele><time>2026-04-06T08:06:35.039Z</time></trkpt><trkpt lat="45.39887578653896" lon="10.996503492776716"><ele>52.0</ele><time>2026-04-06T08:06:36.039Z</time></trkpt><trkpt lat="45.39883800305435" lon="10.996116640411373"><ele>53.5</ele><time>2026-04-06T08:06:37.039Z</time></trkpt><trkpt lat="45.39879739246927" lon="10.995716301424054"><ele>55.0</ele><time>2026-04-06T08:06:38.039Z</time></trkpt><trkpt lat="45.39876240522354" lon="10.99531785271796"><ele>55.0</ele><time>2026-04-06T08:06:39.039Z</time></trkpt><trkpt lat="45.39872603108089" lon="10.99491058730527"><ele>55.0</ele><time>2026-04-06T08:06:40.039Z</time></trkpt><trkpt lat="45.3986882951494" lon="10.994505419685723"><ele>55.0</ele><time>2026-04-06T08:06:41.039Z</time></trkpt><trkpt lat="45.39864808687042" lon="10.994097801467056"><ele>55.0</ele><time>2026-04-06T08:06:42.039Z</time></trkpt><trkpt lat="45.398607265055055" lon="10.993679656523614"><ele>55.0</ele><time>2026-04-06T08:06:43.039Z</time></trkpt><trkpt lat="45.39856412949238" lon="10.993271669943544"><ele>55.0</ele><time>2026-04-06T08:06:44.039Z</time></trkpt><trkpt lat="45.39852953791108" lon="10.992895012238886"><ele>55.0</ele><time>2026-04-06T08:06:45.039Z</time></trkpt><trkpt lat="45.39849516166494" lon="10.992518900424662"><ele>55.0</ele><time>2026-04-06T08:06:46.039Z</time></trkpt><trkpt lat="45.3984545322091" lon="10.992140961377025"><ele>55.0</ele><time>2026-04-06T08:06:47.039Z</time></trkpt><trkpt lat="45.39841393671675" lon="10.991763176178788"><ele>55.0</ele><time>2026-04-06T08:06:48.039Z</time></trkpt><trkpt lat="45.398371485473746" lon="10.991382417253828"><ele>55.0</ele><time>2026-04-06T08:06:49.039Z</time></trkpt><trkpt lat="45.39832970797806" lon="10.990998550598984"><ele>55.0</ele><time>2026-04-06T08:06:50.039Z</time></trkpt><trkpt lat="45.39828863213542" lon="10.990611954114412"><ele>55.5</ele><time>2026-04-06T08:06:51.039Z</time></trkpt><trkpt lat="45.39824434164045" lon="10.99022560293746"><ele>56.0</ele><time>2026-04-06T08:06:52.039Z</time></trkpt><trkpt lat="45.39819734936981" lon="10.989836986995282"><ele>55.5</ele><time>2026-04-06T08:06:53.039Z</time></trkpt><trkpt lat="45.39814483881297" lon="10.989450843898231"><ele>55.0</ele><time>2026-04-06T08:06:54.039Z</time></trkpt><trkpt lat="45.39808706205657" lon="10.989065235178527"><ele>55.0</ele><time>2026-04-06T08:06:55.039Z</time></trkpt><trkpt lat="45.39803035536599" lon="10.988675628889675"><ele>55.0</ele><time>2026-04-06T08:06:56.039Z</time></trkpt><trkpt lat="45.39797195360417" lon="10.988276397766748"><ele>55.5</ele><time>2026-04-06T08:06:57.039Z</time></trkpt><trkpt lat="45.39790934620804" lon="10.98786433787717"><ele>56.0</ele><time>2026-04-06T08:06:58.039Z</time></trkpt><trkpt lat="45.39785331991808" lon="10.987460722175635"><ele>56.5</ele><time>2026-04-06T08:06:59.039Z</time></trkpt><trkpt lat="45.39779540368415" lon="10.98705716081458"><ele>57.0</ele><time>2026-04-06T08:07:00.039Z</time></trkpt><trkpt lat="45.397743597490965" lon="10.986677261471236"><ele>57.5</ele><time>2026-04-06T08:07:01.039Z</time></trkpt><trkpt lat="45.397684492461245" lon="10.98629874797749"><ele>58.0</ele><time>2026-04-06T08:07:02.039Z</time></trkpt><trkpt lat="45.39763045796419" lon="10.985929699826592"><ele>57.5</ele><time>2026-04-06T08:07:03.039Z</time></trkpt><trkpt lat="45.39758041614848" lon="10.985575722304983"><ele>57.0</ele><time>2026-04-06T08:07:04.039Z</time></trkpt><trkpt lat="45.39753366273975" lon="10.985220315474157"><ele>57.0</ele><time>2026-04-06T08:07:05.039Z</time></trkpt><trkpt lat="45.39748822939674" lon="10.984854424678202"><ele>57.0</ele><time>2026-04-06T08:07:06.039Z</time></trkpt><trkpt lat="45.39744692905796" lon="10.984484586248511"><ele>57.0</ele><time>2026-04-06T08:07:07.039Z</time></trkpt><trkpt lat="45.397412280188405" lon="10.984128771309978"><ele>57.0</ele><time>2026-04-06T08:07:08.039Z</time></trkpt><trkpt lat="45.39737987551655" lon="10.983787488173643"><ele>57.0</ele><time>2026-04-06T08:07:09.039Z</time></trkpt><trkpt lat="45.39735281448318" lon="10.983454151685905"><ele>57.0</ele><time>2026-04-06T08:07:10.039Z</time></trkpt><trkpt lat="45.39731980322117" lon="10.983104496459761"><ele>57.5</ele><time>2026-04-06T08:07:11.039Z</time></trkpt><trkpt lat="45.39729814058461" lon="10.982772821183913"><ele>58.0</ele><time>2026-04-06T08:07:12.039Z</time></trkpt><trkpt lat="45.39727695237657" lon="10.982428219215643"><ele>57.0</ele><time>2026-04-06T08:07:13.039Z</time></trkpt><trkpt lat="45.39726165128446" lon="10.9820855491623"><ele>56.0</ele><time>2026-04-06T08:07:14.039Z</time></trkpt><trkpt lat="45.397246831748674" lon="10.981742723301894"><ele>54.0</ele><time>2026-04-06T08:07:15.039Z</time></trkpt><trkpt lat="45.397230660999114" lon="10.98140064656065"><ele>52.0</ele><time>2026-04-06T08:07:16.039Z</time></trkpt><trkpt lat="45.39721749252182" lon="10.981054789178954"><ele>53.0</ele><time>2026-04-06T08:07:17.04Z</time></trkpt><trkpt lat="45.39721209491097" lon="10.98071611482854"><ele>54.0</ele><time>2026-04-06T08:07:18.04Z</time></trkpt><trkpt lat="45.397207326083794" lon="10.980372969832194"><ele>54.0</ele><time>2026-04-06T08:07:19.04Z</time></trkpt><trkpt lat="45.39720279855848" lon="10.980029227871812"><ele>54.0</ele><time>2026-04-06T08:07:20.04Z</time></trkpt><trkpt lat="45.39720423504109" lon="10.97967044369909"><ele>54.0</ele><time>2026-04-06T08:07:21.04Z</time></trkpt><trkpt lat="45.397209016421975" lon="10.97931537714648"><ele>54.0</ele><time>2026-04-06T08:07:22.04Z</time></trkpt><trkpt lat="45.39721932448626" lon="10.978964983078582"><ele>54.0</ele><time>2026-04-06T08:07:23.04Z</time></trkpt><trkpt lat="45.397227143179904" lon="10.978610218630799"><ele>54.0</ele><time>2026-04-06T08:07:24.04Z</time></trkpt><trkpt lat="45.39723461330463" lon="10.978257275031556"><ele>53.5</ele><time>2026-04-06T08:07:25.04Z</time></trkpt><trkpt lat="45.397247670693694" lon="10.977904167037947"><ele>53.0</ele><time>2026-04-06T08:07:26.04Z</time></trkpt><trkpt lat="45.397264280282506" lon="10.9775524088447"><ele>52.5</ele><time>2026-04-06T08:07:27.04Z</time></trkpt><trkpt lat="45.397282233017386" lon="10.977201286495564"><ele>52.0</ele><time>2026-04-06T08:07:28.04Z</time></trkpt><trkpt lat="45.39729709553157" lon="10.976833345492082"><ele>51.5</ele><time>2026-04-06T08:07:29.04Z</time></trkpt><trkpt lat="45.39730994102486" lon="10.976454084689035"><ele>51.0</ele><time>2026-04-06T08:07:30.04Z</time></trkpt><trkpt lat="45.3973218290425" lon="10.976066946954802"><ele>53.5</ele><time>2026-04-06T08:07:31.04Z</time></trkpt><trkpt lat="45.397334039129824" lon="10.975672019387021"><ele>56.0</ele><time>2026-04-06T08:07:32.04Z</time></trkpt><trkpt lat="45.397346447639556" lon="10.975261788722129"><ele>56.0</ele><time>2026-04-06T08:07:33.04Z</time></trkpt><trkpt lat="45.39735877333757" lon="10.97484533724052"><ele>56.0</ele><time>2026-04-06T08:07:34.04Z</time></trkpt><trkpt lat="45.39736954704622" lon="10.97443181738714"><ele>56.0</ele><time>2026-04-06T08:07:35.04Z</time></trkpt><trkpt lat="45.397388119625205" lon="10.974032511135663"><ele>56.0</ele><time>2026-04-06T08:07:36.04Z</time></trkpt><trkpt lat="45.3974049543425" lon="10.973634918667656"><ele>57.0</ele><time>2026-04-06T08:07:37.04Z</time></trkpt><trkpt lat="45.39742615208464" lon="10.973239898216011"><ele>58.0</ele><time>2026-04-06T08:07:38.04Z</time></trkpt><trkpt lat="45.39745270827819" lon="10.972854536039106"><ele>56.5</ele><time>2026-04-06T08:07:39.04Z</time></trkpt><trkpt lat="45.397472663425646" lon="10.97247242267145"><ele>55.0</ele><time>2026-04-06T08:07:40.04Z</time></trkpt><trkpt lat="45.39748907955504" lon="10.972111676173768"><ele>55.0</ele><time>2026-04-06T08:07:41.04Z</time></trkpt><trkpt lat="45.397495591203786" lon="10.97175306733465"><ele>55.0</ele><time>2026-04-06T08:07:42.04Z</time></trkpt><trkpt lat="45.39751108652674" lon="10.971428178355879"><ele>55.0</ele><time>2026-04-06T08:07:43.04Z</time></trkpt><trkpt lat="45.39752846618743" lon="10.971129685914361"><ele>55.0</ele><time>2026-04-06T08:07:44.04Z</time></trkpt><trkpt lat="45.39754974438209" lon="10.970868483679308"><ele>55.0</ele><time>2026-04-06T08:07:45.04Z</time></trkpt><trkpt lat="45.39758566727898" lon="10.970629373659483"><ele>55.666666666666664</ele><time>2026-04-06T08:07:46.04Z</time></trkpt><trkpt lat="45.39765351317849" lon="10.97038756409265"><ele>56.33333333333333</ele><time>2026-04-06T08:07:47.04Z</time></trkpt><trkpt lat="45.39773948616042" lon="10.970122378443001"><ele>57.0</ele><time>2026-04-06T08:07:48.04Z</time></trkpt><trkpt lat="45.397803431645194" lon="10.9697887683959"><ele>57.0</ele><time>2026-04-06T08:07:49.04Z</time></trkpt><trkpt lat="45.3978869112197" lon="10.969448130879082"><ele>57.0</ele><time>2026-04-06T08:07:50.04Z</time></trkpt><trkpt lat="45.39794357527278" lon="10.9691154934221"><ele>55.5</ele><time>2026-04-06T08:07:51.04Z</time></trkpt><trkpt lat="45.39798851139365" lon="10.968838096086468"><ele>54.0</ele><time>2026-04-06T08:07:52.04Z</time></trkpt><trkpt lat="45.39794846739912" lon="10.968165938248145"><ele>53.5</ele><time>2026-04-06T08:07:53.04Z</time></trkpt><trkpt lat="45.397957102662645" lon="10.967757979914069"><ele>53.0</ele><time>2026-04-06T08:07:54.04Z</time></trkpt><trkpt lat="45.397968312568345" lon="10.967396150982742"><ele>55.5</ele><time>2026-04-06T08:07:55.04Z</time></trkpt><trkpt lat="45.39797685870649" lon="10.967073369447881"><ele>58.0</ele><time>2026-04-06T08:07:56.04Z</time></trkpt><trkpt lat="45.39795585298025" lon="10.966755903799642"><ele>57.0</ele><time>2026-04-06T08:07:57.04Z</time></trkpt><trkpt lat="45.39793759032506" lon="10.966408470636395"><ele>56.0</ele><time>2026-04-06T08:07:58.04Z</time></trkpt><trkpt lat="45.39787420584268" lon="10.966056564096286"><ele>56.5</ele><time>2026-04-06T08:07:59.04Z</time></trkpt><trkpt lat="45.39781186670773" lon="10.965687292064889"><ele>57.0</ele><time>2026-04-06T08:08:00.04Z</time></trkpt><trkpt lat="45.39777915272185" lon="10.965295187461315"><ele>57.5</ele><time>2026-04-06T08:08:01.04Z</time></trkpt><trkpt lat="45.397768654996206" lon="10.964884453772541"><ele>58.0</ele><time>2026-04-06T08:08:02.04Z</time></trkpt><trkpt lat="45.397791980456006" lon="10.964465362767177"><ele>58.0</ele><time>2026-04-06T08:08:03.04Z</time></trkpt><trkpt lat="45.39782336935172" lon="10.964033754659983"><ele>58.0</ele><time>2026-04-06T08:08:04.04Z</time></trkpt><trkpt lat="45.39784596638425" lon="10.963588554931816"><ele>58.0</ele><time>2026-04-06T08:08:05.04Z</time></trkpt><trkpt lat="45.397858265806335" lon="10.963127045448882"><ele>58.0</ele><time>2026-04-06T08:08:06.04Z</time></trkpt><trkpt lat="45.397875790007355" lon="10.962706734638097"><ele>58.0</ele><time>2026-04-06T08:08:07.04Z</time></trkpt><trkpt lat="45.39790226052941" lon="10.962322213386711"><ele>58.0</ele><time>2026-04-06T08:08:08.04Z</time></trkpt><trkpt lat="45.397930054860716" lon="10.961950828307007"><ele>59.0</ele><time>2026-04-06T08:08:09.04Z</time></trkpt><trkpt lat="45.39796054451643" lon="10.961555759845899"><ele>60.0</ele><time>2026-04-06T08:08:10.04Z</time></trkpt><trkpt lat="45.3979966026247" lon="10.961165184374115"><ele>59.0</ele><time>2026-04-06T08:08:11.04Z</time></trkpt><trkpt lat="45.398031035285854" lon="10.96076681641"><ele>58.0</ele><time>2026-04-06T08:08:12.04Z</time></trkpt><trkpt lat="45.39807210143246" lon="10.96037013107307"><ele>57.5</ele><time>2026-04-06T08:08:13.04Z</time></trkpt><trkpt lat="45.39811419395368" lon="10.959972604391785"><ele>57.0</ele><time>2026-04-06T08:08:14.04Z</time></trkpt><trkpt lat="45.398173067592246" lon="10.959569788433127"><ele>58.0</ele><time>2026-04-06T08:08:15.04Z</time></trkpt><trkpt lat="45.398219999717384" lon="10.959160490931394"><ele>59.0</ele><time>2026-04-06T08:08:16.04Z</time></trkpt><trkpt lat="45.398269313703246" lon="10.958745521972604"><ele>59.5</ele><time>2026-04-06T08:08:17.04Z</time></trkpt><trkpt lat="45.39831591054522" lon="10.958329365917331"><ele>60.0</ele><time>2026-04-06T08:08:18.04Z</time></trkpt><trkpt lat="45.398365067713904" lon="10.957906939418065"><ele>60.0</ele><time>2026-04-06T08:08:19.04Z</time></trkpt><trkpt lat="45.39841597294153" lon="10.957473260232959"><ele>60.0</ele><time>2026-04-06T08:08:20.04Z</time></trkpt><trkpt lat="45.39847553545007" lon="10.957013079162431"><ele>60.0</ele><time>2026-04-06T08:08:21.04Z</time></trkpt><trkpt lat="45.39853605652962" lon="10.95654716239681"><ele>60.0</ele><time>2026-04-06T08:08:22.04Z</time></trkpt><trkpt lat="45.39860542226034" lon="10.95609709894752"><ele>61.0</ele><time>2026-04-06T08:08:23.04Z</time></trkpt><trkpt lat="45.39867927141879" lon="10.955658260993548"><ele>62.0</ele><time>2026-04-06T08:08:24.04Z</time></trkpt><trkpt lat="45.398759604502956" lon="10.955214710571333"><ele>61.0</ele><time>2026-04-06T08:08:25.04Z</time></trkpt><trkpt lat="45.398847651473304" lon="10.954749562555046"><ele>60.0</ele><time>2026-04-06T08:08:26.04Z</time></trkpt><trkpt lat="45.39894246866482" lon="10.954268212872499"><ele>60.0</ele><time>2026-04-06T08:08:27.04Z</time></trkpt><trkpt lat="45.39903529903988" lon="10.953804735910659"><ele>60.0</ele><time>2026-04-06T08:08:28.04Z</time></trkpt><trkpt lat="45.399128216074764" lon="10.953344298613079"><ele>60.0</ele><time>2026-04-06T08:08:29.04Z</time></trkpt><trkpt lat="45.399220206911295" lon="10.95288516390622"><ele>60.0</ele><time>2026-04-06T08:08:30.04Z</time></trkpt><trkpt lat="45.39930878668047" lon="10.952454986631913"><ele>60.5</ele><time>2026-04-06T08:08:31.04Z</time></trkpt><trkpt lat="45.39940161748754" lon="10.952021606241372"><ele>61.0</ele><time>2026-04-06T08:08:32.04Z</time></trkpt><trkpt lat="45.3994932376249" lon="10.95158302390813"><ele>61.0</ele><time>2026-04-06T08:08:33.04Z</time></trkpt><trkpt lat="45.399587194876744" lon="10.951144726268119"><ele>61.0</ele><time>2026-04-06T08:08:34.04Z</time></trkpt><trkpt lat="45.39967515633077" lon="10.950705157024133"><ele>60.5</ele><time>2026-04-06T08:08:35.04Z</time></trkpt><trkpt lat="45.399765280649625" lon="10.950252511714776"><ele>60.0</ele><time>2026-04-06T08:08:36.04Z</time></trkpt><trkpt lat="45.39985711449311" lon="10.949791013748865"><ele>59.5</ele><time>2026-04-06T08:08:37.04Z</time></trkpt><trkpt lat="45.39995401052936" lon="10.949323114789072"><ele>59.0</ele><time>2026-04-06T08:08:38.04Z</time></trkpt><trkpt lat="45.40004429595461" lon="10.948860055945723"><ele>59.0</ele><time>2026-04-06T08:08:39.04Z</time></trkpt><trkpt lat="45.40013466069002" lon="10.948422344691217"><ele>59.0</ele><time>2026-04-06T08:08:40.04Z</time></trkpt><trkpt lat="45.40022053729264" lon="10.947992791810444"><ele>59.0</ele><time>2026-04-06T08:08:41.04Z</time></trkpt><trkpt lat="45.400292056940295" lon="10.947560944920669"><ele>59.0</ele><time>2026-04-06T08:08:42.04Z</time></trkpt><trkpt lat="45.40037894198189" lon="10.947135136936792"><ele>60.0</ele><time>2026-04-06T08:08:43.04Z</time></trkpt><trkpt lat="45.4004712093368" lon="10.946707602253896"><ele>61.0</ele><time>2026-04-06T08:08:44.04Z</time></trkpt><trkpt lat="45.40057482279502" lon="10.946275229688894"><ele>60.5</ele><time>2026-04-06T08:08:45.04Z</time></trkpt><trkpt lat="45.40065587902749" lon="10.945799210696856"><ele>60.0</ele><time>2026-04-06T08:08:46.04Z</time></trkpt><trkpt lat="45.400743386688966" lon="10.945359447221616"><ele>59.5</ele><time>2026-04-06T08:08:47.04Z</time></trkpt><trkpt lat="45.400831910979015" lon="10.944927480220375"><ele>59.0</ele><time>2026-04-06T08:08:48.04Z</time></trkpt><trkpt lat="45.400920098025516" lon="10.944510304567096"><ele>59.5</ele><time>2026-04-06T08:08:49.04Z</time></trkpt><trkpt lat="45.40100501917222" lon="10.944079103328447"><ele>60.0</ele><time>2026-04-06T08:08:50.04Z</time></trkpt><trkpt lat="45.40108822305278" lon="10.943654107456364"><ele>59.5</ele><time>2026-04-06T08:08:51.04Z</time></trkpt><trkpt lat="45.40117175134692" lon="10.943226863861595"><ele>59.0</ele><time>2026-04-06T08:08:52.04Z</time></trkpt><trkpt lat="45.40125284960758" lon="10.942816716959843"><ele>59.5</ele><time>2026-04-06T08:08:53.04Z</time></trkpt><trkpt lat="45.40132881718701" lon="10.942439742263385"><ele>60.0</ele><time>2026-04-06T08:08:54.04Z</time></trkpt><trkpt lat="45.40140161609283" lon="10.942077098054188"><ele>60.0</ele><time>2026-04-06T08:08:55.04Z</time></trkpt><trkpt lat="45.40147323539876" lon="10.941738152748416"><ele>60.0</ele><time>2026-04-06T08:08:56.04Z</time></trkpt><trkpt lat="45.401541880330356" lon="10.94139638942876"><ele>60.5</ele><time>2026-04-06T08:08:57.04Z</time></trkpt><trkpt lat="45.401612636876045" lon="10.941036444992736"><ele>61.0</ele><time>2026-04-06T08:08:58.04Z</time></trkpt><trkpt lat="45.40168756195025" lon="10.94067101356867"><ele>61.0</ele><time>2026-04-06T08:08:59.04Z</time></trkpt><trkpt lat="45.401763675229624" lon="10.940301110448281"><ele>61.0</ele><time>2026-04-06T08:09:00.04Z</time></trkpt><trkpt lat="45.40184091410309" lon="10.939932482166816"><ele>61.0</ele><time>2026-04-06T08:09:01.04Z</time></trkpt><trkpt lat="45.40191571872156" lon="10.93955915357407"><ele>61.0</ele><time>2026-04-06T08:09:02.04Z</time></trkpt><trkpt lat="45.40199402138698" lon="10.939175447105672"><ele>61.0</ele><time>2026-04-06T08:09:03.04Z</time></trkpt><trkpt lat="45.40207311423079" lon="10.938792824886473"><ele>61.0</ele><time>2026-04-06T08:09:04.04Z</time></trkpt><trkpt lat="45.40214939978803" lon="10.938420137500433"><ele>62.0</ele><time>2026-04-06T08:09:05.04Z</time></trkpt><trkpt lat="45.40222135851722" lon="10.938065286492034"><ele>63.0</ele><time>2026-04-06T08:09:06.04Z</time></trkpt><trkpt lat="45.40229480305984" lon="10.937713057994316"><ele>62.5</ele><time>2026-04-06T08:09:07.04Z</time></trkpt><trkpt lat="45.40236860663667" lon="10.937366524242213"><ele>62.0</ele><time>2026-04-06T08:09:08.04Z</time></trkpt><trkpt lat="45.4024418756821" lon="10.937017811885706"><ele>63.0</ele><time>2026-04-06T08:09:09.04Z</time></trkpt><trkpt lat="45.40251966857428" lon="10.936662414651162"><ele>64.0</ele><time>2026-04-06T08:09:10.04Z</time></trkpt><trkpt lat="45.40259443243943" lon="10.93629856024709"><ele>64.0</ele><time>2026-04-06T08:09:11.04Z</time></trkpt><trkpt lat="45.40266200772904" lon="10.935944366220799"><ele>64.0</ele><time>2026-04-06T08:09:12.04Z</time></trkpt><trkpt lat="45.40273060760847" lon="10.935611857056793"><ele>64.0</ele><time>2026-04-06T08:09:13.04Z</time></trkpt><trkpt lat="45.40280062402897" lon="10.93526924106426"><ele>64.0</ele><time>2026-04-06T08:09:14.04Z</time></trkpt><trkpt lat="45.40286967397962" lon="10.93492122691541"><ele>64.0</ele><time>2026-04-06T08:09:15.04Z</time></trkpt><trkpt lat="45.402944669140346" lon="10.934565348048148"><ele>64.0</ele><time>2026-04-06T08:09:16.04Z</time></trkpt><trkpt lat="45.40302390310002" lon="10.934202890734552"><ele>65.0</ele><time>2026-04-06T08:09:17.04Z</time></trkpt><trkpt lat="45.403099077197616" lon="10.933841488682502"><ele>66.0</ele><time>2026-04-06T08:09:18.04Z</time></trkpt><trkpt lat="45.403164091993716" lon="10.933508374912616"><ele>65.0</ele><time>2026-04-06T08:09:19.04Z</time></trkpt><trkpt lat="45.40322644816632" lon="10.933176156759101"><ele>64.0</ele><time>2026-04-06T08:09:20.04Z</time></trkpt><trkpt lat="45.40329504599706" lon="10.932838523670494"><ele>64.5</ele><time>2026-04-06T08:09:21.04Z</time></trkpt><trkpt lat="45.40336316412475" lon="10.932499189568935"><ele>65.0</ele><time>2026-04-06T08:09:22.04Z</time></trkpt><trkpt lat="45.403424872879015" lon="10.9321748499336"><ele>65.0</ele><time>2026-04-06T08:09:23.041Z</time></trkpt><trkpt lat="45.403494493169596" lon="10.931846428205851"><ele>65.0</ele><time>2026-04-06T08:09:24.041Z</time></trkpt><trkpt lat="45.40356471499051" lon="10.931516190300151"><ele>66.5</ele><time>2026-04-06T08:09:25.041Z</time></trkpt><trkpt lat="45.403630322479664" lon="10.931182806961587"><ele>68.0</ele><time>2026-04-06T08:09:26.041Z</time></trkpt><trkpt lat="45.40369240662746" lon="10.930837704310527"><ele>68.5</ele><time>2026-04-06T08:09:27.041Z</time></trkpt><trkpt lat="45.40376086657876" lon="10.930480160394737"><ele>69.0</ele><time>2026-04-06T08:09:28.041Z</time></trkpt><trkpt lat="45.403829451678874" lon="10.930144656001858"><ele>67.5</ele><time>2026-04-06T08:09:29.041Z</time></trkpt><trkpt lat="45.403888624774986" lon="10.929822145883445"><ele>66.0</ele><time>2026-04-06T08:09:30.041Z</time></trkpt><trkpt lat="45.40394895256405" lon="10.929510356830447"><ele>66.0</ele><time>2026-04-06T08:09:31.041Z</time></trkpt><trkpt lat="45.404011658028274" lon="10.929198715125546"><ele>66.0</ele><time>2026-04-06T08:09:32.041Z</time></trkpt><trkpt lat="45.404085101687556" lon="10.928909476579179"><ele>66.0</ele><time>2026-04-06T08:09:33.041Z</time></trkpt><trkpt lat="45.40418028700381" lon="10.92861313398327"><ele>66.0</ele><time>2026-04-06T08:09:34.041Z</time></trkpt><trkpt lat="45.404296733766415" lon="10.928327240172207"><ele>66.0</ele><time>2026-04-06T08:09:35.041Z</time></trkpt><trkpt lat="45.40443310993288" lon="10.928055242477722"><ele>66.0</ele><time>2026-04-06T08:09:36.041Z</time></trkpt><trkpt lat="45.40458842908235" lon="10.927779996251235"><ele>66.0</ele><time>2026-04-06T08:09:37.041Z</time></trkpt><trkpt lat="45.404769893026476" lon="10.927516954370617"><ele>66.5</ele><time>2026-04-06T08:09:38.041Z</time></trkpt><trkpt lat="45.40496978188288" lon="10.927271422215647"><ele>67.0</ele><time>2026-04-06T08:09:39.041Z</time></trkpt><trkpt lat="45.405163177689275" lon="10.927003847119359"><ele>67.0</ele><time>2026-04-06T08:09:40.041Z</time></trkpt><trkpt lat="45.40536469029165" lon="10.926808440063999"><ele>67.0</ele><time>2026-04-06T08:09:41.041Z</time></trkpt><trkpt lat="45.405539301467265" lon="10.926580401928302"><ele>66.5</ele><time>2026-04-06T08:09:42.041Z</time></trkpt><trkpt lat="45.40570882254155" lon="10.926356109401887"><ele>66.0</ele><time>2026-04-06T08:09:43.041Z</time></trkpt><trkpt lat="45.40589047247866" lon="10.926124709958527"><ele>65.0</ele><time>2026-04-06T08:09:44.041Z</time></trkpt><trkpt lat="45.4060855179483" lon="10.925891127046777"><ele>64.0</ele><time>2026-04-06T08:09:45.041Z</time></trkpt><trkpt lat="45.406286780995394" lon="10.925626292812584"><ele>63.5</ele><time>2026-04-06T08:09:46.041Z</time></trkpt><trkpt lat="45.40647337488286" lon="10.925349933724407"><ele>63.0</ele><time>2026-04-06T08:09:47.041Z</time></trkpt><trkpt lat="45.40663749466956" lon="10.925064919687127"><ele>63.5</ele><time>2026-04-06T08:09:48.041Z</time></trkpt><trkpt lat="45.40678713970383" lon="10.924775704785707"><ele>64.0</ele><time>2026-04-06T08:09:49.041Z</time></trkpt><trkpt lat="45.406936911483065" lon="10.924475895348468"><ele>65.0</ele><time>2026-04-06T08:09:50.041Z</time></trkpt><trkpt lat="45.407076024108704" lon="10.924163741826511"><ele>66.0</ele><time>2026-04-06T08:09:51.041Z</time></trkpt><trkpt lat="45.407197669001135" lon="10.923855082557655"><ele>66.0</ele><time>2026-04-06T08:09:52.041Z</time></trkpt><trkpt lat="45.40730705491301" lon="10.923551803820393"><ele>66.0</ele><time>2026-04-06T08:09:53.041Z</time></trkpt><trkpt lat="45.40741725760132" lon="10.92325220027516"><ele>66.5</ele><time>2026-04-06T08:09:54.041Z</time></trkpt><trkpt lat="45.40752686368657" lon="10.922946894880702"><ele>67.0</ele><time>2026-04-06T08:09:55.041Z</time></trkpt><trkpt lat="45.4076384288996" lon="10.922642457904024"><ele>66.5</ele><time>2026-04-06T08:09:56.041Z</time></trkpt><trkpt lat="45.407761566946675" lon="10.9223566085792"><ele>66.0</ele><time>2026-04-06T08:09:57.041Z</time></trkpt><trkpt lat="45.40788989282528" lon="10.922040441357199"><ele>67.5</ele><time>2026-04-06T08:09:58.041Z</time></trkpt><trkpt lat="45.408017227591024" lon="10.921747528787376"><ele>69.0</ele><time>2026-04-06T08:09:59.041Z</time></trkpt><trkpt lat="45.408158926568916" lon="10.9214643654806"><ele>69.0</ele><time>2026-04-06T08:10:00.041Z</time></trkpt><trkpt lat="45.4083066651539" lon="10.921204181224992"><ele>69.0</ele><time>2026-04-06T08:10:01.041Z</time></trkpt><trkpt lat="45.408452093561294" lon="10.920963295914829"><ele>68.0</ele><time>2026-04-06T08:10:02.041Z</time></trkpt><trkpt lat="45.40860826437673" lon="10.920722731211889"><ele>67.0</ele><time>2026-04-06T08:10:03.041Z</time></trkpt><trkpt lat="45.4087823743712" lon="10.920487151344044"><ele>68.5</ele><time>2026-04-06T08:10:04.041Z</time></trkpt><trkpt lat="45.4089655963829" lon="10.92025729123149"><ele>70.0</ele><time>2026-04-06T08:10:05.041Z</time></trkpt><trkpt lat="45.40915838469288" lon="10.920019932454316"><ele>70.0</ele><time>2026-04-06T08:10:06.041Z</time></trkpt><trkpt lat="45.40936072310929" lon="10.919765436779665"><ele>70.0</ele><time>2026-04-06T08:10:07.041Z</time></trkpt><trkpt lat="45.40957094086994" lon="10.919499421031574"><ele>70.5</ele><time>2026-04-06T08:10:08.041Z</time></trkpt><trkpt lat="45.40977919987345" lon="10.91924739575785"><ele>71.0</ele><time>2026-04-06T08:10:09.041Z</time></trkpt><trkpt lat="45.40998051762975" lon="10.918994279247633"><ele>69.0</ele><time>2026-04-06T08:10:10.041Z</time></trkpt><trkpt lat="45.41018327531942" lon="10.918733284328354"><ele>67.0</ele><time>2026-04-06T08:10:11.041Z</time></trkpt><trkpt lat="45.4103884954549" lon="10.91847795865003"><ele>67.5</ele><time>2026-04-06T08:10:12.041Z</time></trkpt><trkpt lat="45.41058286514038" lon="10.918240559102312"><ele>68.0</ele><time>2026-04-06T08:10:13.041Z</time></trkpt><trkpt lat="45.41076520508158" lon="10.9180135760109"><ele>68.0</ele><time>2026-04-06T08:10:14.041Z</time></trkpt><trkpt lat="45.410944274365896" lon="10.91779377112701"><ele>68.0</ele><time>2026-04-06T08:10:15.041Z</time></trkpt><trkpt lat="45.411128424811714" lon="10.917567986665777"><ele>67.5</ele><time>2026-04-06T08:10:16.041Z</time></trkpt><trkpt lat="45.411313534953" lon="10.917331173948925"><ele>67.0</ele><time>2026-04-06T08:10:17.041Z</time></trkpt><trkpt lat="45.41149210363071" lon="10.917112937932043"><ele>67.5</ele><time>2026-04-06T08:10:18.041Z</time></trkpt><trkpt lat="45.41167306906336" lon="10.9169168286836"><ele>68.0</ele><time>2026-04-06T08:10:19.041Z</time></trkpt><trkpt lat="45.41185915569364" lon="10.916728018058157"><ele>68.0</ele><time>2026-04-06T08:10:20.041Z</time></trkpt><trkpt lat="45.412052230480825" lon="10.916550371462911"><ele>68.0</ele><time>2026-04-06T08:10:21.041Z</time></trkpt><trkpt lat="45.41225302458915" lon="10.91637340059127"><ele>69.0</ele><time>2026-04-06T08:10:22.041Z</time></trkpt><trkpt lat="45.41246501276801" lon="10.916194422446791"><ele>70.0</ele><time>2026-04-06T08:10:23.041Z</time></trkpt><trkpt lat="45.41269199231857" lon="10.916021440003293"><ele>69.0</ele><time>2026-04-06T08:10:24.041Z</time></trkpt><trkpt lat="45.41293628880226" lon="10.915844327828895"><ele>68.0</ele><time>2026-04-06T08:10:25.041Z</time></trkpt><trkpt lat="45.41319111399693" lon="10.915662109247483"><ele>68.0</ele><time>2026-04-06T08:10:26.041Z</time></trkpt><trkpt lat="45.41344956618177" lon="10.915509178441194"><ele>68.0</ele><time>2026-04-06T08:10:27.041Z</time></trkpt><trkpt lat="45.41370305354096" lon="10.915389970121234"><ele>68.5</ele><time>2026-04-06T08:10:28.041Z</time></trkpt><trkpt lat="45.41396283972589" lon="10.91527905062"><ele>69.0</ele><time>2026-04-06T08:10:29.041Z</time></trkpt><trkpt lat="45.41422901993285" lon="10.915170484651219"><ele>69.0</ele><time>2026-04-06T08:10:30.041Z</time></trkpt><trkpt lat="45.41449538844548" lon="10.915073340208778"><ele>69.0</ele><time>2026-04-06T08:10:31.041Z</time></trkpt><trkpt lat="45.41475034374478" lon="10.91501308519073"><ele>71.5</ele><time>2026-04-06T08:10:32.041Z</time></trkpt><trkpt lat="45.41500465158034" lon="10.914975966393598"><ele>74.0</ele><time>2026-04-06T08:10:33.041Z</time></trkpt><trkpt lat="45.41527026298852" lon="10.914935338269665"><ele>74.5</ele><time>2026-04-06T08:10:34.041Z</time></trkpt><trkpt lat="45.415527066928625" lon="10.914886105819033"><ele>75.0</ele><time>2026-04-06T08:10:35.041Z</time></trkpt><trkpt lat="45.415780935453256" lon="10.914841111806062"><ele>75.0</ele><time>2026-04-06T08:10:36.041Z</time></trkpt><trkpt lat="45.41602970073743" lon="10.914800026379343"><ele>75.0</ele><time>2026-04-06T08:10:37.041Z</time></trkpt><trkpt lat="45.41625563938774" lon="10.914756482982943"><ele>75.0</ele><time>2026-04-06T08:10:38.041Z</time></trkpt><trkpt lat="45.416492141870926" lon="10.914741232557672"><ele>75.0</ele><time>2026-04-06T08:10:39.041Z</time></trkpt><trkpt lat="45.41670486745295" lon="10.91472745943758"><ele>75.0</ele><time>2026-04-06T08:10:40.041Z</time></trkpt><trkpt lat="45.41691040028983" lon="10.9147161806542"><ele>75.0</ele><time>2026-04-06T08:10:41.041Z</time></trkpt><trkpt lat="45.41711428978848" lon="10.914711910840513"><ele>75.0</ele><time>2026-04-06T08:10:42.041Z</time></trkpt><trkpt lat="45.41731934904455" lon="10.914718472048984"><ele>74.66666666666667</ele><time>2026-04-06T08:10:43.041Z</time></trkpt><trkpt lat="45.41753282882041" lon="10.914736844736787"><ele>74.33333333333334</ele><time>2026-04-06T08:10:44.041Z</time></trkpt><trkpt lat="45.41774436887281" lon="10.91474412614023"><ele>74.0</ele><time>2026-04-06T08:10:45.041Z</time></trkpt><trkpt lat="45.417950940504" lon="10.914739030657758"><ele>74.0</ele><time>2026-04-06T08:10:46.041Z</time></trkpt><trkpt lat="45.41814562892603" lon="10.914745283876945"><ele>74.0</ele><time>2026-04-06T08:10:47.041Z</time></trkpt><trkpt lat="45.41833562071715" lon="10.914750950456556"><ele>74.0</ele><time>2026-04-06T08:10:48.041Z</time></trkpt><trkpt lat="45.4185090205084" lon="10.914757971514677"><ele>74.0</ele><time>2026-04-06T08:10:49.041Z</time></trkpt><trkpt lat="45.418665964332746" lon="10.914766212119158"><ele>74.0</ele><time>2026-04-06T08:10:50.041Z</time></trkpt><trkpt lat="45.41881498386149" lon="10.914783583372772"><ele>74.0</ele><time>2026-04-06T08:10:51.041Z</time></trkpt><trkpt lat="45.41895925586369" lon="10.914793934837075"><ele>74.0</ele><time>2026-04-06T08:10:52.041Z</time></trkpt><trkpt lat="45.41909642451684" lon="10.914792253200675"><ele>74.0</ele><time>2026-04-06T08:10:53.041Z</time></trkpt><trkpt lat="45.419238697509535" lon="10.914791372719183"><ele>74.0</ele><time>2026-04-06T08:10:54.041Z</time></trkpt><trkpt lat="45.41938552228775" lon="10.914799811443396"><ele>74.0</ele><time>2026-04-06T08:10:55.041Z</time></trkpt><trkpt lat="45.41951872424391" lon="10.914797733961427"><ele>74.0</ele><time>2026-04-06T08:10:56.041Z</time></trkpt><trkpt lat="45.41961586502424" lon="10.914797020936327"><ele>74.0</ele><time>2026-04-06T08:10:57.041Z</time></trkpt><trkpt lat="45.419716494897976" lon="10.914801496958212"><ele>74.0</ele><time>2026-04-06T08:10:58.041Z</time></trkpt><trkpt lat="45.419825598677456" lon="10.914806598393485"><ele>74.0</ele><time>2026-04-06T08:10:59.041Z</time></trkpt><trkpt lat="45.41995709251708" lon="10.914804691958071"><ele>74.0</ele><time>2026-04-06T08:11:00.041Z</time></trkpt><trkpt lat="45.420083890466145" lon="10.914800700813068"><ele>74.0</ele><time>2026-04-06T08:11:01.041Z</time></trkpt><trkpt lat="45.42021011548406" lon="10.914808545130334"><ele>74.0</ele><time>2026-04-06T08:11:02.041Z</time></trkpt><trkpt lat="45.42034041916963" lon="10.914811423886142"><ele>74.0</ele><time>2026-04-06T08:11:03.041Z</time></trkpt><trkpt lat="45.42046949322288" lon="10.914812567047385"><ele>74.0</ele><time>2026-04-06T08:11:04.041Z</time></trkpt><trkpt lat="45.42058852634661" lon="10.914814139585198"><ele>74.0</ele><time>2026-04-06T08:11:05.041Z</time></trkpt><trkpt lat="45.42069020618887" lon="10.914811926920548"><ele>74.0</ele><time>2026-04-06T08:11:06.041Z</time></trkpt><trkpt lat="45.42078211226989" lon="10.914808996415818"><ele>74.0</ele><time>2026-04-06T08:11:07.041Z</time></trkpt><trkpt lat="45.42086574599023" lon="10.914808845658907"><ele>74.0</ele><time>2026-04-06T08:11:08.041Z</time></trkpt><trkpt lat="45.42094303797214" lon="10.914795165324913"><ele>74.0</ele><time>2026-04-06T08:11:09.041Z</time></trkpt><trkpt lat="45.42101457771653" lon="10.914787587129652"><ele>74.0</ele><time>2026-04-06T08:11:10.041Z</time></trkpt><trkpt lat="45.42107798999138" lon="10.914790031124422"><ele>74.0</ele><time>2026-04-06T08:11:11.041Z</time></trkpt><trkpt lat="45.42119466512739" lon="10.914779766845456"><ele>74.0</ele><time>2026-04-06T08:11:13.041Z</time></trkpt><trkpt lat="45.421257584842074" lon="10.914784770626175"><ele>74.0</ele><time>2026-04-06T08:11:14.041Z</time></trkpt><trkpt lat="45.421326736579374" lon="10.914785500778791"><ele>74.0</ele><time>2026-04-06T08:11:15.041Z</time></trkpt><trkpt lat="45.4213946965937" lon="10.914780178421896"><ele>74.0</ele><time>2026-04-06T08:11:16.041Z</time></trkpt><trkpt lat="45.421474799844034" lon="10.914784115664554"><ele>74.0</ele><time>2026-04-06T08:11:17.041Z</time></trkpt><trkpt lat="45.42158027893985" lon="10.914791410073192"><ele>73.75</ele><time>2026-04-06T08:11:18.041Z</time></trkpt><trkpt lat="45.42173229628315" lon="10.914794603304925"><ele>73.5</ele><time>2026-04-06T08:11:19.041Z</time></trkpt><trkpt lat="45.42186083913403" lon="10.914799709355476"><ele>73.25</ele><time>2026-04-06T08:11:20.041Z</time></trkpt><trkpt lat="45.42198457990365" lon="10.914794328762676"><ele>73.0</ele><time>2026-04-06T08:11:21.041Z</time></trkpt><trkpt lat="45.42209744401152" lon="10.91479021223549"><ele>73.0</ele><time>2026-04-06T08:11:22.041Z</time></trkpt><trkpt lat="45.422217851411546" lon="10.914797729662693"><ele>73.0</ele><time>2026-04-06T08:11:23.041Z</time></trkpt><trkpt lat="45.422331550390396" lon="10.91480055936342"><ele>73.0</ele><time>2026-04-06T08:11:24.041Z</time></trkpt><trkpt lat="45.42245005448334" lon="10.91479555375678"><ele>73.0</ele><time>2026-04-06T08:11:25.041Z</time></trkpt><trkpt lat="45.42255598588563" lon="10.914798926593058"><ele>73.0</ele><time>2026-04-06T08:11:26.041Z</time></trkpt><trkpt lat="45.42267212366642" lon="10.914807958767637"><ele>73.0</ele><time>2026-04-06T08:11:27.041Z</time></trkpt><trkpt lat="45.42277637164229" lon="10.914808293306148"><ele>73.0</ele><time>2026-04-06T08:11:28.041Z</time></trkpt><trkpt lat="45.42287605837666" lon="10.914809719948488"><ele>73.0</ele><time>2026-04-06T08:11:29.042Z</time></trkpt><trkpt lat="45.42297064834081" lon="10.914807321783126"><ele>73.0</ele><time>2026-04-06T08:11:30.042Z</time></trkpt><trkpt lat="45.42305524645381" lon="10.914841052270388"><ele>73.75</ele><time>2026-04-06T08:11:31.042Z</time></trkpt><trkpt lat="45.423182079242665" lon="10.91482286856921"><ele>74.5</ele><time>2026-04-06T08:11:32.042Z</time></trkpt><trkpt lat="45.42330995539028" lon="10.914821527039138"><ele>75.25</ele><time>2026-04-06T08:11:33.042Z</time></trkpt><trkpt lat="45.423439477086255" lon="10.91482293442623"><ele>76.0</ele><time>2026-04-06T08:11:34.042Z</time></trkpt><trkpt lat="45.42355362994544" lon="10.914821372552261"><ele>76.0</ele><time>2026-04-06T08:11:35.042Z</time></trkpt><trkpt lat="45.42366494384452" lon="10.914821431248834"><ele>76.0</ele><time>2026-04-06T08:11:36.042Z</time></trkpt><trkpt lat="45.423763453589096" lon="10.91482354393391"><ele>76.0</ele><time>2026-04-06T08:11:37.042Z</time></trkpt><trkpt lat="45.42387146340884" lon="10.914829380742956"><ele>76.0</ele><time>2026-04-06T08:11:38.042Z</time></trkpt><trkpt lat="45.42396640841305" lon="10.914833569596807"><ele>76.0</ele><time>2026-04-06T08:11:39.042Z</time></trkpt><trkpt lat="45.42406043720755" lon="10.914827509119451"><ele>75.8</ele><time>2026-04-06T08:11:40.042Z</time></trkpt><trkpt lat="45.42414630011375" lon="10.914828942730237"><ele>75.6</ele><time>2026-04-06T08:11:41.042Z</time></trkpt><trkpt lat="45.424238289876044" lon="10.91483027166412"><ele>75.4</ele><time>2026-04-06T08:11:42.042Z</time></trkpt><trkpt lat="45.42434675845802" lon="10.914834866088697"><ele>75.2</ele><time>2026-04-06T08:11:43.042Z</time></trkpt><trkpt lat="45.42446750603269" lon="10.914837785006725"><ele>75.0</ele><time>2026-04-06T08:11:44.042Z</time></trkpt><trkpt lat="45.42460565511627" lon="10.914854029555032"><ele>74.66666666666667</ele><time>2026-04-06T08:11:45.042Z</time></trkpt><trkpt lat="45.42481146230116" lon="10.914853844207736"><ele>74.33333333333334</ele><time>2026-04-06T08:11:46.042Z</time></trkpt><trkpt lat="45.42500237655776" lon="10.914846372155068"><ele>74.0</ele><time>2026-04-06T08:11:47.042Z</time></trkpt><trkpt lat="45.42516949093778" lon="10.914853154091146"><ele>74.0</ele><time>2026-04-06T08:11:48.042Z</time></trkpt><trkpt lat="45.42534043049637" lon="10.91486115970359"><ele>74.0</ele><time>2026-04-06T08:11:49.042Z</time></trkpt><trkpt lat="45.425486537774844" lon="10.91486254401117"><ele>74.0</ele><time>2026-04-06T08:11:50.042Z</time></trkpt><trkpt lat="45.425615667873366" lon="10.914867094323665"><ele>74.0</ele><time>2026-04-06T08:11:51.042Z</time></trkpt><trkpt lat="45.42573737934239" lon="10.914865663045552"><ele>74.4</ele><time>2026-04-06T08:11:52.042Z</time></trkpt><trkpt lat="45.42584015391888" lon="10.914862842525524"><ele>74.80000000000001</ele><time>2026-04-06T08:11:53.042Z</time></trkpt><trkpt lat="45.42592129971271" lon="10.914863031029032"><ele>75.19999999999999</ele><time>2026-04-06T08:11:54.042Z</time></trkpt><trkpt lat="45.42598487693371" lon="10.914864280641563"><ele>75.6</ele><time>2026-04-06T08:11:55.042Z</time></trkpt><trkpt lat="45.42607873598198" lon="10.914852868223338"><ele>76.0</ele><time>2026-04-06T08:11:57.042Z</time></trkpt><trkpt lat="45.426192426271115" lon="10.914855680597002"><ele>76.0</ele><time>2026-04-06T08:11:59.042Z</time></trkpt><trkpt lat="45.426271289157434" lon="10.914855438359778"><ele>76.0</ele><time>2026-04-06T08:12:00.042Z</time></trkpt><trkpt lat="45.42634943669533" lon="10.914854344015572"><ele>76.0</ele><time>2026-04-06T08:12:01.042Z</time></trkpt><trkpt lat="45.42643025694073" lon="10.914848913293874"><ele>76.0</ele><time>2026-04-06T08:12:02.042Z</time></trkpt><trkpt lat="45.426538680298556" lon="10.914838350578561"><ele>76.0</ele><time>2026-04-06T08:12:04.042Z</time></trkpt><trkpt lat="45.426611972574655" lon="10.914839757991489"><ele>76.0</ele><time>2026-04-06T08:12:07.042Z</time></trkpt><trkpt lat="45.426695156511826" lon="10.914846116517454"><ele>76.25</ele><time>2026-04-06T08:12:09.042Z</time></trkpt><trkpt lat="45.42682862118169" lon="10.91484705491371"><ele>76.5</ele><time>2026-04-06T08:12:11.042Z</time></trkpt><trkpt lat="45.42695614871792" lon="10.914813711287845"><ele>76.75</ele><time>2026-04-06T08:12:12.042Z</time></trkpt><trkpt lat="45.42706341044239" lon="10.914781901461966"><ele>77.0</ele><time>2026-04-06T08:12:13.042Z</time></trkpt><trkpt lat="45.42717717383412" lon="10.914762500337734"><ele>77.0</ele><time>2026-04-06T08:12:14.042Z</time></trkpt><trkpt lat="45.42731886178582" lon="10.914731257614038"><ele>77.0</ele><time>2026-04-06T08:12:15.042Z</time></trkpt><trkpt lat="45.427450631000575" lon="10.914689648217953"><ele>77.0</ele><time>2026-04-06T08:12:16.042Z</time></trkpt><trkpt lat="45.42756601061493" lon="10.914647654321255"><ele>77.0</ele><time>2026-04-06T08:12:17.042Z</time></trkpt><trkpt lat="45.42765171948834" lon="10.914625698951134"><ele>77.0</ele><time>2026-04-06T08:12:18.042Z</time></trkpt><trkpt lat="45.42776428531424" lon="10.914588368673448"><ele>77.0</ele><time>2026-04-06T08:12:19.042Z</time></trkpt><trkpt lat="45.42787715258757" lon="10.914537135435562"><ele>77.0</ele><time>2026-04-06T08:12:20.042Z</time></trkpt><trkpt lat="45.42799898126906" lon="10.914483695327563"><ele>77.0</ele><time>2026-04-06T08:12:21.042Z</time></trkpt><trkpt lat="45.42810587172091" lon="10.914436143408391"><ele>77.25</ele><time>2026-04-06T08:12:22.042Z</time></trkpt><trkpt lat="45.42821327471581" lon="10.914387038146938"><ele>77.5</ele><time>2026-04-06T08:12:23.042Z</time></trkpt><trkpt lat="45.42831923273379" lon="10.914326294025818"><ele>77.75</ele><time>2026-04-06T08:12:24.042Z</time></trkpt><trkpt lat="45.428429573117995" lon="10.914264383438027"><ele>78.0</ele><time>2026-04-06T08:12:25.042Z</time></trkpt><trkpt lat="45.428528809815326" lon="10.914205632323151"><ele>78.0</ele><time>2026-04-06T08:12:26.042Z</time></trkpt><trkpt lat="45.42862208772301" lon="10.914145726913942"><ele>78.0</ele><time>2026-04-06T08:12:27.042Z</time></trkpt><trkpt lat="45.42872139777587" lon="10.914087668349381"><ele>78.0</ele><time>2026-04-06T08:12:28.042Z</time></trkpt><trkpt lat="45.428821759547034" lon="10.914020258007755"><ele>78.0</ele><time>2026-04-06T08:12:29.042Z</time></trkpt><trkpt lat="45.42891249877255" lon="10.913956922979542"><ele>78.0</ele><time>2026-04-06T08:12:30.042Z</time></trkpt><trkpt lat="45.42900471602314" lon="10.913877757366778"><ele>78.0</ele><time>2026-04-06T08:12:31.042Z</time></trkpt><trkpt lat="45.429106133963465" lon="10.91380953213841"><ele>78.0</ele><time>2026-04-06T08:12:32.042Z</time></trkpt><trkpt lat="45.429199796599534" lon="10.913738316950909"><ele>78.0</ele><time>2026-04-06T08:12:33.042Z</time></trkpt><trkpt lat="45.42929284133527" lon="10.913649205171302"><ele>78.0</ele><time>2026-04-06T08:12:34.042Z</time></trkpt><trkpt lat="45.42938959059642" lon="10.913559256129313"><ele>78.0</ele><time>2026-04-06T08:12:35.042Z</time></trkpt><trkpt lat="45.429486700677145" lon="10.913473073761299"><ele>77.83333333333333</ele><time>2026-04-06T08:12:36.042Z</time></trkpt><trkpt lat="45.42957755803055" lon="10.913389431115457"><ele>77.66666666666667</ele><time>2026-04-06T08:12:37.042Z</time></trkpt><trkpt lat="45.42965560302429" lon="10.913317151918237"><ele>77.5</ele><time>2026-04-06T08:12:38.042Z</time></trkpt><trkpt lat="45.42972934296769" lon="10.91323988691169"><ele>77.33333333333334</ele><time>2026-04-06T08:12:39.042Z</time></trkpt><trkpt lat="45.42979062829469" lon="10.913174817003606"><ele>77.16666666666667</ele><time>2026-04-06T08:12:40.042Z</time></trkpt><trkpt lat="45.4298387538735" lon="10.91311539058319"><ele>77.0</ele><time>2026-04-06T08:12:41.042Z</time></trkpt><trkpt lat="45.42992472965983" lon="10.912999435935191"><ele>77.8</ele><time>2026-04-06T08:12:43.042Z</time></trkpt><trkpt lat="45.43001463900959" lon="10.91285427850988"><ele>78.6</ele><time>2026-04-06T08:12:45.042Z</time></trkpt><trkpt lat="45.430089282687895" lon="10.912795909680577"><ele>79.39999999999999</ele><time>2026-04-06T08:12:46.042Z</time></trkpt><trkpt lat="45.43014660263804" lon="10.912724156055232"><ele>80.2</ele><time>2026-04-06T08:12:47.042Z</time></trkpt><trkpt lat="45.43022577532158" lon="10.912636580411453"><ele>81.0</ele><time>2026-04-06T08:12:49.042Z</time></trkpt><trkpt lat="45.430322343605255" lon="10.912522028695593"><ele>81.0</ele><time>2026-04-06T08:12:51.042Z</time></trkpt><trkpt lat="45.43041115385831" lon="10.912404612147393"><ele>81.0</ele><time>2026-04-06T08:12:53.042Z</time></trkpt><trkpt lat="45.430504158032406" lon="10.91230511332912"><ele>81.0</ele><time>2026-04-06T08:12:55.042Z</time></trkpt><trkpt lat="45.43059439228965" lon="10.912199613125898"><ele>81.0</ele><time>2026-04-06T08:12:57.042Z</time></trkpt><trkpt lat="45.43068949508774" lon="10.912095529440155"><ele>81.0</ele><time>2026-04-06T08:12:59.042Z</time></trkpt><trkpt lat="45.430740392830565" lon="10.912038063802827"><ele>81.0</ele><time>2026-04-06T08:13:00.042Z</time></trkpt><trkpt lat="45.430793605053324" lon="10.91197768764105"><ele>81.0</ele><time>2026-04-06T08:13:01.042Z</time></trkpt><trkpt lat="45.430891138192166" lon="10.911877931083112"><ele>81.0</ele><time>2026-04-06T08:13:03.042Z</time></trkpt><trkpt lat="45.43099062894884" lon="10.911777560645067"><ele>81.0</ele><time>2026-04-06T08:13:05.042Z</time></trkpt><trkpt lat="45.431056131821975" lon="10.911712212283526"><ele>80.83333333333333</ele><time>2026-04-06T08:13:06.042Z</time></trkpt><trkpt lat="45.43111749584718" lon="10.911652198727639"><ele>80.66666666666667</ele><time>2026-04-06T08:13:07.042Z</time></trkpt><trkpt lat="45.431179560874845" lon="10.911587965792247"><ele>80.5</ele><time>2026-04-06T08:13:08.042Z</time></trkpt><trkpt lat="45.431241137185516" lon="10.911523826490399"><ele>80.33333333333334</ele><time>2026-04-06T08:13:09.042Z</time></trkpt><trkpt lat="45.43130622898873" lon="10.911453607942486"><ele>80.16666666666667</ele><time>2026-04-06T08:13:10.042Z</time></trkpt><trkpt lat="45.43137179682868" lon="10.911382007968909"><ele>80.0</ele><time>2026-04-06T08:13:11.042Z</time></trkpt><trkpt lat="45.43143961100511" lon="10.911314177598975"><ele>81.16666666666667</ele><time>2026-04-06T08:13:12.042Z</time></trkpt><trkpt lat="45.43150556323349" lon="10.911251913534961"><ele>82.33333333333334</ele><time>2026-04-06T08:13:13.042Z</time></trkpt><trkpt lat="45.43155934515527" lon="10.911201183895265"><ele>83.5</ele><time>2026-04-06T08:13:14.042Z</time></trkpt><trkpt lat="45.43162814123094" lon="10.91114629931622"><ele>84.66666666666667</ele><time>2026-04-06T08:13:16.042Z</time></trkpt><trkpt lat="45.431694448648145" lon="10.911089077050809"><ele>85.83333333333333</ele><time>2026-04-06T08:13:18.042Z</time></trkpt><trkpt lat="45.43175690964087" lon="10.911030519426316"><ele>87.0</ele><time>2026-04-06T08:13:21.042Z</time></trkpt><trkpt lat="45.4318334589466" lon="10.910994276966507"><ele>87.0</ele><time>2026-04-06T08:13:23.042Z</time></trkpt><trkpt lat="45.43193654491645" lon="10.910953163508202"><ele>87.0</ele><time>2026-04-06T08:13:25.042Z</time></trkpt><trkpt lat="45.43204195455974" lon="10.910860964960598"><ele>87.0</ele><time>2026-04-06T08:13:27.042Z</time></trkpt><trkpt lat="45.43211947205832" lon="10.910802921176062"><ele>87.0</ele><time>2026-04-06T08:13:28.042Z</time></trkpt><trkpt lat="45.43218508711066" lon="10.910735914184576"><ele>87.0</ele><time>2026-04-06T08:13:29.042Z</time></trkpt><trkpt lat="45.43227932274229" lon="10.910643558736469"><ele>86.6</ele><time>2026-04-06T08:13:30.042Z</time></trkpt><trkpt lat="45.43240302110045" lon="10.910522796313936"><ele>86.19999999999999</ele><time>2026-04-06T08:13:31.042Z</time></trkpt><trkpt lat="45.43250044395188" lon="10.910434796036458"><ele>85.8</ele><time>2026-04-06T08:13:32.042Z</time></trkpt><trkpt lat="45.43256664056627" lon="10.910370510481904"><ele>85.4</ele><time>2026-04-06T08:13:33.042Z</time></trkpt><trkpt lat="45.43263737541623" lon="10.910309163517004"><ele>85.0</ele><time>2026-04-06T08:13:35.043Z</time></trkpt><trkpt lat="45.43270661321205" lon="10.910238499541713"><ele>85.0</ele><time>2026-04-06T08:13:37.043Z</time></trkpt><trkpt lat="45.43275676227116" lon="10.910182234577881"><ele>85.0</ele><time>2026-04-06T08:13:38.043Z</time></trkpt><trkpt lat="45.432822645569985" lon="10.910114766926645"><ele>85.0</ele><time>2026-04-06T08:13:39.043Z</time></trkpt><trkpt lat="45.43288497724871" lon="10.910054814836409"><ele>85.0</ele><time>2026-04-06T08:13:40.043Z</time></trkpt><trkpt lat="45.43295003127265" lon="10.90999373539187"><ele>85.0</ele><time>2026-04-06T08:13:41.043Z</time></trkpt><trkpt lat="45.43301764187886" lon="10.909934933391508"><ele>85.0</ele><time>2026-04-06T08:13:42.043Z</time></trkpt><trkpt lat="45.43307414577198" lon="10.90988331299676"><ele>85.0</ele><time>2026-04-06T08:13:43.043Z</time></trkpt><trkpt lat="45.43313217997101" lon="10.9098355201546"><ele>85.16666666666666</ele><time>2026-04-06T08:13:44.043Z</time></trkpt><trkpt lat="45.43319495291815" lon="10.909775456532437"><ele>85.33333333333333</ele><time>2026-04-06T08:13:45.043Z</time></trkpt><trkpt lat="45.43326072482349" lon="10.909713081067714"><ele>85.5</ele><time>2026-04-06T08:13:46.043Z</time></trkpt><trkpt lat="45.43333343082585" lon="10.90963584705799"><ele>85.66666666666667</ele><time>2026-04-06T08:13:47.043Z</time></trkpt><trkpt lat="45.43340646790321" lon="10.909572079939373"><ele>85.83333333333334</ele><time>2026-04-06T08:13:48.043Z</time></trkpt><trkpt lat="45.43347755826783" lon="10.909499227989505"><ele>86.0</ele><time>2026-04-06T08:13:49.043Z</time></trkpt><trkpt lat="45.43354948046455" lon="10.909414387201652"><ele>86.0</ele><time>2026-04-06T08:13:50.043Z</time></trkpt><trkpt lat="45.43362724124026" lon="10.909310974731572"><ele>86.0</ele><time>2026-04-06T08:13:51.043Z</time></trkpt><trkpt lat="45.43372650783044" lon="10.909174459623769"><ele>86.0</ele><time>2026-04-06T08:13:52.043Z</time></trkpt><trkpt lat="45.43381675300095" lon="10.909023565014571"><ele>86.0</ele><time>2026-04-06T08:13:53.043Z</time></trkpt><trkpt lat="45.43388396856796" lon="10.908876092499504"><ele>85.75</ele><time>2026-04-06T08:13:54.043Z</time></trkpt><trkpt lat="45.43394947408367" lon="10.908716274523352"><ele>85.5</ele><time>2026-04-06T08:13:55.043Z</time></trkpt><trkpt lat="45.43400998646197" lon="10.908543672657771"><ele>85.25</ele><time>2026-04-06T08:13:56.043Z</time></trkpt><trkpt lat="45.43406642898092" lon="10.908351154870081"><ele>85.0</ele><time>2026-04-06T08:13:57.043Z</time></trkpt><trkpt lat="45.434108276727656" lon="10.90817591960428"><ele>85.0</ele><time>2026-04-06T08:13:58.043Z</time></trkpt><trkpt lat="45.434140894774096" lon="10.90801052287059"><ele>85.0</ele><time>2026-04-06T08:13:59.043Z</time></trkpt><trkpt lat="45.434174772609666" lon="10.907868002138517"><ele>85.0</ele><time>2026-04-06T08:14:00.043Z</time></trkpt><trkpt lat="45.434200627210224" lon="10.907730327111695"><ele>85.0</ele><time>2026-04-06T08:14:01.043Z</time></trkpt><trkpt lat="45.43423211141506" lon="10.907575767860688"><ele>85.0</ele><time>2026-04-06T08:14:02.043Z</time></trkpt><trkpt lat="45.434273162133685" lon="10.907404514176378"><ele>85.5</ele><time>2026-04-06T08:14:03.043Z</time></trkpt><trkpt lat="45.43431211531958" lon="10.907230722018147"><ele>86.0</ele><time>2026-04-06T08:14:04.043Z</time></trkpt><trkpt lat="45.434350523888554" lon="10.90706405650485"><ele>86.5</ele><time>2026-04-06T08:14:05.043Z</time></trkpt><trkpt lat="45.434389023226124" lon="10.906913465633842"><ele>87.0</ele><time>2026-04-06T08:14:06.043Z</time></trkpt><trkpt lat="45.43443088775893" lon="10.906777839206228"><ele>87.0</ele><time>2026-04-06T08:14:07.043Z</time></trkpt><trkpt lat="45.43448625903103" lon="10.906638648654088"><ele>87.0</ele><time>2026-04-06T08:14:08.043Z</time></trkpt><trkpt lat="45.43454259388764" lon="10.906490125897006"><ele>87.0</ele><time>2026-04-06T08:14:09.043Z</time></trkpt><trkpt lat="45.43461440334197" lon="10.906341795477216"><ele>87.0</ele><time>2026-04-06T08:14:10.043Z</time></trkpt><trkpt lat="45.43469942835626" lon="10.906205061675463"><ele>87.0</ele><time>2026-04-06T08:14:11.043Z</time></trkpt><trkpt lat="45.43477679846561" lon="10.906095320256675"><ele>87.0</ele><time>2026-04-06T08:14:12.043Z</time></trkpt><trkpt lat="45.43485382544362" lon="10.905968627494365"><ele>87.0</ele><time>2026-04-06T08:14:13.043Z</time></trkpt><trkpt lat="45.43495437583901" lon="10.905825739974107"><ele>87.0</ele><time>2026-04-06T08:14:14.043Z</time></trkpt><trkpt lat="45.43506575209306" lon="10.905662827868307"><ele>87.33333333333333</ele><time>2026-04-06T08:14:15.043Z</time></trkpt><trkpt lat="45.43516622841931" lon="10.905513637259224"><ele>87.66666666666666</ele><time>2026-04-06T08:14:16.043Z</time></trkpt><trkpt lat="45.43527035943742" lon="10.905358472493145"><ele>88.0</ele><time>2026-04-06T08:14:17.043Z</time></trkpt><trkpt lat="45.435382811886555" lon="10.905177983966114"><ele>88.33333333333333</ele><time>2026-04-06T08:14:18.043Z</time></trkpt><trkpt lat="45.43549837588361" lon="10.904999324657071"><ele>88.66666666666667</ele><time>2026-04-06T08:14:19.043Z</time></trkpt><trkpt lat="45.43561423326215" lon="10.904824231513883"><ele>89.0</ele><time>2026-04-06T08:14:20.043Z</time></trkpt><trkpt lat="45.43572313660593" lon="10.904660818829566"><ele>89.0</ele><time>2026-04-06T08:14:21.043Z</time></trkpt><trkpt lat="45.4358379902904" lon="10.904494296644557"><ele>89.0</ele><time>2026-04-06T08:14:22.043Z</time></trkpt><trkpt lat="45.435954495012304" lon="10.904321286528612"><ele>89.0</ele><time>2026-04-06T08:14:23.043Z</time></trkpt><trkpt lat="45.436072401443965" lon="10.904140878259287"><ele>89.0</ele><time>2026-04-06T08:14:24.043Z</time></trkpt><trkpt lat="45.43619511242788" lon="10.90396210190585"><ele>89.0</ele><time>2026-04-06T08:14:25.043Z</time></trkpt><trkpt lat="45.436326778073656" lon="10.903765042376959"><ele>89.0</ele><time>2026-04-06T08:14:26.043Z</time></trkpt><trkpt lat="45.43647110325376" lon="10.903547130322846"><ele>89.0</ele><time>2026-04-06T08:14:27.043Z</time></trkpt><trkpt lat="45.43660459777985" lon="10.903347545002152"><ele>89.0</ele><time>2026-04-06T08:14:28.043Z</time></trkpt><trkpt lat="45.43673700498574" lon="10.903149775617571"><ele>89.0</ele><time>2026-04-06T08:14:29.043Z</time></trkpt><trkpt lat="45.436879007600304" lon="10.90293530098419"><ele>89.0</ele><time>2026-04-06T08:14:30.043Z</time></trkpt><trkpt lat="45.4370253927097" lon="10.902720105459284"><ele>89.0</ele><time>2026-04-06T08:14:31.043Z</time></trkpt><trkpt lat="45.43717478495816" lon="10.902494436426933"><ele>89.0</ele><time>2026-04-06T08:14:32.043Z</time></trkpt><trkpt lat="45.43732241248724" lon="10.902258780072163"><ele>89.0</ele><time>2026-04-06T08:14:33.043Z</time></trkpt><trkpt lat="45.43747754467089" lon="10.902019624857127"><ele>89.0</ele><time>2026-04-06T08:14:34.043Z</time></trkpt><trkpt lat="45.437633713281656" lon="10.90175887832292"><ele>90.0</ele><time>2026-04-06T08:14:35.043Z</time></trkpt><trkpt lat="45.43779236225643" lon="10.901495906553293"><ele>91.0</ele><time>2026-04-06T08:14:36.043Z</time></trkpt><trkpt lat="45.43795335521258" lon="10.901225686423794"><ele>90.5</ele><time>2026-04-06T08:14:37.043Z</time></trkpt><trkpt lat="45.43814050828947" lon="10.900967728495859"><ele>90.0</ele><time>2026-04-06T08:14:38.043Z</time></trkpt><trkpt lat="45.43832695593411" lon="10.900692838441595"><ele>90.0</ele><time>2026-04-06T08:14:39.043Z</time></trkpt><trkpt lat="45.438293520154595" lon="10.900838064505411"><ele>90.0</ele><time>2026-04-06T08:14:40.043Z</time></trkpt><trkpt lat="45.43843234166142" lon="10.900637879234024"><ele>90.0</ele><time>2026-04-06T08:14:41.043Z</time></trkpt><trkpt lat="45.43857343802031" lon="10.900433006005562"><ele>90.0</ele><time>2026-04-06T08:14:42.043Z</time></trkpt><trkpt lat="45.438716650046345" lon="10.900212149693903"><ele>90.0</ele><time>2026-04-06T08:14:43.043Z</time></trkpt><trkpt lat="45.438860648593874" lon="10.899996075717139"><ele>90.0</ele><time>2026-04-06T08:14:44.043Z</time></trkpt><trkpt lat="45.439005195194575" lon="10.89978303781034"><ele>89.66666666666667</ele><time>2026-04-06T08:14:45.043Z</time></trkpt><trkpt lat="45.439144885932954" lon="10.899570189557041"><ele>89.33333333333334</ele><time>2026-04-06T08:14:46.043Z</time></trkpt><trkpt lat="45.4392880901707" lon="10.89935383505868"><ele>89.0</ele><time>2026-04-06T08:14:47.043Z</time></trkpt><trkpt lat="45.43944189231748" lon="10.899128395959641"><ele>90.0</ele><time>2026-04-06T08:14:48.043Z</time></trkpt><trkpt lat="45.439612934387654" lon="10.89888365319404"><ele>91.0</ele><time>2026-04-06T08:14:49.043Z</time></trkpt><trkpt lat="45.439791585545926" lon="10.898624810828363"><ele>91.0</ele><time>2026-04-06T08:14:50.043Z</time></trkpt><trkpt lat="45.439953025350995" lon="10.898376252355707"><ele>91.0</ele><time>2026-04-06T08:14:51.043Z</time></trkpt><trkpt lat="45.44010652805812" lon="10.89815035398784"><ele>91.0</ele><time>2026-04-06T08:14:52.043Z</time></trkpt><trkpt lat="45.44025387433513" lon="10.897929655533737"><ele>91.0</ele><time>2026-04-06T08:14:53.043Z</time></trkpt><trkpt lat="45.44039657587725" lon="10.897709361320393"><ele>91.0</ele><time>2026-04-06T08:14:54.043Z</time></trkpt><trkpt lat="45.44054877557799" lon="10.897485169775939"><ele>90.33333333333333</ele><time>2026-04-06T08:14:55.043Z</time></trkpt><trkpt lat="45.44070471004996" lon="10.89725039544081"><ele>89.66666666666667</ele><time>2026-04-06T08:14:56.043Z</time></trkpt><trkpt lat="45.440855957680476" lon="10.897030002674791"><ele>89.0</ele><time>2026-04-06T08:14:57.043Z</time></trkpt><trkpt lat="45.44099937545605" lon="10.89682711366158"><ele>89.66666666666667</ele><time>2026-04-06T08:14:58.043Z</time></trkpt><trkpt lat="45.44113702776936" lon="10.89662010249958"><ele>90.33333333333333</ele><time>2026-04-06T08:14:59.043Z</time></trkpt><trkpt lat="45.441280664731515" lon="10.896409202864398"><ele>91.0</ele><time>2026-04-06T08:15:00.043Z</time></trkpt><trkpt lat="45.441421712293" lon="10.896197778468494"><ele>91.0</ele><time>2026-04-06T08:15:01.043Z</time></trkpt><trkpt lat="45.44156221944352" lon="10.895990897067717"><ele>91.0</ele><time>2026-04-06T08:15:02.043Z</time></trkpt><trkpt lat="45.44170623528299" lon="10.895779426144678"><ele>91.0</ele><time>2026-04-06T08:15:03.043Z</time></trkpt><trkpt lat="45.44184996712245" lon="10.895559263625234"><ele>91.0</ele><time>2026-04-06T08:15:04.043Z</time></trkpt><trkpt lat="45.44199360598535" lon="10.895346417595182"><ele>91.0</ele><time>2026-04-06T08:15:05.043Z</time></trkpt><trkpt lat="45.44213882185199" lon="10.895133527705212"><ele>91.0</ele><time>2026-04-06T08:15:06.043Z</time></trkpt><trkpt lat="45.44228330986341" lon="10.894921698239223"><ele>90.66666666666666</ele><time>2026-04-06T08:15:07.043Z</time></trkpt><trkpt lat="45.44241859310889" lon="10.89472034347751"><ele>90.33333333333333</ele><time>2026-04-06T08:15:08.043Z</time></trkpt><trkpt lat="45.442551984988974" lon="10.894515655152423"><ele>90.0</ele><time>2026-04-06T08:15:09.043Z</time></trkpt><trkpt lat="45.442684670038105" lon="10.894320730939832"><ele>90.0</ele><time>2026-04-06T08:15:10.043Z</time></trkpt><trkpt lat="45.442813682208204" lon="10.894125690874434"><ele>90.0</ele><time>2026-04-06T08:15:11.043Z</time></trkpt><trkpt lat="45.44294619034696" lon="10.893928993959523"><ele>90.0</ele><time>2026-04-06T08:15:12.043Z</time></trkpt><trkpt lat="45.44308549793941" lon="10.893727181858608"><ele>90.0</ele><time>2026-04-06T08:15:13.043Z</time></trkpt><trkpt lat="45.44323224968809" lon="10.893517054676202"><ele>90.0</ele><time>2026-04-06T08:15:14.043Z</time></trkpt><trkpt lat="45.443385360041646" lon="10.89331592671232"><ele>90.0</ele><time>2026-04-06T08:15:15.043Z</time></trkpt><trkpt lat="45.443553799618066" lon="10.893136570203074"><ele>90.0</ele><time>2026-04-06T08:15:16.043Z</time></trkpt><trkpt lat="45.443733065174875" lon="10.892978760451646"><ele>90.0</ele><time>2026-04-06T08:15:17.043Z</time></trkpt><trkpt lat="45.44391119589568" lon="10.892843259775514"><ele>90.0</ele><time>2026-04-06T08:15:18.043Z</time></trkpt><trkpt lat="45.44409150153675" lon="10.892723171603214"><ele>90.0</ele><time>2026-04-06T08:15:19.043Z</time></trkpt><trkpt lat="45.444268250607934" lon="10.892620859614905"><ele>90.0</ele><time>2026-04-06T08:15:20.043Z</time></trkpt><trkpt lat="45.44444002772444" lon="10.89252868554875"><ele>90.0</ele><time>2026-04-06T08:15:21.043Z</time></trkpt><trkpt lat="45.444600831478674" lon="10.89243892477331"><ele>91.0</ele><time>2026-04-06T08:15:22.043Z</time></trkpt><trkpt lat="45.44475963917886" lon="10.892348465622828"><ele>92.0</ele><time>2026-04-06T08:15:23.043Z</time></trkpt><trkpt lat="45.44491587981481" lon="10.892259353491431"><ele>93.0</ele><time>2026-04-06T08:15:24.043Z</time></trkpt><trkpt lat="45.44506924766745" lon="10.892172183219651"><ele>93.0</ele><time>2026-04-06T08:15:25.043Z</time></trkpt><trkpt lat="45.44521142024207" lon="10.89209362617634"><ele>93.0</ele><time>2026-04-06T08:15:26.043Z</time></trkpt><trkpt lat="45.44535928709899" lon="10.89200114623952"><ele>93.0</ele><time>2026-04-06T08:15:27.043Z</time></trkpt><trkpt lat="45.445491495058015" lon="10.891925922574725"><ele>93.33333333333333</ele><time>2026-04-06T08:15:28.043Z</time></trkpt><trkpt lat="45.44563490364793" lon="10.891838768979097"><ele>93.66666666666666</ele><time>2026-04-06T08:15:29.043Z</time></trkpt><trkpt lat="45.44578045177194" lon="10.891747644987063"><ele>94.0</ele><time>2026-04-06T08:15:30.043Z</time></trkpt><trkpt lat="45.445934975659995" lon="10.891630977733564"><ele>94.0</ele><time>2026-04-06T08:15:31.043Z</time></trkpt><trkpt lat="45.44609178903544" lon="10.891501648405548"><ele>94.0</ele><time>2026-04-06T08:15:32.043Z</time></trkpt><trkpt lat="45.44624251137621" lon="10.89135982999399"><ele>94.0</ele><time>2026-04-06T08:15:33.043Z</time></trkpt><trkpt lat="45.446375250771055" lon="10.891229871660062"><ele>94.0</ele><time>2026-04-06T08:15:34.043Z</time></trkpt><trkpt lat="45.446501366150166" lon="10.891093886808878"><ele>94.0</ele><time>2026-04-06T08:15:35.043Z</time></trkpt><trkpt lat="45.44661781145662" lon="10.89096617438807"><ele>94.0</ele><time>2026-04-06T08:15:36.043Z</time></trkpt><trkpt lat="45.446722639425154" lon="10.890846665870837"><ele>94.0</ele><time>2026-04-06T08:15:37.043Z</time></trkpt><trkpt lat="45.44682325901765" lon="10.89073510369628"><ele>94.0</ele><time>2026-04-06T08:15:38.043Z</time></trkpt><trkpt lat="45.446929576276474" lon="10.890636039760249"><ele>94.0</ele><time>2026-04-06T08:15:39.043Z</time></trkpt><trkpt lat="45.4470271810907" lon="10.890539758581136"><ele>94.0</ele><time>2026-04-06T08:15:40.043Z</time></trkpt><trkpt lat="45.44712152446495" lon="10.890442362454465"><ele>94.0</ele><time>2026-04-06T08:15:41.044Z</time></trkpt><trkpt lat="45.447206085327174" lon="10.890350882076255"><ele>94.0</ele><time>2026-04-06T08:15:42.044Z</time></trkpt><trkpt lat="45.44728638832704" lon="10.890270576274943"><ele>94.0</ele><time>2026-04-06T08:15:43.044Z</time></trkpt><trkpt lat="45.44737242141668" lon="10.890204652811283"><ele>94.0</ele><time>2026-04-06T08:15:44.044Z</time></trkpt><trkpt lat="45.44747302771297" lon="10.8901674603202"><ele>94.0</ele><time>2026-04-06T08:15:45.044Z</time></trkpt><trkpt lat="45.4475723889318" lon="10.890207933221076"><ele>94.0</ele><time>2026-04-06T08:15:46.044Z</time></trkpt><trkpt lat="45.44765736828701" lon="10.89030393061959"><ele>94.0</ele><time>2026-04-06T08:15:47.044Z</time></trkpt><trkpt lat="45.447721912405235" lon="10.890444090589416"><ele>94.0</ele><time>2026-04-06T08:15:48.044Z</time></trkpt><trkpt lat="45.44773500970399" lon="10.890610969385957"><ele>94.0</ele><time>2026-04-06T08:15:49.044Z</time></trkpt><trkpt lat="45.44771130733144" lon="10.89078132172353"><ele>94.0</ele><time>2026-04-06T08:15:50.044Z</time></trkpt><trkpt lat="45.447662793207975" lon="10.890966900718508"><ele>94.0</ele><time>2026-04-06T08:15:51.044Z</time></trkpt><trkpt lat="45.447594200639585" lon="10.89117141476289"><ele>94.0</ele><time>2026-04-06T08:15:52.044Z</time></trkpt><trkpt lat="45.44750276892608" lon="10.89139229859171"><ele>94.0</ele><time>2026-04-06T08:15:53.044Z</time></trkpt><trkpt lat="45.44741916230787" lon="10.891615660650285"><ele>94.0</ele><time>2026-04-06T08:15:54.044Z</time></trkpt><trkpt lat="45.44735734714281" lon="10.891802239303667"><ele>94.0</ele><time>2026-04-06T08:15:55.044Z</time></trkpt><trkpt lat="45.44730550106413" lon="10.89196212002228"><ele>94.0</ele><time>2026-04-06T08:15:56.044Z</time></trkpt><trkpt lat="45.44724404660469" lon="10.892083721622743"><ele>94.0</ele><time>2026-04-06T08:15:57.044Z</time></trkpt><trkpt lat="45.44714949105772" lon="10.89216555367624"><ele>94.5</ele><time>2026-04-06T08:15:58.044Z</time></trkpt><trkpt lat="45.44703555435456" lon="10.892191482404376"><ele>95.0</ele><time>2026-04-06T08:15:59.044Z</time></trkpt><trkpt lat="45.446914255837704" lon="10.892149445662742"><ele>95.5</ele><time>2026-04-06T08:16:00.044Z</time></trkpt><trkpt lat="45.44679551736951" lon="10.892045170836159"><ele>96.0</ele><time>2026-04-06T08:16:01.044Z</time></trkpt><trkpt lat="45.44673600292568" lon="10.891896712150027"><ele>95.5</ele><time>2026-04-06T08:16:02.044Z</time></trkpt><trkpt lat="45.44671577431762" lon="10.891718670728723"><ele>95.0</ele><time>2026-04-06T08:16:03.044Z</time></trkpt><trkpt lat="45.44669438095628" lon="10.891519224836221"><ele>94.5</ele><time>2026-04-06T08:16:04.044Z</time></trkpt><trkpt lat="45.44670213320174" lon="10.891325996101964"><ele>94.0</ele><time>2026-04-06T08:16:05.044Z</time></trkpt><trkpt lat="45.44669723140999" lon="10.891136683509767"><ele>94.33333333333333</ele><time>2026-04-06T08:16:06.044Z</time></trkpt><trkpt lat="45.446681520749365" lon="10.89091365730239"><ele>94.66666666666667</ele><time>2026-04-06T08:16:07.044Z</time></trkpt><trkpt lat="45.44666919813014" lon="10.890661030512607"><ele>95.0</ele><time>2026-04-06T08:16:08.044Z</time></trkpt><trkpt lat="45.44666433357616" lon="10.890420420930939"><ele>95.0</ele><time>2026-04-06T08:16:09.044Z</time></trkpt><trkpt lat="45.4466716810998" lon="10.890182577230954"><ele>95.0</ele><time>2026-04-06T08:16:10.044Z</time></trkpt><trkpt lat="45.44668408919582" lon="10.889918611008568"><ele>95.0</ele><time>2026-04-06T08:16:11.044Z</time></trkpt><trkpt lat="45.446674720770154" lon="10.88907685937169"><ele>95.0</ele><time>2026-04-06T08:16:14.044Z</time></trkpt><trkpt lat="45.4466591427711" lon="10.888805904386818"><ele>95.0</ele><time>2026-04-06T08:16:15.044Z</time></trkpt><trkpt lat="45.44663364660271" lon="10.888529811501105"><ele>95.0</ele><time>2026-04-06T08:16:16.044Z</time></trkpt><trkpt lat="45.44660400872939" lon="10.888244621055069"><ele>95.0</ele><time>2026-04-06T08:16:17.044Z</time></trkpt><trkpt lat="45.446576982486356" lon="10.887949629268709"><ele>95.0</ele><time>2026-04-06T08:16:18.044Z</time></trkpt><trkpt lat="45.44655246721924" lon="10.887649187728552"><ele>95.0</ele><time>2026-04-06T08:16:19.044Z</time></trkpt><trkpt lat="45.446527691235886" lon="10.887348450728688"><ele>95.0</ele><time>2026-04-06T08:16:20.044Z</time></trkpt><trkpt lat="45.446506176142925" lon="10.887044262634534"><ele>95.0</ele><time>2026-04-06T08:16:21.044Z</time></trkpt><trkpt lat="45.44648810159376" lon="10.886759415762045"><ele>95.0</ele><time>2026-04-06T08:16:22.044Z</time></trkpt><trkpt lat="45.446467879115566" lon="10.886491627961451"><ele>95.66666666666667</ele><time>2026-04-06T08:16:23.044Z</time></trkpt><trkpt lat="45.446452422542045" lon="10.886241215873808"><ele>96.33333333333334</ele><time>2026-04-06T08:16:24.044Z</time></trkpt><trkpt lat="45.44643792702516" lon="10.885994959223762"><ele>97.0</ele><time>2026-04-06T08:16:25.044Z</time></trkpt><trkpt lat="45.44642640444827" lon="10.885766908022438"><ele>97.33333333333334</ele><time>2026-04-06T08:16:26.044Z</time></trkpt><trkpt lat="45.44642622109601" lon="10.885528853084137"><ele>97.66666666666666</ele><time>2026-04-06T08:16:27.044Z</time></trkpt><trkpt lat="45.44639957742353" lon="10.8852952571665"><ele>98.0</ele><time>2026-04-06T08:16:28.044Z</time></trkpt><trkpt lat="45.446407967602674" lon="10.885047733690955"><ele>98.33333333333333</ele><time>2026-04-06T08:16:29.044Z</time></trkpt><trkpt lat="45.4464038550522" lon="10.884791699291922"><ele>98.66666666666666</ele><time>2026-04-06T08:16:30.044Z</time></trkpt><trkpt lat="45.446401658285346" lon="10.88453279140105"><ele>99.0</ele><time>2026-04-06T08:16:31.044Z</time></trkpt><trkpt lat="45.446399056372265" lon="10.88426325074421"><ele>99.33333333333334</ele><time>2026-04-06T08:16:32.044Z</time></trkpt><trkpt lat="45.44639916521917" lon="10.883980504578409"><ele>99.66666666666667</ele><time>2026-04-06T08:16:33.044Z</time></trkpt><trkpt lat="45.4464002333325" lon="10.883674405440063"><ele>100.0</ele><time>2026-04-06T08:16:34.044Z</time></trkpt><trkpt lat="45.446401344429624" lon="10.883355996057702"><ele>100.0</ele><time>2026-04-06T08:16:35.044Z</time></trkpt><trkpt lat="45.446397864645775" lon="10.88306276436574"><ele>100.0</ele><time>2026-04-06T08:16:36.044Z</time></trkpt><trkpt lat="45.44639571911632" lon="10.882779027795246"><ele>100.0</ele><time>2026-04-06T08:16:37.044Z</time></trkpt><trkpt lat="45.44639422485357" lon="10.882495885529677"><ele>99.66666666666667</ele><time>2026-04-06T08:16:38.044Z</time></trkpt><trkpt lat="45.446392169948325" lon="10.882188561344352"><ele>99.33333333333334</ele><time>2026-04-06T08:16:39.044Z</time></trkpt><trkpt lat="45.44639006829413" lon="10.881866530187478"><ele>99.0</ele><time>2026-04-06T08:16:40.044Z</time></trkpt><trkpt lat="45.44638821663036" lon="10.88158280471991"><ele>98.33333333333334</ele><time>2026-04-06T08:16:41.044Z</time></trkpt><trkpt lat="45.44637240897177" lon="10.881310041258589"><ele>97.66666666666667</ele><time>2026-04-06T08:16:42.044Z</time></trkpt><trkpt lat="45.44637129589212" lon="10.88107660769265"><ele>97.0</ele><time>2026-04-06T08:16:43.044Z</time></trkpt><trkpt lat="45.44636772213455" lon="10.880904684139232"><ele>97.8</ele><time>2026-04-06T08:16:44.044Z</time></trkpt><trkpt lat="45.4463821578464" lon="10.880765531229613"><ele>98.6</ele><time>2026-04-06T08:16:45.044Z</time></trkpt><trkpt lat="45.44638114900698" lon="10.880631011353996"><ele>99.39999999999999</ele><time>2026-04-06T08:16:46.044Z</time></trkpt><trkpt lat="45.446380118885386" lon="10.880493653722413"><ele>100.19999999999999</ele><time>2026-04-06T08:16:47.044Z</time></trkpt><trkpt lat="45.44637924534075" lon="10.880350463959862"><ele>101.0</ele><time>2026-04-06T08:16:48.044Z</time></trkpt><trkpt lat="45.44637855680764" lon="10.880195469835014"><ele>100.8</ele><time>2026-04-06T08:16:49.044Z</time></trkpt><trkpt lat="45.446377499546514" lon="10.880028427693166"><ele>100.6</ele><time>2026-04-06T08:16:50.044Z</time></trkpt><trkpt lat="45.446376337193584" lon="10.879849549717218"><ele>100.4</ele><time>2026-04-06T08:16:51.044Z</time></trkpt><trkpt lat="45.4463753743093" lon="10.879701366688836"><ele>100.2</ele><time>2026-04-06T08:16:52.044Z</time></trkpt><trkpt lat="45.44637457874551" lon="10.879578933762577"><ele>100.0</ele><time>2026-04-06T08:16:54.044Z</time></trkpt><trkpt lat="45.44636248006558" lon="10.879474079915964"><ele>100.0</ele><time>2026-04-06T08:16:56.044Z</time></trkpt><trkpt lat="45.4463635380221" lon="10.879380905458923"><ele>100.0</ele><time>2026-04-06T08:16:58.044Z</time></trkpt><trkpt lat="45.446369235469" lon="10.879203124143734"><ele>100.0</ele><time>2026-04-06T08:17:00.044Z</time></trkpt><trkpt lat="45.446367050610185" lon="10.879042736122585"><ele>100.0</ele><time>2026-04-06T08:17:02.044Z</time></trkpt><trkpt lat="45.44637063851732" lon="10.878851727801406"><ele>100.0</ele><time>2026-04-06T08:17:04.044Z</time></trkpt><trkpt lat="45.44636657740419" lon="10.8787505516721"><ele>100.00000000000001</ele><time>2026-04-06T08:17:05.044Z</time></trkpt><trkpt lat="45.44636647100315" lon="10.878658593010782"><ele>100.0</ele><time>2026-04-06T08:17:06.044Z</time></trkpt><trkpt lat="45.44636823772287" lon="10.878558714402164"><ele>100.0</ele><time>2026-04-06T08:17:07.044Z</time></trkpt><trkpt lat="45.446368448262696" lon="10.878462848026935"><ele>100.0</ele><time>2026-04-06T08:17:08.044Z</time></trkpt><trkpt lat="45.44636966863624" lon="10.878370423094166"><ele>100.00000000000001</ele><time>2026-04-06T08:17:09.044Z</time></trkpt><trkpt lat="45.446378716358105" lon="10.878185459454143"><ele>100.0</ele><time>2026-04-06T08:17:11.044Z</time></trkpt><trkpt lat="45.44637296480734" lon="10.878067083979849"><ele>100.25</ele><time>2026-04-06T08:17:12.044Z</time></trkpt><trkpt lat="45.44636797346416" lon="10.877958397394147"><ele>100.5</ele><time>2026-04-06T08:17:13.044Z</time></trkpt><trkpt lat="45.4463602583535" lon="10.877830406598315"><ele>100.75</ele><time>2026-04-06T08:17:14.044Z</time></trkpt><trkpt lat="45.446347900769446" lon="10.877636116136314"><ele>101.0</ele><time>2026-04-06T08:17:15.044Z</time></trkpt><trkpt lat="45.44634726854218" lon="10.877418666704996"><ele>101.0</ele><time>2026-04-06T08:17:16.044Z</time></trkpt><trkpt lat="45.44634853039558" lon="10.877146970616597"><ele>101.0</ele><time>2026-04-06T08:17:17.044Z</time></trkpt><trkpt lat="45.44634627048363" lon="10.876841285242252"><ele>101.0</ele><time>2026-04-06T08:17:18.044Z</time></trkpt><trkpt lat="45.44634829843434" lon="10.876571867076661"><ele>100.66666666666666</ele><time>2026-04-06T08:17:19.044Z</time></trkpt><trkpt lat="45.44634654088169" lon="10.876322126116017"><ele>100.33333333333334</ele><time>2026-04-06T08:17:20.044Z</time></trkpt><trkpt lat="45.44634429346876" lon="10.876064763087145"><ele>100.0</ele><time>2026-04-06T08:17:21.044Z</time></trkpt><trkpt lat="45.44634544829028" lon="10.875803910002954"><ele>100.0</ele><time>2026-04-06T08:17:22.044Z</time></trkpt><trkpt lat="45.44634456748772" lon="10.875553426021371"><ele>100.0</ele><time>2026-04-06T08:17:23.044Z</time></trkpt><trkpt lat="45.446350027344984" lon="10.87531929908807"><ele>100.0</ele><time>2026-04-06T08:17:24.044Z</time></trkpt><trkpt lat="45.44634323778661" lon="10.875076749990846"><ele>100.66666666666667</ele><time>2026-04-06T08:17:25.044Z</time></trkpt><trkpt lat="45.44633809526273" lon="10.874864919537867"><ele>101.33333333333334</ele><time>2026-04-06T08:17:26.044Z</time></trkpt><trkpt lat="45.446337460961416" lon="10.874642991784386"><ele>102.0</ele><time>2026-04-06T08:17:27.044Z</time></trkpt><trkpt lat="45.4463334433012" lon="10.874417928145752"><ele>102.75</ele><time>2026-04-06T08:17:28.044Z</time></trkpt><trkpt lat="45.44633294061608" lon="10.874210222008289"><ele>103.5</ele><time>2026-04-06T08:17:29.044Z</time></trkpt><trkpt lat="45.44632962806536" lon="10.874012233013419"><ele>104.25</ele><time>2026-04-06T08:17:30.044Z</time></trkpt><trkpt lat="45.44633283125147" lon="10.873846986805864"><ele>105.0</ele><time>2026-04-06T08:17:31.044Z</time></trkpt><trkpt lat="45.44633425968118" lon="10.873702224060906"><ele>105.0</ele><time>2026-04-06T08:17:32.044Z</time></trkpt><trkpt lat="45.4463532479006" lon="10.87356647010575"><ele>105.0</ele><time>2026-04-06T08:17:33.044Z</time></trkpt><trkpt lat="45.44633600560279" lon="10.873381376993306"><ele>105.0</ele><time>2026-04-06T08:17:34.044Z</time></trkpt><trkpt lat="45.446327787333445" lon="10.873220413080336"><ele>105.0</ele><time>2026-04-06T08:17:35.044Z</time></trkpt><trkpt lat="45.446318333709605" lon="10.873059347688569"><ele>104.75</ele><time>2026-04-06T08:17:36.044Z</time></trkpt><trkpt lat="45.446324404125754" lon="10.872895014457862"><ele>104.5</ele><time>2026-04-06T08:17:37.044Z</time></trkpt><trkpt lat="45.44632701127947" lon="10.87273010922912"><ele>104.25</ele><time>2026-04-06T08:17:38.044Z</time></trkpt><trkpt lat="45.44632509703057" lon="10.872564050493594"><ele>104.0</ele><time>2026-04-06T08:17:39.044Z</time></trkpt><trkpt lat="45.446324992051586" lon="10.872387115624077"><ele>104.0</ele><time>2026-04-06T08:17:40.044Z</time></trkpt><trkpt lat="45.44632219245603" lon="10.872204479673744"><ele>104.0</ele><time>2026-04-06T08:17:41.044Z</time></trkpt><trkpt lat="45.446318902718254" lon="10.872009288958113"><ele>104.0</ele><time>2026-04-06T08:17:42.044Z</time></trkpt><trkpt lat="45.44632415548326" lon="10.871823136244716"><ele>104.0</ele><time>2026-04-06T08:17:43.044Z</time></trkpt><trkpt lat="45.44632195287369" lon="10.871660477405118"><ele>103.66666666666666</ele><time>2026-04-06T08:17:44.044Z</time></trkpt><trkpt lat="45.44631809065033" lon="10.871544347796997"><ele>103.33333333333333</ele><time>2026-04-06T08:17:45.044Z</time></trkpt><trkpt lat="45.44631624859015" lon="10.87143834926214"><ele>103.0</ele><time>2026-04-06T08:17:46.044Z</time></trkpt><trkpt lat="45.446312320251785" lon="10.871330106665757"><ele>102.66666666666666</ele><time>2026-04-06T08:17:47.045Z</time></trkpt><trkpt lat="45.446310955782515" lon="10.871220000306769"><ele>102.33333333333333</ele><time>2026-04-06T08:17:48.045Z</time></trkpt><trkpt lat="45.44630783129468" lon="10.871097460900659"><ele>102.0</ele><time>2026-04-06T08:17:49.045Z</time></trkpt><trkpt lat="45.44630549908988" lon="10.870972958373875"><ele>102.0</ele><time>2026-04-06T08:17:50.045Z</time></trkpt><trkpt lat="45.44630677507" lon="10.870842716788367"><ele>102.0</ele><time>2026-04-06T08:17:51.045Z</time></trkpt><trkpt lat="45.44630231883448" lon="10.870722732004943"><ele>102.0</ele><time>2026-04-06T08:17:52.045Z</time></trkpt><trkpt lat="45.44630101270088" lon="10.87061197693364"><ele>102.0</ele><time>2026-04-06T08:17:53.045Z</time></trkpt><trkpt lat="45.44629870189209" lon="10.870516542517056"><ele>102.0</ele><time>2026-04-06T08:17:54.045Z</time></trkpt><trkpt lat="45.44629482573324" lon="10.870367219634568"><ele>102.0</ele><time>2026-04-06T08:17:56.045Z</time></trkpt><trkpt lat="45.4462942905799" lon="10.870240324391377"><ele>102.0</ele><time>2026-04-06T08:17:58.045Z</time></trkpt><trkpt lat="45.446286398511425" lon="10.87012534340861"><ele>102.0</ele><time>2026-04-06T08:18:00.045Z</time></trkpt><trkpt lat="45.4462886911905" lon="10.870008334600309"><ele>102.0</ele><time>2026-04-06T08:18:03.045Z</time></trkpt><trkpt lat="45.44628749522873" lon="10.869893259688505"><ele>102.0</ele><time>2026-04-06T08:18:05.045Z</time></trkpt><trkpt lat="45.446286651071766" lon="10.86974147739446"><ele>102.0</ele><time>2026-04-06T08:18:07.045Z</time></trkpt><trkpt lat="45.446299240764176" lon="10.869612864350325"><ele>102.0</ele><time>2026-04-06T08:18:11.045Z</time></trkpt><trkpt lat="45.446298498770034" lon="10.869486662340826"><ele>102.0</ele><time>2026-04-06T08:18:13.045Z</time></trkpt><trkpt lat="45.44629787501411" lon="10.869380571054824"><ele>102.0</ele><time>2026-04-06T08:18:15.045Z</time></trkpt><trkpt lat="45.44629732352967" lon="10.86928677189509"><ele>102.0</ele><time>2026-04-06T08:18:17.045Z</time></trkpt><trkpt lat="45.44629659921425" lon="10.869163576412559"><ele>102.0</ele><time>2026-04-06T08:18:20.045Z</time></trkpt><trkpt lat="45.44629601408115" lon="10.8690576528715"><ele>102.0</ele><time>2026-04-06T08:18:24.045Z</time></trkpt><trkpt lat="45.44628896654923" lon="10.868928721330365"><ele>102.0</ele><time>2026-04-06T08:18:32.045Z</time></trkpt><trkpt lat="45.44632659074813" lon="10.868788369141082"><ele>102.0</ele><time>2026-04-06T08:18:37.045Z</time></trkpt><trkpt lat="45.44628965847212" lon="10.868707828733411"><ele>102.0</ele><time>2026-04-06T08:18:38.045Z</time></trkpt><trkpt lat="45.446283854790664" lon="10.868618468032654"><ele>102.0</ele><time>2026-04-06T08:18:39.045Z</time></trkpt><trkpt lat="45.44629274391572" lon="10.868464952982615"><ele>102.0</ele><time>2026-04-06T08:18:41.045Z</time></trkpt><trkpt lat="45.44629188672605" lon="10.86830761361642"><ele>102.0</ele><time>2026-04-06T08:18:43.045Z</time></trkpt><trkpt lat="45.44629137259541" lon="10.868213243475989"><ele>102.0</ele><time>2026-04-06T08:18:44.045Z</time></trkpt><trkpt lat="45.44629079896844" lon="10.86810795268839"><ele>102.0</ele><time>2026-04-06T08:18:45.045Z</time></trkpt><trkpt lat="45.446290244234476" lon="10.868006129814896"><ele>102.0</ele><time>2026-04-06T08:18:46.045Z</time></trkpt><trkpt lat="45.446288966137416" lon="10.867847540668569"><ele>102.0</ele><time>2026-04-06T08:18:48.045Z</time></trkpt><trkpt lat="45.44628793640626" lon="10.867691617512708"><ele>102.0</ele><time>2026-04-06T08:18:50.045Z</time></trkpt><trkpt lat="45.44628734197969" lon="10.867601608605534"><ele>102.0</ele><time>2026-04-06T08:18:51.045Z</time></trkpt><trkpt lat="45.446286633849226" lon="10.867494382729793"><ele>102.0</ele><time>2026-04-06T08:18:52.045Z</time></trkpt><trkpt lat="45.44628595504233" lon="10.867391597074556"><ele>101.83333333333333</ele><time>2026-04-06T08:18:53.045Z</time></trkpt><trkpt lat="45.446285323872466" lon="10.867296024697362"><ele>101.66666666666666</ele><time>2026-04-06T08:18:54.045Z</time></trkpt><trkpt lat="45.44628459165874" lon="10.867202866077537"><ele>101.5</ele><time>2026-04-06T08:18:55.045Z</time></trkpt><trkpt lat="45.44628382695545" lon="10.867111580850064"><ele>101.33333333333333</ele><time>2026-04-06T08:18:56.045Z</time></trkpt><trkpt lat="45.446282511467984" lon="10.866954546888554"><ele>101.16666666666666</ele><time>2026-04-06T08:18:58.045Z</time></trkpt><trkpt lat="45.446281278117674" lon="10.866807317716805"><ele>101.0</ele><time>2026-04-06T08:19:00.045Z</time></trkpt><trkpt lat="45.44628004313631" lon="10.866659893753482"><ele>100.99999999999999</ele><time>2026-04-06T08:19:02.045Z</time></trkpt><trkpt lat="45.44627926520893" lon="10.866567029977436"><ele>101.0</ele><time>2026-04-06T08:19:03.045Z</time></trkpt><trkpt lat="45.44626248275489" lon="10.866381090378512"><ele>101.0</ele><time>2026-04-06T08:19:05.045Z</time></trkpt><trkpt lat="45.44628280435823" lon="10.866294377190709"><ele>101.0</ele><time>2026-04-06T08:19:06.045Z</time></trkpt><trkpt lat="45.446295176730345" lon="10.866200670473628"><ele>100.99999999999999</ele><time>2026-04-06T08:19:07.045Z</time></trkpt><trkpt lat="45.44633395498125" lon="10.866045314815516"><ele>101.0</ele><time>2026-04-06T08:19:09.045Z</time></trkpt><trkpt lat="45.4463132956285" lon="10.865852963432966"><ele>100.99999999999999</ele><time>2026-04-06T08:19:11.045Z</time></trkpt><trkpt lat="45.44627458848496" lon="10.865725400108417"><ele>101.0</ele><time>2026-04-06T08:19:12.045Z</time></trkpt><trkpt lat="45.446272757384286" lon="10.865614460318062"><ele>101.0</ele><time>2026-04-06T08:19:13.045Z</time></trkpt><trkpt lat="45.4462748999313" lon="10.865506324489463"><ele>101.0</ele><time>2026-04-06T08:19:14.045Z</time></trkpt><trkpt lat="45.44627681559929" lon="10.865411712038446"><ele>100.99999999999999</ele><time>2026-04-06T08:19:15.045Z</time></trkpt><trkpt lat="45.44628336309551" lon="10.865305111784293"><ele>101.0</ele><time>2026-04-06T08:19:16.045Z</time></trkpt><trkpt lat="45.44629355702858" lon="10.865210873928444"><ele>101.42857142857143</ele><time>2026-04-06T08:19:17.045Z</time></trkpt><trkpt lat="45.44629907900211" lon="10.865117308690596"><ele>101.85714285714286</ele><time>2026-04-06T08:19:18.045Z</time></trkpt><trkpt lat="45.446306409114484" lon="10.86502111804745"><ele>102.28571428571428</ele><time>2026-04-06T08:19:19.045Z</time></trkpt><trkpt lat="45.44631883507905" lon="10.864929121050022"><ele>102.71428571428572</ele><time>2026-04-06T08:19:20.045Z</time></trkpt><trkpt lat="45.44634099173272" lon="10.86483315930594"><ele>103.14285714285715</ele><time>2026-04-06T08:19:21.045Z</time></trkpt><trkpt lat="45.4463726589924" lon="10.864728622100191"><ele>103.57142857142857</ele><time>2026-04-06T08:19:22.045Z</time></trkpt><trkpt lat="45.44641219431681" lon="10.864599616702584"><ele>104.0</ele><time>2026-04-06T08:19:23.045Z</time></trkpt><trkpt lat="45.446485618066596" lon="10.864538316097695"><ele>104.2</ele><time>2026-04-06T08:19:24.045Z</time></trkpt><trkpt lat="45.44652798446897" lon="10.864436232982532"><ele>104.4</ele><time>2026-04-06T08:19:25.045Z</time></trkpt><trkpt lat="45.44655497038821" lon="10.864327109278518"><ele>104.6</ele><time>2026-04-06T08:19:26.045Z</time></trkpt><trkpt lat="45.44657055227818" lon="10.864194384761113"><ele>104.8</ele><time>2026-04-06T08:19:27.045Z</time></trkpt><trkpt lat="45.44657047066226" lon="10.864061473396765"><ele>105.0</ele><time>2026-04-06T08:19:28.045Z</time></trkpt><trkpt lat="45.446540615909356" lon="10.863927285898326"><ele>104.6</ele><time>2026-04-06T08:19:29.045Z</time></trkpt><trkpt lat="45.44648276063146" lon="10.863799369566115"><ele>104.2</ele><time>2026-04-06T08:19:30.045Z</time></trkpt><trkpt lat="45.44642403840632" lon="10.863696594962988"><ele>103.80000000000001</ele><time>2026-04-06T08:19:31.045Z</time></trkpt><trkpt lat="45.44636849300696" lon="10.863595543735073"><ele>103.4</ele><time>2026-04-06T08:19:32.045Z</time></trkpt><trkpt lat="45.4463310884666" lon="10.8634732416541"><ele>103.0</ele><time>2026-04-06T08:19:33.045Z</time></trkpt><trkpt lat="45.44630437886889" lon="10.863340150117844"><ele>102.75</ele><time>2026-04-06T08:19:34.045Z</time></trkpt><trkpt lat="45.44629619601388" lon="10.863175628025237"><ele>102.5</ele><time>2026-04-06T08:19:35.045Z</time></trkpt><trkpt lat="45.44627928912812" lon="10.863017615643187"><ele>102.25</ele><time>2026-04-06T08:19:36.045Z</time></trkpt><trkpt lat="45.44625322521089" lon="10.862878982734847"><ele>102.0</ele><time>2026-04-06T08:19:37.045Z</time></trkpt><trkpt lat="45.44631560233382" lon="10.862723953239321"><ele>102.0</ele><time>2026-04-06T08:19:38.045Z</time></trkpt><trkpt lat="45.446331481605995" lon="10.862594959077645"><ele>102.0</ele><time>2026-04-06T08:19:39.045Z</time></trkpt><trkpt lat="45.44631898152648" lon="10.862465205058765"><ele>102.0</ele><time>2026-04-06T08:19:40.045Z</time></trkpt><trkpt lat="45.44626080130461" lon="10.862296806428308"><ele>102.0</ele><time>2026-04-06T08:19:41.045Z</time></trkpt><trkpt lat="45.446263792598835" lon="10.862174777793555"><ele>102.0</ele><time>2026-04-06T08:19:42.045Z</time></trkpt><trkpt lat="45.44625864509189" lon="10.86206279614284"><ele>102.0</ele><time>2026-04-06T08:19:43.045Z</time></trkpt><trkpt lat="45.44625758756538" lon="10.861929799769316"><ele>102.0</ele><time>2026-04-06T08:19:44.045Z</time></trkpt><trkpt lat="45.446260854113255" lon="10.861795018029923"><ele>102.0</ele><time>2026-04-06T08:19:45.045Z</time></trkpt><trkpt lat="45.44626178082802" lon="10.861650701540382"><ele>102.0</ele><time>2026-04-06T08:19:46.045Z</time></trkpt><trkpt lat="45.44625616708546" lon="10.861501627374944"><ele>102.0</ele><time>2026-04-06T08:19:47.045Z</time></trkpt><trkpt lat="45.44625688440707" lon="10.861350975464818"><ele>102.19999999999999</ele><time>2026-04-06T08:19:48.045Z</time></trkpt><trkpt lat="45.44625646357369" lon="10.861208265302439"><ele>102.4</ele><time>2026-04-06T08:19:49.045Z</time></trkpt><trkpt lat="45.446254356780145" lon="10.861070411447622"><ele>102.6</ele><time>2026-04-06T08:19:50.045Z</time></trkpt><trkpt lat="45.44625105361613" lon="10.8609435233683"><ele>102.80000000000001</ele><time>2026-04-06T08:19:51.045Z</time></trkpt><trkpt lat="45.4462503057827" lon="10.860819130055"><ele>103.0</ele><time>2026-04-06T08:19:52.045Z</time></trkpt><trkpt lat="45.44624656620702" lon="10.860691301046796"><ele>103.0</ele><time>2026-04-06T08:19:53.045Z</time></trkpt><trkpt lat="45.44624638001457" lon="10.860564120544222"><ele>103.0</ele><time>2026-04-06T08:19:54.045Z</time></trkpt><trkpt lat="45.44623904311555" lon="10.860421240932357"><ele>103.0</ele><time>2026-04-06T08:19:55.045Z</time></trkpt><trkpt lat="45.44624116184963" lon="10.860272615177683"><ele>103.0</ele><time>2026-04-06T08:19:56.045Z</time></trkpt><trkpt lat="45.446237949107534" lon="10.860115001481061"><ele>103.0</ele><time>2026-04-06T08:19:57.045Z</time></trkpt><trkpt lat="45.44624228259737" lon="10.859959212775818"><ele>102.75</ele><time>2026-04-06T08:19:58.045Z</time></trkpt><trkpt lat="45.44623769256163" lon="10.859801213819436"><ele>102.5</ele><time>2026-04-06T08:19:59.045Z</time></trkpt><trkpt lat="45.44623244928168" lon="10.8596502813463"><ele>102.25</ele><time>2026-04-06T08:20:00.045Z</time></trkpt><trkpt lat="45.44623431434701" lon="10.85948992341868"><ele>102.0</ele><time>2026-04-06T08:20:01.045Z</time></trkpt><trkpt lat="45.44623692884561" lon="10.859317938188296"><ele>102.19999999999999</ele><time>2026-04-06T08:20:02.045Z</time></trkpt><trkpt lat="45.446239203608684" lon="10.85915648791679"><ele>102.4</ele><time>2026-04-06T08:20:03.045Z</time></trkpt><trkpt lat="45.446231487496426" lon="10.858988676890814"><ele>102.6</ele><time>2026-04-06T08:20:04.045Z</time></trkpt><trkpt lat="45.4462314120039" lon="10.858845640688378"><ele>102.80000000000001</ele><time>2026-04-06T08:20:05.045Z</time></trkpt><trkpt lat="45.44623475355888" lon="10.858712544193745"><ele>103.0</ele><time>2026-04-06T08:20:06.045Z</time></trkpt><trkpt lat="45.44623751973088" lon="10.858574696534165"><ele>102.75</ele><time>2026-04-06T08:20:07.045Z</time></trkpt><trkpt lat="45.446235101239964" lon="10.858414896293914"><ele>102.5</ele><time>2026-04-06T08:20:08.045Z</time></trkpt><trkpt lat="45.446229388374014" lon="10.858245213742084"><ele>102.25</ele><time>2026-04-06T08:20:09.045Z</time></trkpt><trkpt lat="45.44623421458337" lon="10.858074633685824"><ele>102.0</ele><time>2026-04-06T08:20:10.045Z</time></trkpt><trkpt lat="45.44623233885068" lon="10.857886022319448"><ele>102.0</ele><time>2026-04-06T08:20:11.045Z</time></trkpt><trkpt lat="45.446234428752916" lon="10.857685420412242"><ele>102.0</ele><time>2026-04-06T08:20:12.045Z</time></trkpt><trkpt lat="45.44624009560965" lon="10.85746555219404"><ele>102.0</ele><time>2026-04-06T08:20:13.045Z</time></trkpt><trkpt lat="45.44624415247315" lon="10.857221449669053"><ele>102.25</ele><time>2026-04-06T08:20:14.045Z</time></trkpt><trkpt lat="45.446237466445375" lon="10.857016308785402"><ele>102.5</ele><time>2026-04-06T08:20:15.045Z</time></trkpt><trkpt lat="45.446231413972754" lon="10.856809423057221"><ele>102.75</ele><time>2026-04-06T08:20:16.045Z</time></trkpt><trkpt lat="45.44622360647912" lon="10.856586678215947"><ele>103.0</ele><time>2026-04-06T08:20:17.045Z</time></trkpt><trkpt lat="45.446217235685765" lon="10.856353627445515"><ele>102.33333333333334</ele><time>2026-04-06T08:20:18.045Z</time></trkpt><trkpt lat="45.4462120003807" lon="10.856115235079887"><ele>101.66666666666666</ele><time>2026-04-06T08:20:19.045Z</time></trkpt><trkpt lat="45.44620661614685" lon="10.855889048181787"><ele>101.0</ele><time>2026-04-06T08:20:20.045Z</time></trkpt><trkpt lat="45.44620478626093" lon="10.855683654479988"><ele>100.75</ele><time>2026-04-06T08:20:21.045Z</time></trkpt><trkpt lat="45.446203180015175" lon="10.855484738999378"><ele>100.5</ele><time>2026-04-06T08:20:22.045Z</time></trkpt><trkpt lat="45.446201285141356" lon="10.855281233853024"><ele>100.25</ele><time>2026-04-06T08:20:23.045Z</time></trkpt><trkpt lat="45.446198615946244" lon="10.855092285099904"><ele>100.0</ele><time>2026-04-06T08:20:24.045Z</time></trkpt><trkpt lat="45.44619782031395" lon="10.85490702922144"><ele>100.75</ele><time>2026-04-06T08:20:25.045Z</time></trkpt><trkpt lat="45.446200563495424" lon="10.854720816882754"><ele>101.5</ele><time>2026-04-06T08:20:26.045Z</time></trkpt><trkpt lat="45.44619689407821" lon="10.854510625153154"><ele>102.25</ele><time>2026-04-06T08:20:27.045Z</time></trkpt><trkpt lat="45.446189841444244" lon="10.85429002597492"><ele>103.0</ele><time>2026-04-06T08:20:28.045Z</time></trkpt><trkpt lat="45.44618365222238" lon="10.85407034179001"><ele>103.25</ele><time>2026-04-06T08:20:29.045Z</time></trkpt><trkpt lat="45.44618815315458" lon="10.853854305200421"><ele>103.5</ele><time>2026-04-06T08:20:30.045Z</time></trkpt><trkpt lat="45.44618405709349" lon="10.85364794877257"><ele>103.75</ele><time>2026-04-06T08:20:31.045Z</time></trkpt><trkpt lat="45.44617564454269" lon="10.853433872345931"><ele>104.0</ele><time>2026-04-06T08:20:32.045Z</time></trkpt><trkpt lat="45.44616205450731" lon="10.85318413913669"><ele>103.66666666666666</ele><time>2026-04-06T08:20:33.045Z</time></trkpt><trkpt lat="45.44616847967927" lon="10.852906183286631"><ele>103.33333333333334</ele><time>2026-04-06T08:20:34.045Z</time></trkpt><trkpt lat="45.446141577834894" lon="10.852597621646446"><ele>103.0</ele><time>2026-04-06T08:20:35.045Z</time></trkpt><trkpt lat="45.44612893468447" lon="10.852293718913423"><ele>103.0</ele><time>2026-04-06T08:20:36.045Z</time></trkpt><trkpt lat="45.44611727381482" lon="10.852026274017934"><ele>103.0</ele><time>2026-04-06T08:20:37.045Z</time></trkpt><trkpt lat="45.446105728972825" lon="10.851775550785076"><ele>103.0</ele><time>2026-04-06T08:20:38.045Z</time></trkpt><trkpt lat="45.44609836337404" lon="10.851543333627362"><ele>103.0</ele><time>2026-04-06T08:20:39.045Z</time></trkpt><trkpt lat="45.446092100731484" lon="10.851307657230791"><ele>103.0</ele><time>2026-04-06T08:20:40.045Z</time></trkpt><trkpt lat="45.44607843239774" lon="10.851057682686191"><ele>103.0</ele><time>2026-04-06T08:20:41.045Z</time></trkpt><trkpt lat="45.44606622297673" lon="10.850810223226413"><ele>103.0</ele><time>2026-04-06T08:20:42.045Z</time></trkpt><trkpt lat="45.44605599479848" lon="10.850587069582604"><ele>103.0</ele><time>2026-04-06T08:20:43.045Z</time></trkpt><trkpt lat="45.44604487566996" lon="10.85037400110943"><ele>103.0</ele><time>2026-04-06T08:20:44.045Z</time></trkpt><trkpt lat="45.446031071925184" lon="10.85015517770532"><ele>103.75</ele><time>2026-04-06T08:20:45.045Z</time></trkpt><trkpt lat="45.44602618293615" lon="10.849938902048013"><ele>104.5</ele><time>2026-04-06T08:20:46.045Z</time></trkpt><trkpt lat="45.446014274982396" lon="10.849729542131684"><ele>105.25</ele><time>2026-04-06T08:20:47.045Z</time></trkpt><trkpt lat="45.4460219366163" lon="10.849523965123835"><ele>106.0</ele><time>2026-04-06T08:20:48.045Z</time></trkpt><trkpt lat="45.44601257300725" lon="10.849311450381729"><ele>105.75</ele><time>2026-04-06T08:20:49.045Z</time></trkpt><trkpt lat="45.446003584969816" lon="10.849110727317367"><ele>105.5</ele><time>2026-04-06T08:20:50.045Z</time></trkpt><trkpt lat="45.44599413254267" lon="10.848900721137259"><ele>105.25</ele><time>2026-04-06T08:20:51.045Z</time></trkpt><trkpt lat="45.44598438198262" lon="10.848684020216366"><ele>105.0</ele><time>2026-04-06T08:20:52.045Z</time></trkpt><trkpt lat="45.44597392942342" lon="10.848451674781776"><ele>104.75</ele><time>2026-04-06T08:20:53.045Z</time></trkpt><trkpt lat="45.445964191898504" lon="10.848229136248829"><ele>104.5</ele><time>2026-04-06T08:20:54.045Z</time></trkpt><trkpt lat="45.44595516544089" lon="10.848024565990354"><ele>104.25</ele><time>2026-04-06T08:20:55.045Z</time></trkpt><trkpt lat="45.44594595372098" lon="10.847818499638453"><ele>104.0</ele><time>2026-04-06T08:20:56.045Z</time></trkpt><trkpt lat="45.445936363821986" lon="10.847603973450221"><ele>104.66666666666666</ele><time>2026-04-06T08:20:57.045Z</time></trkpt><trkpt lat="45.44592666347944" lon="10.8473869765886"><ele>105.33333333333334</ele><time>2026-04-06T08:20:58.045Z</time></trkpt><trkpt lat="45.44591691720416" lon="10.847168952221846"><ele>106.0</ele><time>2026-04-06T08:20:59.045Z</time></trkpt><trkpt lat="45.44590727720556" lon="10.846953305537534"><ele>106.25</ele><time>2026-04-06T08:21:00.045Z</time></trkpt><trkpt lat="45.44589821356952" lon="10.84674213299115"><ele>106.5</ele><time>2026-04-06T08:21:01.045Z</time></trkpt><trkpt lat="45.4458892509346" lon="10.846535553421555"><ele>106.75</ele><time>2026-04-06T08:21:02.045Z</time></trkpt><trkpt lat="45.445879729344085" lon="10.846320522973206"><ele>107.0</ele><time>2026-04-06T08:21:03.045Z</time></trkpt><trkpt lat="45.44586962769404" lon="10.84609470482837"><ele>108.0</ele><time>2026-04-06T08:21:04.045Z</time></trkpt><trkpt lat="45.44585972549445" lon="10.845859313895431"><ele>109.0</ele><time>2026-04-06T08:21:05.045Z</time></trkpt><trkpt lat="45.44584842711008" lon="10.845593841941856"><ele>110.0</ele><time>2026-04-06T08:21:06.045Z</time></trkpt><trkpt lat="45.44583648915003" lon="10.845313342255864"><ele>110.0</ele><time>2026-04-06T08:21:07.045Z</time></trkpt><trkpt lat="45.44582250339927" lon="10.844985115949909"><ele>110.0</ele><time>2026-04-06T08:21:08.045Z</time></trkpt><trkpt lat="45.44580849659075" lon="10.844656761692693"><ele>110.0</ele><time>2026-04-06T08:21:09.045Z</time></trkpt><trkpt lat="45.445794635104676" lon="10.84432526053799"><ele>110.0</ele><time>2026-04-06T08:21:10.045Z</time></trkpt><trkpt lat="45.445782226103525" lon="10.84400852912245"><ele>110.66666666666666</ele><time>2026-04-06T08:21:11.045Z</time></trkpt><trkpt lat="45.445774625531314" lon="10.843714854974708"><ele>111.33333333333334</ele><time>2026-04-06T08:21:12.045Z</time></trkpt><trkpt lat="45.44576985445955" lon="10.843440258922897"><ele>112.0</ele><time>2026-04-06T08:21:13.045Z</time></trkpt><trkpt lat="45.44576753069859" lon="10.843182688515519"><ele>112.0</ele><time>2026-04-06T08:21:14.045Z</time></trkpt><trkpt lat="45.445765463542664" lon="10.842953559140998"><ele>112.0</ele><time>2026-04-06T08:21:15.045Z</time></trkpt><trkpt lat="45.44576214013237" lon="10.842730351083244"><ele>112.0</ele><time>2026-04-06T08:21:16.045Z</time></trkpt><trkpt lat="45.44575919561045" lon="10.842498892492559"><ele>112.33333333333334</ele><time>2026-04-06T08:21:17.045Z</time></trkpt><trkpt lat="45.445756101917006" lon="10.842255707970235"><ele>112.66666666666666</ele><time>2026-04-06T08:21:18.045Z</time></trkpt><trkpt lat="45.44575260875905" lon="10.841994172558234"><ele>113.0</ele><time>2026-04-06T08:21:19.045Z</time></trkpt><trkpt lat="45.44574873323703" lon="10.8417171140233"><ele>113.33333333333333</ele><time>2026-04-06T08:21:20.045Z</time></trkpt><trkpt lat="45.445744935502354" lon="10.841445616475314"><ele>113.66666666666666</ele><time>2026-04-06T08:21:21.045Z</time></trkpt><trkpt lat="45.44574197754092" lon="10.84122162823948"><ele>114.0</ele><time>2026-04-06T08:21:22.045Z</time></trkpt><trkpt lat="45.44573880264116" lon="10.84098168047824"><ele>114.33333333333334</ele><time>2026-04-06T08:21:23.045Z</time></trkpt><trkpt lat="45.44573551572174" lon="10.84073326686106"><ele>114.66666666666667</ele><time>2026-04-06T08:21:24.045Z</time></trkpt><trkpt lat="45.44570066314028" lon="10.840489748882362"><ele>115.0</ele><time>2026-04-06T08:21:25.045Z</time></trkpt><trkpt lat="45.44569779757097" lon="10.84027500986027"><ele>115.0</ele><time>2026-04-06T08:21:26.045Z</time></trkpt><trkpt lat="45.44569054976557" lon="10.840070056605024"><ele>115.0</ele><time>2026-04-06T08:21:27.045Z</time></trkpt><trkpt lat="45.44569066504598" lon="10.83989549524355"><ele>115.0</ele><time>2026-04-06T08:21:28.045Z</time></trkpt><trkpt lat="45.445722268064856" lon="10.839753108688706"><ele>115.0</ele><time>2026-04-06T08:21:29.045Z</time></trkpt><trkpt lat="45.44572079931369" lon="10.839654718819757"><ele>115.0</ele><time>2026-04-06T08:21:30.045Z</time></trkpt><trkpt lat="45.445718187307804" lon="10.839479743627757"><ele>115.00000000000001</ele><time>2026-04-06T08:21:32.045Z</time></trkpt><trkpt lat="45.44571679739329" lon="10.839386634841528"><ele>115.0</ele><time>2026-04-06T08:21:33.045Z</time></trkpt><trkpt lat="45.44571516683252" lon="10.839277405606982"><ele>115.0</ele><time>2026-04-06T08:21:34.045Z</time></trkpt><trkpt lat="45.44571346282125" lon="10.839163255920937"><ele>115.0</ele><time>2026-04-06T08:21:35.045Z</time></trkpt><trkpt lat="45.445711630984896" lon="10.839040543323769"><ele>115.00000000000001</ele><time>2026-04-06T08:21:36.045Z</time></trkpt><trkpt lat="45.445709902476544" lon="10.838924752640711"><ele>115.0</ele><time>2026-04-06T08:21:37.045Z</time></trkpt><trkpt lat="45.445708322341424" lon="10.83881890122272"><ele>115.00000000000001</ele><time>2026-04-06T08:21:38.045Z</time></trkpt><trkpt lat="45.445706525552254" lon="10.838701540298333"><ele>115.0</ele><time>2026-04-06T08:21:39.045Z</time></trkpt><trkpt lat="45.4457046517337" lon="10.838582915145665"><ele>115.0</ele><time>2026-04-06T08:21:40.045Z</time></trkpt><trkpt lat="45.44570298171838" lon="10.838477192129687"><ele>115.0</ele><time>2026-04-06T08:21:41.045Z</time></trkpt><trkpt lat="45.4457014628366" lon="10.838381036716905"><ele>115.00000000000001</ele><time>2026-04-06T08:21:42.045Z</time></trkpt><trkpt lat="45.44569844947861" lon="10.838200971927991"><ele>115.0</ele><time>2026-04-06T08:21:44.045Z</time></trkpt><trkpt lat="45.44569564001012" lon="10.838073141153382"><ele>115.0</ele><time>2026-04-06T08:21:45.045Z</time></trkpt><trkpt lat="45.44568875882508" lon="10.837872179726803"><ele>115.0</ele><time>2026-04-06T08:21:46.045Z</time></trkpt><trkpt lat="45.44568195632481" lon="10.837689778772956"><ele>115.0</ele><time>2026-04-06T08:21:47.045Z</time></trkpt><trkpt lat="45.44567557235476" lon="10.837538462527363"><ele>115.0</ele><time>2026-04-06T08:21:48.045Z</time></trkpt><trkpt lat="45.44566831943368" lon="10.837391364241203"><ele>115.50000000000001</ele><time>2026-04-06T08:21:49.045Z</time></trkpt><trkpt lat="45.44566132591247" lon="10.837250557240292"><ele>116.0</ele><time>2026-04-06T08:21:50.045Z</time></trkpt><trkpt lat="45.44565545357355" lon="10.83713106292121"><ele>116.5</ele><time>2026-04-06T08:21:51.045Z</time></trkpt><trkpt lat="45.4456497409097" lon="10.837015330182648"><ele>117.0</ele><time>2026-04-06T08:21:52.045Z</time></trkpt><trkpt lat="45.44564450076803" lon="10.836909170261833"><ele>117.50000000000001</ele><time>2026-04-06T08:21:53.045Z</time></trkpt><trkpt lat="45.44563909255494" lon="10.836799605382794"><ele>118.0</ele><time>2026-04-06T08:21:54.045Z</time></trkpt><trkpt lat="45.44563269204449" lon="10.836669937569264"><ele>118.2</ele><time>2026-04-06T08:21:55.045Z</time></trkpt><trkpt lat="45.4456265899552" lon="10.836546315443412"><ele>118.4</ele><time>2026-04-06T08:21:56.045Z</time></trkpt><trkpt lat="45.44562012217847" lon="10.836415284876034"><ele>118.60000000000001</ele><time>2026-04-06T08:21:57.045Z</time></trkpt><trkpt lat="45.44561337669941" lon="10.836278628343665"><ele>118.80000000000001</ele><time>2026-04-06T08:21:58.045Z</time></trkpt><trkpt lat="45.44560673612666" lon="10.836144097099606"><ele>119.0</ele><time>2026-04-06T08:21:59.046Z</time></trkpt><trkpt lat="45.445599018858246" lon="10.835987753126577"><ele>118.99999999999999</ele><time>2026-04-06T08:22:00.046Z</time></trkpt><trkpt lat="45.445592708519655" lon="10.835859912063619"><ele>119.0</ele><time>2026-04-06T08:22:01.046Z</time></trkpt><trkpt lat="45.44558584737089" lon="10.835728485576618"><ele>119.0</ele><time>2026-04-06T08:22:02.046Z</time></trkpt><trkpt lat="45.44557877562048" lon="10.835594526430505"><ele>119.0</ele><time>2026-04-06T08:22:03.046Z</time></trkpt><trkpt lat="45.44557293306418" lon="10.83548385168577"><ele>118.99999999999999</ele><time>2026-04-06T08:22:04.046Z</time></trkpt><trkpt lat="45.44556754648456" lon="10.835381814502592"><ele>119.0</ele><time>2026-04-06T08:22:05.046Z</time></trkpt><trkpt lat="45.44556048576883" lon="10.835267417662044"><ele>119.0</ele><time>2026-04-06T08:22:06.046Z</time></trkpt><trkpt lat="45.445514745452186" lon="10.835118154182675"><ele>119.0</ele><time>2026-04-06T08:22:07.046Z</time></trkpt><trkpt lat="45.44549421013834" lon="10.83492581893509"><ele>119.0</ele><time>2026-04-06T08:22:08.046Z</time></trkpt><trkpt lat="45.44547655390589" lon="10.834763998419275"><ele>119.0</ele><time>2026-04-06T08:22:09.046Z</time></trkpt><trkpt lat="45.44546292215611" lon="10.834625844647427"><ele>119.0</ele><time>2026-04-06T08:22:10.046Z</time></trkpt><trkpt lat="45.44548109742077" lon="10.834475230851156"><ele>119.0</ele><time>2026-04-06T08:22:11.046Z</time></trkpt><trkpt lat="45.44546134376692" lon="10.83432597661993"><ele>119.0</ele><time>2026-04-06T08:22:12.046Z</time></trkpt><trkpt lat="45.445446953132006" lon="10.834218232566037"><ele>119.0</ele><time>2026-04-06T08:22:13.046Z</time></trkpt><trkpt lat="45.44543392737128" lon="10.834119869703256"><ele>119.0</ele><time>2026-04-06T08:22:14.046Z</time></trkpt><trkpt lat="45.44540989011251" lon="10.833938293123733"><ele>119.4</ele><time>2026-04-06T08:22:16.046Z</time></trkpt><trkpt lat="45.445390174667715" lon="10.833789363391826"><ele>119.80000000000001</ele><time>2026-04-06T08:22:18.046Z</time></trkpt><trkpt lat="45.44537385668158" lon="10.833666097948589"><ele>120.19999999999999</ele><time>2026-04-06T08:22:20.046Z</time></trkpt><trkpt lat="45.44536004931504" lon="10.833561797600662"><ele>120.6</ele><time>2026-04-06T08:22:21.046Z</time></trkpt><trkpt lat="45.445343726067314" lon="10.833438492403335"><ele>121.0</ele><time>2026-04-06T08:22:22.046Z</time></trkpt><trkpt lat="45.44532297569354" lon="10.833281048813987"><ele>121.4</ele><time>2026-04-06T08:22:23.046Z</time></trkpt><trkpt lat="45.445305323426155" lon="10.833145190619064"><ele>121.8</ele><time>2026-04-06T08:22:24.046Z</time></trkpt><trkpt lat="45.445288490254725" lon="10.833015636458054"><ele>122.20000000000002</ele><time>2026-04-06T08:22:25.046Z</time></trkpt><trkpt lat="45.44526756462071" lon="10.832854585259744"><ele>122.60000000000001</ele><time>2026-04-06T08:22:26.046Z</time></trkpt><trkpt lat="45.44524405658074" lon="10.832673658907359"><ele>123.0</ele><time>2026-04-06T08:22:27.046Z</time></trkpt><trkpt lat="45.445219140432776" lon="10.83248241256134"><ele>123.0</ele><time>2026-04-06T08:22:28.046Z</time></trkpt><trkpt lat="45.44519707982216" lon="10.832315265311452"><ele>123.0</ele><time>2026-04-06T08:22:29.046Z</time></trkpt><trkpt lat="45.44517360300181" lon="10.832137387809782"><ele>123.0</ele><time>2026-04-06T08:22:30.046Z</time></trkpt><trkpt lat="45.44514907671694" lon="10.831948036448024"><ele>123.0</ele><time>2026-04-06T08:22:31.046Z</time></trkpt><trkpt lat="45.44512232704705" lon="10.831739650657443"><ele>122.5</ele><time>2026-04-06T08:22:32.046Z</time></trkpt><trkpt lat="45.44509306048638" lon="10.83151773063664"><ele>122.0</ele><time>2026-04-06T08:22:33.046Z</time></trkpt><trkpt lat="45.445068770792474" lon="10.831330448875306"><ele>121.5</ele><time>2026-04-06T08:22:34.046Z</time></trkpt><trkpt lat="45.445048679115935" lon="10.831174054413264"><ele>121.0</ele><time>2026-04-06T08:22:35.046Z</time></trkpt><trkpt lat="45.4450304154553" lon="10.831031889210227"><ele>121.19999999999999</ele><time>2026-04-06T08:22:36.046Z</time></trkpt><trkpt lat="45.445014020194854" lon="10.830904267754343"><ele>121.39999999999999</ele><time>2026-04-06T08:22:37.046Z</time></trkpt><trkpt lat="45.44499503286965" lon="10.830756469552576"><ele>121.6</ele><time>2026-04-06T08:22:38.046Z</time></trkpt><trkpt lat="45.44497392344791" lon="10.830592152877044"><ele>121.8</ele><time>2026-04-06T08:22:39.046Z</time></trkpt><trkpt lat="45.444951770408075" lon="10.83041971258208"><ele>122.0</ele><time>2026-04-06T08:22:40.046Z</time></trkpt><trkpt lat="45.444931191924695" lon="10.830259528734963"><ele>122.75</ele><time>2026-04-06T08:22:41.046Z</time></trkpt><trkpt lat="45.44490523656219" lon="10.83005749103439"><ele>123.5</ele><time>2026-04-06T08:22:42.046Z</time></trkpt><trkpt lat="45.44488108096278" lon="10.829869462743913"><ele>124.25</ele><time>2026-04-06T08:22:43.046Z</time></trkpt><trkpt lat="45.44485792088551" lon="10.829689183634182"><ele>125.0</ele><time>2026-04-06T08:22:44.046Z</time></trkpt><trkpt lat="45.44483499433473" lon="10.829510722318371"><ele>125.0</ele><time>2026-04-06T08:22:45.046Z</time></trkpt><trkpt lat="45.44481456531083" lon="10.829351701885628"><ele>125.0</ele><time>2026-04-06T08:22:46.046Z</time></trkpt><trkpt lat="45.44479520566957" lon="10.829201005554319"><ele>125.0</ele><time>2026-04-06T08:22:47.046Z</time></trkpt><trkpt lat="45.4447773149098" lon="10.829061743050056"><ele>125.0</ele><time>2026-04-06T08:22:48.046Z</time></trkpt><trkpt lat="45.44475987351968" lon="10.828925978503767"><ele>125.0</ele><time>2026-04-06T08:22:49.046Z</time></trkpt><trkpt lat="45.444740632382015" lon="10.828776204606566"><ele>125.0</ele><time>2026-04-06T08:22:50.046Z</time></trkpt><trkpt lat="45.444718655694786" lon="10.828606520344314"><ele>125.0</ele><time>2026-04-06T08:22:51.046Z</time></trkpt><trkpt lat="45.44469564671905" lon="10.828429610026635"><ele>125.0</ele><time>2026-04-06T08:22:52.046Z</time></trkpt><trkpt lat="45.444672023126145" lon="10.828247974101133"><ele>125.0</ele><time>2026-04-06T08:22:53.046Z</time></trkpt><trkpt lat="45.444648383577125" lon="10.828057150400046"><ele>125.5</ele><time>2026-04-06T08:22:54.046Z</time></trkpt><trkpt lat="45.44462396421617" lon="10.827858272095444"><ele>126.0</ele><time>2026-04-06T08:22:55.046Z</time></trkpt><trkpt lat="45.444598168157405" lon="10.827647231948493"><ele>126.5</ele><time>2026-04-06T08:22:56.046Z</time></trkpt><trkpt lat="45.44457257758652" lon="10.827447560276626"><ele>127.0</ele><time>2026-04-06T08:22:57.046Z</time></trkpt><trkpt lat="45.44454913639586" lon="10.827264659416185"><ele>127.19999999999999</ele><time>2026-04-06T08:22:58.046Z</time></trkpt><trkpt lat="45.4445297145724" lon="10.827111107626983"><ele>127.39999999999999</ele><time>2026-04-06T08:22:59.046Z</time></trkpt><trkpt lat="45.44451279513208" lon="10.826986295423664"><ele>127.60000000000001</ele><time>2026-04-06T08:23:00.046Z</time></trkpt><trkpt lat="45.44449791588963" lon="10.82688117225446"><ele>127.80000000000001</ele><time>2026-04-06T08:23:01.046Z</time></trkpt><trkpt lat="45.44448123807404" lon="10.826769596068042"><ele>128.0</ele><time>2026-04-06T08:23:02.046Z</time></trkpt><trkpt lat="45.44445523067427" lon="10.826606238792031"><ele>128.5</ele><time>2026-04-06T08:23:04.046Z</time></trkpt><trkpt lat="45.44442661458748" lon="10.826436908250674"><ele>129.0</ele><time>2026-04-06T08:23:06.046Z</time></trkpt><trkpt lat="45.444408680547" lon="10.82633373756966"><ele>129.5</ele><time>2026-04-06T08:23:07.046Z</time></trkpt><trkpt lat="45.4443904853533" lon="10.826228489875646"><ele>130.0</ele><time>2026-04-06T08:23:08.046Z</time></trkpt><trkpt lat="45.44436857841394" lon="10.826101772093857"><ele>130.5</ele><time>2026-04-06T08:23:09.046Z</time></trkpt><trkpt lat="45.444352436379205" lon="10.826008400640328"><ele>131.0</ele><time>2026-04-06T08:23:10.046Z</time></trkpt><trkpt lat="45.44433027711301" lon="10.82588022331079"><ele>131.0</ele><time>2026-04-06T08:23:12.046Z</time></trkpt><trkpt lat="45.44431195231648" lon="10.825774225975977"><ele>131.0</ele><time>2026-04-06T08:23:14.046Z</time></trkpt><trkpt lat="45.44429213862971" lon="10.825659616334969"><ele>131.0</ele><time>2026-04-06T08:23:16.046Z</time></trkpt><trkpt lat="45.4442662481298" lon="10.825509856182723"><ele>131.0</ele><time>2026-04-06T08:23:18.046Z</time></trkpt><trkpt lat="45.44424930369754" lon="10.825411843353772"><ele>131.0</ele><time>2026-04-06T08:23:19.046Z</time></trkpt><trkpt lat="45.44423263640012" lon="10.825315433583825"><ele>131.0</ele><time>2026-04-06T08:23:20.046Z</time></trkpt><trkpt lat="45.44421676893101" lon="10.825223650303183"><ele>131.16666666666666</ele><time>2026-04-06T08:23:21.046Z</time></trkpt><trkpt lat="45.44418836110172" lon="10.825059328979139"><ele>131.33333333333331</ele><time>2026-04-06T08:23:23.046Z</time></trkpt><trkpt lat="45.44417079048768" lon="10.824957694088825"><ele>131.5</ele><time>2026-04-06T08:23:24.046Z</time></trkpt><trkpt lat="45.44415233839481" lon="10.82485096040928"><ele>131.66666666666666</ele><time>2026-04-06T08:23:25.046Z</time></trkpt><trkpt lat="45.44413282939251" lon="10.824738041054731"><ele>131.83333333333334</ele><time>2026-04-06T08:23:26.046Z</time></trkpt><trkpt lat="45.44411419059451" lon="10.82463001523128"><ele>132.0</ele><time>2026-04-06T08:23:27.046Z</time></trkpt><trkpt lat="45.444091829980366" lon="10.82450041872244"><ele>132.0</ele><time>2026-04-06T08:23:28.046Z</time></trkpt><trkpt lat="45.444071099408916" lon="10.824380269515435"><ele>132.0</ele><time>2026-04-06T08:23:29.046Z</time></trkpt><trkpt lat="45.44405184850819" lon="10.824268696100921"><ele>132.0</ele><time>2026-04-06T08:23:30.046Z</time></trkpt><trkpt lat="45.444015669684624" lon="10.82415648832212"><ele>132.0</ele><time>2026-04-06T08:23:31.046Z</time></trkpt><trkpt lat="45.444007166206354" lon="10.82400972868596"><ele>132.0</ele><time>2026-04-06T08:23:32.046Z</time></trkpt><trkpt lat="45.44398151592595" lon="10.823861066094487"><ele>132.0</ele><time>2026-04-06T08:23:33.046Z</time></trkpt><trkpt lat="45.44395359956067" lon="10.823699269818622"><ele>132.0</ele><time>2026-04-06T08:23:34.046Z</time></trkpt><trkpt lat="45.44392459672527" lon="10.823531176649679"><ele>132.0</ele><time>2026-04-06T08:23:35.046Z</time></trkpt><trkpt lat="45.44389642981954" lon="10.823367928313099"><ele>132.0</ele><time>2026-04-06T08:23:36.046Z</time></trkpt><trkpt lat="45.44386933397354" lon="10.823210148105902"><ele>132.0</ele><time>2026-04-06T08:23:37.046Z</time></trkpt><trkpt lat="45.44384206517744" lon="10.823050823633928"><ele>132.0</ele><time>2026-04-06T08:23:38.046Z</time></trkpt><trkpt lat="45.44381448500589" lon="10.822889679891063"><ele>132.0</ele><time>2026-04-06T08:23:39.046Z</time></trkpt><trkpt lat="45.443788113874405" lon="10.822735600222474"><ele>132.0</ele><time>2026-04-06T08:23:40.046Z</time></trkpt><trkpt lat="45.443760745894686" lon="10.822575696247549"><ele>132.2</ele><time>2026-04-06T08:23:41.046Z</time></trkpt><trkpt lat="45.443734414849345" lon="10.822421850796502"><ele>132.39999999999998</ele><time>2026-04-06T08:23:42.046Z</time></trkpt><trkpt lat="45.44370800960102" lon="10.822267571813082"><ele>132.60000000000002</ele><time>2026-04-06T08:23:43.046Z</time></trkpt><trkpt lat="45.44368159577077" lon="10.82210846915073"><ele>132.8</ele><time>2026-04-06T08:23:44.046Z</time></trkpt><trkpt lat="45.44365612102176" lon="10.821953834798034"><ele>133.0</ele><time>2026-04-06T08:23:45.046Z</time></trkpt><trkpt lat="45.44362888284351" lon="10.82178849626034"><ele>133.5</ele><time>2026-04-06T08:23:46.046Z</time></trkpt><trkpt lat="45.44359795916299" lon="10.82160078651635"><ele>134.0</ele><time>2026-04-06T08:23:47.046Z</time></trkpt><trkpt lat="45.44355822350777" lon="10.821372561449335"><ele>134.5</ele><time>2026-04-06T08:23:48.046Z</time></trkpt><trkpt lat="45.44353275015035" lon="10.821230423877909"><ele>135.0</ele><time>2026-04-06T08:23:49.046Z</time></trkpt><trkpt lat="45.443506799109876" lon="10.82108676774411"><ele>135.6</ele><time>2026-04-06T08:23:50.046Z</time></trkpt><trkpt lat="45.44348732948079" lon="10.820960747130087"><ele>136.2</ele><time>2026-04-06T08:23:51.046Z</time></trkpt><trkpt lat="45.4434824535284" lon="10.820841051530087"><ele>136.8</ele><time>2026-04-06T08:23:52.046Z</time></trkpt><trkpt lat="45.443466711640134" lon="10.820676392061406"><ele>137.4</ele><time>2026-04-06T08:23:53.046Z</time></trkpt><trkpt lat="45.443399436946365" lon="10.820476045876154"><ele>138.0</ele><time>2026-04-06T08:23:54.046Z</time></trkpt><trkpt lat="45.44337364764756" lon="10.820327806360707"><ele>138.0</ele><time>2026-04-06T08:23:55.046Z</time></trkpt><trkpt lat="45.44334939213004" lon="10.820188383174639"><ele>138.0</ele><time>2026-04-06T08:23:56.046Z</time></trkpt><trkpt lat="45.44330871254914" lon="10.820052144219842"><ele>138.0</ele><time>2026-04-06T08:23:57.046Z</time></trkpt><trkpt lat="45.4433031679087" lon="10.819907353776271"><ele>138.0</ele><time>2026-04-06T08:23:58.046Z</time></trkpt><trkpt lat="45.44326577791425" lon="10.819786199746853"><ele>138.0</ele><time>2026-04-06T08:23:59.046Z</time></trkpt><trkpt lat="45.44324506498787" lon="10.819652305194406"><ele>138.20000000000002</ele><time>2026-04-06T08:24:00.046Z</time></trkpt><trkpt lat="45.44323070285415" lon="10.819511290595965"><ele>138.4</ele><time>2026-04-06T08:24:01.046Z</time></trkpt><trkpt lat="45.443217351950715" lon="10.819372190753459"><ele>138.60000000000002</ele><time>2026-04-06T08:24:02.046Z</time></trkpt><trkpt lat="45.44320280772839" lon="10.819231240781608"><ele>138.8</ele><time>2026-04-06T08:24:03.046Z</time></trkpt><trkpt lat="45.44318924522493" lon="10.819085622020713"><ele>139.0</ele><time>2026-04-06T08:24:04.046Z</time></trkpt><trkpt lat="45.44317863734575" lon="10.818940533756923"><ele>139.6</ele><time>2026-04-06T08:24:05.047Z</time></trkpt><trkpt lat="45.44317683258394" lon="10.818784771197553"><ele>140.2</ele><time>2026-04-06T08:24:06.047Z</time></trkpt><trkpt lat="45.443162665560116" lon="10.818633928533053"><ele>140.79999999999998</ele><time>2026-04-06T08:24:07.047Z</time></trkpt><trkpt lat="45.4431480381897" lon="10.81847953513822"><ele>141.4</ele><time>2026-04-06T08:24:08.047Z</time></trkpt><trkpt lat="45.44313434415463" lon="10.818334050864104"><ele>142.0</ele><time>2026-04-06T08:24:09.047Z</time></trkpt><trkpt lat="45.44311974925775" lon="10.818179418877556"><ele>142.0</ele><time>2026-04-06T08:24:10.047Z</time></trkpt><trkpt lat="45.443105628706384" lon="10.818027765456598"><ele>142.0</ele><time>2026-04-06T08:24:11.047Z</time></trkpt><trkpt lat="45.44309152714258" lon="10.81787611749511"><ele>142.0</ele><time>2026-04-06T08:24:12.047Z</time></trkpt><trkpt lat="45.44307754197779" lon="10.817725721284132"><ele>142.0</ele><time>2026-04-06T08:24:13.047Z</time></trkpt><trkpt lat="45.443048115771184" lon="10.817578892890639"><ele>142.0</ele><time>2026-04-06T08:24:14.047Z</time></trkpt><trkpt lat="45.44303457489025" lon="10.817425945060647"><ele>142.2</ele><time>2026-04-06T08:24:15.047Z</time></trkpt><trkpt lat="45.44302156741584" lon="10.817272575272995"><ele>142.39999999999998</ele><time>2026-04-06T08:24:16.047Z</time></trkpt><trkpt lat="45.44300958581269" lon="10.817119694886005"><ele>142.60000000000002</ele><time>2026-04-06T08:24:17.047Z</time></trkpt><trkpt lat="45.44299759869454" lon="10.816963828632943"><ele>142.8</ele><time>2026-04-06T08:24:18.047Z</time></trkpt><trkpt lat="45.44298743991165" lon="10.81680683997642"><ele>143.0</ele><time>2026-04-06T08:24:19.047Z</time></trkpt><trkpt lat="45.442975464937334" lon="10.816653786932603"><ele>143.0</ele><time>2026-04-06T08:24:20.047Z</time></trkpt><trkpt lat="45.44296324857483" lon="10.816506392617036"><ele>143.0</ele><time>2026-04-06T08:24:21.047Z</time></trkpt><trkpt lat="45.44295272994339" lon="10.81638062617608"><ele>143.0</ele><time>2026-04-06T08:24:22.047Z</time></trkpt><trkpt lat="45.44294584757301" lon="10.816273752597224"><ele>143.0</ele><time>2026-04-06T08:24:23.047Z</time></trkpt><trkpt lat="45.44294178963351" lon="10.816183307956466"><ele>143.0</ele><time>2026-04-06T08:24:24.047Z</time></trkpt><trkpt lat="45.442941480512175" lon="10.816075344819934"><ele>143.0</ele><time>2026-04-06T08:24:26.047Z</time></trkpt><trkpt lat="45.44291509353243" lon="10.815959989892129"><ele>143.5</ele><time>2026-04-06T08:24:34.047Z</time></trkpt><trkpt lat="45.44288319874421" lon="10.815748881838207"><ele>144.0</ele><time>2026-04-06T08:24:36.047Z</time></trkpt><trkpt lat="45.44286559985633" lon="10.815595569859306"><ele>144.5</ele><time>2026-04-06T08:24:37.047Z</time></trkpt><trkpt lat="45.44285116211948" lon="10.815462108885189"><ele>145.0</ele><time>2026-04-06T08:24:38.047Z</time></trkpt><trkpt lat="45.44283449046884" lon="10.815311795792896"><ele>145.75</ele><time>2026-04-06T08:24:39.047Z</time></trkpt><trkpt lat="45.44281523963831" lon="10.815129733312181"><ele>146.5</ele><time>2026-04-06T08:24:40.047Z</time></trkpt><trkpt lat="45.4428134526964" lon="10.814935817398316"><ele>147.25</ele><time>2026-04-06T08:24:41.047Z</time></trkpt><trkpt lat="45.442798480774876" lon="10.814776454978452"><ele>148.0</ele><time>2026-04-06T08:24:42.047Z</time></trkpt><trkpt lat="45.442758575054526" lon="10.814613308980094"><ele>148.0</ele><time>2026-04-06T08:24:43.047Z</time></trkpt><trkpt lat="45.44274232334112" lon="10.814436027672762"><ele>148.0</ele><time>2026-04-06T08:24:44.047Z</time></trkpt><trkpt lat="45.442724892782564" lon="10.814248056400556"><ele>148.0</ele><time>2026-04-06T08:24:45.047Z</time></trkpt><trkpt lat="45.44270481067863" lon="10.814053720480258"><ele>148.0</ele><time>2026-04-06T08:24:46.047Z</time></trkpt><trkpt lat="45.4426854045833" lon="10.813844063413583"><ele>148.75</ele><time>2026-04-06T08:24:47.047Z</time></trkpt><trkpt lat="45.442670952866386" lon="10.81364543428847"><ele>149.5</ele><time>2026-04-06T08:24:48.047Z</time></trkpt><trkpt lat="45.44265548091139" lon="10.813473356705801"><ele>150.25</ele><time>2026-04-06T08:24:49.047Z</time></trkpt><trkpt lat="45.442649388601474" lon="10.813306440205597"><ele>151.0</ele><time>2026-04-06T08:24:50.047Z</time></trkpt><trkpt lat="45.44263012082589" lon="10.813154859013617"><ele>152.25</ele><time>2026-04-06T08:24:51.047Z</time></trkpt><trkpt lat="45.44260429772218" lon="10.813001626254938"><ele>153.5</ele><time>2026-04-06T08:24:52.047Z</time></trkpt><trkpt lat="45.44257463935052" lon="10.812839997703351"><ele>154.75</ele><time>2026-04-06T08:24:53.047Z</time></trkpt><trkpt lat="45.44253090769041" lon="10.812678230768093"><ele>156.0</ele><time>2026-04-06T08:24:54.047Z</time></trkpt><trkpt lat="45.442493122722986" lon="10.812485081983844"><ele>156.25</ele><time>2026-04-06T08:24:55.047Z</time></trkpt><trkpt lat="45.44247415101433" lon="10.812294409467814"><ele>156.5</ele><time>2026-04-06T08:24:56.047Z</time></trkpt><trkpt lat="45.44244177303938" lon="10.812120640570587"><ele>156.75</ele><time>2026-04-06T08:24:57.047Z</time></trkpt><trkpt lat="45.44239164374469" lon="10.811942756703603"><ele>157.0</ele><time>2026-04-06T08:24:58.047Z</time></trkpt><trkpt lat="45.44235523656383" lon="10.811745238632508"><ele>155.75</ele><time>2026-04-06T08:24:59.047Z</time></trkpt><trkpt lat="45.442320173641036" lon="10.81154067873133"><ele>154.5</ele><time>2026-04-06T08:25:00.047Z</time></trkpt><trkpt lat="45.44227912758334" lon="10.81133231742156"><ele>153.25</ele><time>2026-04-06T08:25:01.047Z</time></trkpt><trkpt lat="45.44224111346086" lon="10.811134361038361"><ele>152.0</ele><time>2026-04-06T08:25:02.047Z</time></trkpt><trkpt lat="45.44219945952196" lon="10.810943014429771"><ele>152.0</ele><time>2026-04-06T08:25:03.047Z</time></trkpt><trkpt lat="45.442160521547414" lon="10.810757208946573"><ele>152.0</ele><time>2026-04-06T08:25:04.047Z</time></trkpt><trkpt lat="45.4421091663977" lon="10.810559516339241"><ele>152.0</ele><time>2026-04-06T08:25:05.047Z</time></trkpt><trkpt lat="45.4420687469519" lon="10.810378182048858"><ele>152.0</ele><time>2026-04-06T08:25:06.047Z</time></trkpt><trkpt lat="45.442019039506306" lon="10.810183203590716"><ele>150.0</ele><time>2026-04-06T08:25:07.047Z</time></trkpt><trkpt lat="45.441979571490556" lon="10.809992486445061"><ele>148.0</ele><time>2026-04-06T08:25:08.047Z</time></trkpt><trkpt lat="45.441928998582604" lon="10.809806088932868"><ele>146.0</ele><time>2026-04-06T08:25:09.047Z</time></trkpt><trkpt lat="45.441874582109286" lon="10.809541789172505"><ele>145.66666666666666</ele><time>2026-04-06T08:25:10.047Z</time></trkpt><trkpt lat="45.44180240752187" lon="10.809245609862426"><ele>145.33333333333334</ele><time>2026-04-06T08:25:11.047Z</time></trkpt><trkpt lat="45.4417343150371" lon="10.80896618208775"><ele>145.0</ele><time>2026-04-06T08:25:12.047Z</time></trkpt><trkpt lat="45.441671186759415" lon="10.808707125767926"><ele>145.5</ele><time>2026-04-06T08:25:14.047Z</time></trkpt><trkpt lat="45.44160108158624" lon="10.808419438622261"><ele>146.0</ele><time>2026-04-06T08:25:15.047Z</time></trkpt><trkpt lat="45.44152333562953" lon="10.80810039639536"><ele>146.0</ele><time>2026-04-06T08:25:16.047Z</time></trkpt><trkpt lat="45.44141848003103" lon="10.807767748820114"><ele>146.0</ele><time>2026-04-06T08:25:17.047Z</time></trkpt><trkpt lat="45.44134421304167" lon="10.80744521216418"><ele>145.66666666666666</ele><time>2026-04-06T08:25:18.047Z</time></trkpt><trkpt lat="45.44127704616253" lon="10.8071398178802"><ele>145.33333333333334</ele><time>2026-04-06T08:25:19.047Z</time></trkpt><trkpt lat="45.44120692877432" lon="10.806842127737466"><ele>145.0</ele><time>2026-04-06T08:25:20.047Z</time></trkpt><trkpt lat="45.441139019326506" lon="10.806562795082348"><ele>144.66666666666669</ele><time>2026-04-06T08:25:21.047Z</time></trkpt><trkpt lat="45.44107195677368" lon="10.80630771164739"><ele>144.33333333333334</ele><time>2026-04-06T08:25:22.047Z</time></trkpt><trkpt lat="45.44101546547813" lon="10.806074109680914"><ele>144.0</ele><time>2026-04-06T08:25:23.047Z</time></trkpt><trkpt lat="45.440974013253154" lon="10.805841580528249"><ele>144.0</ele><time>2026-04-06T08:25:24.047Z</time></trkpt><trkpt lat="45.44092322465043" lon="10.805632319818482"><ele>144.0</ele><time>2026-04-06T08:25:25.047Z</time></trkpt><trkpt lat="45.44087210009876" lon="10.805421302420116"><ele>144.0</ele><time>2026-04-06T08:25:26.047Z</time></trkpt><trkpt lat="45.440823838680664" lon="10.805222102678076"><ele>144.66666666666666</ele><time>2026-04-06T08:25:27.047Z</time></trkpt><trkpt lat="45.44077737687805" lon="10.805030330951029"><ele>145.33333333333331</ele><time>2026-04-06T08:25:28.047Z</time></trkpt><trkpt lat="45.44072578199662" lon="10.804817372245973"><ele>146.0</ele><time>2026-04-06T08:25:29.047Z</time></trkpt><trkpt lat="45.440670803519126" lon="10.804590447749717"><ele>146.0</ele><time>2026-04-06T08:25:30.047Z</time></trkpt><trkpt lat="45.44061182430675" lon="10.804347010185545"><ele>146.0</ele><time>2026-04-06T08:25:31.047Z</time></trkpt><trkpt lat="45.44053213131714" lon="10.804090699281133"><ele>146.0</ele><time>2026-04-06T08:25:32.047Z</time></trkpt><trkpt lat="45.440459805982734" lon="10.803810856791824"><ele>146.0</ele><time>2026-04-06T08:25:33.047Z</time></trkpt><trkpt lat="45.44037799985334" lon="10.80350934733895"><ele>146.0</ele><time>2026-04-06T08:25:34.047Z</time></trkpt><trkpt lat="45.44029928922055" lon="10.803223255660328"><ele>146.0</ele><time>2026-04-06T08:25:35.047Z</time></trkpt><trkpt lat="45.440220790148494" lon="10.802951978116708"><ele>146.0</ele><time>2026-04-06T08:25:36.047Z</time></trkpt><trkpt lat="45.44015321903658" lon="10.802717484569088"><ele>146.0</ele><time>2026-04-06T08:25:37.047Z</time></trkpt><trkpt lat="45.44008868571492" lon="10.802486453430271"><ele>146.0</ele><time>2026-04-06T08:25:38.047Z</time></trkpt><trkpt lat="45.44003066385385" lon="10.802276967874219"><ele>146.33333333333331</ele><time>2026-04-06T08:25:39.047Z</time></trkpt><trkpt lat="45.4399738971308" lon="10.802071708113285"><ele>146.66666666666666</ele><time>2026-04-06T08:25:40.047Z</time></trkpt><trkpt lat="45.43991536684313" lon="10.801866683198044"><ele>147.0</ele><time>2026-04-06T08:25:41.047Z</time></trkpt><trkpt lat="45.43985664618746" lon="10.801644067711162"><ele>148.0</ele><time>2026-04-06T08:25:42.047Z</time></trkpt><trkpt lat="45.43983321860215" lon="10.801396350551792"><ele>149.0</ele><time>2026-04-06T08:25:43.047Z</time></trkpt><trkpt lat="45.439804922711204" lon="10.801119231586513"><ele>150.0</ele><time>2026-04-06T08:25:44.047Z</time></trkpt><trkpt lat="45.43978901142272" lon="10.80081579410459"><ele>150.33333333333334</ele><time>2026-04-06T08:25:45.047Z</time></trkpt><trkpt lat="45.43978233623762" lon="10.800490632328133"><ele>150.66666666666669</ele><time>2026-04-06T08:25:46.047Z</time></trkpt><trkpt lat="45.43978158395059" lon="10.800194725976233"><ele>151.0</ele><time>2026-04-06T08:25:47.047Z</time></trkpt><trkpt lat="45.439770483562235" lon="10.799937061191672"><ele>151.0</ele><time>2026-04-06T08:25:48.047Z</time></trkpt><trkpt lat="45.4397764298573" lon="10.799698383743907"><ele>151.0</ele><time>2026-04-06T08:25:49.047Z</time></trkpt><trkpt lat="45.43978784187557" lon="10.799467869997983"><ele>151.0</ele><time>2026-04-06T08:25:50.047Z</time></trkpt><trkpt lat="45.43979917404104" lon="10.799247466811003"><ele>151.0</ele><time>2026-04-06T08:25:51.047Z</time></trkpt><trkpt lat="45.4398061254056" lon="10.799034546378323"><ele>151.0</ele><time>2026-04-06T08:25:52.047Z</time></trkpt><trkpt lat="45.43981017852243" lon="10.798831901050923"><ele>151.0</ele><time>2026-04-06T08:25:53.047Z</time></trkpt><trkpt lat="45.43980889079355" lon="10.79862912080677"><ele>151.0</ele><time>2026-04-06T08:25:54.047Z</time></trkpt><trkpt lat="45.43981363938185" lon="10.798402970875566"><ele>151.0</ele><time>2026-04-06T08:25:55.047Z</time></trkpt><trkpt lat="45.439818969075" lon="10.79819247570535"><ele>151.0</ele><time>2026-04-06T08:25:56.047Z</time></trkpt><trkpt lat="45.439824898045636" lon="10.797987896911145"><ele>151.0</ele><time>2026-04-06T08:25:57.047Z</time></trkpt><trkpt lat="45.439834263489416" lon="10.797797962695661"><ele>151.0</ele><time>2026-04-06T08:25:58.047Z</time></trkpt><trkpt lat="45.43984464556124" lon="10.797590405649506"><ele>151.0</ele><time>2026-04-06T08:25:59.047Z</time></trkpt><trkpt lat="45.43985843167479" lon="10.797377468331739"><ele>151.0</ele><time>2026-04-06T08:26:00.047Z</time></trkpt><trkpt lat="45.43987129015083" lon="10.797171673868274"><ele>151.0</ele><time>2026-04-06T08:26:01.047Z</time></trkpt><trkpt lat="45.43988343450275" lon="10.796955049589338"><ele>151.0</ele><time>2026-04-06T08:26:02.047Z</time></trkpt><trkpt lat="45.439894916749914" lon="10.796737504445828"><ele>151.0</ele><time>2026-04-06T08:26:03.047Z</time></trkpt><trkpt lat="45.43990880123308" lon="10.796520365317482"><ele>151.0</ele><time>2026-04-06T08:26:04.047Z</time></trkpt><trkpt lat="45.43991954865834" lon="10.79631887659859"><ele>151.0</ele><time>2026-04-06T08:26:05.047Z</time></trkpt><trkpt lat="45.439930142046656" lon="10.796126002930102"><ele>151.0</ele><time>2026-04-06T08:26:06.047Z</time></trkpt><trkpt lat="45.439939002822825" lon="10.795942151845942"><ele>151.25</ele><time>2026-04-06T08:26:07.047Z</time></trkpt><trkpt lat="45.43994979815915" lon="10.795760917594746"><ele>151.5</ele><time>2026-04-06T08:26:08.047Z</time></trkpt><trkpt lat="45.43996480650246" lon="10.795581904202834"><ele>151.75</ele><time>2026-04-06T08:26:09.047Z</time></trkpt><trkpt lat="45.43997658418699" lon="10.795386681346674"><ele>152.0</ele><time>2026-04-06T08:26:10.047Z</time></trkpt><trkpt lat="45.439991027880005" lon="10.79519199699575"><ele>151.33333333333331</ele><time>2026-04-06T08:26:11.048Z</time></trkpt><trkpt lat="45.440004901311724" lon="10.794992842760736"><ele>150.66666666666666</ele><time>2026-04-06T08:26:12.048Z</time></trkpt><trkpt lat="45.44002942458257" lon="10.794772775873588"><ele>150.0</ele><time>2026-04-06T08:26:13.048Z</time></trkpt><trkpt lat="45.44004952764351" lon="10.794544680569038"><ele>150.0</ele><time>2026-04-06T08:26:14.048Z</time></trkpt><trkpt lat="45.44006799994312" lon="10.794362703937605"><ele>150.0</ele><time>2026-04-06T08:26:15.048Z</time></trkpt><trkpt lat="45.440086206674174" lon="10.794209035239788"><ele>150.0</ele><time>2026-04-06T08:26:16.048Z</time></trkpt><trkpt lat="45.440108244647426" lon="10.794025619210174"><ele>150.0</ele><time>2026-04-06T08:26:17.048Z</time></trkpt><trkpt lat="45.44013689756128" lon="10.793822098301316"><ele>149.5</ele><time>2026-04-06T08:26:18.048Z</time></trkpt><trkpt lat="45.44015988878874" lon="10.79360475883933"><ele>149.0</ele><time>2026-04-06T08:26:19.048Z</time></trkpt><trkpt lat="45.44019454947878" lon="10.79339494519476"><ele>148.5</ele><time>2026-04-06T08:26:20.048Z</time></trkpt><trkpt lat="45.44022187662169" lon="10.79319490079012"><ele>148.0</ele><time>2026-04-06T08:26:21.048Z</time></trkpt><trkpt lat="45.44024750973902" lon="10.793007257282058"><ele>147.0</ele><time>2026-04-06T08:26:22.048Z</time></trkpt><trkpt lat="45.44027098476553" lon="10.792835411676663"><ele>146.0</ele><time>2026-04-06T08:26:23.048Z</time></trkpt><trkpt lat="45.440293661614156" lon="10.792669409057003"><ele>145.0</ele><time>2026-04-06T08:26:24.048Z</time></trkpt><trkpt lat="45.440316773247574" lon="10.792499996508527"><ele>144.0</ele><time>2026-04-06T08:26:25.048Z</time></trkpt><trkpt lat="45.44033908432515" lon="10.792336260062179"><ele>143.5</ele><time>2026-04-06T08:26:26.048Z</time></trkpt><trkpt lat="45.44036239562336" lon="10.79217128586037"><ele>143.0</ele><time>2026-04-06T08:26:27.048Z</time></trkpt><trkpt lat="45.44038614010295" lon="10.791983671018746"><ele>142.5</ele><time>2026-04-06T08:26:28.048Z</time></trkpt><trkpt lat="45.44040800785298" lon="10.791809084343967"><ele>142.0</ele><time>2026-04-06T08:26:29.048Z</time></trkpt><trkpt lat="45.44042822357884" lon="10.791647687012913"><ele>141.79999999999998</ele><time>2026-04-06T08:26:30.048Z</time></trkpt><trkpt lat="45.44044972258617" lon="10.791482502800996"><ele>141.6</ele><time>2026-04-06T08:26:31.048Z</time></trkpt><trkpt lat="45.440468962714334" lon="10.791336099258054"><ele>141.39999999999998</ele><time>2026-04-06T08:26:32.048Z</time></trkpt><trkpt lat="45.44048794003195" lon="10.791191695533115"><ele>141.2</ele><time>2026-04-06T08:26:33.048Z</time></trkpt><trkpt lat="45.440506252965356" lon="10.79104653194346"><ele>141.0</ele><time>2026-04-06T08:26:34.048Z</time></trkpt><trkpt lat="45.44052201843973" lon="10.790906162426298"><ele>140.4</ele><time>2026-04-06T08:26:35.048Z</time></trkpt><trkpt lat="45.440534358363045" lon="10.790766954122732"><ele>139.8</ele><time>2026-04-06T08:26:36.048Z</time></trkpt><trkpt lat="45.44054027019764" lon="10.790609530259704"><ele>139.20000000000002</ele><time>2026-04-06T08:26:37.048Z</time></trkpt><trkpt lat="45.44053918914942" lon="10.790469971229696"><ele>138.6</ele><time>2026-04-06T08:26:38.048Z</time></trkpt><trkpt lat="45.44051056921837" lon="10.790325311213957"><ele>138.0</ele><time>2026-04-06T08:26:39.048Z</time></trkpt><trkpt lat="45.440469515790745" lon="10.79017440611882"><ele>138.0</ele><time>2026-04-06T08:26:40.048Z</time></trkpt><trkpt lat="45.44041870364571" lon="10.790011595658392"><ele>138.0</ele><time>2026-04-06T08:26:41.048Z</time></trkpt><trkpt lat="45.44036388737067" lon="10.789847480553844"><ele>138.0</ele><time>2026-04-06T08:26:42.048Z</time></trkpt><trkpt lat="45.44030608725524" lon="10.789674835315177"><ele>138.0</ele><time>2026-04-06T08:26:43.048Z</time></trkpt><trkpt lat="45.44025117702038" lon="10.789510822019816"><ele>138.0</ele><time>2026-04-06T08:26:44.048Z</time></trkpt><trkpt lat="45.440186230548605" lon="10.78936478688878"><ele>138.0</ele><time>2026-04-06T08:26:45.048Z</time></trkpt><trkpt lat="45.440150428375894" lon="10.789202647597751"><ele>138.0</ele><time>2026-04-06T08:26:46.048Z</time></trkpt><trkpt lat="45.44010082891725" lon="10.789050143665413"><ele>138.0</ele><time>2026-04-06T08:26:47.048Z</time></trkpt><trkpt lat="45.44005066153578" lon="10.788895893456887"><ele>137.75</ele><time>2026-04-06T08:26:48.048Z</time></trkpt><trkpt lat="45.43999623561004" lon="10.78872854954199"><ele>137.5</ele><time>2026-04-06T08:26:49.048Z</time></trkpt><trkpt lat="45.43993693890414" lon="10.788545985242362"><ele>137.25</ele><time>2026-04-06T08:26:50.048Z</time></trkpt><trkpt lat="45.439877430263195" lon="10.788344354010146"><ele>137.0</ele><time>2026-04-06T08:26:51.048Z</time></trkpt><trkpt lat="45.439823515571945" lon="10.788139425596684"><ele>136.5</ele><time>2026-04-06T08:26:52.048Z</time></trkpt><trkpt lat="45.43977903725222" lon="10.787944711592484"><ele>136.0</ele><time>2026-04-06T08:26:53.048Z</time></trkpt><trkpt lat="45.439736949508415" lon="10.787749204481445"><ele>135.5</ele><time>2026-04-06T08:26:54.048Z</time></trkpt><trkpt lat="45.439699177557785" lon="10.787564882889338"><ele>135.0</ele><time>2026-04-06T08:26:55.048Z</time></trkpt><trkpt lat="45.439663326997305" lon="10.787386442925559"><ele>133.0</ele><time>2026-04-06T08:26:56.048Z</time></trkpt><trkpt lat="45.43962232677157" lon="10.78717842085814"><ele>131.0</ele><time>2026-04-06T08:26:57.048Z</time></trkpt><trkpt lat="45.4395780400259" lon="10.786947620040653"><ele>129.0</ele><time>2026-04-06T08:26:58.048Z</time></trkpt><trkpt lat="45.439555065787836" lon="10.786827316614206"><ele>127.0</ele><time>2026-04-06T08:26:59.048Z</time></trkpt><trkpt lat="45.43953148734243" lon="10.786661333449716"><ele>127.0</ele><time>2026-04-06T08:27:00.048Z</time></trkpt><trkpt lat="45.43951335922449" lon="10.786493730902714"><ele>127.0</ele><time>2026-04-06T08:27:01.048Z</time></trkpt><trkpt lat="45.4394997600736" lon="10.78631346553297"><ele>127.0</ele><time>2026-04-06T08:27:02.048Z</time></trkpt><trkpt lat="45.439498284956514" lon="10.78613083746618"><ele>127.0</ele><time>2026-04-06T08:27:03.048Z</time></trkpt><trkpt lat="45.439507333823265" lon="10.785950283675318"><ele>127.75</ele><time>2026-04-06T08:27:04.048Z</time></trkpt><trkpt lat="45.439517441221525" lon="10.785779089568985"><ele>128.5</ele><time>2026-04-06T08:27:05.048Z</time></trkpt><trkpt lat="45.43953275987344" lon="10.785592451057939"><ele>129.25</ele><time>2026-04-06T08:27:06.048Z</time></trkpt><trkpt lat="45.43955252818691" lon="10.785398164756952"><ele>130.0</ele><time>2026-04-06T08:27:07.048Z</time></trkpt><trkpt lat="45.43957670047508" lon="10.785175813173616"><ele>130.0</ele><time>2026-04-06T08:27:08.048Z</time></trkpt><trkpt lat="45.439606823844564" lon="10.784920007654316"><ele>130.0</ele><time>2026-04-06T08:27:09.048Z</time></trkpt><trkpt lat="45.43963968991596" lon="10.784652153651097"><ele>130.0</ele><time>2026-04-06T08:27:10.048Z</time></trkpt><trkpt lat="45.4396714203787" lon="10.78439355407251"><ele>128.66666666666669</ele><time>2026-04-06T08:27:11.048Z</time></trkpt><trkpt lat="45.43970281965059" lon="10.78413871614635"><ele>127.33333333333334</ele><time>2026-04-06T08:27:12.048Z</time></trkpt><trkpt lat="45.4397334269208" lon="10.783890027923619"><ele>126.0</ele><time>2026-04-06T08:27:13.048Z</time></trkpt><trkpt lat="45.4397618135107" lon="10.783654023359915"><ele>126.0</ele><time>2026-04-06T08:27:14.048Z</time></trkpt><trkpt lat="45.43978768784349" lon="10.783425295773212"><ele>126.0</ele><time>2026-04-06T08:27:15.048Z</time></trkpt><trkpt lat="45.43979061355347" lon="10.783215017009164"><ele>126.0</ele><time>2026-04-06T08:27:16.048Z</time></trkpt><trkpt lat="45.439809313277124" lon="10.783013624429458"><ele>126.0</ele><time>2026-04-06T08:27:17.048Z</time></trkpt><trkpt lat="45.43981305711463" lon="10.782806862876095"><ele>126.0</ele><time>2026-04-06T08:27:18.048Z</time></trkpt><trkpt lat="45.43982306188273" lon="10.78260745676293"><ele>126.0</ele><time>2026-04-06T08:27:19.048Z</time></trkpt><trkpt lat="45.439828553231465" lon="10.782424690859559"><ele>126.0</ele><time>2026-04-06T08:27:20.048Z</time></trkpt><trkpt lat="45.43983591164223" lon="10.78225357221655"><ele>125.5</ele><time>2026-04-06T08:27:21.048Z</time></trkpt><trkpt lat="45.43984816169338" lon="10.78207992274086"><ele>125.0</ele><time>2026-04-06T08:27:22.048Z</time></trkpt><trkpt lat="45.43986337210237" lon="10.78191153581866"><ele>124.5</ele><time>2026-04-06T08:27:23.048Z</time></trkpt><trkpt lat="45.43987589415113" lon="10.781736514349427"><ele>124.0</ele><time>2026-04-06T08:27:24.048Z</time></trkpt><trkpt lat="45.4398872075597" lon="10.781544746161007"><ele>123.5</ele><time>2026-04-06T08:27:25.048Z</time></trkpt><trkpt lat="45.43989923325085" lon="10.781341430416298"><ele>123.0</ele><time>2026-04-06T08:27:26.048Z</time></trkpt><trkpt lat="45.43990988324482" lon="10.781138344659423"><ele>122.5</ele><time>2026-04-06T08:27:27.048Z</time></trkpt><trkpt lat="45.439925516197654" lon="10.780942038471682"><ele>122.0</ele><time>2026-04-06T08:27:28.048Z</time></trkpt><trkpt lat="45.43993906205661" lon="10.780768165832058"><ele>121.75</ele><time>2026-04-06T08:27:29.048Z</time></trkpt><trkpt lat="45.4399520042561" lon="10.780586518821282"><ele>121.5</ele><time>2026-04-06T08:27:30.048Z</time></trkpt><trkpt lat="45.43998027832621" lon="10.780397744839416"><ele>121.25</ele><time>2026-04-06T08:27:31.048Z</time></trkpt><trkpt lat="45.43998099512624" lon="10.780195373653427"><ele>121.0</ele><time>2026-04-06T08:27:32.048Z</time></trkpt><trkpt lat="45.44000337906995" lon="10.779990541094737"><ele>121.33333333333334</ele><time>2026-04-06T08:27:33.048Z</time></trkpt><trkpt lat="45.44001864292326" lon="10.779762432955186"><ele>121.66666666666666</ele><time>2026-04-06T08:27:34.048Z</time></trkpt><trkpt lat="45.44003918923683" lon="10.77952683741625"><ele>122.0</ele><time>2026-04-06T08:27:35.048Z</time></trkpt><trkpt lat="45.44005924466432" lon="10.77927364882187"><ele>122.0</ele><time>2026-04-06T08:27:36.048Z</time></trkpt><trkpt lat="45.44010070773886" lon="10.778992835478869"><ele>122.0</ele><time>2026-04-06T08:27:37.048Z</time></trkpt><trkpt lat="45.44012881161105" lon="10.778681989014121"><ele>122.0</ele><time>2026-04-06T08:27:38.048Z</time></trkpt><trkpt lat="45.44014413198911" lon="10.778357578761595"><ele>123.0</ele><time>2026-04-06T08:27:39.048Z</time></trkpt><trkpt lat="45.44019103582431" lon="10.777993750382604"><ele>124.0</ele><time>2026-04-06T08:27:40.048Z</time></trkpt><trkpt lat="45.44022557803996" lon="10.777612241009159"><ele>121.5</ele><time>2026-04-06T08:27:41.048Z</time></trkpt><trkpt lat="45.44024492671632" lon="10.777215744019028"><ele>119.0</ele><time>2026-04-06T08:27:42.048Z</time></trkpt><trkpt lat="45.44027810306899" lon="10.776863538998082"><ele>118.0</ele><time>2026-04-06T08:27:43.048Z</time></trkpt><trkpt lat="45.44030844769944" lon="10.776533305829515"><ele>117.0</ele><time>2026-04-06T08:27:44.048Z</time></trkpt><trkpt lat="45.44034055884712" lon="10.776220270086979"><ele>116.66666666666666</ele><time>2026-04-06T08:27:45.048Z</time></trkpt><trkpt lat="45.44036469374117" lon="10.775912660156493"><ele>116.33333333333333</ele><time>2026-04-06T08:27:46.048Z</time></trkpt><trkpt lat="45.440404024358166" lon="10.775630986979055"><ele>116.0</ele><time>2026-04-06T08:27:47.048Z</time></trkpt><trkpt lat="45.4404138022785" lon="10.775359974463846"><ele>115.33333333333333</ele><time>2026-04-06T08:27:48.048Z</time></trkpt><trkpt lat="45.440437462005725" lon="10.775110671994867"><ele>114.66666666666666</ele><time>2026-04-06T08:27:49.048Z</time></trkpt><trkpt lat="45.44045753302136" lon="10.77488502709163"><ele>114.0</ele><time>2026-04-06T08:27:50.048Z</time></trkpt><trkpt lat="45.4404775689766" lon="10.774665761769436"><ele>114.0</ele><time>2026-04-06T08:27:51.048Z</time></trkpt><trkpt lat="45.44049596721552" lon="10.77444505366906"><ele>114.0</ele><time>2026-04-06T08:27:52.048Z</time></trkpt><trkpt lat="45.44051529945302" lon="10.774234598713106"><ele>114.0</ele><time>2026-04-06T08:27:53.048Z</time></trkpt><trkpt lat="45.44053651323643" lon="10.774010772766866"><ele>113.66666666666666</ele><time>2026-04-06T08:27:54.048Z</time></trkpt><trkpt lat="45.440571504149595" lon="10.773776962374153"><ele>113.33333333333333</ele><time>2026-04-06T08:27:55.048Z</time></trkpt><trkpt lat="45.44059171836151" lon="10.773555827353945"><ele>113.0</ele><time>2026-04-06T08:27:56.048Z</time></trkpt><trkpt lat="45.44061149444273" lon="10.773339543916293"><ele>113.0</ele><time>2026-04-06T08:27:57.048Z</time></trkpt><trkpt lat="45.440631271884946" lon="10.773128531163751"><ele>113.0</ele><time>2026-04-06T08:27:58.048Z</time></trkpt><trkpt lat="45.4406493890278" lon="10.772927133063153"><ele>113.0</ele><time>2026-04-06T08:27:59.048Z</time></trkpt><trkpt lat="45.440666942448644" lon="10.772730852073408"><ele>113.0</ele><time>2026-04-06T08:28:00.048Z</time></trkpt><trkpt lat="45.440670078996376" lon="10.772555841376295"><ele>113.0</ele><time>2026-04-06T08:28:01.048Z</time></trkpt><trkpt lat="45.44068764204714" lon="10.772395329570172"><ele>113.0</ele><time>2026-04-06T08:28:02.048Z</time></trkpt><trkpt lat="45.44070116376332" lon="10.772222767622656"><ele>113.0</ele><time>2026-04-06T08:28:03.048Z</time></trkpt><trkpt lat="45.440710426030904" lon="10.772036648816574"><ele>113.0</ele><time>2026-04-06T08:28:04.048Z</time></trkpt><trkpt lat="45.4407363857922" lon="10.771842553304966"><ele>114.33333333333333</ele><time>2026-04-06T08:28:05.048Z</time></trkpt><trkpt lat="45.44071921473402" lon="10.77163571910009"><ele>115.66666666666666</ele><time>2026-04-06T08:28:06.048Z</time></trkpt><trkpt lat="45.44069969453492" lon="10.771378717317178"><ele>117.0</ele><time>2026-04-06T08:28:07.048Z</time></trkpt><trkpt lat="45.44063890878745" lon="10.771107811868388"><ele>117.33333333333334</ele><time>2026-04-06T08:28:08.048Z</time></trkpt><trkpt lat="45.44058462039669" lon="10.770878439582864"><ele>117.66666666666667</ele><time>2026-04-06T08:28:09.048Z</time></trkpt><trkpt lat="45.440534578783534" lon="10.77066701031779"><ele>118.0</ele><time>2026-04-06T08:28:10.048Z</time></trkpt><trkpt lat="45.440476592487435" lon="10.77042201421968"><ele>118.0</ele><time>2026-04-06T08:28:12.048Z</time></trkpt><trkpt lat="45.44042622564934" lon="10.770272078762641"><ele>118.0</ele><time>2026-04-06T08:28:13.048Z</time></trkpt><trkpt lat="45.44039950375259" lon="10.77009451924564"><ele>118.0</ele><time>2026-04-06T08:28:14.048Z</time></trkpt><trkpt lat="45.440352639537274" lon="10.769952340663544"><ele>118.0</ele><time>2026-04-06T08:28:15.048Z</time></trkpt><trkpt lat="45.440332442390876" lon="10.76980654005801"><ele>118.5</ele><time>2026-04-06T08:28:16.048Z</time></trkpt><trkpt lat="45.44029487799779" lon="10.769652168218569"><ele>119.0</ele><time>2026-04-06T08:28:17.049Z</time></trkpt><trkpt lat="45.44024774106644" lon="10.769487441992391"><ele>119.5</ele><time>2026-04-06T08:28:18.049Z</time></trkpt><trkpt lat="45.44020393139682" lon="10.769316876431432"><ele>120.0</ele><time>2026-04-06T08:28:19.049Z</time></trkpt><trkpt lat="45.44016668635258" lon="10.769131703978255"><ele>120.25</ele><time>2026-04-06T08:28:20.049Z</time></trkpt><trkpt lat="45.44012719947773" lon="10.768955759618473"><ele>120.5</ele><time>2026-04-06T08:28:21.049Z</time></trkpt><trkpt lat="45.440084756140465" lon="10.768793757141012"><ele>120.75</ele><time>2026-04-06T08:28:22.049Z</time></trkpt><trkpt lat="45.44004756349859" lon="10.768623828121033"><ele>121.0</ele><time>2026-04-06T08:28:23.049Z</time></trkpt><trkpt lat="45.44001259752834" lon="10.768457752383265"><ele>120.6</ele><time>2026-04-06T08:28:24.049Z</time></trkpt><trkpt lat="45.439974406615825" lon="10.768306391891334"><ele>120.19999999999999</ele><time>2026-04-06T08:28:25.049Z</time></trkpt><trkpt lat="45.439934742577314" lon="10.768178310219538"><ele>119.80000000000001</ele><time>2026-04-06T08:28:26.049Z</time></trkpt><trkpt lat="45.439907852092944" lon="10.7680327894947"><ele>119.4</ele><time>2026-04-06T08:28:27.049Z</time></trkpt><trkpt lat="45.43986823145186" lon="10.767874501667928"><ele>119.0</ele><time>2026-04-06T08:28:28.049Z</time></trkpt><trkpt lat="45.43980183312573" lon="10.767701889553711"><ele>118.75</ele><time>2026-04-06T08:28:29.049Z</time></trkpt><trkpt lat="45.439727470236484" lon="10.767522626110699"><ele>118.5</ele><time>2026-04-06T08:28:30.049Z</time></trkpt><trkpt lat="45.43965503726899" lon="10.767347830717007"><ele>118.25</ele><time>2026-04-06T08:28:31.049Z</time></trkpt><trkpt lat="45.43958406012123" lon="10.767177158717097"><ele>118.0</ele><time>2026-04-06T08:28:32.049Z</time></trkpt><trkpt lat="45.43951551808282" lon="10.766993579697678"><ele>116.5</ele><time>2026-04-06T08:28:33.049Z</time></trkpt><trkpt lat="45.439443348039696" lon="10.766822219325206"><ele>115.0</ele><time>2026-04-06T08:28:34.049Z</time></trkpt><trkpt lat="45.43937770843682" lon="10.766654048672434"><ele>113.5</ele><time>2026-04-06T08:28:35.049Z</time></trkpt><trkpt lat="45.439324969343616" lon="10.766485624406442"><ele>112.0</ele><time>2026-04-06T08:28:36.049Z</time></trkpt><trkpt lat="45.43927195408189" lon="10.766318739176835"><ele>112.0</ele><time>2026-04-06T08:28:37.049Z</time></trkpt><trkpt lat="45.43923102589675" lon="10.766180666629607"><ele>111.99999999999999</ele><time>2026-04-06T08:28:38.049Z</time></trkpt><trkpt lat="45.43921521063273" lon="10.76607626030405"><ele>111.99999999999999</ele><time>2026-04-06T08:28:39.049Z</time></trkpt><trkpt lat="45.439180005713865" lon="10.765954583691585"><ele>112.0</ele><time>2026-04-06T08:28:40.049Z</time></trkpt><trkpt lat="45.4391483156865" lon="10.76583541317891"><ele>112.0</ele><time>2026-04-06T08:28:41.049Z</time></trkpt><trkpt lat="45.43911608610319" lon="10.765713449424222"><ele>111.57142857142857</ele><time>2026-04-06T08:28:42.049Z</time></trkpt><trkpt lat="45.439087219082516" lon="10.765596721797046"><ele>111.14285714285714</ele><time>2026-04-06T08:28:43.049Z</time></trkpt><trkpt lat="45.439068154571885" lon="10.765492705348631"><ele>110.71428571428572</ele><time>2026-04-06T08:28:44.049Z</time></trkpt><trkpt lat="45.43904924160426" lon="10.765397159166717"><ele>110.28571428571428</ele><time>2026-04-06T08:28:45.049Z</time></trkpt><trkpt lat="45.43902508333841" lon="10.765313828087585"><ele>109.85714285714286</ele><time>2026-04-06T08:28:46.049Z</time></trkpt><trkpt lat="45.439000770129454" lon="10.765220529541894"><ele>109.42857142857143</ele><time>2026-04-06T08:28:48.049Z</time></trkpt><trkpt lat="45.43897257775277" lon="10.765112795887427"><ele>109.0</ele><time>2026-04-06T08:28:51.049Z</time></trkpt><trkpt lat="45.438947344009854" lon="10.764939859347413"><ele>108.6</ele><time>2026-04-06T08:28:53.049Z</time></trkpt><trkpt lat="45.438906516869245" lon="10.764819406320637"><ele>108.2</ele><time>2026-04-06T08:28:55.049Z</time></trkpt><trkpt lat="45.438880138605725" lon="10.764677257387056"><ele>107.79999999999998</ele><time>2026-04-06T08:28:57.049Z</time></trkpt><trkpt lat="45.43884494735737" lon="10.764487961873138"><ele>107.39999999999999</ele><time>2026-04-06T08:28:59.049Z</time></trkpt><trkpt lat="45.43882562209613" lon="10.764372868300358"><ele>107.0</ele><time>2026-04-06T08:29:00.049Z</time></trkpt><trkpt lat="45.438806456603025" lon="10.764263525764546"><ele>106.16666666666666</ele><time>2026-04-06T08:29:01.049Z</time></trkpt><trkpt lat="45.43878269801413" lon="10.764158086710744"><ele>105.33333333333333</ele><time>2026-04-06T08:29:02.049Z</time></trkpt><trkpt lat="45.43875773737496" lon="10.764044496191248"><ele>104.5</ele><time>2026-04-06T08:29:03.049Z</time></trkpt><trkpt lat="45.43873485709867" lon="10.763933009620777"><ele>103.66666666666666</ele><time>2026-04-06T08:29:04.049Z</time></trkpt><trkpt lat="45.43871985915997" lon="10.763836641224186"><ele>102.83333333333333</ele><time>2026-04-06T08:29:05.049Z</time></trkpt><trkpt lat="45.43869916685552" lon="10.76373821848674"><ele>102.0</ele><time>2026-04-06T08:29:06.049Z</time></trkpt><trkpt lat="45.438680635349385" lon="10.76363493879925"><ele>101.85714285714286</ele><time>2026-04-06T08:29:07.049Z</time></trkpt><trkpt lat="45.43865860036981" lon="10.763525541687605"><ele>101.71428571428572</ele><time>2026-04-06T08:29:08.049Z</time></trkpt><trkpt lat="45.43864398139863" lon="10.76342616990727"><ele>101.57142857142857</ele><time>2026-04-06T08:29:09.049Z</time></trkpt><trkpt lat="45.43862380293124" lon="10.763329588708348"><ele>101.42857142857143</ele><time>2026-04-06T08:29:10.049Z</time></trkpt><trkpt lat="45.43860955896595" lon="10.763238069370272"><ele>101.28571428571428</ele><time>2026-04-06T08:29:11.049Z</time></trkpt><trkpt lat="45.4385937692016" lon="10.763150823243318"><ele>101.14285714285714</ele><time>2026-04-06T08:29:12.049Z</time></trkpt><trkpt lat="45.43859059452416" lon="10.763041290782915"><ele>101.0</ele><time>2026-04-06T08:29:14.049Z</time></trkpt><trkpt lat="45.43857277405594" lon="10.762924907110582"><ele>101.0</ele><time>2026-04-06T08:29:17.049Z</time></trkpt><trkpt lat="45.43855857236469" lon="10.762828239553897"><ele>101.0</ele><time>2026-04-06T08:29:19.049Z</time></trkpt><trkpt lat="45.43854242362025" lon="10.76271255148956"><ele>101.0</ele><time>2026-04-06T08:29:21.049Z</time></trkpt><trkpt lat="45.43852071987822" lon="10.762557133978405"><ele>101.0</ele><time>2026-04-06T08:29:23.049Z</time></trkpt><trkpt lat="45.438494202141214" lon="10.76236724390398"><ele>101.0</ele><time>2026-04-06T08:29:25.049Z</time></trkpt><trkpt lat="45.43847986914311" lon="10.762241778797991"><ele>101.19999999999999</ele><time>2026-04-06T08:29:26.049Z</time></trkpt><trkpt lat="45.438465462737696" lon="10.762094229765342"><ele>101.39999999999999</ele><time>2026-04-06T08:29:27.049Z</time></trkpt><trkpt lat="45.43845331407432" lon="10.761956923989391"><ele>101.6</ele><time>2026-04-06T08:29:28.049Z</time></trkpt><trkpt lat="45.43844489899866" lon="10.761842591687435"><ele>101.8</ele><time>2026-04-06T08:29:29.049Z</time></trkpt><trkpt lat="45.438436580665154" lon="10.76170021199711"><ele>102.0</ele><time>2026-04-06T08:29:31.049Z</time></trkpt><trkpt lat="45.43843135407893" lon="10.761599296649946"><ele>102.0</ele><time>2026-04-06T08:29:33.049Z</time></trkpt><trkpt lat="45.43842533188258" lon="10.761483019596803"><ele>102.0</ele><time>2026-04-06T08:29:35.049Z</time></trkpt><trkpt lat="45.43839523423673" lon="10.761322122807522"><ele>102.0</ele><time>2026-04-06T08:29:37.049Z</time></trkpt><trkpt lat="45.43839595266251" lon="10.761219087487618"><ele>102.0</ele><time>2026-04-06T08:29:39.049Z</time></trkpt><trkpt lat="45.43839498305456" lon="10.761111267536956"><ele>102.0</ele><time>2026-04-06T08:29:42.049Z</time></trkpt><trkpt lat="45.43839489839622" lon="10.76099367559344"><ele>102.0</ele><time>2026-04-06T08:29:45.049Z</time></trkpt><trkpt lat="45.43838765129411" lon="10.760894900790136"><ele>102.0</ele><time>2026-04-06T08:29:48.049Z</time></trkpt><trkpt lat="45.438385574405864" lon="10.760799046845959"><ele>102.0</ele><time>2026-04-06T08:29:57.049Z</time></trkpt><trkpt lat="45.438401300883164" lon="10.76066673741323"><ele>102.0</ele><time>2026-04-06T08:29:59.049Z</time></trkpt><trkpt lat="45.43845372480335" lon="10.760567417147138"><ele>102.0</ele><time>2026-04-06T08:30:00.049Z</time></trkpt><trkpt lat="45.438427700157675" lon="10.760453796184484"><ele>102.0</ele><time>2026-04-06T08:30:01.049Z</time></trkpt><trkpt lat="45.43840027340794" lon="10.760346645081107"><ele>102.0</ele><time>2026-04-06T08:30:02.049Z</time></trkpt><trkpt lat="45.438370770370206" lon="10.760191878925498"><ele>101.33333333333334</ele><time>2026-04-06T08:30:03.049Z</time></trkpt><trkpt lat="45.43834241565042" lon="10.759970148031677"><ele>100.66666666666667</ele><time>2026-04-06T08:30:04.049Z</time></trkpt><trkpt lat="45.4383324575715" lon="10.759701804676894"><ele>100.0</ele><time>2026-04-06T08:30:05.049Z</time></trkpt><trkpt lat="45.438330092683984" lon="10.759460727831847"><ele>100.25</ele><time>2026-04-06T08:30:06.049Z</time></trkpt><trkpt lat="45.438321235829065" lon="10.759264552914383"><ele>100.5</ele><time>2026-04-06T08:30:07.049Z</time></trkpt><trkpt lat="45.43831218784258" lon="10.759064144539712"><ele>100.75</ele><time>2026-04-06T08:30:08.049Z</time></trkpt><trkpt lat="45.43828155948123" lon="10.758869409685635"><ele>101.0</ele><time>2026-04-06T08:30:09.049Z</time></trkpt><trkpt lat="45.438272866052394" lon="10.758664322893246"><ele>101.4</ele><time>2026-04-06T08:30:10.049Z</time></trkpt><trkpt lat="45.43826507842213" lon="10.758473850645666"><ele>101.8</ele><time>2026-04-06T08:30:11.049Z</time></trkpt><trkpt lat="45.438257820304585" lon="10.758311711303662"><ele>102.2</ele><time>2026-04-06T08:30:12.049Z</time></trkpt><trkpt lat="45.43825804704784" lon="10.758173448481555"><ele>102.60000000000001</ele><time>2026-04-06T08:30:13.049Z</time></trkpt><trkpt lat="45.43826134368082" lon="10.758059820515655"><ele>103.0</ele><time>2026-04-06T08:30:14.049Z</time></trkpt><trkpt lat="45.43826057448324" lon="10.757941017785532"><ele>103.00000000000001</ele><time>2026-04-06T08:30:15.049Z</time></trkpt><trkpt lat="45.438248239417874" lon="10.75782294694589"><ele>103.0</ele><time>2026-04-06T08:30:16.049Z</time></trkpt><trkpt lat="45.43824055745142" lon="10.757719320509878"><ele>103.0</ele><time>2026-04-06T08:30:17.049Z</time></trkpt><trkpt lat="45.43823624254109" lon="10.757613689621015"><ele>103.0</ele><time>2026-04-06T08:30:18.049Z</time></trkpt><trkpt lat="45.43823264940844" lon="10.757506461904672"><ele>103.00000000000001</ele><time>2026-04-06T08:30:19.049Z</time></trkpt><trkpt lat="45.438226764128466" lon="10.757396770518538"><ele>103.0</ele><time>2026-04-06T08:30:20.049Z</time></trkpt><trkpt lat="45.43822091230828" lon="10.757289347381969"><ele>102.83333333333334</ele><time>2026-04-06T08:30:21.049Z</time></trkpt><trkpt lat="45.438213736721494" lon="10.757180290691844"><ele>102.66666666666667</ele><time>2026-04-06T08:30:22.049Z</time></trkpt><trkpt lat="45.43820584412432" lon="10.75706812604278"><ele>102.5</ele><time>2026-04-06T08:30:23.05Z</time></trkpt><trkpt lat="45.438198566959834" lon="10.75695420171386"><ele>102.33333333333334</ele><time>2026-04-06T08:30:24.05Z</time></trkpt><trkpt lat="45.4381810926382" lon="10.756836560520565"><ele>102.16666666666667</ele><time>2026-04-06T08:30:25.05Z</time></trkpt><trkpt lat="45.43820458303932" lon="10.756702758328357"><ele>102.0</ele><time>2026-04-06T08:30:26.05Z</time></trkpt><trkpt lat="45.438198045143196" lon="10.75656595973236"><ele>102.0</ele><time>2026-04-06T08:30:27.05Z</time></trkpt><trkpt lat="45.4381919233984" lon="10.756436076054923"><ele>102.0</ele><time>2026-04-06T08:30:28.05Z</time></trkpt><trkpt lat="45.43818642393813" lon="10.75631939551129"><ele>102.0</ele><time>2026-04-06T08:30:29.05Z</time></trkpt><trkpt lat="45.43818135704706" lon="10.756211893160115"><ele>102.0</ele><time>2026-04-06T08:30:30.05Z</time></trkpt><trkpt lat="45.43815013696347" lon="10.756117203196942"><ele>102.0</ele><time>2026-04-06T08:30:31.05Z</time></trkpt><trkpt lat="45.43814636982525" lon="10.756019702522584"><ele>102.0</ele><time>2026-04-06T08:30:32.05Z</time></trkpt><trkpt lat="45.438142798144916" lon="10.75591412809884"><ele>102.19999999999999</ele><time>2026-04-06T08:30:33.05Z</time></trkpt><trkpt lat="45.43813787505906" lon="10.75578919132455"><ele>102.4</ele><time>2026-04-06T08:30:34.05Z</time></trkpt><trkpt lat="45.438132177329265" lon="10.75565512176272"><ele>102.6</ele><time>2026-04-06T08:30:35.05Z</time></trkpt><trkpt lat="45.4381267128687" lon="10.755509811840868"><ele>102.80000000000001</ele><time>2026-04-06T08:30:36.05Z</time></trkpt><trkpt lat="45.43814109570098" lon="10.75534351611961"><ele>103.0</ele><time>2026-04-06T08:30:37.05Z</time></trkpt><trkpt lat="45.438113831444404" lon="10.755183024621578"><ele>103.0</ele><time>2026-04-06T08:30:38.05Z</time></trkpt><trkpt lat="45.43810625697745" lon="10.755029739877818"><ele>103.0</ele><time>2026-04-06T08:30:39.05Z</time></trkpt><trkpt lat="45.43810236616837" lon="10.754884330904087"><ele>103.0</ele><time>2026-04-06T08:30:40.05Z</time></trkpt><trkpt lat="45.4380970415426" lon="10.754730380620892"><ele>103.0</ele><time>2026-04-06T08:30:41.05Z</time></trkpt><trkpt lat="45.438090783051365" lon="10.754559638094188"><ele>103.0</ele><time>2026-04-06T08:30:42.05Z</time></trkpt><trkpt lat="45.438089387143286" lon="10.75438716227666"><ele>103.0</ele><time>2026-04-06T08:30:43.05Z</time></trkpt><trkpt lat="45.43812153031946" lon="10.754264458064632"><ele>103.0</ele><time>2026-04-06T08:30:44.05Z</time></trkpt><trkpt lat="45.438158539337486" lon="10.754131586873887"><ele>103.0</ele><time>2026-04-06T08:30:45.05Z</time></trkpt><trkpt lat="45.438161188887314" lon="10.753974143911973"><ele>103.0</ele><time>2026-04-06T08:30:46.05Z</time></trkpt><trkpt lat="45.43807987431241" lon="10.753731629339905"><ele>103.0</ele><time>2026-04-06T08:30:47.05Z</time></trkpt><trkpt lat="45.438078678810506" lon="10.753572049098748"><ele>103.0</ele><time>2026-04-06T08:30:48.05Z</time></trkpt><trkpt lat="45.43807662636133" lon="10.753413020543501"><ele>103.0</ele><time>2026-04-06T08:30:49.05Z</time></trkpt><trkpt lat="45.43807519566082" lon="10.75330216638602"><ele>103.0</ele><time>2026-04-06T08:30:50.05Z</time></trkpt><trkpt lat="45.43805768026929" lon="10.753178399767716"><ele>103.0</ele><time>2026-04-06T08:30:51.05Z</time></trkpt><trkpt lat="45.4380576527775" lon="10.753066361938156"><ele>102.60000000000001</ele><time>2026-04-06T08:30:52.05Z</time></trkpt><trkpt lat="45.43807061577621" lon="10.752947311369583"><ele>102.2</ele><time>2026-04-06T08:30:53.05Z</time></trkpt><trkpt lat="45.438068469967014" lon="10.75281559540755"><ele>101.8</ele><time>2026-04-06T08:30:54.05Z</time></trkpt><trkpt lat="45.43806656370346" lon="10.75269005384877"><ele>101.4</ele><time>2026-04-06T08:30:55.05Z</time></trkpt><trkpt lat="45.438064792645065" lon="10.752573423105895"><ele>101.0</ele><time>2026-04-06T08:30:56.05Z</time></trkpt><trkpt lat="45.43808090803423" lon="10.752393078831435"><ele>101.0</ele><time>2026-04-06T08:30:58.05Z</time></trkpt><trkpt lat="45.43810035103614" lon="10.752301306070432"><ele>101.0</ele><time>2026-04-06T08:30:59.05Z</time></trkpt><trkpt lat="45.438180665922225" lon="10.75217200157307"><ele>101.0</ele><time>2026-04-06T08:31:01.05Z</time></trkpt><trkpt lat="45.43820291933244" lon="10.752069286028458"><ele>101.0</ele><time>2026-04-06T08:31:02.05Z</time></trkpt><trkpt lat="45.43821371671951" lon="10.751931751931226"><ele>101.0</ele><time>2026-04-06T08:31:03.05Z</time></trkpt><trkpt lat="45.438174102213" lon="10.751784148647854"><ele>101.0</ele><time>2026-04-06T08:31:04.05Z</time></trkpt><trkpt lat="45.43810679217387" lon="10.751637720056912"><ele>101.0</ele><time>2026-04-06T08:31:05.05Z</time></trkpt><trkpt lat="45.438059045036304" lon="10.751479259957424"><ele>101.0</ele><time>2026-04-06T08:31:06.05Z</time></trkpt><trkpt lat="45.43803521166555" lon="10.751324098696442"><ele>101.0</ele><time>2026-04-06T08:31:07.05Z</time></trkpt><trkpt lat="45.43805048829062" lon="10.751160410098413"><ele>100.8</ele><time>2026-04-06T08:31:08.05Z</time></trkpt><trkpt lat="45.4380476950103" lon="10.751014041885387"><ele>100.6</ele><time>2026-04-06T08:31:09.05Z</time></trkpt><trkpt lat="45.438045013659966" lon="10.750873539213261"><ele>100.4</ele><time>2026-04-06T08:31:10.05Z</time></trkpt><trkpt lat="45.43804271452234" lon="10.750726503324538"><ele>100.2</ele><time>2026-04-06T08:31:11.05Z</time></trkpt><trkpt lat="45.43804006153243" lon="10.750541316543993"><ele>100.0</ele><time>2026-04-06T08:31:12.05Z</time></trkpt><trkpt lat="45.43803739036661" lon="10.750354861014335"><ele>100.66666666666667</ele><time>2026-04-06T08:31:13.05Z</time></trkpt><trkpt lat="45.43803419864568" lon="10.750132069775399"><ele>101.33333333333334</ele><time>2026-04-06T08:31:14.05Z</time></trkpt><trkpt lat="45.43803070754243" lon="10.749884883407493"><ele>102.0</ele><time>2026-04-06T08:31:15.05Z</time></trkpt><trkpt lat="45.43802716621035" lon="10.749600707395253"><ele>102.0</ele><time>2026-04-06T08:31:16.05Z</time></trkpt><trkpt lat="45.43802365172929" lon="10.749303699453188"><ele>102.0</ele><time>2026-04-06T08:31:17.05Z</time></trkpt><trkpt lat="45.437984322319224" lon="10.749036922447873"><ele>102.0</ele><time>2026-04-06T08:31:18.05Z</time></trkpt><trkpt lat="45.437980955067395" lon="10.74878886988261"><ele>101.66666666666666</ele><time>2026-04-06T08:31:19.05Z</time></trkpt><trkpt lat="45.43797594602837" lon="10.748530641474947"><ele>101.33333333333333</ele><time>2026-04-06T08:31:20.05Z</time></trkpt><trkpt lat="45.437971375747715" lon="10.748270160441546"><ele>101.0</ele><time>2026-04-06T08:31:21.05Z</time></trkpt><trkpt lat="45.438006719960704" lon="10.748006043141155"><ele>101.0</ele><time>2026-04-06T08:31:22.05Z</time></trkpt><trkpt lat="45.43800315170377" lon="10.747756576122839"><ele>101.0</ele><time>2026-04-06T08:31:23.05Z</time></trkpt><trkpt lat="45.43799973574571" lon="10.747517757395125"><ele>101.0</ele><time>2026-04-06T08:31:24.05Z</time></trkpt><trkpt lat="45.43799657147057" lon="10.747296533403874"><ele>101.25</ele><time>2026-04-06T08:31:25.05Z</time></trkpt><trkpt lat="45.43799348717495" lon="10.747080902384967"><ele>101.5</ele><time>2026-04-06T08:31:26.05Z</time></trkpt><trkpt lat="45.43799074841878" lon="10.746889427929139"><ele>101.75</ele><time>2026-04-06T08:31:27.05Z</time></trkpt><trkpt lat="45.43798854381426" lon="10.746735297487252"><ele>102.0</ele><time>2026-04-06T08:31:28.05Z</time></trkpt><trkpt lat="45.43798696530215" lon="10.746624939436005"><ele>103.0</ele><time>2026-04-06T08:31:29.05Z</time></trkpt><trkpt lat="45.43798533524788" lon="10.746510977844016"><ele>104.0</ele><time>2026-04-06T08:31:31.05Z</time></trkpt><trkpt lat="45.43798262998762" lon="10.746321845585618"><ele>105.0</ele><time>2026-04-06T08:31:34.05Z</time></trkpt><trkpt lat="45.43798059510174" lon="10.746179581208242"><ele>106.0</ele><time>2026-04-06T08:31:35.05Z</time></trkpt><trkpt lat="45.43797761286773" lon="10.745971084864424"><ele>106.0</ele><time>2026-04-06T08:31:36.05Z</time></trkpt><trkpt lat="45.43797467893308" lon="10.745743873613236"><ele>106.0</ele><time>2026-04-06T08:31:37.05Z</time></trkpt><trkpt lat="45.437972414798665" lon="10.745557218191683"><ele>106.0</ele><time>2026-04-06T08:31:38.05Z</time></trkpt><trkpt lat="45.43797038444853" lon="10.745389836227625"><ele>106.0</ele><time>2026-04-06T08:31:39.05Z</time></trkpt><trkpt lat="45.43796835018019" lon="10.745228720058302"><ele>106.6</ele><time>2026-04-06T08:31:40.05Z</time></trkpt><trkpt lat="45.4379660424369" lon="10.745064141551623"><ele>107.19999999999999</ele><time>2026-04-06T08:31:41.05Z</time></trkpt><trkpt lat="45.437963199601654" lon="10.74490368197637"><ele>107.80000000000001</ele><time>2026-04-06T08:31:42.05Z</time></trkpt><trkpt lat="45.437960159921396" lon="10.744753116433493"><ele>108.4</ele><time>2026-04-06T08:31:43.05Z</time></trkpt><trkpt lat="45.437957483663645" lon="10.744611395204522"><ele>109.0</ele><time>2026-04-06T08:31:44.05Z</time></trkpt><trkpt lat="45.43795611059149" lon="10.744470444105877"><ele>108.50000000000001</ele><time>2026-04-06T08:31:45.05Z</time></trkpt><trkpt lat="45.43795473166683" lon="10.744333305529382"><ele>108.0</ele><time>2026-04-06T08:31:46.05Z</time></trkpt><trkpt lat="45.43795343675449" lon="10.744202587288505"><ele>107.5</ele><time>2026-04-06T08:31:47.05Z</time></trkpt><trkpt lat="45.43793464082575" lon="10.744099103699854"><ele>107.0</ele><time>2026-04-06T08:31:48.05Z</time></trkpt><trkpt lat="45.437943181271905" lon="10.74398861374829"><ele>106.50000000000001</ele><time>2026-04-06T08:31:49.05Z</time></trkpt><trkpt lat="45.43794515839582" lon="10.743869192134268"><ele>106.0</ele><time>2026-04-06T08:31:50.05Z</time></trkpt><trkpt lat="45.43797712043942" lon="10.743768867127292"><ele>106.00000000000001</ele><time>2026-04-06T08:31:51.05Z</time></trkpt><trkpt lat="45.43798364623575" lon="10.743666941285593"><ele>106.0</ele><time>2026-04-06T08:31:52.05Z</time></trkpt><trkpt lat="45.438029128033705" lon="10.743526031757723"><ele>106.0</ele><time>2026-04-06T08:31:54.05Z</time></trkpt><trkpt lat="45.43803883638377" lon="10.743430364115616"><ele>106.0</ele><time>2026-04-06T08:31:56.05Z</time></trkpt><trkpt lat="45.43806542621871" lon="10.743338559974287"><ele>106.00000000000001</ele><time>2026-04-06T08:31:59.05Z</time></trkpt><trkpt lat="45.438114420203874" lon="10.743218264192834"><ele>106.0</ele><time>2026-04-06T08:32:01.05Z</time></trkpt><trkpt lat="45.438184179905925" lon="10.743125905667489"><ele>105.6</ele><time>2026-04-06T08:32:02.05Z</time></trkpt><trkpt lat="45.438258591615416" lon="10.743003518561341"><ele>105.19999999999999</ele><time>2026-04-06T08:32:03.05Z</time></trkpt><trkpt lat="45.43829660726459" lon="10.74289455092202"><ele>104.80000000000001</ele><time>2026-04-06T08:32:04.05Z</time></trkpt><trkpt lat="45.43831918073051" lon="10.742770688985628"><ele>104.4</ele><time>2026-04-06T08:32:05.05Z</time></trkpt><trkpt lat="45.43831075519578" lon="10.742638471444389"><ele>104.0</ele><time>2026-04-06T08:32:06.05Z</time></trkpt><trkpt lat="45.43827280109983" lon="10.742519723067849"><ele>103.0</ele><time>2026-04-06T08:32:07.05Z</time></trkpt><trkpt lat="45.438198661019804" lon="10.742368750437622"><ele>102.0</ele><time>2026-04-06T08:32:08.05Z</time></trkpt><trkpt lat="45.43810000096887" lon="10.742207099351914"><ele>101.0</ele><time>2026-04-06T08:32:09.05Z</time></trkpt><trkpt lat="45.43799761689269" lon="10.742108458665614"><ele>100.0</ele><time>2026-04-06T08:32:10.05Z</time></trkpt><trkpt lat="45.437897114280425" lon="10.742054638153947"><ele>100.0</ele><time>2026-04-06T08:32:11.05Z</time></trkpt><trkpt lat="45.437769182016524" lon="10.742046618551699"><ele>100.0</ele><time>2026-04-06T08:32:12.05Z</time></trkpt><trkpt lat="45.437610517935056" lon="10.742101801243448"><ele>100.0</ele><time>2026-04-06T08:32:13.05Z</time></trkpt><trkpt lat="45.43745296973651" lon="10.742147107416939"><ele>100.0</ele><time>2026-04-06T08:32:14.05Z</time></trkpt><trkpt lat="45.43730536787881" lon="10.742143779166488"><ele>100.0</ele><time>2026-04-06T08:32:15.05Z</time></trkpt><trkpt lat="45.4371236996049" lon="10.74209955717225"><ele>100.0</ele><time>2026-04-06T08:32:16.05Z</time></trkpt><trkpt lat="45.43691219794536" lon="10.742035867489522"><ele>100.0</ele><time>2026-04-06T08:32:17.05Z</time></trkpt><trkpt lat="45.43670746788915" lon="10.741980512495209"><ele>100.0</ele><time>2026-04-06T08:32:18.05Z</time></trkpt><trkpt lat="45.43652502223656" lon="10.741927880190325"><ele>100.0</ele><time>2026-04-06T08:32:19.05Z</time></trkpt><trkpt lat="45.436343589289244" lon="10.741882144658502"><ele>100.66666666666667</ele><time>2026-04-06T08:32:20.05Z</time></trkpt><trkpt lat="45.43615556981994" lon="10.741831921249341"><ele>101.33333333333334</ele><time>2026-04-06T08:32:21.05Z</time></trkpt><trkpt lat="45.43594820815455" lon="10.7417806063527"><ele>102.0</ele><time>2026-04-06T08:32:22.05Z</time></trkpt><trkpt lat="45.43572220773972" lon="10.74176065383301"><ele>102.0</ele><time>2026-04-06T08:32:23.05Z</time></trkpt><trkpt lat="45.43550700302225" lon="10.741749868928512"><ele>102.0</ele><time>2026-04-06T08:32:24.05Z</time></trkpt><trkpt lat="45.43529099157089" lon="10.741606579253546"><ele>101.0</ele><time>2026-04-06T08:32:25.05Z</time></trkpt><trkpt lat="45.4350801785376" lon="10.741543320302412"><ele>100.0</ele><time>2026-04-06T08:32:26.05Z</time></trkpt><trkpt lat="45.434895399940324" lon="10.74149348273713"><ele>99.0</ele><time>2026-04-06T08:32:27.05Z</time></trkpt><trkpt lat="45.43470903763959" lon="10.741447673048754"><ele>97.0</ele><time>2026-04-06T08:32:28.05Z</time></trkpt><trkpt lat="45.43452638309674" lon="10.741411898962932"><ele>95.0</ele><time>2026-04-06T08:32:29.05Z</time></trkpt><trkpt lat="45.43433098273487" lon="10.74138850485896"><ele>93.0</ele><time>2026-04-06T08:32:30.05Z</time></trkpt><trkpt lat="45.43413331009663" lon="10.741362331751635"><ele>93.0</ele><time>2026-04-06T08:32:31.05Z</time></trkpt><trkpt lat="45.433934884966206" lon="10.741347012818634"><ele>93.0</ele><time>2026-04-06T08:32:32.05Z</time></trkpt><trkpt lat="45.433737077388614" lon="10.741332976965824"><ele>93.0</ele><time>2026-04-06T08:32:33.05Z</time></trkpt><trkpt lat="45.433547567132585" lon="10.741324518059438"><ele>93.0</ele><time>2026-04-06T08:32:34.05Z</time></trkpt><trkpt lat="45.43335724629636" lon="10.741323384302925"><ele>93.0</ele><time>2026-04-06T08:32:35.05Z</time></trkpt><trkpt lat="45.43317144458676" lon="10.74133491009632"><ele>93.0</ele><time>2026-04-06T08:32:36.05Z</time></trkpt><trkpt lat="45.43299588327505" lon="10.74135426431259"><ele>94.5</ele><time>2026-04-06T08:32:37.05Z</time></trkpt><trkpt lat="45.43283512666877" lon="10.741381905347122"><ele>96.0</ele><time>2026-04-06T08:32:38.05Z</time></trkpt><trkpt lat="45.432689253486814" lon="10.741404543763478"><ele>97.5</ele><time>2026-04-06T08:32:39.05Z</time></trkpt><trkpt lat="45.432552612059176" lon="10.741430406831824"><ele>99.0</ele><time>2026-04-06T08:32:40.05Z</time></trkpt><trkpt lat="45.43243576491625" lon="10.741452465409939"><ele>99.0</ele><time>2026-04-06T08:32:41.05Z</time></trkpt><trkpt lat="45.4323419535249" lon="10.741478273750914"><ele>99.0</ele><time>2026-04-06T08:32:42.05Z</time></trkpt><trkpt lat="45.43226882984999" lon="10.741500375460083"><ele>99.0</ele><time>2026-04-06T08:32:43.05Z</time></trkpt><trkpt lat="45.432171694938425" lon="10.741528108690547"><ele>99.0</ele><time>2026-04-06T08:32:45.05Z</time></trkpt><trkpt lat="45.4321053222581" lon="10.741542264772603"><ele>99.0</ele><time>2026-04-06T08:32:48.05Z</time></trkpt><trkpt lat="45.43204346174703" lon="10.741559389701655"><ele>99.0</ele><time>2026-04-06T08:32:50.05Z</time></trkpt><trkpt lat="45.43196029446848" lon="10.741593860187898"><ele>99.16666666666667</ele><time>2026-04-06T08:32:52.05Z</time></trkpt><trkpt lat="45.43187523934192" lon="10.74161579722432"><ele>99.33333333333334</ele><time>2026-04-06T08:32:54.05Z</time></trkpt><trkpt lat="45.43179813395811" lon="10.741629845354357"><ele>99.5</ele><time>2026-04-06T08:32:57.05Z</time></trkpt><trkpt lat="45.431728350712085" lon="10.741646400811664"><ele>99.66666666666667</ele><time>2026-04-06T08:33:00.05Z</time></trkpt><trkpt lat="45.43160428195743" lon="10.741648838844425"><ele>99.83333333333334</ele><time>2026-04-06T08:33:03.05Z</time></trkpt><trkpt lat="45.4315207447964" lon="10.741655793014091"><ele>100.0</ele><time>2026-04-06T08:33:04.05Z</time></trkpt><trkpt lat="45.431454995573255" lon="10.741655982016079"><ele>100.00000000000001</ele><time>2026-04-06T08:33:05.05Z</time></trkpt><trkpt lat="45.43139225891433" lon="10.741673083681158"><ele>100.0</ele><time>2026-04-06T08:33:06.05Z</time></trkpt><trkpt lat="45.431299985156684" lon="10.741636198142922"><ele>100.0</ele><time>2026-04-06T08:33:08.05Z</time></trkpt><trkpt lat="45.43122098971254" lon="10.741616347762966"><ele>100.0</ele><time>2026-04-06T08:33:10.05Z</time></trkpt><trkpt lat="45.431157461758104" lon="10.741596615673286"><ele>100.00000000000001</ele><time>2026-04-06T08:33:12.05Z</time></trkpt><trkpt lat="45.43107890046879" lon="10.74156401385308"><ele>100.0</ele><time>2026-04-06T08:33:14.05Z</time></trkpt><trkpt lat="45.4310063910822" lon="10.741526351592576"><ele>99.71428571428572</ele><time>2026-04-06T08:33:15.05Z</time></trkpt><trkpt lat="45.43094647632552" lon="10.741491697128371"><ele>99.42857142857143</ele><time>2026-04-06T08:33:16.05Z</time></trkpt><trkpt lat="45.430881852783834" lon="10.74144937087131"><ele>99.14285714285714</ele><time>2026-04-06T08:33:17.05Z</time></trkpt><trkpt lat="45.430815027483206" lon="10.741399507980761"><ele>98.85714285714286</ele><time>2026-04-06T08:33:18.05Z</time></trkpt><trkpt lat="45.43075009138811" lon="10.74134692935342"><ele>98.57142857142857</ele><time>2026-04-06T08:33:19.05Z</time></trkpt><trkpt lat="45.43068077925938" lon="10.741283956781261"><ele>98.28571428571429</ele><time>2026-04-06T08:33:20.05Z</time></trkpt><trkpt lat="45.430614659535806" lon="10.741216504260432"><ele>98.0</ele><time>2026-04-06T08:33:21.05Z</time></trkpt><trkpt lat="45.4305516656564" lon="10.741145018822252"><ele>97.99999999999999</ele><time>2026-04-06T08:33:22.05Z</time></trkpt><trkpt lat="45.43050277595788" lon="10.741082975051114"><ele>98.0</ele><time>2026-04-06T08:33:23.05Z</time></trkpt><trkpt lat="45.43044922867613" lon="10.7410080790116"><ele>98.0</ele><time>2026-04-06T08:33:25.05Z</time></trkpt><trkpt lat="45.43038314223313" lon="10.740906460935538"><ele>98.0</ele><time>2026-04-06T08:33:28.05Z</time></trkpt><trkpt lat="45.4303211607407" lon="10.74080093812286"><ele>97.99999999999999</ele><time>2026-04-06T08:33:30.05Z</time></trkpt><trkpt lat="45.43027960056891" lon="10.740713581100731"><ele>98.0</ele><time>2026-04-06T08:33:31.05Z</time></trkpt><trkpt lat="45.43021726409652" lon="10.740569026107869"><ele>98.33333333333333</ele><time>2026-04-06T08:33:33.05Z</time></trkpt><trkpt lat="45.43018154908864" lon="10.740475291702833"><ele>98.66666666666666</ele><time>2026-04-06T08:33:34.05Z</time></trkpt><trkpt lat="45.430149127291365" lon="10.740376540213951"><ele>99.0</ele><time>2026-04-06T08:33:35.05Z</time></trkpt><trkpt lat="45.43012363734229" lon="10.74029163758706"><ele>99.33333333333334</ele><time>2026-04-06T08:33:36.05Z</time></trkpt><trkpt lat="45.43008219798189" lon="10.740129168024"><ele>99.66666666666667</ele><time>2026-04-06T08:33:38.05Z</time></trkpt><trkpt lat="45.430057106742794" lon="10.740023530132454"><ele>100.0</ele><time>2026-04-06T08:33:39.05Z</time></trkpt><trkpt lat="45.43003256155503" lon="10.73991897176524"><ele>100.0</ele><time>2026-04-06T08:33:40.05Z</time></trkpt><trkpt lat="45.43001950796079" lon="10.739810611511327"><ele>100.0</ele><time>2026-04-06T08:33:42.05Z</time></trkpt><trkpt lat="45.4300723245306" lon="10.739738831769548"><ele>100.0</ele><time>2026-04-06T08:33:45.05Z</time></trkpt><trkpt lat="45.429949062412014" lon="10.739550928015085"><ele>100.0</ele><time>2026-04-06T08:33:47.05Z</time></trkpt><trkpt lat="45.429923384188335" lon="10.739435896425743"><ele>100.0</ele><time>2026-04-06T08:33:52.05Z</time></trkpt><trkpt lat="45.42991064344679" lon="10.739279937697209"><ele>100.16666666666667</ele><time>2026-04-06T08:33:54.05Z</time></trkpt><trkpt lat="45.429880854622354" lon="10.739181773074469"><ele>100.33333333333334</ele><time>2026-04-06T08:33:55.05Z</time></trkpt><trkpt lat="45.42985583565885" lon="10.73907297346229"><ele>100.5</ele><time>2026-04-06T08:33:56.05Z</time></trkpt><trkpt lat="45.429830915672696" lon="10.738956939757468"><ele>100.66666666666666</ele><time>2026-04-06T08:33:57.05Z</time></trkpt><trkpt lat="45.42979531243711" lon="10.738826592763871"><ele>100.83333333333333</ele><time>2026-04-06T08:33:58.05Z</time></trkpt><trkpt lat="45.42976902401956" lon="10.738713027425003"><ele>101.0</ele><time>2026-04-06T08:33:59.05Z</time></trkpt><trkpt lat="45.42973719837266" lon="10.738589246719933"><ele>101.0</ele><time>2026-04-06T08:34:00.05Z</time></trkpt><trkpt lat="45.42972018036691" lon="10.738470470387554"><ele>101.0</ele><time>2026-04-06T08:34:01.05Z</time></trkpt><trkpt lat="45.42969726208815" lon="10.738334650055593"><ele>101.0</ele><time>2026-04-06T08:34:02.05Z</time></trkpt><trkpt lat="45.42966868147904" lon="10.738200112088961"><ele>101.0</ele><time>2026-04-06T08:34:03.05Z</time></trkpt><trkpt lat="45.429644343267974" lon="10.738055192990094"><ele>101.0</ele><time>2026-04-06T08:34:04.05Z</time></trkpt><trkpt lat="45.429616563313964" lon="10.73790580400595"><ele>101.0</ele><time>2026-04-06T08:34:05.05Z</time></trkpt><trkpt lat="45.42959226728431" lon="10.73776130946275"><ele>101.0</ele><time>2026-04-06T08:34:06.05Z</time></trkpt><trkpt lat="45.42956694186935" lon="10.73761183876594"><ele>101.0</ele><time>2026-04-06T08:34:07.05Z</time></trkpt><trkpt lat="45.429532324384496" lon="10.737467473693645"><ele>101.0</ele><time>2026-04-06T08:34:08.05Z</time></trkpt><trkpt lat="45.429499329576736" lon="10.737318946445118"><ele>101.0</ele><time>2026-04-06T08:34:09.05Z</time></trkpt><trkpt lat="45.42946975621466" lon="10.73716563805501"><ele>100.75</ele><time>2026-04-06T08:34:10.05Z</time></trkpt><trkpt lat="45.42943755791292" lon="10.737009077589173"><ele>100.5</ele><time>2026-04-06T08:34:11.05Z</time></trkpt><trkpt lat="45.42940604403344" lon="10.736842662894649"><ele>100.25</ele><time>2026-04-06T08:34:12.05Z</time></trkpt><trkpt lat="45.42938282687036" lon="10.736681396534474"><ele>100.0</ele><time>2026-04-06T08:34:13.05Z</time></trkpt><trkpt lat="45.429362702545625" lon="10.73652346155787"><ele>100.0</ele><time>2026-04-06T08:34:14.05Z</time></trkpt><trkpt lat="45.429337782636345" lon="10.73635219776268"><ele>100.0</ele><time>2026-04-06T08:34:15.05Z</time></trkpt><trkpt lat="45.42930937083986" lon="10.736162229016143"><ele>100.0</ele><time>2026-04-06T08:34:16.05Z</time></trkpt><trkpt lat="45.42929457314831" lon="10.735962258403207"><ele>100.0</ele><time>2026-04-06T08:34:17.05Z</time></trkpt><trkpt lat="45.42927290901065" lon="10.735804130506098"><ele>100.0</ele><time>2026-04-06T08:34:18.05Z</time></trkpt><trkpt lat="45.42926269794655" lon="10.735633261024434"><ele>100.0</ele><time>2026-04-06T08:34:19.05Z</time></trkpt><trkpt lat="45.42925456166795" lon="10.735475669826608"><ele>100.0</ele><time>2026-04-06T08:34:20.05Z</time></trkpt><trkpt lat="45.42924584088302" lon="10.7353124065907"><ele>100.0</ele><time>2026-04-06T08:34:21.05Z</time></trkpt><trkpt lat="45.4292313580535" lon="10.735157270621096"><ele>100.0</ele><time>2026-04-06T08:34:22.05Z</time></trkpt><trkpt lat="45.42922895853427" lon="10.73501015267895"><ele>100.0</ele><time>2026-04-06T08:34:23.05Z</time></trkpt><trkpt lat="45.42923310496013" lon="10.734853235966598"><ele>100.0</ele><time>2026-04-06T08:34:24.05Z</time></trkpt><trkpt lat="45.429237156468545" lon="10.734700134504772"><ele>100.0</ele><time>2026-04-06T08:34:25.05Z</time></trkpt><trkpt lat="45.429240805141056" lon="10.73454213541285"><ele>100.0</ele><time>2026-04-06T08:34:26.05Z</time></trkpt><trkpt lat="45.42924520919426" lon="10.734378088336483"><ele>99.75</ele><time>2026-04-06T08:34:27.05Z</time></trkpt><trkpt lat="45.42925199971237" lon="10.734218203675823"><ele>99.5</ele><time>2026-04-06T08:34:28.05Z</time></trkpt><trkpt lat="45.42926059652949" lon="10.734057433728335"><ele>99.25</ele><time>2026-04-06T08:34:29.05Z</time></trkpt><trkpt lat="45.42927020291898" lon="10.733896659274007"><ele>99.0</ele><time>2026-04-06T08:34:30.05Z</time></trkpt><trkpt lat="45.4292826710616" lon="10.733730785581177"><ele>99.0</ele><time>2026-04-06T08:34:31.05Z</time></trkpt><trkpt lat="45.42930227346074" lon="10.733561941376589"><ele>99.0</ele><time>2026-04-06T08:34:32.05Z</time></trkpt><trkpt lat="45.42932167894047" lon="10.73339290289905"><ele>99.0</ele><time>2026-04-06T08:34:33.05Z</time></trkpt><trkpt lat="45.42933801161014" lon="10.733223923499446"><ele>99.0</ele><time>2026-04-06T08:34:34.05Z</time></trkpt><trkpt lat="45.4293473015316" lon="10.733032132039487"><ele>100.0</ele><time>2026-04-06T08:34:35.051Z</time></trkpt><trkpt lat="45.42938237820464" lon="10.732817134925622"><ele>101.0</ele><time>2026-04-06T08:34:36.051Z</time></trkpt><trkpt lat="45.429394418306906" lon="10.73271882331158"><ele>102.0</ele><time>2026-04-06T08:34:37.051Z</time></trkpt><trkpt lat="45.42943188900393" lon="10.732577572332884"><ele>103.0</ele><time>2026-04-06T08:34:38.051Z</time></trkpt><trkpt lat="45.429440379078265" lon="10.732405501330165"><ele>103.0</ele><time>2026-04-06T08:34:39.051Z</time></trkpt><trkpt lat="45.429454832409505" lon="10.732244104614379"><ele>103.0</ele><time>2026-04-06T08:34:40.051Z</time></trkpt><trkpt lat="45.429468932255865" lon="10.732078794879705"><ele>103.0</ele><time>2026-04-06T08:34:41.051Z</time></trkpt><trkpt lat="45.42948727153456" lon="10.731900912116444"><ele>103.0</ele><time>2026-04-06T08:34:42.051Z</time></trkpt><trkpt lat="45.42950594693801" lon="10.731696730806066"><ele>103.0</ele><time>2026-04-06T08:34:43.051Z</time></trkpt><trkpt lat="45.42952449873115" lon="10.73148012066641"><ele>103.0</ele><time>2026-04-06T08:34:44.051Z</time></trkpt><trkpt lat="45.42954655403312" lon="10.731228677741056"><ele>103.0</ele><time>2026-04-06T08:34:45.051Z</time></trkpt><trkpt lat="45.429570728160684" lon="10.730940988048532"><ele>102.66666666666667</ele><time>2026-04-06T08:34:46.051Z</time></trkpt><trkpt lat="45.42960300900993" lon="10.730679181117356"><ele>102.33333333333334</ele><time>2026-04-06T08:34:47.051Z</time></trkpt><trkpt lat="45.429620330048856" lon="10.730422271763615"><ele>102.0</ele><time>2026-04-06T08:34:48.051Z</time></trkpt><trkpt lat="45.42963960043973" lon="10.73018517042548"><ele>102.0</ele><time>2026-04-06T08:34:49.051Z</time></trkpt><trkpt lat="45.42966292686048" lon="10.729925754958082"><ele>102.0</ele><time>2026-04-06T08:34:50.051Z</time></trkpt><trkpt lat="45.42968414238824" lon="10.729653524779721"><ele>102.0</ele><time>2026-04-06T08:34:51.051Z</time></trkpt><trkpt lat="45.429710978141" lon="10.729364227702307"><ele>103.5</ele><time>2026-04-06T08:34:52.051Z</time></trkpt><trkpt lat="45.42973726495396" lon="10.729056301607365"><ele>105.0</ele><time>2026-04-06T08:34:53.051Z</time></trkpt><trkpt lat="45.429767070655366" lon="10.728717123380456"><ele>107.5</ele><time>2026-04-06T08:34:54.051Z</time></trkpt><trkpt lat="45.42979208595074" lon="10.728384031579536"><ele>110.0</ele><time>2026-04-06T08:34:55.051Z</time></trkpt><trkpt lat="45.429821284690306" lon="10.72807942946365"><ele>110.0</ele><time>2026-04-06T08:34:56.051Z</time></trkpt><trkpt lat="45.42984549070599" lon="10.727766297536416"><ele>110.0</ele><time>2026-04-06T08:34:57.051Z</time></trkpt><trkpt lat="45.42986580268946" lon="10.727453726283729"><ele>110.0</ele><time>2026-04-06T08:34:58.051Z</time></trkpt><trkpt lat="45.429887447732455" lon="10.727158841008578"><ele>111.0</ele><time>2026-04-06T08:34:59.051Z</time></trkpt><trkpt lat="45.42989998083918" lon="10.726878855826909"><ele>112.0</ele><time>2026-04-06T08:35:00.051Z</time></trkpt><trkpt lat="45.42990795968669" lon="10.726602791520333"><ele>113.0</ele><time>2026-04-06T08:35:01.051Z</time></trkpt><trkpt lat="45.429903882226256" lon="10.726319062042819"><ele>112.66666666666666</ele><time>2026-04-06T08:35:02.051Z</time></trkpt><trkpt lat="45.4298898218778" lon="10.726039830210537"><ele>112.33333333333334</ele><time>2026-04-06T08:35:03.051Z</time></trkpt><trkpt lat="45.42988763891692" lon="10.725771917830269"><ele>112.0</ele><time>2026-04-06T08:35:04.051Z</time></trkpt><trkpt lat="45.42987811115129" lon="10.725513913002805"><ele>112.0</ele><time>2026-04-06T08:35:05.051Z</time></trkpt><trkpt lat="45.429867843520725" lon="10.725265819775396"><ele>112.0</ele><time>2026-04-06T08:35:06.051Z</time></trkpt><trkpt lat="45.42986064196495" lon="10.725015908412336"><ele>112.0</ele><time>2026-04-06T08:35:07.051Z</time></trkpt><trkpt lat="45.429836827428524" lon="10.724762271279847"><ele>111.0</ele><time>2026-04-06T08:35:08.051Z</time></trkpt><trkpt lat="45.429832603189304" lon="10.724524812762613"><ele>110.0</ele><time>2026-04-06T08:35:09.051Z</time></trkpt><trkpt lat="45.429822358128774" lon="10.724276504465458"><ele>109.0</ele><time>2026-04-06T08:35:10.051Z</time></trkpt><trkpt lat="45.42980948181823" lon="10.724024403608668"><ele>109.0</ele><time>2026-04-06T08:35:11.051Z</time></trkpt><trkpt lat="45.429806923975804" lon="10.723796132559647"><ele>109.0</ele><time>2026-04-06T08:35:12.051Z</time></trkpt><trkpt lat="45.429800304808275" lon="10.723569175146524"><ele>109.0</ele><time>2026-04-06T08:35:13.051Z</time></trkpt><trkpt lat="45.42979919045465" lon="10.723352693098027"><ele>109.25</ele><time>2026-04-06T08:35:14.051Z</time></trkpt><trkpt lat="45.42979168612484" lon="10.72313754883983"><ele>109.5</ele><time>2026-04-06T08:35:15.051Z</time></trkpt><trkpt lat="45.42978930560663" lon="10.722937827714679"><ele>109.75</ele><time>2026-04-06T08:35:16.051Z</time></trkpt><trkpt lat="45.4297882549449" lon="10.722742156534931"><ele>110.0</ele><time>2026-04-06T08:35:17.051Z</time></trkpt><trkpt lat="45.42979605934606" lon="10.72253491824463"><ele>109.0</ele><time>2026-04-06T08:35:18.051Z</time></trkpt><trkpt lat="45.42979367060262" lon="10.722309969611665"><ele>108.0</ele><time>2026-04-06T08:35:19.051Z</time></trkpt><trkpt lat="45.42979142447763" lon="10.722098451721305"><ele>107.0</ele><time>2026-04-06T08:35:20.051Z</time></trkpt><trkpt lat="45.42977336569719" lon="10.721847724099804"><ele>106.33333333333333</ele><time>2026-04-06T08:35:21.051Z</time></trkpt><trkpt lat="45.429778019500006" lon="10.721600304163333"><ele>105.66666666666666</ele><time>2026-04-06T08:35:22.051Z</time></trkpt><trkpt lat="45.42976908323638" lon="10.721369246374858"><ele>105.0</ele><time>2026-04-06T08:35:23.051Z</time></trkpt><trkpt lat="45.429767454488264" lon="10.721148933264573"><ele>104.0</ele><time>2026-04-06T08:35:24.051Z</time></trkpt><trkpt lat="45.4297676624206" lon="10.720921095852761"><ele>103.0</ele><time>2026-04-06T08:35:25.051Z</time></trkpt><trkpt lat="45.42976384834319" lon="10.72068348405708"><ele>102.0</ele><time>2026-04-06T08:35:26.051Z</time></trkpt><trkpt lat="45.429762489776756" lon="10.720427537286369"><ele>101.33333333333334</ele><time>2026-04-06T08:35:27.051Z</time></trkpt><trkpt lat="45.42975695635212" lon="10.72013506087057"><ele>100.66666666666667</ele><time>2026-04-06T08:35:28.051Z</time></trkpt><trkpt lat="45.42975398779087" lon="10.719812510546534"><ele>100.0</ele><time>2026-04-06T08:35:29.051Z</time></trkpt><trkpt lat="45.42975203475159" lon="10.719501868260139"><ele>100.33333333333334</ele><time>2026-04-06T08:35:30.051Z</time></trkpt><trkpt lat="45.42974746116049" lon="10.719217053652542"><ele>100.66666666666666</ele><time>2026-04-06T08:35:31.051Z</time></trkpt><trkpt lat="45.4297581495377" lon="10.718942959057687"><ele>101.0</ele><time>2026-04-06T08:35:32.051Z</time></trkpt><trkpt lat="45.42975595025212" lon="10.7186848611249"><ele>100.66666666666666</ele><time>2026-04-06T08:35:33.051Z</time></trkpt><trkpt lat="45.42975381659207" lon="10.718434464966778"><ele>100.33333333333334</ele><time>2026-04-06T08:35:34.051Z</time></trkpt><trkpt lat="45.42973552958001" lon="10.71817452273093"><ele>100.0</ele><time>2026-04-06T08:35:35.051Z</time></trkpt><trkpt lat="45.42973650732963" lon="10.717912495225534"><ele>99.33333333333334</ele><time>2026-04-06T08:35:36.051Z</time></trkpt><trkpt lat="45.429732338042875" lon="10.7176424541131"><ele>98.66666666666666</ele><time>2026-04-06T08:35:37.051Z</time></trkpt><trkpt lat="45.429725783378295" lon="10.717357884191687"><ele>98.0</ele><time>2026-04-06T08:35:38.051Z</time></trkpt><trkpt lat="45.42972404752279" lon="10.717081657887729"><ele>98.33333333333333</ele><time>2026-04-06T08:35:39.051Z</time></trkpt><trkpt lat="45.42972240239012" lon="10.716822341116572"><ele>98.66666666666666</ele><time>2026-04-06T08:35:40.051Z</time></trkpt><trkpt lat="45.42972157986422" lon="10.716573171902478"><ele>99.0</ele><time>2026-04-06T08:35:41.051Z</time></trkpt><trkpt lat="45.42971708650089" lon="10.716329604954195"><ele>99.0</ele><time>2026-04-06T08:35:42.051Z</time></trkpt><trkpt lat="45.429714646066905" lon="10.716095675841032"><ele>99.0</ele><time>2026-04-06T08:35:43.051Z</time></trkpt><trkpt lat="45.42972505639931" lon="10.715868005041685"><ele>99.0</ele><time>2026-04-06T08:35:44.051Z</time></trkpt><trkpt lat="45.4297074521947" lon="10.715644833924094"><ele>100.0</ele><time>2026-04-06T08:35:45.051Z</time></trkpt><trkpt lat="45.429707049398445" lon="10.715426315819265"><ele>101.0</ele><time>2026-04-06T08:35:46.051Z</time></trkpt><trkpt lat="45.42970616161495" lon="10.715215354421579"><ele>102.0</ele><time>2026-04-06T08:35:47.051Z</time></trkpt><trkpt lat="45.42970430000222" lon="10.714989456535823"><ele>102.0</ele><time>2026-04-06T08:35:48.051Z</time></trkpt><trkpt lat="45.42970324286914" lon="10.714761539533981"><ele>102.0</ele><time>2026-04-06T08:35:49.051Z</time></trkpt><trkpt lat="45.42969958941995" lon="10.714531451474937"><ele>102.0</ele><time>2026-04-06T08:35:50.051Z</time></trkpt><trkpt lat="45.42969043765909" lon="10.714291276845442"><ele>101.66666666666666</ele><time>2026-04-06T08:35:51.051Z</time></trkpt><trkpt lat="45.42969337706297" lon="10.714057124266331"><ele>101.33333333333333</ele><time>2026-04-06T08:35:52.051Z</time></trkpt><trkpt lat="45.42969180716184" lon="10.713821548991277"><ele>101.0</ele><time>2026-04-06T08:35:53.051Z</time></trkpt><trkpt lat="45.4296871757507" lon="10.71359341574408"><ele>101.25</ele><time>2026-04-06T08:35:54.051Z</time></trkpt><trkpt lat="45.42969144467688" lon="10.713400853974438"><ele>101.5</ele><time>2026-04-06T08:35:55.051Z</time></trkpt><trkpt lat="45.42969107129646" lon="10.713213932091438"><ele>101.75</ele><time>2026-04-06T08:35:56.051Z</time></trkpt><trkpt lat="45.42968910697889" lon="10.713024044909236"><ele>102.0</ele><time>2026-04-06T08:35:57.051Z</time></trkpt><trkpt lat="45.42968848360052" lon="10.712835094952206"><ele>101.75</ele><time>2026-04-06T08:35:58.051Z</time></trkpt><trkpt lat="45.42968422104814" lon="10.712636589117407"><ele>101.5</ele><time>2026-04-06T08:35:59.051Z</time></trkpt><trkpt lat="45.429690468646015" lon="10.71244069371674"><ele>101.25</ele><time>2026-04-06T08:36:00.051Z</time></trkpt><trkpt lat="45.42973020891032" lon="10.712247127365186"><ele>101.0</ele><time>2026-04-06T08:36:01.051Z</time></trkpt><trkpt lat="45.42973584573961" lon="10.712054806526655"><ele>99.66666666666666</ele><time>2026-04-06T08:36:02.051Z</time></trkpt><trkpt lat="45.42969203458745" lon="10.711837908792612"><ele>98.33333333333334</ele><time>2026-04-06T08:36:03.051Z</time></trkpt><trkpt lat="45.42969673583778" lon="10.711626618444935"><ele>97.0</ele><time>2026-04-06T08:36:04.051Z</time></trkpt><trkpt lat="45.429718798783256" lon="10.711403625137388"><ele>97.0</ele><time>2026-04-06T08:36:05.051Z</time></trkpt><trkpt lat="45.42975136659568" lon="10.7111669458212"><ele>97.0</ele><time>2026-04-06T08:36:06.051Z</time></trkpt><trkpt lat="45.429800484516385" lon="10.710908586692469"><ele>97.0</ele><time>2026-04-06T08:36:07.051Z</time></trkpt><trkpt lat="45.42985467072006" lon="10.710658443564737"><ele>95.66666666666667</ele><time>2026-04-06T08:36:08.051Z</time></trkpt><trkpt lat="45.429904754009414" lon="10.710428259414448"><ele>94.33333333333334</ele><time>2026-04-06T08:36:09.051Z</time></trkpt><trkpt lat="45.42995789964785" lon="10.710203750368422"><ele>93.0</ele><time>2026-04-06T08:36:10.051Z</time></trkpt><trkpt lat="45.43001879978022" lon="10.70999654407445"><ele>91.75</ele><time>2026-04-06T08:36:11.051Z</time></trkpt><trkpt lat="45.430085139655894" lon="10.709804716492805"><ele>90.5</ele><time>2026-04-06T08:36:12.051Z</time></trkpt><trkpt lat="45.430155853239135" lon="10.709614808405341"><ele>89.25</ele><time>2026-04-06T08:36:13.051Z</time></trkpt><trkpt lat="45.430232871383566" lon="10.70943620945085"><ele>88.0</ele><time>2026-04-06T08:36:14.051Z</time></trkpt><trkpt lat="45.43031948481865" lon="10.709267597978062"><ele>87.75</ele><time>2026-04-06T08:36:15.051Z</time></trkpt><trkpt lat="45.43040260904194" lon="10.709105782520595"><ele>87.5</ele><time>2026-04-06T08:36:16.051Z</time></trkpt><trkpt lat="45.4304947235737" lon="10.70894695950704"><ele>87.25</ele><time>2026-04-06T08:36:17.051Z</time></trkpt><trkpt lat="45.43058152321779" lon="10.708781614866686"><ele>87.0</ele><time>2026-04-06T08:36:18.051Z</time></trkpt><trkpt lat="45.43067658714701" lon="10.708609355345024"><ele>86.66666666666667</ele><time>2026-04-06T08:36:19.051Z</time></trkpt><trkpt lat="45.43078343552298" lon="10.708435722006307"><ele>86.33333333333334</ele><time>2026-04-06T08:36:20.051Z</time></trkpt><trkpt lat="45.43088312181588" lon="10.70823249629079"><ele>86.0</ele><time>2026-04-06T08:36:21.051Z</time></trkpt><trkpt lat="45.43100058043386" lon="10.708057348233035"><ele>86.0</ele><time>2026-04-06T08:36:22.051Z</time></trkpt><trkpt lat="45.4311196329465" lon="10.707856561896367"><ele>86.0</ele><time>2026-04-06T08:36:23.051Z</time></trkpt><trkpt lat="45.431243140506595" lon="10.70764482742988"><ele>86.0</ele><time>2026-04-06T08:36:24.051Z</time></trkpt><trkpt lat="45.431355016681884" lon="10.707433594239527"><ele>82.0</ele><time>2026-04-06T08:36:25.051Z</time></trkpt><trkpt lat="45.43144989053459" lon="10.707216011172283"><ele>78.0</ele><time>2026-04-06T08:36:26.051Z</time></trkpt><trkpt lat="45.43153520235771" lon="10.706999085782995"><ele>74.0</ele><time>2026-04-06T08:36:27.051Z</time></trkpt><trkpt lat="45.431608079361695" lon="10.706785230077994"><ele>72.0</ele><time>2026-04-06T08:36:28.051Z</time></trkpt><trkpt lat="45.431666842210866" lon="10.706566852378048"><ele>70.0</ele><time>2026-04-06T08:36:29.051Z</time></trkpt><trkpt lat="45.431718341625135" lon="10.706355756383644"><ele>68.0</ele><time>2026-04-06T08:36:30.051Z</time></trkpt><trkpt lat="45.43175434286062" lon="10.706134147029628"><ele>68.25</ele><time>2026-04-06T08:36:31.051Z</time></trkpt><trkpt lat="45.431825612259814" lon="10.705947726267961"><ele>68.5</ele><time>2026-04-06T08:36:32.051Z</time></trkpt><trkpt lat="45.43184936335195" lon="10.705739571614817"><ele>68.75</ele><time>2026-04-06T08:36:33.051Z</time></trkpt><trkpt lat="45.431865010365605" lon="10.705534846466055"><ele>69.0</ele><time>2026-04-06T08:36:34.051Z</time></trkpt><trkpt lat="45.43187278718985" lon="10.705340591940574"><ele>68.8</ele><time>2026-04-06T08:36:35.051Z</time></trkpt><trkpt lat="45.431877571584415" lon="10.705165775568899"><ele>68.60000000000001</ele><time>2026-04-06T08:36:36.051Z</time></trkpt><trkpt lat="45.43187816332159" lon="10.70503386888169"><ele>68.4</ele><time>2026-04-06T08:36:37.051Z</time></trkpt><trkpt lat="45.43187338369038" lon="10.704923901280614"><ele>68.2</ele><time>2026-04-06T08:36:38.051Z</time></trkpt><trkpt lat="45.431858071173295" lon="10.704807048784954"><ele>68.0</ele><time>2026-04-06T08:36:39.051Z</time></trkpt><trkpt lat="45.43183907290884" lon="10.704680187031647"><ele>68.0</ele><time>2026-04-06T08:36:40.051Z</time></trkpt><trkpt lat="45.431821042932" lon="10.704574808490033"><ele>68.0</ele><time>2026-04-06T08:36:41.051Z</time></trkpt><trkpt lat="45.43179884516499" lon="10.70446914650958"><ele>68.0</ele><time>2026-04-06T08:36:42.051Z</time></trkpt><trkpt lat="45.43176153744872" lon="10.704343631203198"><ele>68.0</ele><time>2026-04-06T08:36:43.051Z</time></trkpt><trkpt lat="45.43173387949854" lon="10.70423072526777"><ele>68.0</ele><time>2026-04-06T08:36:44.051Z</time></trkpt><trkpt lat="45.43170152192933" lon="10.70413351076489"><ele>68.0</ele><time>2026-04-06T08:36:45.051Z</time></trkpt><trkpt lat="45.43167203684533" lon="10.70403614844305"><ele>68.28571428571428</ele><time>2026-04-06T08:36:46.051Z</time></trkpt><trkpt lat="45.431641926131796" lon="10.703946127584233"><ele>68.57142857142857</ele><time>2026-04-06T08:36:47.051Z</time></trkpt><trkpt lat="45.431633365244345" lon="10.703843270296149"><ele>68.85714285714286</ele><time>2026-04-06T08:36:48.051Z</time></trkpt><trkpt lat="45.431610198999806" lon="10.703740108040304"><ele>69.14285714285714</ele><time>2026-04-06T08:36:49.051Z</time></trkpt><trkpt lat="45.43158718761367" lon="10.703635909593856"><ele>69.42857142857143</ele><time>2026-04-06T08:36:50.051Z</time></trkpt><trkpt lat="45.431566927728646" lon="10.70354204588046"><ele>69.71428571428571</ele><time>2026-04-06T08:36:51.051Z</time></trkpt><trkpt lat="45.431547847387435" lon="10.703456215065032"><ele>70.0</ele><time>2026-04-06T08:36:55.051Z</time></trkpt><trkpt lat="45.43151348900335" lon="10.70331720313371"><ele>70.0</ele><time>2026-04-06T08:36:57.051Z</time></trkpt><trkpt lat="45.431498064973326" lon="10.703225714511417"><ele>70.0</ele><time>2026-04-06T08:36:58.051Z</time></trkpt><trkpt lat="45.43149982553356" lon="10.70307221839402"><ele>70.0</ele><time>2026-04-06T08:37:00.051Z</time></trkpt><trkpt lat="45.43148655781429" lon="10.702909141951174"><ele>70.0</ele><time>2026-04-06T08:37:02.051Z</time></trkpt><trkpt lat="45.43147880847506" lon="10.702811259507147"><ele>70.0</ele><time>2026-04-06T08:37:03.051Z</time></trkpt><trkpt lat="45.43147110236094" lon="10.702701057930222"><ele>70.0</ele><time>2026-04-06T08:37:04.051Z</time></trkpt><trkpt lat="45.43146440665627" lon="10.702600399322854"><ele>69.83333333333333</ele><time>2026-04-06T08:37:05.051Z</time></trkpt><trkpt lat="45.431457889096464" lon="10.70250241866407"><ele>69.66666666666666</ele><time>2026-04-06T08:37:06.051Z</time></trkpt><trkpt lat="45.431450740431" lon="10.702394950402397"><ele>69.5</ele><time>2026-04-06T08:37:07.051Z</time></trkpt><trkpt lat="45.431442382257636" lon="10.702269299222708"><ele>69.33333333333333</ele><time>2026-04-06T08:37:08.051Z</time></trkpt><trkpt lat="45.43143307048166" lon="10.702129312102565"><ele>69.16666666666667</ele><time>2026-04-06T08:37:09.051Z</time></trkpt><trkpt lat="45.431424465236745" lon="10.701992050879465"><ele>69.0</ele><time>2026-04-06T08:37:10.051Z</time></trkpt><trkpt lat="45.43141585413785" lon="10.701845661881991"><ele>68.8</ele><time>2026-04-06T08:37:11.051Z</time></trkpt><trkpt lat="45.43140617803201" lon="10.701681168291735"><ele>68.60000000000001</ele><time>2026-04-06T08:37:12.051Z</time></trkpt><trkpt lat="45.43139747761612" lon="10.701534516282333"><ele>68.4</ele><time>2026-04-06T08:37:13.051Z</time></trkpt><trkpt lat="45.431388375419374" lon="10.701382858987657"><ele>68.2</ele><time>2026-04-06T08:37:14.051Z</time></trkpt><trkpt lat="45.43137847288888" lon="10.701217713457327"><ele>68.0</ele><time>2026-04-06T08:37:15.051Z</time></trkpt><trkpt lat="45.43136834330844" lon="10.701048404715388"><ele>67.5</ele><time>2026-04-06T08:37:16.051Z</time></trkpt><trkpt lat="45.431358210800866" lon="10.700867295813472"><ele>67.0</ele><time>2026-04-06T08:37:17.051Z</time></trkpt><trkpt lat="45.431346198324135" lon="10.700674835297997"><ele>66.5</ele><time>2026-04-06T08:37:18.051Z</time></trkpt><trkpt lat="45.43133669920985" lon="10.700509023681876"><ele>66.0</ele><time>2026-04-06T08:37:19.051Z</time></trkpt><trkpt lat="45.43132729895096" lon="10.700344937623385"><ele>66.0</ele><time>2026-04-06T08:37:20.051Z</time></trkpt><trkpt lat="45.43131841862354" lon="10.700189927302784"><ele>66.0</ele><time>2026-04-06T08:37:21.051Z</time></trkpt><trkpt lat="45.431309677104196" lon="10.700041978362778"><ele>66.0</ele><time>2026-04-06T08:37:22.051Z</time></trkpt><trkpt lat="45.431300657451764" lon="10.699889961252627"><ele>66.0</ele><time>2026-04-06T08:37:23.051Z</time></trkpt><trkpt lat="45.431291050793305" lon="10.699724886167095"><ele>66.0</ele><time>2026-04-06T08:37:24.051Z</time></trkpt><trkpt lat="45.43128124607843" lon="10.699551337520928"><ele>67.66666666666667</ele><time>2026-04-06T08:37:25.051Z</time></trkpt><trkpt lat="45.43128341200953" lon="10.699368700930387"><ele>69.33333333333334</ele><time>2026-04-06T08:37:26.051Z</time></trkpt><trkpt lat="45.43125775853533" lon="10.699144711072563"><ele>71.0</ele><time>2026-04-06T08:37:27.051Z</time></trkpt><trkpt lat="45.43124448379381" lon="10.698913951418218"><ele>71.0</ele><time>2026-04-06T08:37:28.051Z</time></trkpt><trkpt lat="45.43123251085507" lon="10.698704603102463"><ele>71.0</ele><time>2026-04-06T08:37:29.051Z</time></trkpt><trkpt lat="45.43122095642536" lon="10.698501982998687"><ele>71.0</ele><time>2026-04-06T08:37:30.051Z</time></trkpt><trkpt lat="45.43120874708837" lon="10.698287622659516"><ele>71.0</ele><time>2026-04-06T08:37:31.051Z</time></trkpt><trkpt lat="45.431196216384095" lon="10.698067619978811"><ele>71.66666666666667</ele><time>2026-04-06T08:37:32.051Z</time></trkpt><trkpt lat="45.4311831599451" lon="10.69783838694209"><ele>72.33333333333333</ele><time>2026-04-06T08:37:33.051Z</time></trkpt><trkpt lat="45.43117005164426" lon="10.697610530225548"><ele>73.0</ele><time>2026-04-06T08:37:34.051Z</time></trkpt><trkpt lat="45.4311567008001" lon="10.697380405676272"><ele>73.25</ele><time>2026-04-06T08:37:35.051Z</time></trkpt><trkpt lat="45.43114468538832" lon="10.69717329952005"><ele>73.5</ele><time>2026-04-06T08:37:36.051Z</time></trkpt><trkpt lat="45.431118020903874" lon="10.696991896651223"><ele>73.75</ele><time>2026-04-06T08:37:37.051Z</time></trkpt><trkpt lat="45.431110817369344" lon="10.696813432677995"><ele>74.0</ele><time>2026-04-06T08:37:38.051Z</time></trkpt><trkpt lat="45.43110533158835" lon="10.696645582794067"><ele>74.75</ele><time>2026-04-06T08:37:39.051Z</time></trkpt><trkpt lat="45.43109820428112" lon="10.696474028369423"><ele>75.5</ele><time>2026-04-06T08:37:40.051Z</time></trkpt><trkpt lat="45.43109249025509" lon="10.696295035113959"><ele>76.25</ele><time>2026-04-06T08:37:41.051Z</time></trkpt><trkpt lat="45.43108124814855" lon="10.696109714510637"><ele>77.0</ele><time>2026-04-06T08:37:42.051Z</time></trkpt><trkpt lat="45.43106804421678" lon="10.69591644369604"><ele>77.66666666666667</ele><time>2026-04-06T08:37:43.051Z</time></trkpt><trkpt lat="45.431061895263724" lon="10.69570554798785"><ele>78.33333333333333</ele><time>2026-04-06T08:37:44.051Z</time></trkpt><trkpt lat="45.43104848271713" lon="10.695462098375382"><ele>79.0</ele><time>2026-04-06T08:37:45.051Z</time></trkpt><trkpt lat="45.43103388542839" lon="10.695197144166194"><ele>79.0</ele><time>2026-04-06T08:37:46.051Z</time></trkpt><trkpt lat="45.43101674329087" lon="10.694903569125554"><ele>79.0</ele><time>2026-04-06T08:37:47.051Z</time></trkpt><trkpt lat="45.430982783782305" lon="10.694582539010103"><ele>79.0</ele><time>2026-04-06T08:37:48.051Z</time></trkpt><trkpt lat="45.43097088201347" lon="10.69428848930352"><ele>79.66666666666666</ele><time>2026-04-06T08:37:49.051Z</time></trkpt><trkpt lat="45.43096697743997" lon="10.694022492266344"><ele>80.33333333333333</ele><time>2026-04-06T08:37:50.051Z</time></trkpt><trkpt lat="45.430952526521345" lon="10.693768171354739"><ele>81.0</ele><time>2026-04-06T08:37:51.051Z</time></trkpt><trkpt lat="45.43093795826336" lon="10.693513348425693"><ele>83.66666666666667</ele><time>2026-04-06T08:37:52.051Z</time></trkpt><trkpt lat="45.43092367383665" lon="10.693263489973623"><ele>86.33333333333334</ele><time>2026-04-06T08:37:53.051Z</time></trkpt><trkpt lat="45.43090919432882" lon="10.693010219211832"><ele>89.0</ele><time>2026-04-06T08:37:54.051Z</time></trkpt><trkpt lat="45.43089502933607" lon="10.69276244983465"><ele>89.0</ele><time>2026-04-06T08:37:55.051Z</time></trkpt><trkpt lat="45.43088109042241" lon="10.692518635151902"><ele>89.0</ele><time>2026-04-06T08:37:56.051Z</time></trkpt><trkpt lat="45.43086550763564" lon="10.692246066103902"><ele>89.0</ele><time>2026-04-06T08:37:57.051Z</time></trkpt><trkpt lat="45.430848333589694" lon="10.69194268130962"><ele>89.0</ele><time>2026-04-06T08:37:58.051Z</time></trkpt><trkpt lat="45.430832199330936" lon="10.691638634632556"><ele>89.0</ele><time>2026-04-06T08:37:59.051Z</time></trkpt><trkpt lat="45.43081854326985" lon="10.691368419000211"><ele>89.0</ele><time>2026-04-06T08:38:00.051Z</time></trkpt><trkpt lat="45.43079062648571" lon="10.691115356099953"><ele>89.66666666666667</ele><time>2026-04-06T08:38:01.051Z</time></trkpt><trkpt lat="45.43078196019223" lon="10.690870887887945"><ele>90.33333333333333</ele><time>2026-04-06T08:38:02.051Z</time></trkpt><trkpt lat="45.430776150571944" lon="10.690649719038344"><ele>91.0</ele><time>2026-04-06T08:38:03.051Z</time></trkpt><trkpt lat="45.43077200993111" lon="10.690436882661622"><ele>91.5</ele><time>2026-04-06T08:38:04.051Z</time></trkpt><trkpt lat="45.43076861743959" lon="10.69022973156637"><ele>92.0</ele><time>2026-04-06T08:38:05.051Z</time></trkpt><trkpt lat="45.43078292282552" lon="10.690030502859416"><ele>92.5</ele><time>2026-04-06T08:38:06.051Z</time></trkpt><trkpt lat="45.43078419528663" lon="10.689825406188055"><ele>93.0</ele><time>2026-04-06T08:38:07.051Z</time></trkpt><trkpt lat="45.43078743600123" lon="10.68961927420485"><ele>92.5</ele><time>2026-04-06T08:38:08.051Z</time></trkpt><trkpt lat="45.43079376664568" lon="10.689418417083152"><ele>92.0</ele><time>2026-04-06T08:38:09.051Z</time></trkpt><trkpt lat="45.43080383896699" lon="10.689215033654905"><ele>91.5</ele><time>2026-04-06T08:38:10.051Z</time></trkpt><trkpt lat="45.43081625982649" lon="10.689014010192546"><ele>91.0</ele><time>2026-04-06T08:38:11.051Z</time></trkpt><trkpt lat="45.43083184889731" lon="10.688806572008811"><ele>89.66666666666666</ele><time>2026-04-06T08:38:12.051Z</time></trkpt><trkpt lat="45.430855100619006" lon="10.68856347338595"><ele>88.33333333333333</ele><time>2026-04-06T08:38:13.051Z</time></trkpt><trkpt lat="45.430884220394425" lon="10.68830219894712"><ele>87.0</ele><time>2026-04-06T08:38:14.051Z</time></trkpt><trkpt lat="45.43091274181639" lon="10.688066676459888"><ele>87.0</ele><time>2026-04-06T08:38:15.051Z</time></trkpt><trkpt lat="45.430950667405284" lon="10.687798823340865"><ele>87.0</ele><time>2026-04-06T08:38:17.051Z</time></trkpt><trkpt lat="45.43098768887499" lon="10.687581820804288"><ele>87.0</ele><time>2026-04-06T08:38:18.051Z</time></trkpt><trkpt lat="45.43102827285473" lon="10.68737486171282"><ele>87.0</ele><time>2026-04-06T08:38:19.051Z</time></trkpt><trkpt lat="45.4310708113314" lon="10.687177685539542"><ele>87.0</ele><time>2026-04-06T08:38:20.051Z</time></trkpt><trkpt lat="45.43111287659245" lon="10.68698965167742"><ele>87.0</ele><time>2026-04-06T08:38:21.051Z</time></trkpt><trkpt lat="45.43115557498531" lon="10.686815477782641"><ele>87.0</ele><time>2026-04-06T08:38:22.051Z</time></trkpt><trkpt lat="45.43118625675661" lon="10.686632691911752"><ele>87.0</ele><time>2026-04-06T08:38:23.051Z</time></trkpt><trkpt lat="45.43123189814364" lon="10.68647033568204"><ele>87.0</ele><time>2026-04-06T08:38:24.051Z</time></trkpt><trkpt lat="45.43127527514699" lon="10.68631369153197"><ele>87.0</ele><time>2026-04-06T08:38:25.051Z</time></trkpt><trkpt lat="45.43133236900817" lon="10.686171844030687"><ele>87.0</ele><time>2026-04-06T08:38:26.051Z</time></trkpt><trkpt lat="45.43136297097935" lon="10.686023164435825"><ele>87.0</ele><time>2026-04-06T08:38:27.051Z</time></trkpt><trkpt lat="45.431406576819406" lon="10.685877116124834"><ele>87.0</ele><time>2026-04-06T08:38:28.051Z</time></trkpt><trkpt lat="45.43147332904578" lon="10.685725794428338"><ele>87.0</ele><time>2026-04-06T08:38:29.051Z</time></trkpt><trkpt lat="45.4315170828305" lon="10.685543857215096"><ele>87.0</ele><time>2026-04-06T08:38:30.051Z</time></trkpt><trkpt lat="45.431590934064076" lon="10.68536717635334"><ele>86.66666666666667</ele><time>2026-04-06T08:38:31.051Z</time></trkpt><trkpt lat="45.43167575672739" lon="10.685182159385155"><ele>86.33333333333334</ele><time>2026-04-06T08:38:32.051Z</time></trkpt><trkpt lat="45.431768590872814" lon="10.684999494275864"><ele>86.0</ele><time>2026-04-06T08:38:33.051Z</time></trkpt><trkpt lat="45.4318777584286" lon="10.684810319248975"><ele>86.0</ele><time>2026-04-06T08:38:34.051Z</time></trkpt><trkpt lat="45.4320054111371" lon="10.684637987552849"><ele>86.0</ele><time>2026-04-06T08:38:35.051Z</time></trkpt><trkpt lat="45.43211363842879" lon="10.684412957363012"><ele>86.0</ele><time>2026-04-06T08:38:36.051Z</time></trkpt><trkpt lat="45.43224770078661" lon="10.684212945173009"><ele>85.66666666666667</ele><time>2026-04-06T08:38:37.051Z</time></trkpt><trkpt lat="45.43237055198638" lon="10.684025294673168"><ele>85.33333333333333</ele><time>2026-04-06T08:38:38.051Z</time></trkpt><trkpt lat="45.43249534752514" lon="10.683848537957047"><ele>85.0</ele><time>2026-04-06T08:38:39.051Z</time></trkpt><trkpt lat="45.432607355477145" lon="10.683690230944705"><ele>84.75</ele><time>2026-04-06T08:38:40.051Z</time></trkpt><trkpt lat="45.43272223999865" lon="10.683535359240103"><ele>84.5</ele><time>2026-04-06T08:38:41.051Z</time></trkpt><trkpt lat="45.43282771499366" lon="10.683404122723276"><ele>84.25</ele><time>2026-04-06T08:38:42.051Z</time></trkpt><trkpt lat="45.43293305591119" lon="10.683273597639458"><ele>84.0</ele><time>2026-04-06T08:38:43.051Z</time></trkpt><trkpt lat="45.43303906994667" lon="10.68314470924391"><ele>84.5</ele><time>2026-04-06T08:38:44.051Z</time></trkpt><trkpt lat="45.4331442230594" lon="10.683032590300654"><ele>85.0</ele><time>2026-04-06T08:38:45.051Z</time></trkpt><trkpt lat="45.433247945964496" lon="10.682926246571892"><ele>85.5</ele><time>2026-04-06T08:38:46.051Z</time></trkpt><trkpt lat="45.43334846874588" lon="10.682824848450993"><ele>86.0</ele><time>2026-04-06T08:38:47.052Z</time></trkpt><trkpt lat="45.43345146905935" lon="10.682731887218795"><ele>86.25</ele><time>2026-04-06T08:38:48.052Z</time></trkpt><trkpt lat="45.433558480060746" lon="10.682628506590415"><ele>86.5</ele><time>2026-04-06T08:38:49.052Z</time></trkpt><trkpt lat="45.43366869773191" lon="10.682522961097591"><ele>86.75</ele><time>2026-04-06T08:38:50.052Z</time></trkpt><trkpt lat="45.43378012266528" lon="10.682422940717178"><ele>87.0</ele><time>2026-04-06T08:38:51.052Z</time></trkpt><trkpt lat="45.43389786345491" lon="10.682320092803351"><ele>87.0</ele><time>2026-04-06T08:38:52.052Z</time></trkpt><trkpt lat="45.434015325727025" lon="10.682212910571488"><ele>87.0</ele><time>2026-04-06T08:38:53.052Z</time></trkpt><trkpt lat="45.43413106747987" lon="10.68211510792325"><ele>87.0</ele><time>2026-04-06T08:38:54.052Z</time></trkpt><trkpt lat="45.4342389625587" lon="10.682032923793027"><ele>87.0</ele><time>2026-04-06T08:38:55.052Z</time></trkpt><trkpt lat="45.43434007048214" lon="10.68195166897114"><ele>86.75</ele><time>2026-04-06T08:38:56.052Z</time></trkpt><trkpt lat="45.434437210870094" lon="10.681869480350516"><ele>86.5</ele><time>2026-04-06T08:38:57.052Z</time></trkpt><trkpt lat="45.43453496821397" lon="10.681794095789199"><ele>86.25</ele><time>2026-04-06T08:38:58.052Z</time></trkpt><trkpt lat="45.434641149365675" lon="10.68170472120333"><ele>86.0</ele><time>2026-04-06T08:38:59.052Z</time></trkpt><trkpt lat="45.43475792521333" lon="10.681606379707356"><ele>87.66666666666667</ele><time>2026-04-06T08:39:00.052Z</time></trkpt><trkpt lat="45.434896761100596" lon="10.681485310917127"><ele>89.33333333333333</ele><time>2026-04-06T08:39:01.052Z</time></trkpt><trkpt lat="45.43503634914317" lon="10.68138718234637"><ele>91.0</ele><time>2026-04-06T08:39:02.052Z</time></trkpt><trkpt lat="45.43518558992197" lon="10.681274421705279"><ele>91.0</ele><time>2026-04-06T08:39:03.052Z</time></trkpt><trkpt lat="45.435335140138626" lon="10.68115953830735"><ele>91.0</ele><time>2026-04-06T08:39:04.052Z</time></trkpt><trkpt lat="45.43548563690998" lon="10.681043190830241"><ele>91.0</ele><time>2026-04-06T08:39:05.052Z</time></trkpt><trkpt lat="45.43565067594835" lon="10.680950432664783"><ele>91.0</ele><time>2026-04-06T08:39:06.052Z</time></trkpt><trkpt lat="45.43578212138955" lon="10.680834520740937"><ele>91.0</ele><time>2026-04-06T08:39:07.052Z</time></trkpt><trkpt lat="45.43590540823596" lon="10.68073310395317"><ele>91.0</ele><time>2026-04-06T08:39:08.052Z</time></trkpt><trkpt lat="45.43602971907291" lon="10.6806406064304"><ele>91.0</ele><time>2026-04-06T08:39:09.052Z</time></trkpt><trkpt lat="45.436161517395824" lon="10.68053615125489"><ele>91.0</ele><time>2026-04-06T08:39:10.052Z</time></trkpt><trkpt lat="45.436306609373496" lon="10.680425761611742"><ele>91.0</ele><time>2026-04-06T08:39:11.052Z</time></trkpt><trkpt lat="45.436459425875825" lon="10.68031336415039"><ele>91.0</ele><time>2026-04-06T08:39:12.052Z</time></trkpt><trkpt lat="45.436613978414584" lon="10.680191802950075"><ele>91.0</ele><time>2026-04-06T08:39:13.052Z</time></trkpt><trkpt lat="45.436784583542185" lon="10.680058771133165"><ele>91.0</ele><time>2026-04-06T08:39:14.052Z</time></trkpt><trkpt lat="45.43694743358585" lon="10.679927544921949"><ele>91.0</ele><time>2026-04-06T08:39:15.052Z</time></trkpt><trkpt lat="45.437084939204645" lon="10.679822834700142"><ele>90.0</ele><time>2026-04-06T08:39:16.052Z</time></trkpt><trkpt lat="45.43722047287877" lon="10.67971734210693"><ele>89.0</ele><time>2026-04-06T08:39:17.052Z</time></trkpt><trkpt lat="45.43735570789257" lon="10.679616156984245"><ele>88.0</ele><time>2026-04-06T08:39:18.052Z</time></trkpt><trkpt lat="45.43748238864255" lon="10.679516617449915"><ele>88.75</ele><time>2026-04-06T08:39:19.052Z</time></trkpt><trkpt lat="45.43760384497293" lon="10.67942068394459"><ele>89.5</ele><time>2026-04-06T08:39:20.052Z</time></trkpt><trkpt lat="45.43771280064233" lon="10.67933966214203"><ele>90.25</ele><time>2026-04-06T08:39:21.052Z</time></trkpt><trkpt lat="45.43780741838411" lon="10.67926092789251"><ele>91.0</ele><time>2026-04-06T08:39:22.052Z</time></trkpt><trkpt lat="45.437899023837204" lon="10.67919429312047"><ele>90.6</ele><time>2026-04-06T08:39:23.052Z</time></trkpt><trkpt lat="45.437986873245826" lon="10.679120243745317"><ele>90.19999999999999</ele><time>2026-04-06T08:39:24.052Z</time></trkpt><trkpt lat="45.43808733816773" lon="10.67905204096721"><ele>89.80000000000001</ele><time>2026-04-06T08:39:25.052Z</time></trkpt><trkpt lat="45.438188851884924" lon="10.67897405293758"><ele>89.4</ele><time>2026-04-06T08:39:26.052Z</time></trkpt><trkpt lat="45.43827860167749" lon="10.6789078943315"><ele>89.0</ele><time>2026-04-06T08:39:27.052Z</time></trkpt><trkpt lat="45.43837297518161" lon="10.678839962761788"><ele>89.0</ele><time>2026-04-06T08:39:28.052Z</time></trkpt><trkpt lat="45.43847397953978" lon="10.678760080859071"><ele>89.0</ele><time>2026-04-06T08:39:29.052Z</time></trkpt><trkpt lat="45.438570888617676" lon="10.678677804276406"><ele>89.0</ele><time>2026-04-06T08:39:30.052Z</time></trkpt><trkpt lat="45.43866692352682" lon="10.678610018196972"><ele>89.0</ele><time>2026-04-06T08:39:31.052Z</time></trkpt><trkpt lat="45.4387596773829" lon="10.678531949033912"><ele>89.0</ele><time>2026-04-06T08:39:32.052Z</time></trkpt><trkpt lat="45.4388664961377" lon="10.678443145794649"><ele>88.5</ele><time>2026-04-06T08:39:33.052Z</time></trkpt><trkpt lat="45.43898779780613" lon="10.678340933662009"><ele>88.0</ele><time>2026-04-06T08:39:34.052Z</time></trkpt><trkpt lat="45.439110484872174" lon="10.678253542859283"><ele>87.5</ele><time>2026-04-06T08:39:35.052Z</time></trkpt><trkpt lat="45.439232325147486" lon="10.678159863838761"><ele>87.0</ele><time>2026-04-06T08:39:36.052Z</time></trkpt><trkpt lat="45.439349102987215" lon="10.678068805552362"><ele>87.0</ele><time>2026-04-06T08:39:37.052Z</time></trkpt><trkpt lat="45.43946174776905" lon="10.677985571413863"><ele>87.0</ele><time>2026-04-06T08:39:38.052Z</time></trkpt><trkpt lat="45.439561313368316" lon="10.677908595156346"><ele>87.0</ele><time>2026-04-06T08:39:39.052Z</time></trkpt><trkpt lat="45.43966121231933" lon="10.677823405411043"><ele>87.0</ele><time>2026-04-06T08:39:40.052Z</time></trkpt><trkpt lat="45.4397591431839" lon="10.677747343048901"><ele>86.5</ele><time>2026-04-06T08:39:41.052Z</time></trkpt><trkpt lat="45.43985230658407" lon="10.677675903497175"><ele>86.0</ele><time>2026-04-06T08:39:42.052Z</time></trkpt><trkpt lat="45.43994893894708" lon="10.67758882149772"><ele>85.5</ele><time>2026-04-06T08:39:43.052Z</time></trkpt><trkpt lat="45.44005285278959" lon="10.677503011091463"><ele>85.0</ele><time>2026-04-06T08:39:44.052Z</time></trkpt><trkpt lat="45.44015821486369" lon="10.677415664345219"><ele>85.0</ele><time>2026-04-06T08:39:45.052Z</time></trkpt><trkpt lat="45.440264266681055" lon="10.677315212047663"><ele>85.0</ele><time>2026-04-06T08:39:46.052Z</time></trkpt><trkpt lat="45.44037489167229" lon="10.677200010827146"><ele>85.0</ele><time>2026-04-06T08:39:47.052Z</time></trkpt><trkpt lat="45.44049100152084" lon="10.67707809689676"><ele>85.0</ele><time>2026-04-06T08:39:48.052Z</time></trkpt><trkpt lat="45.440612182797125" lon="10.676935328083804"><ele>85.25</ele><time>2026-04-06T08:39:49.052Z</time></trkpt><trkpt lat="45.44071996893213" lon="10.67679471786115"><ele>85.5</ele><time>2026-04-06T08:39:50.052Z</time></trkpt><trkpt lat="45.44080843083343" lon="10.67666292845963"><ele>85.75</ele><time>2026-04-06T08:39:51.052Z</time></trkpt><trkpt lat="45.440902459723375" lon="10.676482320181172"><ele>86.0</ele><time>2026-04-06T08:39:52.052Z</time></trkpt><trkpt lat="45.44100512499363" lon="10.676251311519211"><ele>86.0</ele><time>2026-04-06T08:39:53.052Z</time></trkpt><trkpt lat="45.44107695414622" lon="10.67610721841683"><ele>86.0</ele><time>2026-04-06T08:39:54.052Z</time></trkpt><trkpt lat="45.44116080622857" lon="10.675906133562993"><ele>86.0</ele><time>2026-04-06T08:39:55.052Z</time></trkpt><trkpt lat="45.441242674890766" lon="10.67566938219985"><ele>85.0</ele><time>2026-04-06T08:39:56.052Z</time></trkpt><trkpt lat="45.441323475211625" lon="10.675386981355315"><ele>84.0</ele><time>2026-04-06T08:39:57.052Z</time></trkpt><trkpt lat="45.44140109975731" lon="10.675084846646424"><ele>83.0</ele><time>2026-04-06T08:39:58.052Z</time></trkpt><trkpt lat="45.44147662819711" lon="10.67478677067811"><ele>83.0</ele><time>2026-04-06T08:39:59.052Z</time></trkpt><trkpt lat="45.44154814243936" lon="10.674508705118772"><ele>83.0</ele><time>2026-04-06T08:40:00.052Z</time></trkpt><trkpt lat="45.441614585153836" lon="10.674243616144965"><ele>83.0</ele><time>2026-04-06T08:40:01.052Z</time></trkpt><trkpt lat="45.44169511768324" lon="10.673995188477425"><ele>83.0</ele><time>2026-04-06T08:40:02.052Z</time></trkpt><trkpt lat="45.441757850673966" lon="10.673751617559201"><ele>83.0</ele><time>2026-04-06T08:40:03.052Z</time></trkpt><trkpt lat="45.44180736339523" lon="10.673503042791275"><ele>83.0</ele><time>2026-04-06T08:40:04.052Z</time></trkpt><trkpt lat="45.441872274477944" lon="10.673250343657562"><ele>82.33333333333334</ele><time>2026-04-06T08:40:05.052Z</time></trkpt><trkpt lat="45.44193979270076" lon="10.672988222558033"><ele>81.66666666666667</ele><time>2026-04-06T08:40:06.052Z</time></trkpt><trkpt lat="45.4420220802149" lon="10.672729581982916"><ele>81.0</ele><time>2026-04-06T08:40:07.052Z</time></trkpt><trkpt lat="45.442092260718994" lon="10.672454377450844"><ele>80.33333333333333</ele><time>2026-04-06T08:40:08.052Z</time></trkpt><trkpt lat="45.4421441863023" lon="10.67216763475413"><ele>79.66666666666666</ele><time>2026-04-06T08:40:09.052Z</time></trkpt><trkpt lat="45.442223870271015" lon="10.671885431022766"><ele>79.0</ele><time>2026-04-06T08:40:10.052Z</time></trkpt><trkpt lat="45.44228803037015" lon="10.671584923361998"><ele>78.5</ele><time>2026-04-06T08:40:11.052Z</time></trkpt><trkpt lat="45.44233085824488" lon="10.671254873602567"><ele>78.0</ele><time>2026-04-06T08:40:12.052Z</time></trkpt><trkpt lat="45.442397932045715" lon="10.670930041151436"><ele>78.0</ele><time>2026-04-06T08:40:13.052Z</time></trkpt><trkpt lat="45.44243892302122" lon="10.670613512763467"><ele>78.0</ele><time>2026-04-06T08:40:14.052Z</time></trkpt><trkpt lat="45.44246955912435" lon="10.670309083373642"><ele>78.0</ele><time>2026-04-06T08:40:15.052Z</time></trkpt><trkpt lat="45.44249333524377" lon="10.669994709900795"><ele>78.0</ele><time>2026-04-06T08:40:16.052Z</time></trkpt><trkpt lat="45.442495264885565" lon="10.669668867750898"><ele>78.0</ele><time>2026-04-06T08:40:17.052Z</time></trkpt><trkpt lat="45.442508115643804" lon="10.669332745184121"><ele>77.66666666666667</ele><time>2026-04-06T08:40:18.052Z</time></trkpt><trkpt lat="45.44252788010665" lon="10.669013628667319"><ele>77.33333333333334</ele><time>2026-04-06T08:40:19.052Z</time></trkpt><trkpt lat="45.44252496528515" lon="10.668714780038739"><ele>77.0</ele><time>2026-04-06T08:40:20.052Z</time></trkpt><trkpt lat="45.44251365416659" lon="10.668434352514522"><ele>76.66666666666667</ele><time>2026-04-06T08:40:21.052Z</time></trkpt><trkpt lat="45.44249673720798" lon="10.668162957527748"><ele>76.33333333333333</ele><time>2026-04-06T08:40:22.052Z</time></trkpt><trkpt lat="45.442476228039666" lon="10.667904896323082"><ele>76.0</ele><time>2026-04-06T08:40:23.052Z</time></trkpt><trkpt lat="45.44245244222682" lon="10.667651881908068"><ele>76.0</ele><time>2026-04-06T08:40:24.052Z</time></trkpt><trkpt lat="45.44242350545301" lon="10.667388198385686"><ele>76.0</ele><time>2026-04-06T08:40:25.052Z</time></trkpt><trkpt lat="45.44238649969753" lon="10.667106489225601"><ele>76.0</ele><time>2026-04-06T08:40:26.052Z</time></trkpt><trkpt lat="45.442340922625" lon="10.666818614083269"><ele>76.33333333333333</ele><time>2026-04-06T08:40:27.052Z</time></trkpt><trkpt lat="45.44229060644084" lon="10.666527818662747"><ele>76.66666666666667</ele><time>2026-04-06T08:40:28.052Z</time></trkpt><trkpt lat="45.442239358911955" lon="10.666240616371871"><ele>77.0</ele><time>2026-04-06T08:40:29.052Z</time></trkpt><trkpt lat="45.44218653632652" lon="10.665964618335634"><ele>77.0</ele><time>2026-04-06T08:40:30.052Z</time></trkpt><trkpt lat="45.44213941926696" lon="10.665717005753274"><ele>77.0</ele><time>2026-04-06T08:40:31.052Z</time></trkpt><trkpt lat="45.44209591212778" lon="10.665475767207477"><ele>77.0</ele><time>2026-04-06T08:40:32.052Z</time></trkpt><trkpt lat="45.44205714224175" lon="10.665244953206447"><ele>77.0</ele><time>2026-04-06T08:40:33.052Z</time></trkpt><trkpt lat="45.44201802657473" lon="10.665003056719279"><ele>77.0</ele><time>2026-04-06T08:40:34.052Z</time></trkpt><trkpt lat="45.44197674307152" lon="10.664743040027153"><ele>77.0</ele><time>2026-04-06T08:40:35.052Z</time></trkpt><trkpt lat="45.441939905212884" lon="10.664506914635448"><ele>77.66666666666667</ele><time>2026-04-06T08:40:36.052Z</time></trkpt><trkpt lat="45.441905160535065" lon="10.664275497092273"><ele>78.33333333333333</ele><time>2026-04-06T08:40:37.052Z</time></trkpt><trkpt lat="45.4418691728059" lon="10.66402586765141"><ele>79.0</ele><time>2026-04-06T08:40:38.052Z</time></trkpt><trkpt lat="45.44183211299262" lon="10.663766125497583"><ele>79.66666666666666</ele><time>2026-04-06T08:40:39.052Z</time></trkpt><trkpt lat="45.44179651330603" lon="10.663511663324552"><ele>80.33333333333333</ele><time>2026-04-06T08:40:40.052Z</time></trkpt><trkpt lat="45.44176827771589" lon="10.663267801334777"><ele>81.0</ele><time>2026-04-06T08:40:41.052Z</time></trkpt><trkpt lat="45.441742951434286" lon="10.663012730869399"><ele>80.66666666666667</ele><time>2026-04-06T08:40:42.052Z</time></trkpt><trkpt lat="45.441719949496594" lon="10.662761308092493"><ele>80.33333333333334</ele><time>2026-04-06T08:40:43.052Z</time></trkpt><trkpt lat="45.44169739055157" lon="10.66250168058834"><ele>80.0</ele><time>2026-04-06T08:40:44.052Z</time></trkpt><trkpt lat="45.44167499190704" lon="10.662234360113624"><ele>80.0</ele><time>2026-04-06T08:40:45.052Z</time></trkpt><trkpt lat="45.44165155067841" lon="10.661946980269521"><ele>80.0</ele><time>2026-04-06T08:40:46.052Z</time></trkpt><trkpt lat="45.44162723523338" lon="10.661637368910016"><ele>80.0</ele><time>2026-04-06T08:40:47.052Z</time></trkpt><trkpt lat="45.4416020734787" lon="10.661316981730247"><ele>80.5</ele><time>2026-04-06T08:40:48.052Z</time></trkpt><trkpt lat="45.44157725711835" lon="10.660999535857522"><ele>81.0</ele><time>2026-04-06T08:40:49.052Z</time></trkpt><trkpt lat="45.44155225880068" lon="10.660679370635531"><ele>81.0</ele><time>2026-04-06T08:40:50.052Z</time></trkpt><trkpt lat="45.44152744241646" lon="10.660354468970898"><ele>81.0</ele><time>2026-04-06T08:40:51.052Z</time></trkpt><trkpt lat="45.441502272835585" lon="10.660022498014202"><ele>80.0</ele><time>2026-04-06T08:40:52.052Z</time></trkpt><trkpt lat="45.44147700284368" lon="10.65968920279602"><ele>79.0</ele><time>2026-04-06T08:40:53.053Z</time></trkpt><trkpt lat="45.441451670147806" lon="10.659352730676705"><ele>78.5</ele><time>2026-04-06T08:40:54.053Z</time></trkpt><trkpt lat="45.4414269637159" lon="10.659012293924123"><ele>78.0</ele><time>2026-04-06T08:40:55.053Z</time></trkpt><trkpt lat="45.44140348083121" lon="10.658688716923114"><ele>78.0</ele><time>2026-04-06T08:40:56.053Z</time></trkpt><trkpt lat="45.44138146143587" lon="10.658385306056065"><ele>78.0</ele><time>2026-04-06T08:40:57.053Z</time></trkpt><trkpt lat="45.44135950951694" lon="10.658082824714185"><ele>78.0</ele><time>2026-04-06T08:40:58.053Z</time></trkpt><trkpt lat="45.441338530948244" lon="10.657793755665754"><ele>77.66666666666667</ele><time>2026-04-06T08:40:59.053Z</time></trkpt><trkpt lat="45.44132032692949" lon="10.65754291685129"><ele>77.33333333333334</ele><time>2026-04-06T08:41:00.053Z</time></trkpt><trkpt lat="45.44130085888719" lon="10.65727466175399"><ele>77.0</ele><time>2026-04-06T08:41:01.053Z</time></trkpt><trkpt lat="45.44128006337656" lon="10.656988114694961"><ele>77.33333333333334</ele><time>2026-04-06T08:41:02.053Z</time></trkpt><trkpt lat="45.44125879546365" lon="10.656695664603852"><ele>77.66666666666667</ele><time>2026-04-06T08:41:03.053Z</time></trkpt><trkpt lat="45.44123626090257" lon="10.656389763744732"><ele>78.0</ele><time>2026-04-06T08:41:04.053Z</time></trkpt><trkpt lat="45.44121205530615" lon="10.65606117929966"><ele>78.0</ele><time>2026-04-06T08:41:05.053Z</time></trkpt><trkpt lat="45.44118602490056" lon="10.655707823526315"><ele>78.0</ele><time>2026-04-06T08:41:06.053Z</time></trkpt><trkpt lat="45.44115884693588" lon="10.655339412679705"><ele>77.5</ele><time>2026-04-06T08:41:07.053Z</time></trkpt><trkpt lat="45.441130170040104" lon="10.65495480125967"><ele>77.0</ele><time>2026-04-06T08:41:08.053Z</time></trkpt><trkpt lat="45.44110020750135" lon="10.654552955055035"><ele>76.0</ele><time>2026-04-06T08:41:09.053Z</time></trkpt><trkpt lat="45.441072718369256" lon="10.654184288686434"><ele>75.0</ele><time>2026-04-06T08:41:10.053Z</time></trkpt><trkpt lat="45.441046212436795" lon="10.653846991696568"><ele>75.0</ele><time>2026-04-06T08:41:11.053Z</time></trkpt><trkpt lat="45.4410208005454" lon="10.65351779479657"><ele>75.0</ele><time>2026-04-06T08:41:12.053Z</time></trkpt><trkpt lat="45.44098511464816" lon="10.653194922040978"><ele>75.0</ele><time>2026-04-06T08:41:13.053Z</time></trkpt><trkpt lat="45.44097075328376" lon="10.652864598803923"><ele>75.0</ele><time>2026-04-06T08:41:14.053Z</time></trkpt><trkpt lat="45.44096651736024" lon="10.652537624822319"><ele>74.66666666666667</ele><time>2026-04-06T08:41:15.053Z</time></trkpt><trkpt lat="45.44097469678964" lon="10.652220015200617"><ele>74.33333333333334</ele><time>2026-04-06T08:41:16.053Z</time></trkpt><trkpt lat="45.440989587845664" lon="10.651915257634196"><ele>74.0</ele><time>2026-04-06T08:41:17.053Z</time></trkpt><trkpt lat="45.44101468880563" lon="10.651595238550033"><ele>73.66666666666667</ele><time>2026-04-06T08:41:18.053Z</time></trkpt><trkpt lat="45.44104984723642" lon="10.65128212937065"><ele>73.33333333333333</ele><time>2026-04-06T08:41:19.053Z</time></trkpt><trkpt lat="45.44109037793093" lon="10.650964493396867"><ele>73.0</ele><time>2026-04-06T08:41:20.053Z</time></trkpt><trkpt lat="45.44114364643294" lon="10.65064823495189"><ele>72.0</ele><time>2026-04-06T08:41:21.053Z</time></trkpt><trkpt lat="45.44120713419793" lon="10.65031976612498"><ele>71.0</ele><time>2026-04-06T08:41:22.053Z</time></trkpt><trkpt lat="45.44130219844426" lon="10.650007778713686"><ele>70.66666666666667</ele><time>2026-04-06T08:41:23.053Z</time></trkpt><trkpt lat="45.44138225051578" lon="10.649717696777799"><ele>70.33333333333333</ele><time>2026-04-06T08:41:24.053Z</time></trkpt><trkpt lat="45.44146745909842" lon="10.649452485702579"><ele>70.0</ele><time>2026-04-06T08:41:25.053Z</time></trkpt><trkpt lat="45.44155864083873" lon="10.649199513378075"><ele>69.66666666666666</ele><time>2026-04-06T08:41:26.053Z</time></trkpt><trkpt lat="45.44165429898433" lon="10.648947556422113"><ele>69.33333333333333</ele><time>2026-04-06T08:41:27.053Z</time></trkpt><trkpt lat="45.44176463655592" lon="10.648691794046387"><ele>69.0</ele><time>2026-04-06T08:41:28.053Z</time></trkpt><trkpt lat="45.441881490063565" lon="10.64844378479791"><ele>69.0</ele><time>2026-04-06T08:41:29.053Z</time></trkpt><trkpt lat="45.442003775979" lon="10.648189678185"><ele>69.0</ele><time>2026-04-06T08:41:30.053Z</time></trkpt><trkpt lat="45.442132042393766" lon="10.647931400328524"><ele>69.0</ele><time>2026-04-06T08:41:31.053Z</time></trkpt><trkpt lat="45.44226736902628" lon="10.64768061774229"><ele>70.0</ele><time>2026-04-06T08:41:32.053Z</time></trkpt><trkpt lat="45.44240282188776" lon="10.647441062200892"><ele>71.0</ele><time>2026-04-06T08:41:33.053Z</time></trkpt><trkpt lat="45.4425242999302" lon="10.647220831302468"><ele>72.0</ele><time>2026-04-06T08:41:34.053Z</time></trkpt><trkpt lat="45.44264026520466" lon="10.64700933452606"><ele>72.33333333333333</ele><time>2026-04-06T08:41:35.053Z</time></trkpt><trkpt lat="45.44274698485079" lon="10.646806250594901"><ele>72.66666666666666</ele><time>2026-04-06T08:41:36.053Z</time></trkpt><trkpt lat="45.442854933033594" lon="10.646598478876342"><ele>73.0</ele><time>2026-04-06T08:41:37.053Z</time></trkpt><trkpt lat="45.442965187168696" lon="10.646386618631016"><ele>73.0</ele><time>2026-04-06T08:41:38.053Z</time></trkpt><trkpt lat="45.443076271922045" lon="10.646169362856464"><ele>73.0</ele><time>2026-04-06T08:41:39.053Z</time></trkpt><trkpt lat="45.44319342259996" lon="10.64595074871198"><ele>73.0</ele><time>2026-04-06T08:41:40.053Z</time></trkpt><trkpt lat="45.44330755983096" lon="10.645715056147894"><ele>73.33333333333333</ele><time>2026-04-06T08:41:41.053Z</time></trkpt><trkpt lat="45.44341748594772" lon="10.645450576105128"><ele>73.66666666666667</ele><time>2026-04-06T08:41:42.053Z</time></trkpt><trkpt lat="45.443522636727515" lon="10.645160698696275"><ele>74.0</ele><time>2026-04-06T08:41:43.053Z</time></trkpt><trkpt lat="45.44362041530706" lon="10.644873671457052"><ele>74.5</ele><time>2026-04-06T08:41:44.053Z</time></trkpt><trkpt lat="45.44371622191556" lon="10.644566520517811"><ele>75.0</ele><time>2026-04-06T08:41:45.053Z</time></trkpt><trkpt lat="45.443809888818116" lon="10.64426548741551"><ele>75.33333333333333</ele><time>2026-04-06T08:41:46.053Z</time></trkpt><trkpt lat="45.443885163782596" lon="10.643983553405171"><ele>75.66666666666666</ele><time>2026-04-06T08:41:47.053Z</time></trkpt><trkpt lat="45.44394838574328" lon="10.643713999254224"><ele>76.0</ele><time>2026-04-06T08:41:48.053Z</time></trkpt><trkpt lat="45.44400157016117" lon="10.643460906421787"><ele>76.0</ele><time>2026-04-06T08:41:49.053Z</time></trkpt><trkpt lat="45.444044221924784" lon="10.643191281908276"><ele>76.0</ele><time>2026-04-06T08:41:50.053Z</time></trkpt><trkpt lat="45.44407467577601" lon="10.642905587816403"><ele>76.0</ele><time>2026-04-06T08:41:51.053Z</time></trkpt><trkpt lat="45.44409608403094" lon="10.64262053573278"><ele>76.0</ele><time>2026-04-06T08:41:52.053Z</time></trkpt><trkpt lat="45.44411682390753" lon="10.642321615874774"><ele>76.0</ele><time>2026-04-06T08:41:53.053Z</time></trkpt><trkpt lat="45.444138079483714" lon="10.642029101992156"><ele>76.0</ele><time>2026-04-06T08:41:54.053Z</time></trkpt><trkpt lat="45.444152297357654" lon="10.641739897538104"><ele>76.33333333333333</ele><time>2026-04-06T08:41:55.053Z</time></trkpt><trkpt lat="45.44415809929028" lon="10.641450164030061"><ele>76.66666666666667</ele><time>2026-04-06T08:41:56.053Z</time></trkpt><trkpt lat="45.44415851278887" lon="10.64115473929065"><ele>77.0</ele><time>2026-04-06T08:41:57.053Z</time></trkpt><trkpt lat="45.444153983138605" lon="10.640853145875925"><ele>77.0</ele><time>2026-04-06T08:41:58.053Z</time></trkpt><trkpt lat="45.44414899934161" lon="10.640530837379536"><ele>77.0</ele><time>2026-04-06T08:41:59.053Z</time></trkpt><trkpt lat="45.44414591130472" lon="10.640195971896118"><ele>77.5</ele><time>2026-04-06T08:42:00.053Z</time></trkpt><trkpt lat="45.44414533431943" lon="10.639872704176076"><ele>78.0</ele><time>2026-04-06T08:42:01.053Z</time></trkpt><trkpt lat="45.44414323739975" lon="10.639548511972178"><ele>78.5</ele><time>2026-04-06T08:42:02.053Z</time></trkpt><trkpt lat="45.44414356557978" lon="10.639221210817192"><ele>79.0</ele><time>2026-04-06T08:42:03.053Z</time></trkpt><trkpt lat="45.44414358625995" lon="10.638883994648006"><ele>78.5</ele><time>2026-04-06T08:42:04.053Z</time></trkpt><trkpt lat="45.444138230233555" lon="10.638539005306969"><ele>78.0</ele><time>2026-04-06T08:42:05.053Z</time></trkpt><trkpt lat="45.44413864535121" lon="10.638183218889658"><ele>78.0</ele><time>2026-04-06T08:42:06.053Z</time></trkpt><trkpt lat="45.4441391005525" lon="10.63781853536051"><ele>78.0</ele><time>2026-04-06T08:42:07.053Z</time></trkpt><trkpt lat="45.44413874456819" lon="10.637464106645714"><ele>78.0</ele><time>2026-04-06T08:42:08.053Z</time></trkpt><trkpt lat="45.4441342509097" lon="10.637093441248844"><ele>78.0</ele><time>2026-04-06T08:42:09.053Z</time></trkpt><trkpt lat="45.444128220337745" lon="10.636696152904465"><ele>78.0</ele><time>2026-04-06T08:42:10.053Z</time></trkpt><trkpt lat="45.44412237384256" lon="10.636279259049424"><ele>78.0</ele><time>2026-04-06T08:42:11.053Z</time></trkpt><trkpt lat="45.44411798525634" lon="10.635874145722324"><ele>77.5</ele><time>2026-04-06T08:42:12.053Z</time></trkpt><trkpt lat="45.444115481039596" lon="10.635505166716749"><ele>77.0</ele><time>2026-04-06T08:42:13.053Z</time></trkpt><trkpt lat="45.44411497074287" lon="10.635151560756643"><ele>77.0</ele><time>2026-04-06T08:42:14.053Z</time></trkpt><trkpt lat="45.44410949657186" lon="10.634816800166815"><ele>77.0</ele><time>2026-04-06T08:42:15.053Z</time></trkpt><trkpt lat="45.444106878905444" lon="10.634510656098499"><ele>76.66666666666667</ele><time>2026-04-06T08:42:16.053Z</time></trkpt><trkpt lat="45.4441027659937" lon="10.634230615315866"><ele>76.33333333333333</ele><time>2026-04-06T08:42:17.053Z</time></trkpt><trkpt lat="45.444102856821004" lon="10.63396833567346"><ele>76.0</ele><time>2026-04-06T08:42:18.053Z</time></trkpt><trkpt lat="45.44410390397918" lon="10.633711296487816"><ele>74.66666666666666</ele><time>2026-04-06T08:42:19.053Z</time></trkpt><trkpt lat="45.44410189120251" lon="10.63346226503829"><ele>73.33333333333333</ele><time>2026-04-06T08:42:20.053Z</time></trkpt><trkpt lat="45.444099269755235" lon="10.63320973957942"><ele>72.0</ele><time>2026-04-06T08:42:21.053Z</time></trkpt><trkpt lat="45.444092354064" lon="10.632953784414559"><ele>71.66666666666667</ele><time>2026-04-06T08:42:22.053Z</time></trkpt><trkpt lat="45.4440834596456" lon="10.63269268500454"><ele>71.33333333333334</ele><time>2026-04-06T08:42:23.053Z</time></trkpt><trkpt lat="45.444076172317" lon="10.63242028832856"><ele>71.0</ele><time>2026-04-06T08:42:24.053Z</time></trkpt><trkpt lat="45.44407531845793" lon="10.632144319345093"><ele>71.33333333333334</ele><time>2026-04-06T08:42:25.053Z</time></trkpt><trkpt lat="45.44407097796051" lon="10.631874582442613"><ele>71.66666666666667</ele><time>2026-04-06T08:42:26.053Z</time></trkpt><trkpt lat="45.444068954493694" lon="10.631626994666941"><ele>72.0</ele><time>2026-04-06T08:42:27.053Z</time></trkpt><trkpt lat="45.44406303867741" lon="10.631394414905404"><ele>72.0</ele><time>2026-04-06T08:42:28.053Z</time></trkpt><trkpt lat="45.44408032367637" lon="10.631161838094734"><ele>72.0</ele><time>2026-04-06T08:42:29.053Z</time></trkpt><trkpt lat="45.44407724068976" lon="10.63093860361238"><ele>72.0</ele><time>2026-04-06T08:42:30.053Z</time></trkpt><trkpt lat="45.44407401410831" lon="10.630710322896366"><ele>71.5</ele><time>2026-04-06T08:42:31.053Z</time></trkpt><trkpt lat="45.444071169919155" lon="10.630509096479063"><ele>71.0</ele><time>2026-04-06T08:42:32.053Z</time></trkpt><trkpt lat="45.44406827348482" lon="10.630304173768396"><ele>70.5</ele><time>2026-04-06T08:42:33.053Z</time></trkpt><trkpt lat="45.44406512455115" lon="10.63008138672414"><ele>70.0</ele><time>2026-04-06T08:42:34.053Z</time></trkpt><trkpt lat="45.44405474482671" lon="10.629857525755083"><ele>69.66666666666666</ele><time>2026-04-06T08:42:35.053Z</time></trkpt><trkpt lat="45.444094952726424" lon="10.629628076810295"><ele>69.33333333333333</ele><time>2026-04-06T08:42:36.053Z</time></trkpt><trkpt lat="45.444107947599676" lon="10.629410714149605"><ele>69.0</ele><time>2026-04-06T08:42:37.053Z</time></trkpt><trkpt lat="45.44404187009379" lon="10.629181962073849"><ele>69.5</ele><time>2026-04-06T08:42:38.053Z</time></trkpt><trkpt lat="45.44403765496621" lon="10.628968990765447"><ele>70.0</ele><time>2026-04-06T08:42:39.053Z</time></trkpt><trkpt lat="45.444037454698496" lon="10.62875772431262"><ele>70.5</ele><time>2026-04-06T08:42:40.053Z</time></trkpt><trkpt lat="45.44403706353222" lon="10.6285530264066"><ele>71.0</ele><time>2026-04-06T08:42:41.053Z</time></trkpt><trkpt lat="45.444032708808116" lon="10.62836317325778"><ele>71.25</ele><time>2026-04-06T08:42:42.053Z</time></trkpt><trkpt lat="45.44402551724976" lon="10.62815325512279"><ele>71.5</ele><time>2026-04-06T08:42:43.053Z</time></trkpt><trkpt lat="45.44402101360535" lon="10.627954389239552"><ele>71.75</ele><time>2026-04-06T08:42:44.053Z</time></trkpt><trkpt lat="45.44401705535342" lon="10.627761705167543"><ele>72.0</ele><time>2026-04-06T08:42:45.053Z</time></trkpt><trkpt lat="45.44401746493917" lon="10.627554698708328"><ele>72.0</ele><time>2026-04-06T08:42:46.053Z</time></trkpt><trkpt lat="45.44401665314792" lon="10.627344243370702"><ele>72.0</ele><time>2026-04-06T08:42:47.053Z</time></trkpt><trkpt lat="45.44401165874384" lon="10.627142088738177"><ele>72.0</ele><time>2026-04-06T08:42:48.053Z</time></trkpt><trkpt lat="45.44402318069294" lon="10.626944498245654"><ele>72.0</ele><time>2026-04-06T08:42:49.053Z</time></trkpt><trkpt lat="45.44400498215903" lon="10.626734861544799"><ele>71.5</ele><time>2026-04-06T08:42:50.053Z</time></trkpt><trkpt lat="45.44400488480323" lon="10.626527184931529"><ele>71.0</ele><time>2026-04-06T08:42:51.053Z</time></trkpt><trkpt lat="45.44399803133843" lon="10.626320732583578"><ele>70.5</ele><time>2026-04-06T08:42:52.053Z</time></trkpt><trkpt lat="45.44401129204663" lon="10.626121160152815"><ele>70.0</ele><time>2026-04-06T08:42:53.053Z</time></trkpt><trkpt lat="45.443992949241675" lon="10.62590227121894"><ele>70.0</ele><time>2026-04-06T08:42:54.053Z</time></trkpt><trkpt lat="45.44399427115666" lon="10.625663595471865"><ele>70.0</ele><time>2026-04-06T08:42:55.053Z</time></trkpt><trkpt lat="45.44399320514025" lon="10.625397410638776"><ele>70.0</ele><time>2026-04-06T08:42:56.053Z</time></trkpt><trkpt lat="45.44398903396849" lon="10.625120533809246"><ele>71.0</ele><time>2026-04-06T08:42:57.053Z</time></trkpt><trkpt lat="45.443980678888266" lon="10.624844664225966"><ele>72.0</ele><time>2026-04-06T08:42:58.053Z</time></trkpt><trkpt lat="45.443979407678825" lon="10.624568334148666"><ele>73.0</ele><time>2026-04-06T08:42:59.053Z</time></trkpt><trkpt lat="45.44397850502941" lon="10.62428550785689"><ele>73.0</ele><time>2026-04-06T08:43:00.053Z</time></trkpt><trkpt lat="45.443973914155166" lon="10.623995778079621"><ele>73.0</ele><time>2026-04-06T08:43:01.053Z</time></trkpt><trkpt lat="45.44396198244088" lon="10.623690742916088"><ele>73.0</ele><time>2026-04-06T08:43:02.053Z</time></trkpt><trkpt lat="45.44395610865457" lon="10.623374159535919"><ele>73.0</ele><time>2026-04-06T08:43:03.053Z</time></trkpt><trkpt lat="45.44395273817577" lon="10.623046974352942"><ele>73.0</ele><time>2026-04-06T08:43:04.053Z</time></trkpt><trkpt lat="45.443961480964674" lon="10.622720112401973"><ele>73.33333333333333</ele><time>2026-04-06T08:43:05.053Z</time></trkpt><trkpt lat="45.443950596155226" lon="10.622393196126252"><ele>73.66666666666667</ele><time>2026-04-06T08:43:06.053Z</time></trkpt><trkpt lat="45.44394328185311" lon="10.62208883292963"><ele>74.0</ele><time>2026-04-06T08:43:07.053Z</time></trkpt><trkpt lat="45.44394585423345" lon="10.621781726225734"><ele>74.0</ele><time>2026-04-06T08:43:08.054Z</time></trkpt><trkpt lat="45.44395208228943" lon="10.621501092308206"><ele>74.0</ele><time>2026-04-06T08:43:09.054Z</time></trkpt><trkpt lat="45.4439574098624" lon="10.621213742536021"><ele>74.0</ele><time>2026-04-06T08:43:10.054Z</time></trkpt><trkpt lat="45.44396766004514" lon="10.620925534988634"><ele>73.66666666666667</ele><time>2026-04-06T08:43:11.054Z</time></trkpt><trkpt lat="45.443981039807824" lon="10.620647844460349"><ele>73.33333333333333</ele><time>2026-04-06T08:43:12.054Z</time></trkpt><trkpt lat="45.443997313362814" lon="10.620385079773103"><ele>73.0</ele><time>2026-04-06T08:43:13.054Z</time></trkpt><trkpt lat="45.44401388223972" lon="10.620135401910957"><ele>72.33333333333333</ele><time>2026-04-06T08:43:14.054Z</time></trkpt><trkpt lat="45.444030353998606" lon="10.619894357870166"><ele>71.66666666666667</ele><time>2026-04-06T08:43:15.054Z</time></trkpt><trkpt lat="45.44404448422621" lon="10.619658172233693"><ele>71.0</ele><time>2026-04-06T08:43:16.054Z</time></trkpt><trkpt lat="45.44405940575453" lon="10.619422701203456"><ele>71.0</ele><time>2026-04-06T08:43:17.054Z</time></trkpt><trkpt lat="45.44408022934386" lon="10.619191572311731"><ele>71.0</ele><time>2026-04-06T08:43:18.054Z</time></trkpt><trkpt lat="45.44409667969536" lon="10.61896872955975"><ele>71.0</ele><time>2026-04-06T08:43:19.054Z</time></trkpt><trkpt lat="45.44411851644681" lon="10.618757808375722"><ele>71.25</ele><time>2026-04-06T08:43:20.054Z</time></trkpt><trkpt lat="45.44413177983568" lon="10.618543766676453"><ele>71.5</ele><time>2026-04-06T08:43:21.054Z</time></trkpt><trkpt lat="45.44414414875983" lon="10.618330838166651"><ele>71.75</ele><time>2026-04-06T08:43:22.054Z</time></trkpt><trkpt lat="45.44415716494307" lon="10.618120830249541"><ele>72.0</ele><time>2026-04-06T08:43:23.054Z</time></trkpt><trkpt lat="45.44417429631268" lon="10.617915791366707"><ele>72.75</ele><time>2026-04-06T08:43:24.054Z</time></trkpt><trkpt lat="45.44419034713422" lon="10.617707364801092"><ele>73.5</ele><time>2026-04-06T08:43:25.054Z</time></trkpt><trkpt lat="45.444197508723235" lon="10.617496187830309"><ele>74.25</ele><time>2026-04-06T08:43:26.054Z</time></trkpt><trkpt lat="45.44421407147006" lon="10.617292500277118"><ele>75.0</ele><time>2026-04-06T08:43:27.054Z</time></trkpt><trkpt lat="45.44422872654447" lon="10.617084497089603"><ele>75.25</ele><time>2026-04-06T08:43:28.054Z</time></trkpt><trkpt lat="45.44424123081934" lon="10.616890203450557"><ele>75.5</ele><time>2026-04-06T08:43:29.054Z</time></trkpt><trkpt lat="45.444258580176815" lon="10.616681741081933"><ele>75.75</ele><time>2026-04-06T08:43:30.054Z</time></trkpt><trkpt lat="45.44427443932653" lon="10.616464802413708"><ele>76.0</ele><time>2026-04-06T08:43:31.054Z</time></trkpt><trkpt lat="45.44429091507543" lon="10.61625106652759"><ele>75.33333333333333</ele><time>2026-04-06T08:43:32.054Z</time></trkpt><trkpt lat="45.444306970097394" lon="10.616031734389864"><ele>74.66666666666667</ele><time>2026-04-06T08:43:33.054Z</time></trkpt><trkpt lat="45.44432605274816" lon="10.6158077479533"><ele>74.0</ele><time>2026-04-06T08:43:34.054Z</time></trkpt><trkpt lat="45.44434490204933" lon="10.615580335188668"><ele>73.0</ele><time>2026-04-06T08:43:35.054Z</time></trkpt><trkpt lat="45.44435329092742" lon="10.615306531584503"><ele>72.0</ele><time>2026-04-06T08:43:36.054Z</time></trkpt><trkpt lat="45.44439059359665" lon="10.615022417504743"><ele>71.0</ele><time>2026-04-06T08:43:37.054Z</time></trkpt><trkpt lat="45.44441269149369" lon="10.614718578464139"><ele>71.0</ele><time>2026-04-06T08:43:38.054Z</time></trkpt><trkpt lat="45.44443613450668" lon="10.614396735434289"><ele>71.0</ele><time>2026-04-06T08:43:39.054Z</time></trkpt><trkpt lat="45.4444623805117" lon="10.614047252691693"><ele>71.0</ele><time>2026-04-06T08:43:40.054Z</time></trkpt><trkpt lat="45.44447370156208" lon="10.613685267964595"><ele>71.0</ele><time>2026-04-06T08:43:41.054Z</time></trkpt><trkpt lat="45.444502431053024" lon="10.61330908954105"><ele>71.5</ele><time>2026-04-06T08:43:42.054Z</time></trkpt><trkpt lat="45.44453073515939" lon="10.612911509301647"><ele>72.0</ele><time>2026-04-06T08:43:43.054Z</time></trkpt><trkpt lat="45.444576661645804" lon="10.612515814021084"><ele>72.0</ele><time>2026-04-06T08:43:44.054Z</time></trkpt><trkpt lat="45.44460350660956" lon="10.61215591436027"><ele>72.0</ele><time>2026-04-06T08:43:45.054Z</time></trkpt><trkpt lat="45.44462604411822" lon="10.611828253665683"><ele>71.66666666666667</ele><time>2026-04-06T08:43:46.054Z</time></trkpt><trkpt lat="45.444646870313484" lon="10.611515050155525"><ele>71.33333333333334</ele><time>2026-04-06T08:43:47.054Z</time></trkpt><trkpt lat="45.44466838802223" lon="10.611191447030787"><ele>71.0</ele><time>2026-04-06T08:43:48.054Z</time></trkpt><trkpt lat="45.44468806145914" lon="10.610867524310471"><ele>71.0</ele><time>2026-04-06T08:43:49.054Z</time></trkpt><trkpt lat="45.444705421328486" lon="10.610550133996357"><ele>71.0</ele><time>2026-04-06T08:43:50.054Z</time></trkpt><trkpt lat="45.444716913443614" lon="10.610195120345788"><ele>70.5</ele><time>2026-04-06T08:43:51.054Z</time></trkpt><trkpt lat="45.44473392446782" lon="10.60986959361247"><ele>70.0</ele><time>2026-04-06T08:43:52.054Z</time></trkpt><trkpt lat="45.44473922217884" lon="10.609550317802306"><ele>70.33333333333333</ele><time>2026-04-06T08:43:53.054Z</time></trkpt><trkpt lat="45.444747013105356" lon="10.609238434426256"><ele>70.66666666666667</ele><time>2026-04-06T08:43:54.054Z</time></trkpt><trkpt lat="45.444774575319144" lon="10.608956351721426"><ele>71.0</ele><time>2026-04-06T08:43:55.054Z</time></trkpt><trkpt lat="45.44478585697773" lon="10.608686707833836"><ele>72.0</ele><time>2026-04-06T08:43:56.054Z</time></trkpt><trkpt lat="45.4447945295854" lon="10.608408841042971"><ele>73.0</ele><time>2026-04-06T08:43:57.054Z</time></trkpt><trkpt lat="45.44478981455226" lon="10.608122579862645"><ele>74.0</ele><time>2026-04-06T08:43:58.054Z</time></trkpt><trkpt lat="45.444798605332046" lon="10.607836642599029"><ele>74.66666666666667</ele><time>2026-04-06T08:43:59.054Z</time></trkpt><trkpt lat="45.44480461540239" lon="10.607546006419074"><ele>75.33333333333333</ele><time>2026-04-06T08:44:00.054Z</time></trkpt><trkpt lat="45.44481652925276" lon="10.607256774575585"><ele>76.0</ele><time>2026-04-06T08:44:01.054Z</time></trkpt><trkpt lat="45.4448231086453" lon="10.606975618095516"><ele>76.0</ele><time>2026-04-06T08:44:02.054Z</time></trkpt><trkpt lat="45.444831528778195" lon="10.606713048160819"><ele>76.0</ele><time>2026-04-06T08:44:03.054Z</time></trkpt><trkpt lat="45.44483554069119" lon="10.606464875578272"><ele>76.0</ele><time>2026-04-06T08:44:04.054Z</time></trkpt><trkpt lat="45.444856520930806" lon="10.606225378928913"><ele>75.33333333333333</ele><time>2026-04-06T08:44:05.054Z</time></trkpt><trkpt lat="45.44484987470208" lon="10.605989759116202"><ele>74.66666666666667</ele><time>2026-04-06T08:44:06.054Z</time></trkpt><trkpt lat="45.44485818777555" lon="10.605753829603923"><ele>74.0</ele><time>2026-04-06T08:44:07.054Z</time></trkpt><trkpt lat="45.44486299815904" lon="10.605510428764342"><ele>74.0</ele><time>2026-04-06T08:44:08.054Z</time></trkpt><trkpt lat="45.44487020457493" lon="10.605264514993406"><ele>74.0</ele><time>2026-04-06T08:44:09.054Z</time></trkpt><trkpt lat="45.444877578342656" lon="10.605008555628137"><ele>74.0</ele><time>2026-04-06T08:44:10.054Z</time></trkpt><trkpt lat="45.444881392398365" lon="10.604752552480164"><ele>74.66666666666667</ele><time>2026-04-06T08:44:11.054Z</time></trkpt><trkpt lat="45.444893183160254" lon="10.604492019400862"><ele>75.33333333333333</ele><time>2026-04-06T08:44:12.054Z</time></trkpt><trkpt lat="45.44490076440117" lon="10.604226647868675"><ele>76.0</ele><time>2026-04-06T08:44:13.054Z</time></trkpt><trkpt lat="45.44491808124406" lon="10.603934413433311"><ele>76.66666666666666</ele><time>2026-04-06T08:44:14.054Z</time></trkpt><trkpt lat="45.444926104657746" lon="10.603635822172013"><ele>77.33333333333333</ele><time>2026-04-06T08:44:15.054Z</time></trkpt><trkpt lat="45.44493425576" lon="10.603332478839613"><ele>78.0</ele><time>2026-04-06T08:44:16.054Z</time></trkpt><trkpt lat="45.444942874218036" lon="10.603011742672935"><ele>78.0</ele><time>2026-04-06T08:44:17.054Z</time></trkpt><trkpt lat="45.44493744539101" lon="10.60269329197879"><ele>78.0</ele><time>2026-04-06T08:44:18.054Z</time></trkpt><trkpt lat="45.444946239915055" lon="10.602359365345956"><ele>78.0</ele><time>2026-04-06T08:44:19.054Z</time></trkpt><trkpt lat="45.44495988209019" lon="10.602011191375295"><ele>78.0</ele><time>2026-04-06T08:44:20.054Z</time></trkpt><trkpt lat="45.444967535875946" lon="10.601656981187483"><ele>79.0</ele><time>2026-04-06T08:44:21.054Z</time></trkpt><trkpt lat="45.44497883099589" lon="10.601296893055327"><ele>80.0</ele><time>2026-04-06T08:44:22.054Z</time></trkpt><trkpt lat="45.44498915178703" lon="10.600929344983896"><ele>80.0</ele><time>2026-04-06T08:44:23.054Z</time></trkpt><trkpt lat="45.444994519147194" lon="10.600591040957996"><ele>80.0</ele><time>2026-04-06T08:44:24.054Z</time></trkpt><trkpt lat="45.44500083257309" lon="10.600270508576092"><ele>79.66666666666667</ele><time>2026-04-06T08:44:25.054Z</time></trkpt><trkpt lat="45.44500842935681" lon="10.599971351600823"><ele>79.33333333333333</ele><time>2026-04-06T08:44:26.054Z</time></trkpt><trkpt lat="45.44501937519291" lon="10.599672868893151"><ele>79.0</ele><time>2026-04-06T08:44:27.054Z</time></trkpt><trkpt lat="45.445029896191905" lon="10.599367116005293"><ele>79.0</ele><time>2026-04-06T08:44:28.054Z</time></trkpt><trkpt lat="45.4450392580054" lon="10.599055954674853"><ele>79.0</ele><time>2026-04-06T08:44:29.054Z</time></trkpt><trkpt lat="45.44505039267905" lon="10.598741178131716"><ele>79.0</ele><time>2026-04-06T08:44:30.054Z</time></trkpt><trkpt lat="45.44505899381788" lon="10.598423458968286"><ele>78.66666666666666</ele><time>2026-04-06T08:44:31.054Z</time></trkpt><trkpt lat="45.44506458539619" lon="10.598104334110685"><ele>78.33333333333333</ele><time>2026-04-06T08:44:32.054Z</time></trkpt><trkpt lat="45.44506906948957" lon="10.597784152377269"><ele>78.0</ele><time>2026-04-06T08:44:33.054Z</time></trkpt><trkpt lat="45.445070173866306" lon="10.59746501300701"><ele>78.0</ele><time>2026-04-06T08:44:34.054Z</time></trkpt><trkpt lat="45.445079923116765" lon="10.597138236531572"><ele>78.0</ele><time>2026-04-06T08:44:35.054Z</time></trkpt><trkpt lat="45.445094238255386" lon="10.596798993230141"><ele>78.5</ele><time>2026-04-06T08:44:36.054Z</time></trkpt><trkpt lat="45.44510304793478" lon="10.596464875295437"><ele>79.0</ele><time>2026-04-06T08:44:37.054Z</time></trkpt><trkpt lat="45.44511126318172" lon="10.596144758207702"><ele>79.0</ele><time>2026-04-06T08:44:38.054Z</time></trkpt><trkpt lat="45.445118366156706" lon="10.59583423936"><ele>79.0</ele><time>2026-04-06T08:44:39.054Z</time></trkpt><trkpt lat="45.445127577595024" lon="10.595525859788102"><ele>79.0</ele><time>2026-04-06T08:44:40.054Z</time></trkpt><trkpt lat="45.44513613177121" lon="10.595216528011534"><ele>79.33333333333333</ele><time>2026-04-06T08:44:41.054Z</time></trkpt><trkpt lat="45.44514406188897" lon="10.594902146597098"><ele>79.66666666666667</ele><time>2026-04-06T08:44:42.054Z</time></trkpt><trkpt lat="45.445151129748375" lon="10.594581611034002"><ele>80.0</ele><time>2026-04-06T08:44:43.054Z</time></trkpt><trkpt lat="45.44515810886115" lon="10.594256083166727"><ele>80.5</ele><time>2026-04-06T08:44:44.054Z</time></trkpt><trkpt lat="45.44516603325494" lon="10.593930849427862"><ele>81.0</ele><time>2026-04-06T08:44:45.054Z</time></trkpt><trkpt lat="45.4451746799166" lon="10.593602048775612"><ele>81.0</ele><time>2026-04-06T08:44:46.054Z</time></trkpt><trkpt lat="45.44518637955609" lon="10.593260847863458"><ele>81.0</ele><time>2026-04-06T08:44:47.054Z</time></trkpt><trkpt lat="45.44519214773268" lon="10.592925948457317"><ele>80.0</ele><time>2026-04-06T08:44:48.054Z</time></trkpt><trkpt lat="45.44519934405593" lon="10.592588433528647"><ele>79.0</ele><time>2026-04-06T08:44:49.054Z</time></trkpt><trkpt lat="45.44521095714297" lon="10.592252300898714"><ele>79.0</ele><time>2026-04-06T08:44:50.054Z</time></trkpt><trkpt lat="45.44522309842338" lon="10.591916339690648"><ele>79.0</ele><time>2026-04-06T08:44:51.054Z</time></trkpt><trkpt lat="45.4452307173412" lon="10.591574655894929"><ele>79.0</ele><time>2026-04-06T08:44:52.054Z</time></trkpt><trkpt lat="45.44523945138447" lon="10.591235906398325"><ele>79.0</ele><time>2026-04-06T08:44:53.054Z</time></trkpt><trkpt lat="45.445246408986776" lon="10.590910529874813"><ele>79.66666666666666</ele><time>2026-04-06T08:44:54.054Z</time></trkpt><trkpt lat="45.44525349064804" lon="10.590600418145119"><ele>80.33333333333333</ele><time>2026-04-06T08:44:55.054Z</time></trkpt><trkpt lat="45.445264831074894" lon="10.590282154431005"><ele>81.0</ele><time>2026-04-06T08:44:56.054Z</time></trkpt><trkpt lat="45.44527565236959" lon="10.589963191607318"><ele>81.66666666666667</ele><time>2026-04-06T08:44:57.054Z</time></trkpt><trkpt lat="45.44528559964748" lon="10.58964767400935"><ele>82.33333333333334</ele><time>2026-04-06T08:44:58.054Z</time></trkpt><trkpt lat="45.44529545387697" lon="10.589334481559641"><ele>83.0</ele><time>2026-04-06T08:44:59.054Z</time></trkpt><trkpt lat="45.44530435493131" lon="10.589021368708151"><ele>83.0</ele><time>2026-04-06T08:45:00.054Z</time></trkpt><trkpt lat="45.44530889344604" lon="10.588708058831056"><ele>83.0</ele><time>2026-04-06T08:45:01.054Z</time></trkpt><trkpt lat="45.44531503779598" lon="10.588405915355937"><ele>83.0</ele><time>2026-04-06T08:45:02.054Z</time></trkpt><trkpt lat="45.44532560230007" lon="10.588129076353551"><ele>83.0</ele><time>2026-04-06T08:45:03.054Z</time></trkpt><trkpt lat="45.445334651966625" lon="10.58786259236768"><ele>83.0</ele><time>2026-04-06T08:45:04.054Z</time></trkpt><trkpt lat="45.44534218506897" lon="10.587584186802344"><ele>83.0</ele><time>2026-04-06T08:45:05.054Z</time></trkpt><trkpt lat="45.44536209734568" lon="10.587285958806662"><ele>83.66666666666667</ele><time>2026-04-06T08:45:06.054Z</time></trkpt><trkpt lat="45.44536303431435" lon="10.587011579502526"><ele>84.33333333333333</ele><time>2026-04-06T08:45:07.054Z</time></trkpt><trkpt lat="45.44537719137874" lon="10.586733603681033"><ele>85.0</ele><time>2026-04-06T08:45:08.054Z</time></trkpt><trkpt lat="45.44538377795541" lon="10.586447281334529"><ele>84.66666666666666</ele><time>2026-04-06T08:45:09.054Z</time></trkpt><trkpt lat="45.44538629544238" lon="10.586152644788966"><ele>84.33333333333333</ele><time>2026-04-06T08:45:10.054Z</time></trkpt><trkpt lat="45.44539005593003" lon="10.585858381411606"><ele>84.0</ele><time>2026-04-06T08:45:11.054Z</time></trkpt><trkpt lat="45.445395292336244" lon="10.585578399240477"><ele>83.66666666666667</ele><time>2026-04-06T08:45:12.054Z</time></trkpt><trkpt lat="45.44540343474489" lon="10.585310406950407"><ele>83.33333333333334</ele><time>2026-04-06T08:45:13.054Z</time></trkpt><trkpt lat="45.44540152853607" lon="10.585053121056252"><ele>83.0</ele><time>2026-04-06T08:45:14.054Z</time></trkpt><trkpt lat="45.4453975723986" lon="10.584803936648692"><ele>83.0</ele><time>2026-04-06T08:45:15.054Z</time></trkpt><trkpt lat="45.44539509059886" lon="10.584550880988449"><ele>83.0</ele><time>2026-04-06T08:45:16.054Z</time></trkpt><trkpt lat="45.44539355844051" lon="10.58429030943604"><ele>83.0</ele><time>2026-04-06T08:45:17.054Z</time></trkpt><trkpt lat="45.44539427535501" lon="10.584019554750432"><ele>83.33333333333334</ele><time>2026-04-06T08:45:18.054Z</time></trkpt><trkpt lat="45.44539464750031" lon="10.583741096751522"><ele>83.66666666666667</ele><time>2026-04-06T08:45:19.054Z</time></trkpt><trkpt lat="45.44538768721322" lon="10.583455980257357"><ele>84.0</ele><time>2026-04-06T08:45:20.054Z</time></trkpt><trkpt lat="45.44539517095244" lon="10.583165792475883"><ele>84.33333333333333</ele><time>2026-04-06T08:45:21.054Z</time></trkpt><trkpt lat="45.44538742432844" lon="10.5828761159314"><ele>84.66666666666666</ele><time>2026-04-06T08:45:22.054Z</time></trkpt><trkpt lat="45.4453786697595" lon="10.582583561832054"><ele>85.0</ele><time>2026-04-06T08:45:23.054Z</time></trkpt><trkpt lat="45.44536751944098" lon="10.582291547787742"><ele>85.66666666666666</ele><time>2026-04-06T08:45:24.054Z</time></trkpt><trkpt lat="45.44534264674834" lon="10.58202893550746"><ele>86.33333333333333</ele><time>2026-04-06T08:45:25.054Z</time></trkpt><trkpt lat="45.44532927271062" lon="10.58176647871181"><ele>87.0</ele><time>2026-04-06T08:45:26.054Z</time></trkpt><trkpt lat="45.44533287061107" lon="10.581512677112261"><ele>87.0</ele><time>2026-04-06T08:45:27.054Z</time></trkpt><trkpt lat="45.445306141914266" lon="10.581258894078404"><ele>87.0</ele><time>2026-04-06T08:45:28.054Z</time></trkpt><trkpt lat="45.44529740512068" lon="10.581003273294773"><ele>87.0</ele><time>2026-04-06T08:45:29.054Z</time></trkpt><trkpt lat="45.44528524036891" lon="10.580744620226273"><ele>86.33333333333333</ele><time>2026-04-06T08:45:30.054Z</time></trkpt><trkpt lat="45.44526999215507" lon="10.580488077392733"><ele>85.66666666666666</ele><time>2026-04-06T08:45:31.054Z</time></trkpt><trkpt lat="45.445253947185776" lon="10.580227420278344"><ele>85.0</ele><time>2026-04-06T08:45:32.054Z</time></trkpt><trkpt lat="45.44524071759938" lon="10.57996266390022"><ele>85.0</ele><time>2026-04-06T08:45:33.054Z</time></trkpt><trkpt lat="45.445227748402104" lon="10.579705931377246"><ele>85.0</ele><time>2026-04-06T08:45:34.054Z</time></trkpt><trkpt lat="45.44521062815566" lon="10.579446859839821"><ele>85.0</ele><time>2026-04-06T08:45:35.054Z</time></trkpt><trkpt lat="45.445195222627476" lon="10.579181977151837"><ele>85.33333333333333</ele><time>2026-04-06T08:45:36.054Z</time></trkpt><trkpt lat="45.4451813561288" lon="10.578913102867666"><ele>85.66666666666667</ele><time>2026-04-06T08:45:37.054Z</time></trkpt><trkpt lat="45.44516556620076" lon="10.578615167918805"><ele>86.0</ele><time>2026-04-06T08:45:38.054Z</time></trkpt><trkpt lat="45.44515125189017" lon="10.57829268129952"><ele>86.0</ele><time>2026-04-06T08:45:39.054Z</time></trkpt><trkpt lat="45.44514441973792" lon="10.577935253381373"><ele>86.0</ele><time>2026-04-06T08:45:40.054Z</time></trkpt><trkpt lat="45.44512556340434" lon="10.577570194880177"><ele>87.5</ele><time>2026-04-06T08:45:41.054Z</time></trkpt><trkpt lat="45.445106882815956" lon="10.57720853877681"><ele>89.0</ele><time>2026-04-06T08:45:42.054Z</time></trkpt><trkpt lat="45.44509039254855" lon="10.576885198015493"><ele>90.0</ele><time>2026-04-06T08:45:43.054Z</time></trkpt><trkpt lat="45.44507530651165" lon="10.576587636177415"><ele>91.0</ele><time>2026-04-06T08:45:44.054Z</time></trkpt><trkpt lat="45.445054985987404" lon="10.576315278380257"><ele>92.0</ele><time>2026-04-06T08:45:45.054Z</time></trkpt><trkpt lat="45.4450733983152" lon="10.576057231694143"><ele>92.33333333333334</ele><time>2026-04-06T08:45:46.054Z</time></trkpt><trkpt lat="45.44504198023442" lon="10.57579392361036"><ele>92.66666666666667</ele><time>2026-04-06T08:45:47.054Z</time></trkpt><trkpt lat="45.44503014744976" lon="10.575540403986707"><ele>93.0</ele><time>2026-04-06T08:45:48.054Z</time></trkpt><trkpt lat="45.44501659058688" lon="10.575298139200681"><ele>92.33333333333333</ele><time>2026-04-06T08:45:49.054Z</time></trkpt><trkpt lat="45.44499688608274" lon="10.57505097498917"><ele>91.66666666666666</ele><time>2026-04-06T08:45:50.054Z</time></trkpt><trkpt lat="45.44498513920891" lon="10.574815099652753"><ele>91.0</ele><time>2026-04-06T08:45:51.054Z</time></trkpt><trkpt lat="45.444972314657655" lon="10.574585037632135"><ele>90.0</ele><time>2026-04-06T08:45:52.054Z</time></trkpt><trkpt lat="45.444962778267325" lon="10.574358694273759"><ele>89.0</ele><time>2026-04-06T08:45:53.054Z</time></trkpt><trkpt lat="45.44494654180512" lon="10.574127346618301"><ele>88.0</ele><time>2026-04-06T08:45:54.054Z</time></trkpt><trkpt lat="45.4449311362967" lon="10.573884196629015"><ele>88.0</ele><time>2026-04-06T08:45:55.054Z</time></trkpt><trkpt lat="45.44492539129912" lon="10.573639459075634"><ele>88.0</ele><time>2026-04-06T08:45:56.054Z</time></trkpt><trkpt lat="45.44491127045259" lon="10.57339325353086"><ele>88.0</ele><time>2026-04-06T08:45:57.054Z</time></trkpt><trkpt lat="45.44489334876643" lon="10.573146480460666"><ele>88.0</ele><time>2026-04-06T08:45:58.054Z</time></trkpt><trkpt lat="45.4448804678491" lon="10.572894585232511"><ele>88.0</ele><time>2026-04-06T08:45:59.054Z</time></trkpt><trkpt lat="45.4448728843574" lon="10.57265027563605"><ele>88.0</ele><time>2026-04-06T08:46:00.054Z</time></trkpt><trkpt lat="45.44485902733352" lon="10.572393079766199"><ele>88.0</ele><time>2026-04-06T08:46:01.054Z</time></trkpt><trkpt lat="45.44484765329091" lon="10.572139306145129"><ele>88.0</ele><time>2026-04-06T08:46:02.054Z</time></trkpt><trkpt lat="45.444841835282425" lon="10.571894394625936"><ele>88.0</ele><time>2026-04-06T08:46:03.054Z</time></trkpt><trkpt lat="45.444840061241905" lon="10.571644040110517"><ele>88.0</ele><time>2026-04-06T08:46:04.054Z</time></trkpt><trkpt lat="45.44484134196051" lon="10.571404975783992"><ele>88.0</ele><time>2026-04-06T08:46:05.054Z</time></trkpt><trkpt lat="45.44483987231287" lon="10.57115562475388"><ele>88.0</ele><time>2026-04-06T08:46:06.054Z</time></trkpt><trkpt lat="45.44484796203729" lon="10.570917165903749"><ele>88.0</ele><time>2026-04-06T08:46:07.054Z</time></trkpt><trkpt lat="45.44487409192648" lon="10.57067696527322"><ele>88.0</ele><time>2026-04-06T08:46:08.054Z</time></trkpt><trkpt lat="45.44489009826808" lon="10.570443797135027"><ele>88.0</ele><time>2026-04-06T08:46:09.054Z</time></trkpt><trkpt lat="45.44490989672257" lon="10.57021776557453"><ele>88.33333333333333</ele><time>2026-04-06T08:46:10.054Z</time></trkpt><trkpt lat="45.444931994067105" lon="10.569987680234124"><ele>88.66666666666667</ele><time>2026-04-06T08:46:11.054Z</time></trkpt><trkpt lat="45.444960920118234" lon="10.569748402194406"><ele>89.0</ele><time>2026-04-06T08:46:12.054Z</time></trkpt><trkpt lat="45.44499375286804" lon="10.569509177361546"><ele>89.66666666666667</ele><time>2026-04-06T08:46:13.054Z</time></trkpt><trkpt lat="45.44502984410669" lon="10.569267578567063"><ele>90.33333333333333</ele><time>2026-04-06T08:46:14.054Z</time></trkpt><trkpt lat="45.445067040481455" lon="10.569043313862265"><ele>91.0</ele><time>2026-04-06T08:46:15.054Z</time></trkpt><trkpt lat="45.44510582387073" lon="10.568824400229087"><ele>90.66666666666666</ele><time>2026-04-06T08:46:16.054Z</time></trkpt><trkpt lat="45.44514849107046" lon="10.568613338894728"><ele>90.33333333333333</ele><time>2026-04-06T08:46:17.054Z</time></trkpt><trkpt lat="45.44519429468911" lon="10.568391723310276"><ele>90.0</ele><time>2026-04-06T08:46:18.054Z</time></trkpt><trkpt lat="45.44523642913271" lon="10.568189729716494"><ele>90.0</ele><time>2026-04-06T08:46:19.054Z</time></trkpt><trkpt lat="45.44527404860909" lon="10.567980282973346"><ele>90.0</ele><time>2026-04-06T08:46:20.054Z</time></trkpt><trkpt lat="45.44533267230785" lon="10.567803575013711"><ele>90.0</ele><time>2026-04-06T08:46:21.054Z</time></trkpt><trkpt lat="45.44537017713698" lon="10.56748804980305"><ele>89.33333333333333</ele><time>2026-04-06T08:46:22.054Z</time></trkpt><trkpt lat="45.445435029059475" lon="10.567237638560165"><ele>88.66666666666666</ele><time>2026-04-06T08:46:23.054Z</time></trkpt><trkpt lat="45.445488861389656" lon="10.56697956365383"><ele>88.0</ele><time>2026-04-06T08:46:24.054Z</time></trkpt><trkpt lat="45.445526465925006" lon="10.566726203135856"><ele>87.33333333333333</ele><time>2026-04-06T08:46:25.054Z</time></trkpt><trkpt lat="45.44558068670037" lon="10.566485704713525"><ele>86.66666666666667</ele><time>2026-04-06T08:46:26.054Z</time></trkpt><trkpt lat="45.44563065939124" lon="10.566235801637843"><ele>86.0</ele><time>2026-04-06T08:46:27.054Z</time></trkpt><trkpt lat="45.445680764147696" lon="10.565985946345618"><ele>86.0</ele><time>2026-04-06T08:46:28.054Z</time></trkpt><trkpt lat="45.44574825911764" lon="10.565739510992932"><ele>86.0</ele><time>2026-04-06T08:46:29.054Z</time></trkpt><trkpt lat="45.445784611409465" lon="10.565484325064933"><ele>86.0</ele><time>2026-04-06T08:46:30.054Z</time></trkpt><trkpt lat="45.44585185527862" lon="10.565243310960431"><ele>86.66666666666667</ele><time>2026-04-06T08:46:31.054Z</time></trkpt><trkpt lat="45.44590290896297" lon="10.56499877633986"><ele>87.33333333333333</ele><time>2026-04-06T08:46:32.054Z</time></trkpt><trkpt lat="45.445955290701676" lon="10.564742509786237"><ele>88.0</ele><time>2026-04-06T08:46:33.054Z</time></trkpt><trkpt lat="45.446008267966825" lon="10.5644830730483"><ele>88.0</ele><time>2026-04-06T08:46:34.054Z</time></trkpt><trkpt lat="45.44606197605556" lon="10.564212041804677"><ele>88.0</ele><time>2026-04-06T08:46:35.054Z</time></trkpt><trkpt lat="45.446114181346786" lon="10.563941523344148"><ele>88.0</ele><time>2026-04-06T08:46:36.054Z</time></trkpt><trkpt lat="45.44616557910349" lon="10.563675189629182"><ele>88.33333333333333</ele><time>2026-04-06T08:46:37.054Z</time></trkpt><trkpt lat="45.44621313638248" lon="10.563429257774745"><ele>88.66666666666667</ele><time>2026-04-06T08:46:38.054Z</time></trkpt><trkpt lat="45.446241898848115" lon="10.563183316989486"><ele>89.0</ele><time>2026-04-06T08:46:39.054Z</time></trkpt><trkpt lat="45.44629710666795" lon="10.56297353270692"><ele>88.66666666666667</ele><time>2026-04-06T08:46:40.054Z</time></trkpt><trkpt lat="45.446337361623215" lon="10.562752032590595"><ele>88.33333333333333</ele><time>2026-04-06T08:46:41.054Z</time></trkpt><trkpt lat="45.446378649272006" lon="10.56252709014032"><ele>88.0</ele><time>2026-04-06T08:46:42.054Z</time></trkpt><trkpt lat="45.446421829850834" lon="10.562291834633928"><ele>88.0</ele><time>2026-04-06T08:46:43.054Z</time></trkpt><trkpt lat="45.44646123531549" lon="10.56207714705448"><ele>88.0</ele><time>2026-04-06T08:46:44.054Z</time></trkpt><trkpt lat="45.446499679637206" lon="10.56186769544997"><ele>88.0</ele><time>2026-04-06T08:46:45.054Z</time></trkpt><trkpt lat="45.44653417733448" lon="10.561679746028055"><ele>88.0</ele><time>2026-04-06T08:46:46.054Z</time></trkpt><trkpt lat="45.44657446724719" lon="10.561460239676938"><ele>88.0</ele><time>2026-04-06T08:46:47.054Z</time></trkpt><trkpt lat="45.44661515164733" lon="10.561238583431628"><ele>88.0</ele><time>2026-04-06T08:46:49.054Z</time></trkpt><trkpt lat="45.44665427398696" lon="10.561025438166473"><ele>88.0</ele><time>2026-04-06T08:46:50.054Z</time></trkpt><trkpt lat="45.446697341467335" lon="10.560789760784907"><ele>88.0</ele><time>2026-04-06T08:46:51.054Z</time></trkpt><trkpt lat="45.44674101646828" lon="10.560551876720373"><ele>88.0</ele><time>2026-04-06T08:46:52.054Z</time></trkpt><trkpt lat="45.44678610245199" lon="10.560306308001335"><ele>88.0</ele><time>2026-04-06T08:46:53.054Z</time></trkpt><trkpt lat="45.44683068207863" lon="10.560063496880344"><ele>88.0</ele><time>2026-04-06T08:46:54.054Z</time></trkpt><trkpt lat="45.44687778905039" lon="10.559806920415543"><ele>88.0</ele><time>2026-04-06T08:46:55.054Z</time></trkpt><trkpt lat="45.44692505685582" lon="10.55954946784686"><ele>88.0</ele><time>2026-04-06T08:46:56.054Z</time></trkpt><trkpt lat="45.44697171899903" lon="10.559290860795407"><ele>88.0</ele><time>2026-04-06T08:46:57.054Z</time></trkpt><trkpt lat="45.44701838364405" lon="10.559031905581485"><ele>88.0</ele><time>2026-04-06T08:46:58.054Z</time></trkpt><trkpt lat="45.44706580863384" lon="10.558768731010662"><ele>88.0</ele><time>2026-04-06T08:46:59.054Z</time></trkpt><trkpt lat="45.44711362303852" lon="10.55850339533059"><ele>88.33333333333333</ele><time>2026-04-06T08:47:00.054Z</time></trkpt><trkpt lat="45.44716192377218" lon="10.558237693136851"><ele>88.66666666666667</ele><time>2026-04-06T08:47:01.054Z</time></trkpt><trkpt lat="45.44720869873832" lon="10.557980936855312"><ele>89.0</ele><time>2026-04-06T08:47:02.054Z</time></trkpt><trkpt lat="45.44725455316837" lon="10.55773234104496"><ele>89.0</ele><time>2026-04-06T08:47:03.054Z</time></trkpt><trkpt lat="45.447298291000806" lon="10.557493069135012"><ele>89.0</ele><time>2026-04-06T08:47:04.054Z</time></trkpt><trkpt lat="45.44733039631476" lon="10.557263807306306"><ele>89.0</ele><time>2026-04-06T08:47:05.054Z</time></trkpt><trkpt lat="45.447370415436176" lon="10.557048714414528"><ele>88.33333333333334</ele><time>2026-04-06T08:47:06.054Z</time></trkpt><trkpt lat="45.44740777158926" lon="10.556835831936874"><ele>87.66666666666667</ele><time>2026-04-06T08:47:07.054Z</time></trkpt><trkpt lat="45.44745558556332" lon="10.556614746000061"><ele>87.0</ele><time>2026-04-06T08:47:08.054Z</time></trkpt><trkpt lat="45.44749720733471" lon="10.556392592302869"><ele>87.33333333333333</ele><time>2026-04-06T08:47:09.054Z</time></trkpt><trkpt lat="45.44753407236866" lon="10.556165398121806"><ele>87.66666666666666</ele><time>2026-04-06T08:47:10.054Z</time></trkpt><trkpt lat="45.44757852320514" lon="10.55592598762841"><ele>88.0</ele><time>2026-04-06T08:47:11.055Z</time></trkpt><trkpt lat="45.44761853455714" lon="10.555685335243252"><ele>88.0</ele><time>2026-04-06T08:47:12.055Z</time></trkpt><trkpt lat="45.447662313628186" lon="10.555446426922952"><ele>88.0</ele><time>2026-04-06T08:47:13.055Z</time></trkpt><trkpt lat="45.44771381116224" lon="10.555197554375821"><ele>88.0</ele><time>2026-04-06T08:47:14.055Z</time></trkpt><trkpt lat="45.4477574011321" lon="10.554950796468725"><ele>88.0</ele><time>2026-04-06T08:47:15.055Z</time></trkpt><trkpt lat="45.44780847292213" lon="10.554701343595061"><ele>88.0</ele><time>2026-04-06T08:47:16.055Z</time></trkpt><trkpt lat="45.44785434548294" lon="10.554446282311059"><ele>88.0</ele><time>2026-04-06T08:47:17.055Z</time></trkpt><trkpt lat="45.44789718048301" lon="10.554191384348675"><ele>88.0</ele><time>2026-04-06T08:47:18.055Z</time></trkpt><trkpt lat="45.4479480423573" lon="10.553929334932402"><ele>88.0</ele><time>2026-04-06T08:47:19.055Z</time></trkpt><trkpt lat="45.44799896659812" lon="10.553671024403764"><ele>88.0</ele><time>2026-04-06T08:47:20.055Z</time></trkpt><trkpt lat="45.44805109802557" lon="10.553410419018817"><ele>88.0</ele><time>2026-04-06T08:47:21.055Z</time></trkpt><trkpt lat="45.44810121713835" lon="10.55314782413451"><ele>88.0</ele><time>2026-04-06T08:47:22.055Z</time></trkpt><trkpt lat="45.44815600077136" lon="10.552882209874369"><ele>88.0</ele><time>2026-04-06T08:47:23.055Z</time></trkpt><trkpt lat="45.44821620893633" lon="10.552608873923424"><ele>88.33333333333333</ele><time>2026-04-06T08:47:24.055Z</time></trkpt><trkpt lat="45.448276187096305" lon="10.552332660233535"><ele>88.66666666666667</ele><time>2026-04-06T08:47:25.055Z</time></trkpt><trkpt lat="45.44833609803374" lon="10.55205993870946"><ele>89.0</ele><time>2026-04-06T08:47:26.055Z</time></trkpt><trkpt lat="45.44839251733778" lon="10.551807529683796"><ele>89.0</ele><time>2026-04-06T08:47:27.055Z</time></trkpt><trkpt lat="45.448448097703334" lon="10.551570746352736"><ele>89.0</ele><time>2026-04-06T08:47:28.055Z</time></trkpt><trkpt lat="45.44850231506606" lon="10.551337858025137"><ele>89.0</ele><time>2026-04-06T08:47:29.055Z</time></trkpt><trkpt lat="45.4485529670907" lon="10.551116898024176"><ele>89.0</ele><time>2026-04-06T08:47:30.055Z</time></trkpt><trkpt lat="45.44860046358887" lon="10.550884514845981"><ele>89.0</ele><time>2026-04-06T08:47:31.055Z</time></trkpt><trkpt lat="45.44865090131572" lon="10.550671747608504"><ele>89.0</ele><time>2026-04-06T08:47:32.055Z</time></trkpt><trkpt lat="45.44870180400476" lon="10.55048009178668"><ele>89.0</ele><time>2026-04-06T08:47:33.055Z</time></trkpt><trkpt lat="45.44874656959814" lon="10.550271719248224"><ele>89.0</ele><time>2026-04-06T08:47:34.055Z</time></trkpt><trkpt lat="45.448814741979795" lon="10.550040404955897"><ele>89.0</ele><time>2026-04-06T08:47:35.055Z</time></trkpt><trkpt lat="45.44887145375501" lon="10.549800193405185"><ele>89.0</ele><time>2026-04-06T08:47:36.055Z</time></trkpt><trkpt lat="45.4489305167024" lon="10.54955002344358"><ele>89.0</ele><time>2026-04-06T08:47:37.055Z</time></trkpt><trkpt lat="45.44899491792615" lon="10.54927724252658"><ele>89.0</ele><time>2026-04-06T08:47:38.055Z</time></trkpt><trkpt lat="45.44906055163317" lon="10.548998839903641"><ele>89.0</ele><time>2026-04-06T08:47:39.055Z</time></trkpt><trkpt lat="45.44912197152735" lon="10.54873687063417"><ele>89.0</ele><time>2026-04-06T08:47:40.055Z</time></trkpt><trkpt lat="45.4491823249266" lon="10.548479450348143"><ele>89.0</ele><time>2026-04-06T08:47:41.055Z</time></trkpt><trkpt lat="45.449227847616996" lon="10.548209977450808"><ele>89.0</ele><time>2026-04-06T08:47:42.055Z</time></trkpt><trkpt lat="45.4493055561017" lon="10.547949635825312"><ele>89.0</ele><time>2026-04-06T08:47:43.055Z</time></trkpt><trkpt lat="45.449367800713986" lon="10.547681465056714"><ele>89.0</ele><time>2026-04-06T08:47:44.055Z</time></trkpt><trkpt lat="45.44942534297945" lon="10.54743539935308"><ele>89.0</ele><time>2026-04-06T08:47:45.055Z</time></trkpt><trkpt lat="45.44946874632763" lon="10.547192752688042"><ele>89.0</ele><time>2026-04-06T08:47:46.055Z</time></trkpt><trkpt lat="45.449521803256985" lon="10.546961560855024"><ele>89.0</ele><time>2026-04-06T08:47:47.055Z</time></trkpt><trkpt lat="45.44957781407137" lon="10.546728162727858"><ele>90.0</ele><time>2026-04-06T08:47:48.055Z</time></trkpt><trkpt lat="45.44963466324166" lon="10.546483838994927"><ele>91.0</ele><time>2026-04-06T08:47:49.055Z</time></trkpt><trkpt lat="45.44969259018455" lon="10.546233254803077"><ele>92.0</ele><time>2026-04-06T08:47:50.055Z</time></trkpt><trkpt lat="45.449750016913555" lon="10.545987090401074"><ele>92.33333333333334</ele><time>2026-04-06T08:47:51.055Z</time></trkpt><trkpt lat="45.44980804800731" lon="10.545748894442514"><ele>92.66666666666667</ele><time>2026-04-06T08:47:52.055Z</time></trkpt><trkpt lat="45.44985973631102" lon="10.54551551449664"><ele>93.0</ele><time>2026-04-06T08:47:53.055Z</time></trkpt><trkpt lat="45.449929170815274" lon="10.545281951651429"><ele>93.0</ele><time>2026-04-06T08:47:54.055Z</time></trkpt><trkpt lat="45.449977951969174" lon="10.54503602796392"><ele>93.0</ele><time>2026-04-06T08:47:55.055Z</time></trkpt><trkpt lat="45.450030392850145" lon="10.54478381135079"><ele>93.0</ele><time>2026-04-06T08:47:56.055Z</time></trkpt><trkpt lat="45.45010517267906" lon="10.544530643323121"><ele>93.33333333333333</ele><time>2026-04-06T08:47:57.055Z</time></trkpt><trkpt lat="45.45015573392456" lon="10.544245977595569"><ele>93.66666666666666</ele><time>2026-04-06T08:47:58.055Z</time></trkpt><trkpt lat="45.45024240216819" lon="10.543944845038448"><ele>94.0</ele><time>2026-04-06T08:47:59.055Z</time></trkpt><trkpt lat="45.45029893155082" lon="10.543636056800507"><ele>94.33333333333333</ele><time>2026-04-06T08:48:00.055Z</time></trkpt><trkpt lat="45.450364721394834" lon="10.543356379854872"><ele>94.66666666666667</ele><time>2026-04-06T08:48:01.055Z</time></trkpt><trkpt lat="45.45042816884133" lon="10.543092614997805"><ele>95.0</ele><time>2026-04-06T08:48:02.055Z</time></trkpt><trkpt lat="45.45049279809594" lon="10.542844932424378"><ele>95.0</ele><time>2026-04-06T08:48:03.055Z</time></trkpt><trkpt lat="45.450549603005015" lon="10.542578073719696"><ele>95.0</ele><time>2026-04-06T08:48:04.055Z</time></trkpt><trkpt lat="45.45062760758996" lon="10.542293497491395"><ele>95.0</ele><time>2026-04-06T08:48:05.055Z</time></trkpt><trkpt lat="45.45068714918088" lon="10.541976458545278"><ele>95.0</ele><time>2026-04-06T08:48:06.055Z</time></trkpt><trkpt lat="45.45075736466184" lon="10.541669156872272"><ele>95.0</ele><time>2026-04-06T08:48:07.055Z</time></trkpt><trkpt lat="45.450834959216884" lon="10.541402548971684"><ele>95.0</ele><time>2026-04-06T08:48:08.055Z</time></trkpt><trkpt lat="45.45089572617882" lon="10.541142090202417"><ele>95.33333333333334</ele><time>2026-04-06T08:48:09.055Z</time></trkpt><trkpt lat="45.45095643908839" lon="10.540881862175734"><ele>95.66666666666667</ele><time>2026-04-06T08:48:10.055Z</time></trkpt><trkpt lat="45.45101897008786" lon="10.54061220651472"><ele>96.0</ele><time>2026-04-06T08:48:11.055Z</time></trkpt><trkpt lat="45.45108363666846" lon="10.540333552392724"><ele>96.66666666666666</ele><time>2026-04-06T08:48:12.055Z</time></trkpt><trkpt lat="45.451148199933094" lon="10.540050507074065"><ele>97.33333333333333</ele><time>2026-04-06T08:48:13.055Z</time></trkpt><trkpt lat="45.4512152085838" lon="10.539756741033923"><ele>98.0</ele><time>2026-04-06T08:48:14.055Z</time></trkpt><trkpt lat="45.45126631307664" lon="10.53945818219447"><ele>97.66666666666666</ele><time>2026-04-06T08:48:15.055Z</time></trkpt><trkpt lat="45.45135268034117" lon="10.539160855486177"><ele>97.33333333333334</ele><time>2026-04-06T08:48:16.055Z</time></trkpt><trkpt lat="45.45142153044636" lon="10.538864390202308"><ele>97.0</ele><time>2026-04-06T08:48:17.055Z</time></trkpt><trkpt lat="45.45147348149817" lon="10.538569820780602"><ele>97.0</ele><time>2026-04-06T08:48:18.055Z</time></trkpt><trkpt lat="45.451532576248326" lon="10.538307857889935"><ele>97.0</ele><time>2026-04-06T08:48:19.055Z</time></trkpt><trkpt lat="45.45159123284198" lon="10.538059936274374"><ele>97.0</ele><time>2026-04-06T08:48:20.055Z</time></trkpt><trkpt lat="45.45164808997984" lon="10.537822961152845"><ele>97.66666666666667</ele><time>2026-04-06T08:48:21.055Z</time></trkpt><trkpt lat="45.45170108263963" lon="10.537592011165321"><ele>98.33333333333334</ele><time>2026-04-06T08:48:22.055Z</time></trkpt><trkpt lat="45.45175482261694" lon="10.537372175523856"><ele>99.0</ele><time>2026-04-06T08:48:23.055Z</time></trkpt><trkpt lat="45.45180552674027" lon="10.537156268157705"><ele>99.66666666666666</ele><time>2026-04-06T08:48:24.055Z</time></trkpt><trkpt lat="45.45185641119883" lon="10.53693731306223"><ele>100.33333333333333</ele><time>2026-04-06T08:48:25.055Z</time></trkpt><trkpt lat="45.4518985793557" lon="10.536724428398923"><ele>101.0</ele><time>2026-04-06T08:48:26.055Z</time></trkpt><trkpt lat="45.45195691860607" lon="10.53652010654523"><ele>101.0</ele><time>2026-04-06T08:48:27.055Z</time></trkpt><trkpt lat="45.4519926866906" lon="10.536330571669279"><ele>101.0</ele><time>2026-04-06T08:48:28.055Z</time></trkpt><trkpt lat="45.452041580166224" lon="10.5361492540502"><ele>101.0</ele><time>2026-04-06T08:48:29.055Z</time></trkpt><trkpt lat="45.45208188879323" lon="10.535967412055708"><ele>101.0</ele><time>2026-04-06T08:48:30.055Z</time></trkpt><trkpt lat="45.45211865792385" lon="10.535793047536702"><ele>100.75</ele><time>2026-04-06T08:48:31.055Z</time></trkpt><trkpt lat="45.45215965222876" lon="10.535622310509108"><ele>100.5</ele><time>2026-04-06T08:48:32.055Z</time></trkpt><trkpt lat="45.45220182139696" lon="10.535433520711559"><ele>100.25</ele><time>2026-04-06T08:48:33.055Z</time></trkpt><trkpt lat="45.45224483998925" lon="10.535241005862227"><ele>100.0</ele><time>2026-04-06T08:48:34.055Z</time></trkpt><trkpt lat="45.45229139938795" lon="10.535050784501141"><ele>100.0</ele><time>2026-04-06T08:48:35.055Z</time></trkpt><trkpt lat="45.45233730261859" lon="10.53484307832327"><ele>100.0</ele><time>2026-04-06T08:48:36.055Z</time></trkpt><trkpt lat="45.452377518722244" lon="10.534632240606298"><ele>100.0</ele><time>2026-04-06T08:48:37.055Z</time></trkpt><trkpt lat="45.4524253685471" lon="10.534421966364594"><ele>101.0</ele><time>2026-04-06T08:48:38.055Z</time></trkpt><trkpt lat="45.45247601856652" lon="10.534210803409739"><ele>102.0</ele><time>2026-04-06T08:48:39.055Z</time></trkpt><trkpt lat="45.452526515632655" lon="10.53399687359103"><ele>103.0</ele><time>2026-04-06T08:48:40.055Z</time></trkpt><trkpt lat="45.452575221185306" lon="10.53377739053453"><ele>103.5</ele><time>2026-04-06T08:48:41.055Z</time></trkpt><trkpt lat="45.45262465104008" lon="10.533565553248184"><ele>104.0</ele><time>2026-04-06T08:48:42.055Z</time></trkpt><trkpt lat="45.45268576826497" lon="10.533385848535165"><ele>104.5</ele><time>2026-04-06T08:48:43.055Z</time></trkpt><trkpt lat="45.452733624191815" lon="10.533203252001154"><ele>105.0</ele><time>2026-04-06T08:48:44.055Z</time></trkpt><trkpt lat="45.45278078127209" lon="10.533031268042146"><ele>105.25</ele><time>2026-04-06T08:48:45.055Z</time></trkpt><trkpt lat="45.452826053503735" lon="10.53287009777754"><ele>105.5</ele><time>2026-04-06T08:48:46.055Z</time></trkpt><trkpt lat="45.45287024413383" lon="10.532716840913379"><ele>105.75</ele><time>2026-04-06T08:48:47.055Z</time></trkpt><trkpt lat="45.45289893576901" lon="10.532561528571271"><ele>106.0</ele><time>2026-04-06T08:48:48.055Z</time></trkpt><trkpt lat="45.45294472397266" lon="10.532425875419296"><ele>106.0</ele><time>2026-04-06T08:48:49.055Z</time></trkpt><trkpt lat="45.45298559573361" lon="10.532293886395541"><ele>106.0</ele><time>2026-04-06T08:48:50.055Z</time></trkpt><trkpt lat="45.453028535508246" lon="10.532154899586212"><ele>106.0</ele><time>2026-04-06T08:48:51.055Z</time></trkpt><trkpt lat="45.45309439869688" lon="10.532012250893686"><ele>106.0</ele><time>2026-04-06T08:48:52.055Z</time></trkpt><trkpt lat="45.45314963697742" lon="10.531851348073555"><ele>107.0</ele><time>2026-04-06T08:48:53.055Z</time></trkpt><trkpt lat="45.45320486275113" lon="10.531691356860753"><ele>108.0</ele><time>2026-04-06T08:48:54.055Z</time></trkpt><trkpt lat="45.453253352239265" lon="10.531509727470535"><ele>109.0</ele><time>2026-04-06T08:48:55.055Z</time></trkpt><trkpt lat="45.45330655635135" lon="10.53136229065004"><ele>110.0</ele><time>2026-04-06T08:48:56.055Z</time></trkpt><trkpt lat="45.45335266575926" lon="10.531224879404057"><ele>111.0</ele><time>2026-04-06T08:48:57.055Z</time></trkpt><trkpt lat="45.453413808811696" lon="10.531105161696239"><ele>112.0</ele><time>2026-04-06T08:48:58.07Z</time></trkpt><trkpt lat="45.45346291804501" lon="10.530968973625816"><ele>113.0</ele><time>2026-04-06T08:48:59.068Z</time></trkpt><trkpt lat="45.45352075161806" lon="10.530809939120047"><ele>114.0</ele><time>2026-04-06T08:49:00.067Z</time></trkpt><trkpt lat="45.45357010245382" lon="10.530674230882017"><ele>115.0</ele><time>2026-04-06T08:49:01.068Z</time></trkpt><trkpt lat="45.45361452997238" lon="10.530533740012787"><ele>117.0</ele><time>2026-04-06T08:49:02.068Z</time></trkpt><trkpt lat="45.45365925666358" lon="10.530383508505516"><ele>119.0</ele><time>2026-04-06T08:49:03.069Z</time></trkpt><trkpt lat="45.455161649776116" lon="10.526258535692959"><ele>120.0</ele><time>2026-04-06T08:49:27.055Z</time></trkpt><trkpt lat="45.4552400718821" lon="10.526050068257833"><ele>121.0</ele><time>2026-04-06T08:49:28.055Z</time></trkpt><trkpt lat="45.45532245192698" lon="10.525827095528419"><ele>122.0</ele><time>2026-04-06T08:49:29.055Z</time></trkpt><trkpt lat="45.45543325771456" lon="10.525614407716704"><ele>120.0</ele><time>2026-04-06T08:49:30.055Z</time></trkpt><trkpt lat="45.45550754828357" lon="10.525432676169602"><ele>118.0</ele><time>2026-04-06T08:49:31.055Z</time></trkpt><trkpt lat="45.45560173964094" lon="10.525248396668255"><ele>116.0</ele><time>2026-04-06T08:49:32.055Z</time></trkpt><trkpt lat="45.45570788606214" lon="10.525059622347497"><ele>116.0</ele><time>2026-04-06T08:49:33.056Z</time></trkpt><trkpt lat="45.455805474500465" lon="10.524888135849181"><ele>116.0</ele><time>2026-04-06T08:49:34.056Z</time></trkpt><trkpt lat="45.45592182071141" lon="10.524704187479747"><ele>116.0</ele><time>2026-04-06T08:49:35.056Z</time></trkpt><trkpt lat="45.45604854198616" lon="10.52451909333722"><ele>117.0</ele><time>2026-04-06T08:49:36.056Z</time></trkpt><trkpt lat="45.45617454982149" lon="10.524305844582129"><ele>118.0</ele><time>2026-04-06T08:49:37.056Z</time></trkpt><trkpt lat="45.45631265470884" lon="10.52408266403735"><ele>119.0</ele><time>2026-04-06T08:49:38.056Z</time></trkpt><trkpt lat="45.45644537035196" lon="10.523830993368474"><ele>120.5</ele><time>2026-04-06T08:49:39.068Z</time></trkpt><trkpt lat="45.45668432525057" lon="10.523724711460009"><ele>122.0</ele><time>2026-04-06T08:49:40.071Z</time></trkpt><trkpt lat="45.45685764820175" lon="10.52350502060902"><ele>122.0</ele><time>2026-04-06T08:49:41.071Z</time></trkpt><trkpt lat="45.45704534523852" lon="10.523249867078597"><ele>122.0</ele><time>2026-04-06T08:49:42.068Z</time></trkpt><trkpt lat="45.457247675475095" lon="10.522931156231722"><ele>122.0</ele><time>2026-04-06T08:49:43.072Z</time></trkpt><trkpt lat="45.4576207744381" lon="10.52138236352291"><ele>123.0</ele><time>2026-04-06T08:49:50.056Z</time></trkpt><trkpt lat="45.45767398280222" lon="10.521148696924163"><ele>124.0</ele><time>2026-04-06T08:49:51.056Z</time></trkpt><trkpt lat="45.45781963421109" lon="10.520944929602365"><ele>125.0</ele><time>2026-04-06T08:49:52.056Z</time></trkpt><trkpt lat="45.45786177492914" lon="10.520725680550065"><ele>125.0</ele><time>2026-04-06T08:49:53.056Z</time></trkpt><trkpt lat="45.457885515139075" lon="10.520501083159415"><ele>125.0</ele><time>2026-04-06T08:49:54.056Z</time></trkpt><trkpt lat="45.45789558798926" lon="10.520259698157382"><ele>125.0</ele><time>2026-04-06T08:49:55.056Z</time></trkpt><trkpt lat="45.45787673199751" lon="10.519924969789383"><ele>125.33333333333333</ele><time>2026-04-06T08:49:56.056Z</time></trkpt><trkpt lat="45.4578939021205" lon="10.51967814036327"><ele>125.66666666666666</ele><time>2026-04-06T08:49:57.056Z</time></trkpt><trkpt lat="45.45790675688499" lon="10.51943822157828"><ele>126.0</ele><time>2026-04-06T08:49:58.056Z</time></trkpt><trkpt lat="45.45793723118904" lon="10.519224918612341"><ele>126.25</ele><time>2026-04-06T08:49:59.056Z</time></trkpt><trkpt lat="45.457978760863995" lon="10.519042324425305"><ele>126.5</ele><time>2026-04-06T08:50:00.056Z</time></trkpt><trkpt lat="45.4580444497477" lon="10.518889995210806"><ele>126.75</ele><time>2026-04-06T08:50:01.056Z</time></trkpt><trkpt lat="45.45813471596087" lon="10.518745595449802"><ele>127.0</ele><time>2026-04-06T08:50:02.056Z</time></trkpt><trkpt lat="45.458241801187064" lon="10.518613557734176"><ele>128.5</ele><time>2026-04-06T08:50:03.056Z</time></trkpt><trkpt lat="45.457975275315036" lon="10.518174334174528"><ele>130.0</ele><time>2026-04-06T08:50:04.056Z</time></trkpt><trkpt lat="45.457975233239395" lon="10.51796835894661"><ele>131.66666666666669</ele><time>2026-04-06T08:50:05.056Z</time></trkpt><trkpt lat="45.457977075950616" lon="10.517766466823263"><ele>133.33333333333334</ele><time>2026-04-06T08:50:06.056Z</time></trkpt><trkpt lat="45.457995648386174" lon="10.517545616479188"><ele>135.0</ele><time>2026-04-06T08:50:07.056Z</time></trkpt><trkpt lat="45.45799771588751" lon="10.517318445335777"><ele>135.0</ele><time>2026-04-06T08:50:08.056Z</time></trkpt><trkpt lat="45.45799982155656" lon="10.517087080151008"><ele>135.0</ele><time>2026-04-06T08:50:09.056Z</time></trkpt><trkpt lat="45.45800453069122" lon="10.51685231388986"><ele>135.0</ele><time>2026-04-06T08:50:10.056Z</time></trkpt><trkpt lat="45.45801763636579" lon="10.516622426470247"><ele>134.66666666666666</ele><time>2026-04-06T08:50:11.056Z</time></trkpt><trkpt lat="45.458035134960774" lon="10.516393423139599"><ele>134.33333333333331</ele><time>2026-04-06T08:50:12.056Z</time></trkpt><trkpt lat="45.45805501541539" lon="10.51616483137681"><ele>134.0</ele><time>2026-04-06T08:50:13.056Z</time></trkpt><trkpt lat="45.45807587861705" lon="10.515939135592587"><ele>134.0</ele><time>2026-04-06T08:50:14.056Z</time></trkpt><trkpt lat="45.45809976387833" lon="10.515707568043132"><ele>134.0</ele><time>2026-04-06T08:50:15.056Z</time></trkpt><trkpt lat="45.458126502376714" lon="10.515479507690296"><ele>134.0</ele><time>2026-04-06T08:50:16.056Z</time></trkpt><trkpt lat="45.45815789937248" lon="10.515252759273052"><ele>134.25</ele><time>2026-04-06T08:50:17.056Z</time></trkpt><trkpt lat="45.45816455865923" lon="10.51503225261879"><ele>134.5</ele><time>2026-04-06T08:50:18.056Z</time></trkpt><trkpt lat="45.45820864046878" lon="10.51483638386329"><ele>134.75</ele><time>2026-04-06T08:50:19.056Z</time></trkpt><trkpt lat="45.458261466279815" lon="10.51463976784419"><ele>135.0</ele><time>2026-04-06T08:50:20.056Z</time></trkpt><trkpt lat="45.45831479404754" lon="10.514442384398306"><ele>135.0</ele><time>2026-04-06T08:50:21.056Z</time></trkpt><trkpt lat="45.45837271549326" lon="10.514242441444235"><ele>135.0</ele><time>2026-04-06T08:50:22.056Z</time></trkpt><trkpt lat="45.45843789208551" lon="10.514049384916461"><ele>135.0</ele><time>2026-04-06T08:50:23.056Z</time></trkpt><trkpt lat="45.458505248763856" lon="10.513857668004626"><ele>136.0</ele><time>2026-04-06T08:50:24.056Z</time></trkpt><trkpt lat="45.45861545125888" lon="10.513695557760721"><ele>137.0</ele><time>2026-04-06T08:50:25.056Z</time></trkpt><trkpt lat="45.45870179127757" lon="10.513502334574657"><ele>138.0</ele><time>2026-04-06T08:50:26.056Z</time></trkpt><trkpt lat="45.45881251220086" lon="10.513288636536739"><ele>138.0</ele><time>2026-04-06T08:50:27.056Z</time></trkpt><trkpt lat="45.45890058627921" lon="10.513070147892158"><ele>138.0</ele><time>2026-04-06T08:50:28.056Z</time></trkpt><trkpt lat="45.45901156727577" lon="10.512879922261117"><ele>138.0</ele><time>2026-04-06T08:50:29.056Z</time></trkpt><trkpt lat="45.45912873783761" lon="10.512689464968906"><ele>138.0</ele><time>2026-04-06T08:50:30.056Z</time></trkpt><trkpt lat="45.45924363501599" lon="10.512496357707109"><ele>138.0</ele><time>2026-04-06T08:50:31.056Z</time></trkpt><trkpt lat="45.459360962865496" lon="10.51229588680909"><ele>138.0</ele><time>2026-04-06T08:50:32.056Z</time></trkpt><trkpt lat="45.45951525915288" lon="10.51210302977169"><ele>139.0</ele><time>2026-04-06T08:50:33.056Z</time></trkpt><trkpt lat="45.459648073293934" lon="10.511885822246755"><ele>140.0</ele><time>2026-04-06T08:50:34.056Z</time></trkpt><trkpt lat="45.45978441609295" lon="10.511662862004687"><ele>141.0</ele><time>2026-04-06T08:50:35.056Z</time></trkpt><trkpt lat="45.45992586273514" lon="10.511430895357055"><ele>142.66666666666666</ele><time>2026-04-06T08:50:36.056Z</time></trkpt><trkpt lat="45.460050960169895" lon="10.511225643269029"><ele>144.33333333333331</ele><time>2026-04-06T08:50:37.056Z</time></trkpt><trkpt lat="45.46017421191381" lon="10.511023461326648"><ele>146.0</ele><time>2026-04-06T08:50:38.056Z</time></trkpt><trkpt lat="45.46030240641004" lon="10.510813003454983"><ele>146.0</ele><time>2026-04-06T08:50:39.056Z</time></trkpt><trkpt lat="45.46043564271246" lon="10.510593224677983"><ele>146.0</ele><time>2026-04-06T08:50:40.056Z</time></trkpt><trkpt lat="45.460573084190884" lon="10.510366861687555"><ele>146.0</ele><time>2026-04-06T08:50:41.056Z</time></trkpt><trkpt lat="45.46071440350514" lon="10.510134884264286"><ele>147.33333333333331</ele><time>2026-04-06T08:50:42.056Z</time></trkpt><trkpt lat="45.460858577440355" lon="10.509900249119957"><ele>148.66666666666666</ele><time>2026-04-06T08:50:43.056Z</time></trkpt><trkpt lat="45.46100321681075" lon="10.50966451114309"><ele>150.0</ele><time>2026-04-06T08:50:44.056Z</time></trkpt><trkpt lat="45.46115132889076" lon="10.509422597596418"><ele>150.0</ele><time>2026-04-06T08:50:45.056Z</time></trkpt><trkpt lat="45.461291224966075" lon="10.509192708936142"><ele>150.0</ele><time>2026-04-06T08:50:46.056Z</time></trkpt><trkpt lat="45.461418977004605" lon="10.5089811295868"><ele>150.0</ele><time>2026-04-06T08:50:47.056Z</time></trkpt><trkpt lat="45.4615468238915" lon="10.50877099067481"><ele>152.66666666666666</ele><time>2026-04-06T08:50:48.056Z</time></trkpt><trkpt lat="45.46168185501837" lon="10.508550541018058"><ele>155.33333333333331</ele><time>2026-04-06T08:50:49.056Z</time></trkpt><trkpt lat="45.461814239114204" lon="10.508331399022394"><ele>158.0</ele><time>2026-04-06T08:50:50.056Z</time></trkpt><trkpt lat="45.461942356586164" lon="10.508118247928362"><ele>158.0</ele><time>2026-04-06T08:50:51.056Z</time></trkpt><trkpt lat="45.462063390098486" lon="10.507919626854523"><ele>158.0</ele><time>2026-04-06T08:50:52.056Z</time></trkpt><trkpt lat="45.46217213893153" lon="10.507740943024373"><ele>158.0</ele><time>2026-04-06T08:50:53.056Z</time></trkpt><trkpt lat="45.462275848084154" lon="10.507572746645417"><ele>155.0</ele><time>2026-04-06T08:50:54.056Z</time></trkpt><trkpt lat="45.4623757589805" lon="10.507410833036134"><ele>152.0</ele><time>2026-04-06T08:50:55.056Z</time></trkpt><trkpt lat="45.462476497063996" lon="10.507248585516043"><ele>149.0</ele><time>2026-04-06T08:50:56.056Z</time></trkpt><trkpt lat="45.462578990611426" lon="10.507083661500904"><ele>149.0</ele><time>2026-04-06T08:50:57.056Z</time></trkpt><trkpt lat="45.462687849558016" lon="10.506908494876312"><ele>149.0</ele><time>2026-04-06T08:50:58.056Z</time></trkpt><trkpt lat="45.46278662026793" lon="10.506714267170222"><ele>149.0</ele><time>2026-04-06T08:50:59.056Z</time></trkpt><trkpt lat="45.46291150357618" lon="10.50654789334812"><ele>149.33333333333331</ele><time>2026-04-06T08:51:00.056Z</time></trkpt><trkpt lat="45.46301460186067" lon="10.50635155442037"><ele>149.66666666666666</ele><time>2026-04-06T08:51:01.056Z</time></trkpt><trkpt lat="45.463139951498256" lon="10.50616156371141"><ele>150.0</ele><time>2026-04-06T08:51:02.056Z</time></trkpt><trkpt lat="45.463265889383855" lon="10.505959893986473"><ele>150.0</ele><time>2026-04-06T08:51:03.056Z</time></trkpt><trkpt lat="45.463389091865686" lon="10.5057586886907"><ele>150.0</ele><time>2026-04-06T08:51:04.056Z</time></trkpt><trkpt lat="45.46351586251041" lon="10.505554244507564"><ele>150.0</ele><time>2026-04-06T08:51:05.056Z</time></trkpt><trkpt lat="45.463643045338976" lon="10.505355663877024"><ele>150.0</ele><time>2026-04-06T08:51:06.056Z</time></trkpt><trkpt lat="45.46376971280009" lon="10.505156963068208"><ele>150.0</ele><time>2026-04-06T08:51:07.056Z</time></trkpt><trkpt lat="45.46389071193339" lon="10.504963468022048"><ele>150.0</ele><time>2026-04-06T08:51:08.056Z</time></trkpt><trkpt lat="45.46400341042595" lon="10.50477548738271"><ele>149.33333333333334</ele><time>2026-04-06T08:51:09.056Z</time></trkpt><trkpt lat="45.464119297976545" lon="10.50459425144388"><ele>148.66666666666669</ele><time>2026-04-06T08:51:10.056Z</time></trkpt><trkpt lat="45.46423186118758" lon="10.504420692375158"><ele>148.0</ele><time>2026-04-06T08:51:11.056Z</time></trkpt><trkpt lat="45.4643434912496" lon="10.504247456962167"><ele>148.0</ele><time>2026-04-06T08:51:12.056Z</time></trkpt><trkpt lat="45.46445289329649" lon="10.504070191562096"><ele>148.0</ele><time>2026-04-06T08:51:13.056Z</time></trkpt><trkpt lat="45.46455975762956" lon="10.503908429824573"><ele>148.0</ele><time>2026-04-06T08:51:14.056Z</time></trkpt><trkpt lat="45.46466213330057" lon="10.503747959793536"><ele>146.33333333333334</ele><time>2026-04-06T08:51:15.056Z</time></trkpt><trkpt lat="45.464769396791525" lon="10.50356101254996"><ele>144.66666666666666</ele><time>2026-04-06T08:51:16.056Z</time></trkpt><trkpt lat="45.4648831729123" lon="10.50338277624481"><ele>143.0</ele><time>2026-04-06T08:51:17.056Z</time></trkpt><trkpt lat="45.464998039882786" lon="10.50321105331751"><ele>143.0</ele><time>2026-04-06T08:51:18.056Z</time></trkpt><trkpt lat="45.46511075484791" lon="10.503030342683406"><ele>143.0</ele><time>2026-04-06T08:51:19.056Z</time></trkpt><trkpt lat="45.46522175420528" lon="10.502850463038625"><ele>143.0</ele><time>2026-04-06T08:51:20.056Z</time></trkpt><trkpt lat="45.465336531689395" lon="10.502668401092393"><ele>142.33333333333331</ele><time>2026-04-06T08:51:21.056Z</time></trkpt><trkpt lat="45.4654527469629" lon="10.502488762414497"><ele>141.66666666666666</ele><time>2026-04-06T08:51:22.056Z</time></trkpt><trkpt lat="45.465567029826666" lon="10.502301320678518"><ele>141.0</ele><time>2026-04-06T08:51:23.056Z</time></trkpt><trkpt lat="45.46568552938483" lon="10.502113766020944"><ele>141.33333333333334</ele><time>2026-04-06T08:51:24.056Z</time></trkpt><trkpt lat="45.465804113785076" lon="10.501920038938477"><ele>141.66666666666669</ele><time>2026-04-06T08:51:25.056Z</time></trkpt><trkpt lat="45.46592187778055" lon="10.501718955964275"><ele>142.0</ele><time>2026-04-06T08:51:26.056Z</time></trkpt><trkpt lat="45.46603698905419" lon="10.501521211012548"><ele>142.0</ele><time>2026-04-06T08:51:27.056Z</time></trkpt><trkpt lat="45.46615026646633" lon="10.50131673622637"><ele>142.0</ele><time>2026-04-06T08:51:28.056Z</time></trkpt><trkpt lat="45.46626067537052" lon="10.501107372318122"><ele>142.0</ele><time>2026-04-06T08:51:29.056Z</time></trkpt><trkpt lat="45.46636548131384" lon="10.500890266324964"><ele>142.0</ele><time>2026-04-06T08:51:30.056Z</time></trkpt><trkpt lat="45.46646379329413" lon="10.500664348884458"><ele>142.0</ele><time>2026-04-06T08:51:31.056Z</time></trkpt><trkpt lat="45.46655654175146" lon="10.500433564495616"><ele>142.0</ele><time>2026-04-06T08:51:32.056Z</time></trkpt><trkpt lat="45.46664136700119" lon="10.500188745261816"><ele>141.66666666666669</ele><time>2026-04-06T08:51:33.056Z</time></trkpt><trkpt lat="45.46672242109578" lon="10.499948277100104"><ele>141.33333333333334</ele><time>2026-04-06T08:51:34.056Z</time></trkpt><trkpt lat="45.46680031795455" lon="10.499701482183655"><ele>141.0</ele><time>2026-04-06T08:51:35.056Z</time></trkpt><trkpt lat="45.46687983389045" lon="10.499453295423923"><ele>141.66666666666666</ele><time>2026-04-06T08:51:36.056Z</time></trkpt><trkpt lat="45.46696400923513" lon="10.499214589933848"><ele>142.33333333333331</ele><time>2026-04-06T08:51:37.056Z</time></trkpt><trkpt lat="45.46704323272842" lon="10.498980748155903"><ele>143.0</ele><time>2026-04-06T08:51:38.056Z</time></trkpt><trkpt lat="45.467116936911616" lon="10.498758921415329"><ele>143.66666666666666</ele><time>2026-04-06T08:51:39.056Z</time></trkpt><trkpt lat="45.46718651113674" lon="10.498545958320063"><ele>144.33333333333334</ele><time>2026-04-06T08:51:40.056Z</time></trkpt><trkpt lat="45.46725367990072" lon="10.498334997453735"><ele>145.0</ele><time>2026-04-06T08:51:41.056Z</time></trkpt><trkpt lat="45.46732323197162" lon="10.4981218036368"><ele>145.0</ele><time>2026-04-06T08:51:42.056Z</time></trkpt><trkpt lat="45.467394717545034" lon="10.497901021125804"><ele>145.0</ele><time>2026-04-06T08:51:43.056Z</time></trkpt><trkpt lat="45.467464400475826" lon="10.497682280415905"><ele>145.0</ele><time>2026-04-06T08:51:44.056Z</time></trkpt><trkpt lat="45.46753535726658" lon="10.497475625182922"><ele>145.0</ele><time>2026-04-06T08:51:45.056Z</time></trkpt><trkpt lat="45.467603544435235" lon="10.497270728818995"><ele>145.0</ele><time>2026-04-06T08:51:46.056Z</time></trkpt><trkpt lat="45.467671281423144" lon="10.497067287962933"><ele>145.0</ele><time>2026-04-06T08:51:47.056Z</time></trkpt><trkpt lat="45.467736990383216" lon="10.496858021282664"><ele>146.0</ele><time>2026-04-06T08:51:48.056Z</time></trkpt><trkpt lat="45.46780308463669" lon="10.496663365804602"><ele>147.0</ele><time>2026-04-06T08:51:49.056Z</time></trkpt><trkpt lat="45.46786829810385" lon="10.496445863102222"><ele>148.0</ele><time>2026-04-06T08:51:50.056Z</time></trkpt><trkpt lat="45.4679515969949" lon="10.496253763270474"><ele>146.33333333333334</ele><time>2026-04-06T08:51:51.056Z</time></trkpt><trkpt lat="45.46802170513553" lon="10.49605785958412"><ele>144.66666666666666</ele><time>2026-04-06T08:51:52.056Z</time></trkpt><trkpt lat="45.46808280690353" lon="10.495850489513902"><ele>143.0</ele><time>2026-04-06T08:51:53.056Z</time></trkpt><trkpt lat="45.46817722090342" lon="10.495651259920084"><ele>144.33333333333331</ele><time>2026-04-06T08:51:54.056Z</time></trkpt><trkpt lat="45.468289616285006" lon="10.495391850373094"><ele>145.66666666666666</ele><time>2026-04-06T08:51:55.056Z</time></trkpt><trkpt lat="45.468355550414316" lon="10.495253950995858"><ele>147.0</ele><time>2026-04-06T08:51:56.056Z</time></trkpt><trkpt lat="45.46843970982572" lon="10.495055903061727"><ele>147.0</ele><time>2026-04-06T08:51:57.056Z</time></trkpt><trkpt lat="45.4685447502077" lon="10.494870174877695"><ele>147.0</ele><time>2026-04-06T08:51:58.056Z</time></trkpt><trkpt lat="45.46864807851046" lon="10.494697857155593"><ele>147.0</ele><time>2026-04-06T08:51:59.056Z</time></trkpt><trkpt lat="45.46874644707197" lon="10.494543203131212"><ele>148.33333333333334</ele><time>2026-04-06T08:52:00.056Z</time></trkpt><trkpt lat="45.46885381271336" lon="10.494375680134583"><ele>149.66666666666669</ele><time>2026-04-06T08:52:01.056Z</time></trkpt><trkpt lat="45.468966435222264" lon="10.494210245748235"><ele>151.0</ele><time>2026-04-06T08:52:02.056Z</time></trkpt><trkpt lat="45.46909413508686" lon="10.494048082446453"><ele>151.0</ele><time>2026-04-06T08:52:03.056Z</time></trkpt><trkpt lat="45.46923082615843" lon="10.493857393076704"><ele>151.0</ele><time>2026-04-06T08:52:04.056Z</time></trkpt><trkpt lat="45.46932625086456" lon="10.493727350468737"><ele>151.0</ele><time>2026-04-06T08:52:05.056Z</time></trkpt><trkpt lat="45.46943945744067" lon="10.493551272495106"><ele>151.33333333333334</ele><time>2026-04-06T08:52:06.056Z</time></trkpt><trkpt lat="45.46956748729088" lon="10.493384031175365"><ele>151.66666666666666</ele><time>2026-04-06T08:52:07.056Z</time></trkpt><trkpt lat="45.46968993810745" lon="10.493222121868522"><ele>152.0</ele><time>2026-04-06T08:52:08.056Z</time></trkpt><trkpt lat="45.469807107036004" lon="10.493061057750392"><ele>151.66666666666666</ele><time>2026-04-06T08:52:09.056Z</time></trkpt><trkpt lat="45.46992302021697" lon="10.492901359556836"><ele>151.33333333333334</ele><time>2026-04-06T08:52:10.056Z</time></trkpt><trkpt lat="45.470038404530534" lon="10.4927413405667"><ele>151.0</ele><time>2026-04-06T08:52:11.056Z</time></trkpt><trkpt lat="45.47015571829261" lon="10.492581716349997"><ele>151.0</ele><time>2026-04-06T08:52:12.056Z</time></trkpt><trkpt lat="45.47026434463402" lon="10.492442190750086"><ele>151.0</ele><time>2026-04-06T08:52:13.056Z</time></trkpt><trkpt lat="45.47038157347569" lon="10.49231203848511"><ele>151.0</ele><time>2026-04-06T08:52:14.056Z</time></trkpt><trkpt lat="45.47049435455408" lon="10.492116896911567"><ele>151.25</ele><time>2026-04-06T08:52:15.056Z</time></trkpt><trkpt lat="45.470604373962125" lon="10.491967273837533"><ele>151.5</ele><time>2026-04-06T08:52:16.056Z</time></trkpt><trkpt lat="45.47070958736065" lon="10.491830231541643"><ele>151.75</ele><time>2026-04-06T08:52:17.056Z</time></trkpt><trkpt lat="45.470809910415205" lon="10.491702143230398"><ele>152.0</ele><time>2026-04-06T08:52:18.056Z</time></trkpt><trkpt lat="45.47090151223599" lon="10.491582113568072"><ele>152.0</ele><time>2026-04-06T08:52:19.056Z</time></trkpt><trkpt lat="45.47098742622206" lon="10.491462350259402"><ele>152.0</ele><time>2026-04-06T08:52:20.056Z</time></trkpt><trkpt lat="45.471075948601126" lon="10.491341799225193"><ele>152.0</ele><time>2026-04-06T08:52:21.056Z</time></trkpt><trkpt lat="45.471170422443485" lon="10.491207328539604"><ele>152.0</ele><time>2026-04-06T08:52:22.056Z</time></trkpt><trkpt lat="45.47126753724617" lon="10.491072484894381"><ele>152.5</ele><time>2026-04-06T08:52:23.056Z</time></trkpt><trkpt lat="45.47135963232" lon="10.490930843325966"><ele>153.0</ele><time>2026-04-06T08:52:24.056Z</time></trkpt><trkpt lat="45.47146538801557" lon="10.490802448105821"><ele>153.5</ele><time>2026-04-06T08:52:25.056Z</time></trkpt><trkpt lat="45.47156152468346" lon="10.49067082253209"><ele>154.0</ele><time>2026-04-06T08:52:26.072Z</time></trkpt><trkpt lat="45.47166267578988" lon="10.490532448043888"><ele>155.25</ele><time>2026-04-06T08:52:27.073Z</time></trkpt><trkpt lat="45.47177421335624" lon="10.490382019974136"><ele>156.5</ele><time>2026-04-06T08:52:28.072Z</time></trkpt><trkpt lat="45.471886900429574" lon="10.490227597150719"><ele>157.75</ele><time>2026-04-06T08:52:29.069Z</time></trkpt><trkpt lat="45.4719839458976" lon="10.49008680656518"><ele>159.0</ele><time>2026-04-06T08:52:30.073Z</time></trkpt><trkpt lat="45.47207496220203" lon="10.489950117747497"><ele>159.5</ele><time>2026-04-06T08:52:31.069Z</time></trkpt><trkpt lat="45.47216700492156" lon="10.489809575432874"><ele>160.0</ele><time>2026-04-06T08:52:32.071Z</time></trkpt><trkpt lat="45.472859346546976" lon="10.488126685077146"><ele>174.5</ele><time>2026-04-06T08:52:44.623Z</time></trkpt><trkpt lat="45.47306164321321" lon="10.487677776748571"><ele>189.0</ele><time>2026-04-06T08:52:49.706Z</time></trkpt><trkpt lat="45.47285159905231" lon="10.488430398870321"><ele>199.5</ele><time>2026-04-06T08:52:58.656Z</time></trkpt><trkpt lat="45.47302517748609" lon="10.487839295871357"><ele>210.0</ele><time>2026-04-06T08:52:59.656Z</time></trkpt><trkpt lat="45.47317579828655" lon="10.487236771217926"><ele>218.5</ele><time>2026-04-06T08:53:00.656Z</time></trkpt><trkpt lat="45.473306584833445" lon="10.486624142155"><ele>227.0</ele><time>2026-04-06T08:53:01.656Z</time></trkpt><trkpt lat="45.4733904501734" lon="10.485995354776362"><ele>232.0</ele><time>2026-04-06T08:53:02.656Z</time></trkpt><trkpt lat="45.473505970772344" lon="10.485377095545234"><ele>237.0</ele><time>2026-04-06T08:53:03.656Z</time></trkpt><trkpt lat="45.473590712634426" lon="10.484748318765135"><ele>236.0</ele><time>2026-04-06T08:53:04.657Z</time></trkpt><trkpt lat="45.47370616674598" lon="10.484130191056073"><ele>235.0</ele><time>2026-04-06T08:53:05.656Z</time></trkpt><trkpt lat="45.47380689663751" lon="10.483506948107852"><ele>229.0</ele><time>2026-04-06T08:53:06.656Z</time></trkpt><trkpt lat="45.473891312749075" lon="10.482878168532714"><ele>223.0</ele><time>2026-04-06T08:53:07.657Z</time></trkpt><trkpt lat="45.4739902573247" lon="10.482254693247727"><ele>220.5</ele><time>2026-04-06T08:53:08.656Z</time></trkpt><trkpt lat="45.4740176" lon="10.4820824"><ele>218.0</ele><time>2026-04-06T08:53:09.656Z</time></trkpt><trkpt lat="45.47470732596281" lon="10.470750974500989"><ele>202.0</ele><time>2026-04-06T08:54:22.056Z</time></trkpt><trkpt lat="45.47468509403669" lon="10.470537948347515"><ele>186.0</ele><time>2026-04-06T08:54:23.056Z</time></trkpt><trkpt lat="45.47462255601461" lon="10.47028494996778"><ele>170.0</ele><time>2026-04-06T08:54:24.056Z</time></trkpt><trkpt lat="45.47459672762522" lon="10.470057201079118"><ele>168.66666666666666</ele><time>2026-04-06T08:54:25.056Z</time></trkpt><trkpt lat="45.474574216531416" lon="10.46979510837811"><ele>167.33333333333334</ele><time>2026-04-06T08:54:26.056Z</time></trkpt><trkpt lat="45.474543338784905" lon="10.469518427712924"><ele>166.0</ele><time>2026-04-06T08:54:27.056Z</time></trkpt><trkpt lat="45.47451521984044" lon="10.469247670032416"><ele>165.33333333333334</ele><time>2026-04-06T08:54:28.057Z</time></trkpt><trkpt lat="45.474483672040876" lon="10.468956215580556"><ele>164.66666666666666</ele><time>2026-04-06T08:54:29.057Z</time></trkpt><trkpt lat="45.474442735224294" lon="10.468678174267325"><ele>164.0</ele><time>2026-04-06T08:54:30.057Z</time></trkpt><trkpt lat="45.47438891255427" lon="10.468369718693316"><ele>163.0</ele><time>2026-04-06T08:54:31.057Z</time></trkpt><trkpt lat="45.47432459770268" lon="10.468001131627432"><ele>162.0</ele><time>2026-04-06T08:54:32.057Z</time></trkpt><trkpt lat="45.47425804304586" lon="10.467637959060182"><ele>162.0</ele><time>2026-04-06T08:54:33.057Z</time></trkpt><trkpt lat="45.474452269479215" lon="10.468037668845996"><ele>162.0</ele><time>2026-04-06T08:54:34.057Z</time></trkpt><trkpt lat="45.47440878929951" lon="10.467641962509363"><ele>161.5</ele><time>2026-04-06T08:54:35.057Z</time></trkpt><trkpt lat="45.47436736098174" lon="10.467306342222818"><ele>161.0</ele><time>2026-04-06T08:54:36.057Z</time></trkpt><trkpt lat="45.47427813966301" lon="10.466999271809962"><ele>160.0</ele><time>2026-04-06T08:54:37.057Z</time></trkpt><trkpt lat="45.47417839835892" lon="10.466665965622495"><ele>159.0</ele><time>2026-04-06T08:54:38.057Z</time></trkpt><trkpt lat="45.47407702363943" lon="10.466326688627921"><ele>158.0</ele><time>2026-04-06T08:54:39.057Z</time></trkpt><trkpt lat="45.473976536517256" lon="10.465987059592985"><ele>157.0</ele><time>2026-04-06T08:54:40.057Z</time></trkpt><trkpt lat="45.47387058943051" lon="10.46562537633553"><ele>157.0</ele><time>2026-04-06T08:54:41.057Z</time></trkpt><trkpt lat="45.47375712057502" lon="10.465232057618694"><ele>157.0</ele><time>2026-04-06T08:54:42.057Z</time></trkpt><trkpt lat="45.47365654107091" lon="10.464834188615377"><ele>156.5</ele><time>2026-04-06T08:54:43.057Z</time></trkpt><trkpt lat="45.4735612446434" lon="10.464453295780169"><ele>156.0</ele><time>2026-04-06T08:54:44.057Z</time></trkpt><trkpt lat="45.473470831894126" lon="10.464089213624444"><ele>155.5</ele><time>2026-04-06T08:54:45.057Z</time></trkpt><trkpt lat="45.473371201447435" lon="10.463693559744433"><ele>155.0</ele><time>2026-04-06T08:54:46.057Z</time></trkpt><trkpt lat="45.473271664205924" lon="10.463300021650808"><ele>155.0</ele><time>2026-04-06T08:54:47.057Z</time></trkpt><trkpt lat="45.47318317486578" lon="10.462941487258304"><ele>155.0</ele><time>2026-04-06T08:54:48.057Z</time></trkpt><trkpt lat="45.47309619775337" lon="10.462594776916747"><ele>155.0</ele><time>2026-04-06T08:54:49.057Z</time></trkpt><trkpt lat="45.47300817814107" lon="10.462247710437179"><ele>155.0</ele><time>2026-04-06T08:54:50.057Z</time></trkpt><trkpt lat="45.472920281557045" lon="10.46190029262175"><ele>153.5</ele><time>2026-04-06T08:54:51.057Z</time></trkpt><trkpt lat="45.47284023897498" lon="10.461582048452836"><ele>152.0</ele><time>2026-04-06T08:54:52.057Z</time></trkpt><trkpt lat="45.47275883765803" lon="10.461256938624132"><ele>152.0</ele><time>2026-04-06T08:54:53.057Z</time></trkpt><trkpt lat="45.472682627751155" lon="10.460952562796974"><ele>152.0</ele><time>2026-04-06T08:54:54.057Z</time></trkpt><trkpt lat="45.47261135803719" lon="10.460655817286538"><ele>152.0</ele><time>2026-04-06T08:54:55.057Z</time></trkpt><trkpt lat="45.472527819645784" lon="10.460369314294647"><ele>152.0</ele><time>2026-04-06T08:54:56.057Z</time></trkpt><trkpt lat="45.472444937723985" lon="10.46008435724907"><ele>152.0</ele><time>2026-04-06T08:54:57.057Z</time></trkpt><trkpt lat="45.47236633309482" lon="10.45980282233934"><ele>152.0</ele><time>2026-04-06T08:54:58.057Z</time></trkpt><trkpt lat="45.47228794568973" lon="10.459520041919541"><ele>152.0</ele><time>2026-04-06T08:54:59.057Z</time></trkpt><trkpt lat="45.47221614584441" lon="10.459239510203645"><ele>152.0</ele><time>2026-04-06T08:55:00.057Z</time></trkpt><trkpt lat="45.47214456257385" lon="10.458950509413176"><ele>152.0</ele><time>2026-04-06T08:55:01.057Z</time></trkpt><trkpt lat="45.472088005371816" lon="10.45866039910203"><ele>151.33333333333331</ele><time>2026-04-06T08:55:02.057Z</time></trkpt><trkpt lat="45.47203571282996" lon="10.45837445054698"><ele>150.66666666666666</ele><time>2026-04-06T08:55:03.057Z</time></trkpt><trkpt lat="45.471986807582944" lon="10.458077526683825"><ele>150.0</ele><time>2026-04-06T08:55:04.057Z</time></trkpt><trkpt lat="45.47194718996332" lon="10.457781080483862"><ele>150.0</ele><time>2026-04-06T08:55:05.057Z</time></trkpt><trkpt lat="45.471909277922514" lon="10.457470062145477"><ele>150.0</ele><time>2026-04-06T08:55:06.057Z</time></trkpt><trkpt lat="45.471896370956536" lon="10.45717826207253"><ele>150.0</ele><time>2026-04-06T08:55:07.057Z</time></trkpt><trkpt lat="45.47187621552015" lon="10.456867416023778"><ele>149.66666666666666</ele><time>2026-04-06T08:55:08.057Z</time></trkpt><trkpt lat="45.47185970413708" lon="10.456558651056943"><ele>149.33333333333331</ele><time>2026-04-06T08:55:09.057Z</time></trkpt><trkpt lat="45.47185657194602" lon="10.456270095152425"><ele>149.0</ele><time>2026-04-06T08:55:10.057Z</time></trkpt><trkpt lat="45.47185972704669" lon="10.455964378111496"><ele>148.33333333333331</ele><time>2026-04-06T08:55:11.057Z</time></trkpt><trkpt lat="45.471872749148766" lon="10.455666068275253"><ele>147.66666666666666</ele><time>2026-04-06T08:55:12.057Z</time></trkpt><trkpt lat="45.47189242585333" lon="10.455371283410898"><ele>147.0</ele><time>2026-04-06T08:55:13.057Z</time></trkpt><trkpt lat="45.4719142377873" lon="10.455083406315824"><ele>147.0</ele><time>2026-04-06T08:55:14.057Z</time></trkpt><trkpt lat="45.471949939664654" lon="10.454797843573287"><ele>147.0</ele><time>2026-04-06T08:55:15.057Z</time></trkpt><trkpt lat="45.4719914530418" lon="10.454511659916468"><ele>147.0</ele><time>2026-04-06T08:55:16.057Z</time></trkpt><trkpt lat="45.47203869299855" lon="10.454224857567064"><ele>147.0</ele><time>2026-04-06T08:55:17.057Z</time></trkpt><trkpt lat="45.47209140098257" lon="10.453939383813003"><ele>147.0</ele><time>2026-04-06T08:55:18.057Z</time></trkpt><trkpt lat="45.47214925499675" lon="10.45366215453577"><ele>147.0</ele><time>2026-04-06T08:55:19.057Z</time></trkpt><trkpt lat="45.472208934093835" lon="10.453398865392236"><ele>147.0</ele><time>2026-04-06T08:55:20.057Z</time></trkpt><trkpt lat="45.4722748193873" lon="10.453129672584328"><ele>147.0</ele><time>2026-04-06T08:55:21.057Z</time></trkpt><trkpt lat="45.47234553498388" lon="10.45285432432945"><ele>147.0</ele><time>2026-04-06T08:55:22.057Z</time></trkpt><trkpt lat="45.472417010796406" lon="10.452571093159998"><ele>146.66666666666666</ele><time>2026-04-06T08:55:23.057Z</time></trkpt><trkpt lat="45.472493160736455" lon="10.452278193073132"><ele>146.33333333333331</ele><time>2026-04-06T08:55:24.057Z</time></trkpt><trkpt lat="45.472571725185034" lon="10.451986907399975"><ele>146.0</ele><time>2026-04-06T08:55:25.057Z</time></trkpt><trkpt lat="45.472651625039894" lon="10.451688613466228"><ele>146.0</ele><time>2026-04-06T08:55:26.057Z</time></trkpt><trkpt lat="45.472749092497615" lon="10.451387017232777"><ele>146.0</ele><time>2026-04-06T08:55:27.057Z</time></trkpt><trkpt lat="45.47283464430989" lon="10.451070849858722"><ele>146.0</ele><time>2026-04-06T08:55:28.057Z</time></trkpt><trkpt lat="45.47292341131595" lon="10.450742800304507"><ele>146.0</ele><time>2026-04-06T08:55:29.057Z</time></trkpt><trkpt lat="45.47301741240597" lon="10.450395405056149"><ele>145.5</ele><time>2026-04-06T08:55:30.057Z</time></trkpt><trkpt lat="45.47311673469235" lon="10.450028344522247"><ele>145.0</ele><time>2026-04-06T08:55:31.057Z</time></trkpt><trkpt lat="45.473198944660126" lon="10.449633279872211"><ele>145.5</ele><time>2026-04-06T08:55:32.057Z</time></trkpt><trkpt lat="45.47330656503811" lon="10.44923991852124"><ele>146.0</ele><time>2026-04-06T08:55:33.057Z</time></trkpt><trkpt lat="45.473405837575925" lon="10.448863336489309"><ele>146.0</ele><time>2026-04-06T08:55:34.057Z</time></trkpt><trkpt lat="45.47349999618639" lon="10.448518468670045"><ele>146.0</ele><time>2026-04-06T08:55:35.057Z</time></trkpt><trkpt lat="45.47359476747946" lon="10.448167862667104"><ele>145.5</ele><time>2026-04-06T08:55:36.057Z</time></trkpt><trkpt lat="45.47369063553455" lon="10.447816831138876"><ele>145.0</ele><time>2026-04-06T08:55:37.057Z</time></trkpt><trkpt lat="45.473786356974244" lon="10.447462783777626"><ele>144.0</ele><time>2026-04-06T08:55:38.057Z</time></trkpt><trkpt lat="45.473881254831454" lon="10.44711607722821"><ele>143.0</ele><time>2026-04-06T08:55:39.057Z</time></trkpt><trkpt lat="45.47397442798619" lon="10.446779045263163"><ele>143.0</ele><time>2026-04-06T08:55:40.057Z</time></trkpt><trkpt lat="45.474065212164746" lon="10.44644176284313"><ele>143.0</ele><time>2026-04-06T08:55:41.057Z</time></trkpt><trkpt lat="45.47415758416984" lon="10.446095502852032"><ele>143.0</ele><time>2026-04-06T08:55:42.057Z</time></trkpt><trkpt lat="45.474250564913966" lon="10.445750368122686"><ele>143.0</ele><time>2026-04-06T08:55:43.057Z</time></trkpt><trkpt lat="45.474341995189434" lon="10.445397936082406"><ele>143.0</ele><time>2026-04-06T08:55:44.057Z</time></trkpt><trkpt lat="45.474435160786406" lon="10.445048040215484"><ele>143.0</ele><time>2026-04-06T08:55:45.057Z</time></trkpt><trkpt lat="45.47452709021864" lon="10.44470389728734"><ele>142.5</ele><time>2026-04-06T08:55:46.057Z</time></trkpt><trkpt lat="45.47461759393246" lon="10.444368593172918"><ele>142.0</ele><time>2026-04-06T08:55:47.057Z</time></trkpt><trkpt lat="45.47470065605532" lon="10.444057850544052"><ele>143.0</ele><time>2026-04-06T08:55:48.057Z</time></trkpt><trkpt lat="45.47478865376787" lon="10.44374014787507"><ele>144.0</ele><time>2026-04-06T08:55:49.057Z</time></trkpt><trkpt lat="45.47487474361177" lon="10.443420102290222"><ele>144.0</ele><time>2026-04-06T08:55:50.057Z</time></trkpt><trkpt lat="45.47495678312283" lon="10.443109048396446"><ele>144.0</ele><time>2026-04-06T08:55:51.057Z</time></trkpt><trkpt lat="45.47504085538777" lon="10.44280660742008"><ele>144.0</ele><time>2026-04-06T08:55:52.057Z</time></trkpt><trkpt lat="45.47512409275876" lon="10.442505642688882"><ele>144.0</ele><time>2026-04-06T08:55:53.057Z</time></trkpt><trkpt lat="45.475205644876176" lon="10.442205794051036"><ele>143.5</ele><time>2026-04-06T08:55:54.057Z</time></trkpt><trkpt lat="45.4752896609794" lon="10.441903279568448"><ele>143.0</ele><time>2026-04-06T08:55:55.057Z</time></trkpt><trkpt lat="45.475363725327746" lon="10.441596921232426"><ele>143.5</ele><time>2026-04-06T08:55:56.057Z</time></trkpt><trkpt lat="45.47544681337865" lon="10.441289892743502"><ele>144.0</ele><time>2026-04-06T08:55:57.057Z</time></trkpt><trkpt lat="45.475530112969544" lon="10.440983433039289"><ele>144.0</ele><time>2026-04-06T08:55:58.057Z</time></trkpt><trkpt lat="45.47561833599013" lon="10.440686072201984"><ele>144.0</ele><time>2026-04-06T08:55:59.057Z</time></trkpt><trkpt lat="45.475700431873264" lon="10.440373496105082"><ele>143.0</ele><time>2026-04-06T08:56:00.057Z</time></trkpt><trkpt lat="45.47578618805376" lon="10.440062848706516"><ele>142.0</ele><time>2026-04-06T08:56:01.057Z</time></trkpt><trkpt lat="45.47587703231947" lon="10.439760276180436"><ele>141.5</ele><time>2026-04-06T08:56:02.057Z</time></trkpt><trkpt lat="45.47596801850068" lon="10.439453902511643"><ele>141.0</ele><time>2026-04-06T08:56:03.057Z</time></trkpt><trkpt lat="45.47606039254322" lon="10.439149316662439"><ele>141.0</ele><time>2026-04-06T08:56:04.057Z</time></trkpt><trkpt lat="45.47615373745792" lon="10.438842501072987"><ele>141.0</ele><time>2026-04-06T08:56:05.057Z</time></trkpt><trkpt lat="45.47624614382814" lon="10.438537031885955"><ele>142.0</ele><time>2026-04-06T08:56:06.057Z</time></trkpt><trkpt lat="45.4763402839001" lon="10.438231082373438"><ele>143.0</ele><time>2026-04-06T08:56:07.057Z</time></trkpt><trkpt lat="45.47643744721409" lon="10.437921657673012"><ele>143.0</ele><time>2026-04-06T08:56:08.057Z</time></trkpt><trkpt lat="45.47653243636092" lon="10.43760869744753"><ele>143.0</ele><time>2026-04-06T08:56:09.057Z</time></trkpt><trkpt lat="45.47662658364355" lon="10.437300723086848"><ele>143.0</ele><time>2026-04-06T08:56:10.057Z</time></trkpt><trkpt lat="45.47672088300278" lon="10.43697829365437"><ele>143.0</ele><time>2026-04-06T08:56:11.057Z</time></trkpt><trkpt lat="45.476820851343085" lon="10.436641522421144"><ele>143.0</ele><time>2026-04-06T08:56:12.057Z</time></trkpt><trkpt lat="45.47692178302455" lon="10.436300774493999"><ele>143.0</ele><time>2026-04-06T08:56:13.057Z</time></trkpt><trkpt lat="45.47702633197064" lon="10.435973022438084"><ele>143.0</ele><time>2026-04-06T08:56:14.057Z</time></trkpt><trkpt lat="45.477125020626595" lon="10.435651317423849"><ele>143.0</ele><time>2026-04-06T08:56:15.057Z</time></trkpt><trkpt lat="45.47720830372882" lon="10.43534858182298"><ele>143.5</ele><time>2026-04-06T08:56:16.057Z</time></trkpt><trkpt lat="45.47730687583957" lon="10.435055470377591"><ele>144.0</ele><time>2026-04-06T08:56:17.057Z</time></trkpt><trkpt lat="45.477403363487134" lon="10.434757120686077"><ele>143.5</ele><time>2026-04-06T08:56:18.057Z</time></trkpt><trkpt lat="45.47748695949041" lon="10.434455902893754"><ele>143.0</ele><time>2026-04-06T08:56:19.057Z</time></trkpt><trkpt lat="45.47758698167665" lon="10.434165623919066"><ele>143.0</ele><time>2026-04-06T08:56:20.057Z</time></trkpt><trkpt lat="45.47766774942503" lon="10.433868912090961"><ele>143.0</ele><time>2026-04-06T08:56:21.057Z</time></trkpt><trkpt lat="45.47775806903631" lon="10.433572416965617"><ele>142.5</ele><time>2026-04-06T08:56:22.057Z</time></trkpt><trkpt lat="45.47785483158988" lon="10.43328005567575"><ele>142.0</ele><time>2026-04-06T08:56:23.057Z</time></trkpt><trkpt lat="45.47794094319159" lon="10.432981030176725"><ele>141.0</ele><time>2026-04-06T08:56:24.057Z</time></trkpt><trkpt lat="45.478033423626016" lon="10.432682569175238"><ele>140.0</ele><time>2026-04-06T08:56:25.057Z</time></trkpt><trkpt lat="45.478128552116274" lon="10.432395934802042"><ele>140.33333333333331</ele><time>2026-04-06T08:56:26.057Z</time></trkpt><trkpt lat="45.47821341796759" lon="10.432112742645346"><ele>140.66666666666666</ele><time>2026-04-06T08:56:27.057Z</time></trkpt><trkpt lat="45.478299196666434" lon="10.431827153247283"><ele>141.0</ele><time>2026-04-06T08:56:28.057Z</time></trkpt><trkpt lat="45.47838752887672" lon="10.431539340105711"><ele>141.33333333333334</ele><time>2026-04-06T08:56:29.057Z</time></trkpt><trkpt lat="45.47847656487096" lon="10.431252649839625"><ele>141.66666666666669</ele><time>2026-04-06T08:56:30.057Z</time></trkpt><trkpt lat="45.47857152501307" lon="10.430956735244813"><ele>142.0</ele><time>2026-04-06T08:56:31.057Z</time></trkpt><trkpt lat="45.47866577606678" lon="10.43065561273098"><ele>141.5</ele><time>2026-04-06T08:56:32.057Z</time></trkpt><trkpt lat="45.47876343810989" lon="10.430331255229447"><ele>141.0</ele><time>2026-04-06T08:56:33.058Z</time></trkpt><trkpt lat="45.47886465572653" lon="10.429996135840481"><ele>141.0</ele><time>2026-04-06T08:56:34.058Z</time></trkpt><trkpt lat="45.4789692974416" lon="10.429658435402482"><ele>141.0</ele><time>2026-04-06T08:56:35.058Z</time></trkpt><trkpt lat="45.47907691212165" lon="10.429296438544688"><ele>141.5</ele><time>2026-04-06T08:56:36.058Z</time></trkpt><trkpt lat="45.47920479089335" lon="10.42894575860518"><ele>142.0</ele><time>2026-04-06T08:56:37.058Z</time></trkpt><trkpt lat="45.479307148096304" lon="10.42861253026528"><ele>142.5</ele><time>2026-04-06T08:56:38.058Z</time></trkpt><trkpt lat="45.47940424699071" lon="10.42829556927999"><ele>143.0</ele><time>2026-04-06T08:56:39.058Z</time></trkpt><trkpt lat="45.4794976473215" lon="10.427960484323117"><ele>142.5</ele><time>2026-04-06T08:56:40.058Z</time></trkpt><trkpt lat="45.47958747635289" lon="10.427654470556552"><ele>142.0</ele><time>2026-04-06T08:56:41.058Z</time></trkpt><trkpt lat="45.4796822221138" lon="10.427354071226258"><ele>142.0</ele><time>2026-04-06T08:56:42.058Z</time></trkpt><trkpt lat="45.47977499229717" lon="10.427050874033501"><ele>142.0</ele><time>2026-04-06T08:56:43.058Z</time></trkpt><trkpt lat="45.479873477240524" lon="10.426736554712232"><ele>142.0</ele><time>2026-04-06T08:56:44.058Z</time></trkpt><trkpt lat="45.47997567224087" lon="10.426398845576719"><ele>142.0</ele><time>2026-04-06T08:56:45.058Z</time></trkpt><trkpt lat="45.48007424986382" lon="10.426052699724437"><ele>143.0</ele><time>2026-04-06T08:56:46.058Z</time></trkpt><trkpt lat="45.480196430846696" lon="10.425716261588876"><ele>144.0</ele><time>2026-04-06T08:56:47.058Z</time></trkpt><trkpt lat="45.48030795085756" lon="10.425358721345535"><ele>145.0</ele><time>2026-04-06T08:56:48.058Z</time></trkpt><trkpt lat="45.48041981684398" lon="10.424994483554592"><ele>146.0</ele><time>2026-04-06T08:56:49.058Z</time></trkpt><trkpt lat="45.48053166259252" lon="10.42459977162634"><ele>147.0</ele><time>2026-04-06T08:56:50.058Z</time></trkpt><trkpt lat="45.48065200015242" lon="10.424209920906874"><ele>148.0</ele><time>2026-04-06T08:56:51.058Z</time></trkpt><trkpt lat="45.480758368074504" lon="10.423852962751116"><ele>148.0</ele><time>2026-04-06T08:56:52.058Z</time></trkpt><trkpt lat="45.48085782182161" lon="10.42352280856866"><ele>148.0</ele><time>2026-04-06T08:56:53.058Z</time></trkpt><trkpt lat="45.480952716998004" lon="10.423206135012569"><ele>148.5</ele><time>2026-04-06T08:56:54.058Z</time></trkpt><trkpt lat="45.48104198409153" lon="10.422887352735673"><ele>149.0</ele><time>2026-04-06T08:56:55.058Z</time></trkpt><trkpt lat="45.48111492271183" lon="10.42253645881445"><ele>149.0</ele><time>2026-04-06T08:56:56.058Z</time></trkpt><trkpt lat="45.48119422084908" lon="10.422240918389425"><ele>149.0</ele><time>2026-04-06T08:56:57.058Z</time></trkpt><trkpt lat="45.481252846524185" lon="10.421913195227193"><ele>150.0</ele><time>2026-04-06T08:56:58.058Z</time></trkpt><trkpt lat="45.481306969331484" lon="10.421575764335254"><ele>151.0</ele><time>2026-04-06T08:56:59.058Z</time></trkpt><trkpt lat="45.4813647049186" lon="10.421233187787951"><ele>152.5</ele><time>2026-04-06T08:57:00.058Z</time></trkpt><trkpt lat="45.48139766535636" lon="10.420934859657544"><ele>154.0</ele><time>2026-04-06T08:57:01.058Z</time></trkpt><trkpt lat="45.48144825720162" lon="10.420600227806188"><ele>155.5</ele><time>2026-04-06T08:57:02.058Z</time></trkpt><trkpt lat="45.48149481930958" lon="10.420278382065208"><ele>157.0</ele><time>2026-04-06T08:57:03.075Z</time></trkpt><trkpt lat="45.4815424108701" lon="10.419965752642902"><ele>157.0</ele><time>2026-04-06T08:57:04.074Z</time></trkpt><trkpt lat="45.48159354626838" lon="10.419668445469501"><ele>157.0</ele><time>2026-04-06T08:57:05.07Z</time></trkpt><trkpt lat="45.48161411191169" lon="10.419375851513141"><ele>157.0</ele><time>2026-04-06T08:57:06.07Z</time></trkpt><trkpt lat="45.48161828955293" lon="10.41907411248298"><ele>155.0</ele><time>2026-04-06T08:57:07.073Z</time></trkpt><trkpt lat="45.48181580498757" lon="10.415280295976789"><ele>156.0</ele><time>2026-04-06T08:57:19.338Z</time></trkpt><trkpt lat="45.48150709704552" lon="10.418661534862052"><ele>156.0</ele><time>2026-04-06T08:57:31.656Z</time></trkpt><trkpt lat="45.481502271781636" lon="10.418020711093234"><ele>156.0</ele><time>2026-04-06T08:57:32.656Z</time></trkpt><trkpt lat="45.48143870250581" lon="10.417386933300024"><ele>155.5</ele><time>2026-04-06T08:57:33.656Z</time></trkpt><trkpt lat="45.48138189147941" lon="10.41675111105191"><ele>155.0</ele><time>2026-04-06T08:57:34.657Z</time></trkpt><trkpt lat="45.48128155452183" lon="10.416127477096456"><ele>154.5</ele><time>2026-04-06T08:57:35.656Z</time></trkpt><trkpt lat="45.48119027040868" lon="10.415501545818831"><ele>154.0</ele><time>2026-04-06T08:57:36.656Z</time></trkpt><trkpt lat="45.48109780265198" lon="10.41487503476669"><ele>153.0</ele><time>2026-04-06T08:57:37.657Z</time></trkpt><trkpt lat="45.48102185932617" lon="10.414244804082829"><ele>152.0</ele><time>2026-04-06T08:57:38.656Z</time></trkpt><trkpt lat="45.48091258202025" lon="10.41362351904937"><ele>151.5</ele><time>2026-04-06T08:57:39.657Z</time></trkpt><trkpt lat="45.48081929391494" lon="10.412998335594125"><ele>151.0</ele><time>2026-04-06T08:57:40.656Z</time></trkpt><trkpt lat="45.480725957268675" lon="10.412372826834789"><ele>150.0</ele><time>2026-04-06T08:57:41.656Z</time></trkpt><trkpt lat="45.48063139019112" lon="10.411747590072407"><ele>149.0</ele><time>2026-04-06T08:57:42.656Z</time></trkpt><trkpt lat="45.48009127382699" lon="10.405426360676442"><ele>144.0</ele><time>2026-04-06T08:57:53.058Z</time></trkpt><trkpt lat="45.480105431155614" lon="10.405153530387096"><ele>139.0</ele><time>2026-04-06T08:57:54.058Z</time></trkpt><trkpt lat="45.48011852095384" lon="10.40490023301235"><ele>134.0</ele><time>2026-04-06T08:57:55.058Z</time></trkpt><trkpt lat="45.480131017898735" lon="10.404683325979288"><ele>134.33333333333331</ele><time>2026-04-06T08:57:56.058Z</time></trkpt><trkpt lat="45.480162888280866" lon="10.40445943859025"><ele>134.66666666666666</ele><time>2026-04-06T08:57:57.058Z</time></trkpt><trkpt lat="45.48020370919495" lon="10.404216338995345"><ele>135.0</ele><time>2026-04-06T08:57:58.058Z</time></trkpt><trkpt lat="45.48024679191349" lon="10.403981066343754"><ele>135.0</ele><time>2026-04-06T08:57:59.058Z</time></trkpt><trkpt lat="45.48030518963209" lon="10.403719531259764"><ele>135.0</ele><time>2026-04-06T08:58:00.058Z</time></trkpt><trkpt lat="45.480356012913035" lon="10.403465087510103"><ele>135.0</ele><time>2026-04-06T08:58:01.058Z</time></trkpt><trkpt lat="45.48041448611005" lon="10.403203653612952"><ele>135.66666666666666</ele><time>2026-04-06T08:58:02.058Z</time></trkpt><trkpt lat="45.480478420894" lon="10.402935743353321"><ele>136.33333333333331</ele><time>2026-04-06T08:58:03.058Z</time></trkpt><trkpt lat="45.48054966619867" lon="10.402664913185834"><ele>137.0</ele><time>2026-04-06T08:58:04.058Z</time></trkpt><trkpt lat="45.48061659938844" lon="10.402372352558539"><ele>137.0</ele><time>2026-04-06T08:58:05.058Z</time></trkpt><trkpt lat="45.480692661894125" lon="10.402076149306827"><ele>137.0</ele><time>2026-04-06T08:58:06.058Z</time></trkpt><trkpt lat="45.48077787137032" lon="10.40173706330029"><ele>137.0</ele><time>2026-04-06T08:58:07.058Z</time></trkpt><trkpt lat="45.480871574289324" lon="10.401369535388305"><ele>137.0</ele><time>2026-04-06T08:58:08.058Z</time></trkpt><trkpt lat="45.48095254458914" lon="10.40105010199333"><ele>136.66666666666666</ele><time>2026-04-06T08:58:09.058Z</time></trkpt><trkpt lat="45.48103013734361" lon="10.400764670084357"><ele>136.33333333333334</ele><time>2026-04-06T08:58:10.058Z</time></trkpt><trkpt lat="45.48110596461337" lon="10.400462294527316"><ele>136.0</ele><time>2026-04-06T08:58:11.058Z</time></trkpt><trkpt lat="45.48118505042995" lon="10.400145357406817"><ele>135.5</ele><time>2026-04-06T08:58:12.058Z</time></trkpt><trkpt lat="45.48126802822469" lon="10.399825019478552"><ele>135.0</ele><time>2026-04-06T08:58:13.058Z</time></trkpt><trkpt lat="45.481350048925655" lon="10.399504095612182"><ele>135.0</ele><time>2026-04-06T08:58:14.058Z</time></trkpt><trkpt lat="45.48142717561932" lon="10.399188381926221"><ele>135.0</ele><time>2026-04-06T08:58:15.058Z</time></trkpt><trkpt lat="45.48150716477874" lon="10.398881152306064"><ele>135.0</ele><time>2026-04-06T08:58:16.058Z</time></trkpt><trkpt lat="45.48158009399502" lon="10.398586300075348"><ele>135.0</ele><time>2026-04-06T08:58:17.058Z</time></trkpt><trkpt lat="45.48164563747665" lon="10.398315709219526"><ele>135.0</ele><time>2026-04-06T08:58:18.058Z</time></trkpt><trkpt lat="45.481720241333015" lon="10.398024089925565"><ele>135.0</ele><time>2026-04-06T08:58:19.058Z</time></trkpt><trkpt lat="45.48179109184849" lon="10.397746980314324"><ele>135.0</ele><time>2026-04-06T08:58:20.058Z</time></trkpt><trkpt lat="45.48185067432601" lon="10.397461545555634"><ele>135.0</ele><time>2026-04-06T08:58:21.058Z</time></trkpt><trkpt lat="45.48192164035906" lon="10.397167655544148"><ele>135.0</ele><time>2026-04-06T08:58:22.058Z</time></trkpt><trkpt lat="45.48200052450876" lon="10.396876312462298"><ele>135.0</ele><time>2026-04-06T08:58:23.058Z</time></trkpt><trkpt lat="45.48208242780902" lon="10.396562517871653"><ele>135.5</ele><time>2026-04-06T08:58:24.058Z</time></trkpt><trkpt lat="45.48216538210385" lon="10.396254097147601"><ele>136.0</ele><time>2026-04-06T08:58:25.058Z</time></trkpt><trkpt lat="45.482240096763874" lon="10.395944183258084"><ele>136.0</ele><time>2026-04-06T08:58:26.058Z</time></trkpt><trkpt lat="45.48232201603867" lon="10.395644864647307"><ele>136.0</ele><time>2026-04-06T08:58:27.058Z</time></trkpt><trkpt lat="45.48239692908326" lon="10.39534555191916"><ele>136.0</ele><time>2026-04-06T08:58:28.058Z</time></trkpt><trkpt lat="45.4824696716" lon="10.395044488174905"><ele>136.5</ele><time>2026-04-06T08:58:29.058Z</time></trkpt><trkpt lat="45.48255782812838" lon="10.394731388012696"><ele>137.0</ele><time>2026-04-06T08:58:30.058Z</time></trkpt><trkpt lat="45.48263271991078" lon="10.394423611289145"><ele>137.5</ele><time>2026-04-06T08:58:31.058Z</time></trkpt><trkpt lat="45.482709769037605" lon="10.39411949101469"><ele>138.0</ele><time>2026-04-06T08:58:32.058Z</time></trkpt><trkpt lat="45.482784650264726" lon="10.39381915966424"><ele>139.33333333333334</ele><time>2026-04-06T08:58:33.058Z</time></trkpt><trkpt lat="45.482858179181186" lon="10.393531349141702"><ele>140.66666666666669</ele><time>2026-04-06T08:58:34.058Z</time></trkpt><trkpt lat="45.48293230877338" lon="10.393236188907595"><ele>142.0</ele><time>2026-04-06T08:58:35.058Z</time></trkpt><trkpt lat="45.483007154465696" lon="10.392957401956778"><ele>142.0</ele><time>2026-04-06T08:58:36.058Z</time></trkpt><trkpt lat="45.483081810620035" lon="10.392669942336134"><ele>142.0</ele><time>2026-04-06T08:58:37.058Z</time></trkpt><trkpt lat="45.48317953208282" lon="10.392408415739782"><ele>142.0</ele><time>2026-04-06T08:58:38.058Z</time></trkpt><trkpt lat="45.4832482511642" lon="10.392111008579574"><ele>142.0</ele><time>2026-04-06T08:58:39.058Z</time></trkpt><trkpt lat="45.483316006207026" lon="10.391822093786725"><ele>142.0</ele><time>2026-04-06T08:58:40.058Z</time></trkpt><trkpt lat="45.48338928065" lon="10.391531109754556"><ele>142.0</ele><time>2026-04-06T08:58:41.058Z</time></trkpt><trkpt lat="45.48346520252968" lon="10.391237875936065"><ele>141.5</ele><time>2026-04-06T08:58:42.059Z</time></trkpt><trkpt lat="45.48354720398331" lon="10.390935785848159"><ele>141.0</ele><time>2026-04-06T08:58:43.059Z</time></trkpt><trkpt lat="45.48363691247105" lon="10.390608979218264"><ele>142.5</ele><time>2026-04-06T08:58:44.059Z</time></trkpt><trkpt lat="45.483728100261054" lon="10.39026711123961"><ele>144.0</ele><time>2026-04-06T08:58:45.059Z</time></trkpt><trkpt lat="45.48382558063808" lon="10.389913516470704"><ele>145.0</ele><time>2026-04-06T08:58:46.059Z</time></trkpt><trkpt lat="45.48392784291188" lon="10.389551780891262"><ele>146.0</ele><time>2026-04-06T08:58:47.059Z</time></trkpt><trkpt lat="45.484031395758734" lon="10.389179920501489"><ele>144.5</ele><time>2026-04-06T08:58:48.059Z</time></trkpt><trkpt lat="45.48413219553338" lon="10.388813168728277"><ele>143.0</ele><time>2026-04-06T08:58:49.059Z</time></trkpt><trkpt lat="45.484235649400546" lon="10.388451408204881"><ele>143.0</ele><time>2026-04-06T08:58:50.059Z</time></trkpt><trkpt lat="45.48433013191709" lon="10.388108126983598"><ele>143.0</ele><time>2026-04-06T08:58:51.059Z</time></trkpt><trkpt lat="45.484443164071656" lon="10.387752949405812"><ele>143.0</ele><time>2026-04-06T08:58:52.059Z</time></trkpt><trkpt lat="45.484547855186385" lon="10.387379034033247"><ele>143.0</ele><time>2026-04-06T08:58:53.059Z</time></trkpt><trkpt lat="45.4846431338369" lon="10.386980478194237"><ele>143.0</ele><time>2026-04-06T08:58:54.059Z</time></trkpt><trkpt lat="45.484756918597654" lon="10.386582234973755"><ele>143.0</ele><time>2026-04-06T08:58:55.059Z</time></trkpt><trkpt lat="45.48487795668726" lon="10.386204858988421"><ele>143.5</ele><time>2026-04-06T08:58:56.059Z</time></trkpt><trkpt lat="45.48496081580569" lon="10.385851213310772"><ele>144.0</ele><time>2026-04-06T08:58:57.059Z</time></trkpt><trkpt lat="45.48505590741665" lon="10.385530907165593"><ele>144.0</ele><time>2026-04-06T08:58:58.059Z</time></trkpt><trkpt lat="45.48514695956119" lon="10.38520879080724"><ele>144.0</ele><time>2026-04-06T08:58:59.059Z</time></trkpt><trkpt lat="45.48523571486476" lon="10.38487405499072"><ele>144.5</ele><time>2026-04-06T08:59:00.059Z</time></trkpt><trkpt lat="45.48531566786216" lon="10.384518425153502"><ele>145.0</ele><time>2026-04-06T08:59:01.059Z</time></trkpt><trkpt lat="45.48538288589146" lon="10.384154814656963"><ele>144.5</ele><time>2026-04-06T08:59:02.059Z</time></trkpt><trkpt lat="45.48544261901047" lon="10.383778687006743"><ele>144.0</ele><time>2026-04-06T08:59:03.059Z</time></trkpt><trkpt lat="45.48549667897391" lon="10.383399298278238"><ele>144.0</ele><time>2026-04-06T08:59:04.059Z</time></trkpt><trkpt lat="45.485540980327265" lon="10.383021497699454"><ele>144.0</ele><time>2026-04-06T08:59:05.059Z</time></trkpt><trkpt lat="45.48557537816578" lon="10.382645530876383"><ele>144.5</ele><time>2026-04-06T08:59:06.059Z</time></trkpt><trkpt lat="45.48559737081161" lon="10.38226101832472"><ele>145.0</ele><time>2026-04-06T08:59:07.059Z</time></trkpt><trkpt lat="45.485605921413615" lon="10.381882559207751"><ele>145.0</ele><time>2026-04-06T08:59:08.059Z</time></trkpt><trkpt lat="45.485636913748955" lon="10.381504269428925"><ele>145.0</ele><time>2026-04-06T08:59:09.059Z</time></trkpt><trkpt lat="45.48565326571507" lon="10.381134492075837"><ele>144.5</ele><time>2026-04-06T08:59:10.059Z</time></trkpt><trkpt lat="45.48559831182998" lon="10.380787361576113"><ele>144.0</ele><time>2026-04-06T08:59:11.059Z</time></trkpt><trkpt lat="45.48557484640393" lon="10.380423355599085"><ele>144.0</ele><time>2026-04-06T08:59:12.059Z</time></trkpt><trkpt lat="45.48553497009357" lon="10.380048989907586"><ele>144.0</ele><time>2026-04-06T08:59:13.059Z</time></trkpt><trkpt lat="45.48548372156391" lon="10.379660742847209"><ele>143.5</ele><time>2026-04-06T08:59:14.059Z</time></trkpt><trkpt lat="45.48542894911037" lon="10.3792839963708"><ele>143.0</ele><time>2026-04-06T08:59:15.059Z</time></trkpt><trkpt lat="45.485371725895256" lon="10.378944454405138"><ele>144.5</ele><time>2026-04-06T08:59:16.059Z</time></trkpt><trkpt lat="45.48530349161765" lon="10.378616976038229"><ele>146.0</ele><time>2026-04-06T08:59:17.059Z</time></trkpt><trkpt lat="45.48522584507178" lon="10.37828651362103"><ele>145.5</ele><time>2026-04-06T08:59:18.059Z</time></trkpt><trkpt lat="45.48514664893978" lon="10.377965038910421"><ele>145.0</ele><time>2026-04-06T08:59:19.059Z</time></trkpt><trkpt lat="45.485058950696605" lon="10.377631112193656"><ele>145.0</ele><time>2026-04-06T08:59:20.059Z</time></trkpt><trkpt lat="45.48496477306445" lon="10.377305969760487"><ele>145.0</ele><time>2026-04-06T08:59:21.059Z</time></trkpt><trkpt lat="45.484865702500336" lon="10.376987530748883"><ele>144.0</ele><time>2026-04-06T08:59:22.059Z</time></trkpt><trkpt lat="45.48476633963642" lon="10.37669413947336"><ele>143.0</ele><time>2026-04-06T08:59:23.059Z</time></trkpt><trkpt lat="45.484669400964535" lon="10.376403107065245"><ele>143.5</ele><time>2026-04-06T08:59:24.059Z</time></trkpt><trkpt lat="45.484569220276484" lon="10.376109311315568"><ele>144.0</ele><time>2026-04-06T08:59:25.059Z</time></trkpt><trkpt lat="45.4844706224405" lon="10.375814302412069"><ele>144.0</ele><time>2026-04-06T08:59:26.059Z</time></trkpt><trkpt lat="45.48437740140832" lon="10.375523294894958"><ele>144.0</ele><time>2026-04-06T08:59:27.059Z</time></trkpt><trkpt lat="45.48427514158633" lon="10.375221967624396"><ele>144.0</ele><time>2026-04-06T08:59:28.059Z</time></trkpt><trkpt lat="45.48417247430316" lon="10.374917347029028"><ele>144.0</ele><time>2026-04-06T08:59:29.059Z</time></trkpt><trkpt lat="45.48406952011495" lon="10.374602560287984"><ele>144.0</ele><time>2026-04-06T08:59:30.059Z</time></trkpt><trkpt lat="45.48396706653834" lon="10.374286118543061"><ele>144.0</ele><time>2026-04-06T08:59:31.059Z</time></trkpt><trkpt lat="45.483861658714495" lon="10.37397841615224"><ele>144.0</ele><time>2026-04-06T08:59:32.059Z</time></trkpt><trkpt lat="45.483757642398" lon="10.373666204707565"><ele>144.0</ele><time>2026-04-06T08:59:33.059Z</time></trkpt><trkpt lat="45.48365255477178" lon="10.373352617750559"><ele>144.0</ele><time>2026-04-06T08:59:34.059Z</time></trkpt><trkpt lat="45.48354861813657" lon="10.373043825034443"><ele>144.0</ele><time>2026-04-06T08:59:35.059Z</time></trkpt><trkpt lat="45.483446297446534" lon="10.372731799974748"><ele>144.0</ele><time>2026-04-06T08:59:36.059Z</time></trkpt><trkpt lat="45.48334329457292" lon="10.372430337092876"><ele>144.0</ele><time>2026-04-06T08:59:37.059Z</time></trkpt><trkpt lat="45.48324353880308" lon="10.372136859618779"><ele>144.0</ele><time>2026-04-06T08:59:38.059Z</time></trkpt><trkpt lat="45.48314524592395" lon="10.371851047398831"><ele>144.0</ele><time>2026-04-06T08:59:39.059Z</time></trkpt><trkpt lat="45.483055081970505" lon="10.371578947444238"><ele>144.0</ele><time>2026-04-06T08:59:40.059Z</time></trkpt><trkpt lat="45.482977105123176" lon="10.371327915480249"><ele>143.33333333333334</ele><time>2026-04-06T08:59:41.059Z</time></trkpt><trkpt lat="45.482900236850405" lon="10.371082306717314"><ele>142.66666666666669</ele><time>2026-04-06T08:59:42.059Z</time></trkpt><trkpt lat="45.4828188849908" lon="10.370837407797149"><ele>142.0</ele><time>2026-04-06T08:59:43.059Z</time></trkpt><trkpt lat="45.4827332116403" lon="10.370580845980728"><ele>142.66666666666669</ele><time>2026-04-06T08:59:44.059Z</time></trkpt><trkpt lat="45.4826543974835" lon="10.370335419992376"><ele>143.33333333333334</ele><time>2026-04-06T08:59:45.059Z</time></trkpt><trkpt lat="45.48257535686428" lon="10.370087748314415"><ele>144.0</ele><time>2026-04-06T08:59:46.059Z</time></trkpt><trkpt lat="45.48248861311607" lon="10.369837366843958"><ele>143.66666666666666</ele><time>2026-04-06T08:59:47.059Z</time></trkpt><trkpt lat="45.48240513032437" lon="10.369581660683663"><ele>143.33333333333331</ele><time>2026-04-06T08:59:48.059Z</time></trkpt><trkpt lat="45.482318398457714" lon="10.369327926319437"><ele>143.0</ele><time>2026-04-06T08:59:49.059Z</time></trkpt><trkpt lat="45.4822334195754" lon="10.369073106995078"><ele>143.0</ele><time>2026-04-06T08:59:50.059Z</time></trkpt><trkpt lat="45.48215690572512" lon="10.368833580936018"><ele>143.0</ele><time>2026-04-06T08:59:51.059Z</time></trkpt><trkpt lat="45.482078090490866" lon="10.368600742986528"><ele>143.0</ele><time>2026-04-06T08:59:52.059Z</time></trkpt><trkpt lat="45.482001735963365" lon="10.36837269948299"><ele>143.0</ele><time>2026-04-06T08:59:53.059Z</time></trkpt><trkpt lat="45.48192907455505" lon="10.368156087451563"><ele>143.0</ele><time>2026-04-06T08:59:54.059Z</time></trkpt><trkpt lat="45.48185829617264" lon="10.36793772511569"><ele>143.0</ele><time>2026-04-06T08:59:55.059Z</time></trkpt><trkpt lat="45.48177385381701" lon="10.36767994716154"><ele>142.5</ele><time>2026-04-06T08:59:56.059Z</time></trkpt><trkpt lat="45.48167767596575" lon="10.367401931146741"><ele>142.0</ele><time>2026-04-06T08:59:57.059Z</time></trkpt><trkpt lat="45.481576573182295" lon="10.367092000597808"><ele>142.0</ele><time>2026-04-06T08:59:58.059Z</time></trkpt><trkpt lat="45.48147502492016" lon="10.366767176815427"><ele>142.0</ele><time>2026-04-06T08:59:59.059Z</time></trkpt><trkpt lat="45.48136498361491" lon="10.366422864368484"><ele>141.0</ele><time>2026-04-06T09:00:00.059Z</time></trkpt><trkpt lat="45.481256964664944" lon="10.366099259098409"><ele>140.0</ele><time>2026-04-06T09:00:01.059Z</time></trkpt><trkpt lat="45.48116126228787" lon="10.365806714515754"><ele>140.0</ele><time>2026-04-06T09:00:02.059Z</time></trkpt><trkpt lat="45.48107357519179" lon="10.365534027828543"><ele>140.0</ele><time>2026-04-06T09:00:03.059Z</time></trkpt><trkpt lat="45.48098891217402" lon="10.365279611655664"><ele>140.0</ele><time>2026-04-06T09:00:04.059Z</time></trkpt><trkpt lat="45.48089910283444" lon="10.365053282094744"><ele>140.0</ele><time>2026-04-06T09:00:05.059Z</time></trkpt><trkpt lat="45.48079757929373" lon="10.364831245586265"><ele>140.0</ele><time>2026-04-06T09:00:06.059Z</time></trkpt><trkpt lat="45.480687780090406" lon="10.364612999679258"><ele>140.0</ele><time>2026-04-06T09:00:07.059Z</time></trkpt><trkpt lat="45.48057170553063" lon="10.364389953174697"><ele>140.0</ele><time>2026-04-06T09:00:08.059Z</time></trkpt><trkpt lat="45.48048535415537" lon="10.364162980813573"><ele>140.0</ele><time>2026-04-06T09:00:09.059Z</time></trkpt><trkpt lat="45.480388200735334" lon="10.363901944795318"><ele>140.0</ele><time>2026-04-06T09:00:10.059Z</time></trkpt><trkpt lat="45.48030370190955" lon="10.363659580473033"><ele>140.33333333333331</ele><time>2026-04-06T09:00:11.059Z</time></trkpt><trkpt lat="45.48022894914061" lon="10.363420221209624"><ele>140.66666666666666</ele><time>2026-04-06T09:00:12.059Z</time></trkpt><trkpt lat="45.480146582281506" lon="10.363171912229536"><ele>141.0</ele><time>2026-04-06T09:00:13.059Z</time></trkpt><trkpt lat="45.48006667509731" lon="10.362911324943372"><ele>141.0</ele><time>2026-04-06T09:00:14.059Z</time></trkpt><trkpt lat="45.48000166253923" lon="10.362648722005662"><ele>141.0</ele><time>2026-04-06T09:00:15.059Z</time></trkpt><trkpt lat="45.47994893757964" lon="10.362391525539877"><ele>141.0</ele><time>2026-04-06T09:00:16.059Z</time></trkpt><trkpt lat="45.47997192048213" lon="10.362105724600742"><ele>141.0</ele><time>2026-04-06T09:00:17.059Z</time></trkpt><trkpt lat="45.479896796905656" lon="10.361873738865196"><ele>141.0</ele><time>2026-04-06T09:00:18.059Z</time></trkpt><trkpt lat="45.47982584153374" lon="10.361650541828087"><ele>141.0</ele><time>2026-04-06T09:00:19.059Z</time></trkpt><trkpt lat="45.47973963231963" lon="10.361422349773646"><ele>141.0</ele><time>2026-04-06T09:00:20.059Z</time></trkpt><trkpt lat="45.479685658749716" lon="10.361176302716984"><ele>141.0</ele><time>2026-04-06T09:00:21.059Z</time></trkpt><trkpt lat="45.47962148054195" lon="10.360934516673503"><ele>141.0</ele><time>2026-04-06T09:00:22.059Z</time></trkpt><trkpt lat="45.47956064395957" lon="10.360688974361372"><ele>141.0</ele><time>2026-04-06T09:00:23.059Z</time></trkpt><trkpt lat="45.47950116370405" lon="10.360433559469548"><ele>141.0</ele><time>2026-04-06T09:00:24.059Z</time></trkpt><trkpt lat="45.47944524575512" lon="10.360177192748838"><ele>141.0</ele><time>2026-04-06T09:00:25.059Z</time></trkpt><trkpt lat="45.47939142584602" lon="10.359909213502268"><ele>140.33333333333334</ele><time>2026-04-06T09:00:26.059Z</time></trkpt><trkpt lat="45.47934052655551" lon="10.359633219891036"><ele>139.66666666666669</ele><time>2026-04-06T09:00:27.059Z</time></trkpt><trkpt lat="45.47929229543399" lon="10.359347967441462"><ele>139.0</ele><time>2026-04-06T09:00:28.059Z</time></trkpt><trkpt lat="45.47924971315936" lon="10.359067645243439"><ele>138.66666666666669</ele><time>2026-04-06T09:00:29.059Z</time></trkpt><trkpt lat="45.47921354030716" lon="10.358797160792147"><ele>138.33333333333334</ele><time>2026-04-06T09:00:30.059Z</time></trkpt><trkpt lat="45.47918118602494" lon="10.358540267163024"><ele>138.0</ele><time>2026-04-06T09:00:31.059Z</time></trkpt><trkpt lat="45.47915566157888" lon="10.358295649316672"><ele>138.0</ele><time>2026-04-06T09:00:32.059Z</time></trkpt><trkpt lat="45.47913392042176" lon="10.35805572984447"><ele>138.0</ele><time>2026-04-06T09:00:33.059Z</time></trkpt><trkpt lat="45.479114262560294" lon="10.35780533771164"><ele>138.0</ele><time>2026-04-06T09:00:34.059Z</time></trkpt><trkpt lat="45.47909834447545" lon="10.35755947359503"><ele>138.66666666666666</ele><time>2026-04-06T09:00:35.059Z</time></trkpt><trkpt lat="45.479086534321" lon="10.357305811515806"><ele>139.33333333333331</ele><time>2026-04-06T09:00:36.059Z</time></trkpt><trkpt lat="45.47907808245484" lon="10.357047803760869"><ele>140.0</ele><time>2026-04-06T09:00:37.059Z</time></trkpt><trkpt lat="45.479070398169995" lon="10.356784319383157"><ele>140.0</ele><time>2026-04-06T09:00:38.059Z</time></trkpt><trkpt lat="45.47906320878667" lon="10.356517498784648"><ele>140.0</ele><time>2026-04-06T09:00:39.059Z</time></trkpt><trkpt lat="45.479056170371315" lon="10.35624882144811"><ele>140.0</ele><time>2026-04-06T09:00:40.059Z</time></trkpt><trkpt lat="45.47904945241947" lon="10.35596822559128"><ele>140.0</ele><time>2026-04-06T09:00:41.059Z</time></trkpt><trkpt lat="45.47904269100109" lon="10.355685814307904"><ele>140.0</ele><time>2026-04-06T09:00:42.059Z</time></trkpt><trkpt lat="45.47903566497549" lon="10.355392350952993"><ele>140.0</ele><time>2026-04-06T09:00:43.059Z</time></trkpt><trkpt lat="45.47902839286581" lon="10.355088608964367"><ele>140.33333333333331</ele><time>2026-04-06T09:00:44.059Z</time></trkpt><trkpt lat="45.47902114329789" lon="10.354785808547978"><ele>140.66666666666666</ele><time>2026-04-06T09:00:45.059Z</time></trkpt><trkpt lat="45.47901378129349" lon="10.354478311952734"><ele>141.0</ele><time>2026-04-06T09:00:46.059Z</time></trkpt><trkpt lat="45.47900615411735" lon="10.354159739679702"><ele>140.0</ele><time>2026-04-06T09:00:47.059Z</time></trkpt><trkpt lat="45.47899878282476" lon="10.353855319155155"><ele>139.0</ele><time>2026-04-06T09:00:48.059Z</time></trkpt><trkpt lat="45.47899059279065" lon="10.353518852576844"><ele>139.0</ele><time>2026-04-06T09:00:49.059Z</time></trkpt><trkpt lat="45.47898422444131" lon="10.353257225322606"><ele>139.0</ele><time>2026-04-06T09:00:50.059Z</time></trkpt><trkpt lat="45.478976806718826" lon="10.352952487292583"><ele>139.0</ele><time>2026-04-06T09:00:51.059Z</time></trkpt><trkpt lat="45.478968735817254" lon="10.352620915037248"><ele>139.0</ele><time>2026-04-06T09:00:52.059Z</time></trkpt><trkpt lat="45.47896144749639" lon="10.35232149308372"><ele>139.0</ele><time>2026-04-06T09:00:53.059Z</time></trkpt><trkpt lat="45.47895409948078" lon="10.352027551350439"><ele>139.0</ele><time>2026-04-06T09:00:54.059Z</time></trkpt><trkpt lat="45.478946505527546" lon="10.35173214496447"><ele>139.0</ele><time>2026-04-06T09:00:55.059Z</time></trkpt><trkpt lat="45.478938813953185" lon="10.351432941089346"><ele>139.0</ele><time>2026-04-06T09:00:56.059Z</time></trkpt><trkpt lat="45.47893119413226" lon="10.35113652846176"><ele>139.0</ele><time>2026-04-06T09:00:57.059Z</time></trkpt><trkpt lat="45.47892359455298" lon="10.350840903145494"><ele>139.33333333333334</ele><time>2026-04-06T09:00:58.059Z</time></trkpt><trkpt lat="45.47890041497684" lon="10.350543815671829"><ele>139.66666666666666</ele><time>2026-04-06T09:00:59.059Z</time></trkpt><trkpt lat="45.47889429518515" lon="10.350250584853054"><ele>140.0</ele><time>2026-04-06T09:01:00.059Z</time></trkpt><trkpt lat="45.47888494189488" lon="10.349951481120966"><ele>140.0</ele><time>2026-04-06T09:01:01.059Z</time></trkpt><trkpt lat="45.47889333021488" lon="10.349657554657076"><ele>140.0</ele><time>2026-04-06T09:01:02.059Z</time></trkpt><trkpt lat="45.47886973897778" lon="10.34936481845613"><ele>140.0</ele><time>2026-04-06T09:01:03.059Z</time></trkpt><trkpt lat="45.47886288975782" lon="10.349067289103937"><ele>140.0</ele><time>2026-04-06T09:01:04.059Z</time></trkpt><trkpt lat="45.47885807683308" lon="10.348769442812877"><ele>140.0</ele><time>2026-04-06T09:01:05.059Z</time></trkpt><trkpt lat="45.478849465480316" lon="10.3484722987687"><ele>140.0</ele><time>2026-04-06T09:01:06.059Z</time></trkpt><trkpt lat="45.47884404177692" lon="10.348171483247055"><ele>139.33333333333331</ele><time>2026-04-06T09:01:07.059Z</time></trkpt><trkpt lat="45.47883892273693" lon="10.347889909915676"><ele>138.66666666666666</ele><time>2026-04-06T09:01:08.059Z</time></trkpt><trkpt lat="45.47884258595042" lon="10.347624512768478"><ele>138.0</ele><time>2026-04-06T09:01:09.059Z</time></trkpt><trkpt lat="45.47884834593228" lon="10.347365576856921"><ele>137.66666666666666</ele><time>2026-04-06T09:01:10.059Z</time></trkpt><trkpt lat="45.47887797110392" lon="10.347112869731076"><ele>137.33333333333331</ele><time>2026-04-06T09:01:11.059Z</time></trkpt><trkpt lat="45.478897319957824" lon="10.346865685068341"><ele>137.0</ele><time>2026-04-06T09:01:12.059Z</time></trkpt><trkpt lat="45.478922565408254" lon="10.346619740506158"><ele>137.0</ele><time>2026-04-06T09:01:13.059Z</time></trkpt><trkpt lat="45.47895329196303" lon="10.346374322383737"><ele>137.0</ele><time>2026-04-06T09:01:14.059Z</time></trkpt><trkpt lat="45.47899223739015" lon="10.346120145756938"><ele>137.0</ele><time>2026-04-06T09:01:15.059Z</time></trkpt><trkpt lat="45.47903892574905" lon="10.34586323702447"><ele>137.0</ele><time>2026-04-06T09:01:16.059Z</time></trkpt><trkpt lat="45.47909256413591" lon="10.345599871181046"><ele>137.0</ele><time>2026-04-06T09:01:17.059Z</time></trkpt><trkpt lat="45.47915349729642" lon="10.345333819394517"><ele>137.0</ele><time>2026-04-06T09:01:18.059Z</time></trkpt><trkpt lat="45.479221923611426" lon="10.345069608689373"><ele>137.66666666666666</ele><time>2026-04-06T09:01:19.059Z</time></trkpt><trkpt lat="45.47929934147538" lon="10.344806896640561"><ele>138.33333333333334</ele><time>2026-04-06T09:01:20.059Z</time></trkpt><trkpt lat="45.47936388641311" lon="10.344534707940033"><ele>139.0</ele><time>2026-04-06T09:01:21.059Z</time></trkpt><trkpt lat="45.47944354417514" lon="10.344281485145505"><ele>139.0</ele><time>2026-04-06T09:01:22.059Z</time></trkpt><trkpt lat="45.47951751830546" lon="10.344032078287755"><ele>139.0</ele><time>2026-04-06T09:01:23.059Z</time></trkpt><trkpt lat="45.47959067711184" lon="10.343789621057573"><ele>139.0</ele><time>2026-04-06T09:01:24.059Z</time></trkpt><trkpt lat="45.479665113427714" lon="10.343539403352402"><ele>139.66666666666669</ele><time>2026-04-06T09:01:25.059Z</time></trkpt><trkpt lat="45.47975213362632" lon="10.343301930410835"><ele>140.33333333333334</ele><time>2026-04-06T09:01:26.059Z</time></trkpt><trkpt lat="45.4798116405142" lon="10.343047288968002"><ele>141.0</ele><time>2026-04-06T09:01:27.059Z</time></trkpt><trkpt lat="45.47988725740984" lon="10.34280143966353"><ele>141.0</ele><time>2026-04-06T09:01:28.059Z</time></trkpt><trkpt lat="45.479964802588306" lon="10.342548149930568"><ele>141.0</ele><time>2026-04-06T09:01:29.059Z</time></trkpt><trkpt lat="45.48004037535866" lon="10.342296621444115"><ele>141.0</ele><time>2026-04-06T09:01:30.059Z</time></trkpt><trkpt lat="45.480116205587635" lon="10.342044680720635"><ele>140.0</ele><time>2026-04-06T09:01:31.059Z</time></trkpt><trkpt lat="45.48019345302206" lon="10.341787757185362"><ele>139.0</ele><time>2026-04-06T09:01:32.059Z</time></trkpt><trkpt lat="45.48026638668436" lon="10.341534688881957"><ele>138.0</ele><time>2026-04-06T09:01:33.059Z</time></trkpt><trkpt lat="45.4803450992207" lon="10.341272428643652"><ele>138.66666666666666</ele><time>2026-04-06T09:01:34.059Z</time></trkpt><trkpt lat="45.480434679662324" lon="10.34102298320612"><ele>139.33333333333331</ele><time>2026-04-06T09:01:35.059Z</time></trkpt><trkpt lat="45.48051802658587" lon="10.340752289111933"><ele>140.0</ele><time>2026-04-06T09:01:36.059Z</time></trkpt><trkpt lat="45.48058774639412" lon="10.340480714683029"><ele>140.0</ele><time>2026-04-06T09:01:37.059Z</time></trkpt><trkpt lat="45.48067940642559" lon="10.340224062024618"><ele>140.0</ele><time>2026-04-06T09:01:38.059Z</time></trkpt><trkpt lat="45.480770531943286" lon="10.33997182244293"><ele>140.0</ele><time>2026-04-06T09:01:39.059Z</time></trkpt><trkpt lat="45.48087423612839" lon="10.339722081172262"><ele>139.66666666666666</ele><time>2026-04-06T09:01:40.059Z</time></trkpt><trkpt lat="45.48098325778711" lon="10.33947283056643"><ele>139.33333333333334</ele><time>2026-04-06T09:01:41.059Z</time></trkpt><trkpt lat="45.481097193501554" lon="10.339226685127285"><ele>139.0</ele><time>2026-04-06T09:01:42.059Z</time></trkpt><trkpt lat="45.481215267862716" lon="10.338980337806142"><ele>139.0</ele><time>2026-04-06T09:01:43.059Z</time></trkpt><trkpt lat="45.48133005152546" lon="10.33874092707848"><ele>139.0</ele><time>2026-04-06T09:01:44.059Z</time></trkpt><trkpt lat="45.481447612110685" lon="10.338524836398244"><ele>139.0</ele><time>2026-04-06T09:01:45.059Z</time></trkpt><trkpt lat="45.481568592508424" lon="10.33831272126867"><ele>139.0</ele><time>2026-04-06T09:01:46.059Z</time></trkpt><trkpt lat="45.48169311997928" lon="10.338109664213661"><ele>139.0</ele><time>2026-04-06T09:01:47.059Z</time></trkpt><trkpt lat="45.48182456520493" lon="10.337907208207683"><ele>139.0</ele><time>2026-04-06T09:01:48.059Z</time></trkpt><trkpt lat="45.48197123300053" lon="10.3377160194589"><ele>139.0</ele><time>2026-04-06T09:01:49.059Z</time></trkpt><trkpt lat="45.48210728377533" lon="10.337520716415758"><ele>139.0</ele><time>2026-04-06T09:01:50.059Z</time></trkpt><trkpt lat="45.48224859499696" lon="10.337324058831744"><ele>139.0</ele><time>2026-04-06T09:01:51.059Z</time></trkpt><trkpt lat="45.48237878687672" lon="10.33711182682241"><ele>139.0</ele><time>2026-04-06T09:01:52.059Z</time></trkpt><trkpt lat="45.48251941007355" lon="10.336916291994829"><ele>139.0</ele><time>2026-04-06T09:01:53.059Z</time></trkpt><trkpt lat="45.48265716879006" lon="10.336725297676807"><ele>139.0</ele><time>2026-04-06T09:01:54.059Z</time></trkpt><trkpt lat="45.48278876182888" lon="10.33654793128622"><ele>138.33333333333334</ele><time>2026-04-06T09:01:55.059Z</time></trkpt><trkpt lat="45.482915237643994" lon="10.33637838569281"><ele>137.66666666666666</ele><time>2026-04-06T09:01:56.059Z</time></trkpt><trkpt lat="45.48303341180521" lon="10.336215925743895"><ele>137.0</ele><time>2026-04-06T09:01:57.059Z</time></trkpt><trkpt lat="45.48314631955956" lon="10.336060477204114"><ele>137.0</ele><time>2026-04-06T09:01:58.059Z</time></trkpt><trkpt lat="45.483260516366514" lon="10.335899479377675"><ele>137.0</ele><time>2026-04-06T09:01:59.059Z</time></trkpt><trkpt lat="45.48337804939304" lon="10.335733650484661"><ele>137.0</ele><time>2026-04-06T09:02:00.059Z</time></trkpt><trkpt lat="45.483494836670154" lon="10.335561908941186"><ele>137.66666666666666</ele><time>2026-04-06T09:02:01.059Z</time></trkpt><trkpt lat="45.48361052161857" lon="10.335397838114348"><ele>138.33333333333334</ele><time>2026-04-06T09:02:02.059Z</time></trkpt><trkpt lat="45.483735553851496" lon="10.335254870001654"><ele>139.0</ele><time>2026-04-06T09:02:03.059Z</time></trkpt><trkpt lat="45.48384680023172" lon="10.335100341115238"><ele>139.0</ele><time>2026-04-06T09:02:04.059Z</time></trkpt><trkpt lat="45.48394676939821" lon="10.33496136546485"><ele>139.0</ele><time>2026-04-06T09:02:05.059Z</time></trkpt><trkpt lat="45.48404975289471" lon="10.334815311480126"><ele>139.0</ele><time>2026-04-06T09:02:06.059Z</time></trkpt><trkpt lat="45.484145906874026" lon="10.334673809880151"><ele>139.0</ele><time>2026-04-06T09:02:07.059Z</time></trkpt><trkpt lat="45.48425529460651" lon="10.334510959750427"><ele>139.0</ele><time>2026-04-06T09:02:08.059Z</time></trkpt><trkpt lat="45.484379780664966" lon="10.334340566883542"><ele>139.0</ele><time>2026-04-06T09:02:09.059Z</time></trkpt><trkpt lat="45.48451289901789" lon="10.3341566388231"><ele>139.0</ele><time>2026-04-06T09:02:10.059Z</time></trkpt><trkpt lat="45.48462567895648" lon="10.33400436272875"><ele>138.0</ele><time>2026-04-06T09:02:11.059Z</time></trkpt><trkpt lat="45.48474975099955" lon="10.33382409352835"><ele>137.0</ele><time>2026-04-06T09:02:12.059Z</time></trkpt><trkpt lat="45.48487765020748" lon="10.333640245021469"><ele>136.0</ele><time>2026-04-06T09:02:13.059Z</time></trkpt><trkpt lat="45.48500712890207" lon="10.33345883391566"><ele>136.0</ele><time>2026-04-06T09:02:14.059Z</time></trkpt><trkpt lat="45.48513747178556" lon="10.333274722363175"><ele>136.0</ele><time>2026-04-06T09:02:15.059Z</time></trkpt><trkpt lat="45.48526922928138" lon="10.333098221399078"><ele>136.0</ele><time>2026-04-06T09:02:16.059Z</time></trkpt><trkpt lat="45.4854012502365" lon="10.33291664005814"><ele>137.0</ele><time>2026-04-06T09:02:17.059Z</time></trkpt><trkpt lat="45.485525365588856" lon="10.33272851710792"><ele>138.0</ele><time>2026-04-06T09:02:18.059Z</time></trkpt><trkpt lat="45.4856556463758" lon="10.332547278517673"><ele>139.0</ele><time>2026-04-06T09:02:19.059Z</time></trkpt><trkpt lat="45.485776120690616" lon="10.332380441225869"><ele>138.33333333333334</ele><time>2026-04-06T09:02:20.059Z</time></trkpt><trkpt lat="45.485898535653476" lon="10.332215899655537"><ele>137.66666666666666</ele><time>2026-04-06T09:02:21.059Z</time></trkpt><trkpt lat="45.48601605935318" lon="10.332050673903737"><ele>137.0</ele><time>2026-04-06T09:02:22.059Z</time></trkpt><trkpt lat="45.48613618831639" lon="10.331889737967868"><ele>137.0</ele><time>2026-04-06T09:02:23.059Z</time></trkpt><trkpt lat="45.486256560822454" lon="10.331722811866003"><ele>137.0</ele><time>2026-04-06T09:02:24.059Z</time></trkpt><trkpt lat="45.48637736179813" lon="10.331556067044945"><ele>137.0</ele><time>2026-04-06T09:02:25.059Z</time></trkpt><trkpt lat="45.486499535701725" lon="10.33138807525238"><ele>137.0</ele><time>2026-04-06T09:02:26.059Z</time></trkpt><trkpt lat="45.486621463847364" lon="10.331219634945674"><ele>137.0</ele><time>2026-04-06T09:02:27.059Z</time></trkpt><trkpt lat="45.4867481193337" lon="10.331034269999927"><ele>137.0</ele><time>2026-04-06T09:02:28.059Z</time></trkpt><trkpt lat="45.48687633289821" lon="10.330850288912492"><ele>137.0</ele><time>2026-04-06T09:02:29.059Z</time></trkpt><trkpt lat="45.48700837189681" lon="10.330663723966913"><ele>137.0</ele><time>2026-04-06T09:02:30.059Z</time></trkpt><trkpt lat="45.48714583049669" lon="10.330472854834683"><ele>137.0</ele><time>2026-04-06T09:02:31.059Z</time></trkpt><trkpt lat="45.48729769085052" lon="10.330264542494692"><ele>137.0</ele><time>2026-04-06T09:02:32.059Z</time></trkpt><trkpt lat="45.487453919712856" lon="10.330047606583031"><ele>137.0</ele><time>2026-04-06T09:02:33.059Z</time></trkpt><trkpt lat="45.48762870151977" lon="10.32980167646178"><ele>137.5</ele><time>2026-04-06T09:02:34.059Z</time></trkpt><trkpt lat="45.48780559304275" lon="10.329555602945222"><ele>138.0</ele><time>2026-04-06T09:02:35.059Z</time></trkpt><trkpt lat="45.487964484997626" lon="10.32933569386811"><ele>138.0</ele><time>2026-04-06T09:02:36.059Z</time></trkpt><trkpt lat="45.48811788537076" lon="10.329122610447484"><ele>138.0</ele><time>2026-04-06T09:02:37.059Z</time></trkpt><trkpt lat="45.488269633829695" lon="10.328909701422248"><ele>138.0</ele><time>2026-04-06T09:02:38.059Z</time></trkpt><trkpt lat="45.48841307107572" lon="10.328712866317748"><ele>137.66666666666666</ele><time>2026-04-06T09:02:39.059Z</time></trkpt><trkpt lat="45.48856716784745" lon="10.32852785532224"><ele>137.33333333333331</ele><time>2026-04-06T09:02:40.059Z</time></trkpt><trkpt lat="45.48870261506884" lon="10.328339492790708"><ele>137.0</ele><time>2026-04-06T09:02:41.059Z</time></trkpt><trkpt lat="45.48882008563778" lon="10.328144875674807"><ele>137.33333333333331</ele><time>2026-04-06T09:02:42.059Z</time></trkpt><trkpt lat="45.48894074872693" lon="10.3279767711217"><ele>137.66666666666666</ele><time>2026-04-06T09:02:43.059Z</time></trkpt><trkpt lat="45.48906794566281" lon="10.327831439499231"><ele>138.0</ele><time>2026-04-06T09:02:44.059Z</time></trkpt><trkpt lat="45.48918126970364" lon="10.3276738431797"><ele>138.0</ele><time>2026-04-06T09:02:45.059Z</time></trkpt><trkpt lat="45.48930010086943" lon="10.327508588126314"><ele>138.0</ele><time>2026-04-06T09:02:46.059Z</time></trkpt><trkpt lat="45.48942189736699" lon="10.327339209379813"><ele>138.0</ele><time>2026-04-06T09:02:47.059Z</time></trkpt><trkpt lat="45.48954629646265" lon="10.327166211159286"><ele>138.33333333333334</ele><time>2026-04-06T09:02:48.059Z</time></trkpt><trkpt lat="45.48966964392976" lon="10.326994258021681"><ele>138.66666666666669</ele><time>2026-04-06T09:02:49.059Z</time></trkpt><trkpt lat="45.48978696413259" lon="10.326804425997768"><ele>139.0</ele><time>2026-04-06T09:02:50.059Z</time></trkpt><trkpt lat="45.489917421491995" lon="10.326628645658856"><ele>139.0</ele><time>2026-04-06T09:02:51.06Z</time></trkpt><trkpt lat="45.49004459587798" lon="10.326447056954251"><ele>139.0</ele><time>2026-04-06T09:02:52.06Z</time></trkpt><trkpt lat="45.490172681534645" lon="10.326261950370686"><ele>139.0</ele><time>2026-04-06T09:02:53.06Z</time></trkpt><trkpt lat="45.49030567872276" lon="10.326078290296453"><ele>139.0</ele><time>2026-04-06T09:02:54.06Z</time></trkpt><trkpt lat="45.49044062102567" lon="10.325891875003363"><ele>139.0</ele><time>2026-04-06T09:02:55.06Z</time></trkpt><trkpt lat="45.49057548534231" lon="10.325699459420143"><ele>139.0</ele><time>2026-04-06T09:02:56.06Z</time></trkpt><trkpt lat="45.49072270836713" lon="10.325527077263057"><ele>139.0</ele><time>2026-04-06T09:02:57.06Z</time></trkpt><trkpt lat="45.4908619480791" lon="10.325333223720513"><ele>139.0</ele><time>2026-04-06T09:02:58.06Z</time></trkpt><trkpt lat="45.4910017167795" lon="10.32513841745743"><ele>139.0</ele><time>2026-04-06T09:02:59.06Z</time></trkpt><trkpt lat="45.491143646975104" lon="10.324940126621998"><ele>138.66666666666669</ele><time>2026-04-06T09:03:00.06Z</time></trkpt><trkpt lat="45.49127155174732" lon="10.324734360511725"><ele>138.33333333333334</ele><time>2026-04-06T09:03:01.06Z</time></trkpt><trkpt lat="45.49140469688752" lon="10.32454805002467"><ele>138.0</ele><time>2026-04-06T09:03:02.06Z</time></trkpt><trkpt lat="45.491531442585845" lon="10.324370460798914"><ele>138.0</ele><time>2026-04-06T09:03:03.06Z</time></trkpt><trkpt lat="45.49164975826514" lon="10.324209060935681"><ele>138.0</ele><time>2026-04-06T09:03:04.06Z</time></trkpt><trkpt lat="45.491764432312394" lon="10.324056640629575"><ele>138.0</ele><time>2026-04-06T09:03:05.06Z</time></trkpt><trkpt lat="45.49187778569179" lon="10.323887804571793"><ele>138.33333333333334</ele><time>2026-04-06T09:03:06.06Z</time></trkpt><trkpt lat="45.49200652933056" lon="10.323734592763836"><ele>138.66666666666669</ele><time>2026-04-06T09:03:07.06Z</time></trkpt><trkpt lat="45.49211532092245" lon="10.323555780544066"><ele>139.0</ele><time>2026-04-06T09:03:08.06Z</time></trkpt><trkpt lat="45.49223097517819" lon="10.323401590136283"><ele>139.0</ele><time>2026-04-06T09:03:09.06Z</time></trkpt><trkpt lat="45.492344929464934" lon="10.323239404140027"><ele>139.0</ele><time>2026-04-06T09:03:10.06Z</time></trkpt><trkpt lat="45.49245548409037" lon="10.32307833020703"><ele>139.0</ele><time>2026-04-06T09:03:11.06Z</time></trkpt><trkpt lat="45.492577127485795" lon="10.322925262023954"><ele>139.0</ele><time>2026-04-06T09:03:12.06Z</time></trkpt><trkpt lat="45.492699546745826" lon="10.322769391364142"><ele>139.0</ele><time>2026-04-06T09:03:13.06Z</time></trkpt><trkpt lat="45.492827800889444" lon="10.322605441392975"><ele>139.0</ele><time>2026-04-06T09:03:14.06Z</time></trkpt><trkpt lat="45.49296390537159" lon="10.322419462988096"><ele>139.0</ele><time>2026-04-06T09:03:15.06Z</time></trkpt><trkpt lat="45.49303975600255" lon="10.322348895038212"><ele>139.0</ele><time>2026-04-06T09:03:16.06Z</time></trkpt><trkpt lat="45.49315450175423" lon="10.322198102501588"><ele>139.0</ele><time>2026-04-06T09:03:17.06Z</time></trkpt><trkpt lat="45.493260294665966" lon="10.322043698087377"><ele>139.0</ele><time>2026-04-06T09:03:18.06Z</time></trkpt><trkpt lat="45.49336192348507" lon="10.321910109886588"><ele>139.0</ele><time>2026-04-06T09:03:19.06Z</time></trkpt><trkpt lat="45.49345207363316" lon="10.321780185425435"><ele>139.0</ele><time>2026-04-06T09:03:20.06Z</time></trkpt><trkpt lat="45.49353627119335" lon="10.321655984260612"><ele>139.0</ele><time>2026-04-06T09:03:21.06Z</time></trkpt><trkpt lat="45.493623255969766" lon="10.321548837222705"><ele>139.0</ele><time>2026-04-06T09:03:22.06Z</time></trkpt><trkpt lat="45.493720990879645" lon="10.321452672626014"><ele>139.5</ele><time>2026-04-06T09:03:23.06Z</time></trkpt><trkpt lat="45.493834278556555" lon="10.321384609375462"><ele>140.0</ele><time>2026-04-06T09:03:24.06Z</time></trkpt><trkpt lat="45.49395519317538" lon="10.321349571528671"><ele>140.5</ele><time>2026-04-06T09:03:25.06Z</time></trkpt><trkpt lat="45.494084737761256" lon="10.321321245414188"><ele>141.0</ele><time>2026-04-06T09:03:26.06Z</time></trkpt><trkpt lat="45.494228379338864" lon="10.32132252682789"><ele>141.0</ele><time>2026-04-06T09:03:27.06Z</time></trkpt><trkpt lat="45.494382842240235" lon="10.321352016650533"><ele>141.0</ele><time>2026-04-06T09:03:28.06Z</time></trkpt><trkpt lat="45.49454728544298" lon="10.32139765206869"><ele>141.0</ele><time>2026-04-06T09:03:29.06Z</time></trkpt><trkpt lat="45.494729164613446" lon="10.321444261499089"><ele>141.0</ele><time>2026-04-06T09:03:30.06Z</time></trkpt><trkpt lat="45.494923168328896" lon="10.321493799705946"><ele>141.0</ele><time>2026-04-06T09:03:31.06Z</time></trkpt><trkpt lat="45.49511578159302" lon="10.32153541068057"><ele>141.0</ele><time>2026-04-06T09:03:32.06Z</time></trkpt><trkpt lat="45.49528468090543" lon="10.321575456554498"><ele>140.5</ele><time>2026-04-06T09:03:33.06Z</time></trkpt><trkpt lat="45.495434912504386" lon="10.32162467414535"><ele>140.0</ele><time>2026-04-06T09:03:34.06Z</time></trkpt><trkpt lat="45.49557820558315" lon="10.321685169072694"><ele>139.5</ele><time>2026-04-06T09:03:35.06Z</time></trkpt><trkpt lat="45.49570836190341" lon="10.321775299174513"><ele>139.0</ele><time>2026-04-06T09:03:36.06Z</time></trkpt><trkpt lat="45.49582454826807" lon="10.32189041829096"><ele>139.0</ele><time>2026-04-06T09:03:37.06Z</time></trkpt><trkpt lat="45.495916455708866" lon="10.322070404318069"><ele>139.0</ele><time>2026-04-06T09:03:38.06Z</time></trkpt><trkpt lat="45.49601323962067" lon="10.322243937196928"><ele>139.0</ele><time>2026-04-06T09:03:39.06Z</time></trkpt><trkpt lat="45.496109639218474" lon="10.322433891115113"><ele>139.33333333333334</ele><time>2026-04-06T09:03:40.06Z</time></trkpt><trkpt lat="45.496174662435955" lon="10.32264200865414"><ele>139.66666666666666</ele><time>2026-04-06T09:03:41.06Z</time></trkpt><trkpt lat="45.49621684401252" lon="10.322878237221962"><ele>140.0</ele><time>2026-04-06T09:03:42.06Z</time></trkpt><trkpt lat="45.49626302568989" lon="10.323128084295336"><ele>140.33333333333331</ele><time>2026-04-06T09:03:43.06Z</time></trkpt><trkpt lat="45.49624360398059" lon="10.323419080413837"><ele>140.66666666666666</ele><time>2026-04-06T09:03:44.06Z</time></trkpt><trkpt lat="45.49623877507581" lon="10.32368071833967"><ele>141.0</ele><time>2026-04-06T09:03:45.06Z</time></trkpt><trkpt lat="45.49624529922135" lon="10.323939799587864"><ele>141.0</ele><time>2026-04-06T09:03:46.06Z</time></trkpt><trkpt lat="45.49625614441064" lon="10.324200710136425"><ele>141.0</ele><time>2026-04-06T09:03:47.06Z</time></trkpt><trkpt lat="45.49625557214532" lon="10.324466689610805"><ele>141.0</ele><time>2026-04-06T09:03:48.06Z</time></trkpt><trkpt lat="45.496253107201866" lon="10.324721720414715"><ele>141.33333333333334</ele><time>2026-04-06T09:03:49.06Z</time></trkpt><trkpt lat="45.49625367535283" lon="10.32497233573186"><ele>141.66666666666669</ele><time>2026-04-06T09:03:50.06Z</time></trkpt><trkpt lat="45.496254832533296" lon="10.32522124920802"><ele>142.0</ele><time>2026-04-06T09:03:51.06Z</time></trkpt><trkpt lat="45.49625510741324" lon="10.325465034418698"><ele>142.0</ele><time>2026-04-06T09:03:52.06Z</time></trkpt><trkpt lat="45.496257133728946" lon="10.325695091021618"><ele>142.0</ele><time>2026-04-06T09:03:53.06Z</time></trkpt><trkpt lat="45.496273092823635" lon="10.325919242839259"><ele>142.0</ele><time>2026-04-06T09:03:54.06Z</time></trkpt><trkpt lat="45.49629357465709" lon="10.326133644144072"><ele>142.0</ele><time>2026-04-06T09:03:55.06Z</time></trkpt><trkpt lat="45.4963193071955" lon="10.326349932392606"><ele>142.0</ele><time>2026-04-06T09:03:56.06Z</time></trkpt><trkpt lat="45.49634827716215" lon="10.326568618253875"><ele>142.0</ele><time>2026-04-06T09:03:57.06Z</time></trkpt><trkpt lat="45.49638362256526" lon="10.32678856841917"><ele>142.0</ele><time>2026-04-06T09:03:58.06Z</time></trkpt><trkpt lat="45.49642531411679" lon="10.32700802708081"><ele>142.0</ele><time>2026-04-06T09:03:59.06Z</time></trkpt><trkpt lat="45.49647276809435" lon="10.327225024071709"><ele>142.0</ele><time>2026-04-06T09:04:00.06Z</time></trkpt><trkpt lat="45.496530607379675" lon="10.32742637661938"><ele>142.5</ele><time>2026-04-06T09:04:01.06Z</time></trkpt><trkpt lat="45.49658127124781" lon="10.327620976969227"><ele>143.0</ele><time>2026-04-06T09:04:02.06Z</time></trkpt><trkpt lat="45.49662961880685" lon="10.327786210992343"><ele>143.5</ele><time>2026-04-06T09:04:03.06Z</time></trkpt><trkpt lat="45.496678384534725" lon="10.327935210422236"><ele>144.0</ele><time>2026-04-06T09:04:04.06Z</time></trkpt><trkpt lat="45.49673037272211" lon="10.328078661687877"><ele>144.2</ele><time>2026-04-06T09:04:05.06Z</time></trkpt><trkpt lat="45.496783385151055" lon="10.328222095296235"><ele>144.4</ele><time>2026-04-06T09:04:06.06Z</time></trkpt><trkpt lat="45.49683279430217" lon="10.32835173383883"><ele>144.6</ele><time>2026-04-06T09:04:07.06Z</time></trkpt><trkpt lat="45.49688371769536" lon="10.328480532566703"><ele>144.8</ele><time>2026-04-06T09:04:08.06Z</time></trkpt><trkpt lat="45.49692618885817" lon="10.328580942753105"><ele>145.0</ele><time>2026-04-06T09:04:09.06Z</time></trkpt><trkpt lat="45.49697757887508" lon="10.328688939020777"><ele>145.0</ele><time>2026-04-06T09:04:11.06Z</time></trkpt><trkpt lat="45.49702691335107" lon="10.328783126080753"><ele>145.0</ele><time>2026-04-06T09:04:13.06Z</time></trkpt><trkpt lat="45.49706966843642" lon="10.328893486417076"><ele>145.0</ele><time>2026-04-06T09:04:15.06Z</time></trkpt><trkpt lat="45.49711104619873" lon="10.328977653457573"><ele>145.0</ele><time>2026-04-06T09:04:17.06Z</time></trkpt><trkpt lat="45.497186762951564" lon="10.329110782547625"><ele>145.0</ele><time>2026-04-06T09:04:20.06Z</time></trkpt><trkpt lat="45.497263468050804" lon="10.329247253251049"><ele>144.5</ele><time>2026-04-06T09:04:21.06Z</time></trkpt><trkpt lat="45.49737678795604" lon="10.329429677842025"><ele>144.0</ele><time>2026-04-06T09:04:22.06Z</time></trkpt><trkpt lat="45.49747006956084" lon="10.32957377613952"><ele>143.5</ele><time>2026-04-06T09:04:23.06Z</time></trkpt><trkpt lat="45.49755932781846" lon="10.329712378520005"><ele>143.0</ele><time>2026-04-06T09:04:24.06Z</time></trkpt><trkpt lat="45.49768594222232" lon="10.329887536426044"><ele>143.0</ele><time>2026-04-06T09:04:25.06Z</time></trkpt><trkpt lat="45.497812572014546" lon="10.330047741550503"><ele>143.0</ele><time>2026-04-06T09:04:26.06Z</time></trkpt><trkpt lat="45.497916068693876" lon="10.33017974435914"><ele>143.0</ele><time>2026-04-06T09:04:27.06Z</time></trkpt><trkpt lat="45.4980013255146" lon="10.330314564925528"><ele>143.0</ele><time>2026-04-06T09:04:28.06Z</time></trkpt><trkpt lat="45.498088923763476" lon="10.33042346346226"><ele>143.25</ele><time>2026-04-06T09:04:29.06Z</time></trkpt><trkpt lat="45.498177700984776" lon="10.330503751079826"><ele>143.5</ele><time>2026-04-06T09:04:30.06Z</time></trkpt><trkpt lat="45.49825330345709" lon="10.330604691570587"><ele>143.75</ele><time>2026-04-06T09:04:31.06Z</time></trkpt><trkpt lat="45.4983367192568" lon="10.330716262444655"><ele>144.0</ele><time>2026-04-06T09:04:32.06Z</time></trkpt><trkpt lat="45.49842883385633" lon="10.330845075773587"><ele>144.0</ele><time>2026-04-06T09:04:33.06Z</time></trkpt><trkpt lat="45.498529884550486" lon="10.330989311057275"><ele>144.0</ele><time>2026-04-06T09:04:34.06Z</time></trkpt><trkpt lat="45.498620235429726" lon="10.33110104258155"><ele>144.0</ele><time>2026-04-06T09:04:35.06Z</time></trkpt><trkpt lat="45.498700679186484" lon="10.331197633769706"><ele>144.0</ele><time>2026-04-06T09:04:36.06Z</time></trkpt><trkpt lat="45.49877571530536" lon="10.33129014675978"><ele>143.8</ele><time>2026-04-06T09:04:37.06Z</time></trkpt><trkpt lat="45.498859530296805" lon="10.331390440521819"><ele>143.60000000000002</ele><time>2026-04-06T09:04:38.06Z</time></trkpt><trkpt lat="45.49893868809502" lon="10.331489461043299"><ele>143.4</ele><time>2026-04-06T09:04:39.06Z</time></trkpt><trkpt lat="45.499010579626436" lon="10.33158390178739"><ele>143.20000000000002</ele><time>2026-04-06T09:04:40.06Z</time></trkpt><trkpt lat="45.49908857879466" lon="10.331679627874705"><ele>143.0</ele><time>2026-04-06T09:04:41.06Z</time></trkpt><trkpt lat="45.499165129037046" lon="10.331770369172359"><ele>143.0</ele><time>2026-04-06T09:04:42.06Z</time></trkpt><trkpt lat="45.4992362562628" lon="10.33185635890956"><ele>143.0</ele><time>2026-04-06T09:04:43.06Z</time></trkpt><trkpt lat="45.49932085864758" lon="10.331962529159064"><ele>143.0</ele><time>2026-04-06T09:04:44.06Z</time></trkpt><trkpt lat="45.499430551125734" lon="10.332112031500143"><ele>143.0</ele><time>2026-04-06T09:04:45.06Z</time></trkpt><trkpt lat="45.49954256794032" lon="10.332274266384106"><ele>143.20000000000002</ele><time>2026-04-06T09:04:46.06Z</time></trkpt><trkpt lat="45.49964324154125" lon="10.332402735239457"><ele>143.4</ele><time>2026-04-06T09:04:47.06Z</time></trkpt><trkpt lat="45.49972576444364" lon="10.332512544737511"><ele>143.60000000000002</ele><time>2026-04-06T09:04:48.06Z</time></trkpt><trkpt lat="45.499788172752574" lon="10.332619294428273"><ele>143.8</ele><time>2026-04-06T09:04:49.06Z</time></trkpt><trkpt lat="45.49982931829421" lon="10.332708693407415"><ele>144.0</ele><time>2026-04-06T09:04:50.06Z</time></trkpt><trkpt lat="45.499877250244595" lon="10.332775060269434"><ele>144.00000000000003</ele><time>2026-04-06T09:04:51.06Z</time></trkpt><trkpt lat="45.499959397742934" lon="10.332853134599034"><ele>144.0</ele><time>2026-04-06T09:04:53.06Z</time></trkpt><trkpt lat="45.49988923217468" lon="10.33288873521629"><ele>144.0</ele><time>2026-04-06T09:08:40.061Z</time></trkpt><trkpt lat="45.49982610978176" lon="10.332893360669868"><ele>144.0</ele><time>2026-04-06T09:08:45.061Z</time></trkpt><trkpt lat="45.49976242199951" lon="10.332918147094125"><ele>144.0</ele><time>2026-04-06T09:08:51.061Z</time></trkpt><trkpt lat="45.499701880239726" lon="10.332956658601482"><ele>144.00000000000003</ele><time>2026-04-06T09:08:57.061Z</time></trkpt><trkpt lat="45.49965167072386" lon="10.333027322809897"><ele>144.0</ele><time>2026-04-06T09:09:08.061Z</time></trkpt><trkpt lat="45.49957668195896" lon="10.333030843740351"><ele>144.00000000000003</ele><time>2026-04-06T09:09:53.062Z</time></trkpt><trkpt lat="45.49964008043592" lon="10.333019069105656"><ele>144.0</ele><time>2026-04-06T09:10:15.062Z</time></trkpt><trkpt lat="45.4997063768939" lon="10.332975903966112"><ele>144.0</ele><time>2026-04-06T09:10:21.062Z</time></trkpt><trkpt lat="45.499764776820335" lon="10.332940840718978"><ele>144.0</ele><time>2026-04-06T09:10:28.062Z</time></trkpt><trkpt lat="45.499832922285236" lon="10.332925216000827"><ele>144.0</ele><time>2026-04-06T09:10:35.062Z</time></trkpt><trkpt lat="45.499897857602214" lon="10.3328909339772"><ele>144.00000000000003</ele><time>2026-04-06T09:10:43.062Z</time></trkpt><trkpt lat="45.49996062026276" lon="10.332868344524389"><ele>144.0</ele><time>2026-04-06T09:10:52.062Z</time></trkpt><trkpt lat="45.50005415071523" lon="10.33302242011907"><ele>144.0</ele><time>2026-04-06T09:19:51.057Z</time></trkpt><trkpt lat="45.500093392032" lon="10.333114965625061"><ele>144.0</ele><time>2026-04-06T09:19:52.057Z</time></trkpt><trkpt lat="45.50019599524077" lon="10.333208752245346"><ele>144.0</ele><time>2026-04-06T09:19:54.057Z</time></trkpt><trkpt lat="45.50025375993798" lon="10.333248882954678"><ele>144.0</ele><time>2026-04-06T09:19:55.057Z</time></trkpt><trkpt lat="45.50031384142406" lon="10.333276780832138"><ele>144.0</ele><time>2026-04-06T09:19:56.057Z</time></trkpt><trkpt lat="45.5004222709977" lon="10.333340185558441"><ele>144.0</ele><time>2026-04-06T09:19:58.057Z</time></trkpt><trkpt lat="45.50048138571157" lon="10.333411899499405"><ele>144.0</ele><time>2026-04-06T09:19:59.057Z</time></trkpt><trkpt lat="45.500541303076176" lon="10.33347917252164"><ele>144.0</ele><time>2026-04-06T09:20:00.057Z</time></trkpt><trkpt lat="45.50059876835975" lon="10.333540208129746"><ele>144.0</ele><time>2026-04-06T09:20:01.057Z</time></trkpt><trkpt lat="45.500664171929785" lon="10.333619213231087"><ele>144.0</ele><time>2026-04-06T09:20:02.057Z</time></trkpt><trkpt lat="45.50073686394423" lon="10.333695540573915"><ele>144.0</ele><time>2026-04-06T09:20:03.057Z</time></trkpt><trkpt lat="45.50083270871401" lon="10.333789069513243"><ele>144.0</ele><time>2026-04-06T09:20:04.057Z</time></trkpt><trkpt lat="45.50094484887863" lon="10.33388765324374"><ele>143.66666666666666</ele><time>2026-04-06T09:20:05.057Z</time></trkpt><trkpt lat="45.50106300742389" lon="10.33399120393385"><ele>143.33333333333331</ele><time>2026-04-06T09:20:06.057Z</time></trkpt><trkpt lat="45.50118982992072" lon="10.334127871664668"><ele>143.0</ele><time>2026-04-06T09:20:07.057Z</time></trkpt><trkpt lat="45.50133817423992" lon="10.33427888626251"><ele>143.0</ele><time>2026-04-06T09:20:08.057Z</time></trkpt><trkpt lat="45.5014758646981" lon="10.334414010112969"><ele>143.0</ele><time>2026-04-06T09:20:09.057Z</time></trkpt><trkpt lat="45.50160170227457" lon="10.334538537803743"><ele>143.0</ele><time>2026-04-06T09:20:10.057Z</time></trkpt><trkpt lat="45.501715592496964" lon="10.33465654389404"><ele>143.25</ele><time>2026-04-06T09:20:11.057Z</time></trkpt><trkpt lat="45.50182507940595" lon="10.334768577855336"><ele>143.5</ele><time>2026-04-06T09:20:12.057Z</time></trkpt><trkpt lat="45.50195716679376" lon="10.334883538496925"><ele>143.75</ele><time>2026-04-06T09:20:13.057Z</time></trkpt><trkpt lat="45.502085737089764" lon="10.335011036491911"><ele>144.0</ele><time>2026-04-06T09:20:14.057Z</time></trkpt><trkpt lat="45.50222728930915" lon="10.335147793505383"><ele>144.33333333333334</ele><time>2026-04-06T09:20:15.057Z</time></trkpt><trkpt lat="45.50237884497925" lon="10.335302773989168"><ele>144.66666666666669</ele><time>2026-04-06T09:20:16.057Z</time></trkpt><trkpt lat="45.502528915878244" lon="10.335443109014124"><ele>145.0</ele><time>2026-04-06T09:20:17.057Z</time></trkpt><trkpt lat="45.502669880176235" lon="10.3355692169381"><ele>145.0</ele><time>2026-04-06T09:20:18.057Z</time></trkpt><trkpt lat="45.50279979920271" lon="10.335684521435791"><ele>145.0</ele><time>2026-04-06T09:20:19.057Z</time></trkpt><trkpt lat="45.50291843844361" lon="10.335798137354919"><ele>145.0</ele><time>2026-04-06T09:20:20.057Z</time></trkpt><trkpt lat="45.50303164114462" lon="10.335909393967103"><ele>145.0</ele><time>2026-04-06T09:20:21.057Z</time></trkpt><trkpt lat="45.503148835184575" lon="10.336016287689194"><ele>145.33333333333334</ele><time>2026-04-06T09:20:22.057Z</time></trkpt><trkpt lat="45.503290826621054" lon="10.336156576620395"><ele>145.66666666666666</ele><time>2026-04-06T09:20:23.057Z</time></trkpt><trkpt lat="45.503471205860436" lon="10.336328404518648"><ele>146.0</ele><time>2026-04-06T09:20:24.057Z</time></trkpt><trkpt lat="45.50362385058356" lon="10.3364854912941"><ele>146.0</ele><time>2026-04-06T09:20:26.057Z</time></trkpt><trkpt lat="45.503757877523256" lon="10.336612185625125"><ele>146.0</ele><time>2026-04-06T09:20:27.057Z</time></trkpt><trkpt lat="45.50389311766487" lon="10.336735388521879"><ele>146.0</ele><time>2026-04-06T09:20:28.057Z</time></trkpt><trkpt lat="45.5040304272757" lon="10.336867406203329"><ele>146.0</ele><time>2026-04-06T09:20:29.057Z</time></trkpt><trkpt lat="45.50417645599096" lon="10.337002673990929"><ele>146.0</ele><time>2026-04-06T09:20:30.057Z</time></trkpt><trkpt lat="45.50432226003645" lon="10.337136230988893"><ele>146.0</ele><time>2026-04-06T09:20:31.057Z</time></trkpt><trkpt lat="45.50446535523816" lon="10.337278053062155"><ele>146.66666666666666</ele><time>2026-04-06T09:20:32.057Z</time></trkpt><trkpt lat="45.504608868493904" lon="10.337408510462843"><ele>147.33333333333334</ele><time>2026-04-06T09:20:33.057Z</time></trkpt><trkpt lat="45.504734275989684" lon="10.337528457323335"><ele>148.0</ele><time>2026-04-06T09:20:34.057Z</time></trkpt><trkpt lat="45.50485507389576" lon="10.337654474980512"><ele>148.0</ele><time>2026-04-06T09:20:35.057Z</time></trkpt><trkpt lat="45.50498107320725" lon="10.337777523667729"><ele>148.0</ele><time>2026-04-06T09:20:36.057Z</time></trkpt><trkpt lat="45.50511273244876" lon="10.337903628372683"><ele>148.0</ele><time>2026-04-06T09:20:37.057Z</time></trkpt><trkpt lat="45.50524742001585" lon="10.338025312029117"><ele>148.0</ele><time>2026-04-06T09:20:38.057Z</time></trkpt><trkpt lat="45.5053801978551" lon="10.338149052306937"><ele>148.0</ele><time>2026-04-06T09:20:39.057Z</time></trkpt><trkpt lat="45.505513469679926" lon="10.33828399277023"><ele>148.0</ele><time>2026-04-06T09:20:40.057Z</time></trkpt><trkpt lat="45.50564653768311" lon="10.338410975835894"><ele>148.0</ele><time>2026-04-06T09:20:41.057Z</time></trkpt><trkpt lat="45.505783439837785" lon="10.338538593149389"><ele>148.0</ele><time>2026-04-06T09:20:42.057Z</time></trkpt><trkpt lat="45.50592021674889" lon="10.3386558057693"><ele>148.0</ele><time>2026-04-06T09:20:43.057Z</time></trkpt><trkpt lat="45.50604295820867" lon="10.338777101347457"><ele>148.0</ele><time>2026-04-06T09:20:44.057Z</time></trkpt><trkpt lat="45.50617448753868" lon="10.33890179338708"><ele>148.0</ele><time>2026-04-06T09:20:45.057Z</time></trkpt><trkpt lat="45.506308596492126" lon="10.339029463841458"><ele>148.0</ele><time>2026-04-06T09:20:46.057Z</time></trkpt><trkpt lat="45.50643900588218" lon="10.339155127852127"><ele>147.66666666666669</ele><time>2026-04-06T09:20:47.057Z</time></trkpt><trkpt lat="45.50656801760927" lon="10.339272836126836"><ele>147.33333333333334</ele><time>2026-04-06T09:20:48.057Z</time></trkpt><trkpt lat="45.506690417455125" lon="10.339406579581853"><ele>147.0</ele><time>2026-04-06T09:20:49.057Z</time></trkpt><trkpt lat="45.50682420578698" lon="10.339540855760275"><ele>147.0</ele><time>2026-04-06T09:20:50.057Z</time></trkpt><trkpt lat="45.506966225559914" lon="10.339663028220569"><ele>147.0</ele><time>2026-04-06T09:20:51.057Z</time></trkpt><trkpt lat="45.507090104948006" lon="10.339778422410474"><ele>147.0</ele><time>2026-04-06T09:20:52.057Z</time></trkpt><trkpt lat="45.50720795114882" lon="10.339893045814536"><ele>148.33333333333334</ele><time>2026-04-06T09:20:53.057Z</time></trkpt><trkpt lat="45.50734070752566" lon="10.3400144044355"><ele>149.66666666666669</ele><time>2026-04-06T09:20:54.057Z</time></trkpt><trkpt lat="45.50748184654929" lon="10.340139579390566"><ele>151.0</ele><time>2026-04-06T09:20:55.057Z</time></trkpt><trkpt lat="45.507628708762105" lon="10.340272997984641"><ele>151.0</ele><time>2026-04-06T09:20:56.057Z</time></trkpt><trkpt lat="45.50778319937475" lon="10.340420577438437"><ele>151.0</ele><time>2026-04-06T09:20:57.057Z</time></trkpt><trkpt lat="45.50795670551657" lon="10.340582803259723"><ele>151.0</ele><time>2026-04-06T09:20:58.057Z</time></trkpt><trkpt lat="45.508128876549385" lon="10.340750276179572"><ele>149.0</ele><time>2026-04-06T09:20:59.057Z</time></trkpt><trkpt lat="45.50829070982082" lon="10.34090461379753"><ele>147.0</ele><time>2026-04-06T09:21:00.057Z</time></trkpt><trkpt lat="45.50844722218992" lon="10.341052852773336"><ele>145.0</ele><time>2026-04-06T09:21:01.057Z</time></trkpt><trkpt lat="45.508610748586165" lon="10.341209897201074"><ele>146.0</ele><time>2026-04-06T09:21:02.057Z</time></trkpt><trkpt lat="45.50876166440342" lon="10.341400183975791"><ele>147.0</ele><time>2026-04-06T09:21:03.057Z</time></trkpt><trkpt lat="45.50891584110707" lon="10.341581869956837"><ele>148.0</ele><time>2026-04-06T09:21:04.057Z</time></trkpt><trkpt lat="45.509072749180014" lon="10.341751839902578"><ele>148.0</ele><time>2026-04-06T09:21:05.057Z</time></trkpt><trkpt lat="45.509193151432015" lon="10.341953308892954"><ele>148.0</ele><time>2026-04-06T09:21:06.057Z</time></trkpt><trkpt lat="45.50931417869379" lon="10.342133090918177"><ele>148.0</ele><time>2026-04-06T09:21:07.057Z</time></trkpt><trkpt lat="45.50944101174801" lon="10.342320716579085"><ele>148.33333333333334</ele><time>2026-04-06T09:21:08.057Z</time></trkpt><trkpt lat="45.50955386847554" lon="10.342511801103734"><ele>148.66666666666666</ele><time>2026-04-06T09:21:09.057Z</time></trkpt><trkpt lat="45.509657752889304" lon="10.342693974278044"><ele>149.0</ele><time>2026-04-06T09:21:10.057Z</time></trkpt><trkpt lat="45.5097568594886" lon="10.342878428387179"><ele>149.33333333333331</ele><time>2026-04-06T09:21:11.057Z</time></trkpt><trkpt lat="45.50984940621284" lon="10.343079365387682"><ele>149.66666666666666</ele><time>2026-04-06T09:21:12.057Z</time></trkpt><trkpt lat="45.50993874794661" lon="10.343291703520524"><ele>150.0</ele><time>2026-04-06T09:21:13.057Z</time></trkpt><trkpt lat="45.51003481845781" lon="10.3435138273977"><ele>150.0</ele><time>2026-04-06T09:21:14.057Z</time></trkpt><trkpt lat="45.51013471222056" lon="10.3437460959292"><ele>150.0</ele><time>2026-04-06T09:21:15.057Z</time></trkpt><trkpt lat="45.51021999691759" lon="10.34396990339015"><ele>150.0</ele><time>2026-04-06T09:21:16.057Z</time></trkpt><trkpt lat="45.51030362757778" lon="10.34418765357866"><ele>150.0</ele><time>2026-04-06T09:21:17.057Z</time></trkpt><trkpt lat="45.5103956664735" lon="10.34442601161735"><ele>150.0</ele><time>2026-04-06T09:21:18.057Z</time></trkpt><trkpt lat="45.51050352728689" lon="10.34467239312353"><ele>150.0</ele><time>2026-04-06T09:21:19.057Z</time></trkpt><trkpt lat="45.510609580273695" lon="10.344936689902553"><ele>150.0</ele><time>2026-04-06T09:21:20.057Z</time></trkpt><trkpt lat="45.51071582608472" lon="10.345204923898814"><ele>150.0</ele><time>2026-04-06T09:21:21.057Z</time></trkpt><trkpt lat="45.51081397025523" lon="10.345457158419006"><ele>150.0</ele><time>2026-04-06T09:21:22.057Z</time></trkpt><trkpt lat="45.510903362161145" lon="10.345688297653084"><ele>150.0</ele><time>2026-04-06T09:21:23.057Z</time></trkpt><trkpt lat="45.51099026888375" lon="10.345892866589123"><ele>150.0</ele><time>2026-04-06T09:21:24.057Z</time></trkpt><trkpt lat="45.51105343478825" lon="10.346056354205237"><ele>150.0</ele><time>2026-04-06T09:21:25.057Z</time></trkpt><trkpt lat="45.51110827876535" lon="10.346200116269266"><ele>150.0</ele><time>2026-04-06T09:21:26.057Z</time></trkpt><trkpt lat="45.51116019878269" lon="10.346338836789219"><ele>150.6</ele><time>2026-04-06T09:21:27.057Z</time></trkpt><trkpt lat="45.511210969522146" lon="10.346472938693116"><ele>151.2</ele><time>2026-04-06T09:21:28.057Z</time></trkpt><trkpt lat="45.5112650016069" lon="10.346599288471905"><ele>151.8</ele><time>2026-04-06T09:21:29.057Z</time></trkpt><trkpt lat="45.51130831653842" lon="10.346723311484768"><ele>152.4</ele><time>2026-04-06T09:21:30.057Z</time></trkpt><trkpt lat="45.511351280641755" lon="10.346843226890432"><ele>153.0</ele><time>2026-04-06T09:21:31.057Z</time></trkpt><trkpt lat="45.5113979979369" lon="10.346970383712659"><ele>153.0</ele><time>2026-04-06T09:21:32.057Z</time></trkpt><trkpt lat="45.511447532129694" lon="10.347102087609988"><ele>153.0</ele><time>2026-04-06T09:21:33.057Z</time></trkpt><trkpt lat="45.511495241917785" lon="10.347232139536363"><ele>153.0</ele><time>2026-04-06T09:21:34.057Z</time></trkpt><trkpt lat="45.51154256818479" lon="10.347355839617865"><ele>153.0</ele><time>2026-04-06T09:21:35.057Z</time></trkpt><trkpt lat="45.511579481448344" lon="10.347465165905229"><ele>153.0</ele><time>2026-04-06T09:21:36.057Z</time></trkpt><trkpt lat="45.51161424192733" lon="10.34756718440428"><ele>152.83333333333334</ele><time>2026-04-06T09:21:37.057Z</time></trkpt><trkpt lat="45.51164594562483" lon="10.347662893055691"><ele>152.66666666666666</ele><time>2026-04-06T09:21:38.057Z</time></trkpt><trkpt lat="45.511673214215854" lon="10.347756862070613"><ele>152.5</ele><time>2026-04-06T09:21:39.057Z</time></trkpt><trkpt lat="45.51170465076178" lon="10.347851962969404"><ele>152.33333333333331</ele><time>2026-04-06T09:21:40.057Z</time></trkpt><trkpt lat="45.51173993782274" lon="10.347953538487667"><ele>152.16666666666666</ele><time>2026-04-06T09:21:41.057Z</time></trkpt><trkpt lat="45.51177160764319" lon="10.348062216284202"><ele>152.0</ele><time>2026-04-06T09:21:42.057Z</time></trkpt><trkpt lat="45.51180243268187" lon="10.348162796512533"><ele>151.5</ele><time>2026-04-06T09:21:43.057Z</time></trkpt><trkpt lat="45.51183810274632" lon="10.348256499270327"><ele>151.0</ele><time>2026-04-06T09:21:44.057Z</time></trkpt><trkpt lat="45.51186887906896" lon="10.348366337962142"><ele>150.5</ele><time>2026-04-06T09:21:45.056Z</time></trkpt><trkpt lat="45.51190027321645" lon="10.348488590090621"><ele>150.0</ele><time>2026-04-06T09:21:46.056Z</time></trkpt><trkpt lat="45.511928724133796" lon="10.348600937330529"><ele>149.5</ele><time>2026-04-06T09:21:47.056Z</time></trkpt><trkpt lat="45.511954730850526" lon="10.34871099567948"><ele>149.0</ele><time>2026-04-06T09:21:48.056Z</time></trkpt><trkpt lat="45.51198762687701" lon="10.348839154098073"><ele>149.6</ele><time>2026-04-06T09:21:49.056Z</time></trkpt><trkpt lat="45.51202459586083" lon="10.348980142235362"><ele>150.2</ele><time>2026-04-06T09:21:50.056Z</time></trkpt><trkpt lat="45.51206499387539" lon="10.349138244755203"><ele>150.79999999999998</ele><time>2026-04-06T09:21:51.056Z</time></trkpt><trkpt lat="45.512093987626486" lon="10.349285163399323"><ele>151.4</ele><time>2026-04-06T09:21:52.056Z</time></trkpt><trkpt lat="45.51212534004695" lon="10.34942765772137"><ele>152.0</ele><time>2026-04-06T09:21:53.056Z</time></trkpt><trkpt lat="45.51215152946644" lon="10.34956010877424"><ele>152.0</ele><time>2026-04-06T09:21:54.056Z</time></trkpt><trkpt lat="45.51217464487981" lon="10.349682726040925"><ele>152.0</ele><time>2026-04-06T09:21:55.056Z</time></trkpt><trkpt lat="45.512200416953675" lon="10.349806159033719"><ele>152.0</ele><time>2026-04-06T09:21:56.056Z</time></trkpt><trkpt lat="45.512225555996714" lon="10.349926728037028"><ele>152.0</ele><time>2026-04-06T09:21:57.056Z</time></trkpt><trkpt lat="45.512244762222075" lon="10.35005409076522"><ele>152.0</ele><time>2026-04-06T09:21:58.056Z</time></trkpt><trkpt lat="45.51226538131626" lon="10.35018485563151"><ele>152.0</ele><time>2026-04-06T09:21:59.056Z</time></trkpt><trkpt lat="45.5122911932422" lon="10.350327037142605"><ele>152.0</ele><time>2026-04-06T09:22:00.056Z</time></trkpt><trkpt lat="45.512312457575" lon="10.350461418195577"><ele>152.0</ele><time>2026-04-06T09:22:01.056Z</time></trkpt><trkpt lat="45.51233331644418" lon="10.350595018128223"><ele>152.0</ele><time>2026-04-06T09:22:02.056Z</time></trkpt><trkpt lat="45.51234845317349" lon="10.350722491959354"><ele>152.0</ele><time>2026-04-06T09:22:03.056Z</time></trkpt><trkpt lat="45.51236486019677" lon="10.350863534531122"><ele>152.25</ele><time>2026-04-06T09:22:04.056Z</time></trkpt><trkpt lat="45.51238126487701" lon="10.35101285704567"><ele>152.5</ele><time>2026-04-06T09:22:05.056Z</time></trkpt><trkpt lat="45.51239982844825" lon="10.351176900658793"><ele>152.75</ele><time>2026-04-06T09:22:06.056Z</time></trkpt><trkpt lat="45.5124331894202" lon="10.351359761570949"><ele>153.0</ele><time>2026-04-06T09:22:07.056Z</time></trkpt><trkpt lat="45.51245477052206" lon="10.35158551925362"><ele>153.0</ele><time>2026-04-06T09:22:08.056Z</time></trkpt><trkpt lat="45.51249708669077" lon="10.351824887687098"><ele>153.0</ele><time>2026-04-06T09:22:09.056Z</time></trkpt><trkpt lat="45.51253351521053" lon="10.352059254232728"><ele>153.0</ele><time>2026-04-06T09:22:10.056Z</time></trkpt><trkpt lat="45.51256131940404" lon="10.352266357089702"><ele>152.75</ele><time>2026-04-06T09:22:11.056Z</time></trkpt><trkpt lat="45.512590971690905" lon="10.35245574673925"><ele>152.5</ele><time>2026-04-06T09:22:12.056Z</time></trkpt><trkpt lat="45.512618338762984" lon="10.35263026762792"><ele>152.25</ele><time>2026-04-06T09:22:13.056Z</time></trkpt><trkpt lat="45.51264189868498" lon="10.35279065324011"><ele>152.0</ele><time>2026-04-06T09:22:14.056Z</time></trkpt><trkpt lat="45.51266668231548" lon="10.352960947035186"><ele>152.0</ele><time>2026-04-06T09:22:15.056Z</time></trkpt><trkpt lat="45.51269451694936" lon="10.353138658240429"><ele>152.0</ele><time>2026-04-06T09:22:16.056Z</time></trkpt><trkpt lat="45.512723327569276" lon="10.353308675529608"><ele>152.0</ele><time>2026-04-06T09:22:17.056Z</time></trkpt><trkpt lat="45.51274180866288" lon="10.3534588335186"><ele>152.0</ele><time>2026-04-06T09:22:18.056Z</time></trkpt><trkpt lat="45.512768476169676" lon="10.353620313845779"><ele>152.0</ele><time>2026-04-06T09:22:19.056Z</time></trkpt><trkpt lat="45.512785641254936" lon="10.353786909199814"><ele>152.0</ele><time>2026-04-06T09:22:20.056Z</time></trkpt><trkpt lat="45.51281032437384" lon="10.3539711629702"><ele>152.0</ele><time>2026-04-06T09:22:21.056Z</time></trkpt><trkpt lat="45.512837608430964" lon="10.354154611861626"><ele>152.0</ele><time>2026-04-06T09:22:22.056Z</time></trkpt><trkpt lat="45.51286679703632" lon="10.35434980662628"><ele>152.25</ele><time>2026-04-06T09:22:23.056Z</time></trkpt><trkpt lat="45.51289429727052" lon="10.354544011852285"><ele>152.5</ele><time>2026-04-06T09:22:24.056Z</time></trkpt><trkpt lat="45.512926004627104" lon="10.354726357466452"><ele>152.75</ele><time>2026-04-06T09:22:25.056Z</time></trkpt><trkpt lat="45.512949672242314" lon="10.354893112415454"><ele>153.0</ele><time>2026-04-06T09:22:26.056Z</time></trkpt><trkpt lat="45.51297332937623" lon="10.355051910006363"><ele>153.0</ele><time>2026-04-06T09:22:27.056Z</time></trkpt><trkpt lat="45.51299891169511" lon="10.355209448082714"><ele>153.0</ele><time>2026-04-06T09:22:28.056Z</time></trkpt><trkpt lat="45.51302111293765" lon="10.355351641486354"><ele>153.0</ele><time>2026-04-06T09:22:29.056Z</time></trkpt><trkpt lat="45.51304191191173" lon="10.355492959509968"><ele>153.0</ele><time>2026-04-06T09:22:30.056Z</time></trkpt><trkpt lat="45.51306300217873" lon="10.35562882346588"><ele>153.0</ele><time>2026-04-06T09:22:31.056Z</time></trkpt><trkpt lat="45.51308554117716" lon="10.35577783054416"><ele>153.0</ele><time>2026-04-06T09:22:32.056Z</time></trkpt><trkpt lat="45.5131078344188" lon="10.355938382913159"><ele>153.0</ele><time>2026-04-06T09:22:33.056Z</time></trkpt><trkpt lat="45.51312862389154" lon="10.356098225536684"><ele>153.0</ele><time>2026-04-06T09:22:34.056Z</time></trkpt><trkpt lat="45.51315892811618" lon="10.356267122056416"><ele>153.0</ele><time>2026-04-06T09:22:35.056Z</time></trkpt><trkpt lat="45.51318151570611" lon="10.356439937333768"><ele>153.0</ele><time>2026-04-06T09:22:36.056Z</time></trkpt><trkpt lat="45.513226185416976" lon="10.356673727944399"><ele>153.0</ele><time>2026-04-06T09:22:37.056Z</time></trkpt><trkpt lat="45.5132570104085" lon="10.35693897376576"><ele>153.0</ele><time>2026-04-06T09:22:38.056Z</time></trkpt><trkpt lat="45.513272627595605" lon="10.357190593532687"><ele>153.66666666666666</ele><time>2026-04-06T09:22:39.056Z</time></trkpt><trkpt lat="45.51330232100055" lon="10.357422028201189"><ele>154.33333333333331</ele><time>2026-04-06T09:22:40.056Z</time></trkpt><trkpt lat="45.51331810643943" lon="10.357637398720628"><ele>155.0</ele><time>2026-04-06T09:22:41.056Z</time></trkpt><trkpt lat="45.513344110866036" lon="10.357875560315518"><ele>154.33333333333331</ele><time>2026-04-06T09:22:42.056Z</time></trkpt><trkpt lat="45.51337132282336" lon="10.358139602603844"><ele>153.66666666666666</ele><time>2026-04-06T09:22:43.056Z</time></trkpt><trkpt lat="45.51339688777404" lon="10.358405958039866"><ele>153.0</ele><time>2026-04-06T09:22:44.056Z</time></trkpt><trkpt lat="45.51342608771758" lon="10.358679762674438"><ele>153.66666666666666</ele><time>2026-04-06T09:22:45.056Z</time></trkpt><trkpt lat="45.51345961169203" lon="10.358952111701592"><ele>154.33333333333331</ele><time>2026-04-06T09:22:46.056Z</time></trkpt><trkpt lat="45.51347840945349" lon="10.359202765518125"><ele>155.0</ele><time>2026-04-06T09:22:47.056Z</time></trkpt><trkpt lat="45.513494531001776" lon="10.359438779063662"><ele>155.0</ele><time>2026-04-06T09:22:48.056Z</time></trkpt><trkpt lat="45.51352450811225" lon="10.359680140542329"><ele>155.0</ele><time>2026-04-06T09:22:49.056Z</time></trkpt><trkpt lat="45.51355186004293" lon="10.359926313722497"><ele>155.0</ele><time>2026-04-06T09:22:50.056Z</time></trkpt><trkpt lat="45.5135736065391" lon="10.360178648747713"><ele>154.33333333333331</ele><time>2026-04-06T09:22:51.056Z</time></trkpt><trkpt lat="45.51360685561446" lon="10.360439813282266"><ele>153.66666666666666</ele><time>2026-04-06T09:22:52.056Z</time></trkpt><trkpt lat="45.51363183538021" lon="10.360713425629427"><ele>153.0</ele><time>2026-04-06T09:22:53.056Z</time></trkpt><trkpt lat="45.51366249464015" lon="10.360974604054636"><ele>153.0</ele><time>2026-04-06T09:22:54.056Z</time></trkpt><trkpt lat="45.51368981633184" lon="10.361233684225656"><ele>153.0</ele><time>2026-04-06T09:22:55.056Z</time></trkpt><trkpt lat="45.51371563778319" lon="10.36147355538297"><ele>153.0</ele><time>2026-04-06T09:22:56.056Z</time></trkpt><trkpt lat="45.513750967085876" lon="10.36170626964408"><ele>154.33333333333334</ele><time>2026-04-06T09:22:57.056Z</time></trkpt><trkpt lat="45.51378920305362" lon="10.361924440335777"><ele>155.66666666666669</ele><time>2026-04-06T09:22:58.056Z</time></trkpt><trkpt lat="45.513843215942615" lon="10.36214644068217"><ele>157.0</ele><time>2026-04-06T09:22:59.056Z</time></trkpt><trkpt lat="45.51389678075351" lon="10.362354088151548"><ele>157.0</ele><time>2026-04-06T09:23:00.056Z</time></trkpt><trkpt lat="45.513958522144975" lon="10.36256016933807"><ele>157.0</ele><time>2026-04-06T09:23:01.056Z</time></trkpt><trkpt lat="45.5140286741994" lon="10.362774911101138"><ele>157.0</ele><time>2026-04-06T09:23:02.056Z</time></trkpt><trkpt lat="45.51411468117258" lon="10.362985039156435"><ele>156.33333333333334</ele><time>2026-04-06T09:23:03.056Z</time></trkpt><trkpt lat="45.51420774099327" lon="10.36318028895858"><ele>155.66666666666666</ele><time>2026-04-06T09:23:04.056Z</time></trkpt><trkpt lat="45.51430906157456" lon="10.363381169741492"><ele>155.0</ele><time>2026-04-06T09:23:05.056Z</time></trkpt><trkpt lat="45.51440940994891" lon="10.363574101248197"><ele>155.0</ele><time>2026-04-06T09:23:06.056Z</time></trkpt><trkpt lat="45.514510625311836" lon="10.363785939288064"><ele>155.0</ele><time>2026-04-06T09:23:07.056Z</time></trkpt><trkpt lat="45.51463452371645" lon="10.363955741605615"><ele>155.0</ele><time>2026-04-06T09:23:08.056Z</time></trkpt><trkpt lat="45.5147564997057" lon="10.364112169109903"><ele>155.33333333333331</ele><time>2026-04-06T09:23:09.056Z</time></trkpt><trkpt lat="45.5148886951996" lon="10.36425710366947"><ele>155.66666666666666</ele><time>2026-04-06T09:23:10.056Z</time></trkpt><trkpt lat="45.515023138884914" lon="10.364400514230324"><ele>156.0</ele><time>2026-04-06T09:23:11.056Z</time></trkpt><trkpt lat="45.515164796067175" lon="10.364536384102761"><ele>156.0</ele><time>2026-04-06T09:23:12.056Z</time></trkpt><trkpt lat="45.51531962926514" lon="10.364682263200882"><ele>156.0</ele><time>2026-04-06T09:23:13.056Z</time></trkpt><trkpt lat="45.515484238283456" lon="10.364840485224313"><ele>156.0</ele><time>2026-04-06T09:23:14.056Z</time></trkpt><trkpt lat="45.51565514894649" lon="10.365005548372077"><ele>156.33333333333334</ele><time>2026-04-06T09:23:15.056Z</time></trkpt><trkpt lat="45.51581980202311" lon="10.365172426606874"><ele>156.66666666666669</ele><time>2026-04-06T09:23:16.056Z</time></trkpt><trkpt lat="45.5159797382453" lon="10.36532778845273"><ele>157.0</ele><time>2026-04-06T09:23:17.056Z</time></trkpt><trkpt lat="45.51613535405231" lon="10.36548183029533"><ele>157.0</ele><time>2026-04-06T09:23:18.056Z</time></trkpt><trkpt lat="45.516294454676085" lon="10.365639186311768"><ele>157.0</ele><time>2026-04-06T09:23:19.056Z</time></trkpt><trkpt lat="45.516451736035584" lon="10.365800866036812"><ele>157.0</ele><time>2026-04-06T09:23:20.056Z</time></trkpt><trkpt lat="45.51661502275193" lon="10.365962399133066"><ele>157.0</ele><time>2026-04-06T09:23:21.056Z</time></trkpt><trkpt lat="45.51677487985138" lon="10.366120286139823"><ele>157.0</ele><time>2026-04-06T09:23:22.056Z</time></trkpt><trkpt lat="45.51693347570992" lon="10.36627399016921"><ele>157.0</ele><time>2026-04-06T09:23:23.056Z</time></trkpt><trkpt lat="45.51708701026779" lon="10.366422511398468"><ele>157.0</ele><time>2026-04-06T09:23:24.056Z</time></trkpt><trkpt lat="45.51722991854892" lon="10.36658298111893"><ele>157.0</ele><time>2026-04-06T09:23:25.056Z</time></trkpt><trkpt lat="45.51737365983967" lon="10.366728057290121"><ele>157.0</ele><time>2026-04-06T09:23:26.056Z</time></trkpt><trkpt lat="45.5175146892863" lon="10.36687143443032"><ele>157.0</ele><time>2026-04-06T09:23:27.056Z</time></trkpt><trkpt lat="45.517649604656675" lon="10.367008758735956"><ele>157.0</ele><time>2026-04-06T09:23:28.056Z</time></trkpt><trkpt lat="45.51778361785556" lon="10.367134090570291"><ele>157.0</ele><time>2026-04-06T09:23:29.056Z</time></trkpt><trkpt lat="45.51792006801748" lon="10.367277172160783"><ele>157.0</ele><time>2026-04-06T09:23:30.056Z</time></trkpt><trkpt lat="45.51805904448049" lon="10.367415786986124"><ele>157.0</ele><time>2026-04-06T09:23:31.056Z</time></trkpt><trkpt lat="45.51819587032858" lon="10.367561252860808"><ele>157.0</ele><time>2026-04-06T09:23:32.056Z</time></trkpt><trkpt lat="45.518331009355684" lon="10.367717740889018"><ele>157.0</ele><time>2026-04-06T09:23:33.056Z</time></trkpt><trkpt lat="45.51845359873242" lon="10.367882818152845"><ele>157.0</ele><time>2026-04-06T09:23:34.056Z</time></trkpt><trkpt lat="45.518572270045276" lon="10.368032425837562"><ele>157.0</ele><time>2026-04-06T09:23:35.056Z</time></trkpt><trkpt lat="45.51868543157527" lon="10.368177832192089"><ele>157.25</ele><time>2026-04-06T09:23:36.056Z</time></trkpt><trkpt lat="45.518795013586264" lon="10.368322403554004"><ele>157.5</ele><time>2026-04-06T09:23:37.056Z</time></trkpt><trkpt lat="45.51889838168463" lon="10.368470039413687"><ele>157.75</ele><time>2026-04-06T09:23:38.056Z</time></trkpt><trkpt lat="45.519006255731014" lon="10.368623140049518"><ele>158.0</ele><time>2026-04-06T09:23:39.056Z</time></trkpt><trkpt lat="45.51911797335753" lon="10.36878239940599"><ele>158.33333333333331</ele><time>2026-04-06T09:23:40.056Z</time></trkpt><trkpt lat="45.519223704985635" lon="10.368976686673797"><ele>158.66666666666666</ele><time>2026-04-06T09:23:41.056Z</time></trkpt><trkpt lat="45.519345127288204" lon="10.369138558705801"><ele>159.0</ele><time>2026-04-06T09:23:42.056Z</time></trkpt><trkpt lat="45.51945635133928" lon="10.369325551149291"><ele>159.33333333333334</ele><time>2026-04-06T09:23:43.056Z</time></trkpt><trkpt lat="45.51957913939909" lon="10.36951817598314"><ele>159.66666666666669</ele><time>2026-04-06T09:23:44.056Z</time></trkpt><trkpt lat="45.51971774850802" lon="10.369733501840937"><ele>160.0</ele><time>2026-04-06T09:23:45.056Z</time></trkpt><trkpt lat="45.51986645827757" lon="10.369970215027356"><ele>160.0</ele><time>2026-04-06T09:23:46.056Z</time></trkpt><trkpt lat="45.5200210834148" lon="10.370208587664992"><ele>160.0</ele><time>2026-04-06T09:23:47.056Z</time></trkpt><trkpt lat="45.5201559364613" lon="10.370430424425379"><ele>160.0</ele><time>2026-04-06T09:23:48.056Z</time></trkpt><trkpt lat="45.520289568365804" lon="10.370628691993144"><ele>159.66666666666669</ele><time>2026-04-06T09:23:49.056Z</time></trkpt><trkpt lat="45.52041069834697" lon="10.370829614578435"><ele>159.33333333333334</ele><time>2026-04-06T09:23:50.056Z</time></trkpt><trkpt lat="45.52052892427469" lon="10.371010876457188"><ele>159.0</ele><time>2026-04-06T09:23:51.055Z</time></trkpt><trkpt lat="45.52063687116822" lon="10.371185941138913"><ele>159.0</ele><time>2026-04-06T09:23:52.055Z</time></trkpt><trkpt lat="45.520743112872154" lon="10.371355367505073"><ele>159.0</ele><time>2026-04-06T09:23:53.055Z</time></trkpt><trkpt lat="45.520846362973515" lon="10.371510316842828"><ele>159.0</ele><time>2026-04-06T09:23:54.055Z</time></trkpt><trkpt lat="45.52094868120305" lon="10.371669970822765"><ele>159.0</ele><time>2026-04-06T09:23:55.055Z</time></trkpt><trkpt lat="45.52106563007629" lon="10.371854202845663"><ele>159.0</ele><time>2026-04-06T09:23:56.055Z</time></trkpt><trkpt lat="45.521190511466436" lon="10.37205362090935"><ele>159.0</ele><time>2026-04-06T09:23:57.055Z</time></trkpt><trkpt lat="45.52133042510509" lon="10.372268574023801"><ele>159.0</ele><time>2026-04-06T09:23:58.055Z</time></trkpt><trkpt lat="45.521468442076916" lon="10.372493667258668"><ele>159.0</ele><time>2026-04-06T09:23:59.055Z</time></trkpt><trkpt lat="45.52160578523542" lon="10.372706537833615"><ele>159.0</ele><time>2026-04-06T09:24:00.055Z</time></trkpt><trkpt lat="45.52173373714603" lon="10.37291431757977"><ele>160.0</ele><time>2026-04-06T09:24:01.055Z</time></trkpt><trkpt lat="45.52186279350302" lon="10.373123551509652"><ele>161.0</ele><time>2026-04-06T09:24:02.055Z</time></trkpt><trkpt lat="45.52198570268778" lon="10.37332910146528"><ele>162.0</ele><time>2026-04-06T09:24:03.055Z</time></trkpt><trkpt lat="45.52211675835648" lon="10.373534467821994"><ele>162.0</ele><time>2026-04-06T09:24:04.055Z</time></trkpt><trkpt lat="45.52225725110164" lon="10.373751448481743"><ele>162.0</ele><time>2026-04-06T09:24:05.055Z</time></trkpt><trkpt lat="45.522400182975005" lon="10.373986671406161"><ele>162.0</ele><time>2026-04-06T09:24:06.055Z</time></trkpt><trkpt lat="45.522553340604055" lon="10.374252026352979"><ele>161.5</ele><time>2026-04-06T09:24:07.055Z</time></trkpt><trkpt lat="45.52269806023857" lon="10.374547699151979"><ele>161.0</ele><time>2026-04-06T09:24:08.055Z</time></trkpt><trkpt lat="45.522838436502354" lon="10.374846619300829"><ele>161.5</ele><time>2026-04-06T09:24:09.055Z</time></trkpt><trkpt lat="45.522962905769326" lon="10.375154865090968"><ele>162.0</ele><time>2026-04-06T09:24:10.055Z</time></trkpt><trkpt lat="45.523082736038724" lon="10.375437699675206"><ele>162.5</ele><time>2026-04-06T09:24:11.055Z</time></trkpt><trkpt lat="45.52320117164529" lon="10.375708502169275"><ele>163.0</ele><time>2026-04-06T09:24:12.055Z</time></trkpt><trkpt lat="45.52332677721451" lon="10.375981509587001"><ele>163.0</ele><time>2026-04-06T09:24:13.055Z</time></trkpt><trkpt lat="45.5234494172941" lon="10.376260745762405"><ele>163.0</ele><time>2026-04-06T09:24:14.055Z</time></trkpt><trkpt lat="45.52356705739966" lon="10.376524374533595"><ele>163.66666666666669</ele><time>2026-04-06T09:24:15.055Z</time></trkpt><trkpt lat="45.52367856162603" lon="10.37678196223625"><ele>164.33333333333334</ele><time>2026-04-06T09:24:16.055Z</time></trkpt><trkpt lat="45.52379074325078" lon="10.377039241618782"><ele>165.0</ele><time>2026-04-06T09:24:17.055Z</time></trkpt><trkpt lat="45.523903183893744" lon="10.377287636423494"><ele>163.66666666666666</ele><time>2026-04-06T09:24:18.055Z</time></trkpt><trkpt lat="45.52400716087296" lon="10.377511659535799"><ele>162.33333333333331</ele><time>2026-04-06T09:24:19.055Z</time></trkpt><trkpt lat="45.52409363388836" lon="10.377702106846199"><ele>161.0</ele><time>2026-04-06T09:24:20.055Z</time></trkpt><trkpt lat="45.52417570173834" lon="10.377879771462677"><ele>161.0</ele><time>2026-04-06T09:24:21.055Z</time></trkpt><trkpt lat="45.52425061055138" lon="10.378048533140392"><ele>161.0</ele><time>2026-04-06T09:24:22.055Z</time></trkpt><trkpt lat="45.524325169274405" lon="10.378220959677128"><ele>161.0</ele><time>2026-04-06T09:24:23.055Z</time></trkpt><trkpt lat="45.52440557121305" lon="10.378403725444743"><ele>161.0</ele><time>2026-04-06T09:24:24.055Z</time></trkpt><trkpt lat="45.524489759314" lon="10.378597329301106"><ele>161.66666666666666</ele><time>2026-04-06T09:24:25.055Z</time></trkpt><trkpt lat="45.52457701475659" lon="10.378797959766791"><ele>162.33333333333334</ele><time>2026-04-06T09:24:26.055Z</time></trkpt><trkpt lat="45.52466756385663" lon="10.378977146326402"><ele>163.0</ele><time>2026-04-06T09:24:27.055Z</time></trkpt><trkpt lat="45.52474686413244" lon="10.37915626226427"><ele>163.0</ele><time>2026-04-06T09:24:28.055Z</time></trkpt><trkpt lat="45.52481293741737" lon="10.379299553535558"><ele>163.0</ele><time>2026-04-06T09:24:29.055Z</time></trkpt><trkpt lat="45.52485877716362" lon="10.379399191992333"><ele>163.0</ele><time>2026-04-06T09:24:30.055Z</time></trkpt><trkpt lat="45.5249118091505" lon="10.379515434191337"><ele>163.0</ele><time>2026-04-06T09:24:32.055Z</time></trkpt><trkpt lat="45.52496902775387" lon="10.379640536795598"><ele>163.0</ele><time>2026-04-06T09:24:34.055Z</time></trkpt><trkpt lat="45.5250340374594" lon="10.379775687516517"><ele>162.83333333333334</ele><time>2026-04-06T09:24:36.055Z</time></trkpt><trkpt lat="45.52507008898538" lon="10.379864573243948"><ele>162.66666666666669</ele><time>2026-04-06T09:24:37.055Z</time></trkpt><trkpt lat="45.52510446082915" lon="10.379957500157767"><ele>162.5</ele><time>2026-04-06T09:24:38.055Z</time></trkpt><trkpt lat="45.5251600776109" lon="10.380065528840206"><ele>162.33333333333334</ele><time>2026-04-06T09:24:39.055Z</time></trkpt><trkpt lat="45.52521612624796" lon="10.38018411493883"><ele>162.16666666666666</ele><time>2026-04-06T09:24:40.055Z</time></trkpt><trkpt lat="45.525274820455586" lon="10.38031493796363"><ele>162.0</ele><time>2026-04-06T09:24:41.055Z</time></trkpt><trkpt lat="45.525333046362405" lon="10.380456552460354"><ele>162.5</ele><time>2026-04-06T09:24:42.055Z</time></trkpt><trkpt lat="45.52539649269368" lon="10.38060406156399"><ele>163.0</ele><time>2026-04-06T09:24:43.055Z</time></trkpt><trkpt lat="45.52546049855299" lon="10.380759057816435"><ele>163.5</ele><time>2026-04-06T09:24:44.055Z</time></trkpt><trkpt lat="45.525538769128346" lon="10.380928524373276"><ele>164.0</ele><time>2026-04-06T09:24:45.055Z</time></trkpt><trkpt lat="45.52561548414743" lon="10.381091952325548"><ele>164.0</ele><time>2026-04-06T09:24:46.055Z</time></trkpt><trkpt lat="45.52569074573047" lon="10.381254105871767"><ele>164.0</ele><time>2026-04-06T09:24:47.055Z</time></trkpt><trkpt lat="45.525762436342205" lon="10.381409795040465"><ele>164.0</ele><time>2026-04-06T09:24:48.055Z</time></trkpt><trkpt lat="45.52582494144793" lon="10.381549565274145"><ele>164.0</ele><time>2026-04-06T09:24:49.055Z</time></trkpt><trkpt lat="45.52588633651516" lon="10.381684270792062"><ele>164.16666666666666</ele><time>2026-04-06T09:24:50.055Z</time></trkpt><trkpt lat="45.52593815842472" lon="10.381802578664686"><ele>164.33333333333331</ele><time>2026-04-06T09:24:51.055Z</time></trkpt><trkpt lat="45.52597990767803" lon="10.38190285099416"><ele>164.5</ele><time>2026-04-06T09:24:52.055Z</time></trkpt><trkpt lat="45.52602392713526" lon="10.381998097180341"><ele>164.66666666666666</ele><time>2026-04-06T09:24:53.055Z</time></trkpt><trkpt lat="45.52607158299508" lon="10.38210469995755"><ele>164.83333333333334</ele><time>2026-04-06T09:24:54.055Z</time></trkpt><trkpt lat="45.52611937840767" lon="10.382226505107733"><ele>165.0</ele><time>2026-04-06T09:24:55.055Z</time></trkpt><trkpt lat="45.52617159978828" lon="10.38235441301734"><ele>165.2</ele><time>2026-04-06T09:24:56.055Z</time></trkpt><trkpt lat="45.52622023963399" lon="10.38248068992473"><ele>165.4</ele><time>2026-04-06T09:24:57.055Z</time></trkpt><trkpt lat="45.526275610350126" lon="10.382615412352266"><ele>165.60000000000002</ele><time>2026-04-06T09:24:58.055Z</time></trkpt><trkpt lat="45.52631662778119" lon="10.382740177762653"><ele>165.8</ele><time>2026-04-06T09:24:59.055Z</time></trkpt><trkpt lat="45.52634466446899" lon="10.3828548841102"><ele>166.0</ele><time>2026-04-06T09:25:00.055Z</time></trkpt><trkpt lat="45.52637981784304" lon="10.38295878789471"><ele>165.75</ele><time>2026-04-06T09:25:01.055Z</time></trkpt><trkpt lat="45.526432041785995" lon="10.383088785039819"><ele>165.5</ele><time>2026-04-06T09:25:02.055Z</time></trkpt><trkpt lat="45.52649003675077" lon="10.383245038601471"><ele>165.25</ele><time>2026-04-06T09:25:03.055Z</time></trkpt><trkpt lat="45.52654098986776" lon="10.383429730577115"><ele>165.0</ele><time>2026-04-06T09:25:04.055Z</time></trkpt><trkpt lat="45.52659240568891" lon="10.383603788758291"><ele>165.0</ele><time>2026-04-06T09:25:05.055Z</time></trkpt><trkpt lat="45.52664747314924" lon="10.383756784436102"><ele>165.0</ele><time>2026-04-06T09:25:06.055Z</time></trkpt><trkpt lat="45.526700910428524" lon="10.38392497633823"><ele>165.0</ele><time>2026-04-06T09:25:07.055Z</time></trkpt><trkpt lat="45.52675798103318" lon="10.384104348654366"><ele>165.0</ele><time>2026-04-06T09:25:08.055Z</time></trkpt><trkpt lat="45.52682202608045" lon="10.384304671042877"><ele>165.0</ele><time>2026-04-06T09:25:09.055Z</time></trkpt><trkpt lat="45.52687719845997" lon="10.38448079884519"><ele>165.0</ele><time>2026-04-06T09:25:10.055Z</time></trkpt><trkpt lat="45.52692900101976" lon="10.384646968638798"><ele>165.0</ele><time>2026-04-06T09:25:11.055Z</time></trkpt><trkpt lat="45.52698275898293" lon="10.38482144502037"><ele>165.0</ele><time>2026-04-06T09:25:12.055Z</time></trkpt><trkpt lat="45.52703427686447" lon="10.384995578405725"><ele>165.0</ele><time>2026-04-06T09:25:13.055Z</time></trkpt><trkpt lat="45.52709158384058" lon="10.385191579770988"><ele>165.0</ele><time>2026-04-06T09:25:14.055Z</time></trkpt><trkpt lat="45.527155868465414" lon="10.385400923106662"><ele>165.0</ele><time>2026-04-06T09:25:15.055Z</time></trkpt><trkpt lat="45.527226203172376" lon="10.385615207937237"><ele>165.0</ele><time>2026-04-06T09:25:16.055Z</time></trkpt><trkpt lat="45.527293944209156" lon="10.385831869211433"><ele>165.0</ele><time>2026-04-06T09:25:17.055Z</time></trkpt><trkpt lat="45.52736871773998" lon="10.386075916549224"><ele>165.0</ele><time>2026-04-06T09:25:18.055Z</time></trkpt><trkpt lat="45.527457902923615" lon="10.386358357980484"><ele>165.0</ele><time>2026-04-06T09:25:19.055Z</time></trkpt><trkpt lat="45.52753395196062" lon="10.38661338074776"><ele>165.0</ele><time>2026-04-06T09:25:20.055Z</time></trkpt><trkpt lat="45.52760739272255" lon="10.386854266816336"><ele>165.0</ele><time>2026-04-06T09:25:21.055Z</time></trkpt><trkpt lat="45.52768473633143" lon="10.38709438037239"><ele>165.0</ele><time>2026-04-06T09:25:22.055Z</time></trkpt><trkpt lat="45.5277584762677" lon="10.387325926755913"><ele>165.0</ele><time>2026-04-06T09:25:23.055Z</time></trkpt><trkpt lat="45.52782535417581" lon="10.38754996642082"><ele>165.0</ele><time>2026-04-06T09:25:24.055Z</time></trkpt><trkpt lat="45.527887657352494" lon="10.387759239219237"><ele>165.33333333333334</ele><time>2026-04-06T09:25:25.055Z</time></trkpt><trkpt lat="45.52795093276519" lon="10.38796269851123"><ele>165.66666666666669</ele><time>2026-04-06T09:25:26.055Z</time></trkpt><trkpt lat="45.528013378597926" lon="10.388157833853104"><ele>166.0</ele><time>2026-04-06T09:25:27.055Z</time></trkpt><trkpt lat="45.5280771629142" lon="10.388352073648768"><ele>166.33333333333334</ele><time>2026-04-06T09:25:28.055Z</time></trkpt><trkpt lat="45.52814146757232" lon="10.388557753489899"><ele>166.66666666666666</ele><time>2026-04-06T09:25:29.055Z</time></trkpt><trkpt lat="45.52820734092764" lon="10.388775543937598"><ele>167.0</ele><time>2026-04-06T09:25:30.055Z</time></trkpt><trkpt lat="45.52828880245817" lon="10.389014432857172"><ele>167.33333333333331</ele><time>2026-04-06T09:25:31.055Z</time></trkpt><trkpt lat="45.52837302819208" lon="10.389274184339476"><ele>167.66666666666666</ele><time>2026-04-06T09:25:32.055Z</time></trkpt><trkpt lat="45.5284639484771" lon="10.389552360895923"><ele>168.0</ele><time>2026-04-06T09:25:33.055Z</time></trkpt><trkpt lat="45.52856887451814" lon="10.389843668840847"><ele>168.0</ele><time>2026-04-06T09:25:34.055Z</time></trkpt><trkpt lat="45.52867368209027" lon="10.390153832965378"><ele>168.0</ele><time>2026-04-06T09:25:35.055Z</time></trkpt><trkpt lat="45.52877849557394" lon="10.390471107566173"><ele>167.66666666666666</ele><time>2026-04-06T09:25:36.055Z</time></trkpt><trkpt lat="45.52887464506843" lon="10.39075220035948"><ele>167.33333333333331</ele><time>2026-04-06T09:25:37.055Z</time></trkpt><trkpt lat="45.5289529526134" lon="10.391026724287872"><ele>167.0</ele><time>2026-04-06T09:25:38.055Z</time></trkpt><trkpt lat="45.52904744394942" lon="10.391260821191919"><ele>168.0</ele><time>2026-04-06T09:25:39.055Z</time></trkpt><trkpt lat="45.52912773447013" lon="10.391495423292989"><ele>169.0</ele><time>2026-04-06T09:25:40.055Z</time></trkpt><trkpt lat="45.52920455274455" lon="10.391736789212983"><ele>170.0</ele><time>2026-04-06T09:25:41.055Z</time></trkpt><trkpt lat="45.52929712018757" lon="10.391991863347398"><ele>169.33333333333331</ele><time>2026-04-06T09:25:42.055Z</time></trkpt><trkpt lat="45.52938343800092" lon="10.392239730999764"><ele>168.66666666666666</ele><time>2026-04-06T09:25:43.055Z</time></trkpt><trkpt lat="45.529464859038654" lon="10.39247362897393"><ele>168.0</ele><time>2026-04-06T09:25:44.055Z</time></trkpt><trkpt lat="45.529543429211174" lon="10.39270030025741"><ele>168.66666666666666</ele><time>2026-04-06T09:25:45.055Z</time></trkpt><trkpt lat="45.529617883706514" lon="10.392914287730564"><ele>169.33333333333331</ele><time>2026-04-06T09:25:46.055Z</time></trkpt><trkpt lat="45.529688982901725" lon="10.393114523417337"><ele>170.0</ele><time>2026-04-06T09:25:47.055Z</time></trkpt><trkpt lat="45.5297603659886" lon="10.393314320734184"><ele>170.33333333333331</ele><time>2026-04-06T09:25:48.055Z</time></trkpt><trkpt lat="45.52981739972889" lon="10.393518177275633"><ele>170.66666666666666</ele><time>2026-04-06T09:25:49.055Z</time></trkpt><trkpt lat="45.529895187530585" lon="10.393742387465892"><ele>171.0</ele><time>2026-04-06T09:25:50.055Z</time></trkpt><trkpt lat="45.529984915040224" lon="10.393943368016966"><ele>170.33333333333334</ele><time>2026-04-06T09:25:51.055Z</time></trkpt><trkpt lat="45.53004829274076" lon="10.394170636880855"><ele>169.66666666666669</ele><time>2026-04-06T09:25:52.055Z</time></trkpt><trkpt lat="45.53013074734406" lon="10.394401061611005"><ele>169.0</ele><time>2026-04-06T09:25:53.055Z</time></trkpt><trkpt lat="45.530208271444955" lon="10.394617707737245"><ele>169.0</ele><time>2026-04-06T09:25:54.055Z</time></trkpt><trkpt lat="45.53027552354143" lon="10.39480162387129"><ele>169.0</ele><time>2026-04-06T09:25:55.055Z</time></trkpt><trkpt lat="45.53035650827686" lon="10.395005888535948"><ele>169.0</ele><time>2026-04-06T09:25:56.055Z</time></trkpt><trkpt lat="45.530426764020106" lon="10.395212229608248"><ele>169.75</ele><time>2026-04-06T09:25:57.055Z</time></trkpt><trkpt lat="45.530502266921985" lon="10.395412840530215"><ele>170.5</ele><time>2026-04-06T09:25:58.055Z</time></trkpt><trkpt lat="45.530569168102424" lon="10.39559788213445"><ele>171.25</ele><time>2026-04-06T09:25:59.055Z</time></trkpt><trkpt lat="45.53062731996941" lon="10.395768512910799"><ele>172.0</ele><time>2026-04-06T09:26:00.055Z</time></trkpt><trkpt lat="45.53068949950453" lon="10.395941017102421"><ele>172.0</ele><time>2026-04-06T09:26:01.055Z</time></trkpt><trkpt lat="45.53076474303184" lon="10.39614183722412"><ele>172.0</ele><time>2026-04-06T09:26:02.055Z</time></trkpt><trkpt lat="45.53085143295301" lon="10.396378112548765"><ele>172.0</ele><time>2026-04-06T09:26:03.055Z</time></trkpt><trkpt lat="45.53093078786131" lon="10.396647586284287"><ele>172.5</ele><time>2026-04-06T09:26:04.055Z</time></trkpt><trkpt lat="45.53104440828251" lon="10.396926928099122"><ele>173.0</ele><time>2026-04-06T09:26:05.055Z</time></trkpt><trkpt lat="45.53114499600344" lon="10.397249539646479"><ele>172.5</ele><time>2026-04-06T09:26:06.055Z</time></trkpt><trkpt lat="45.531265690934305" lon="10.39758870844336"><ele>172.0</ele><time>2026-04-06T09:26:07.055Z</time></trkpt><trkpt lat="45.531404841108056" lon="10.397937398331102"><ele>173.0</ele><time>2026-04-06T09:26:08.055Z</time></trkpt><trkpt lat="45.53153962763394" lon="10.398311959696274"><ele>174.0</ele><time>2026-04-06T09:26:09.055Z</time></trkpt><trkpt lat="45.531656013073096" lon="10.398653961169812"><ele>173.66666666666666</ele><time>2026-04-06T09:26:10.055Z</time></trkpt><trkpt lat="45.5317582857876" lon="10.398938662286284"><ele>173.33333333333331</ele><time>2026-04-06T09:26:11.055Z</time></trkpt><trkpt lat="45.531857002074" lon="10.399207939332898"><ele>173.0</ele><time>2026-04-06T09:26:12.055Z</time></trkpt><trkpt lat="45.53193774205842" lon="10.399467271799468"><ele>172.33333333333331</ele><time>2026-04-06T09:26:13.055Z</time></trkpt><trkpt lat="45.53202375532409" lon="10.399705687938486"><ele>171.66666666666666</ele><time>2026-04-06T09:26:14.055Z</time></trkpt><trkpt lat="45.532102593137715" lon="10.399937178519213"><ele>171.0</ele><time>2026-04-06T09:26:15.055Z</time></trkpt><trkpt lat="45.53217760633642" lon="10.400141711313193"><ele>170.66666666666666</ele><time>2026-04-06T09:26:16.055Z</time></trkpt><trkpt lat="45.532261774316844" lon="10.40037751696037"><ele>170.33333333333331</ele><time>2026-04-06T09:26:17.055Z</time></trkpt><trkpt lat="45.53235617535588" lon="10.40062813541106"><ele>170.0</ele><time>2026-04-06T09:26:18.055Z</time></trkpt><trkpt lat="45.53245516511345" lon="10.400907052476905"><ele>171.0</ele><time>2026-04-06T09:26:19.055Z</time></trkpt><trkpt lat="45.53256743959607" lon="10.4012079994562"><ele>172.0</ele><time>2026-04-06T09:26:20.055Z</time></trkpt><trkpt lat="45.532683999780666" lon="10.401530134595225"><ele>173.0</ele><time>2026-04-06T09:26:21.055Z</time></trkpt><trkpt lat="45.532809646486484" lon="10.401883826918638"><ele>174.0</ele><time>2026-04-06T09:26:22.055Z</time></trkpt><trkpt lat="45.53293974946435" lon="10.402230978224376"><ele>174.0</ele><time>2026-04-06T09:26:23.055Z</time></trkpt><trkpt lat="45.533073297482254" lon="10.40259749201494"><ele>174.0</ele><time>2026-04-06T09:26:24.055Z</time></trkpt><trkpt lat="45.533215679356125" lon="10.402975344360948"><ele>174.5</ele><time>2026-04-06T09:26:25.055Z</time></trkpt><trkpt lat="45.53335675960034" lon="10.403358050519502"><ele>175.0</ele><time>2026-04-06T09:26:26.055Z</time></trkpt><trkpt lat="45.533486927106566" lon="10.40370640047575"><ele>175.0</ele><time>2026-04-06T09:26:27.055Z</time></trkpt><trkpt lat="45.53360598902277" lon="10.404029733355662"><ele>175.0</ele><time>2026-04-06T09:26:28.055Z</time></trkpt><trkpt lat="45.53372815787431" lon="10.404359545587175"><ele>175.5</ele><time>2026-04-06T09:26:29.055Z</time></trkpt><trkpt lat="45.53384926312267" lon="10.404696166967751"><ele>176.0</ele><time>2026-04-06T09:26:30.055Z</time></trkpt><trkpt lat="45.53397486158393" lon="10.405033560007077"><ele>176.0</ele><time>2026-04-06T09:26:31.055Z</time></trkpt><trkpt lat="45.53409978207887" lon="10.405370381903548"><ele>176.0</ele><time>2026-04-06T09:26:32.055Z</time></trkpt><trkpt lat="45.5342219618856" lon="10.40570728185098"><ele>176.0</ele><time>2026-04-06T09:26:33.055Z</time></trkpt><trkpt lat="45.534343439875215" lon="10.406049517688135"><ele>176.0</ele><time>2026-04-06T09:26:34.055Z</time></trkpt><trkpt lat="45.53446961794658" lon="10.406391635266845"><ele>176.5</ele><time>2026-04-06T09:26:35.055Z</time></trkpt><trkpt lat="45.53460143914863" lon="10.406741148565551"><ele>177.0</ele><time>2026-04-06T09:26:36.055Z</time></trkpt><trkpt lat="45.534746264877036" lon="10.407101959148697"><ele>177.0</ele><time>2026-04-06T09:26:37.055Z</time></trkpt><trkpt lat="45.53488150409356" lon="10.407445181420043"><ele>177.0</ele><time>2026-04-06T09:26:38.055Z</time></trkpt><trkpt lat="45.535033200174446" lon="10.407795209280016"><ele>177.0</ele><time>2026-04-06T09:26:39.055Z</time></trkpt><trkpt lat="45.53518025864298" lon="10.408119323462746"><ele>177.0</ele><time>2026-04-06T09:26:40.055Z</time></trkpt><trkpt lat="45.535312407114056" lon="10.40842388048189"><ele>177.5</ele><time>2026-04-06T09:26:41.055Z</time></trkpt><trkpt lat="45.535435897020335" lon="10.408706356797133"><ele>178.0</ele><time>2026-04-06T09:26:42.055Z</time></trkpt><trkpt lat="45.53555596992514" lon="10.408983741672358"><ele>178.0</ele><time>2026-04-06T09:26:43.055Z</time></trkpt><trkpt lat="45.535671483854344" lon="10.4092471079956"><ele>178.0</ele><time>2026-04-06T09:26:44.055Z</time></trkpt><trkpt lat="45.535788473171024" lon="10.409508806761433"><ele>178.0</ele><time>2026-04-06T09:26:45.055Z</time></trkpt><trkpt lat="45.53590853069845" lon="10.409774466821318"><ele>178.0</ele><time>2026-04-06T09:26:46.055Z</time></trkpt><trkpt lat="45.53602668443065" lon="10.410041528383918"><ele>178.0</ele><time>2026-04-06T09:26:47.055Z</time></trkpt><trkpt lat="45.53613502209182" lon="10.41030404823937"><ele>178.0</ele><time>2026-04-06T09:26:48.055Z</time></trkpt><trkpt lat="45.53623612061102" lon="10.410570389146688"><ele>178.0</ele><time>2026-04-06T09:26:49.055Z</time></trkpt><trkpt lat="45.53633228432276" lon="10.410832790139764"><ele>178.0</ele><time>2026-04-06T09:26:50.055Z</time></trkpt><trkpt lat="45.53640304630649" lon="10.411105914090776"><ele>178.0</ele><time>2026-04-06T09:26:51.055Z</time></trkpt><trkpt lat="45.536480445115764" lon="10.411377961781472"><ele>178.0</ele><time>2026-04-06T09:26:52.055Z</time></trkpt><trkpt lat="45.53655075793341" lon="10.41166740836238"><ele>178.0</ele><time>2026-04-06T09:26:53.055Z</time></trkpt><trkpt lat="45.53661980736767" lon="10.411966119819043"><ele>178.0</ele><time>2026-04-06T09:26:54.055Z</time></trkpt><trkpt lat="45.536678957776964" lon="10.412249029046814"><ele>178.66666666666669</ele><time>2026-04-06T09:26:55.055Z</time></trkpt><trkpt lat="45.53672009999581" lon="10.412541077627967"><ele>179.33333333333334</ele><time>2026-04-06T09:26:56.055Z</time></trkpt><trkpt lat="45.53675701321918" lon="10.412851785115121"><ele>180.0</ele><time>2026-04-06T09:26:57.055Z</time></trkpt><trkpt lat="45.53679035489903" lon="10.413176429883569"><ele>180.5</ele><time>2026-04-06T09:26:58.055Z</time></trkpt><trkpt lat="45.536821699840196" lon="10.413505676801172"><ele>181.0</ele><time>2026-04-06T09:26:59.055Z</time></trkpt><trkpt lat="45.53684885286396" lon="10.413839903346085"><ele>181.0</ele><time>2026-04-06T09:27:00.055Z</time></trkpt><trkpt lat="45.53687962781719" lon="10.41416438720721"><ele>181.0</ele><time>2026-04-06T09:27:01.055Z</time></trkpt><trkpt lat="45.53691516703888" lon="10.4144932457389"><ele>181.0</ele><time>2026-04-06T09:27:02.055Z</time></trkpt><trkpt lat="45.53695190211861" lon="10.414818016254284"><ele>181.0</ele><time>2026-04-06T09:27:03.055Z</time></trkpt><trkpt lat="45.53698727413579" lon="10.415141271342655"><ele>181.0</ele><time>2026-04-06T09:27:04.055Z</time></trkpt><trkpt lat="45.537034697598465" lon="10.415461752979313"><ele>181.0</ele><time>2026-04-06T09:27:05.055Z</time></trkpt><trkpt lat="45.537107107373686" lon="10.415787044016756"><ele>181.5</ele><time>2026-04-06T09:27:06.055Z</time></trkpt><trkpt lat="45.537213530690835" lon="10.416110025354216"><ele>182.0</ele><time>2026-04-06T09:27:07.055Z</time></trkpt><trkpt lat="45.537336787727966" lon="10.416410900331881"><ele>182.5</ele><time>2026-04-06T09:27:08.055Z</time></trkpt><trkpt lat="45.537470375771626" lon="10.416682369838963"><ele>183.0</ele><time>2026-04-06T09:27:09.055Z</time></trkpt><trkpt lat="45.53762065615701" lon="10.416940429495167"><ele>182.5</ele><time>2026-04-06T09:27:10.055Z</time></trkpt><trkpt lat="45.53778167612862" lon="10.417178749596637"><ele>182.0</ele><time>2026-04-06T09:27:11.055Z</time></trkpt><trkpt lat="45.53794069629645" lon="10.417399475218659"><ele>181.66666666666666</ele><time>2026-04-06T09:27:12.055Z</time></trkpt><trkpt lat="45.53808989831982" lon="10.417614508628882"><ele>181.33333333333334</ele><time>2026-04-06T09:27:13.055Z</time></trkpt><trkpt lat="45.53822288035719" lon="10.417830127898014"><ele>181.0</ele><time>2026-04-06T09:27:14.055Z</time></trkpt><trkpt lat="45.538355252014206" lon="10.418037327080233"><ele>180.66666666666669</ele><time>2026-04-06T09:27:15.055Z</time></trkpt><trkpt lat="45.53849390507883" lon="10.41824183977395"><ele>180.33333333333334</ele><time>2026-04-06T09:27:16.055Z</time></trkpt><trkpt lat="45.53862732122562" lon="10.418442422693895"><ele>180.0</ele><time>2026-04-06T09:27:17.055Z</time></trkpt><trkpt lat="45.53875608309053" lon="10.418644814782859"><ele>181.33333333333334</ele><time>2026-04-06T09:27:18.055Z</time></trkpt><trkpt lat="45.538885502543586" lon="10.418840460115284"><ele>182.66666666666669</ele><time>2026-04-06T09:27:19.055Z</time></trkpt><trkpt lat="45.53901838960525" lon="10.41905029067171"><ele>184.0</ele><time>2026-04-06T09:27:20.055Z</time></trkpt><trkpt lat="45.539154815705814" lon="10.41924914304314"><ele>184.0</ele><time>2026-04-06T09:27:21.055Z</time></trkpt><trkpt lat="45.539291487515044" lon="10.419449097046067"><ele>184.0</ele><time>2026-04-06T09:27:22.055Z</time></trkpt><trkpt lat="45.53942202244856" lon="10.419632478766335"><ele>184.0</ele><time>2026-04-06T09:27:23.055Z</time></trkpt><trkpt lat="45.539547758639884" lon="10.419811140729001"><ele>183.33333333333334</ele><time>2026-04-06T09:27:24.055Z</time></trkpt><trkpt lat="45.53967310952127" lon="10.419981012297276"><ele>182.66666666666666</ele><time>2026-04-06T09:27:25.055Z</time></trkpt><trkpt lat="45.5397867855043" lon="10.420135727905976"><ele>182.0</ele><time>2026-04-06T09:27:26.055Z</time></trkpt><trkpt lat="45.53990544676896" lon="10.420285624458426"><ele>182.0</ele><time>2026-04-06T09:27:27.055Z</time></trkpt><trkpt lat="45.54002190424815" lon="10.420427966888715"><ele>182.0</ele><time>2026-04-06T09:27:28.055Z</time></trkpt><trkpt lat="45.5401356260627" lon="10.420569294156431"><ele>182.0</ele><time>2026-04-06T09:27:29.055Z</time></trkpt><trkpt lat="45.54024841000803" lon="10.420712779547056"><ele>182.33333333333331</ele><time>2026-04-06T09:27:30.055Z</time></trkpt><trkpt lat="45.54036885564337" lon="10.420854273064045"><ele>182.66666666666666</ele><time>2026-04-06T09:27:31.055Z</time></trkpt><trkpt lat="45.54048024952173" lon="10.42098770457574"><ele>183.0</ele><time>2026-04-06T09:27:32.055Z</time></trkpt><trkpt lat="45.54060010735542" lon="10.421132912248718"><ele>183.33333333333334</ele><time>2026-04-06T09:27:33.055Z</time></trkpt><trkpt lat="45.54071821926652" lon="10.421278060257992"><ele>183.66666666666669</ele><time>2026-04-06T09:27:34.055Z</time></trkpt><trkpt lat="45.54082869728521" lon="10.421415925143947"><ele>184.0</ele><time>2026-04-06T09:27:35.055Z</time></trkpt><trkpt lat="45.5409447183692" lon="10.421554700085416"><ele>183.75</ele><time>2026-04-06T09:27:36.055Z</time></trkpt><trkpt lat="45.54105847712536" lon="10.42169266270222"><ele>183.5</ele><time>2026-04-06T09:27:37.055Z</time></trkpt><trkpt lat="45.54117679943772" lon="10.421829958061673"><ele>183.25</ele><time>2026-04-06T09:27:38.055Z</time></trkpt><trkpt lat="45.541289017783576" lon="10.42196669395397"><ele>183.0</ele><time>2026-04-06T09:27:39.055Z</time></trkpt><trkpt lat="45.5413982516544" lon="10.422111853863292"><ele>183.0</ele><time>2026-04-06T09:27:40.055Z</time></trkpt><trkpt lat="45.541508563134265" lon="10.422250709862995"><ele>183.0</ele><time>2026-04-06T09:27:41.055Z</time></trkpt><trkpt lat="45.54162540451983" lon="10.422388904889845"><ele>183.0</ele><time>2026-04-06T09:27:42.055Z</time></trkpt><trkpt lat="45.541738213776725" lon="10.422525530715525"><ele>183.0</ele><time>2026-04-06T09:27:43.055Z</time></trkpt><trkpt lat="45.541850131990245" lon="10.42266498367282"><ele>183.0</ele><time>2026-04-06T09:27:44.055Z</time></trkpt><trkpt lat="45.54196114988562" lon="10.422803385757348"><ele>183.0</ele><time>2026-04-06T09:27:45.055Z</time></trkpt><trkpt lat="45.54208014119263" lon="10.422936754231552"><ele>183.0</ele><time>2026-04-06T09:27:46.055Z</time></trkpt><trkpt lat="45.54218871536431" lon="10.423068129461555"><ele>183.0</ele><time>2026-04-06T09:27:47.055Z</time></trkpt><trkpt lat="45.54229397822467" lon="10.423193282953298"><ele>183.25</ele><time>2026-04-06T09:27:48.055Z</time></trkpt><trkpt lat="45.54239513665348" lon="10.423320648111787"><ele>183.5</ele><time>2026-04-06T09:27:49.055Z</time></trkpt><trkpt lat="45.5425053078327" lon="10.423443831425276"><ele>183.75</ele><time>2026-04-06T09:27:50.055Z</time></trkpt><trkpt lat="45.54261801390287" lon="10.423575235934575"><ele>184.0</ele><time>2026-04-06T09:27:51.055Z</time></trkpt><trkpt lat="45.54272661134009" lon="10.423717078006225"><ele>183.33333333333334</ele><time>2026-04-06T09:27:52.055Z</time></trkpt><trkpt lat="45.54284094190186" lon="10.423854432395823"><ele>182.66666666666666</ele><time>2026-04-06T09:27:53.055Z</time></trkpt><trkpt lat="45.54295604540135" lon="10.423997350838059"><ele>182.0</ele><time>2026-04-06T09:27:54.055Z</time></trkpt><trkpt lat="45.543079055010296" lon="10.424136974491448"><ele>182.0</ele><time>2026-04-06T09:27:55.055Z</time></trkpt><trkpt lat="45.54319875689031" lon="10.424276123789854"><ele>182.0</ele><time>2026-04-06T09:27:56.055Z</time></trkpt><trkpt lat="45.543310955114706" lon="10.424405067883717"><ele>182.0</ele><time>2026-04-06T09:27:57.055Z</time></trkpt><trkpt lat="45.54341978221502" lon="10.424522848407637"><ele>182.0</ele><time>2026-04-06T09:27:58.055Z</time></trkpt><trkpt lat="45.54353508643592" lon="10.424661973832668"><ele>182.66666666666666</ele><time>2026-04-06T09:27:59.055Z</time></trkpt><trkpt lat="45.54365687776857" lon="10.4248109176662"><ele>183.33333333333334</ele><time>2026-04-06T09:28:00.055Z</time></trkpt><trkpt lat="45.5437865883344" lon="10.424956612895679"><ele>184.0</ele><time>2026-04-06T09:28:01.055Z</time></trkpt><trkpt lat="45.543926518249705" lon="10.425113086663268"><ele>184.33333333333334</ele><time>2026-04-06T09:28:02.055Z</time></trkpt><trkpt lat="45.544062849290725" lon="10.425275307514328"><ele>184.66666666666666</ele><time>2026-04-06T09:28:03.055Z</time></trkpt><trkpt lat="45.544209283390344" lon="10.425446997309507"><ele>185.0</ele><time>2026-04-06T09:28:04.055Z</time></trkpt><trkpt lat="45.544356306761124" lon="10.425640612420539"><ele>185.0</ele><time>2026-04-06T09:28:05.055Z</time></trkpt><trkpt lat="45.54452478701039" lon="10.425825284661238"><ele>185.0</ele><time>2026-04-06T09:28:06.055Z</time></trkpt><trkpt lat="45.544700667032316" lon="10.426023385661678"><ele>185.0</ele><time>2026-04-06T09:28:07.055Z</time></trkpt><trkpt lat="45.544888137409345" lon="10.426243904463723"><ele>186.0</ele><time>2026-04-06T09:28:08.055Z</time></trkpt><trkpt lat="45.54508481504951" lon="10.426472746222286"><ele>187.0</ele><time>2026-04-06T09:28:09.055Z</time></trkpt><trkpt lat="45.54526345100226" lon="10.426703076182122"><ele>187.0</ele><time>2026-04-06T09:28:10.055Z</time></trkpt><trkpt lat="45.54544054830946" lon="10.42693050451827"><ele>187.0</ele><time>2026-04-06T09:28:11.07Z</time></trkpt><trkpt lat="45.545621615899975" lon="10.427148936020691"><ele>188.5</ele><time>2026-04-06T09:28:12.071Z</time></trkpt><trkpt lat="45.54579872592571" lon="10.427370714218634"><ele>190.0</ele><time>2026-04-06T09:28:13.068Z</time></trkpt><trkpt lat="45.5459701507212" lon="10.427597090958637"><ele>190.0</ele><time>2026-04-06T09:28:14.072Z</time></trkpt><trkpt lat="45.54614310307308" lon="10.42781912134785"><ele>190.0</ele><time>2026-04-06T09:28:15.07Z</time></trkpt><trkpt lat="45.54822592994804" lon="10.429537676550861"><ele>189.33333333333334</ele><time>2026-04-06T09:28:38.055Z</time></trkpt><trkpt lat="45.54835366143793" lon="10.429666158958833"><ele>188.66666666666666</ele><time>2026-04-06T09:28:39.055Z</time></trkpt><trkpt lat="45.5484967302265" lon="10.4297750132506"><ele>188.0</ele><time>2026-04-06T09:28:40.055Z</time></trkpt><trkpt lat="45.54863581022156" lon="10.429896789085106"><ele>188.0</ele><time>2026-04-06T09:28:41.055Z</time></trkpt><trkpt lat="45.54879090217614" lon="10.43001204671705"><ele>188.0</ele><time>2026-04-06T09:28:42.055Z</time></trkpt><trkpt lat="45.54893344543511" lon="10.430122417028825"><ele>188.0</ele><time>2026-04-06T09:28:43.055Z</time></trkpt><trkpt lat="45.54907412431596" lon="10.430246143357438"><ele>188.0</ele><time>2026-04-06T09:28:44.055Z</time></trkpt><trkpt lat="45.54922375145995" lon="10.430358918522304"><ele>188.0</ele><time>2026-04-06T09:28:45.055Z</time></trkpt><trkpt lat="45.549388048583225" lon="10.430478335727672"><ele>188.0</ele><time>2026-04-06T09:28:46.055Z</time></trkpt><trkpt lat="45.54955875827118" lon="10.4306114611795"><ele>188.33333333333331</ele><time>2026-04-06T09:28:47.055Z</time></trkpt><trkpt lat="45.54973241091171" lon="10.430747802909664"><ele>188.66666666666666</ele><time>2026-04-06T09:28:48.055Z</time></trkpt><trkpt lat="45.54988534535327" lon="10.43086073805215"><ele>189.0</ele><time>2026-04-06T09:28:49.055Z</time></trkpt><trkpt lat="45.55003190181408" lon="10.430963519288408"><ele>189.0</ele><time>2026-04-06T09:28:50.055Z</time></trkpt><trkpt lat="45.55017559432845" lon="10.431057382721981"><ele>189.0</ele><time>2026-04-06T09:28:51.055Z</time></trkpt><trkpt lat="45.5502991496222" lon="10.43114817936583"><ele>189.0</ele><time>2026-04-06T09:28:52.055Z</time></trkpt><trkpt lat="45.55040974272954" lon="10.431254452718703"><ele>189.0</ele><time>2026-04-06T09:28:53.055Z</time></trkpt><trkpt lat="45.550530660278405" lon="10.43134238591578"><ele>190.0</ele><time>2026-04-06T09:28:54.055Z</time></trkpt><trkpt lat="45.550682648892426" lon="10.431448137677187"><ele>191.0</ele><time>2026-04-06T09:28:55.055Z</time></trkpt><trkpt lat="45.55084439595538" lon="10.431557678494304"><ele>192.0</ele><time>2026-04-06T09:28:56.055Z</time></trkpt><trkpt lat="45.55101432992791" lon="10.431669825354016"><ele>192.0</ele><time>2026-04-06T09:28:57.055Z</time></trkpt><trkpt lat="45.55117331642408" lon="10.431771901225849"><ele>192.0</ele><time>2026-04-06T09:28:58.055Z</time></trkpt><trkpt lat="45.551301543705705" lon="10.431845964187762"><ele>192.0</ele><time>2026-04-06T09:29:00.055Z</time></trkpt><trkpt lat="45.55141352431526" lon="10.43190711689154"><ele>192.0</ele><time>2026-04-06T09:29:01.055Z</time></trkpt><trkpt lat="45.551542032321706" lon="10.432000085916046"><ele>192.0</ele><time>2026-04-06T09:29:02.055Z</time></trkpt><trkpt lat="45.551665034991906" lon="10.432059265635315"><ele>192.0</ele><time>2026-04-06T09:29:03.055Z</time></trkpt><trkpt lat="45.55177967497382" lon="10.432120130711175"><ele>192.0</ele><time>2026-04-06T09:29:04.055Z</time></trkpt><trkpt lat="45.55187670405518" lon="10.432174927827123"><ele>192.0</ele><time>2026-04-06T09:29:05.055Z</time></trkpt><trkpt lat="45.55196189414371" lon="10.432213581582005"><ele>192.0</ele><time>2026-04-06T09:29:06.055Z</time></trkpt><trkpt lat="45.55205488231542" lon="10.43226979739316"><ele>191.5</ele><time>2026-04-06T09:29:07.055Z</time></trkpt><trkpt lat="45.552164099806106" lon="10.432328417834972"><ele>191.0</ele><time>2026-04-06T09:29:08.055Z</time></trkpt><trkpt lat="45.5522928929158" lon="10.432392498026667"><ele>190.5</ele><time>2026-04-06T09:29:09.055Z</time></trkpt><trkpt lat="45.55244501466287" lon="10.43246856901812"><ele>190.0</ele><time>2026-04-06T09:29:10.055Z</time></trkpt><trkpt lat="45.55258821831481" lon="10.432538596089689"><ele>190.0</ele><time>2026-04-06T09:29:11.055Z</time></trkpt><trkpt lat="45.55272247159856" lon="10.432608796463139"><ele>190.0</ele><time>2026-04-06T09:29:12.055Z</time></trkpt><trkpt lat="45.55284464374766" lon="10.43266707623836"><ele>190.0</ele><time>2026-04-06T09:29:13.055Z</time></trkpt><trkpt lat="45.55296282410625" lon="10.432722079348371"><ele>190.0</ele><time>2026-04-06T09:29:14.055Z</time></trkpt><trkpt lat="45.55307881923494" lon="10.43277159735815"><ele>190.0</ele><time>2026-04-06T09:29:15.055Z</time></trkpt><trkpt lat="45.553206475861955" lon="10.432829246302958"><ele>190.0</ele><time>2026-04-06T09:29:16.055Z</time></trkpt><trkpt lat="45.55333203482222" lon="10.432881159533716"><ele>190.0</ele><time>2026-04-06T09:29:17.055Z</time></trkpt><trkpt lat="45.55346844881544" lon="10.432940451074824"><ele>190.0</ele><time>2026-04-06T09:29:18.055Z</time></trkpt><trkpt lat="45.55360516257775" lon="10.432991498885965"><ele>189.75</ele><time>2026-04-06T09:29:19.055Z</time></trkpt><trkpt lat="45.5537306806794" lon="10.433047995221921"><ele>189.5</ele><time>2026-04-06T09:29:20.055Z</time></trkpt><trkpt lat="45.55385021146236" lon="10.433106103987404"><ele>189.25</ele><time>2026-04-06T09:29:21.055Z</time></trkpt><trkpt lat="45.5539664030432" lon="10.433172570501847"><ele>189.0</ele><time>2026-04-06T09:29:22.055Z</time></trkpt><trkpt lat="45.55408988897569" lon="10.433242427875872"><ele>189.0</ele><time>2026-04-06T09:29:23.055Z</time></trkpt><trkpt lat="45.554214847270835" lon="10.433324758269546"><ele>189.0</ele><time>2026-04-06T09:29:24.055Z</time></trkpt><trkpt lat="45.55435334554163" lon="10.433408884597007"><ele>189.0</ele><time>2026-04-06T09:29:25.055Z</time></trkpt><trkpt lat="45.55449434074487" lon="10.433506172324478"><ele>189.0</ele><time>2026-04-06T09:29:26.055Z</time></trkpt><trkpt lat="45.5546537795813" lon="10.433608533794777"><ele>188.66666666666666</ele><time>2026-04-06T09:29:27.055Z</time></trkpt><trkpt lat="45.55481801549722" lon="10.433709008133395"><ele>188.33333333333331</ele><time>2026-04-06T09:29:28.055Z</time></trkpt><trkpt lat="45.55496809529251" lon="10.433799892078385"><ele>188.0</ele><time>2026-04-06T09:29:29.055Z</time></trkpt><trkpt lat="45.5551091593097" lon="10.43389222030459"><ele>188.0</ele><time>2026-04-06T09:29:30.055Z</time></trkpt><trkpt lat="45.555259230110686" lon="10.433978872831558"><ele>188.0</ele><time>2026-04-06T09:29:31.055Z</time></trkpt><trkpt lat="45.55540913355797" lon="10.434072723363787"><ele>188.0</ele><time>2026-04-06T09:29:32.055Z</time></trkpt><trkpt lat="45.555560859598295" lon="10.434180823388946"><ele>189.66666666666666</ele><time>2026-04-06T09:29:33.055Z</time></trkpt><trkpt lat="45.555717138862946" lon="10.434283607150622"><ele>191.33333333333331</ele><time>2026-04-06T09:29:34.055Z</time></trkpt><trkpt lat="45.555881255498946" lon="10.434395062237908"><ele>193.0</ele><time>2026-04-06T09:29:35.055Z</time></trkpt><trkpt lat="45.55606683522508" lon="10.434505932879443"><ele>192.0</ele><time>2026-04-06T09:29:36.055Z</time></trkpt><trkpt lat="45.556258212134516" lon="10.434619843478492"><ele>191.0</ele><time>2026-04-06T09:29:37.055Z</time></trkpt><trkpt lat="45.55642941329264" lon="10.434737686810383"><ele>190.0</ele><time>2026-04-06T09:29:38.055Z</time></trkpt><trkpt lat="45.55659744833375" lon="10.434846157326763"><ele>190.0</ele><time>2026-04-06T09:29:39.055Z</time></trkpt><trkpt lat="45.55676084067341" lon="10.434960416213778"><ele>190.0</ele><time>2026-04-06T09:29:40.055Z</time></trkpt><trkpt lat="45.55692194915505" lon="10.435067720827947"><ele>190.0</ele><time>2026-04-06T09:29:41.055Z</time></trkpt><trkpt lat="45.55709631040926" lon="10.435173489425305"><ele>190.0</ele><time>2026-04-06T09:29:42.055Z</time></trkpt><trkpt lat="45.557274725651645" lon="10.435282351778422"><ele>190.0</ele><time>2026-04-06T09:29:43.055Z</time></trkpt><trkpt lat="45.55745997675763" lon="10.435410873925118"><ele>190.0</ele><time>2026-04-06T09:29:44.055Z</time></trkpt><trkpt lat="45.55765193131247" lon="10.435539278336773"><ele>190.0</ele><time>2026-04-06T09:29:45.055Z</time></trkpt><trkpt lat="45.557855042178254" lon="10.435667982046773"><ele>190.0</ele><time>2026-04-06T09:29:46.055Z</time></trkpt><trkpt lat="45.5580529823068" lon="10.435796633601743"><ele>190.0</ele><time>2026-04-06T09:29:47.055Z</time></trkpt><trkpt lat="45.558236137255896" lon="10.435917949837053"><ele>190.0</ele><time>2026-04-06T09:29:48.055Z</time></trkpt><trkpt lat="45.55841188116193" lon="10.436039716062382"><ele>190.0</ele><time>2026-04-06T09:29:49.055Z</time></trkpt><trkpt lat="45.558584603209894" lon="10.436162239214706"><ele>190.0</ele><time>2026-04-06T09:29:50.055Z</time></trkpt><trkpt lat="45.558758246555826" lon="10.436284638341913"><ele>190.0</ele><time>2026-04-06T09:29:51.055Z</time></trkpt><trkpt lat="45.55893183824101" lon="10.436416751316075"><ele>190.0</ele><time>2026-04-06T09:29:52.055Z</time></trkpt><trkpt lat="45.55910787020329" lon="10.43655301720521"><ele>190.0</ele><time>2026-04-06T09:29:53.055Z</time></trkpt><trkpt lat="45.55928139078458" lon="10.436697897613298"><ele>190.0</ele><time>2026-04-06T09:29:54.055Z</time></trkpt><trkpt lat="45.55945086564003" lon="10.43684255509004"><ele>190.0</ele><time>2026-04-06T09:29:55.055Z</time></trkpt><trkpt lat="45.55962572343582" lon="10.436985924609639"><ele>190.0</ele><time>2026-04-06T09:29:56.055Z</time></trkpt><trkpt lat="45.559798968685335" lon="10.437135815148343"><ele>190.0</ele><time>2026-04-06T09:29:57.055Z</time></trkpt><trkpt lat="45.55997555284778" lon="10.437290662161374"><ele>190.0</ele><time>2026-04-06T09:29:58.055Z</time></trkpt><trkpt lat="45.56014769558063" lon="10.437447370429105"><ele>190.0</ele><time>2026-04-06T09:29:59.055Z</time></trkpt><trkpt lat="45.5603130757633" lon="10.437601080606985"><ele>190.33333333333334</ele><time>2026-04-06T09:30:00.055Z</time></trkpt><trkpt lat="45.56046455893749" lon="10.4377504388623"><ele>190.66666666666666</ele><time>2026-04-06T09:30:01.055Z</time></trkpt><trkpt lat="45.560612785636444" lon="10.437896093401683"><ele>191.0</ele><time>2026-04-06T09:30:02.055Z</time></trkpt><trkpt lat="45.56075645373542" lon="10.438042293846255"><ele>191.0</ele><time>2026-04-06T09:30:03.055Z</time></trkpt><trkpt lat="45.560901946371274" lon="10.438193974076613"><ele>191.0</ele><time>2026-04-06T09:30:04.055Z</time></trkpt><trkpt lat="45.561050810290354" lon="10.438351947455311"><ele>191.0</ele><time>2026-04-06T09:30:05.055Z</time></trkpt><trkpt lat="45.561201497637434" lon="10.438512192903694"><ele>191.0</ele><time>2026-04-06T09:30:06.055Z</time></trkpt><trkpt lat="45.561360289352606" lon="10.43867968624805"><ele>191.0</ele><time>2026-04-06T09:30:07.055Z</time></trkpt><trkpt lat="45.56152099742089" lon="10.438847851194277"><ele>191.0</ele><time>2026-04-06T09:30:08.055Z</time></trkpt><trkpt lat="45.56169319285124" lon="10.43902444549645"><ele>191.0</ele><time>2026-04-06T09:30:09.056Z</time></trkpt><trkpt lat="45.56187159707543" lon="10.43920826876779"><ele>191.0</ele><time>2026-04-06T09:30:10.056Z</time></trkpt><trkpt lat="45.56203243701457" lon="10.439392951640556"><ele>191.0</ele><time>2026-04-06T09:30:11.056Z</time></trkpt><trkpt lat="45.5622080141244" lon="10.43958111339883"><ele>190.5</ele><time>2026-04-06T09:30:12.056Z</time></trkpt><trkpt lat="45.562395570472106" lon="10.43977233295975"><ele>190.0</ele><time>2026-04-06T09:30:13.056Z</time></trkpt><trkpt lat="45.56259582998659" lon="10.439981477570088"><ele>190.0</ele><time>2026-04-06T09:30:14.056Z</time></trkpt><trkpt lat="45.562807630251996" lon="10.440204657721287"><ele>190.0</ele><time>2026-04-06T09:30:15.056Z</time></trkpt><trkpt lat="45.563029353306234" lon="10.440437681074373"><ele>190.0</ele><time>2026-04-06T09:30:16.056Z</time></trkpt><trkpt lat="45.56324657949874" lon="10.440668316669603"><ele>190.0</ele><time>2026-04-06T09:30:17.056Z</time></trkpt><trkpt lat="45.56344408375309" lon="10.440880562106274"><ele>190.0</ele><time>2026-04-06T09:30:18.056Z</time></trkpt><trkpt lat="45.56363039346929" lon="10.441073317508572"><ele>190.0</ele><time>2026-04-06T09:30:19.056Z</time></trkpt><trkpt lat="45.5638129889294" lon="10.441239403392926"><ele>190.0</ele><time>2026-04-06T09:30:20.056Z</time></trkpt><trkpt lat="45.56399881246782" lon="10.441379434323895"><ele>190.33333333333334</ele><time>2026-04-06T09:30:21.056Z</time></trkpt><trkpt lat="45.56418352142179" lon="10.441498684336686"><ele>190.66666666666666</ele><time>2026-04-06T09:30:22.056Z</time></trkpt><trkpt lat="45.564371351099076" lon="10.441604482041756"><ele>191.0</ele><time>2026-04-06T09:30:23.056Z</time></trkpt><trkpt lat="45.56455551146871" lon="10.441706525341502"><ele>191.0</ele><time>2026-04-06T09:30:24.056Z</time></trkpt><trkpt lat="45.56474063797884" lon="10.44179069814395"><ele>191.0</ele><time>2026-04-06T09:30:25.056Z</time></trkpt><trkpt lat="45.56492269942072" lon="10.441861538978051"><ele>191.0</ele><time>2026-04-06T09:30:26.056Z</time></trkpt><trkpt lat="45.56509605443672" lon="10.441920460559146"><ele>191.0</ele><time>2026-04-06T09:30:27.056Z</time></trkpt><trkpt lat="45.565268493254756" lon="10.441966436091002"><ele>191.0</ele><time>2026-04-06T09:30:28.056Z</time></trkpt><trkpt lat="45.56544234739514" lon="10.441997436472072"><ele>191.0</ele><time>2026-04-06T09:30:29.056Z</time></trkpt><trkpt lat="45.565615941685145" lon="10.4420174998557"><ele>191.33333333333331</ele><time>2026-04-06T09:30:30.056Z</time></trkpt><trkpt lat="45.56579043563379" lon="10.442035684630318"><ele>191.66666666666666</ele><time>2026-04-06T09:30:31.056Z</time></trkpt><trkpt lat="45.565970655470885" lon="10.442049107501727"><ele>192.0</ele><time>2026-04-06T09:30:32.056Z</time></trkpt><trkpt lat="45.56615316368557" lon="10.44205977620328"><ele>192.0</ele><time>2026-04-06T09:30:33.056Z</time></trkpt><trkpt lat="45.56633418125427" lon="10.442076087809157"><ele>192.0</ele><time>2026-04-06T09:30:34.056Z</time></trkpt><trkpt lat="45.56651334878094" lon="10.442090480012327"><ele>192.0</ele><time>2026-04-06T09:30:35.056Z</time></trkpt><trkpt lat="45.56670204556351" lon="10.442106326207123"><ele>192.0</ele><time>2026-04-06T09:30:36.056Z</time></trkpt><trkpt lat="45.56688962142384" lon="10.442120866454943"><ele>192.0</ele><time>2026-04-06T09:30:37.056Z</time></trkpt><trkpt lat="45.56707623348284" lon="10.442133357446785"><ele>192.0</ele><time>2026-04-06T09:30:38.056Z</time></trkpt><trkpt lat="45.56725898769688" lon="10.442148133198502"><ele>191.33333333333334</ele><time>2026-04-06T09:30:39.056Z</time></trkpt><trkpt lat="45.56744865324108" lon="10.442163993568856"><ele>190.66666666666669</ele><time>2026-04-06T09:30:40.056Z</time></trkpt><trkpt lat="45.56763455469585" lon="10.442177130295288"><ele>190.0</ele><time>2026-04-06T09:30:41.056Z</time></trkpt><trkpt lat="45.567830365427085" lon="10.442208220695877"><ele>190.33333333333334</ele><time>2026-04-06T09:30:42.056Z</time></trkpt><trkpt lat="45.56801630466752" lon="10.442216761666556"><ele>190.66666666666666</ele><time>2026-04-06T09:30:43.056Z</time></trkpt><trkpt lat="45.56819599444635" lon="10.442223610296422"><ele>191.0</ele><time>2026-04-06T09:30:44.056Z</time></trkpt><trkpt lat="45.56837320008825" lon="10.442219023698454"><ele>191.0</ele><time>2026-04-06T09:30:45.056Z</time></trkpt><trkpt lat="45.568544467583" lon="10.442209626519293"><ele>191.0</ele><time>2026-04-06T09:30:46.056Z</time></trkpt><trkpt lat="45.56871614355314" lon="10.442192470686608"><ele>191.0</ele><time>2026-04-06T09:30:47.056Z</time></trkpt><trkpt lat="45.568879189228625" lon="10.442172400345434"><ele>191.0</ele><time>2026-04-06T09:30:48.056Z</time></trkpt><trkpt lat="45.56904643006423" lon="10.442140990659475"><ele>191.0</ele><time>2026-04-06T09:30:49.056Z</time></trkpt><trkpt lat="45.56921570680889" lon="10.442105234367821"><ele>191.0</ele><time>2026-04-06T09:30:50.056Z</time></trkpt><trkpt lat="45.569387468245715" lon="10.442068092163726"><ele>192.0</ele><time>2026-04-06T09:30:51.056Z</time></trkpt><trkpt lat="45.56955387534152" lon="10.442026251103014"><ele>193.0</ele><time>2026-04-06T09:30:52.056Z</time></trkpt><trkpt lat="45.569720268183524" lon="10.441973973834726"><ele>194.0</ele><time>2026-04-06T09:30:53.056Z</time></trkpt><trkpt lat="45.569897753752066" lon="10.441914425073168"><ele>194.0</ele><time>2026-04-06T09:30:54.056Z</time></trkpt><trkpt lat="45.5700935318322" lon="10.441853975110293"><ele>194.0</ele><time>2026-04-06T09:30:55.056Z</time></trkpt><trkpt lat="45.57027198524804" lon="10.4418053714372"><ele>194.0</ele><time>2026-04-06T09:30:56.056Z</time></trkpt><trkpt lat="45.570443379533174" lon="10.441756550660365"><ele>194.33333333333334</ele><time>2026-04-06T09:30:57.056Z</time></trkpt><trkpt lat="45.570604930532234" lon="10.44171286234948"><ele>194.66666666666669</ele><time>2026-04-06T09:30:58.056Z</time></trkpt><trkpt lat="45.57076002760145" lon="10.441671329047846"><ele>195.0</ele><time>2026-04-06T09:30:59.056Z</time></trkpt><trkpt lat="45.57093119712233" lon="10.441631069797477"><ele>195.0</ele><time>2026-04-06T09:31:00.056Z</time></trkpt><trkpt lat="45.57111021403002" lon="10.441603996273056"><ele>195.0</ele><time>2026-04-06T09:31:01.056Z</time></trkpt><trkpt lat="45.57129838581231" lon="10.441586044612444"><ele>195.0</ele><time>2026-04-06T09:31:02.056Z</time></trkpt><trkpt lat="45.571490814825346" lon="10.441587293869722"><ele>194.66666666666669</ele><time>2026-04-06T09:31:03.056Z</time></trkpt><trkpt lat="45.5716914748615" lon="10.441597098301065"><ele>194.33333333333334</ele><time>2026-04-06T09:31:04.056Z</time></trkpt><trkpt lat="45.57189388895747" lon="10.441609494014164"><ele>194.0</ele><time>2026-04-06T09:31:05.056Z</time></trkpt><trkpt lat="45.572093919907196" lon="10.441636496763547"><ele>193.33333333333334</ele><time>2026-04-06T09:31:06.056Z</time></trkpt><trkpt lat="45.57228830594511" lon="10.441667865965178"><ele>192.66666666666669</ele><time>2026-04-06T09:31:07.056Z</time></trkpt><trkpt lat="45.57248010606719" lon="10.441726144378217"><ele>192.0</ele><time>2026-04-06T09:31:08.056Z</time></trkpt><trkpt lat="45.57266026517077" lon="10.441800573145729"><ele>192.0</ele><time>2026-04-06T09:31:09.056Z</time></trkpt><trkpt lat="45.57284753957584" lon="10.441873609152637"><ele>192.0</ele><time>2026-04-06T09:31:10.056Z</time></trkpt><trkpt lat="45.5730168640021" lon="10.441956480405624"><ele>192.0</ele><time>2026-04-06T09:31:11.056Z</time></trkpt><trkpt lat="45.573177283802494" lon="10.442047200099411"><ele>192.0</ele><time>2026-04-06T09:31:12.056Z</time></trkpt><trkpt lat="45.57332647196886" lon="10.442141858735175"><ele>192.0</ele><time>2026-04-06T09:31:13.056Z</time></trkpt><trkpt lat="45.57347889191446" lon="10.442241423389428"><ele>192.0</ele><time>2026-04-06T09:31:14.056Z</time></trkpt><trkpt lat="45.573630238486025" lon="10.44234589480111"><ele>192.0</ele><time>2026-04-06T09:31:15.056Z</time></trkpt><trkpt lat="45.57377277405112" lon="10.44245986286495"><ele>192.0</ele><time>2026-04-06T09:31:16.056Z</time></trkpt><trkpt lat="45.573902557938375" lon="10.442573639874537"><ele>192.0</ele><time>2026-04-06T09:31:17.056Z</time></trkpt><trkpt lat="45.57404711898482" lon="10.442685595570603"><ele>192.0</ele><time>2026-04-06T09:31:18.056Z</time></trkpt><trkpt lat="45.57419378654341" lon="10.442805908909941"><ele>192.0</ele><time>2026-04-06T09:31:19.056Z</time></trkpt><trkpt lat="45.574338295002136" lon="10.44292847715468"><ele>192.0</ele><time>2026-04-06T09:31:20.056Z</time></trkpt><trkpt lat="45.574497811874046" lon="10.443057246743487"><ele>194.33333333333331</ele><time>2026-04-06T09:31:21.056Z</time></trkpt><trkpt lat="45.574652417211496" lon="10.443188693678463"><ele>196.66666666666666</ele><time>2026-04-06T09:31:22.056Z</time></trkpt><trkpt lat="45.57482584641353" lon="10.443328505959832"><ele>199.0</ele><time>2026-04-06T09:31:23.056Z</time></trkpt><trkpt lat="45.57501405572155" lon="10.443484670383004"><ele>199.0</ele><time>2026-04-06T09:31:24.056Z</time></trkpt><trkpt lat="45.57520616572551" lon="10.443643641887395"><ele>199.0</ele><time>2026-04-06T09:31:25.056Z</time></trkpt><trkpt lat="45.57536964598864" lon="10.443794960041217"><ele>199.0</ele><time>2026-04-06T09:31:26.056Z</time></trkpt><trkpt lat="45.57553720305893" lon="10.443933061879354"><ele>200.0</ele><time>2026-04-06T09:31:27.056Z</time></trkpt><trkpt lat="45.57571596364401" lon="10.444066417327296"><ele>201.0</ele><time>2026-04-06T09:31:28.056Z</time></trkpt><trkpt lat="45.57589674803957" lon="10.444206558822529"><ele>202.0</ele><time>2026-04-06T09:31:29.056Z</time></trkpt><trkpt lat="45.57606889960658" lon="10.44436459411405"><ele>202.0</ele><time>2026-04-06T09:31:30.056Z</time></trkpt><trkpt lat="45.57624215928724" lon="10.444514575131901"><ele>202.0</ele><time>2026-04-06T09:31:31.056Z</time></trkpt><trkpt lat="45.57643814009968" lon="10.444670167186914"><ele>202.0</ele><time>2026-04-06T09:31:32.056Z</time></trkpt><trkpt lat="45.57665223223958" lon="10.44483909912333"><ele>202.0</ele><time>2026-04-06T09:31:33.056Z</time></trkpt><trkpt lat="45.57685078847118" lon="10.445006966657182"><ele>202.0</ele><time>2026-04-06T09:31:34.056Z</time></trkpt><trkpt lat="45.57703184722546" lon="10.445148946478598"><ele>202.0</ele><time>2026-04-06T09:31:35.056Z</time></trkpt><trkpt lat="45.57720812604358" lon="10.445283848560727"><ele>202.0</ele><time>2026-04-06T09:31:36.056Z</time></trkpt><trkpt lat="45.57737623854067" lon="10.445426768321516"><ele>202.0</ele><time>2026-04-06T09:31:37.056Z</time></trkpt><trkpt lat="45.57753723610505" lon="10.445567523993079"><ele>202.0</ele><time>2026-04-06T09:31:38.056Z</time></trkpt><trkpt lat="45.57770628991183" lon="10.445709116470256"><ele>203.0</ele><time>2026-04-06T09:31:39.056Z</time></trkpt><trkpt lat="45.57788384387294" lon="10.445854469735616"><ele>204.0</ele><time>2026-04-06T09:31:40.056Z</time></trkpt><trkpt lat="45.57806693289847" lon="10.44601402352818"><ele>205.0</ele><time>2026-04-06T09:31:41.056Z</time></trkpt><trkpt lat="45.578236751102175" lon="10.446174860481076"><ele>205.0</ele><time>2026-04-06T09:31:42.056Z</time></trkpt><trkpt lat="45.57848249771715" lon="10.446334191161096"><ele>205.0</ele><time>2026-04-06T09:31:43.056Z</time></trkpt><trkpt lat="45.57870265222976" lon="10.446520158870989"><ele>205.0</ele><time>2026-04-06T09:31:44.056Z</time></trkpt><trkpt lat="45.578920864170584" lon="10.446699660647097"><ele>205.0</ele><time>2026-04-06T09:31:45.056Z</time></trkpt><trkpt lat="45.579137881353674" lon="10.446873917156749"><ele>205.0</ele><time>2026-04-06T09:31:46.056Z</time></trkpt><trkpt lat="45.579349610766606" lon="10.447054883941616"><ele>205.0</ele><time>2026-04-06T09:31:47.056Z</time></trkpt><trkpt lat="45.57955608516848" lon="10.447231738043543"><ele>205.33333333333331</ele><time>2026-04-06T09:31:48.056Z</time></trkpt><trkpt lat="45.57975277966683" lon="10.447395282589516"><ele>205.66666666666669</ele><time>2026-04-06T09:31:49.056Z</time></trkpt><trkpt lat="45.5799386165884" lon="10.447544419823153"><ele>206.0</ele><time>2026-04-06T09:31:50.056Z</time></trkpt><trkpt lat="45.58010976747924" lon="10.447690793834294"><ele>206.0</ele><time>2026-04-06T09:31:51.056Z</time></trkpt><trkpt lat="45.58027710553095" lon="10.447832286795101"><ele>206.0</ele><time>2026-04-06T09:31:52.056Z</time></trkpt><trkpt lat="45.5804652580226" lon="10.447984088705894"><ele>206.0</ele><time>2026-04-06T09:31:53.056Z</time></trkpt><trkpt lat="45.580664150653696" lon="10.448147106916869"><ele>209.0</ele><time>2026-04-06T09:31:54.056Z</time></trkpt><trkpt lat="45.58087231608807" lon="10.448311283769243"><ele>212.0</ele><time>2026-04-06T09:31:55.056Z</time></trkpt><trkpt lat="45.58106251495329" lon="10.4484671924392"><ele>211.33333333333334</ele><time>2026-04-06T09:31:56.056Z</time></trkpt><trkpt lat="45.581247040413615" lon="10.448617773940287"><ele>210.66666666666669</ele><time>2026-04-06T09:31:57.056Z</time></trkpt><trkpt lat="45.58142374419631" lon="10.448770665322256"><ele>210.0</ele><time>2026-04-06T09:31:58.056Z</time></trkpt><trkpt lat="45.58160059558929" lon="10.448920926724503"><ele>211.33333333333331</ele><time>2026-04-06T09:31:59.056Z</time></trkpt><trkpt lat="45.58178267991055" lon="10.449084216186025"><ele>212.66666666666666</ele><time>2026-04-06T09:32:00.056Z</time></trkpt><trkpt lat="45.581961579902135" lon="10.449255500193438"><ele>214.0</ele><time>2026-04-06T09:32:01.056Z</time></trkpt><trkpt lat="45.58213036575535" lon="10.44942359947684"><ele>214.0</ele><time>2026-04-06T09:32:02.056Z</time></trkpt><trkpt lat="45.582301988828554" lon="10.449606515476635"><ele>214.0</ele><time>2026-04-06T09:32:03.056Z</time></trkpt><trkpt lat="45.58246408140812" lon="10.449798115402007"><ele>214.0</ele><time>2026-04-06T09:32:04.056Z</time></trkpt><trkpt lat="45.58261768920316" lon="10.450014873070506"><ele>214.33333333333331</ele><time>2026-04-06T09:32:05.056Z</time></trkpt><trkpt lat="45.58276676216702" lon="10.45024431594294"><ele>214.66666666666669</ele><time>2026-04-06T09:32:06.056Z</time></trkpt><trkpt lat="45.582912214617735" lon="10.450482261143424"><ele>215.0</ele><time>2026-04-06T09:32:07.056Z</time></trkpt><trkpt lat="45.58306973059417" lon="10.45071907992444"><ele>215.0</ele><time>2026-04-06T09:32:08.056Z</time></trkpt><trkpt lat="45.58323617209897" lon="10.450966729222333"><ele>215.0</ele><time>2026-04-06T09:32:09.056Z</time></trkpt><trkpt lat="45.583407520523004" lon="10.451229442564193"><ele>217.5</ele><time>2026-04-06T09:32:10.056Z</time></trkpt><trkpt lat="45.58358265679941" lon="10.451508437446991"><ele>220.0</ele><time>2026-04-06T09:32:11.056Z</time></trkpt><trkpt lat="45.5837522422278" lon="10.451769575355971"><ele>220.0</ele><time>2026-04-06T09:32:12.056Z</time></trkpt><trkpt lat="45.58390969135715" lon="10.452006444055705"><ele>220.0</ele><time>2026-04-06T09:32:13.056Z</time></trkpt><trkpt lat="45.584056508989676" lon="10.452234446321924"><ele>220.0</ele><time>2026-04-06T09:32:14.056Z</time></trkpt><trkpt lat="45.58420307882649" lon="10.452448428705557"><ele>221.33333333333331</ele><time>2026-04-06T09:32:15.056Z</time></trkpt><trkpt lat="45.58435090551905" lon="10.45265054473814"><ele>222.66666666666669</ele><time>2026-04-06T09:32:16.056Z</time></trkpt><trkpt lat="45.584490092808416" lon="10.452834951015651"><ele>224.0</ele><time>2026-04-06T09:32:17.056Z</time></trkpt><trkpt lat="45.58463544469573" lon="10.453008255027836"><ele>224.0</ele><time>2026-04-06T09:32:18.056Z</time></trkpt><trkpt lat="45.58477167093669" lon="10.453159254402767"><ele>224.0</ele><time>2026-04-06T09:32:19.056Z</time></trkpt><trkpt lat="45.58489103680135" lon="10.453292627398236"><ele>224.0</ele><time>2026-04-06T09:32:20.056Z</time></trkpt><trkpt lat="45.585019630975474" lon="10.453417942031455"><ele>224.0</ele><time>2026-04-06T09:32:21.056Z</time></trkpt><trkpt lat="45.58513813175488" lon="10.453519806600559"><ele>223.99999999999997</ele><time>2026-04-06T09:32:22.056Z</time></trkpt><trkpt lat="45.58523180486709" lon="10.453599055786126"><ele>223.99999999999997</ele><time>2026-04-06T09:32:23.056Z</time></trkpt><trkpt lat="45.58530246079842" lon="10.453649507079088"><ele>224.0</ele><time>2026-04-06T09:32:24.056Z</time></trkpt><trkpt lat="45.58536538621814" lon="10.453679295270089"><ele>224.0</ele><time>2026-04-06T09:32:25.056Z</time></trkpt><trkpt lat="45.58543408698195" lon="10.453707977142942"><ele>224.50000000000003</ele><time>2026-04-06T09:32:26.056Z</time></trkpt><trkpt lat="45.58549069230447" lon="10.453754694303665"><ele>225.0</ele><time>2026-04-06T09:32:27.056Z</time></trkpt><trkpt lat="45.58554540742726" lon="10.453800444184772"><ele>225.5</ele><time>2026-04-06T09:32:28.056Z</time></trkpt><trkpt lat="45.58565962184384" lon="10.45388729697654"><ele>226.0</ele><time>2026-04-06T09:32:30.056Z</time></trkpt><trkpt lat="45.585715857482384" lon="10.453934514883306"><ele>226.50000000000003</ele><time>2026-04-06T09:32:31.056Z</time></trkpt><trkpt lat="45.58582336010913" lon="10.45399924899924"><ele>227.0</ele><time>2026-04-06T09:32:33.056Z</time></trkpt><trkpt lat="45.58589564323994" lon="10.454062403965207"><ele>227.0</ele><time>2026-04-06T09:32:34.056Z</time></trkpt><trkpt lat="45.58595790496166" lon="10.454123149604143"><ele>227.0</ele><time>2026-04-06T09:32:35.056Z</time></trkpt><trkpt lat="45.58605195132747" lon="10.454210951449305"><ele>227.0</ele><time>2026-04-06T09:32:37.073Z</time></trkpt><trkpt lat="45.586142516353725" lon="10.45430031604713"><ele>227.0</ele><time>2026-04-06T09:32:39.069Z</time></trkpt><trkpt lat="45.58623543348716" lon="10.454392332304547"><ele>227.0</ele><time>2026-04-06T09:32:41.069Z</time></trkpt><trkpt lat="45.58631590141683" lon="10.454482026972032"><ele>231.39999999999998</ele><time>2026-04-06T09:32:43.072Z</time></trkpt><trkpt lat="45.586414910351635" lon="10.454495265897654"><ele>235.79999999999998</ele><time>2026-04-06T09:33:08.656Z</time></trkpt><trkpt lat="45.58651103599799" lon="10.454571172503508"><ele>240.2</ele><time>2026-04-06T09:33:10.656Z</time></trkpt><trkpt lat="45.58660716865686" lon="10.454647084648022"><ele>244.6</ele><time>2026-04-06T09:33:12.656Z</time></trkpt><trkpt lat="45.586711373397165" lon="10.454702266542267"><ele>249.0</ele><time>2026-04-06T09:33:14.656Z</time></trkpt><trkpt lat="45.5867994084623" lon="10.454798888787632"><ele>249.0</ele><time>2026-04-06T09:33:16.656Z</time></trkpt><trkpt lat="45.586903617911936" lon="10.454854074401599"><ele>249.0</ele><time>2026-04-06T09:33:18.656Z</time></trkpt><trkpt lat="45.59008134611007" lon="10.457493038953745"><ele>247.33333333333331</ele><time>2026-04-06T09:33:20.056Z</time></trkpt><trkpt lat="45.59025445754713" lon="10.457550881730363"><ele>245.66666666666666</ele><time>2026-04-06T09:33:21.056Z</time></trkpt><trkpt lat="45.59038747915147" lon="10.457630504643571"><ele>244.0</ele><time>2026-04-06T09:33:22.056Z</time></trkpt><trkpt lat="45.590512240068264" lon="10.457764058304667"><ele>243.0</ele><time>2026-04-06T09:33:23.056Z</time></trkpt><trkpt lat="45.590646934962734" lon="10.457883972340884"><ele>242.0</ele><time>2026-04-06T09:33:24.056Z</time></trkpt><trkpt lat="45.59076976654826" lon="10.457990789079666"><ele>241.0</ele><time>2026-04-06T09:33:25.074Z</time></trkpt><trkpt lat="45.59156706560924" lon="10.458622695887888"><ele>241.0</ele><time>2026-04-06T09:33:32.056Z</time></trkpt><trkpt lat="45.59167853258047" lon="10.458715228428817"><ele>241.0</ele><time>2026-04-06T09:33:33.056Z</time></trkpt><trkpt lat="45.5918269505153" lon="10.458793032282783"><ele>241.0</ele><time>2026-04-06T09:33:34.056Z</time></trkpt><trkpt lat="45.5919569036569" lon="10.458883171960757"><ele>241.0</ele><time>2026-04-06T09:33:35.056Z</time></trkpt><trkpt lat="45.59210866011762" lon="10.459007571340274"><ele>241.33333333333331</ele><time>2026-04-06T09:33:36.056Z</time></trkpt><trkpt lat="45.592266577895295" lon="10.459124149950009"><ele>241.66666666666669</ele><time>2026-04-06T09:33:37.056Z</time></trkpt><trkpt lat="45.59242065050557" lon="10.459241361909536"><ele>242.0</ele><time>2026-04-06T09:33:38.056Z</time></trkpt><trkpt lat="45.59257652417447" lon="10.459335674666429"><ele>242.0</ele><time>2026-04-06T09:33:39.056Z</time></trkpt><trkpt lat="45.59271792606797" lon="10.459431388477029"><ele>242.0</ele><time>2026-04-06T09:33:40.056Z</time></trkpt><trkpt lat="45.592844287506956" lon="10.459508984759017"><ele>242.0</ele><time>2026-04-06T09:33:41.056Z</time></trkpt><trkpt lat="45.59296916611522" lon="10.459590071415356"><ele>242.0</ele><time>2026-04-06T09:33:42.056Z</time></trkpt><trkpt lat="45.593085881570126" lon="10.459654280407717"><ele>242.75</ele><time>2026-04-06T09:33:43.056Z</time></trkpt><trkpt lat="45.593201908994914" lon="10.45970929968896"><ele>243.5</ele><time>2026-04-06T09:33:44.056Z</time></trkpt><trkpt lat="45.59332146033431" lon="10.459758257107442"><ele>244.25</ele><time>2026-04-06T09:33:45.056Z</time></trkpt><trkpt lat="45.59343312801987" lon="10.459794822076425"><ele>245.0</ele><time>2026-04-06T09:33:46.056Z</time></trkpt><trkpt lat="45.59354384854839" lon="10.459830240048037"><ele>245.0</ele><time>2026-04-06T09:33:47.056Z</time></trkpt><trkpt lat="45.59364039714598" lon="10.459856482604707"><ele>245.0</ele><time>2026-04-06T09:33:48.056Z</time></trkpt><trkpt lat="45.59373569093574" lon="10.459884900322306"><ele>245.0</ele><time>2026-04-06T09:33:49.056Z</time></trkpt><trkpt lat="45.59383000806715" lon="10.459898952427286"><ele>245.0</ele><time>2026-04-06T09:33:50.056Z</time></trkpt><trkpt lat="45.59393778646774" lon="10.459912796544767"><ele>245.0</ele><time>2026-04-06T09:33:51.056Z</time></trkpt><trkpt lat="45.59407016174625" lon="10.459938450282412"><ele>245.66666666666669</ele><time>2026-04-06T09:33:52.056Z</time></trkpt><trkpt lat="45.59422020769944" lon="10.459959609910916"><ele>246.33333333333331</ele><time>2026-04-06T09:33:53.056Z</time></trkpt><trkpt lat="45.59436576481607" lon="10.459993911632656"><ele>247.0</ele><time>2026-04-06T09:33:54.056Z</time></trkpt><trkpt lat="45.59453537819671" lon="10.460011397407756"><ele>245.0</ele><time>2026-04-06T09:33:55.056Z</time></trkpt><trkpt lat="45.594704316869624" lon="10.46003709326293"><ele>243.0</ele><time>2026-04-06T09:33:56.056Z</time></trkpt><trkpt lat="45.59487392732776" lon="10.46006387360214"><ele>241.0</ele><time>2026-04-06T09:33:57.069Z</time></trkpt><trkpt lat="45.595038948484024" lon="10.460088023008693"><ele>241.0</ele><time>2026-04-06T09:33:58.069Z</time></trkpt><trkpt lat="45.59520711821618" lon="10.460111289896846"><ele>241.0</ele><time>2026-04-06T09:33:59.07Z</time></trkpt><trkpt lat="45.59538515752211" lon="10.46012861066679"><ele>241.0</ele><time>2026-04-06T09:34:00.071Z</time></trkpt><trkpt lat="45.59556883353988" lon="10.460151252770517"><ele>230.0</ele><time>2026-04-06T09:34:01.073Z</time></trkpt><trkpt lat="45.59711186219528" lon="10.460409550005998"><ele>230.0</ele><time>2026-04-06T09:34:07.056Z</time></trkpt><trkpt lat="45.597312782061415" lon="10.46043773907667"><ele>230.0</ele><time>2026-04-06T09:34:08.056Z</time></trkpt><trkpt lat="45.59750150063842" lon="10.460451234039988"><ele>230.0</ele><time>2026-04-06T09:34:09.056Z</time></trkpt><trkpt lat="45.59763546932049" lon="10.460486597835292"><ele>233.33333333333334</ele><time>2026-04-06T09:34:10.056Z</time></trkpt><trkpt lat="45.59781977877328" lon="10.46051453100818"><ele>236.66666666666669</ele><time>2026-04-06T09:34:11.056Z</time></trkpt><trkpt lat="45.59800517433659" lon="10.460522177073505"><ele>240.0</ele><time>2026-04-06T09:34:12.056Z</time></trkpt><trkpt lat="45.59815446130564" lon="10.460547951479986"><ele>240.0</ele><time>2026-04-06T09:34:13.056Z</time></trkpt><trkpt lat="45.59831610854419" lon="10.460576085499891"><ele>240.0</ele><time>2026-04-06T09:34:14.056Z</time></trkpt><trkpt lat="45.598481105817335" lon="10.460608669714345"><ele>240.0</ele><time>2026-04-06T09:34:15.056Z</time></trkpt><trkpt lat="45.598654030680436" lon="10.460634583559317"><ele>239.66666666666669</ele><time>2026-04-06T09:34:16.056Z</time></trkpt><trkpt lat="45.59881975110273" lon="10.460658776964834"><ele>239.33333333333334</ele><time>2026-04-06T09:34:17.056Z</time></trkpt><trkpt lat="45.59898814703865" lon="10.460686926263879"><ele>239.0</ele><time>2026-04-06T09:34:18.056Z</time></trkpt><trkpt lat="45.599162563560384" lon="10.460717962313913"><ele>239.0</ele><time>2026-04-06T09:34:19.056Z</time></trkpt><trkpt lat="45.5993396674766" lon="10.46076190588006"><ele>239.0</ele><time>2026-04-06T09:34:20.056Z</time></trkpt><trkpt lat="45.599522955991155" lon="10.460814525012285"><ele>239.0</ele><time>2026-04-06T09:34:21.056Z</time></trkpt><trkpt lat="45.59969096013303" lon="10.460888650827524"><ele>236.0</ele><time>2026-04-06T09:34:22.056Z</time></trkpt><trkpt lat="45.59987452544962" lon="10.460949629910665"><ele>233.0</ele><time>2026-04-06T09:34:23.056Z</time></trkpt><trkpt lat="45.60004198164786" lon="10.461022812233828"><ele>230.0</ele><time>2026-04-06T09:34:24.056Z</time></trkpt><trkpt lat="45.600198295716694" lon="10.461097795026767"><ele>232.5</ele><time>2026-04-06T09:34:25.056Z</time></trkpt><trkpt lat="45.600334692139036" lon="10.461179296849926"><ele>235.0</ele><time>2026-04-06T09:34:26.056Z</time></trkpt><trkpt lat="45.6004727655163" lon="10.461260920064607"><ele>237.5</ele><time>2026-04-06T09:34:27.056Z</time></trkpt><trkpt lat="45.600610511217994" lon="10.461339257230023"><ele>240.0</ele><time>2026-04-06T09:34:28.056Z</time></trkpt><trkpt lat="45.600738216644416" lon="10.461412178594916"><ele>240.0</ele><time>2026-04-06T09:34:29.056Z</time></trkpt><trkpt lat="45.60086277555195" lon="10.461526581863707"><ele>240.0</ele><time>2026-04-06T09:34:30.056Z</time></trkpt><trkpt lat="45.60099482309854" lon="10.46163339652703"><ele>240.0</ele><time>2026-04-06T09:34:31.056Z</time></trkpt><trkpt lat="45.60112666411929" lon="10.461747115787094"><ele>239.66666666666669</ele><time>2026-04-06T09:34:32.056Z</time></trkpt><trkpt lat="45.60126412219574" lon="10.46186489814442"><ele>239.33333333333334</ele><time>2026-04-06T09:34:33.056Z</time></trkpt><trkpt lat="45.60140603633465" lon="10.461997650504573"><ele>239.0</ele><time>2026-04-06T09:34:34.056Z</time></trkpt><trkpt lat="45.601550127783995" lon="10.462144845854416"><ele>239.0</ele><time>2026-04-06T09:34:35.056Z</time></trkpt><trkpt lat="45.60169791596742" lon="10.462294291614286"><ele>239.0</ele><time>2026-04-06T09:34:36.056Z</time></trkpt><trkpt lat="45.60183989236746" lon="10.462460187125956"><ele>239.0</ele><time>2026-04-06T09:34:37.056Z</time></trkpt><trkpt lat="45.60196894827604" lon="10.462622130053772"><ele>239.33333333333334</ele><time>2026-04-06T09:34:38.056Z</time></trkpt><trkpt lat="45.60209933358074" lon="10.462783905638194"><ele>239.66666666666669</ele><time>2026-04-06T09:34:39.056Z</time></trkpt><trkpt lat="45.60221614414962" lon="10.462951974238857"><ele>240.0</ele><time>2026-04-06T09:34:40.056Z</time></trkpt><trkpt lat="45.60233453891033" lon="10.463111875516505"><ele>240.0</ele><time>2026-04-06T09:34:41.056Z</time></trkpt><trkpt lat="45.602456031103124" lon="10.463271163962391"><ele>240.0</ele><time>2026-04-06T09:34:42.056Z</time></trkpt><trkpt lat="45.60257145761372" lon="10.463421008788764"><ele>240.0</ele><time>2026-04-06T09:34:43.056Z</time></trkpt><trkpt lat="45.60268508576071" lon="10.463569017564152"><ele>240.0</ele><time>2026-04-06T09:34:44.056Z</time></trkpt><trkpt lat="45.60279405694185" lon="10.463715400357543"><ele>240.0</ele><time>2026-04-06T09:34:45.056Z</time></trkpt><trkpt lat="45.60289929058221" lon="10.463875873452936"><ele>240.0</ele><time>2026-04-06T09:34:46.056Z</time></trkpt><trkpt lat="45.60301439385332" lon="10.4640293168922"><ele>236.0</ele><time>2026-04-06T09:34:47.056Z</time></trkpt><trkpt lat="45.603122142737476" lon="10.464173448520041"><ele>232.0</ele><time>2026-04-06T09:34:48.056Z</time></trkpt><trkpt lat="45.60324185387153" lon="10.464335584415604"><ele>228.0</ele><time>2026-04-06T09:34:49.056Z</time></trkpt><trkpt lat="45.60335875340047" lon="10.464496468093573"><ele>228.0</ele><time>2026-04-06T09:34:50.056Z</time></trkpt><trkpt lat="45.60335247570841" lon="10.464602557597516"><ele>228.0</ele><time>2026-04-06T09:34:51.056Z</time></trkpt><trkpt lat="45.603462377951466" lon="10.46476314354674"><ele>228.0</ele><time>2026-04-06T09:34:52.056Z</time></trkpt><trkpt lat="45.603555795273714" lon="10.464921622810872"><ele>228.0</ele><time>2026-04-06T09:34:53.056Z</time></trkpt><trkpt lat="45.6036556770039" lon="10.465085984517357"><ele>229.0</ele><time>2026-04-06T09:34:54.056Z</time></trkpt><trkpt lat="45.60374163607471" lon="10.4652489162967"><ele>230.0</ele><time>2026-04-06T09:34:55.056Z</time></trkpt><trkpt lat="45.60383676203206" lon="10.465419169674224"><ele>231.0</ele><time>2026-04-06T09:34:56.056Z</time></trkpt><trkpt lat="45.60393579903728" lon="10.465601224050873"><ele>231.0</ele><time>2026-04-06T09:34:57.056Z</time></trkpt><trkpt lat="45.604031113673955" lon="10.465796425429426"><ele>231.0</ele><time>2026-04-06T09:34:58.056Z</time></trkpt><trkpt lat="45.60411591540953" lon="10.465982680053166"><ele>231.0</ele><time>2026-04-06T09:34:59.056Z</time></trkpt><trkpt lat="45.60420879528524" lon="10.4661784072792"><ele>236.33333333333331</ele><time>2026-04-06T09:35:00.056Z</time></trkpt><trkpt lat="45.604326598614044" lon="10.466341962318454"><ele>241.66666666666666</ele><time>2026-04-06T09:35:01.056Z</time></trkpt><trkpt lat="45.604366213778654" lon="10.466552553405828"><ele>247.0</ele><time>2026-04-06T09:35:02.056Z</time></trkpt><trkpt lat="45.60444497748602" lon="10.466726765400805"><ele>241.0</ele><time>2026-04-06T09:35:03.056Z</time></trkpt><trkpt lat="45.60452602253376" lon="10.466909736613795"><ele>235.0</ele><time>2026-04-06T09:35:04.056Z</time></trkpt><trkpt lat="45.604602491888926" lon="10.467102271370138"><ele>229.0</ele><time>2026-04-06T09:35:05.056Z</time></trkpt><trkpt lat="45.6047014255458" lon="10.467273284997908"><ele>229.0</ele><time>2026-04-06T09:35:06.056Z</time></trkpt><trkpt lat="45.60478248881433" lon="10.467462279037322"><ele>229.0</ele><time>2026-04-06T09:35:07.07Z</time></trkpt><trkpt lat="45.604873118220496" lon="10.467633446087826"><ele>229.0</ele><time>2026-04-06T09:35:08.069Z</time></trkpt><trkpt lat="45.604973121082814" lon="10.467786756704921"><ele>229.0</ele><time>2026-04-06T09:35:09.069Z</time></trkpt><trkpt lat="45.605099697021586" lon="10.467939103577873"><ele>229.0</ele><time>2026-04-06T09:35:10.056Z</time></trkpt><trkpt lat="45.60519159337605" lon="10.468088769051773"><ele>229.0</ele><time>2026-04-06T09:35:11.056Z</time></trkpt><trkpt lat="45.60535476619717" lon="10.468195139730776"><ele>227.0</ele><time>2026-04-06T09:35:12.056Z</time></trkpt><trkpt lat="45.60548309261244" lon="10.468270222711569"><ele>225.0</ele><time>2026-04-06T09:35:13.056Z</time></trkpt><trkpt lat="45.6056108580778" lon="10.468315782280829"><ele>223.0</ele><time>2026-04-06T09:35:14.056Z</time></trkpt><trkpt lat="45.605723932135966" lon="10.468344119645165"><ele>221.0</ele><time>2026-04-06T09:35:15.056Z</time></trkpt><trkpt lat="45.60586637703996" lon="10.468376443435684"><ele>221.0</ele><time>2026-04-06T09:35:16.056Z</time></trkpt><trkpt lat="45.605989554991666" lon="10.46843857634677"><ele>221.0</ele><time>2026-04-06T09:35:17.056Z</time></trkpt><trkpt lat="45.606104174836" lon="10.468483403083765"><ele>221.0</ele><time>2026-04-06T09:35:18.056Z</time></trkpt><trkpt lat="45.60621853526842" lon="10.468543410652265"><ele>221.0</ele><time>2026-04-06T09:35:19.056Z</time></trkpt><trkpt lat="45.60633618440361" lon="10.468618388445064"><ele>221.0</ele><time>2026-04-06T09:35:20.056Z</time></trkpt><trkpt lat="45.60641341062976" lon="10.468667603289749"><ele>221.0</ele><time>2026-04-06T09:35:21.056Z</time></trkpt><trkpt lat="45.606408192776364" lon="10.468880625069483"><ele>221.0</ele><time>2026-04-06T09:35:22.056Z</time></trkpt><trkpt lat="45.60647280263727" lon="10.468987945782127"><ele>221.0</ele><time>2026-04-06T09:35:23.07Z</time></trkpt><trkpt lat="45.60655481091217" lon="10.469120192143706"><ele>221.0</ele><time>2026-04-06T09:35:24.073Z</time></trkpt><trkpt lat="45.606627372243125" lon="10.469222210600668"><ele>221.0</ele><time>2026-04-06T09:35:25.073Z</time></trkpt><trkpt lat="45.606709890648176" lon="10.469329558823794"><ele>221.0</ele><time>2026-04-06T09:35:26.072Z</time></trkpt><trkpt lat="45.60742660710505" lon="10.469921518101561"><ele>220.0</ele><time>2026-04-06T09:35:30.056Z</time></trkpt><trkpt lat="45.60755982069722" lon="10.469993100817549"><ele>219.0</ele><time>2026-04-06T09:35:31.056Z</time></trkpt><trkpt lat="45.60769787304658" lon="10.470047627780392"><ele>218.0</ele><time>2026-04-06T09:35:32.056Z</time></trkpt><trkpt lat="45.60784207233618" lon="10.470106196156438"><ele>217.0</ele><time>2026-04-06T09:35:33.056Z</time></trkpt><trkpt lat="45.607993497675636" lon="10.470122522466799"><ele>216.0</ele><time>2026-04-06T09:35:34.056Z</time></trkpt><trkpt lat="45.60814725685139" lon="10.470139721766055"><ele>215.0</ele><time>2026-04-06T09:35:35.056Z</time></trkpt><trkpt lat="45.6082968824611" lon="10.470133110472055"><ele>214.0</ele><time>2026-04-06T09:35:36.056Z</time></trkpt><trkpt lat="45.60845031316808" lon="10.470125101143184"><ele>214.0</ele><time>2026-04-06T09:35:37.056Z</time></trkpt><trkpt lat="45.608617258835864" lon="10.470103934067938"><ele>214.0</ele><time>2026-04-06T09:35:38.056Z</time></trkpt><trkpt lat="45.608794855138136" lon="10.470087810095793"><ele>214.0</ele><time>2026-04-06T09:35:39.056Z</time></trkpt><trkpt lat="45.608972037170446" lon="10.470069771663276"><ele>217.0</ele><time>2026-04-06T09:35:40.056Z</time></trkpt><trkpt lat="45.60912591604277" lon="10.470056016103424"><ele>220.0</ele><time>2026-04-06T09:35:41.056Z</time></trkpt><trkpt lat="45.609265649574404" lon="10.47004173079609"><ele>223.0</ele><time>2026-04-06T09:35:42.056Z</time></trkpt><trkpt lat="45.609395631024036" lon="10.470026965937192"><ele>226.0</ele><time>2026-04-06T09:35:43.056Z</time></trkpt><trkpt lat="45.60952867822224" lon="10.47000362873875"><ele>241.75</ele><time>2026-04-06T09:35:44.056Z</time></trkpt><trkpt lat="45.60966731734929" lon="10.470019765202949"><ele>257.5</ele><time>2026-04-06T09:35:45.056Z</time></trkpt><trkpt lat="45.60980412110887" lon="10.470021859462394"><ele>273.25</ele><time>2026-04-06T09:35:46.072Z</time></trkpt><trkpt lat="45.60994387132267" lon="10.470034382261767"><ele>289.0</ele><time>2026-04-06T09:35:47.069Z</time></trkpt><trkpt lat="45.6100727306458" lon="10.470052684381576"><ele>289.0</ele><time>2026-04-06T09:35:48.074Z</time></trkpt><trkpt lat="45.610193256142075" lon="10.470075872059692"><ele>289.0</ele><time>2026-04-06T09:35:49.071Z</time></trkpt><trkpt lat="45.610322086830074" lon="10.47010690339021"><ele>289.0</ele><time>2026-04-06T09:35:50.072Z</time></trkpt><trkpt lat="45.61204056268526" lon="10.470396640456661"><ele>342.0</ele><time>2026-04-06T09:36:06.95Z</time></trkpt><trkpt lat="45.610713534987035" lon="10.470241691970111"><ele>375.0</ele><time>2026-04-06T09:36:14.657Z</time></trkpt><trkpt lat="45.611300567254716" lon="10.470555642496754"><ele>375.0</ele><time>2026-04-06T09:36:15.656Z</time></trkpt><trkpt lat="45.61183402258601" lon="10.471031211860797"><ele>387.0</ele><time>2026-04-06T09:36:16.656Z</time></trkpt><trkpt lat="45.61230143995594" lon="10.471630886598748"><ele>378.0</ele><time>2026-04-06T09:36:17.656Z</time></trkpt><trkpt lat="45.612698395498576" lon="10.472328070348023"><ele>397.0</ele><time>2026-04-06T09:36:18.657Z</time></trkpt><trkpt lat="45.61307867799449" lon="10.473043211881148"><ele>397.0</ele><time>2026-04-06T09:36:19.657Z</time></trkpt><trkpt lat="45.61345779814459" lon="10.473759594436242"><ele>354.0</ele><time>2026-04-06T09:36:20.657Z</time></trkpt><trkpt lat="45.6137766" lon="10.474362"><ele>239.0</ele><time>2026-04-06T09:36:21.657Z</time></trkpt><trkpt lat="45.61773494821565" lon="10.48070096411787"><ele>241.5</ele><time>2026-04-06T09:36:47.056Z</time></trkpt><trkpt lat="45.617911989362966" lon="10.480833830406494"><ele>244.0</ele><time>2026-04-06T09:36:48.056Z</time></trkpt><trkpt lat="45.61814167967915" lon="10.48097785681037"><ele>244.0</ele><time>2026-04-06T09:36:49.056Z</time></trkpt><trkpt lat="45.61832775671604" lon="10.481103491999987"><ele>244.0</ele><time>2026-04-06T09:36:50.056Z</time></trkpt><trkpt lat="45.61849930528853" lon="10.481240727532741"><ele>244.0</ele><time>2026-04-06T09:36:51.056Z</time></trkpt><trkpt lat="45.618683120279925" lon="10.481373594392844"><ele>244.33333333333331</ele><time>2026-04-06T09:36:52.056Z</time></trkpt><trkpt lat="45.61888052315572" lon="10.481487175108029"><ele>244.66666666666669</ele><time>2026-04-06T09:36:53.056Z</time></trkpt><trkpt lat="45.61905770379778" lon="10.481624022361437"><ele>245.0</ele><time>2026-04-06T09:36:54.056Z</time></trkpt><trkpt lat="45.619218338411834" lon="10.481746569025427"><ele>245.0</ele><time>2026-04-06T09:36:55.056Z</time></trkpt><trkpt lat="45.61937886378874" lon="10.481870037411007"><ele>245.0</ele><time>2026-04-06T09:36:56.056Z</time></trkpt><trkpt lat="45.61953302705169" lon="10.482035382276859"><ele>245.0</ele><time>2026-04-06T09:36:57.057Z</time></trkpt><trkpt lat="45.61969569660518" lon="10.482188939460514"><ele>249.0</ele><time>2026-04-06T09:36:58.057Z</time></trkpt><trkpt lat="45.619848426316565" lon="10.482363855419276"><ele>253.0</ele><time>2026-04-06T09:36:59.057Z</time></trkpt><trkpt lat="45.62001577402742" lon="10.482523138995306"><ele>257.0</ele><time>2026-04-06T09:37:00.057Z</time></trkpt><trkpt lat="45.62006671361607" lon="10.482728717025331"><ele>257.0</ele><time>2026-04-06T09:37:01.057Z</time></trkpt><trkpt lat="45.620225310515195" lon="10.482900090197594"><ele>257.0</ele><time>2026-04-06T09:37:02.057Z</time></trkpt><trkpt lat="45.6203868355046" lon="10.483074627349467"><ele>257.0</ele><time>2026-04-06T09:37:03.07Z</time></trkpt><trkpt lat="45.62054521762719" lon="10.483245768425583"><ele>266.0</ele><time>2026-04-06T09:37:04.07Z</time></trkpt><trkpt lat="45.620704175931905" lon="10.483418054696159"><ele>275.0</ele><time>2026-04-06T09:37:05.07Z</time></trkpt><trkpt lat="45.62086366433073" lon="10.483590915858588"><ele>284.0</ele><time>2026-04-06T09:37:06.071Z</time></trkpt><trkpt lat="45.6223301738538" lon="10.485358569129476"><ele>301.5</ele><time>2026-04-06T09:37:17.732Z</time></trkpt><trkpt lat="45.62250029895041" lon="10.485484759441203"><ele>319.0</ele><time>2026-04-06T09:37:18.632Z</time></trkpt><trkpt lat="45.62124206866194" lon="10.483837146079814"><ele>319.0</ele><time>2026-04-06T09:37:30.656Z</time></trkpt><trkpt lat="45.62173344717862" lon="10.48439958153278"><ele>362.0</ele><time>2026-04-06T09:37:31.656Z</time></trkpt><trkpt lat="45.62223403887761" lon="10.484943833140507"><ele>342.0</ele><time>2026-04-06T09:37:32.656Z</time></trkpt><trkpt lat="45.62274476968646" lon="10.485469327349067"><ele>377.0</ele><time>2026-04-06T09:37:33.656Z</time></trkpt><trkpt lat="45.623245920060626" lon="10.48601325550847"><ele>355.0</ele><time>2026-04-06T09:37:34.656Z</time></trkpt><trkpt lat="45.623747552623776" lon="10.486556116080347"><ele>326.0</ele><time>2026-04-06T09:37:35.656Z</time></trkpt><trkpt lat="45.624248995520944" lon="10.487098771398037"><ele>305.0</ele><time>2026-04-06T09:37:36.656Z</time></trkpt><trkpt lat="45.62475112445625" lon="10.487640790448063"><ele>277.0</ele><time>2026-04-06T09:37:37.656Z</time></trkpt><trkpt lat="45.6252535453524" lon="10.488182054983632"><ele>290.0</ele><time>2026-04-06T09:37:38.656Z</time></trkpt><trkpt lat="45.625755554317465" lon="10.488723848443149"><ele>332.0</ele><time>2026-04-06T09:37:39.656Z</time></trkpt><trkpt lat="45.62625662675637" lon="10.489267617859781"><ele>343.0</ele><time>2026-04-06T09:37:40.656Z</time></trkpt><trkpt lat="45.626757694118" lon="10.48981138176649"><ele>366.0</ele><time>2026-04-06T09:37:41.656Z</time></trkpt><trkpt lat="45.62725877904105" lon="10.49035516473105"><ele>366.5</ele><time>2026-04-06T09:37:42.656Z</time></trkpt><trkpt lat="45.6273986" lon="10.4905069"><ele>367.0</ele><time>2026-04-06T09:37:43.656Z</time></trkpt><trkpt lat="45.63154983338493" lon="10.495133763188957"><ele>328.66666666666663</ele><time>2026-04-06T09:38:13.057Z</time></trkpt><trkpt lat="45.6317441444157" lon="10.495358233191423"><ele>290.3333333333333</ele><time>2026-04-06T09:38:14.057Z</time></trkpt><trkpt lat="45.6318839071746" lon="10.495371313025544"><ele>252.0</ele><time>2026-04-06T09:38:15.057Z</time></trkpt><trkpt lat="45.63197062944629" lon="10.495428122372052"><ele>252.66666666666669</ele><time>2026-04-06T09:38:16.057Z</time></trkpt><trkpt lat="45.63214501660818" lon="10.495554101755355"><ele>253.33333333333334</ele><time>2026-04-06T09:38:17.057Z</time></trkpt><trkpt lat="45.632303040996334" lon="10.495656988506761"><ele>254.0</ele><time>2026-04-06T09:38:18.057Z</time></trkpt><trkpt lat="45.63246859169556" lon="10.49575714770891"><ele>254.0</ele><time>2026-04-06T09:38:19.057Z</time></trkpt><trkpt lat="45.632625131678495" lon="10.495864460186464"><ele>254.0</ele><time>2026-04-06T09:38:20.057Z</time></trkpt><trkpt lat="45.63277620992286" lon="10.495944273670396"><ele>254.0</ele><time>2026-04-06T09:38:21.057Z</time></trkpt><trkpt lat="45.63293104048717" lon="10.496015121514175"><ele>254.66666666666669</ele><time>2026-04-06T09:38:22.057Z</time></trkpt><trkpt lat="45.63308125863744" lon="10.496085744381395"><ele>255.33333333333331</ele><time>2026-04-06T09:38:23.057Z</time></trkpt><trkpt lat="45.6332586031401" lon="10.496157630202104"><ele>256.0</ele><time>2026-04-06T09:38:24.057Z</time></trkpt><trkpt lat="45.63343626120372" lon="10.496213527999291"><ele>256.0</ele><time>2026-04-06T09:38:25.057Z</time></trkpt><trkpt lat="45.633616193530216" lon="10.496245561071671"><ele>256.0</ele><time>2026-04-06T09:38:26.057Z</time></trkpt><trkpt lat="45.633799127141025" lon="10.496277764695822"><ele>256.0</ele><time>2026-04-06T09:38:27.057Z</time></trkpt><trkpt lat="45.633995780225035" lon="10.49630612071295"><ele>255.66666666666666</ele><time>2026-04-06T09:38:28.057Z</time></trkpt><trkpt lat="45.634203283235486" lon="10.496322667395615"><ele>255.33333333333331</ele><time>2026-04-06T09:38:29.057Z</time></trkpt><trkpt lat="45.634415986617576" lon="10.496326745387865"><ele>255.0</ele><time>2026-04-06T09:38:30.057Z</time></trkpt><trkpt lat="45.634613691611875" lon="10.496320203892974"><ele>254.66666666666669</ele><time>2026-04-06T09:38:31.057Z</time></trkpt><trkpt lat="45.63481979767149" lon="10.496280003839848"><ele>254.33333333333334</ele><time>2026-04-06T09:38:32.057Z</time></trkpt><trkpt lat="45.635030394466725" lon="10.496244545205181"><ele>254.0</ele><time>2026-04-06T09:38:33.057Z</time></trkpt><trkpt lat="45.6352327423917" lon="10.49621563129975"><ele>256.33333333333337</ele><time>2026-04-06T09:38:34.057Z</time></trkpt><trkpt lat="45.63543091778175" lon="10.496165568925809"><ele>258.6666666666667</ele><time>2026-04-06T09:38:35.057Z</time></trkpt><trkpt lat="45.63560933725027" lon="10.496131570067657"><ele>261.0</ele><time>2026-04-06T09:38:36.057Z</time></trkpt><trkpt lat="45.63579028474591" lon="10.496099898571545"><ele>261.0</ele><time>2026-04-06T09:38:37.057Z</time></trkpt><trkpt lat="45.63596400470528" lon="10.496072033279345"><ele>261.0</ele><time>2026-04-06T09:38:38.057Z</time></trkpt><trkpt lat="45.6361572145121" lon="10.496033522042373"><ele>261.0</ele><time>2026-04-06T09:38:39.057Z</time></trkpt><trkpt lat="45.63634718526359" lon="10.496003524898185"><ele>262.0</ele><time>2026-04-06T09:38:40.057Z</time></trkpt><trkpt lat="45.63655365927553" lon="10.495961515321408"><ele>263.0</ele><time>2026-04-06T09:38:41.057Z</time></trkpt><trkpt lat="45.63675559537358" lon="10.495917697774683"><ele>264.0</ele><time>2026-04-06T09:38:42.057Z</time></trkpt><trkpt lat="45.63695720504951" lon="10.495865435526856"><ele>262.3333333333333</ele><time>2026-04-06T09:38:43.057Z</time></trkpt><trkpt lat="45.63715186042287" lon="10.495799261637874"><ele>260.66666666666663</ele><time>2026-04-06T09:38:44.057Z</time></trkpt><trkpt lat="45.63734940458695" lon="10.495730611649794"><ele>259.0</ele><time>2026-04-06T09:38:45.057Z</time></trkpt><trkpt lat="45.63754008740914" lon="10.495641763766516"><ele>259.0</ele><time>2026-04-06T09:38:46.057Z</time></trkpt><trkpt lat="45.63773319034451" lon="10.495560487240043"><ele>259.0</ele><time>2026-04-06T09:38:47.057Z</time></trkpt><trkpt lat="45.637924082117856" lon="10.495468671628855"><ele>259.0</ele><time>2026-04-06T09:38:48.057Z</time></trkpt><trkpt lat="45.638112891989344" lon="10.495371474942154"><ele>259.3333333333333</ele><time>2026-04-06T09:38:49.057Z</time></trkpt><trkpt lat="45.638299711642716" lon="10.495278087209126"><ele>259.6666666666667</ele><time>2026-04-06T09:38:50.057Z</time></trkpt><trkpt lat="45.63849517046117" lon="10.495176324006646"><ele>260.0</ele><time>2026-04-06T09:38:51.057Z</time></trkpt><trkpt lat="45.638692753744174" lon="10.495079004630183"><ele>260.0</ele><time>2026-04-06T09:38:52.057Z</time></trkpt><trkpt lat="45.63889075451024" lon="10.49497007509371"><ele>260.0</ele><time>2026-04-06T09:38:53.057Z</time></trkpt><trkpt lat="45.639087498701365" lon="10.494858742936463"><ele>260.0</ele><time>2026-04-06T09:38:54.057Z</time></trkpt><trkpt lat="45.63927844635076" lon="10.494733701720104"><ele>260.0</ele><time>2026-04-06T09:38:55.057Z</time></trkpt><trkpt lat="45.63946047332038" lon="10.494601627952221"><ele>260.0</ele><time>2026-04-06T09:38:56.057Z</time></trkpt><trkpt lat="45.639641291990834" lon="10.494462613152201"><ele>260.0</ele><time>2026-04-06T09:38:57.057Z</time></trkpt><trkpt lat="45.63981867966158" lon="10.494311817261602"><ele>260.6666666666667</ele><time>2026-04-06T09:38:58.057Z</time></trkpt><trkpt lat="45.63999148300325" lon="10.494160089096257"><ele>261.3333333333333</ele><time>2026-04-06T09:38:59.057Z</time></trkpt><trkpt lat="45.640153000863236" lon="10.493979819047944"><ele>262.0</ele><time>2026-04-06T09:39:00.057Z</time></trkpt><trkpt lat="45.64031867936975" lon="10.493790242320213"><ele>263.0</ele><time>2026-04-06T09:39:01.057Z</time></trkpt><trkpt lat="45.64048462125799" lon="10.49357181114206"><ele>264.0</ele><time>2026-04-06T09:39:02.057Z</time></trkpt><trkpt lat="45.640660443379744" lon="10.493319059914786"><ele>264.0</ele><time>2026-04-06T09:39:03.058Z</time></trkpt><trkpt lat="45.640833290529585" lon="10.493055515738797"><ele>264.0</ele><time>2026-04-06T09:39:04.058Z</time></trkpt><trkpt lat="45.64099430343092" lon="10.492761049161599"><ele>264.5</ele><time>2026-04-06T09:39:05.058Z</time></trkpt><trkpt lat="45.64112110492955" lon="10.49247838961019"><ele>265.0</ele><time>2026-04-06T09:39:06.058Z</time></trkpt><trkpt lat="45.641230008074594" lon="10.49220223876919"><ele>268.66666666666663</ele><time>2026-04-06T09:39:07.058Z</time></trkpt><trkpt lat="45.6413204617834" lon="10.491942884871122"><ele>272.3333333333333</ele><time>2026-04-06T09:39:08.058Z</time></trkpt><trkpt lat="45.641404528327" lon="10.491682698174268"><ele>276.0</ele><time>2026-04-06T09:39:09.058Z</time></trkpt><trkpt lat="45.64148467195577" lon="10.491406451543774"><ele>284.6666666666667</ele><time>2026-04-06T09:39:10.058Z</time></trkpt><trkpt lat="45.641543236430955" lon="10.49112083567508"><ele>293.33333333333337</ele><time>2026-04-06T09:39:11.058Z</time></trkpt><trkpt lat="45.641604283008746" lon="10.490838391949314"><ele>302.0</ele><time>2026-04-06T09:39:12.058Z</time></trkpt><trkpt lat="45.641661154869595" lon="10.490553973329952"><ele>314.0</ele><time>2026-04-06T09:39:13.058Z</time></trkpt><trkpt lat="45.6417223328125" lon="10.490270088871448"><ele>326.0</ele><time>2026-04-06T09:39:14.073Z</time></trkpt><trkpt lat="45.64178050915299" lon="10.489988204396994"><ele>338.0</ele><time>2026-04-06T09:39:15.07Z</time></trkpt><trkpt lat="45.64180095519875" lon="10.489710603984674"><ele>357.5</ele><time>2026-04-06T09:39:16.075Z</time></trkpt><trkpt lat="45.641807850851905" lon="10.48943959436048"><ele>377.0</ele><time>2026-04-06T09:39:17.069Z</time></trkpt><trkpt lat="45.641732009012586" lon="10.488872096125007"><ele>422.0</ele><time>2026-04-06T09:39:41.656Z</time></trkpt><trkpt lat="45.64172273047901" lon="10.487974344888698"><ele>518.0</ele><time>2026-04-06T09:39:42.656Z</time></trkpt><trkpt lat="45.641694736992726" lon="10.487077004983792"><ele>553.0</ele><time>2026-04-06T09:39:43.656Z</time></trkpt><trkpt lat="45.641685230833595" lon="10.486178877203761"><ele>254.0</ele><time>2026-04-06T09:39:44.656Z</time></trkpt><trkpt lat="45.642923279707915" lon="10.466111423457475"><ele>254.0</ele><time>2026-04-06T09:40:40.058Z</time></trkpt><trkpt lat="45.64292441549501" lon="10.465847460350336"><ele>254.0</ele><time>2026-04-06T09:40:41.058Z</time></trkpt><trkpt lat="45.64305619432148" lon="10.465669016743298"><ele>254.0</ele><time>2026-04-06T09:40:42.058Z</time></trkpt><trkpt lat="45.64310549257065" lon="10.46548958231718"><ele>253.33333333333334</ele><time>2026-04-06T09:40:43.058Z</time></trkpt><trkpt lat="45.64316577384614" lon="10.465277415501967"><ele>252.66666666666669</ele><time>2026-04-06T09:40:44.058Z</time></trkpt><trkpt lat="45.643230319712316" lon="10.465070358326432"><ele>252.0</ele><time>2026-04-06T09:40:45.058Z</time></trkpt><trkpt lat="45.64329316216979" lon="10.464847258876018"><ele>252.0</ele><time>2026-04-06T09:40:46.058Z</time></trkpt><trkpt lat="45.64335074097664" lon="10.464620371273268"><ele>252.0</ele><time>2026-04-06T09:40:47.058Z</time></trkpt><trkpt lat="45.643414521454694" lon="10.464396090371682"><ele>252.0</ele><time>2026-04-06T09:40:48.058Z</time></trkpt><trkpt lat="45.64348151203724" lon="10.46416533857985"><ele>255.0</ele><time>2026-04-06T09:40:49.058Z</time></trkpt><trkpt lat="45.64221761132583" lon="10.462889414927334"><ele>255.0</ele><time>2026-04-06T09:40:50.058Z</time></trkpt><trkpt lat="45.642339773627235" lon="10.462692188053799"><ele>255.0</ele><time>2026-04-06T09:40:51.058Z</time></trkpt><trkpt lat="45.642465537631786" lon="10.46250309811673"><ele>255.0</ele><time>2026-04-06T09:40:52.058Z</time></trkpt><trkpt lat="45.64259872334664" lon="10.462321886887667"><ele>255.0</ele><time>2026-04-06T09:40:53.058Z</time></trkpt><trkpt lat="45.64268241399964" lon="10.462095721172357"><ele>255.0</ele><time>2026-04-06T09:40:54.058Z</time></trkpt><trkpt lat="45.64281580338338" lon="10.461911130488172"><ele>255.0</ele><time>2026-04-06T09:40:55.058Z</time></trkpt><trkpt lat="45.64295672578451" lon="10.461729525050153"><ele>256.3333333333333</ele><time>2026-04-06T09:40:56.058Z</time></trkpt><trkpt lat="45.64304484281834" lon="10.461505303556933"><ele>257.66666666666663</ele><time>2026-04-06T09:40:57.058Z</time></trkpt><trkpt lat="45.643252900795325" lon="10.461377167411499"><ele>259.0</ele><time>2026-04-06T09:40:58.058Z</time></trkpt><trkpt lat="45.64347599727584" lon="10.461274130872422"><ele>261.5</ele><time>2026-04-06T09:40:59.058Z</time></trkpt><trkpt lat="45.64368035882205" lon="10.461156754506279"><ele>264.0</ele><time>2026-04-06T09:41:00.058Z</time></trkpt><trkpt lat="45.644141484208454" lon="10.461272612955732"><ele>264.0</ele><time>2026-04-06T09:41:01.058Z</time></trkpt><trkpt lat="45.64425511358638" lon="10.461127277916331"><ele>264.0</ele><time>2026-04-06T09:41:02.058Z</time></trkpt><trkpt lat="45.64431238571827" lon="10.460920178147367"><ele>264.0</ele><time>2026-04-06T09:41:03.058Z</time></trkpt><trkpt lat="45.64438356101118" lon="10.46074114458994"><ele>264.0</ele><time>2026-04-06T09:41:04.058Z</time></trkpt><trkpt lat="45.644446546061815" lon="10.460552205495974"><ele>264.0</ele><time>2026-04-06T09:41:05.058Z</time></trkpt><trkpt lat="45.64449311520238" lon="10.460336587371865"><ele>264.0</ele><time>2026-04-06T09:41:06.058Z</time></trkpt><trkpt lat="45.64456547813099" lon="10.460111576744824"><ele>265.6666666666667</ele><time>2026-04-06T09:41:07.058Z</time></trkpt><trkpt lat="45.64462837429831" lon="10.459878966049127"><ele>267.33333333333337</ele><time>2026-04-06T09:41:08.058Z</time></trkpt><trkpt lat="45.64470093039604" lon="10.459639738398632"><ele>269.0</ele><time>2026-04-06T09:41:09.059Z</time></trkpt><trkpt lat="45.64477369898181" lon="10.459407243919005"><ele>269.0</ele><time>2026-04-06T09:41:10.059Z</time></trkpt><trkpt lat="45.64483585576278" lon="10.459161231940609"><ele>269.0</ele><time>2026-04-06T09:41:11.059Z</time></trkpt><trkpt lat="45.64490574031676" lon="10.458911759273509"><ele>269.0</ele><time>2026-04-06T09:41:12.059Z</time></trkpt><trkpt lat="45.64497136655171" lon="10.4586682511638"><ele>268.0</ele><time>2026-04-06T09:41:13.059Z</time></trkpt><trkpt lat="45.645035332787536" lon="10.4584383974851"><ele>267.0</ele><time>2026-04-06T09:41:14.059Z</time></trkpt><trkpt lat="45.6450997423727" lon="10.45821207499523"><ele>266.0</ele><time>2026-04-06T09:41:15.059Z</time></trkpt><trkpt lat="45.64517545953068" lon="10.458002082067077"><ele>265.0</ele><time>2026-04-06T09:41:16.059Z</time></trkpt><trkpt lat="45.6452274726705" lon="10.457767716703124"><ele>264.0</ele><time>2026-04-06T09:41:17.059Z</time></trkpt><trkpt lat="45.64530506433253" lon="10.457565145076948"><ele>263.0</ele><time>2026-04-06T09:41:18.059Z</time></trkpt><trkpt lat="45.64536817617217" lon="10.457356687109533"><ele>265.0</ele><time>2026-04-06T09:41:19.059Z</time></trkpt><trkpt lat="45.645432588542484" lon="10.457150225133384"><ele>267.0</ele><time>2026-04-06T09:41:20.059Z</time></trkpt><trkpt lat="45.645509998200204" lon="10.45690888782163"><ele>269.0</ele><time>2026-04-06T09:41:21.059Z</time></trkpt><trkpt lat="45.64558247713904" lon="10.456684256190998"><ele>269.0</ele><time>2026-04-06T09:41:22.059Z</time></trkpt><trkpt lat="45.64565558176872" lon="10.45646312004103"><ele>269.0</ele><time>2026-04-06T09:41:23.059Z</time></trkpt><trkpt lat="45.64573151621131" lon="10.45623604763782"><ele>269.0</ele><time>2026-04-06T09:41:24.059Z</time></trkpt><trkpt lat="45.645809520634835" lon="10.456002785146632"><ele>268.33333333333337</ele><time>2026-04-06T09:41:25.059Z</time></trkpt><trkpt lat="45.645890747565375" lon="10.45575988617442"><ele>267.6666666666667</ele><time>2026-04-06T09:41:26.059Z</time></trkpt><trkpt lat="45.64597587369971" lon="10.455505327199948"><ele>267.0</ele><time>2026-04-06T09:41:27.059Z</time></trkpt><trkpt lat="45.64606954700748" lon="10.455223901691088"><ele>270.5</ele><time>2026-04-06T09:41:28.059Z</time></trkpt><trkpt lat="45.646169990243195" lon="10.45492188751928"><ele>274.0</ele><time>2026-04-06T09:41:29.059Z</time></trkpt><trkpt lat="45.64626567189402" lon="10.454593440012033"><ele>274.0</ele><time>2026-04-06T09:41:30.059Z</time></trkpt><trkpt lat="45.6463701220662" lon="10.454280081474987"><ele>274.0</ele><time>2026-04-06T09:41:31.059Z</time></trkpt><trkpt lat="45.646466780042644" lon="10.453985398551096"><ele>271.66666666666663</ele><time>2026-04-06T09:41:32.059Z</time></trkpt><trkpt lat="45.64657073457839" lon="10.453720642803717"><ele>269.3333333333333</ele><time>2026-04-06T09:41:33.059Z</time></trkpt><trkpt lat="45.64665833553332" lon="10.453458377371943"><ele>267.0</ele><time>2026-04-06T09:41:34.059Z</time></trkpt><trkpt lat="45.64674081629666" lon="10.453211441061628"><ele>267.0</ele><time>2026-04-06T09:41:35.059Z</time></trkpt><trkpt lat="45.646807305416196" lon="10.452964056121706"><ele>267.0</ele><time>2026-04-06T09:41:36.059Z</time></trkpt><trkpt lat="45.64688416483356" lon="10.452737816133192"><ele>267.0</ele><time>2026-04-06T09:41:37.059Z</time></trkpt><trkpt lat="45.64695696092799" lon="10.45251253352562"><ele>271.6666666666667</ele><time>2026-04-06T09:41:38.059Z</time></trkpt><trkpt lat="45.64703827813815" lon="10.452273211518332"><ele>276.33333333333337</ele><time>2026-04-06T09:41:39.059Z</time></trkpt><trkpt lat="45.64715110086023" lon="10.452018891293466"><ele>281.0</ele><time>2026-04-06T09:41:40.059Z</time></trkpt><trkpt lat="45.64727346671018" lon="10.45174493403137"><ele>281.0</ele><time>2026-04-06T09:41:41.059Z</time></trkpt><trkpt lat="45.64740606147193" lon="10.451486842044254"><ele>281.0</ele><time>2026-04-06T09:41:42.059Z</time></trkpt><trkpt lat="45.647533807402375" lon="10.451264564929202"><ele>281.0</ele><time>2026-04-06T09:41:43.059Z</time></trkpt><trkpt lat="45.64766265586812" lon="10.451063260945297"><ele>294.0</ele><time>2026-04-06T09:41:44.059Z</time></trkpt><trkpt lat="45.64780137187832" lon="10.450867901509097"><ele>307.0</ele><time>2026-04-06T09:41:45.059Z</time></trkpt><trkpt lat="45.6479537045451" lon="10.450681872607317"><ele>320.0</ele><time>2026-04-06T09:41:46.072Z</time></trkpt><trkpt lat="45.64810595618069" lon="10.45050205774856"><ele>319.33333333333337</ele><time>2026-04-06T09:41:47.073Z</time></trkpt><trkpt lat="45.648259074450166" lon="10.45033350992644"><ele>318.6666666666667</ele><time>2026-04-06T09:41:48.07Z</time></trkpt><trkpt lat="45.648407154553816" lon="10.450169262712178"><ele>318.0</ele><time>2026-04-06T09:41:49.075Z</time></trkpt><trkpt lat="45.64855992500688" lon="10.44999981299548"><ele>272.0</ele><time>2026-04-06T09:41:50.075Z</time></trkpt><trkpt lat="45.65031710133172" lon="10.446772048636477"><ele>272.0</ele><time>2026-04-06T09:42:06.162Z</time></trkpt><trkpt lat="45.65056967087616" lon="10.44708383270581"><ele>272.0</ele><time>2026-04-06T09:42:09.059Z</time></trkpt><trkpt lat="45.65069639579706" lon="10.446920063276204"><ele>272.0</ele><time>2026-04-06T09:42:10.059Z</time></trkpt><trkpt lat="45.6506343736694" lon="10.446641846185932"><ele>272.0</ele><time>2026-04-06T09:42:11.059Z</time></trkpt><trkpt lat="45.65064724158067" lon="10.446468398971469"><ele>272.0</ele><time>2026-04-06T09:42:12.059Z</time></trkpt><trkpt lat="45.6506755131952" lon="10.446280887474737"><ele>271.0</ele><time>2026-04-06T09:42:13.059Z</time></trkpt><trkpt lat="45.65072004294262" lon="10.446045407080705"><ele>270.0</ele><time>2026-04-06T09:42:14.059Z</time></trkpt><trkpt lat="45.65076462157801" lon="10.445717949986111"><ele>269.0</ele><time>2026-04-06T09:42:15.059Z</time></trkpt><trkpt lat="45.65081507565385" lon="10.445410180512484"><ele>267.0</ele><time>2026-04-06T09:42:16.059Z</time></trkpt><trkpt lat="45.650863675384706" lon="10.445064902632863"><ele>265.0</ele><time>2026-04-06T09:42:17.059Z</time></trkpt><trkpt lat="45.65092005106961" lon="10.444688177900607"><ele>264.0</ele><time>2026-04-06T09:42:18.059Z</time></trkpt><trkpt lat="45.650985700460176" lon="10.444294425284951"><ele>263.0</ele><time>2026-04-06T09:42:19.059Z</time></trkpt><trkpt lat="45.65105938589271" lon="10.443871145691965"><ele>267.5</ele><time>2026-04-06T09:42:20.059Z</time></trkpt><trkpt lat="45.65113043890915" lon="10.443422084932978"><ele>272.0</ele><time>2026-04-06T09:42:21.059Z</time></trkpt><trkpt lat="45.65120731236617" lon="10.442957408251857"><ele>272.5</ele><time>2026-04-06T09:42:22.059Z</time></trkpt><trkpt lat="45.65127893860658" lon="10.442481471647792"><ele>273.0</ele><time>2026-04-06T09:42:23.059Z</time></trkpt><trkpt lat="45.65133646536646" lon="10.442015592615121"><ele>275.5</ele><time>2026-04-06T09:42:24.059Z</time></trkpt><trkpt lat="45.651399688721476" lon="10.441549425250082"><ele>278.0</ele><time>2026-04-06T09:42:25.059Z</time></trkpt><trkpt lat="45.651465122015935" lon="10.441119137408913"><ele>279.5</ele><time>2026-04-06T09:42:26.059Z</time></trkpt><trkpt lat="45.65152448461231" lon="10.440720977265725"><ele>281.0</ele><time>2026-04-06T09:42:27.059Z</time></trkpt><trkpt lat="45.65157862881727" lon="10.440325174929619"><ele>283.0</ele><time>2026-04-06T09:42:28.059Z</time></trkpt><trkpt lat="45.651631463894304" lon="10.439930137343937"><ele>285.0</ele><time>2026-04-06T09:42:29.059Z</time></trkpt><trkpt lat="45.65168815137825" lon="10.439533802849676"><ele>285.0</ele><time>2026-04-06T09:42:30.059Z</time></trkpt><trkpt lat="45.6517449049657" lon="10.43913530396628"><ele>285.0</ele><time>2026-04-06T09:42:31.059Z</time></trkpt><trkpt lat="45.6517965603177" lon="10.43877639365675"><ele>283.0</ele><time>2026-04-06T09:42:32.059Z</time></trkpt><trkpt lat="45.65184520092624" lon="10.43844832390222"><ele>281.0</ele><time>2026-04-06T09:42:33.059Z</time></trkpt><trkpt lat="45.651891721490195" lon="10.438135174120335"><ele>282.5</ele><time>2026-04-06T09:42:34.059Z</time></trkpt><trkpt lat="45.65193677317589" lon="10.437812662422166"><ele>284.0</ele><time>2026-04-06T09:42:35.059Z</time></trkpt><trkpt lat="45.65199562741828" lon="10.437504240057491"><ele>288.0</ele><time>2026-04-06T09:42:36.059Z</time></trkpt><trkpt lat="45.652060552024345" lon="10.43719420213927"><ele>292.0</ele><time>2026-04-06T09:42:37.059Z</time></trkpt><trkpt lat="45.65212317937063" lon="10.436886598505552"><ele>295.66666666666663</ele><time>2026-04-06T09:42:38.059Z</time></trkpt><trkpt lat="45.652190203831" lon="10.436593227205723"><ele>299.3333333333333</ele><time>2026-04-06T09:42:39.059Z</time></trkpt><trkpt lat="45.652259693777886" lon="10.436313425756625"><ele>303.0</ele><time>2026-04-06T09:42:40.059Z</time></trkpt><trkpt lat="45.65233873646975" lon="10.436020074521903"><ele>306.0</ele><time>2026-04-06T09:42:41.059Z</time></trkpt><trkpt lat="45.652428513548394" lon="10.435705259654577"><ele>309.0</ele><time>2026-04-06T09:42:42.059Z</time></trkpt><trkpt lat="45.652530514730984" lon="10.435374561663705"><ele>312.0</ele><time>2026-04-06T09:42:43.059Z</time></trkpt><trkpt lat="45.65265268703937" lon="10.435059525732408"><ele>315.0</ele><time>2026-04-06T09:42:44.076Z</time></trkpt><trkpt lat="45.652764973952294" lon="10.434749783849314"><ele>342.0</ele><time>2026-04-06T09:42:45.072Z</time></trkpt><trkpt lat="45.652889277315744" lon="10.434430249903828"><ele>369.0</ele><time>2026-04-06T09:42:46.076Z</time></trkpt><trkpt lat="45.65302794826537" lon="10.43410089160615"><ele>369.5</ele><time>2026-04-06T09:42:47.071Z</time></trkpt><trkpt lat="45.653168859085326" lon="10.433794606667403"><ele>370.0</ele><time>2026-04-06T09:42:48.074Z</time></trkpt><trkpt lat="45.653383734576316" lon="10.433300582234649"><ele>381.0</ele><time>2026-04-06T09:43:12.656Z</time></trkpt><trkpt lat="45.653770441799146" lon="10.432592559018232"><ele>333.0</ele><time>2026-04-06T09:43:13.656Z</time></trkpt><trkpt lat="45.654205273584815" lon="10.431943104570427"><ele>360.0</ele><time>2026-04-06T09:43:14.656Z</time></trkpt><trkpt lat="45.654656777400156" lon="10.431320971242608"><ele>336.0</ele><time>2026-04-06T09:43:15.656Z</time></trkpt><trkpt lat="45.655138097689544" lon="10.430743862101101"><ele>376.0</ele><time>2026-04-06T09:43:16.656Z</time></trkpt><trkpt lat="45.655637239047" lon="10.430197505548941"><ele>409.0</ele><time>2026-04-06T09:43:17.656Z</time></trkpt><trkpt lat="45.65617865614046" lon="10.429740502340437"><ele>396.0</ele><time>2026-04-06T09:43:18.656Z</time></trkpt><trkpt lat="45.6567298627768" lon="10.429306586530592"><ele>427.0</ele><time>2026-04-06T09:43:19.656Z</time></trkpt><trkpt lat="45.65727378384402" lon="10.428851975709431"><ele>388.0</ele><time>2026-04-06T09:43:20.657Z</time></trkpt><trkpt lat="45.65783249752388" lon="10.428438965759078"><ele>388.0</ele><time>2026-04-06T09:43:21.656Z</time></trkpt><trkpt lat="45.6583764536186" lon="10.427985551489803"><ele>329.0</ele><time>2026-04-06T09:43:22.656Z</time></trkpt><trkpt lat="45.658928366050546" lon="10.427552983569141"><ele>288.0</ele><time>2026-04-06T09:43:23.656Z</time></trkpt><trkpt lat="45.65948031769733" lon="10.427120384913383"><ele>288.0</ele><time>2026-04-06T09:43:24.656Z</time></trkpt><trkpt lat="45.6599867" lon="10.4267215"><ele>285.5</ele><time>2026-04-06T09:43:25.656Z</time></trkpt><trkpt lat="45.6603752403014" lon="10.426447419459397"><ele>283.0</ele><time>2026-04-06T09:43:40.059Z</time></trkpt><trkpt lat="45.660527025165464" lon="10.426324795376582"><ele>281.3333333333333</ele><time>2026-04-06T09:43:41.059Z</time></trkpt><trkpt lat="45.66068713216297" lon="10.42619637363327"><ele>279.6666666666667</ele><time>2026-04-06T09:43:42.059Z</time></trkpt><trkpt lat="45.660847213411415" lon="10.42608149707421"><ele>278.0</ele><time>2026-04-06T09:43:43.059Z</time></trkpt><trkpt lat="45.66100590073734" lon="10.425971156267925"><ele>279.33333333333337</ele><time>2026-04-06T09:43:44.059Z</time></trkpt><trkpt lat="45.66113966501752" lon="10.425847396432998"><ele>280.6666666666667</ele><time>2026-04-06T09:43:45.059Z</time></trkpt><trkpt lat="45.661264565024865" lon="10.425726553504422"><ele>282.0</ele><time>2026-04-06T09:43:46.06Z</time></trkpt><trkpt lat="45.66139538340468" lon="10.425594900128836"><ele>282.6666666666667</ele><time>2026-04-06T09:43:47.06Z</time></trkpt><trkpt lat="45.661519869566675" lon="10.425455807392625"><ele>283.33333333333337</ele><time>2026-04-06T09:43:48.06Z</time></trkpt><trkpt lat="45.661637175998294" lon="10.425308702467948"><ele>284.0</ele><time>2026-04-06T09:43:49.06Z</time></trkpt><trkpt lat="45.66175703895701" lon="10.42516481270436"><ele>284.0</ele><time>2026-04-06T09:43:50.06Z</time></trkpt><trkpt lat="45.66188423193159" lon="10.425009107024259"><ele>284.0</ele><time>2026-04-06T09:43:51.06Z</time></trkpt><trkpt lat="45.66200262046825" lon="10.42485080955224"><ele>284.0</ele><time>2026-04-06T09:43:52.06Z</time></trkpt><trkpt lat="45.662103081423915" lon="10.424685419387314"><ele>286.33333333333337</ele><time>2026-04-06T09:43:53.06Z</time></trkpt><trkpt lat="45.662208525952146" lon="10.424520451542849"><ele>288.6666666666667</ele><time>2026-04-06T09:43:54.06Z</time></trkpt><trkpt lat="45.66231966781966" lon="10.42433354797118"><ele>291.0</ele><time>2026-04-06T09:43:55.06Z</time></trkpt><trkpt lat="45.66243531102747" lon="10.424206436050095"><ele>291.0</ele><time>2026-04-06T09:43:56.06Z</time></trkpt><trkpt lat="45.662542501855924" lon="10.423945504392979"><ele>291.0</ele><time>2026-04-06T09:43:57.06Z</time></trkpt><trkpt lat="45.6626855236392" lon="10.423688290307469"><ele>291.0</ele><time>2026-04-06T09:43:58.06Z</time></trkpt><trkpt lat="45.66279691552821" lon="10.423422935803925"><ele>300.0</ele><time>2026-04-06T09:43:59.06Z</time></trkpt><trkpt lat="45.66292266003657" lon="10.423173030956832"><ele>309.0</ele><time>2026-04-06T09:44:00.06Z</time></trkpt><trkpt lat="45.6630335692734" lon="10.422962901354719"><ele>318.0</ele><time>2026-04-06T09:44:01.075Z</time></trkpt><trkpt lat="45.6631515319431" lon="10.422720128341261"><ele>319.6666666666667</ele><time>2026-04-06T09:44:02.075Z</time></trkpt><trkpt lat="45.66324657444215" lon="10.422463955864533"><ele>321.33333333333337</ele><time>2026-04-06T09:44:03.071Z</time></trkpt><trkpt lat="45.66333049594059" lon="10.422198745091663"><ele>323.0</ele><time>2026-04-06T09:44:04.071Z</time></trkpt><trkpt lat="45.663414470781234" lon="10.421933366723831"><ele>323.0</ele><time>2026-04-06T09:44:05.073Z</time></trkpt><trkpt lat="45.663513114147015" lon="10.421360098598726"><ele>323.0</ele><time>2026-04-06T09:44:29.656Z</time></trkpt><trkpt lat="45.66377111575906" lon="10.420540893938233"><ele>334.0</ele><time>2026-04-06T09:44:30.656Z</time></trkpt><trkpt lat="45.66402836367393" lon="10.41972106843885"><ele>329.0</ele><time>2026-04-06T09:44:31.656Z</time></trkpt><trkpt lat="45.664283550952014" lon="10.418900089133219"><ele>337.0</ele><time>2026-04-06T09:44:32.656Z</time></trkpt><trkpt lat="45.66453916582506" lon="10.418079331485385"><ele>328.0</ele><time>2026-04-06T09:44:33.656Z</time></trkpt><trkpt lat="45.66483232439402" lon="10.417284186163018"><ele>326.0</ele><time>2026-04-06T09:44:34.656Z</time></trkpt><trkpt lat="45.665122173541896" lon="10.416486972222447"><ele>343.0</ele><time>2026-04-06T09:44:35.656Z</time></trkpt><trkpt lat="45.66541350185669" lon="10.415690006799931"><ele>333.0</ele><time>2026-04-06T09:44:36.657Z</time></trkpt><trkpt lat="45.6656476" lon="10.4150391"><ele>299.0</ele><time>2026-04-06T09:44:37.656Z</time></trkpt><trkpt lat="45.666666193907766" lon="10.412941742698115"><ele>299.0</ele><time>2026-04-06T09:44:43.06Z</time></trkpt><trkpt lat="45.66674694934631" lon="10.412764699716625"><ele>299.0</ele><time>2026-04-06T09:44:44.06Z</time></trkpt><trkpt lat="45.666821254861254" lon="10.412571303569122"><ele>299.0</ele><time>2026-04-06T09:44:45.06Z</time></trkpt><trkpt lat="45.666901081587135" lon="10.412399708562791"><ele>299.0</ele><time>2026-04-06T09:44:46.06Z</time></trkpt><trkpt lat="45.66699762553771" lon="10.412273874046633"><ele>298.25</ele><time>2026-04-06T09:44:47.06Z</time></trkpt><trkpt lat="45.66709580919368" lon="10.412139824490326"><ele>297.5</ele><time>2026-04-06T09:44:48.06Z</time></trkpt><trkpt lat="45.66719473537212" lon="10.41201404960438"><ele>296.75</ele><time>2026-04-06T09:44:49.06Z</time></trkpt><trkpt lat="45.66728806118513" lon="10.411913907756022"><ele>296.0</ele><time>2026-04-06T09:44:50.06Z</time></trkpt><trkpt lat="45.66738129246295" lon="10.41180530835602"><ele>296.0</ele><time>2026-04-06T09:44:51.06Z</time></trkpt><trkpt lat="45.66747413242523" lon="10.411709082757797"><ele>296.0</ele><time>2026-04-06T09:44:52.06Z</time></trkpt><trkpt lat="45.667568304973905" lon="10.411623534130005"><ele>296.0</ele><time>2026-04-06T09:44:53.06Z</time></trkpt><trkpt lat="45.667660859258994" lon="10.41154461497801"><ele>296.0</ele><time>2026-04-06T09:44:54.06Z</time></trkpt><trkpt lat="45.667753121324594" lon="10.411463088173118"><ele>296.0</ele><time>2026-04-06T09:44:55.06Z</time></trkpt><trkpt lat="45.66784577230554" lon="10.411395285271908"><ele>296.8</ele><time>2026-04-06T09:44:56.06Z</time></trkpt><trkpt lat="45.667935759726774" lon="10.411327541265978"><ele>297.6</ele><time>2026-04-06T09:44:57.06Z</time></trkpt><trkpt lat="45.668030769584846" lon="10.411259474087936"><ele>298.4</ele><time>2026-04-06T09:44:58.06Z</time></trkpt><trkpt lat="45.668124840834096" lon="10.411194461156331"><ele>299.2</ele><time>2026-04-06T09:44:59.06Z</time></trkpt><trkpt lat="45.66822593768777" lon="10.41112822950748"><ele>300.0</ele><time>2026-04-06T09:45:00.06Z</time></trkpt><trkpt lat="45.66832374618443" lon="10.41107898420315"><ele>300.0</ele><time>2026-04-06T09:45:01.06Z</time></trkpt><trkpt lat="45.66842220021888" lon="10.411035600095941"><ele>300.0</ele><time>2026-04-06T09:45:02.06Z</time></trkpt><trkpt lat="45.66851377582082" lon="10.410999078850878"><ele>300.0</ele><time>2026-04-06T09:45:03.06Z</time></trkpt><trkpt lat="45.66860353731888" lon="10.410965711884872"><ele>300.0</ele><time>2026-04-06T09:45:04.06Z</time></trkpt><trkpt lat="45.66870169152734" lon="10.410923126724434"><ele>300.0</ele><time>2026-04-06T09:45:05.06Z</time></trkpt><trkpt lat="45.66880927099373" lon="10.410883873178683"><ele>301.0</ele><time>2026-04-06T09:45:06.06Z</time></trkpt><trkpt lat="45.66892549723933" lon="10.410847769771758"><ele>302.0</ele><time>2026-04-06T09:45:07.06Z</time></trkpt><trkpt lat="45.669045758474205" lon="10.4108196016864"><ele>303.0</ele><time>2026-04-06T09:45:08.06Z</time></trkpt><trkpt lat="45.669179071758705" lon="10.41079588662345"><ele>304.0</ele><time>2026-04-06T09:45:09.06Z</time></trkpt><trkpt lat="45.66931647339073" lon="10.410772730988244"><ele>303.66666666666663</ele><time>2026-04-06T09:45:10.06Z</time></trkpt><trkpt lat="45.669456338270926" lon="10.410754197284682"><ele>303.3333333333333</ele><time>2026-04-06T09:45:11.06Z</time></trkpt><trkpt lat="45.669607370852596" lon="10.410733544461086"><ele>303.0</ele><time>2026-04-06T09:45:12.06Z</time></trkpt><trkpt lat="45.66977141923743" lon="10.410671615678787"><ele>303.0</ele><time>2026-04-06T09:45:13.06Z</time></trkpt><trkpt lat="45.669947372800294" lon="10.410732871387435"><ele>303.0</ele><time>2026-04-06T09:45:14.06Z</time></trkpt><trkpt lat="45.670145152270585" lon="10.410762100895681"><ele>303.0</ele><time>2026-04-06T09:45:15.06Z</time></trkpt><trkpt lat="45.67035684997404" lon="10.41080385342171"><ele>301.3333333333333</ele><time>2026-04-06T09:45:16.06Z</time></trkpt><trkpt lat="45.67057086993367" lon="10.410857792599073"><ele>299.66666666666663</ele><time>2026-04-06T09:45:17.06Z</time></trkpt><trkpt lat="45.6707803812306" lon="10.410910046340158"><ele>298.0</ele><time>2026-04-06T09:45:18.06Z</time></trkpt><trkpt lat="45.670971023654495" lon="10.41098149606746"><ele>299.3333333333333</ele><time>2026-04-06T09:45:19.06Z</time></trkpt><trkpt lat="45.67114119564739" lon="10.411058998475028"><ele>300.6666666666667</ele><time>2026-04-06T09:45:20.06Z</time></trkpt><trkpt lat="45.67132843940926" lon="10.411130815693568"><ele>302.0</ele><time>2026-04-06T09:45:21.06Z</time></trkpt><trkpt lat="45.671517373302294" lon="10.4111961070622"><ele>302.0</ele><time>2026-04-06T09:45:22.06Z</time></trkpt><trkpt lat="45.671715038861294" lon="10.41125834967705"><ele>302.0</ele><time>2026-04-06T09:45:23.06Z</time></trkpt><trkpt lat="45.671914488051165" lon="10.41132787508557"><ele>302.0</ele><time>2026-04-06T09:45:24.06Z</time></trkpt><trkpt lat="45.67212050641538" lon="10.411398774627008"><ele>313.6666666666667</ele><time>2026-04-06T09:45:25.06Z</time></trkpt><trkpt lat="45.67233001774777" lon="10.411471803286078"><ele>325.3333333333333</ele><time>2026-04-06T09:45:26.076Z</time></trkpt><trkpt lat="45.67253652957027" lon="10.411543208867183"><ele>337.0</ele><time>2026-04-06T09:45:27.073Z</time></trkpt><trkpt lat="45.672745005751565" lon="10.411614665672316"><ele>339.3333333333333</ele><time>2026-04-06T09:45:28.076Z</time></trkpt><trkpt lat="45.67295209180351" lon="10.411686083969464"><ele>341.6666666666667</ele><time>2026-04-06T09:45:29.073Z</time></trkpt><trkpt lat="45.673162371649575" lon="10.411760646903666"><ele>344.0</ele><time>2026-04-06T09:45:30.077Z</time></trkpt><trkpt lat="45.675155498832396" lon="10.41236095935707"><ele>351.6666666666667</ele><time>2026-04-06T09:45:41.316Z</time></trkpt><trkpt lat="45.67548576132298" lon="10.412384247870433"><ele>359.3333333333333</ele><time>2026-04-06T09:45:43.02Z</time></trkpt><trkpt lat="45.675578680571576" lon="10.412405764261297"><ele>367.0</ele><time>2026-04-06T09:45:43.734Z</time></trkpt><trkpt lat="45.6756513027415" lon="10.412417230400806"><ele>367.0</ele><time>2026-04-06T09:45:44.277Z</time></trkpt><trkpt lat="45.67576730859318" lon="10.412435544438328"><ele>367.0</ele><time>2026-04-06T09:45:45.154Z</time></trkpt><trkpt lat="45.67596684405283" lon="10.412450481326216"><ele>367.0</ele><time>2026-04-06T09:45:46.679Z</time></trkpt><trkpt lat="45.67355685012345" lon="10.411887773224786"><ele>328.0</ele><time>2026-04-06T09:45:54.656Z</time></trkpt><trkpt lat="45.67416343746045" lon="10.41213021054112"><ele>344.0</ele><time>2026-04-06T09:45:55.656Z</time></trkpt><trkpt lat="45.674778651082406" lon="10.412326544324056"><ele>304.0</ele><time>2026-04-06T09:45:56.657Z</time></trkpt><trkpt lat="45.678571662858126" lon="10.411427957098528"><ele>302.0</ele><time>2026-04-06T09:45:58.06Z</time></trkpt><trkpt lat="45.67870880136349" lon="10.411324251068054"><ele>300.0</ele><time>2026-04-06T09:45:59.06Z</time></trkpt><trkpt lat="45.67883696811368" lon="10.411214561650347"><ele>298.0</ele><time>2026-04-06T09:46:00.06Z</time></trkpt><trkpt lat="45.67897466789871" lon="10.411107087724151"><ele>297.2</ele><time>2026-04-06T09:46:01.06Z</time></trkpt><trkpt lat="45.679058504644374" lon="10.411035963758811"><ele>296.4</ele><time>2026-04-06T09:46:02.06Z</time></trkpt><trkpt lat="45.679195911224454" lon="10.410947580679599"><ele>295.59999999999997</ele><time>2026-04-06T09:46:03.06Z</time></trkpt><trkpt lat="45.67926494520282" lon="10.41091753551184"><ele>294.8</ele><time>2026-04-06T09:46:04.06Z</time></trkpt><trkpt lat="45.67937496464544" lon="10.410846829870662"><ele>294.0</ele><time>2026-04-06T09:46:05.06Z</time></trkpt><trkpt lat="45.679491869157566" lon="10.41077174417124"><ele>294.75</ele><time>2026-04-06T09:46:06.06Z</time></trkpt><trkpt lat="45.67961077970258" lon="10.41069564063541"><ele>295.5</ele><time>2026-04-06T09:46:07.06Z</time></trkpt><trkpt lat="45.679719823463614" lon="10.410599928866242"><ele>296.25</ele><time>2026-04-06T09:46:08.06Z</time></trkpt><trkpt lat="45.679851325461264" lon="10.410540655734229"><ele>297.0</ele><time>2026-04-06T09:46:09.06Z</time></trkpt><trkpt lat="45.6799802645582" lon="10.410456218760872"><ele>297.0</ele><time>2026-04-06T09:46:10.06Z</time></trkpt><trkpt lat="45.68012537670168" lon="10.410359879252546"><ele>297.0</ele><time>2026-04-06T09:46:11.06Z</time></trkpt><trkpt lat="45.68027689265982" lon="10.410255959893355"><ele>297.0</ele><time>2026-04-06T09:46:12.06Z</time></trkpt><trkpt lat="45.680388068959424" lon="10.410178016952228"><ele>298.5</ele><time>2026-04-06T09:46:13.06Z</time></trkpt><trkpt lat="45.68050297445496" lon="10.41009220512433"><ele>300.0</ele><time>2026-04-06T09:46:14.06Z</time></trkpt><trkpt lat="45.68062148756678" lon="10.409996466283813"><ele>301.5</ele><time>2026-04-06T09:46:15.06Z</time></trkpt><trkpt lat="45.68073857531388" lon="10.409890822508805"><ele>303.0</ele><time>2026-04-06T09:46:16.06Z</time></trkpt><trkpt lat="45.680843136980585" lon="10.409793516315537"><ele>303.0</ele><time>2026-04-06T09:46:17.06Z</time></trkpt><trkpt lat="45.680941993429784" lon="10.409692343986556"><ele>303.0</ele><time>2026-04-06T09:46:18.06Z</time></trkpt><trkpt lat="45.681031780983446" lon="10.409595205815458"><ele>303.0</ele><time>2026-04-06T09:46:19.06Z</time></trkpt><trkpt lat="45.681115897676875" lon="10.409497250957639"><ele>303.0</ele><time>2026-04-06T09:46:20.06Z</time></trkpt><trkpt lat="45.68120077262752" lon="10.409393541687603"><ele>304.4</ele><time>2026-04-06T09:46:21.06Z</time></trkpt><trkpt lat="45.681258634707355" lon="10.409289588877133"><ele>305.8</ele><time>2026-04-06T09:46:22.06Z</time></trkpt><trkpt lat="45.681315102529354" lon="10.40924590661222"><ele>307.2</ele><time>2026-04-06T09:46:23.06Z</time></trkpt><trkpt lat="45.68136995249017" lon="10.409168160130877"><ele>308.6</ele><time>2026-04-06T09:46:24.06Z</time></trkpt><trkpt lat="45.68147776439384" lon="10.409010646308277"><ele>310.0</ele><time>2026-04-06T09:46:26.06Z</time></trkpt><trkpt lat="45.681549419458065" lon="10.408901661065245"><ele>307.8</ele><time>2026-04-06T09:46:27.06Z</time></trkpt><trkpt lat="45.681613912795" lon="10.408799962002155"><ele>305.6</ele><time>2026-04-06T09:46:28.06Z</time></trkpt><trkpt lat="45.6816705973869" lon="10.40870805627078"><ele>303.4</ele><time>2026-04-06T09:46:29.06Z</time></trkpt><trkpt lat="45.68172891041911" lon="10.408611855867543"><ele>301.2</ele><time>2026-04-06T09:46:30.06Z</time></trkpt><trkpt lat="45.68179154189757" lon="10.408507764506938"><ele>299.0</ele><time>2026-04-06T09:46:31.06Z</time></trkpt><trkpt lat="45.68185206979788" lon="10.408407169606665"><ele>299.0</ele><time>2026-04-06T09:46:32.06Z</time></trkpt><trkpt lat="45.68189880568908" lon="10.408302607231587"><ele>299.0</ele><time>2026-04-06T09:46:33.06Z</time></trkpt><trkpt lat="45.68198239662955" lon="10.408179734489913"><ele>299.0</ele><time>2026-04-06T09:46:34.06Z</time></trkpt><trkpt lat="45.68204586164594" lon="10.408076857077132"><ele>299.0</ele><time>2026-04-06T09:46:35.06Z</time></trkpt><trkpt lat="45.682101368673294" lon="10.407962653353309"><ele>299.0</ele><time>2026-04-06T09:46:36.06Z</time></trkpt><trkpt lat="45.68216840145712" lon="10.407877319396022"><ele>299.0</ele><time>2026-04-06T09:46:37.06Z</time></trkpt><trkpt lat="45.6822289900165" lon="10.407775580740845"><ele>299.0</ele><time>2026-04-06T09:46:38.076Z</time></trkpt><trkpt lat="45.68230363150402" lon="10.407651724264817"><ele>299.0</ele><time>2026-04-06T09:46:39.079Z</time></trkpt><trkpt lat="45.68239982394534" lon="10.407492107217113"><ele>299.0</ele><time>2026-04-06T09:46:40.073Z</time></trkpt><trkpt lat="45.68251216301315" lon="10.407312256039717"><ele>299.0</ele><time>2026-04-06T09:46:41.074Z</time></trkpt><trkpt lat="45.68262280147505" lon="10.407142613041438"><ele>299.0</ele><time>2026-04-06T09:46:42.073Z</time></trkpt><trkpt lat="45.68272154103234" lon="10.407000366803725"><ele>299.0</ele><time>2026-04-06T09:46:43.072Z</time></trkpt><trkpt lat="45.68282478135555" lon="10.40686046411934"><ele>299.0</ele><time>2026-04-06T09:46:44.073Z</time></trkpt><trkpt lat="45.68359300809909" lon="10.40587924327689"><ele>430.0</ele><time>2026-04-06T09:47:09.656Z</time></trkpt><trkpt lat="45.684070453297835" lon="10.40529281402115"><ele>435.0</ele><time>2026-04-06T09:47:10.656Z</time></trkpt><trkpt lat="45.68454771325249" lon="10.404706536486495"><ele>386.0</ele><time>2026-04-06T09:47:11.656Z</time></trkpt><trkpt lat="45.685025854460406" lon="10.404122167047813"><ele>318.0</ele><time>2026-04-06T09:47:12.656Z</time></trkpt><trkpt lat="45.685503610129324" lon="10.403535583980215"><ele>318.0</ele><time>2026-04-06T09:47:13.657Z</time></trkpt><trkpt lat="45.6856449" lon="10.403362"><ele>318.0</ele><time>2026-04-06T09:47:14.657Z</time></trkpt><trkpt lat="45.68582667973422" lon="10.403063250715288"><ele>316.8</ele><time>2026-04-06T09:48:06.06Z</time></trkpt><trkpt lat="45.68591568996078" lon="10.402956392749488"><ele>315.6</ele><time>2026-04-06T09:48:07.06Z</time></trkpt><trkpt lat="45.68603157780852" lon="10.402919415655905"><ele>314.4</ele><time>2026-04-06T09:48:08.06Z</time></trkpt><trkpt lat="45.6860903190542" lon="10.402847427646218"><ele>313.2</ele><time>2026-04-06T09:48:09.06Z</time></trkpt><trkpt lat="45.68616564202682" lon="10.402755116578483"><ele>312.0</ele><time>2026-04-06T09:48:10.06Z</time></trkpt><trkpt lat="45.686279699851085" lon="10.40261267460502"><ele>312.0</ele><time>2026-04-06T09:48:11.06Z</time></trkpt><trkpt lat="45.68637757516862" lon="10.402463861185648"><ele>312.0</ele><time>2026-04-06T09:48:12.061Z</time></trkpt><trkpt lat="45.686463453561224" lon="10.402341853306844"><ele>312.0</ele><time>2026-04-06T09:48:13.061Z</time></trkpt><trkpt lat="45.68654380827847" lon="10.402217532904103"><ele>312.0</ele><time>2026-04-06T09:48:14.061Z</time></trkpt><trkpt lat="45.68661028730025" lon="10.40208760100098"><ele>308.4</ele><time>2026-04-06T09:48:15.061Z</time></trkpt><trkpt lat="45.68667903944593" lon="10.40198039724325"><ele>304.79999999999995</ele><time>2026-04-06T09:48:16.061Z</time></trkpt><trkpt lat="45.686739526449834" lon="10.401859333055807"><ele>301.2</ele><time>2026-04-06T09:48:17.061Z</time></trkpt><trkpt lat="45.68678142153586" lon="10.401735177419233"><ele>297.59999999999997</ele><time>2026-04-06T09:48:18.061Z</time></trkpt><trkpt lat="45.68683388350204" lon="10.401639445798434"><ele>294.0</ele><time>2026-04-06T09:48:19.061Z</time></trkpt><trkpt lat="45.68688643974338" lon="10.401525569079231"><ele>294.4</ele><time>2026-04-06T09:48:20.061Z</time></trkpt><trkpt lat="45.68695424077242" lon="10.401404199961418"><ele>294.79999999999995</ele><time>2026-04-06T09:48:21.061Z</time></trkpt><trkpt lat="45.68701958135333" lon="10.401278799355923"><ele>295.20000000000005</ele><time>2026-04-06T09:48:22.061Z</time></trkpt><trkpt lat="45.687086018576764" lon="10.40113467142624"><ele>295.6</ele><time>2026-04-06T09:48:23.061Z</time></trkpt><trkpt lat="45.68714382040337" lon="10.40101007291491"><ele>296.0</ele><time>2026-04-06T09:48:24.061Z</time></trkpt><trkpt lat="45.68718908695404" lon="10.400924011162475"><ele>296.0</ele><time>2026-04-06T09:48:25.061Z</time></trkpt><trkpt lat="45.68723992946707" lon="10.400817647850454"><ele>296.0</ele><time>2026-04-06T09:48:26.061Z</time></trkpt><trkpt lat="45.68729787413379" lon="10.400732267391245"><ele>296.0</ele><time>2026-04-06T09:48:27.061Z</time></trkpt><trkpt lat="45.68733821533064" lon="10.400610686346036"><ele>296.0</ele><time>2026-04-06T09:48:28.061Z</time></trkpt><trkpt lat="45.68737776620583" lon="10.400530250942882"><ele>296.0</ele><time>2026-04-06T09:48:29.061Z</time></trkpt><trkpt lat="45.687430742107296" lon="10.400462865704085"><ele>296.0</ele><time>2026-04-06T09:48:30.061Z</time></trkpt><trkpt lat="45.68750071330621" lon="10.400281116382294"><ele>295.5</ele><time>2026-04-06T09:48:32.061Z</time></trkpt><trkpt lat="45.687559009080445" lon="10.400171846738298"><ele>295.0</ele><time>2026-04-06T09:48:33.061Z</time></trkpt><trkpt lat="45.68761303567628" lon="10.400105348507804"><ele>294.5</ele><time>2026-04-06T09:48:34.061Z</time></trkpt><trkpt lat="45.687663453036386" lon="10.400019185105927"><ele>294.0</ele><time>2026-04-06T09:48:35.061Z</time></trkpt><trkpt lat="45.687715968403616" lon="10.39993508891501"><ele>293.5</ele><time>2026-04-06T09:48:36.061Z</time></trkpt><trkpt lat="45.68776552227553" lon="10.399860452067616"><ele>293.0</ele><time>2026-04-06T09:48:37.061Z</time></trkpt><trkpt lat="45.687815180054194" lon="10.39979343277076"><ele>293.33333333333337</ele><time>2026-04-06T09:48:38.061Z</time></trkpt><trkpt lat="45.68786757636566" lon="10.39972638142228"><ele>293.6666666666667</ele><time>2026-04-06T09:48:40.061Z</time></trkpt><trkpt lat="45.687915348912924" lon="10.399666082179927"><ele>294.0</ele><time>2026-04-06T09:48:41.061Z</time></trkpt><trkpt lat="45.68798665038476" lon="10.399585237096113"><ele>294.3333333333333</ele><time>2026-04-06T09:48:42.061Z</time></trkpt><trkpt lat="45.68805079232501" lon="10.399516535809074"><ele>294.66666666666663</ele><time>2026-04-06T09:48:43.061Z</time></trkpt><trkpt lat="45.688105271914196" lon="10.399462194195928"><ele>295.0</ele><time>2026-04-06T09:48:44.061Z</time></trkpt><trkpt lat="45.68816610874069" lon="10.39937901977287"><ele>295.0</ele><time>2026-04-06T09:48:45.061Z</time></trkpt><trkpt lat="45.68824455778447" lon="10.399314454480441"><ele>295.0</ele><time>2026-04-06T09:48:46.061Z</time></trkpt><trkpt lat="45.68831228900231" lon="10.399266493216373"><ele>295.0</ele><time>2026-04-06T09:48:47.061Z</time></trkpt><trkpt lat="45.68838861953712" lon="10.3992346297121"><ele>295.0</ele><time>2026-04-06T09:48:48.061Z</time></trkpt><trkpt lat="45.688445593556516" lon="10.399179308379368"><ele>295.0</ele><time>2026-04-06T09:48:49.061Z</time></trkpt><trkpt lat="45.688531531255755" lon="10.399144815226826"><ele>295.0</ele><time>2026-04-06T09:48:50.061Z</time></trkpt><trkpt lat="45.6886011220532" lon="10.399106481223773"><ele>295.0</ele><time>2026-04-06T09:48:51.061Z</time></trkpt><trkpt lat="45.688661387663245" lon="10.399051015630949"><ele>295.0</ele><time>2026-04-06T09:48:52.061Z</time></trkpt><trkpt lat="45.68872617446429" lon="10.399021862785128"><ele>295.0</ele><time>2026-04-06T09:48:53.061Z</time></trkpt><trkpt lat="45.688793381645084" lon="10.398993359783825"><ele>295.0</ele><time>2026-04-06T09:48:54.061Z</time></trkpt><trkpt lat="45.688858493254024" lon="10.398968132217677"><ele>295.0</ele><time>2026-04-06T09:48:55.061Z</time></trkpt><trkpt lat="45.68897289283678" lon="10.398918306957313"><ele>295.0</ele><time>2026-04-06T09:48:57.061Z</time></trkpt><trkpt lat="45.689106095218776" lon="10.3988619959114"><ele>295.8333333333333</ele><time>2026-04-06T09:48:59.061Z</time></trkpt><trkpt lat="45.689182580513474" lon="10.398829025624336"><ele>296.66666666666663</ele><time>2026-04-06T09:49:00.061Z</time></trkpt><trkpt lat="45.689245398103935" lon="10.39880262994955"><ele>297.5</ele><time>2026-04-06T09:49:01.061Z</time></trkpt><trkpt lat="45.68930711327756" lon="10.398772265829754"><ele>298.3333333333333</ele><time>2026-04-06T09:49:02.061Z</time></trkpt><trkpt lat="45.689430568862726" lon="10.398705578559795"><ele>299.1666666666667</ele><time>2026-04-06T09:49:04.061Z</time></trkpt><trkpt lat="45.689508454987084" lon="10.398686488001175"><ele>300.0</ele><time>2026-04-06T09:49:05.061Z</time></trkpt><trkpt lat="45.689581010371484" lon="10.398640455133728"><ele>300.0</ele><time>2026-04-06T09:49:06.061Z</time></trkpt><trkpt lat="45.689646484010986" lon="10.398594147069009"><ele>300.0</ele><time>2026-04-06T09:49:07.061Z</time></trkpt><trkpt lat="45.68971192186722" lon="10.398542849599558"><ele>300.0</ele><time>2026-04-06T09:49:08.061Z</time></trkpt><trkpt lat="45.68977860333475" lon="10.398483363508124"><ele>300.0</ele><time>2026-04-06T09:49:09.061Z</time></trkpt><trkpt lat="45.68984721512417" lon="10.398414386431122"><ele>300.0</ele><time>2026-04-06T09:49:10.061Z</time></trkpt><trkpt lat="45.689916274463194" lon="10.39833460563633"><ele>300.0</ele><time>2026-04-06T09:49:11.061Z</time></trkpt><trkpt lat="45.68997674313533" lon="10.398254192072379"><ele>300.0</ele><time>2026-04-06T09:49:12.061Z</time></trkpt><trkpt lat="45.69004238346754" lon="10.39815895469558"><ele>300.0</ele><time>2026-04-06T09:49:13.061Z</time></trkpt><trkpt lat="45.690101227101" lon="10.398063946112886"><ele>300.0</ele><time>2026-04-06T09:49:14.061Z</time></trkpt><trkpt lat="45.69015332512036" lon="10.397975403610324"><ele>300.0</ele><time>2026-04-06T09:49:15.061Z</time></trkpt><trkpt lat="45.69020093389847" lon="10.397887094301627"><ele>300.0</ele><time>2026-04-06T09:49:16.061Z</time></trkpt><trkpt lat="45.690242590284775" lon="10.39780431133742"><ele>300.0</ele><time>2026-04-06T09:49:17.061Z</time></trkpt><trkpt lat="45.69030337878527" lon="10.397665890382061"><ele>299.8333333333333</ele><time>2026-04-06T09:49:19.061Z</time></trkpt><trkpt lat="45.69035046488403" lon="10.397555741996454"><ele>299.6666666666667</ele><time>2026-04-06T09:49:21.061Z</time></trkpt><trkpt lat="45.69039669835196" lon="10.3974469230641"><ele>299.5</ele><time>2026-04-06T09:49:25.061Z</time></trkpt><trkpt lat="45.690418415711484" lon="10.397358131794768"><ele>299.33333333333337</ele><time>2026-04-06T09:49:27.061Z</time></trkpt><trkpt lat="45.69046242793975" lon="10.397292216186758"><ele>299.1666666666667</ele><time>2026-04-06T09:49:30.061Z</time></trkpt><trkpt lat="45.69049020567183" lon="10.397187118728498"><ele>299.0</ele><time>2026-04-06T09:49:33.061Z</time></trkpt><trkpt lat="45.690537449661655" lon="10.397081821848708"><ele>299.0</ele><time>2026-04-06T09:49:37.061Z</time></trkpt><trkpt lat="45.6905753948123" lon="10.397001906570317"><ele>299.0</ele><time>2026-04-06T09:49:39.061Z</time></trkpt><trkpt lat="45.69061522368951" lon="10.39691648307172"><ele>299.0</ele><time>2026-04-06T09:49:41.061Z</time></trkpt><trkpt lat="45.69067985231738" lon="10.396833917153277"><ele>299.0</ele><time>2026-04-06T09:49:43.061Z</time></trkpt><trkpt lat="45.69074761395987" lon="10.396722138893374"><ele>299.0</ele><time>2026-04-06T09:49:45.061Z</time></trkpt><trkpt lat="45.690820263570984" lon="10.39662571941983"><ele>299.0</ele><time>2026-04-06T09:49:47.061Z</time></trkpt><trkpt lat="45.69090543581143" lon="10.39651609997944"><ele>299.0</ele><time>2026-04-06T09:49:49.061Z</time></trkpt><trkpt lat="45.69095728308541" lon="10.396450299244341"><ele>299.0</ele><time>2026-04-06T09:49:50.061Z</time></trkpt><trkpt lat="45.69101583147859" lon="10.396376485679687"><ele>299.0</ele><time>2026-04-06T09:49:51.061Z</time></trkpt><trkpt lat="45.69107376064448" lon="10.396304203826652"><ele>299.0</ele><time>2026-04-06T09:49:52.061Z</time></trkpt><trkpt lat="45.69112380369658" lon="10.396241761843068"><ele>299.0</ele><time>2026-04-06T09:49:53.061Z</time></trkpt><trkpt lat="45.69117220454925" lon="10.396181369068687"><ele>299.0</ele><time>2026-04-06T09:49:54.061Z</time></trkpt><trkpt lat="45.691266312530125" lon="10.396063944509287"><ele>298.1666666666667</ele><time>2026-04-06T09:49:56.061Z</time></trkpt><trkpt lat="45.69131721195008" lon="10.396000434025169"><ele>297.33333333333337</ele><time>2026-04-06T09:49:57.061Z</time></trkpt><trkpt lat="45.69137232809182" lon="10.395928984303719"><ele>296.5</ele><time>2026-04-06T09:49:58.061Z</time></trkpt><trkpt lat="45.69142898262711" lon="10.395854846727387"><ele>295.6666666666667</ele><time>2026-04-06T09:49:59.061Z</time></trkpt><trkpt lat="45.69147620802506" lon="10.395759136250222"><ele>294.8333333333333</ele><time>2026-04-06T09:50:00.061Z</time></trkpt><trkpt lat="45.69154372340111" lon="10.395689257485238"><ele>294.0</ele><time>2026-04-06T09:50:01.061Z</time></trkpt><trkpt lat="45.69161406560827" lon="10.39557668075334"><ele>295.0</ele><time>2026-04-06T09:50:02.061Z</time></trkpt><trkpt lat="45.69166625182017" lon="10.395480950389482"><ele>296.0</ele><time>2026-04-06T09:50:03.061Z</time></trkpt><trkpt lat="45.69171278294528" lon="10.395386011700763"><ele>297.0</ele><time>2026-04-06T09:50:04.061Z</time></trkpt><trkpt lat="45.69176055649825" lon="10.395281556379064"><ele>298.0</ele><time>2026-04-06T09:50:05.061Z</time></trkpt><trkpt lat="45.69182300333643" lon="10.395118300317764"><ele>299.0</ele><time>2026-04-06T09:50:06.061Z</time></trkpt><trkpt lat="45.69188513024855" lon="10.394918593011766"><ele>299.0</ele><time>2026-04-06T09:50:07.061Z</time></trkpt><trkpt lat="45.69194240619535" lon="10.394708978600198"><ele>299.0</ele><time>2026-04-06T09:50:08.061Z</time></trkpt><trkpt lat="45.69199590695693" lon="10.394504855858179"><ele>299.0</ele><time>2026-04-06T09:50:09.061Z</time></trkpt><trkpt lat="45.692046336191645" lon="10.39430633995454"><ele>297.75</ele><time>2026-04-06T09:50:10.061Z</time></trkpt><trkpt lat="45.69209649449687" lon="10.394108890689555"><ele>296.5</ele><time>2026-04-06T09:50:11.061Z</time></trkpt><trkpt lat="45.69214182296504" lon="10.393930741912447"><ele>295.25</ele><time>2026-04-06T09:50:12.061Z</time></trkpt><trkpt lat="45.6921833601114" lon="10.393767538353968"><ele>294.0</ele><time>2026-04-06T09:50:13.061Z</time></trkpt><trkpt lat="45.69222026216495" lon="10.393622546578799"><ele>293.8333333333333</ele><time>2026-04-06T09:50:14.061Z</time></trkpt><trkpt lat="45.69225400751585" lon="10.393489957530798"><ele>293.6666666666667</ele><time>2026-04-06T09:50:15.061Z</time></trkpt><trkpt lat="45.69228582774061" lon="10.393364933065921"><ele>293.5</ele><time>2026-04-06T09:50:16.061Z</time></trkpt><trkpt lat="45.69231354023461" lon="10.393256047578456"><ele>293.33333333333337</ele><time>2026-04-06T09:50:17.061Z</time></trkpt><trkpt lat="45.69234337156058" lon="10.39313883730772"><ele>293.1666666666667</ele><time>2026-04-06T09:50:18.062Z</time></trkpt><trkpt lat="45.6923731913663" lon="10.393021664442582"><ele>293.0</ele><time>2026-04-06T09:50:19.062Z</time></trkpt><trkpt lat="45.69240560811492" lon="10.3928942767504"><ele>294.5</ele><time>2026-04-06T09:50:20.062Z</time></trkpt><trkpt lat="45.69244035473652" lon="10.392757733495646"><ele>296.0</ele><time>2026-04-06T09:50:21.062Z</time></trkpt><trkpt lat="45.6924711425456" lon="10.392636746779063"><ele>297.5</ele><time>2026-04-06T09:50:22.062Z</time></trkpt><trkpt lat="45.69249978064576" lon="10.392524208086716"><ele>299.0</ele><time>2026-04-06T09:50:23.062Z</time></trkpt><trkpt lat="45.69252703013145" lon="10.392420006472188"><ele>300.5</ele><time>2026-04-06T09:50:24.062Z</time></trkpt><trkpt lat="45.69255915393385" lon="10.392300505321618"><ele>302.0</ele><time>2026-04-06T09:50:25.062Z</time></trkpt><trkpt lat="45.692598379378" lon="10.392185402689263"><ele>301.5</ele><time>2026-04-06T09:50:26.062Z</time></trkpt><trkpt lat="45.692639947009795" lon="10.392076585861737"><ele>301.0</ele><time>2026-04-06T09:50:27.062Z</time></trkpt><trkpt lat="45.69268268711259" lon="10.391982935642133"><ele>300.5</ele><time>2026-04-06T09:50:28.062Z</time></trkpt><trkpt lat="45.69273169622077" lon="10.391888271356434"><ele>300.0</ele><time>2026-04-06T09:50:29.062Z</time></trkpt><trkpt lat="45.69278828255298" lon="10.39179213160537"><ele>299.5</ele><time>2026-04-06T09:50:30.062Z</time></trkpt><trkpt lat="45.692849724790165" lon="10.391703899920268"><ele>299.0</ele><time>2026-04-06T09:50:31.062Z</time></trkpt><trkpt lat="45.692913218580294" lon="10.391623849527674"><ele>299.0</ele><time>2026-04-06T09:50:32.062Z</time></trkpt><trkpt lat="45.692976758307275" lon="10.391556017678862"><ele>299.0</ele><time>2026-04-06T09:50:33.062Z</time></trkpt><trkpt lat="45.69303679271612" lon="10.391499577710233"><ele>299.0</ele><time>2026-04-06T09:50:34.062Z</time></trkpt><trkpt lat="45.693093733913535" lon="10.391451421658843"><ele>299.0</ele><time>2026-04-06T09:50:35.062Z</time></trkpt><trkpt lat="45.69316201298625" lon="10.391404348081211"><ele>299.0</ele><time>2026-04-06T09:50:36.062Z</time></trkpt><trkpt lat="45.69322888211046" lon="10.391362786419212"><ele>299.0</ele><time>2026-04-06T09:50:37.062Z</time></trkpt><trkpt lat="45.69329843376569" lon="10.391322287960039"><ele>299.0</ele><time>2026-04-06T09:50:38.062Z</time></trkpt><trkpt lat="45.69337418295091" lon="10.391284049176736"><ele>299.8</ele><time>2026-04-06T09:50:39.062Z</time></trkpt><trkpt lat="45.69345580309434" lon="10.391219974113634"><ele>300.59999999999997</ele><time>2026-04-06T09:50:40.062Z</time></trkpt><trkpt lat="45.69355738267515" lon="10.391178815922641"><ele>301.4</ele><time>2026-04-06T09:50:41.062Z</time></trkpt><trkpt lat="45.69366311130451" lon="10.391135028805254"><ele>302.2</ele><time>2026-04-06T09:50:42.062Z</time></trkpt><trkpt lat="45.69378000735019" lon="10.391082100129935"><ele>303.0</ele><time>2026-04-06T09:50:43.062Z</time></trkpt><trkpt lat="45.69387403647084" lon="10.391034066071024"><ele>303.0</ele><time>2026-04-06T09:50:44.062Z</time></trkpt><trkpt lat="45.69394124145572" lon="10.391005714208479"><ele>303.0</ele><time>2026-04-06T09:50:45.062Z</time></trkpt><trkpt lat="45.69400388537533" lon="10.390978098534198"><ele>303.0</ele><time>2026-04-06T09:50:46.062Z</time></trkpt><trkpt lat="45.694064806828486" lon="10.39094469577889"><ele>303.0</ele><time>2026-04-06T09:50:48.062Z</time></trkpt><trkpt lat="45.6941642622099" lon="10.390892233036768"><ele>303.0</ele><time>2026-04-06T09:50:51.062Z</time></trkpt><trkpt lat="45.69426485258275" lon="10.390817553098294"><ele>303.0</ele><time>2026-04-06T09:50:53.062Z</time></trkpt><trkpt lat="45.69434810374197" lon="10.390761920964389"><ele>303.0</ele><time>2026-04-06T09:50:55.062Z</time></trkpt><trkpt lat="45.69440576575048" lon="10.390723744900543"><ele>303.0</ele><time>2026-04-06T09:50:57.062Z</time></trkpt><trkpt lat="45.69447257003338" lon="10.390686743322771"><ele>303.0</ele><time>2026-04-06T09:51:02.062Z</time></trkpt><trkpt lat="45.694530852900236" lon="10.390633437564796"><ele>303.0</ele><time>2026-04-06T09:51:06.062Z</time></trkpt><trkpt lat="45.69460925672411" lon="10.39056358184883"><ele>303.0</ele><time>2026-04-06T09:51:17.062Z</time></trkpt><trkpt lat="45.69468288442382" lon="10.39051733013163"><ele>303.0</ele><time>2026-04-06T09:51:18.062Z</time></trkpt><trkpt lat="45.69475905506935" lon="10.390460538939626"><ele>304.0</ele><time>2026-04-06T09:51:19.062Z</time></trkpt><trkpt lat="45.69482734813989" lon="10.390428302282027"><ele>305.0</ele><time>2026-04-06T09:51:20.062Z</time></trkpt><trkpt lat="45.69490242530199" lon="10.390374907367919"><ele>306.0</ele><time>2026-04-06T09:51:21.062Z</time></trkpt><trkpt lat="45.694983046121536" lon="10.390318678497158"><ele>307.0</ele><time>2026-04-06T09:51:22.062Z</time></trkpt><trkpt lat="45.69509104748067" lon="10.390244710381243"><ele>308.0</ele><time>2026-04-06T09:51:24.062Z</time></trkpt><trkpt lat="45.69519548059786" lon="10.390153490649931"><ele>306.83333333333337</ele><time>2026-04-06T09:51:26.062Z</time></trkpt><trkpt lat="45.69526571586346" lon="10.390135062270328"><ele>305.6666666666667</ele><time>2026-04-06T09:51:27.062Z</time></trkpt><trkpt lat="45.69534147376299" lon="10.390146979936002"><ele>304.5</ele><time>2026-04-06T09:51:28.062Z</time></trkpt><trkpt lat="45.69539158364725" lon="10.390053838894607"><ele>303.3333333333333</ele><time>2026-04-06T09:51:38.062Z</time></trkpt><trkpt lat="45.69546541755514" lon="10.390021922849172"><ele>302.16666666666663</ele><time>2026-04-06T09:51:40.062Z</time></trkpt><trkpt lat="45.69553519351498" lon="10.389976345486055"><ele>301.0</ele><time>2026-04-06T09:51:42.062Z</time></trkpt><trkpt lat="45.695615723785224" lon="10.389916610493708"><ele>301.0</ele><time>2026-04-06T09:51:51.062Z</time></trkpt><trkpt lat="45.69572059458048" lon="10.389828237072415"><ele>301.0</ele><time>2026-04-06T09:51:53.062Z</time></trkpt><trkpt lat="45.69580454777873" lon="10.389757926659556"><ele>301.0</ele><time>2026-04-06T09:51:55.062Z</time></trkpt><trkpt lat="45.69591153078609" lon="10.389657452809113"><ele>301.0</ele><time>2026-04-06T09:51:57.062Z</time></trkpt><trkpt lat="45.69600153899346" lon="10.389573228678435"><ele>301.6</ele><time>2026-04-06T09:51:59.062Z</time></trkpt><trkpt lat="45.69606422592563" lon="10.389520243918074"><ele>302.20000000000005</ele><time>2026-04-06T09:52:02.062Z</time></trkpt><trkpt lat="45.69618666628064" lon="10.389416683116751"><ele>302.79999999999995</ele><time>2026-04-06T09:52:04.062Z</time></trkpt><trkpt lat="45.69628209559931" lon="10.389325270864028"><ele>303.4</ele><time>2026-04-06T09:52:05.062Z</time></trkpt><trkpt lat="45.696362191317604" lon="10.389225862990966"><ele>304.0</ele><time>2026-04-06T09:52:06.062Z</time></trkpt><trkpt lat="45.69644086033089" lon="10.38915162010033"><ele>304.0</ele><time>2026-04-06T09:52:07.062Z</time></trkpt><trkpt lat="45.69649352623276" lon="10.389097286392218"><ele>304.0</ele><time>2026-04-06T09:52:08.062Z</time></trkpt><trkpt lat="45.696555518917854" lon="10.389065340560952"><ele>304.0</ele><time>2026-04-06T09:52:09.062Z</time></trkpt><trkpt lat="45.69661216114753" lon="10.388989899552387"><ele>304.0</ele><time>2026-04-06T09:52:13.062Z</time></trkpt><trkpt lat="45.69669097909059" lon="10.388917295228012"><ele>304.0</ele><time>2026-04-06T09:52:15.062Z</time></trkpt><trkpt lat="45.696795627254964" lon="10.388839374992065"><ele>304.0</ele><time>2026-04-06T09:52:17.062Z</time></trkpt><trkpt lat="45.696911762720966" lon="10.388767194822325"><ele>304.2</ele><time>2026-04-06T09:52:19.062Z</time></trkpt><trkpt lat="45.697017759335004" lon="10.388727383833134"><ele>304.4</ele><time>2026-04-06T09:52:21.062Z</time></trkpt><trkpt lat="45.69714094160981" lon="10.38868944275649"><ele>304.6</ele><time>2026-04-06T09:52:23.062Z</time></trkpt><trkpt lat="45.69725327269085" lon="10.388658279574976"><ele>304.8</ele><time>2026-04-06T09:52:25.062Z</time></trkpt><trkpt lat="45.697320910661055" lon="10.388646985726256"><ele>305.0</ele><time>2026-04-06T09:52:27.062Z</time></trkpt><trkpt lat="45.69741343003021" lon="10.388618017379297"><ele>305.0</ele><time>2026-04-06T09:52:30.062Z</time></trkpt><trkpt lat="45.69749317929918" lon="10.388602832966027"><ele>305.0</ele><time>2026-04-06T09:52:32.062Z</time></trkpt><trkpt lat="45.69762031711192" lon="10.388589767793484"><ele>305.0</ele><time>2026-04-06T09:52:34.062Z</time></trkpt><trkpt lat="45.697693101857915" lon="10.388574038729402"><ele>305.0</ele><time>2026-04-06T09:52:35.062Z</time></trkpt><trkpt lat="45.697818184226755" lon="10.388533943945875"><ele>305.0</ele><time>2026-04-06T09:52:37.063Z</time></trkpt><trkpt lat="45.69790286216568" lon="10.388510858573676"><ele>305.0</ele><time>2026-04-06T09:52:38.063Z</time></trkpt><trkpt lat="45.6979757904164" lon="10.388495201734209"><ele>305.0</ele><time>2026-04-06T09:52:39.063Z</time></trkpt><trkpt lat="45.698091583139956" lon="10.388472648637725"><ele>305.0</ele><time>2026-04-06T09:52:41.063Z</time></trkpt><trkpt lat="45.69816098395832" lon="10.3884619952863"><ele>305.0</ele><time>2026-04-06T09:52:43.063Z</time></trkpt><trkpt lat="45.69824306408091" lon="10.388442810574382"><ele>305.0</ele><time>2026-04-06T09:52:46.063Z</time></trkpt><trkpt lat="45.69832008694795" lon="10.388431727243166"><ele>305.0</ele><time>2026-04-06T09:52:49.063Z</time></trkpt><trkpt lat="45.69839008846346" lon="10.38842549070691"><ele>305.0</ele><time>2026-04-06T09:52:51.063Z</time></trkpt><trkpt lat="45.69850913098392" lon="10.388383472829627"><ele>305.0</ele><time>2026-04-06T09:52:53.063Z</time></trkpt><trkpt lat="45.69861809028079" lon="10.388373663303511"><ele>305.0</ele><time>2026-04-06T09:52:55.063Z</time></trkpt><trkpt lat="45.69869164650253" lon="10.388404726578205"><ele>305.0</ele><time>2026-04-06T09:52:57.063Z</time></trkpt><trkpt lat="45.69875182032867" lon="10.388457036737268"><ele>305.0</ele><time>2026-04-06T09:53:00.063Z</time></trkpt><trkpt lat="45.69881897046415" lon="10.388449279038495"><ele>305.0</ele><time>2026-04-06T09:53:04.063Z</time></trkpt><trkpt lat="45.6989043036438" lon="10.388383097315788"><ele>304.6666666666667</ele><time>2026-04-06T09:53:11.063Z</time></trkpt><trkpt lat="45.69898289116817" lon="10.388300008189516"><ele>304.33333333333337</ele><time>2026-04-06T09:53:13.063Z</time></trkpt><trkpt lat="45.69904436332218" lon="10.388276179554223"><ele>304.0</ele><time>2026-04-06T09:53:14.063Z</time></trkpt><trkpt lat="45.69914869067412" lon="10.388242935680246"><ele>303.6666666666667</ele><time>2026-04-06T09:53:16.063Z</time></trkpt><trkpt lat="45.69921353476977" lon="10.38823024900391"><ele>303.3333333333333</ele><time>2026-04-06T09:53:17.063Z</time></trkpt><trkpt lat="45.69927981107851" lon="10.388215840812713"><ele>303.0</ele><time>2026-04-06T09:53:18.063Z</time></trkpt><trkpt lat="45.699379391336024" lon="10.388198070656387"><ele>303.0</ele><time>2026-04-06T09:53:20.063Z</time></trkpt><trkpt lat="45.699507532598936" lon="10.388188702696478"><ele>303.0</ele><time>2026-04-06T09:53:22.063Z</time></trkpt><trkpt lat="45.69957216597615" lon="10.388174016673123"><ele>303.0</ele><time>2026-04-06T09:53:23.063Z</time></trkpt><trkpt lat="45.69963922067333" lon="10.388157805654677"><ele>303.0</ele><time>2026-04-06T09:53:24.063Z</time></trkpt><trkpt lat="45.69970359468662" lon="10.388142183279404"><ele>303.0</ele><time>2026-04-06T09:53:25.063Z</time></trkpt><trkpt lat="45.699783522848065" lon="10.388122749205278"><ele>303.0</ele><time>2026-04-06T09:53:27.063Z</time></trkpt><trkpt lat="45.6998811581106" lon="10.388099009759438"><ele>303.0</ele><time>2026-04-06T09:53:29.063Z</time></trkpt><trkpt lat="45.69995500280823" lon="10.38808105491875"><ele>303.0</ele><time>2026-04-06T09:53:30.063Z</time></trkpt><trkpt lat="45.70002856892568" lon="10.388021268840987"><ele>303.0</ele><time>2026-04-06T09:53:31.063Z</time></trkpt><trkpt lat="45.70009141249378" lon="10.388007310822113"><ele>303.0</ele><time>2026-04-06T09:53:32.063Z</time></trkpt><trkpt lat="45.70015768337071" lon="10.388000523055089"><ele>303.0</ele><time>2026-04-06T09:53:34.063Z</time></trkpt><trkpt lat="45.700236272913806" lon="10.387972784171135"><ele>303.0</ele><time>2026-04-06T09:53:41.063Z</time></trkpt><trkpt lat="45.7002990077493" lon="10.387960980723028"><ele>303.0</ele><time>2026-04-06T09:53:42.063Z</time></trkpt><trkpt lat="45.70040215484158" lon="10.387971005946563"><ele>303.2</ele><time>2026-04-06T09:53:44.063Z</time></trkpt><trkpt lat="45.70046871645789" lon="10.387954833547983"><ele>303.4</ele><time>2026-04-06T09:53:45.063Z</time></trkpt><trkpt lat="45.70053971686697" lon="10.387933687155419"><ele>303.59999999999997</ele><time>2026-04-06T09:53:47.063Z</time></trkpt><trkpt lat="45.70061120548706" lon="10.38800406865939"><ele>303.8</ele><time>2026-04-06T09:53:50.063Z</time></trkpt><trkpt lat="45.70068065503343" lon="10.388061645106017"><ele>304.0</ele><time>2026-04-06T09:53:52.063Z</time></trkpt><trkpt lat="45.70090797891534" lon="10.387958963753402"><ele>304.75</ele><time>2026-04-06T09:53:55.063Z</time></trkpt><trkpt lat="45.701012496213316" lon="10.387929280613255"><ele>305.5</ele><time>2026-04-06T09:53:56.063Z</time></trkpt><trkpt lat="45.70110918795314" lon="10.387903902611491"><ele>306.25</ele><time>2026-04-06T09:53:57.063Z</time></trkpt><trkpt lat="45.70123496084681" lon="10.387885154522873"><ele>307.0</ele><time>2026-04-06T09:53:59.063Z</time></trkpt><trkpt lat="45.70169265851803" lon="10.387610804236049"><ele>305.0</ele><time>2026-04-06T09:54:12.063Z</time></trkpt><trkpt lat="45.70204423153066" lon="10.387182647771525"><ele>305.6666666666667</ele><time>2026-04-06T09:54:13.063Z</time></trkpt><trkpt lat="45.70212157230169" lon="10.387145513497046"><ele>306.33333333333337</ele><time>2026-04-06T09:54:15.063Z</time></trkpt><trkpt lat="45.70219622601148" lon="10.387090144882546"><ele>307.0</ele><time>2026-04-06T09:54:17.063Z</time></trkpt><trkpt lat="45.70227324827676" lon="10.387034354967927"><ele>307.6666666666667</ele><time>2026-04-06T09:54:19.063Z</time></trkpt><trkpt lat="45.702296402003135" lon="10.386947563614786"><ele>308.3333333333333</ele><time>2026-04-06T09:54:23.063Z</time></trkpt><trkpt lat="45.70239087287164" lon="10.3870127242098"><ele>309.0</ele><time>2026-04-06T09:54:26.063Z</time></trkpt><trkpt lat="45.702510391139484" lon="10.387015108605668"><ele>309.0</ele><time>2026-04-06T09:54:29.063Z</time></trkpt><trkpt lat="45.70259135774624" lon="10.387016321734926"><ele>309.0</ele><time>2026-04-06T09:54:31.063Z</time></trkpt><trkpt lat="45.70269054393895" lon="10.387027669379155"><ele>309.0</ele><time>2026-04-06T09:54:34.063Z</time></trkpt><trkpt lat="45.70275577915704" lon="10.387034899223494"><ele>309.0</ele><time>2026-04-06T09:54:36.063Z</time></trkpt><trkpt lat="45.702856770995005" lon="10.387122849094558"><ele>309.0</ele><time>2026-04-06T09:54:38.063Z</time></trkpt><trkpt lat="45.70291575512038" lon="10.387188266804591"><ele>309.0</ele><time>2026-04-06T09:54:39.063Z</time></trkpt><trkpt lat="45.703001610230544" lon="10.38727933388217"><ele>308.59999999999997</ele><time>2026-04-06T09:54:41.063Z</time></trkpt><trkpt lat="45.703081497848004" lon="10.387348635643345"><ele>308.2</ele><time>2026-04-06T09:54:43.063Z</time></trkpt><trkpt lat="45.703155670705264" lon="10.38741949805518"><ele>307.79999999999995</ele><time>2026-04-06T09:54:45.063Z</time></trkpt><trkpt lat="45.70323145196783" lon="10.387497944951841"><ele>307.4</ele><time>2026-04-06T09:54:47.063Z</time></trkpt><trkpt lat="45.703311064689935" lon="10.387579325667014"><ele>307.0</ele><time>2026-04-06T09:54:49.063Z</time></trkpt><trkpt lat="45.703395648349634" lon="10.387677911526637"><ele>307.0</ele><time>2026-04-06T09:54:51.063Z</time></trkpt><trkpt lat="45.70344569832362" lon="10.387755856976462"><ele>307.0</ele><time>2026-04-06T09:54:52.063Z</time></trkpt><trkpt lat="45.703499765883" lon="10.387840631431624"><ele>307.0</ele><time>2026-04-06T09:54:53.063Z</time></trkpt><trkpt lat="45.7035347927016" lon="10.387917152585407"><ele>307.0</ele><time>2026-04-06T09:54:54.063Z</time></trkpt><trkpt lat="45.703576101768185" lon="10.388005549686781"><ele>307.0</ele><time>2026-04-06T09:54:55.063Z</time></trkpt><trkpt lat="45.703617690754896" lon="10.388084424913318"><ele>307.0</ele><time>2026-04-06T09:54:56.063Z</time></trkpt><trkpt lat="45.70368312483451" lon="10.388217188667213"><ele>307.66666666666663</ele><time>2026-04-06T09:54:58.063Z</time></trkpt><trkpt lat="45.70373223307738" lon="10.388323358659367"><ele>308.3333333333333</ele><time>2026-04-06T09:55:00.063Z</time></trkpt><trkpt lat="45.703775536734774" lon="10.388420938223556"><ele>309.0</ele><time>2026-04-06T09:55:03.063Z</time></trkpt><trkpt lat="45.70381731670643" lon="10.38851267918211"><ele>309.6666666666667</ele><time>2026-04-06T09:55:05.063Z</time></trkpt><trkpt lat="45.70385734292365" lon="10.388610022144606"><ele>310.33333333333337</ele><time>2026-04-06T09:55:07.063Z</time></trkpt><trkpt lat="45.70389861427601" lon="10.388711960656947"><ele>311.0</ele><time>2026-04-06T09:55:09.063Z</time></trkpt><trkpt lat="45.703947460481025" lon="10.388811357204137"><ele>310.40000000000003</ele><time>2026-04-06T09:55:11.063Z</time></trkpt><trkpt lat="45.70398984474247" lon="10.38891374995928"><ele>309.8</ele><time>2026-04-06T09:55:13.063Z</time></trkpt><trkpt lat="45.70403508926395" lon="10.389031936796282"><ele>309.20000000000005</ele><time>2026-04-06T09:55:15.063Z</time></trkpt><trkpt lat="45.704099089763595" lon="10.389182963503828"><ele>308.6</ele><time>2026-04-06T09:55:17.063Z</time></trkpt><trkpt lat="45.70415518853135" lon="10.389342453686208"><ele>308.0</ele><time>2026-04-06T09:55:19.063Z</time></trkpt><trkpt lat="45.70419216932189" lon="10.389444854018583"><ele>308.0</ele><time>2026-04-06T09:55:20.063Z</time></trkpt><trkpt lat="45.70422235244696" lon="10.38953909886075"><ele>308.0</ele><time>2026-04-06T09:55:21.063Z</time></trkpt><trkpt lat="45.70425614100254" lon="10.389649471952225"><ele>308.0</ele><time>2026-04-06T09:55:22.063Z</time></trkpt><trkpt lat="45.70427735046764" lon="10.389752903249189"><ele>308.0</ele><time>2026-04-06T09:55:23.063Z</time></trkpt><trkpt lat="45.7043124225446" lon="10.3898815176186"><ele>308.0</ele><time>2026-04-06T09:55:24.063Z</time></trkpt><trkpt lat="45.70434671354068" lon="10.390033662737098"><ele>308.0</ele><time>2026-04-06T09:55:25.063Z</time></trkpt><trkpt lat="45.70437196267438" lon="10.390164831766166"><ele>308.1666666666667</ele><time>2026-04-06T09:55:26.063Z</time></trkpt><trkpt lat="45.70439052947707" lon="10.390282756250254"><ele>308.33333333333337</ele><time>2026-04-06T09:55:27.063Z</time></trkpt><trkpt lat="45.704413594730454" lon="10.390402032355778"><ele>308.5</ele><time>2026-04-06T09:55:28.063Z</time></trkpt><trkpt lat="45.70443800669296" lon="10.39053639553458"><ele>308.6666666666667</ele><time>2026-04-06T09:55:29.063Z</time></trkpt><trkpt lat="45.70446718255308" lon="10.390663418508097"><ele>308.8333333333333</ele><time>2026-04-06T09:55:30.063Z</time></trkpt><trkpt lat="45.70449411439031" lon="10.39078172721057"><ele>309.0</ele><time>2026-04-06T09:55:31.063Z</time></trkpt><trkpt lat="45.70451261245058" lon="10.390897473762445"><ele>312.0</ele><time>2026-04-06T09:55:32.063Z</time></trkpt><trkpt lat="45.70452687172548" lon="10.391012288611922"><ele>315.0</ele><time>2026-04-06T09:55:33.063Z</time></trkpt><trkpt lat="45.704542356143726" lon="10.391117770880237"><ele>318.0</ele><time>2026-04-06T09:55:34.063Z</time></trkpt><trkpt lat="45.70456637868081" lon="10.391235837361727"><ele>321.0</ele><time>2026-04-06T09:55:35.063Z</time></trkpt><trkpt lat="45.70459904577365" lon="10.391355565923522"><ele>324.0</ele><time>2026-04-06T09:55:36.063Z</time></trkpt><trkpt lat="45.704625230847384" lon="10.391483245828235"><ele>327.0</ele><time>2026-04-06T09:55:37.063Z</time></trkpt><trkpt lat="45.70465029334455" lon="10.391609792687296"><ele>327.0</ele><time>2026-04-06T09:55:38.063Z</time></trkpt><trkpt lat="45.70467022353577" lon="10.391730642423498"><ele>327.0</ele><time>2026-04-06T09:55:39.063Z</time></trkpt><trkpt lat="45.704693362318054" lon="10.391860308900574"><ele>327.0</ele><time>2026-04-06T09:55:40.063Z</time></trkpt><trkpt lat="45.70472019944679" lon="10.391992087604349"><ele>327.0</ele><time>2026-04-06T09:55:41.063Z</time></trkpt><trkpt lat="45.70475146171127" lon="10.392125757664378"><ele>327.0</ele><time>2026-04-06T09:55:42.063Z</time></trkpt><trkpt lat="45.70477932929877" lon="10.392260421692114"><ele>326.20000000000005</ele><time>2026-04-06T09:55:43.063Z</time></trkpt><trkpt lat="45.704808859985064" lon="10.392403151735667"><ele>325.4</ele><time>2026-04-06T09:55:44.063Z</time></trkpt><trkpt lat="45.704835058144276" lon="10.392545504131794"><ele>324.6</ele><time>2026-04-06T09:55:45.063Z</time></trkpt><trkpt lat="45.704855186722995" lon="10.392692574273035"><ele>323.79999999999995</ele><time>2026-04-06T09:55:46.063Z</time></trkpt><trkpt lat="45.70488314466493" lon="10.392846501619216"><ele>323.0</ele><time>2026-04-06T09:55:47.063Z</time></trkpt><trkpt lat="45.704913998193874" lon="10.393001834232205"><ele>321.75</ele><time>2026-04-06T09:55:48.063Z</time></trkpt><trkpt lat="45.704951732717205" lon="10.393164435324723"><ele>320.5</ele><time>2026-04-06T09:55:49.063Z</time></trkpt><trkpt lat="45.704988073210835" lon="10.393329222519927"><ele>319.25</ele><time>2026-04-06T09:55:50.063Z</time></trkpt><trkpt lat="45.705018182318184" lon="10.393499672008149"><ele>318.0</ele><time>2026-04-06T09:55:51.063Z</time></trkpt><trkpt lat="45.70504676588972" lon="10.393658628638537"><ele>318.0</ele><time>2026-04-06T09:55:52.063Z</time></trkpt><trkpt lat="45.70507284345531" lon="10.39382063105305"><ele>318.0</ele><time>2026-04-06T09:55:53.063Z</time></trkpt><trkpt lat="45.705105008861395" lon="10.39397277824187"><ele>318.0</ele><time>2026-04-06T09:55:54.063Z</time></trkpt><trkpt lat="45.7051320646491" lon="10.39411444093894"><ele>318.0</ele><time>2026-04-06T09:55:55.063Z</time></trkpt><trkpt lat="45.70515747377656" lon="10.394259460237166"><ele>318.0</ele><time>2026-04-06T09:55:56.063Z</time></trkpt><trkpt lat="45.70518667695826" lon="10.394403110740377"><ele>319.4</ele><time>2026-04-06T09:55:57.063Z</time></trkpt><trkpt lat="45.70521941885499" lon="10.394545649015003"><ele>320.8</ele><time>2026-04-06T09:55:58.063Z</time></trkpt><trkpt lat="45.705258626820886" lon="10.394689232991412"><ele>322.2</ele><time>2026-04-06T09:55:59.063Z</time></trkpt><trkpt lat="45.70530337297787" lon="10.394836985238273"><ele>323.6</ele><time>2026-04-06T09:56:00.063Z</time></trkpt><trkpt lat="45.70535382785417" lon="10.394983526428849"><ele>325.0</ele><time>2026-04-06T09:56:01.063Z</time></trkpt><trkpt lat="45.70539681730806" lon="10.395115051793415"><ele>325.0</ele><time>2026-04-06T09:56:02.063Z</time></trkpt><trkpt lat="45.70544006066584" lon="10.395243956601215"><ele>325.0</ele><time>2026-04-06T09:56:03.063Z</time></trkpt><trkpt lat="45.70548038397326" lon="10.395350934524714"><ele>325.0</ele><time>2026-04-06T09:56:04.063Z</time></trkpt><trkpt lat="45.70552209561548" lon="10.395459314450628"><ele>325.0</ele><time>2026-04-06T09:56:05.063Z</time></trkpt><trkpt lat="45.70556131498589" lon="10.395574795328379"><ele>325.0</ele><time>2026-04-06T09:56:06.063Z</time></trkpt><trkpt lat="45.70559897022522" lon="10.395710252707161"><ele>323.8</ele><time>2026-04-06T09:56:07.063Z</time></trkpt><trkpt lat="45.705628910801735" lon="10.395849995828089"><ele>322.6</ele><time>2026-04-06T09:56:08.063Z</time></trkpt><trkpt lat="45.70567274384163" lon="10.396004095193002"><ele>321.4</ele><time>2026-04-06T09:56:09.063Z</time></trkpt><trkpt lat="45.70570133887671" lon="10.396163651756696"><ele>320.2</ele><time>2026-04-06T09:56:10.063Z</time></trkpt><trkpt lat="45.70573204254143" lon="10.396309654045957"><ele>319.0</ele><time>2026-04-06T09:56:11.063Z</time></trkpt><trkpt lat="45.7057656614617" lon="10.396464260077904"><ele>318.0</ele><time>2026-04-06T09:56:12.063Z</time></trkpt><trkpt lat="45.70580098488245" lon="10.396628792154944"><ele>317.0</ele><time>2026-04-06T09:56:13.063Z</time></trkpt><trkpt lat="45.70583440323981" lon="10.396790444574782"><ele>316.0</ele><time>2026-04-06T09:56:14.063Z</time></trkpt><trkpt lat="45.705860901477685" lon="10.396939166308742"><ele>315.0</ele><time>2026-04-06T09:56:15.063Z</time></trkpt><trkpt lat="45.70588948891605" lon="10.397081057754315"><ele>314.0</ele><time>2026-04-06T09:56:16.063Z</time></trkpt><trkpt lat="45.705915842278515" lon="10.397216465460279"><ele>314.0</ele><time>2026-04-06T09:56:17.063Z</time></trkpt><trkpt lat="45.70592467560778" lon="10.397356108946045"><ele>314.0</ele><time>2026-04-06T09:56:18.063Z</time></trkpt><trkpt lat="45.705950318231544" lon="10.397475155877535"><ele>314.0</ele><time>2026-04-06T09:56:19.063Z</time></trkpt><trkpt lat="45.70597094498119" lon="10.39759071945234"><ele>314.0</ele><time>2026-04-06T09:56:20.063Z</time></trkpt><trkpt lat="45.705993265269754" lon="10.397723576157864"><ele>314.0</ele><time>2026-04-06T09:56:21.063Z</time></trkpt><trkpt lat="45.70601290241902" lon="10.397855616951112"><ele>313.25</ele><time>2026-04-06T09:56:22.063Z</time></trkpt><trkpt lat="45.70603867379529" lon="10.398007092321452"><ele>312.5</ele><time>2026-04-06T09:56:23.063Z</time></trkpt><trkpt lat="45.706071586239204" lon="10.398163980475456"><ele>311.75</ele><time>2026-04-06T09:56:24.063Z</time></trkpt><trkpt lat="45.706097909041645" lon="10.39833947311698"><ele>311.0</ele><time>2026-04-06T09:56:25.063Z</time></trkpt><trkpt lat="45.706132789675095" lon="10.398515297857394"><ele>313.5</ele><time>2026-04-06T09:56:26.063Z</time></trkpt><trkpt lat="45.706160863789904" lon="10.398673264221717"><ele>316.0</ele><time>2026-04-06T09:56:27.063Z</time></trkpt><trkpt lat="45.70619733059105" lon="10.398836866224347"><ele>318.5</ele><time>2026-04-06T09:56:28.063Z</time></trkpt><trkpt lat="45.706245240804634" lon="10.39901015487395"><ele>321.0</ele><time>2026-04-06T09:56:29.063Z</time></trkpt><trkpt lat="45.70630038717826" lon="10.399193664709479"><ele>321.0</ele><time>2026-04-06T09:56:30.063Z</time></trkpt><trkpt lat="45.70638159042792" lon="10.399395006554597"><ele>321.0</ele><time>2026-04-06T09:56:31.063Z</time></trkpt><trkpt lat="45.70647961242643" lon="10.399604604675238"><ele>321.0</ele><time>2026-04-06T09:56:32.063Z</time></trkpt><trkpt lat="45.70658180743684" lon="10.399785659451078"><ele>320.0</ele><time>2026-04-06T09:56:33.063Z</time></trkpt><trkpt lat="45.70667021682631" lon="10.399964143208939"><ele>319.0</ele><time>2026-04-06T09:56:34.063Z</time></trkpt><trkpt lat="45.706743688299255" lon="10.400134479082476"><ele>318.0</ele><time>2026-04-06T09:56:35.063Z</time></trkpt><trkpt lat="45.70681909250781" lon="10.400300127139442"><ele>317.0</ele><time>2026-04-06T09:56:36.063Z</time></trkpt><trkpt lat="45.70688798907311" lon="10.400455366803898"><ele>317.0</ele><time>2026-04-06T09:56:37.063Z</time></trkpt><trkpt lat="45.70695184307746" lon="10.400599244095488"><ele>317.0</ele><time>2026-04-06T09:56:38.063Z</time></trkpt><trkpt lat="45.707014760391495" lon="10.400736273318605"><ele>317.0</ele><time>2026-04-06T09:56:39.063Z</time></trkpt><trkpt lat="45.70708002450264" lon="10.400865880984524"><ele>317.0</ele><time>2026-04-06T09:56:40.063Z</time></trkpt><trkpt lat="45.70714673724114" lon="10.400989635605665"><ele>317.0</ele><time>2026-04-06T09:56:41.063Z</time></trkpt><trkpt lat="45.70721488080959" lon="10.401107933286207"><ele>317.0</ele><time>2026-04-06T09:56:42.063Z</time></trkpt><trkpt lat="45.70727307291005" lon="10.401222289157293"><ele>317.0</ele><time>2026-04-06T09:56:43.063Z</time></trkpt><trkpt lat="45.7073280562799" lon="10.401328041158067"><ele>317.0</ele><time>2026-04-06T09:56:44.063Z</time></trkpt><trkpt lat="45.70738142837147" lon="10.40142524336318"><ele>317.0</ele><time>2026-04-06T09:56:45.063Z</time></trkpt><trkpt lat="45.70743611052952" lon="10.40151648013337"><ele>316.4</ele><time>2026-04-06T09:56:46.063Z</time></trkpt><trkpt lat="45.707488686384565" lon="10.401613116045215"><ele>315.79999999999995</ele><time>2026-04-06T09:56:47.063Z</time></trkpt><trkpt lat="45.70753704537221" lon="10.401735187294523"><ele>315.2</ele><time>2026-04-06T09:56:48.063Z</time></trkpt><trkpt lat="45.70759173386871" lon="10.401831243446646"><ele>314.59999999999997</ele><time>2026-04-06T09:56:49.063Z</time></trkpt><trkpt lat="45.70765218444105" lon="10.401953183094351"><ele>314.0</ele><time>2026-04-06T09:56:50.063Z</time></trkpt><trkpt lat="45.707717803009906" lon="10.402087963062327"><ele>314.25</ele><time>2026-04-06T09:56:51.063Z</time></trkpt><trkpt lat="45.70777787535022" lon="10.402227730012921"><ele>314.5</ele><time>2026-04-06T09:56:52.063Z</time></trkpt><trkpt lat="45.70784308740729" lon="10.40237258672187"><ele>314.75</ele><time>2026-04-06T09:56:53.063Z</time></trkpt><trkpt lat="45.70791285237202" lon="10.402525553311511"><ele>315.0</ele><time>2026-04-06T09:56:54.063Z</time></trkpt><trkpt lat="45.70800059190344" lon="10.402708862677303"><ele>315.0</ele><time>2026-04-06T09:56:55.063Z</time></trkpt><trkpt lat="45.708066241664795" lon="10.402884563771211"><ele>315.0</ele><time>2026-04-06T09:56:56.063Z</time></trkpt><trkpt lat="45.70813133308121" lon="10.403032608133337"><ele>315.0</ele><time>2026-04-06T09:56:57.063Z</time></trkpt><trkpt lat="45.70820671694619" lon="10.403215810758205"><ele>315.0</ele><time>2026-04-06T09:56:58.063Z</time></trkpt><trkpt lat="45.708280614796436" lon="10.403383551324739"><ele>315.25</ele><time>2026-04-06T09:56:59.063Z</time></trkpt><trkpt lat="45.70834334412199" lon="10.403535407978548"><ele>315.5</ele><time>2026-04-06T09:57:00.063Z</time></trkpt><trkpt lat="45.70840797837752" lon="10.403672511315788"><ele>315.75</ele><time>2026-04-06T09:57:01.063Z</time></trkpt><trkpt lat="45.708474061449856" lon="10.403818705533993"><ele>316.0</ele><time>2026-04-06T09:57:02.063Z</time></trkpt><trkpt lat="45.70853329458702" lon="10.403974410489841"><ele>316.6</ele><time>2026-04-06T09:57:03.063Z</time></trkpt><trkpt lat="45.708595002700534" lon="10.404125307526508"><ele>317.20000000000005</ele><time>2026-04-06T09:57:04.063Z</time></trkpt><trkpt lat="45.70865590655623" lon="10.404259450904464"><ele>317.79999999999995</ele><time>2026-04-06T09:57:05.063Z</time></trkpt><trkpt lat="45.70871262447358" lon="10.404392161560605"><ele>318.4</ele><time>2026-04-06T09:57:06.063Z</time></trkpt><trkpt lat="45.70876551043146" lon="10.404519433805083"><ele>319.0</ele><time>2026-04-06T09:57:07.063Z</time></trkpt><trkpt lat="45.708820379187706" lon="10.404644939847213"><ele>318.75</ele><time>2026-04-06T09:57:08.063Z</time></trkpt><trkpt lat="45.708890522135945" lon="10.404758326137163"><ele>318.5</ele><time>2026-04-06T09:57:09.063Z</time></trkpt><trkpt lat="45.7089869695426" lon="10.404881473017234"><ele>318.25</ele><time>2026-04-06T09:57:10.063Z</time></trkpt><trkpt lat="45.70909008835363" lon="10.405008339913996"><ele>318.0</ele><time>2026-04-06T09:57:11.063Z</time></trkpt><trkpt lat="45.70914953724605" lon="10.405085355204461"><ele>318.0</ele><time>2026-04-06T09:57:12.063Z</time></trkpt><trkpt lat="45.70923251495454" lon="10.405146840957936"><ele>318.0</ele><time>2026-04-06T09:57:13.063Z</time></trkpt><trkpt lat="45.709316370883705" lon="10.405203721880602"><ele>318.0</ele><time>2026-04-06T09:57:14.063Z</time></trkpt><trkpt lat="45.70939340598361" lon="10.40524067092216"><ele>318.0</ele><time>2026-04-06T09:57:15.063Z</time></trkpt><trkpt lat="45.70946591820565" lon="10.405284644674014"><ele>318.0</ele><time>2026-04-06T09:57:16.063Z</time></trkpt><trkpt lat="45.70953657839904" lon="10.405306909114207"><ele>318.0</ele><time>2026-04-06T09:57:17.063Z</time></trkpt><trkpt lat="45.709626613407764" lon="10.405333451390197"><ele>318.0</ele><time>2026-04-06T09:57:18.063Z</time></trkpt><trkpt lat="45.70970961469183" lon="10.405358198734286"><ele>318.0</ele><time>2026-04-06T09:57:19.063Z</time></trkpt><trkpt lat="45.709777223050594" lon="10.405370259231294"><ele>318.0</ele><time>2026-04-06T09:57:20.063Z</time></trkpt><trkpt lat="45.70989605425679" lon="10.405401960919093"><ele>318.0</ele><time>2026-04-06T09:57:22.063Z</time></trkpt><trkpt lat="45.709971769482614" lon="10.405418204096511"><ele>318.0</ele><time>2026-04-06T09:57:24.063Z</time></trkpt><trkpt lat="45.71003800950831" lon="10.405438699778946"><ele>318.0</ele><time>2026-04-06T09:57:27.063Z</time></trkpt><trkpt lat="45.71010720122883" lon="10.405461209123262"><ele>317.4</ele><time>2026-04-06T09:57:41.063Z</time></trkpt><trkpt lat="45.71023430271055" lon="10.405506330569363"><ele>316.8</ele><time>2026-04-06T09:57:43.063Z</time></trkpt><trkpt lat="45.71030357159394" lon="10.405525518283476"><ele>316.2</ele><time>2026-04-06T09:57:44.063Z</time></trkpt><trkpt lat="45.7104213056592" lon="10.405586605830477"><ele>315.6</ele><time>2026-04-06T09:57:46.063Z</time></trkpt><trkpt lat="45.71048952013894" lon="10.405634442050124"><ele>315.0</ele><time>2026-04-06T09:57:47.063Z</time></trkpt><trkpt lat="45.71056775654412" lon="10.405690812776708"><ele>316.0</ele><time>2026-04-06T09:57:48.063Z</time></trkpt><trkpt lat="45.710631273880715" lon="10.405741579841688"><ele>317.0</ele><time>2026-04-06T09:57:49.063Z</time></trkpt><trkpt lat="45.71069558655929" lon="10.405813307665632"><ele>318.0</ele><time>2026-04-06T09:57:50.063Z</time></trkpt><trkpt lat="45.71075626714497" lon="10.405869317490167"><ele>319.0</ele><time>2026-04-06T09:57:51.063Z</time></trkpt><trkpt lat="45.710827073326776" lon="10.405953947387605"><ele>320.0</ele><time>2026-04-06T09:57:52.063Z</time></trkpt><trkpt lat="45.71089495948116" lon="10.406038899827"><ele>321.0</ele><time>2026-04-06T09:57:53.063Z</time></trkpt><trkpt lat="45.71095447535992" lon="10.406131427523738"><ele>321.0</ele><time>2026-04-06T09:57:54.063Z</time></trkpt><trkpt lat="45.71101272841598" lon="10.406217670027303"><ele>321.0</ele><time>2026-04-06T09:57:55.063Z</time></trkpt><trkpt lat="45.71107150970567" lon="10.406298143343168"><ele>321.0</ele><time>2026-04-06T09:57:56.063Z</time></trkpt><trkpt lat="45.71113605338064" lon="10.406395197200533"><ele>321.0</ele><time>2026-04-06T09:57:57.063Z</time></trkpt><trkpt lat="45.71120629388473" lon="10.406490574372361"><ele>321.0</ele><time>2026-04-06T09:57:58.063Z</time></trkpt><trkpt lat="45.71127957547072" lon="10.406591002749495"><ele>322.75</ele><time>2026-04-06T09:57:59.063Z</time></trkpt><trkpt lat="45.711364934069536" lon="10.406705734266957"><ele>324.5</ele><time>2026-04-06T09:58:00.063Z</time></trkpt><trkpt lat="45.711446147270664" lon="10.406830747434075"><ele>326.25</ele><time>2026-04-06T09:58:01.063Z</time></trkpt><trkpt lat="45.71151380243761" lon="10.406947568158486"><ele>328.0</ele><time>2026-04-06T09:58:02.063Z</time></trkpt><trkpt lat="45.7115851698311" lon="10.40706453395557"><ele>326.5</ele><time>2026-04-06T09:58:03.063Z</time></trkpt><trkpt lat="45.71165358661771" lon="10.407202183980651"><ele>325.0</ele><time>2026-04-06T09:58:04.063Z</time></trkpt><trkpt lat="45.711721312698806" lon="10.407353527197928"><ele>323.5</ele><time>2026-04-06T09:58:05.063Z</time></trkpt><trkpt lat="45.711797523258724" lon="10.407520642349256"><ele>322.0</ele><time>2026-04-06T09:58:06.063Z</time></trkpt><trkpt lat="45.71187282590306" lon="10.407710794653477"><ele>325.3333333333333</ele><time>2026-04-06T09:58:07.063Z</time></trkpt><trkpt lat="45.71193670522859" lon="10.407889869267665"><ele>328.6666666666667</ele><time>2026-04-06T09:58:08.063Z</time></trkpt><trkpt lat="45.71200508760385" lon="10.408102866860126"><ele>332.0</ele><time>2026-04-06T09:58:09.063Z</time></trkpt><trkpt lat="45.712085407881055" lon="10.408337569024159"><ele>332.0</ele><time>2026-04-06T09:58:10.063Z</time></trkpt><trkpt lat="45.71218418002817" lon="10.408592997490079"><ele>332.0</ele><time>2026-04-06T09:58:11.063Z</time></trkpt><trkpt lat="45.71227512359554" lon="10.408850143142029"><ele>332.0</ele><time>2026-04-06T09:58:12.063Z</time></trkpt><trkpt lat="45.71235405525272" lon="10.409091483588556"><ele>332.0</ele><time>2026-04-06T09:58:13.063Z</time></trkpt><trkpt lat="45.71243551419935" lon="10.40931744153148"><ele>332.0</ele><time>2026-04-06T09:58:14.063Z</time></trkpt><trkpt lat="45.712523954336916" lon="10.409540309992279"><ele>332.0</ele><time>2026-04-06T09:58:15.063Z</time></trkpt><trkpt lat="45.71262091283777" lon="10.409780583925015"><ele>329.6666666666667</ele><time>2026-04-06T09:58:16.063Z</time></trkpt><trkpt lat="45.71270328215554" lon="10.410067347476241"><ele>327.3333333333333</ele><time>2026-04-06T09:58:17.063Z</time></trkpt><trkpt lat="45.71280037856704" lon="10.41034356199331"><ele>325.0</ele><time>2026-04-06T09:58:18.063Z</time></trkpt><trkpt lat="45.71289801856201" lon="10.41058139296326"><ele>330.0</ele><time>2026-04-06T09:58:19.063Z</time></trkpt><trkpt lat="45.71297369800382" lon="10.410810721932933"><ele>335.0</ele><time>2026-04-06T09:58:20.063Z</time></trkpt><trkpt lat="45.71304446559325" lon="10.411017069098813"><ele>340.0</ele><time>2026-04-06T09:58:21.063Z</time></trkpt><trkpt lat="45.7131107143038" lon="10.411202668775895"><ele>337.66666666666663</ele><time>2026-04-06T09:58:22.063Z</time></trkpt><trkpt lat="45.713171617769845" lon="10.411384116100336"><ele>335.3333333333333</ele><time>2026-04-06T09:58:23.063Z</time></trkpt><trkpt lat="45.71324393770375" lon="10.411592027334063"><ele>333.0</ele><time>2026-04-06T09:58:24.063Z</time></trkpt><trkpt lat="45.713319211891296" lon="10.411772768348932"><ele>333.0</ele><time>2026-04-06T09:58:25.063Z</time></trkpt><trkpt lat="45.713406450226174" lon="10.411927902187623"><ele>333.0</ele><time>2026-04-06T09:58:26.063Z</time></trkpt><trkpt lat="45.71351371987535" lon="10.412062701589994"><ele>333.0</ele><time>2026-04-06T09:58:27.063Z</time></trkpt><trkpt lat="45.71362119328329" lon="10.412182185033405"><ele>333.0</ele><time>2026-04-06T09:58:28.063Z</time></trkpt><trkpt lat="45.7137423264655" lon="10.412284508228652"><ele>335.25</ele><time>2026-04-06T09:58:29.063Z</time></trkpt><trkpt lat="45.713877852389935" lon="10.412381603722372"><ele>337.5</ele><time>2026-04-06T09:58:30.063Z</time></trkpt><trkpt lat="45.71400295992001" lon="10.412456594239947"><ele>339.75</ele><time>2026-04-06T09:58:31.063Z</time></trkpt><trkpt lat="45.71412317971705" lon="10.41251808041778"><ele>342.0</ele><time>2026-04-06T09:58:32.063Z</time></trkpt><trkpt lat="45.714250445940074" lon="10.412588670057579"><ele>342.0</ele><time>2026-04-06T09:58:33.063Z</time></trkpt><trkpt lat="45.71436632494912" lon="10.41268206298319"><ele>342.0</ele><time>2026-04-06T09:58:34.063Z</time></trkpt><trkpt lat="45.71444218281284" lon="10.412824922320377"><ele>342.0</ele><time>2026-04-06T09:58:35.063Z</time></trkpt><trkpt lat="45.71454033715099" lon="10.41294484408524"><ele>342.0</ele><time>2026-04-06T09:58:36.063Z</time></trkpt><trkpt lat="45.714679541212114" lon="10.41302947992717"><ele>340.3333333333333</ele><time>2026-04-06T09:58:37.063Z</time></trkpt><trkpt lat="45.71485993197473" lon="10.413110893401019"><ele>338.66666666666663</ele><time>2026-04-06T09:58:38.063Z</time></trkpt><trkpt lat="45.71498930537557" lon="10.413230420176557"><ele>337.0</ele><time>2026-04-06T09:58:39.063Z</time></trkpt><trkpt lat="45.715107985961275" lon="10.413359472540865"><ele>337.0</ele><time>2026-04-06T09:58:40.063Z</time></trkpt><trkpt lat="45.71521024212162" lon="10.413491063675668"><ele>337.0</ele><time>2026-04-06T09:58:41.063Z</time></trkpt><trkpt lat="45.71530049770246" lon="10.413628792676406"><ele>337.0</ele><time>2026-04-06T09:58:42.063Z</time></trkpt><trkpt lat="45.71538551484217" lon="10.413760686404528"><ele>337.0</ele><time>2026-04-06T09:58:43.063Z</time></trkpt><trkpt lat="45.71547576736193" lon="10.413890190118487"><ele>337.25</ele><time>2026-04-06T09:58:44.063Z</time></trkpt><trkpt lat="45.715563466296935" lon="10.41400881891611"><ele>337.5</ele><time>2026-04-06T09:58:45.063Z</time></trkpt><trkpt lat="45.715646421757484" lon="10.414123935426169"><ele>337.75</ele><time>2026-04-06T09:58:46.063Z</time></trkpt><trkpt lat="45.71572161525305" lon="10.414244681823476"><ele>338.0</ele><time>2026-04-06T09:58:47.063Z</time></trkpt><trkpt lat="45.715802894726394" lon="10.4143716589958"><ele>338.0</ele><time>2026-04-06T09:58:48.063Z</time></trkpt><trkpt lat="45.71588742852629" lon="10.414494660640377"><ele>338.0</ele><time>2026-04-06T09:58:49.063Z</time></trkpt><trkpt lat="45.715970700080106" lon="10.414622704294615"><ele>338.0</ele><time>2026-04-06T09:58:50.063Z</time></trkpt><trkpt lat="45.716067598168145" lon="10.414749131299418"><ele>338.0</ele><time>2026-04-06T09:58:51.063Z</time></trkpt><trkpt lat="45.71615405902229" lon="10.41487028339317"><ele>340.79999999999995</ele><time>2026-04-06T09:58:52.063Z</time></trkpt><trkpt lat="45.71623742352805" lon="10.415000857963841"><ele>343.6</ele><time>2026-04-06T09:58:53.063Z</time></trkpt><trkpt lat="45.7163178960028" lon="10.415119613485553"><ele>346.4</ele><time>2026-04-06T09:58:54.063Z</time></trkpt><trkpt lat="45.7163840316199" lon="10.415235269062153"><ele>349.20000000000005</ele><time>2026-04-06T09:58:55.063Z</time></trkpt><trkpt lat="45.71644565967487" lon="10.415345552220055"><ele>352.0</ele><time>2026-04-06T09:58:56.063Z</time></trkpt><trkpt lat="45.71647878729416" lon="10.415441444134578"><ele>348.40000000000003</ele><time>2026-04-06T09:58:57.063Z</time></trkpt><trkpt lat="45.71650456537702" lon="10.415538633469767"><ele>344.8</ele><time>2026-04-06T09:58:58.063Z</time></trkpt><trkpt lat="45.71654906457359" lon="10.415622385851178"><ele>341.2</ele><time>2026-04-06T09:58:59.063Z</time></trkpt><trkpt lat="45.716617699276256" lon="10.415715091973837"><ele>337.6</ele><time>2026-04-06T09:59:00.063Z</time></trkpt><trkpt lat="45.716702103774075" lon="10.415796272099673"><ele>334.0</ele><time>2026-04-06T09:59:01.063Z</time></trkpt><trkpt lat="45.71679704904698" lon="10.41590074505359"><ele>334.0</ele><time>2026-04-06T09:59:02.063Z</time></trkpt><trkpt lat="45.71690009609794" lon="10.416058908991632"><ele>334.0</ele><time>2026-04-06T09:59:03.063Z</time></trkpt><trkpt lat="45.71702036477741" lon="10.41623234913768"><ele>334.0</ele><time>2026-04-06T09:59:04.063Z</time></trkpt><trkpt lat="45.71712650968088" lon="10.416383885593048"><ele>337.25</ele><time>2026-04-06T09:59:05.063Z</time></trkpt><trkpt lat="45.71722122512948" lon="10.416531062713641"><ele>340.5</ele><time>2026-04-06T09:59:06.063Z</time></trkpt><trkpt lat="45.71731135964361" lon="10.416668085076624"><ele>343.75</ele><time>2026-04-06T09:59:07.063Z</time></trkpt><trkpt lat="45.71740003433969" lon="10.416800588208424"><ele>347.0</ele><time>2026-04-06T09:59:08.063Z</time></trkpt><trkpt lat="45.71748161212362" lon="10.416924989915103"><ele>347.0</ele><time>2026-04-06T09:59:09.063Z</time></trkpt><trkpt lat="45.717560364572" lon="10.417064578111134"><ele>347.0</ele><time>2026-04-06T09:59:10.063Z</time></trkpt><trkpt lat="45.717636750727166" lon="10.417176005274735"><ele>347.0</ele><time>2026-04-06T09:59:11.063Z</time></trkpt><trkpt lat="45.717713623028516" lon="10.417288141598144"><ele>347.0</ele><time>2026-04-06T09:59:12.063Z</time></trkpt><trkpt lat="45.71779593851385" lon="10.417390266786342"><ele>347.5</ele><time>2026-04-06T09:59:13.063Z</time></trkpt><trkpt lat="45.71786819345866" lon="10.417492542389969"><ele>348.0</ele><time>2026-04-06T09:59:14.063Z</time></trkpt><trkpt lat="45.7179557348292" lon="10.417611522124435"><ele>348.5</ele><time>2026-04-06T09:59:15.063Z</time></trkpt><trkpt lat="45.718034478316525" lon="10.417751712877418"><ele>349.0</ele><time>2026-04-06T09:59:16.063Z</time></trkpt><trkpt lat="45.71813815839499" lon="10.417899910908993"><ele>342.66666666666663</ele><time>2026-04-06T09:59:17.063Z</time></trkpt><trkpt lat="45.71825022245325" lon="10.418054522706191"><ele>336.3333333333333</ele><time>2026-04-06T09:59:18.063Z</time></trkpt><trkpt lat="45.71835651290759" lon="10.418234328975764"><ele>330.0</ele><time>2026-04-06T09:59:19.063Z</time></trkpt><trkpt lat="45.718483657754625" lon="10.418406648738067"><ele>330.6666666666667</ele><time>2026-04-06T09:59:20.063Z</time></trkpt><trkpt lat="45.718585267602904" lon="10.41857879809726"><ele>331.33333333333337</ele><time>2026-04-06T09:59:21.063Z</time></trkpt><trkpt lat="45.71869887718769" lon="10.418723438525491"><ele>332.0</ele><time>2026-04-06T09:59:22.063Z</time></trkpt><trkpt lat="45.718810386635134" lon="10.418897243512806"><ele>332.0</ele><time>2026-04-06T09:59:23.063Z</time></trkpt><trkpt lat="45.71891934549548" lon="10.41907324722267"><ele>332.0</ele><time>2026-04-06T09:59:24.063Z</time></trkpt><trkpt lat="45.71905576726207" lon="10.419242798988417"><ele>332.0</ele><time>2026-04-06T09:59:25.063Z</time></trkpt><trkpt lat="45.71918729813761" lon="10.419429460207462"><ele>332.0</ele><time>2026-04-06T09:59:26.063Z</time></trkpt><trkpt lat="45.719297885482405" lon="10.419604555742792"><ele>332.0</ele><time>2026-04-06T09:59:27.063Z</time></trkpt><trkpt lat="45.71939932115695" lon="10.419759334099288"><ele>332.0</ele><time>2026-04-06T09:59:28.063Z</time></trkpt><trkpt lat="45.71950297371793" lon="10.419909869293823"><ele>331.75</ele><time>2026-04-06T09:59:29.063Z</time></trkpt><trkpt lat="45.71960119885794" lon="10.420050026594964"><ele>331.5</ele><time>2026-04-06T09:59:30.063Z</time></trkpt><trkpt lat="45.71970027897489" lon="10.42019689468001"><ele>331.25</ele><time>2026-04-06T09:59:31.063Z</time></trkpt><trkpt lat="45.71979878903376" lon="10.42034349620039"><ele>331.0</ele><time>2026-04-06T09:59:32.063Z</time></trkpt><trkpt lat="45.7198904992404" lon="10.42048451746157"><ele>331.0</ele><time>2026-04-06T09:59:33.063Z</time></trkpt><trkpt lat="45.71997743275473" lon="10.420616701085649"><ele>331.0</ele><time>2026-04-06T09:59:34.063Z</time></trkpt><trkpt lat="45.72006334145422" lon="10.420745804018976"><ele>331.0</ele><time>2026-04-06T09:59:35.063Z</time></trkpt><trkpt lat="45.72015093591022" lon="10.420875229118627"><ele>331.0</ele><time>2026-04-06T09:59:36.063Z</time></trkpt><trkpt lat="45.72023802817469" lon="10.42099648992788"><ele>330.6</ele><time>2026-04-06T09:59:37.063Z</time></trkpt><trkpt lat="45.72030979732649" lon="10.421105826965608"><ele>330.20000000000005</ele><time>2026-04-06T09:59:38.063Z</time></trkpt><trkpt lat="45.720377689297216" lon="10.421208340214168"><ele>329.79999999999995</ele><time>2026-04-06T09:59:39.063Z</time></trkpt><trkpt lat="45.72046148840931" lon="10.421330618818768"><ele>329.4</ele><time>2026-04-06T09:59:40.063Z</time></trkpt><trkpt lat="45.72055168635996" lon="10.42145631661341"><ele>329.0</ele><time>2026-04-06T09:59:41.063Z</time></trkpt><trkpt lat="45.72065244876924" lon="10.421594520142717"><ele>329.0</ele><time>2026-04-06T09:59:42.063Z</time></trkpt><trkpt lat="45.72074925959579" lon="10.421743643578232"><ele>329.0</ele><time>2026-04-06T09:59:43.063Z</time></trkpt><trkpt lat="45.72084712162144" lon="10.42188973059583"><ele>329.0</ele><time>2026-04-06T09:59:44.063Z</time></trkpt><trkpt lat="45.72093905021413" lon="10.422036064000554"><ele>329.0</ele><time>2026-04-06T09:59:45.063Z</time></trkpt><trkpt lat="45.72101615867949" lon="10.42218546337561"><ele>330.0</ele><time>2026-04-06T09:59:46.063Z</time></trkpt><trkpt lat="45.72107686361628" lon="10.422336435107031"><ele>331.0</ele><time>2026-04-06T09:59:47.063Z</time></trkpt><trkpt lat="45.72113332389568" lon="10.42248146101136"><ele>332.0</ele><time>2026-04-06T09:59:48.063Z</time></trkpt><trkpt lat="45.72118759698896" lon="10.422625643375543"><ele>333.0</ele><time>2026-04-06T09:59:49.063Z</time></trkpt><trkpt lat="45.72123777455764" lon="10.422777135734306"><ele>333.0</ele><time>2026-04-06T09:59:50.063Z</time></trkpt><trkpt lat="45.7212866831481" lon="10.422921167829063"><ele>333.0</ele><time>2026-04-06T09:59:51.063Z</time></trkpt><trkpt lat="45.72134265929467" lon="10.423095412526452"><ele>333.0</ele><time>2026-04-06T09:59:52.063Z</time></trkpt><trkpt lat="45.72140676771989" lon="10.423289219094253"><ele>333.0</ele><time>2026-04-06T09:59:53.063Z</time></trkpt><trkpt lat="45.72147782344567" lon="10.423498628470629"><ele>332.0</ele><time>2026-04-06T09:59:54.063Z</time></trkpt><trkpt lat="45.72156198984568" lon="10.42371564171852"><ele>331.0</ele><time>2026-04-06T09:59:55.063Z</time></trkpt><trkpt lat="45.721634636236736" lon="10.423903178939854"><ele>330.0</ele><time>2026-04-06T09:59:56.063Z</time></trkpt><trkpt lat="45.72170535982774" lon="10.424082397522655"><ele>330.0</ele><time>2026-04-06T09:59:57.063Z</time></trkpt><trkpt lat="45.72179269641559" lon="10.42425871064183"><ele>330.0</ele><time>2026-04-06T09:59:58.063Z</time></trkpt><trkpt lat="45.7219019530614" lon="10.424412374338207"><ele>330.0</ele><time>2026-04-06T09:59:59.063Z</time></trkpt><trkpt lat="45.722012052843276" lon="10.424545090167653"><ele>330.0</ele><time>2026-04-06T10:00:00.063Z</time></trkpt><trkpt lat="45.72212072763257" lon="10.42465302053488"><ele>329.75</ele><time>2026-04-06T10:00:01.063Z</time></trkpt><trkpt lat="45.72223182501048" lon="10.424764527008955"><ele>329.5</ele><time>2026-04-06T10:00:02.063Z</time></trkpt><trkpt lat="45.72233490640713" lon="10.424873068084139"><ele>329.25</ele><time>2026-04-06T10:00:03.063Z</time></trkpt><trkpt lat="45.72243213393776" lon="10.424995675898712"><ele>329.0</ele><time>2026-04-06T10:00:04.063Z</time></trkpt><trkpt lat="45.722516338970465" lon="10.42514648634395"><ele>329.0</ele><time>2026-04-06T10:00:05.063Z</time></trkpt><trkpt lat="45.72260467455608" lon="10.42531539550488"><ele>329.0</ele><time>2026-04-06T10:00:06.063Z</time></trkpt><trkpt lat="45.72269676867434" lon="10.425494442427329"><ele>329.0</ele><time>2026-04-06T10:00:07.063Z</time></trkpt><trkpt lat="45.72278894622645" lon="10.425685363327915"><ele>332.0</ele><time>2026-04-06T10:00:08.063Z</time></trkpt><trkpt lat="45.72287921381214" lon="10.425866248294412"><ele>335.0</ele><time>2026-04-06T10:00:09.063Z</time></trkpt><trkpt lat="45.72296372674841" lon="10.426040135155974"><ele>338.0</ele><time>2026-04-06T10:00:10.063Z</time></trkpt><trkpt lat="45.723052572092506" lon="10.426215021987293"><ele>336.0</ele><time>2026-04-06T10:00:11.063Z</time></trkpt><trkpt lat="45.72314695080846" lon="10.426376033853309"><ele>334.0</ele><time>2026-04-06T10:00:12.063Z</time></trkpt><trkpt lat="45.72324378448801" lon="10.426545980272385"><ele>332.0</ele><time>2026-04-06T10:00:13.063Z</time></trkpt><trkpt lat="45.72335694812129" lon="10.4267015522939"><ele>332.0</ele><time>2026-04-06T10:00:14.063Z</time></trkpt><trkpt lat="45.723463874454694" lon="10.426842479300893"><ele>332.0</ele><time>2026-04-06T10:00:15.063Z</time></trkpt><trkpt lat="45.72357615265474" lon="10.42698165700968"><ele>332.0</ele><time>2026-04-06T10:00:16.063Z</time></trkpt><trkpt lat="45.72368203209" lon="10.427104663615816"><ele>332.0</ele><time>2026-04-06T10:00:17.063Z</time></trkpt><trkpt lat="45.723786212664145" lon="10.427219656120888"><ele>332.40000000000003</ele><time>2026-04-06T10:00:18.063Z</time></trkpt><trkpt lat="45.723879846173034" lon="10.427338026080315"><ele>332.8</ele><time>2026-04-06T10:00:19.063Z</time></trkpt><trkpt lat="45.72396935368374" lon="10.427455145158481"><ele>333.2</ele><time>2026-04-06T10:00:20.063Z</time></trkpt><trkpt lat="45.72404626716141" lon="10.427567832785819"><ele>333.6</ele><time>2026-04-06T10:00:21.063Z</time></trkpt><trkpt lat="45.72409957820853" lon="10.42766123671018"><ele>334.0</ele><time>2026-04-06T10:00:22.063Z</time></trkpt><trkpt lat="45.72414738326406" lon="10.427768115081067"><ele>334.0</ele><time>2026-04-06T10:00:23.063Z</time></trkpt><trkpt lat="45.724261230919204" lon="10.42793050097798"><ele>334.0</ele><time>2026-04-06T10:00:24.063Z</time></trkpt><trkpt lat="45.72442288392433" lon="10.428119958451283"><ele>334.0</ele><time>2026-04-06T10:00:25.063Z</time></trkpt><trkpt lat="45.724519300666664" lon="10.428253194429649"><ele>334.0</ele><time>2026-04-06T10:00:26.063Z</time></trkpt><trkpt lat="45.72460511966477" lon="10.42837994177089"><ele>334.0</ele><time>2026-04-06T10:00:27.063Z</time></trkpt><trkpt lat="45.724697130573105" lon="10.428521794861654"><ele>334.0</ele><time>2026-04-06T10:00:28.063Z</time></trkpt><trkpt lat="45.72477666965155" lon="10.428713108721752"><ele>334.0</ele><time>2026-04-06T10:00:29.063Z</time></trkpt><trkpt lat="45.72486561085982" lon="10.428869103552941"><ele>334.0</ele><time>2026-04-06T10:00:30.063Z</time></trkpt><trkpt lat="45.72492834539726" lon="10.429036838259616"><ele>334.0</ele><time>2026-04-06T10:00:31.063Z</time></trkpt><trkpt lat="45.725006206698176" lon="10.429192334420263"><ele>334.0</ele><time>2026-04-06T10:00:32.063Z</time></trkpt><trkpt lat="45.725103968869846" lon="10.42935353221555"><ele>334.0</ele><time>2026-04-06T10:00:33.063Z</time></trkpt><trkpt lat="45.72522809508268" lon="10.429531290706288"><ele>334.0</ele><time>2026-04-06T10:00:34.063Z</time></trkpt><trkpt lat="45.72536626873244" lon="10.429702628134663"><ele>334.0</ele><time>2026-04-06T10:00:35.063Z</time></trkpt><trkpt lat="45.72549973421965" lon="10.429916045851465"><ele>334.0</ele><time>2026-04-06T10:00:36.063Z</time></trkpt><trkpt lat="45.72566195294645" lon="10.430139231509655"><ele>334.0</ele><time>2026-04-06T10:00:37.063Z</time></trkpt><trkpt lat="45.72583441383856" lon="10.430366390311246"><ele>334.0</ele><time>2026-04-06T10:00:38.063Z</time></trkpt><trkpt lat="45.72598644538032" lon="10.430569072939418"><ele>334.0</ele><time>2026-04-06T10:00:39.063Z</time></trkpt><trkpt lat="45.7261417320367" lon="10.430783364852484"><ele>334.5</ele><time>2026-04-06T10:00:40.063Z</time></trkpt><trkpt lat="45.72632456649383" lon="10.431032714906408"><ele>335.0</ele><time>2026-04-06T10:00:41.063Z</time></trkpt><trkpt lat="45.72653517736089" lon="10.43128868797448"><ele>331.5</ele><time>2026-04-06T10:00:42.063Z</time></trkpt><trkpt lat="45.72672767876136" lon="10.43153199596287"><ele>328.0</ele><time>2026-04-06T10:00:43.063Z</time></trkpt><trkpt lat="45.72690347355091" lon="10.431751271530025"><ele>329.5</ele><time>2026-04-06T10:00:44.063Z</time></trkpt><trkpt lat="45.72708842733957" lon="10.431956859598614"><ele>331.0</ele><time>2026-04-06T10:00:45.063Z</time></trkpt><trkpt lat="45.72727798695261" lon="10.432162640810828"><ele>331.0</ele><time>2026-04-06T10:00:46.063Z</time></trkpt><trkpt lat="45.72743143933214" lon="10.432332830793262"><ele>331.0</ele><time>2026-04-06T10:00:47.063Z</time></trkpt><trkpt lat="45.72754799514834" lon="10.432453669563913"><ele>331.0</ele><time>2026-04-06T10:00:48.063Z</time></trkpt><trkpt lat="45.72765665458453" lon="10.432532339124853"><ele>333.3333333333333</ele><time>2026-04-06T10:00:49.063Z</time></trkpt><trkpt lat="45.72778491135645" lon="10.432592406501673"><ele>335.6666666666667</ele><time>2026-04-06T10:00:50.063Z</time></trkpt><trkpt lat="45.72793660019863" lon="10.43259389573008"><ele>338.0</ele><time>2026-04-06T10:00:51.063Z</time></trkpt><trkpt lat="45.72811116064862" lon="10.432535601201954"><ele>338.0</ele><time>2026-04-06T10:00:52.063Z</time></trkpt><trkpt lat="45.728269266189805" lon="10.43249318838478"><ele>338.0</ele><time>2026-04-06T10:00:53.063Z</time></trkpt><trkpt lat="45.72842011178177" lon="10.432519653923668"><ele>338.0</ele><time>2026-04-06T10:00:54.063Z</time></trkpt><trkpt lat="45.7285505009668" lon="10.43262161464086"><ele>338.6666666666667</ele><time>2026-04-06T10:00:55.063Z</time></trkpt><trkpt lat="45.72870318637549" lon="10.432788602937705"><ele>339.3333333333333</ele><time>2026-04-06T10:00:56.063Z</time></trkpt><trkpt lat="45.72886634257636" lon="10.432983956855422"><ele>340.0</ele><time>2026-04-06T10:00:57.063Z</time></trkpt><trkpt lat="45.729008739021324" lon="10.433231326667403"><ele>340.0</ele><time>2026-04-06T10:00:58.063Z</time></trkpt><trkpt lat="45.7291657968565" lon="10.433516005455"><ele>340.0</ele><time>2026-04-06T10:00:59.063Z</time></trkpt><trkpt lat="45.72929427170077" lon="10.433785706684446"><ele>339.66666666666663</ele><time>2026-04-06T10:01:00.063Z</time></trkpt><trkpt lat="45.72942928258631" lon="10.433998190949783"><ele>339.3333333333333</ele><time>2026-04-06T10:01:01.063Z</time></trkpt><trkpt lat="45.729568458565794" lon="10.434162033438831"><ele>339.0</ele><time>2026-04-06T10:01:02.063Z</time></trkpt><trkpt lat="45.72972132779582" lon="10.43427461259815"><ele>339.0</ele><time>2026-04-06T10:01:03.063Z</time></trkpt><trkpt lat="45.72990409159927" lon="10.434369604940025"><ele>339.0</ele><time>2026-04-06T10:01:04.063Z</time></trkpt><trkpt lat="45.730099313944734" lon="10.434438456914124"><ele>339.0</ele><time>2026-04-06T10:01:05.063Z</time></trkpt><trkpt lat="45.7302632962047" lon="10.434505527188627"><ele>340.0</ele><time>2026-04-06T10:01:06.063Z</time></trkpt><trkpt lat="45.730390976846586" lon="10.434580300043804"><ele>341.0</ele><time>2026-04-06T10:01:07.063Z</time></trkpt><trkpt lat="45.730529917367754" lon="10.434609982628922"><ele>342.0</ele><time>2026-04-06T10:01:08.063Z</time></trkpt><trkpt lat="45.7306982133346" lon="10.434564124608157"><ele>342.0</ele><time>2026-04-06T10:01:09.063Z</time></trkpt><trkpt lat="45.73089617539869" lon="10.434459409644703"><ele>342.0</ele><time>2026-04-06T10:01:10.063Z</time></trkpt><trkpt lat="45.73110463106839" lon="10.434341963358342"><ele>342.0</ele><time>2026-04-06T10:01:11.063Z</time></trkpt><trkpt lat="45.73132698815918" lon="10.43421764330016"><ele>343.3333333333333</ele><time>2026-04-06T10:01:12.063Z</time></trkpt><trkpt lat="45.731547277569945" lon="10.434101457462944"><ele>344.66666666666663</ele><time>2026-04-06T10:01:13.063Z</time></trkpt><trkpt lat="45.73172077379424" lon="10.434002818155369"><ele>346.0</ele><time>2026-04-06T10:01:14.063Z</time></trkpt><trkpt lat="45.73183807846553" lon="10.433947995365509"><ele>346.25</ele><time>2026-04-06T10:01:15.063Z</time></trkpt><trkpt lat="45.73194292196751" lon="10.433945009480489"><ele>346.5</ele><time>2026-04-06T10:01:16.063Z</time></trkpt><trkpt lat="45.732050657212476" lon="10.433956019892278"><ele>346.75</ele><time>2026-04-06T10:01:17.063Z</time></trkpt><trkpt lat="45.732188786882425" lon="10.434029601712597"><ele>347.0</ele><time>2026-04-06T10:01:18.063Z</time></trkpt><trkpt lat="45.732338135072006" lon="10.434101912215835"><ele>347.0</ele><time>2026-04-06T10:01:19.063Z</time></trkpt><trkpt lat="45.73250464267705" lon="10.434167947780676"><ele>347.0</ele><time>2026-04-06T10:01:20.063Z</time></trkpt><trkpt lat="45.73269204050658" lon="10.434262632956838"><ele>347.0</ele><time>2026-04-06T10:01:21.063Z</time></trkpt><trkpt lat="45.73289707481017" lon="10.434355618941844"><ele>350.6666666666667</ele><time>2026-04-06T10:01:22.063Z</time></trkpt><trkpt lat="45.73307402800617" lon="10.434450451248342"><ele>354.3333333333333</ele><time>2026-04-06T10:01:23.063Z</time></trkpt><trkpt lat="45.733226808507105" lon="10.434544336716435"><ele>358.0</ele><time>2026-04-06T10:01:24.063Z</time></trkpt><trkpt lat="45.73337372709407" lon="10.434615884415487"><ele>360.3333333333333</ele><time>2026-04-06T10:01:25.063Z</time></trkpt><trkpt lat="45.73354754929086" lon="10.434651734418116"><ele>362.6666666666667</ele><time>2026-04-06T10:01:26.063Z</time></trkpt><trkpt lat="45.73375424047368" lon="10.434630326716844"><ele>365.0</ele><time>2026-04-06T10:01:27.063Z</time></trkpt><trkpt lat="45.733976040563206" lon="10.43457392747539"><ele>365.0</ele><time>2026-04-06T10:01:28.063Z</time></trkpt><trkpt lat="45.73420103716418" lon="10.434554782488563"><ele>365.0</ele><time>2026-04-06T10:01:29.063Z</time></trkpt><trkpt lat="45.73439525530664" lon="10.43456241542682"><ele>365.0</ele><time>2026-04-06T10:01:30.063Z</time></trkpt><trkpt lat="45.73456415843859" lon="10.434543372555682"><ele>365.6666666666667</ele><time>2026-04-06T10:01:31.063Z</time></trkpt><trkpt lat="45.73473040692042" lon="10.434493365849344"><ele>366.3333333333333</ele><time>2026-04-06T10:01:32.063Z</time></trkpt><trkpt lat="45.73488639957255" lon="10.434422913298906"><ele>367.0</ele><time>2026-04-06T10:01:33.063Z</time></trkpt><trkpt lat="45.73503045699018" lon="10.434383317819345"><ele>367.0</ele><time>2026-04-06T10:01:34.063Z</time></trkpt><trkpt lat="45.73518392418646" lon="10.434420211850256"><ele>367.0</ele><time>2026-04-06T10:01:35.063Z</time></trkpt><trkpt lat="45.73535433376044" lon="10.434505415906141"><ele>367.0</ele><time>2026-04-06T10:01:36.063Z</time></trkpt><trkpt lat="45.73553935528425" lon="10.434630699490766"><ele>363.66666666666663</ele><time>2026-04-06T10:01:37.063Z</time></trkpt><trkpt lat="45.735716728248136" lon="10.434787540755053"><ele>360.3333333333333</ele><time>2026-04-06T10:01:38.063Z</time></trkpt><trkpt lat="45.73588406902575" lon="10.434904537579152"><ele>357.0</ele><time>2026-04-06T10:01:39.063Z</time></trkpt><trkpt lat="45.736037237378746" lon="10.435003251296516"><ele>364.0</ele><time>2026-04-06T10:01:40.063Z</time></trkpt><trkpt lat="45.736170018507316" lon="10.435099166370609"><ele>371.0</ele><time>2026-04-06T10:01:41.063Z</time></trkpt><trkpt lat="45.73630897766251" lon="10.435194328947055"><ele>378.0</ele><time>2026-04-06T10:01:42.063Z</time></trkpt><trkpt lat="45.73644166144666" lon="10.435285105882842"><ele>378.0</ele><time>2026-04-06T10:01:43.063Z</time></trkpt><trkpt lat="45.73658456422835" lon="10.43534677357817"><ele>378.0</ele><time>2026-04-06T10:01:44.063Z</time></trkpt><trkpt lat="45.73673974644935" lon="10.435389692862751"><ele>378.0</ele><time>2026-04-06T10:01:45.063Z</time></trkpt><trkpt lat="45.73687196475856" lon="10.4355009222819"><ele>378.6666666666667</ele><time>2026-04-06T10:01:46.063Z</time></trkpt><trkpt lat="45.73699556030916" lon="10.43565901472677"><ele>379.33333333333337</ele><time>2026-04-06T10:01:47.063Z</time></trkpt><trkpt lat="45.7371324318384" lon="10.435819889398157"><ele>380.0</ele><time>2026-04-06T10:01:48.063Z</time></trkpt><trkpt lat="45.737249588450204" lon="10.435998302142364"><ele>380.0</ele><time>2026-04-06T10:01:49.063Z</time></trkpt><trkpt lat="45.7373568136596" lon="10.436152410537712"><ele>380.0</ele><time>2026-04-06T10:01:50.063Z</time></trkpt><trkpt lat="45.73745092081059" lon="10.436283533034898"><ele>380.0</ele><time>2026-04-06T10:01:51.063Z</time></trkpt><trkpt lat="45.73757370968742" lon="10.436374513140168"><ele>380.0</ele><time>2026-04-06T10:01:52.063Z</time></trkpt><trkpt lat="45.73772540348805" lon="10.436414685828716"><ele>381.75</ele><time>2026-04-06T10:01:53.063Z</time></trkpt><trkpt lat="45.73789709673259" lon="10.436394089892897"><ele>383.5</ele><time>2026-04-06T10:01:54.063Z</time></trkpt><trkpt lat="45.73802515187844" lon="10.436373905232891"><ele>385.25</ele><time>2026-04-06T10:01:55.063Z</time></trkpt><trkpt lat="45.73813005960666" lon="10.436443247762936"><ele>387.0</ele><time>2026-04-06T10:01:56.063Z</time></trkpt><trkpt lat="45.73821895253911" lon="10.436642762527946"><ele>387.0</ele><time>2026-04-06T10:01:57.063Z</time></trkpt><trkpt lat="45.73833629252807" lon="10.436801606682076"><ele>387.0</ele><time>2026-04-06T10:01:58.063Z</time></trkpt><trkpt lat="45.738435284301694" lon="10.43699001227205"><ele>387.0</ele><time>2026-04-06T10:01:59.063Z</time></trkpt><trkpt lat="45.738546202833106" lon="10.437131884035383"><ele>388.20000000000005</ele><time>2026-04-06T10:02:00.063Z</time></trkpt><trkpt lat="45.7386363557968" lon="10.437247602144547"><ele>389.4</ele><time>2026-04-06T10:02:01.063Z</time></trkpt><trkpt lat="45.73872271659439" lon="10.437353867550708"><ele>390.6</ele><time>2026-04-06T10:02:02.063Z</time></trkpt><trkpt lat="45.73871811813369" lon="10.437504636131656"><ele>391.79999999999995</ele><time>2026-04-06T10:02:03.063Z</time></trkpt><trkpt lat="45.73874291510148" lon="10.437644223448174"><ele>393.0</ele><time>2026-04-06T10:02:04.063Z</time></trkpt><trkpt lat="45.73876874500309" lon="10.437823468288991"><ele>392.0</ele><time>2026-04-06T10:02:05.063Z</time></trkpt><trkpt lat="45.73879689017554" lon="10.437988746211376"><ele>391.0</ele><time>2026-04-06T10:02:06.063Z</time></trkpt><trkpt lat="45.738807274531474" lon="10.438148346013419"><ele>390.0</ele><time>2026-04-06T10:02:07.063Z</time></trkpt><trkpt lat="45.738817596501924" lon="10.438290786167592"><ele>389.0</ele><time>2026-04-06T10:02:08.063Z</time></trkpt><trkpt lat="45.738829101347534" lon="10.43845211880876"><ele>388.0</ele><time>2026-04-06T10:02:09.063Z</time></trkpt><trkpt lat="45.73884647011987" lon="10.43858095000735"><ele>388.00000000000006</ele><time>2026-04-06T10:02:10.063Z</time></trkpt><trkpt lat="45.738864657785896" lon="10.43870306955918"><ele>388.0</ele><time>2026-04-06T10:02:11.063Z</time></trkpt><trkpt lat="45.73893253168647" lon="10.438812010937818"><ele>388.0</ele><time>2026-04-06T10:02:12.063Z</time></trkpt><trkpt lat="45.73898389094809" lon="10.438901712127718"><ele>388.0</ele><time>2026-04-06T10:02:13.063Z</time></trkpt><trkpt lat="45.739040275325095" lon="10.438970107754052"><ele>388.00000000000006</ele><time>2026-04-06T10:02:14.063Z</time></trkpt><trkpt lat="45.739091446433235" lon="10.439047933534521"><ele>388.0</ele><time>2026-04-06T10:02:15.063Z</time></trkpt><trkpt lat="45.73913204459762" lon="10.439123108142425"><ele>386.79999999999995</ele><time>2026-04-06T10:02:16.063Z</time></trkpt><trkpt lat="45.73919806107179" lon="10.439161331321204"><ele>385.6</ele><time>2026-04-06T10:02:17.063Z</time></trkpt><trkpt lat="45.73924619830613" lon="10.439234665108103"><ele>384.4</ele><time>2026-04-06T10:02:18.063Z</time></trkpt><trkpt lat="45.73930074050062" lon="10.439401023967246"><ele>383.20000000000005</ele><time>2026-04-06T10:02:20.063Z</time></trkpt><trkpt lat="45.73932141871303" lon="10.439516114017717"><ele>382.0</ele><time>2026-04-06T10:02:21.063Z</time></trkpt><trkpt lat="45.739347156713535" lon="10.439671073317227"><ele>379.75</ele><time>2026-04-06T10:02:22.063Z</time></trkpt><trkpt lat="45.73937615697244" lon="10.439846679726275"><ele>377.5</ele><time>2026-04-06T10:02:23.063Z</time></trkpt><trkpt lat="45.73940535536864" lon="10.440023486003485"><ele>375.25</ele><time>2026-04-06T10:02:24.063Z</time></trkpt><trkpt lat="45.73942731036167" lon="10.440156925010545"><ele>373.0</ele><time>2026-04-06T10:02:25.063Z</time></trkpt><trkpt lat="45.73945240905804" lon="10.440314741346754"><ele>381.3333333333333</ele><time>2026-04-06T10:02:26.063Z</time></trkpt><trkpt lat="45.73948270927478" lon="10.440512876074223"><ele>389.66666666666663</ele><time>2026-04-06T10:02:27.063Z</time></trkpt><trkpt lat="45.739511327953196" lon="10.440734297539558"><ele>398.0</ele><time>2026-04-06T10:02:28.063Z</time></trkpt><trkpt lat="45.73954405642118" lon="10.440980680388533"><ele>398.0</ele><time>2026-04-06T10:02:29.063Z</time></trkpt><trkpt lat="45.73958095883342" lon="10.44124442108582"><ele>398.0</ele><time>2026-04-06T10:02:30.063Z</time></trkpt><trkpt lat="45.73961172364101" lon="10.441466821589316"><ele>398.0</ele><time>2026-04-06T10:02:31.063Z</time></trkpt><trkpt lat="45.739639125298325" lon="10.441668185569418"><ele>395.5</ele><time>2026-04-06T10:02:32.063Z</time></trkpt><trkpt lat="45.739671957674574" lon="10.441909457653484"><ele>393.0</ele><time>2026-04-06T10:02:33.063Z</time></trkpt><trkpt lat="45.73965913589013" lon="10.441774107331607"><ele>390.5</ele><time>2026-04-06T10:02:34.063Z</time></trkpt><trkpt lat="45.739682342660785" lon="10.441962856008344"><ele>388.0</ele><time>2026-04-06T10:02:35.063Z</time></trkpt><trkpt lat="45.73970288407975" lon="10.442152802201836"><ele>385.75</ele><time>2026-04-06T10:02:36.063Z</time></trkpt><trkpt lat="45.73970744941767" lon="10.442341005978674"><ele>383.5</ele><time>2026-04-06T10:02:37.063Z</time></trkpt><trkpt lat="45.73973073691243" lon="10.44252126682504"><ele>381.25</ele><time>2026-04-06T10:02:38.063Z</time></trkpt><trkpt lat="45.73975868081968" lon="10.442678740156296"><ele>379.0</ele><time>2026-04-06T10:02:39.063Z</time></trkpt><trkpt lat="45.73978460897611" lon="10.442854993498278"><ele>376.0</ele><time>2026-04-06T10:02:40.063Z</time></trkpt><trkpt lat="45.7398013987902" lon="10.44301756540767"><ele>373.0</ele><time>2026-04-06T10:02:41.063Z</time></trkpt><trkpt lat="45.739831308762135" lon="10.44316628657586"><ele>370.0</ele><time>2026-04-06T10:02:42.063Z</time></trkpt><trkpt lat="45.7398587631259" lon="10.44330875576322"><ele>367.0</ele><time>2026-04-06T10:02:43.063Z</time></trkpt><trkpt lat="45.739883578770275" lon="10.443463947931718"><ele>364.0</ele><time>2026-04-06T10:02:44.063Z</time></trkpt><trkpt lat="45.739911051745786" lon="10.443626858033722"><ele>364.0</ele><time>2026-04-06T10:02:45.063Z</time></trkpt><trkpt lat="45.73993358735943" lon="10.443777940061475"><ele>364.0</ele><time>2026-04-06T10:02:46.063Z</time></trkpt><trkpt lat="45.739948421426114" lon="10.443914219714566"><ele>364.0</ele><time>2026-04-06T10:02:47.063Z</time></trkpt><trkpt lat="45.73996886511558" lon="10.44405183413264"><ele>364.0</ele><time>2026-04-06T10:02:48.063Z</time></trkpt><trkpt lat="45.73997924226421" lon="10.444160448242256"><ele>364.0</ele><time>2026-04-06T10:02:49.063Z</time></trkpt><trkpt lat="45.73999911552952" lon="10.44426982241792"><ele>362.8333333333333</ele><time>2026-04-06T10:02:50.063Z</time></trkpt><trkpt lat="45.74000804755496" lon="10.444370089811464"><ele>361.66666666666663</ele><time>2026-04-06T10:02:51.063Z</time></trkpt><trkpt lat="45.74001187716009" lon="10.444460890045006"><ele>360.5</ele><time>2026-04-06T10:02:52.063Z</time></trkpt><trkpt lat="45.73998622403165" lon="10.44454694239182"><ele>359.3333333333333</ele><time>2026-04-06T10:02:53.063Z</time></trkpt><trkpt lat="45.73993775822036" lon="10.444622248999794"><ele>358.1666666666667</ele><time>2026-04-06T10:02:54.063Z</time></trkpt><trkpt lat="45.739868252645664" lon="10.444639709541308"><ele>357.0</ele><time>2026-04-06T10:02:55.063Z</time></trkpt><trkpt lat="45.739751523258846" lon="10.44468692381176"><ele>356.6</ele><time>2026-04-06T10:02:56.063Z</time></trkpt><trkpt lat="45.739662827088644" lon="10.444704668045013"><ele>356.20000000000005</ele><time>2026-04-06T10:02:57.063Z</time></trkpt><trkpt lat="45.73955181183498" lon="10.444716009009829"><ele>355.8</ele><time>2026-04-06T10:02:58.063Z</time></trkpt><trkpt lat="45.7394424585418" lon="10.444743847656383"><ele>355.4</ele><time>2026-04-06T10:02:59.063Z</time></trkpt><trkpt lat="45.73935281516173" lon="10.444776016499286"><ele>355.0</ele><time>2026-04-06T10:03:00.063Z</time></trkpt><trkpt lat="45.73927468307524" lon="10.444806025138947"><ele>355.0</ele><time>2026-04-06T10:03:01.063Z</time></trkpt><trkpt lat="45.73918902102971" lon="10.444865651070224"><ele>355.0</ele><time>2026-04-06T10:03:02.063Z</time></trkpt><trkpt lat="45.73912883105428" lon="10.444959192452124"><ele>355.0</ele><time>2026-04-06T10:03:03.063Z</time></trkpt><trkpt lat="45.73905978451702" lon="10.445059210773517"><ele>355.0</ele><time>2026-04-06T10:03:04.063Z</time></trkpt><trkpt lat="45.73897146304357" lon="10.445152440731933"><ele>355.0</ele><time>2026-04-06T10:03:05.063Z</time></trkpt><trkpt lat="45.73885652528946" lon="10.44527782432744"><ele>355.0</ele><time>2026-04-06T10:03:06.063Z</time></trkpt><trkpt lat="45.738724099419464" lon="10.445447666948688"><ele>355.0</ele><time>2026-04-06T10:03:07.063Z</time></trkpt><trkpt lat="45.738562603903624" lon="10.445616446862354"><ele>355.0</ele><time>2026-04-06T10:03:08.063Z</time></trkpt><trkpt lat="45.738372024264116" lon="10.445818916645472"><ele>353.0</ele><time>2026-04-06T10:03:09.063Z</time></trkpt><trkpt lat="45.73816015672158" lon="10.446012772768068"><ele>351.0</ele><time>2026-04-06T10:03:10.063Z</time></trkpt><trkpt lat="45.737967260125274" lon="10.446200226651333"><ele>351.6666666666667</ele><time>2026-04-06T10:03:11.063Z</time></trkpt><trkpt lat="45.73779555952195" lon="10.446370413721299"><ele>352.33333333333337</ele><time>2026-04-06T10:03:12.063Z</time></trkpt><trkpt lat="45.73764164349073" lon="10.446527155081423"><ele>353.0</ele><time>2026-04-06T10:03:13.063Z</time></trkpt><trkpt lat="45.73749189427394" lon="10.446679069580956"><ele>353.0</ele><time>2026-04-06T10:03:14.063Z</time></trkpt><trkpt lat="45.73735148754765" lon="10.446809721192674"><ele>353.0</ele><time>2026-04-06T10:03:15.063Z</time></trkpt><trkpt lat="45.73721227878123" lon="10.446923953104502"><ele>353.0</ele><time>2026-04-06T10:03:16.063Z</time></trkpt><trkpt lat="45.73706707236769" lon="10.447034523196878"><ele>356.0</ele><time>2026-04-06T10:03:17.063Z</time></trkpt><trkpt lat="45.736913718494876" lon="10.447129867186188"><ele>359.0</ele><time>2026-04-06T10:03:18.063Z</time></trkpt><trkpt lat="45.736738504442535" lon="10.447218392012257"><ele>362.0</ele><time>2026-04-06T10:03:19.063Z</time></trkpt><trkpt lat="45.73655827955603" lon="10.447327025826631"><ele>362.0</ele><time>2026-04-06T10:03:20.063Z</time></trkpt><trkpt lat="45.736394677203464" lon="10.447427065887771"><ele>362.0</ele><time>2026-04-06T10:03:21.063Z</time></trkpt><trkpt lat="45.73624956663658" lon="10.447510726301909"><ele>362.0</ele><time>2026-04-06T10:03:22.063Z</time></trkpt><trkpt lat="45.73610995247468" lon="10.447592503855972"><ele>365.0</ele><time>2026-04-06T10:03:23.063Z</time></trkpt><trkpt lat="45.73596391160305" lon="10.44771457437949"><ele>368.0</ele><time>2026-04-06T10:03:24.063Z</time></trkpt><trkpt lat="45.735836982960116" lon="10.447886661542489"><ele>371.0</ele><time>2026-04-06T10:03:25.063Z</time></trkpt><trkpt lat="45.73572336064471" lon="10.44806181426456"><ele>371.0</ele><time>2026-04-06T10:03:26.063Z</time></trkpt><trkpt lat="45.73561640421399" lon="10.448197500736478"><ele>371.0</ele><time>2026-04-06T10:03:27.063Z</time></trkpt><trkpt lat="45.735509225680964" lon="10.448316264133329"><ele>371.0</ele><time>2026-04-06T10:03:28.063Z</time></trkpt><trkpt lat="45.73541272808133" lon="10.448465568049947"><ele>371.0</ele><time>2026-04-06T10:03:29.063Z</time></trkpt><trkpt lat="45.73535972907972" lon="10.448630900965808"><ele>371.0</ele><time>2026-04-06T10:03:30.063Z</time></trkpt><trkpt lat="45.73531020208538" lon="10.448788143008489"><ele>371.0</ele><time>2026-04-06T10:03:31.063Z</time></trkpt><trkpt lat="45.735233611340355" lon="10.448928807977003"><ele>371.0</ele><time>2026-04-06T10:03:32.063Z</time></trkpt><trkpt lat="45.73515434425369" lon="10.449034801561819"><ele>371.0</ele><time>2026-04-06T10:03:33.063Z</time></trkpt><trkpt lat="45.735090790968506" lon="10.449185138582926"><ele>370.6666666666667</ele><time>2026-04-06T10:03:34.063Z</time></trkpt><trkpt lat="45.735037854041984" lon="10.449373033286484"><ele>370.3333333333333</ele><time>2026-04-06T10:03:35.063Z</time></trkpt><trkpt lat="45.734968733091534" lon="10.44961162198893"><ele>370.0</ele><time>2026-04-06T10:03:36.063Z</time></trkpt><trkpt lat="45.734955580350686" lon="10.449828402820739"><ele>370.0</ele><time>2026-04-06T10:03:37.063Z</time></trkpt><trkpt lat="45.735024735395186" lon="10.44992056082344"><ele>370.0</ele><time>2026-04-06T10:03:39.063Z</time></trkpt><trkpt lat="45.735028422943486" lon="10.450044200102218"><ele>370.0</ele><time>2026-04-06T10:03:41.063Z</time></trkpt><trkpt lat="45.73506965211866" lon="10.450377988631741"><ele>370.0</ele><time>2026-04-06T10:03:42.063Z</time></trkpt><trkpt lat="45.73516179497324" lon="10.450582364815117"><ele>372.0</ele><time>2026-04-06T10:03:43.063Z</time></trkpt><trkpt lat="45.73521668600661" lon="10.450736511683301"><ele>374.0</ele><time>2026-04-06T10:03:44.063Z</time></trkpt><trkpt lat="45.73525368810891" lon="10.450880867479853"><ele>376.0</ele><time>2026-04-06T10:03:45.063Z</time></trkpt><trkpt lat="45.735290030466146" lon="10.451031427415721"><ele>378.0</ele><time>2026-04-06T10:03:46.063Z</time></trkpt><trkpt lat="45.735294423192286" lon="10.451211327366707"><ele>377.79999999999995</ele><time>2026-04-06T10:03:47.063Z</time></trkpt><trkpt lat="45.735278660880574" lon="10.45133979627644"><ele>377.6</ele><time>2026-04-06T10:03:48.063Z</time></trkpt><trkpt lat="45.73525509489194" lon="10.451475687541215"><ele>377.4</ele><time>2026-04-06T10:03:49.063Z</time></trkpt><trkpt lat="45.735208444462785" lon="10.451611359860081"><ele>377.20000000000005</ele><time>2026-04-06T10:03:50.063Z</time></trkpt><trkpt lat="45.73517318274314" lon="10.451747163047683"><ele>377.0</ele><time>2026-04-06T10:03:51.063Z</time></trkpt><trkpt lat="45.735125653331195" lon="10.451872983222689"><ele>377.0</ele><time>2026-04-06T10:03:52.063Z</time></trkpt><trkpt lat="45.735084018798965" lon="10.451994794790574"><ele>377.0</ele><time>2026-04-06T10:03:53.063Z</time></trkpt><trkpt lat="45.735033288129976" lon="10.452119830290398"><ele>377.0</ele><time>2026-04-06T10:03:54.063Z</time></trkpt><trkpt lat="45.734983937675054" lon="10.452223247760546"><ele>377.0</ele><time>2026-04-06T10:03:55.063Z</time></trkpt><trkpt lat="45.73493765105316" lon="10.452342029719413"><ele>377.0</ele><time>2026-04-06T10:03:56.063Z</time></trkpt><trkpt lat="45.734879968196964" lon="10.452463453635833"><ele>379.25</ele><time>2026-04-06T10:03:57.063Z</time></trkpt><trkpt lat="45.73481051266361" lon="10.452593826774102"><ele>381.5</ele><time>2026-04-06T10:03:58.063Z</time></trkpt><trkpt lat="45.73474474121898" lon="10.452719261641157"><ele>383.75</ele><time>2026-04-06T10:03:59.063Z</time></trkpt><trkpt lat="45.734653542900915" lon="10.452849631085371"><ele>386.0</ele><time>2026-04-06T10:04:00.063Z</time></trkpt><trkpt lat="45.73453881579885" lon="10.452970195025728"><ele>385.5</ele><time>2026-04-06T10:04:01.063Z</time></trkpt><trkpt lat="45.73442031953442" lon="10.453062440395223"><ele>385.0</ele><time>2026-04-06T10:04:02.063Z</time></trkpt><trkpt lat="45.73432001826477" lon="10.453131680878093"><ele>384.5</ele><time>2026-04-06T10:04:03.063Z</time></trkpt><trkpt lat="45.734217395567185" lon="10.453221166180354"><ele>384.0</ele><time>2026-04-06T10:04:04.063Z</time></trkpt><trkpt lat="45.734140139683184" lon="10.453323140474154"><ele>384.0</ele><time>2026-04-06T10:04:05.063Z</time></trkpt><trkpt lat="45.73407796149146" lon="10.453477073577591"><ele>384.0</ele><time>2026-04-06T10:04:06.063Z</time></trkpt><trkpt lat="45.73402722691165" lon="10.45368953298808"><ele>384.0</ele><time>2026-04-06T10:04:07.063Z</time></trkpt><trkpt lat="45.7339761129362" lon="10.453873746233228"><ele>384.0</ele><time>2026-04-06T10:04:08.063Z</time></trkpt><trkpt lat="45.7339205419648" lon="10.454025279394832"><ele>384.5</ele><time>2026-04-06T10:04:09.063Z</time></trkpt><trkpt lat="45.733862001845154" lon="10.454151583339966"><ele>385.0</ele><time>2026-04-06T10:04:10.063Z</time></trkpt><trkpt lat="45.733820334235375" lon="10.454263922244916"><ele>385.5</ele><time>2026-04-06T10:04:11.063Z</time></trkpt><trkpt lat="45.73379038391497" lon="10.45434352957248"><ele>386.0</ele><time>2026-04-06T10:04:12.063Z</time></trkpt><trkpt lat="45.73372654595046" lon="10.454424867075257"><ele>386.5</ele><time>2026-04-06T10:04:14.063Z</time></trkpt><trkpt lat="45.73365449395449" lon="10.454515240727007"><ele>387.0</ele><time>2026-04-06T10:04:16.063Z</time></trkpt><trkpt lat="45.73356270507939" lon="10.454629686038013"><ele>387.0</ele><time>2026-04-06T10:04:18.063Z</time></trkpt><trkpt lat="45.733532082848036" lon="10.4547345434116"><ele>387.0</ele><time>2026-04-06T10:04:19.063Z</time></trkpt><trkpt lat="45.73349765858955" lon="10.454837581678717"><ele>387.0</ele><time>2026-04-06T10:04:20.063Z</time></trkpt><trkpt lat="45.73347544414249" lon="10.454942135527634"><ele>387.0</ele><time>2026-04-06T10:04:21.063Z</time></trkpt><trkpt lat="45.733490060673894" lon="10.455056024455578"><ele>387.0</ele><time>2026-04-06T10:04:22.063Z</time></trkpt><trkpt lat="45.73351532731651" lon="10.455165067277271"><ele>387.0</ele><time>2026-04-06T10:04:23.063Z</time></trkpt><trkpt lat="45.73356057150824" lon="10.455296489961086"><ele>387.0</ele><time>2026-04-06T10:04:24.063Z</time></trkpt><trkpt lat="45.733609845129" lon="10.455431035536582"><ele>387.0</ele><time>2026-04-06T10:04:25.063Z</time></trkpt><trkpt lat="45.73366439133361" lon="10.455590497995747"><ele>387.0</ele><time>2026-04-06T10:04:26.063Z</time></trkpt><trkpt lat="45.733724243375" lon="10.455751405492883"><ele>387.0</ele><time>2026-04-06T10:04:27.063Z</time></trkpt><trkpt lat="45.73377962717527" lon="10.455902905697167"><ele>386.0</ele><time>2026-04-06T10:04:28.063Z</time></trkpt><trkpt lat="45.73382627445665" lon="10.45603079751687"><ele>385.0</ele><time>2026-04-06T10:04:29.063Z</time></trkpt><trkpt lat="45.733871919004315" lon="10.456168278734195"><ele>384.0</ele><time>2026-04-06T10:04:30.063Z</time></trkpt><trkpt lat="45.73392512346988" lon="10.456315865977226"><ele>383.0</ele><time>2026-04-06T10:04:31.063Z</time></trkpt><trkpt lat="45.733972301648706" lon="10.456447550999512"><ele>382.0</ele><time>2026-04-06T10:04:32.063Z</time></trkpt><trkpt lat="45.73400408267367" lon="10.45656605494128"><ele>382.0</ele><time>2026-04-06T10:04:33.063Z</time></trkpt><trkpt lat="45.73403690139405" lon="10.45666627379245"><ele>382.0</ele><time>2026-04-06T10:04:34.063Z</time></trkpt><trkpt lat="45.73406447189213" lon="10.45675369401739"><ele>382.0</ele><time>2026-04-06T10:04:35.063Z</time></trkpt><trkpt lat="45.73411899370454" lon="10.456913769570136"><ele>382.0</ele><time>2026-04-06T10:04:37.063Z</time></trkpt><trkpt lat="45.73414949440743" lon="10.457000525846253"><ele>382.0</ele><time>2026-04-06T10:04:38.063Z</time></trkpt><trkpt lat="45.73419844454415" lon="10.457138915571548"><ele>382.0</ele><time>2026-04-06T10:04:40.063Z</time></trkpt><trkpt lat="45.734250184160096" lon="10.457280494174608"><ele>382.0</ele><time>2026-04-06T10:04:42.063Z</time></trkpt><trkpt lat="45.73430158204531" lon="10.457439571117488"><ele>382.0</ele><time>2026-04-06T10:04:44.063Z</time></trkpt><trkpt lat="45.73435496173694" lon="10.457597519675863"><ele>382.0</ele><time>2026-04-06T10:04:46.063Z</time></trkpt><trkpt lat="45.734399544154975" lon="10.45773654098043"><ele>382.0</ele><time>2026-04-06T10:04:48.063Z</time></trkpt><trkpt lat="45.73443635063227" lon="10.457863879155362"><ele>382.0</ele><time>2026-04-06T10:04:50.063Z</time></trkpt><trkpt lat="45.73447912895252" lon="10.457968643924552"><ele>381.0</ele><time>2026-04-06T10:04:52.063Z</time></trkpt><trkpt lat="45.73451590180911" lon="10.45806907555881"><ele>380.0</ele><time>2026-04-06T10:04:54.063Z</time></trkpt><trkpt lat="45.734566144343525" lon="10.458198272130824"><ele>379.0</ele><time>2026-04-06T10:04:57.063Z</time></trkpt><trkpt lat="45.73463377209052" lon="10.458347395985452"><ele>378.0</ele><time>2026-04-06T10:04:59.063Z</time></trkpt><trkpt lat="45.73466981897813" lon="10.458426145200118"><ele>377.0</ele><time>2026-04-06T10:05:00.063Z</time></trkpt><trkpt lat="45.7347521199629" lon="10.458585498302503"><ele>377.0</ele><time>2026-04-06T10:05:02.063Z</time></trkpt><trkpt lat="45.734808693015275" lon="10.458684589269893"><ele>377.0</ele><time>2026-04-06T10:05:03.063Z</time></trkpt><trkpt lat="45.73486286772317" lon="10.45877593642634"><ele>377.0</ele><time>2026-04-06T10:05:04.063Z</time></trkpt><trkpt lat="45.734913985404255" lon="10.458859510804395"><ele>377.0</ele><time>2026-04-06T10:05:05.063Z</time></trkpt><trkpt lat="45.734963197724376" lon="10.458952363627969"><ele>377.0</ele><time>2026-04-06T10:05:06.063Z</time></trkpt><trkpt lat="45.735028315355585" lon="10.45905060337133"><ele>377.0</ele><time>2026-04-06T10:05:07.063Z</time></trkpt><trkpt lat="45.73509334904182" lon="10.459179094054026"><ele>376.75</ele><time>2026-04-06T10:05:08.063Z</time></trkpt><trkpt lat="45.735172043506225" lon="10.459311188853565"><ele>376.5</ele><time>2026-04-06T10:05:09.063Z</time></trkpt><trkpt lat="45.735266819155804" lon="10.45944855615094"><ele>376.25</ele><time>2026-04-06T10:05:10.063Z</time></trkpt><trkpt lat="45.73535077854512" lon="10.459579666244734"><ele>376.0</ele><time>2026-04-06T10:05:11.063Z</time></trkpt><trkpt lat="45.73542707969411" lon="10.459717504908165"><ele>376.0</ele><time>2026-04-06T10:05:12.063Z</time></trkpt><trkpt lat="45.73551101879003" lon="10.459856840910595"><ele>376.0</ele><time>2026-04-06T10:05:13.063Z</time></trkpt><trkpt lat="45.73559982109167" lon="10.460041828450835"><ele>376.0</ele><time>2026-04-06T10:05:14.063Z</time></trkpt><trkpt lat="45.73566351546251" lon="10.460280400359661"><ele>375.3333333333333</ele><time>2026-04-06T10:05:15.063Z</time></trkpt><trkpt lat="45.73572541638201" lon="10.460537016818236"><ele>374.6666666666667</ele><time>2026-04-06T10:05:16.063Z</time></trkpt><trkpt lat="45.7357969227587" lon="10.46074659349585"><ele>374.0</ele><time>2026-04-06T10:05:17.063Z</time></trkpt><trkpt lat="45.735883865864544" lon="10.460946356076386"><ele>374.0</ele><time>2026-04-06T10:05:18.063Z</time></trkpt><trkpt lat="45.735988130596986" lon="10.461138224753542"><ele>374.0</ele><time>2026-04-06T10:05:19.063Z</time></trkpt><trkpt lat="45.73609457967565" lon="10.461308710844781"><ele>374.0</ele><time>2026-04-06T10:05:20.063Z</time></trkpt><trkpt lat="45.73618927827613" lon="10.461473428770335"><ele>374.5</ele><time>2026-04-06T10:05:21.063Z</time></trkpt><trkpt lat="45.736277035553805" lon="10.461613405466199"><ele>375.0</ele><time>2026-04-06T10:05:22.063Z</time></trkpt><trkpt lat="45.7363572436396" lon="10.461732533042797"><ele>375.5</ele><time>2026-04-06T10:05:23.063Z</time></trkpt><trkpt lat="45.7364419697762" lon="10.461817814779803"><ele>376.0</ele><time>2026-04-06T10:05:24.063Z</time></trkpt><trkpt lat="45.736535743956296" lon="10.461888900297117"><ele>376.0</ele><time>2026-04-06T10:05:25.063Z</time></trkpt><trkpt lat="45.736631250913916" lon="10.461938298292399"><ele>376.0</ele><time>2026-04-06T10:05:26.063Z</time></trkpt><trkpt lat="45.73672868103236" lon="10.461963625586588"><ele>376.0</ele><time>2026-04-06T10:05:27.063Z</time></trkpt><trkpt lat="45.73682489555624" lon="10.461964302631026"><ele>376.0</ele><time>2026-04-06T10:05:28.063Z</time></trkpt><trkpt lat="45.736914838747275" lon="10.461949260101592"><ele>376.0</ele><time>2026-04-06T10:05:29.063Z</time></trkpt><trkpt lat="45.73700871990367" lon="10.46192395684301"><ele>376.8333333333333</ele><time>2026-04-06T10:05:30.063Z</time></trkpt><trkpt lat="45.73709904508665" lon="10.461909517499228"><ele>377.66666666666663</ele><time>2026-04-06T10:05:31.063Z</time></trkpt><trkpt lat="45.737185743948245" lon="10.461859383402393"><ele>378.5</ele><time>2026-04-06T10:05:32.063Z</time></trkpt><trkpt lat="45.737249403670454" lon="10.46185631822371"><ele>379.3333333333333</ele><time>2026-04-06T10:05:33.063Z</time></trkpt><trkpt lat="45.73731782831863" lon="10.461858051080627"><ele>380.1666666666667</ele><time>2026-04-06T10:05:34.063Z</time></trkpt><trkpt lat="45.737400348069905" lon="10.461878303094636"><ele>381.0</ele><time>2026-04-06T10:05:35.063Z</time></trkpt><trkpt lat="45.73748482572826" lon="10.461925786121217"><ele>381.0</ele><time>2026-04-06T10:05:36.063Z</time></trkpt><trkpt lat="45.7375889514279" lon="10.461967724479079"><ele>381.0</ele><time>2026-04-06T10:05:37.063Z</time></trkpt><trkpt lat="45.73770916192133" lon="10.46202523277444"><ele>381.0</ele><time>2026-04-06T10:05:38.063Z</time></trkpt><trkpt lat="45.737841907172914" lon="10.462090365310575"><ele>381.0</ele><time>2026-04-06T10:05:39.063Z</time></trkpt><trkpt lat="45.737962764235036" lon="10.462147075289774"><ele>380.6</ele><time>2026-04-06T10:05:40.063Z</time></trkpt><trkpt lat="45.73804952650956" lon="10.462187543309454"><ele>380.20000000000005</ele><time>2026-04-06T10:05:41.063Z</time></trkpt><trkpt lat="45.73817250281153" lon="10.462247809122086"><ele>379.79999999999995</ele><time>2026-04-06T10:05:42.063Z</time></trkpt><trkpt lat="45.7382753208333" lon="10.462286882290597"><ele>379.4</ele><time>2026-04-06T10:05:43.063Z</time></trkpt><trkpt lat="45.73837554448779" lon="10.462359711078872"><ele>379.0</ele><time>2026-04-06T10:05:44.063Z</time></trkpt><trkpt lat="45.73848881390329" lon="10.462459028556093"><ele>380.25</ele><time>2026-04-06T10:05:45.063Z</time></trkpt><trkpt lat="45.73860532575056" lon="10.462585034507537"><ele>381.5</ele><time>2026-04-06T10:05:46.063Z</time></trkpt><trkpt lat="45.73869743173762" lon="10.462716597875117"><ele>382.75</ele><time>2026-04-06T10:05:47.063Z</time></trkpt><trkpt lat="45.73877976293697" lon="10.462847133669813"><ele>384.0</ele><time>2026-04-06T10:05:48.063Z</time></trkpt><trkpt lat="45.738849367119" lon="10.462979483716861"><ele>384.0</ele><time>2026-04-06T10:05:49.063Z</time></trkpt><trkpt lat="45.73893853852179" lon="10.463125839618892"><ele>384.0</ele><time>2026-04-06T10:05:50.063Z</time></trkpt><trkpt lat="45.7390260526263" lon="10.463293204795804"><ele>384.0</ele><time>2026-04-06T10:05:51.063Z</time></trkpt><trkpt lat="45.739094969106155" lon="10.463409006419516"><ele>384.0</ele><time>2026-04-06T10:05:52.063Z</time></trkpt><trkpt lat="45.73916224756448" lon="10.463555504932623"><ele>384.0</ele><time>2026-04-06T10:05:53.063Z</time></trkpt><trkpt lat="45.739207982391754" lon="10.463699475009623"><ele>384.0</ele><time>2026-04-06T10:05:54.063Z</time></trkpt><trkpt lat="45.73925338594234" lon="10.463848166636238"><ele>384.0</ele><time>2026-04-06T10:05:55.063Z</time></trkpt><trkpt lat="45.73929607998583" lon="10.464015232624027"><ele>384.0</ele><time>2026-04-06T10:05:56.063Z</time></trkpt><trkpt lat="45.73933075552326" lon="10.464173453397962"><ele>384.79999999999995</ele><time>2026-04-06T10:05:57.063Z</time></trkpt><trkpt lat="45.73936091528408" lon="10.464326195263281"><ele>385.59999999999997</ele><time>2026-04-06T10:05:58.063Z</time></trkpt><trkpt lat="45.73938701739734" lon="10.46446532762052"><ele>386.4</ele><time>2026-04-06T10:05:59.063Z</time></trkpt><trkpt lat="45.739428904386614" lon="10.464597380026163"><ele>387.2</ele><time>2026-04-06T10:06:00.063Z</time></trkpt><trkpt lat="45.73949198764318" lon="10.464731522554139"><ele>388.0</ele><time>2026-04-06T10:06:01.063Z</time></trkpt><trkpt lat="45.73955869624542" lon="10.464856074186887"><ele>388.0</ele><time>2026-04-06T10:06:02.063Z</time></trkpt><trkpt lat="45.73963807122844" lon="10.464971930395713"><ele>388.0</ele><time>2026-04-06T10:06:03.063Z</time></trkpt><trkpt lat="45.73972388587582" lon="10.465075485335522"><ele>388.0</ele><time>2026-04-06T10:06:04.063Z</time></trkpt><trkpt lat="45.7398027203215" lon="10.465178442931325"><ele>388.0</ele><time>2026-04-06T10:06:05.063Z</time></trkpt><trkpt lat="45.73987598252952" lon="10.465288375049084"><ele>388.0</ele><time>2026-04-06T10:06:06.063Z</time></trkpt><trkpt lat="45.739950341055355" lon="10.465419740143545"><ele>390.2</ele><time>2026-04-06T10:06:07.063Z</time></trkpt><trkpt lat="45.74001156216834" lon="10.46556511345087"><ele>392.4</ele><time>2026-04-06T10:06:08.063Z</time></trkpt><trkpt lat="45.740067432104716" lon="10.465701191858688"><ele>394.59999999999997</ele><time>2026-04-06T10:06:09.063Z</time></trkpt><trkpt lat="45.740121866387774" lon="10.465830502578216"><ele>396.79999999999995</ele><time>2026-04-06T10:06:10.063Z</time></trkpt><trkpt lat="45.74016566968965" lon="10.46596340589221"><ele>399.0</ele><time>2026-04-06T10:06:11.063Z</time></trkpt><trkpt lat="45.74022778457678" lon="10.4661194843052"><ele>396.0</ele><time>2026-04-06T10:06:12.063Z</time></trkpt><trkpt lat="45.74030529776779" lon="10.466292777654008"><ele>393.0</ele><time>2026-04-06T10:06:13.063Z</time></trkpt><trkpt lat="45.74036597431353" lon="10.466501257172037"><ele>390.0</ele><time>2026-04-06T10:06:14.063Z</time></trkpt><trkpt lat="45.740410940125585" lon="10.466742103041785"><ele>390.0</ele><time>2026-04-06T10:06:15.063Z</time></trkpt><trkpt lat="45.74045606890298" lon="10.46699213506626"><ele>390.0</ele><time>2026-04-06T10:06:16.063Z</time></trkpt><trkpt lat="45.74047919429614" lon="10.467234718818352"><ele>390.0</ele><time>2026-04-06T10:06:17.063Z</time></trkpt><trkpt lat="45.74051032870836" lon="10.467464973634232"><ele>388.75</ele><time>2026-04-06T10:06:18.063Z</time></trkpt><trkpt lat="45.74053371613188" lon="10.46768279261314"><ele>387.5</ele><time>2026-04-06T10:06:19.063Z</time></trkpt><trkpt lat="45.74055301366923" lon="10.467894564153307"><ele>386.25</ele><time>2026-04-06T10:06:20.063Z</time></trkpt><trkpt lat="45.74058001731195" lon="10.468100544551564"><ele>385.0</ele><time>2026-04-06T10:06:21.063Z</time></trkpt><trkpt lat="45.7406223972738" lon="10.468316627468417"><ele>383.6666666666667</ele><time>2026-04-06T10:06:22.063Z</time></trkpt><trkpt lat="45.74069614076312" lon="10.468521131540458"><ele>382.33333333333337</ele><time>2026-04-06T10:06:23.063Z</time></trkpt><trkpt lat="45.74079456356723" lon="10.468714238769106"><ele>381.0</ele><time>2026-04-06T10:06:24.063Z</time></trkpt><trkpt lat="45.74091850309304" lon="10.46889368414939"><ele>382.66666666666663</ele><time>2026-04-06T10:06:25.063Z</time></trkpt><trkpt lat="45.741043238344396" lon="10.469067817520337"><ele>384.3333333333333</ele><time>2026-04-06T10:06:26.063Z</time></trkpt><trkpt lat="45.741184283629266" lon="10.469197411500929"><ele>386.0</ele><time>2026-04-06T10:06:27.063Z</time></trkpt><trkpt lat="45.74131660566085" lon="10.469286098255967"><ele>386.0</ele><time>2026-04-06T10:06:28.063Z</time></trkpt><trkpt lat="45.74144672255992" lon="10.469363761857457"><ele>386.0</ele><time>2026-04-06T10:06:29.063Z</time></trkpt><trkpt lat="45.74156099407836" lon="10.469442484401442"><ele>386.0</ele><time>2026-04-06T10:06:30.063Z</time></trkpt><trkpt lat="45.741670747750796" lon="10.469508994462672"><ele>386.0</ele><time>2026-04-06T10:06:31.063Z</time></trkpt><trkpt lat="45.74178025012753" lon="10.469587292890381"><ele>387.66666666666663</ele><time>2026-04-06T10:06:32.063Z</time></trkpt><trkpt lat="45.74190959627966" lon="10.46967060176731"><ele>389.33333333333337</ele><time>2026-04-06T10:06:33.063Z</time></trkpt><trkpt lat="45.74205720963724" lon="10.469762279004367"><ele>391.0</ele><time>2026-04-06T10:06:34.063Z</time></trkpt><trkpt lat="45.742201155089994" lon="10.469926861352727"><ele>391.0</ele><time>2026-04-06T10:06:35.063Z</time></trkpt><trkpt lat="45.742360214506235" lon="10.47012271659803"><ele>391.0</ele><time>2026-04-06T10:06:36.063Z</time></trkpt><trkpt lat="45.74249830378217" lon="10.470338637445224"><ele>391.0</ele><time>2026-04-06T10:06:37.063Z</time></trkpt><trkpt lat="45.74261128960826" lon="10.470536291491541"><ele>395.33333333333337</ele><time>2026-04-06T10:06:38.063Z</time></trkpt><trkpt lat="45.7427165643925" lon="10.470706358378694"><ele>399.66666666666663</ele><time>2026-04-06T10:06:39.063Z</time></trkpt><trkpt lat="45.74279298547873" lon="10.470889847041501"><ele>404.0</ele><time>2026-04-06T10:06:40.063Z</time></trkpt><trkpt lat="45.74289526555758" lon="10.47104042429077"><ele>404.0</ele><time>2026-04-06T10:06:41.063Z</time></trkpt><trkpt lat="45.7430050205769" lon="10.471200320523927"><ele>404.0</ele><time>2026-04-06T10:06:42.063Z</time></trkpt><trkpt lat="45.74316314964075" lon="10.471341349961165"><ele>404.0</ele><time>2026-04-06T10:06:43.063Z</time></trkpt><trkpt lat="45.74331449059641" lon="10.47146963913296"><ele>404.66666666666663</ele><time>2026-04-06T10:06:44.063Z</time></trkpt><trkpt lat="45.74344130660829" lon="10.47161945100191"><ele>405.33333333333337</ele><time>2026-04-06T10:06:45.063Z</time></trkpt><trkpt lat="45.74357800985189" lon="10.471737753922747"><ele>406.0</ele><time>2026-04-06T10:06:46.063Z</time></trkpt><trkpt lat="45.74370398705288" lon="10.471885441840747"><ele>406.0</ele><time>2026-04-06T10:06:47.063Z</time></trkpt><trkpt lat="45.743840834937785" lon="10.472016897855482"><ele>406.0</ele><time>2026-04-06T10:06:48.063Z</time></trkpt><trkpt lat="45.74397154578586" lon="10.472172121450516"><ele>406.0</ele><time>2026-04-06T10:06:49.063Z</time></trkpt><trkpt lat="45.74410909339758" lon="10.47230754022233"><ele>404.33333333333337</ele><time>2026-04-06T10:06:50.063Z</time></trkpt><trkpt lat="45.74424486906895" lon="10.472437385498"><ele>402.66666666666663</ele><time>2026-04-06T10:06:51.063Z</time></trkpt><trkpt lat="45.744372977055946" lon="10.472572872867596"><ele>401.0</ele><time>2026-04-06T10:06:52.063Z</time></trkpt><trkpt lat="45.7445364516557" lon="10.472670234998956"><ele>401.0</ele><time>2026-04-06T10:06:53.063Z</time></trkpt><trkpt lat="45.74472093403872" lon="10.472765438344904"><ele>401.0</ele><time>2026-04-06T10:06:54.063Z</time></trkpt><trkpt lat="45.74488815429236" lon="10.472892713304686"><ele>401.0</ele><time>2026-04-06T10:06:55.063Z</time></trkpt><trkpt lat="45.745059299653384" lon="10.473007502579994"><ele>398.66666666666663</ele><time>2026-04-06T10:06:56.063Z</time></trkpt><trkpt lat="45.74520690478372" lon="10.473110176102681"><ele>396.33333333333337</ele><time>2026-04-06T10:06:57.063Z</time></trkpt><trkpt lat="45.74534322684587" lon="10.473205861212712"><ele>394.0</ele><time>2026-04-06T10:06:58.063Z</time></trkpt><trkpt lat="45.745475270026034" lon="10.473299467904864"><ele>394.0</ele><time>2026-04-06T10:06:59.063Z</time></trkpt><trkpt lat="45.745600822493564" lon="10.473391131934264"><ele>394.0</ele><time>2026-04-06T10:07:00.063Z</time></trkpt><trkpt lat="45.745715308788625" lon="10.473504322777808"><ele>394.0</ele><time>2026-04-06T10:07:01.063Z</time></trkpt><trkpt lat="45.74579598888954" lon="10.473645341686282"><ele>394.0</ele><time>2026-04-06T10:07:02.063Z</time></trkpt><trkpt lat="45.74587197036772" lon="10.473815141251245"><ele>398.33333333333337</ele><time>2026-04-06T10:07:03.063Z</time></trkpt><trkpt lat="45.7459592009548" lon="10.474010851584536"><ele>402.66666666666663</ele><time>2026-04-06T10:07:04.063Z</time></trkpt><trkpt lat="45.74605529909963" lon="10.474211806600897"><ele>407.0</ele><time>2026-04-06T10:07:05.063Z</time></trkpt><trkpt lat="45.74615237543943" lon="10.474406707932156"><ele>407.0</ele><time>2026-04-06T10:07:06.063Z</time></trkpt><trkpt lat="45.74622338441932" lon="10.47459749390072"><ele>407.0</ele><time>2026-04-06T10:07:07.063Z</time></trkpt><trkpt lat="45.746308299054874" lon="10.47476210210151"><ele>407.0</ele><time>2026-04-06T10:07:08.063Z</time></trkpt><trkpt lat="45.74641274245137" lon="10.474905038739985"><ele>407.0</ele><time>2026-04-06T10:07:09.063Z</time></trkpt><trkpt lat="45.74651315939888" lon="10.475026364425181"><ele>404.0</ele><time>2026-04-06T10:07:10.063Z</time></trkpt><trkpt lat="45.746622756399205" lon="10.47514563264792"><ele>401.0</ele><time>2026-04-06T10:07:11.063Z</time></trkpt><trkpt lat="45.74674047616477" lon="10.475280826073217"><ele>398.0</ele><time>2026-04-06T10:07:12.063Z</time></trkpt><trkpt lat="45.74686252786151" lon="10.475419130098985"><ele>395.0</ele><time>2026-04-06T10:07:13.063Z</time></trkpt><trkpt lat="45.74698566651538" lon="10.475563506531472"><ele>395.0</ele><time>2026-04-06T10:07:14.063Z</time></trkpt><trkpt lat="45.74711268019846" lon="10.47570416152548"><ele>395.0</ele><time>2026-04-06T10:07:15.063Z</time></trkpt><trkpt lat="45.747241492903704" lon="10.475834423822313"><ele>395.0</ele><time>2026-04-06T10:07:16.063Z</time></trkpt><trkpt lat="45.747360972277505" lon="10.475978429376097"><ele>395.0</ele><time>2026-04-06T10:07:17.063Z</time></trkpt><trkpt lat="45.74748668522806" lon="10.476119560315718"><ele>395.0</ele><time>2026-04-06T10:07:18.063Z</time></trkpt><trkpt lat="45.747614779281314" lon="10.476267839784295"><ele>395.0</ele><time>2026-04-06T10:07:19.063Z</time></trkpt><trkpt lat="45.74775022192899" lon="10.476414397593121"><ele>394.66666666666663</ele><time>2026-04-06T10:07:20.063Z</time></trkpt><trkpt lat="45.74788205414674" lon="10.476562989155813"><ele>394.33333333333337</ele><time>2026-04-06T10:07:21.063Z</time></trkpt><trkpt lat="45.74801037432575" lon="10.476698865179035"><ele>394.0</ele><time>2026-04-06T10:07:22.063Z</time></trkpt><trkpt lat="45.74812783264349" lon="10.476832787594317"><ele>394.0</ele><time>2026-04-06T10:07:23.063Z</time></trkpt><trkpt lat="45.748250912374786" lon="10.476941542666601"><ele>394.0</ele><time>2026-04-06T10:07:24.063Z</time></trkpt><trkpt lat="45.7483689546413" lon="10.4770580634379"><ele>394.0</ele><time>2026-04-06T10:07:25.063Z</time></trkpt><trkpt lat="45.74848206405698" lon="10.477161461726103"><ele>394.0</ele><time>2026-04-06T10:07:26.063Z</time></trkpt><trkpt lat="45.74858285805894" lon="10.477272830512709"><ele>394.0</ele><time>2026-04-06T10:07:27.063Z</time></trkpt><trkpt lat="45.74868329745834" lon="10.477385895560401"><ele>394.0</ele><time>2026-04-06T10:07:28.063Z</time></trkpt><trkpt lat="45.748793530263676" lon="10.477499327575169"><ele>394.0</ele><time>2026-04-06T10:07:29.063Z</time></trkpt><trkpt lat="45.74890807767007" lon="10.47762125467717"><ele>394.0</ele><time>2026-04-06T10:07:30.063Z</time></trkpt><trkpt lat="45.74901451437287" lon="10.477743065352666"><ele>394.0</ele><time>2026-04-06T10:07:31.063Z</time></trkpt><trkpt lat="45.749108712211395" lon="10.477857788869198"><ele>394.0</ele><time>2026-04-06T10:07:32.063Z</time></trkpt><trkpt lat="45.74921048573919" lon="10.477976698571814"><ele>394.0</ele><time>2026-04-06T10:07:33.063Z</time></trkpt><trkpt lat="45.74931424780557" lon="10.478108653262291"><ele>394.0</ele><time>2026-04-06T10:07:34.063Z</time></trkpt><trkpt lat="45.74941776722838" lon="10.478231073542577"><ele>394.5</ele><time>2026-04-06T10:07:35.063Z</time></trkpt><trkpt lat="45.74953358061124" lon="10.47834669751093"><ele>395.0</ele><time>2026-04-06T10:07:36.063Z</time></trkpt><trkpt lat="45.74966407895496" lon="10.478449034223837"><ele>395.5</ele><time>2026-04-06T10:07:37.063Z</time></trkpt><trkpt lat="45.74978786107059" lon="10.478553164519196"><ele>396.0</ele><time>2026-04-06T10:07:38.063Z</time></trkpt><trkpt lat="45.749910299413834" lon="10.478661495464745"><ele>396.0</ele><time>2026-04-06T10:07:39.063Z</time></trkpt><trkpt lat="45.75004569848008" lon="10.478760459753625"><ele>396.0</ele><time>2026-04-06T10:07:40.063Z</time></trkpt><trkpt lat="45.750186204181986" lon="10.478844243486154"><ele>396.0</ele><time>2026-04-06T10:07:41.063Z</time></trkpt><trkpt lat="45.750333404855745" lon="10.47891553602485"><ele>395.33333333333337</ele><time>2026-04-06T10:07:42.063Z</time></trkpt><trkpt lat="45.75048281312067" lon="10.478995467977953"><ele>394.6666666666667</ele><time>2026-04-06T10:07:43.063Z</time></trkpt><trkpt lat="45.75062124346298" lon="10.479074463743094"><ele>394.0</ele><time>2026-04-06T10:07:44.063Z</time></trkpt><trkpt lat="45.75076656410803" lon="10.479156972519199"><ele>394.0</ele><time>2026-04-06T10:07:45.063Z</time></trkpt><trkpt lat="45.75090867529605" lon="10.479238418151398"><ele>394.0</ele><time>2026-04-06T10:07:46.063Z</time></trkpt><trkpt lat="45.7510503267549" lon="10.479317344376192"><ele>394.0</ele><time>2026-04-06T10:07:47.063Z</time></trkpt><trkpt lat="45.75119706016607" lon="10.479390998181469"><ele>396.0</ele><time>2026-04-06T10:07:48.063Z</time></trkpt><trkpt lat="45.751343636829986" lon="10.479478767903153"><ele>398.0</ele><time>2026-04-06T10:07:49.063Z</time></trkpt><trkpt lat="45.75148941990049" lon="10.479545087067976"><ele>400.0</ele><time>2026-04-06T10:07:50.063Z</time></trkpt><trkpt lat="45.75162367616588" lon="10.47962462742149"><ele>397.33333333333337</ele><time>2026-04-06T10:07:51.063Z</time></trkpt><trkpt lat="45.75175176423087" lon="10.479712696794259"><ele>394.66666666666663</ele><time>2026-04-06T10:07:52.063Z</time></trkpt><trkpt lat="45.751863105780856" lon="10.479826130378568"><ele>392.0</ele><time>2026-04-06T10:07:53.063Z</time></trkpt><trkpt lat="45.75208132942434" lon="10.479859958846877"><ele>392.0</ele><time>2026-04-06T10:07:54.063Z</time></trkpt><trkpt lat="45.7522254842772" lon="10.479930413639359"><ele>392.0</ele><time>2026-04-06T10:07:55.063Z</time></trkpt><trkpt lat="45.75236204973249" lon="10.480032359491165"><ele>392.0</ele><time>2026-04-06T10:07:56.063Z</time></trkpt><trkpt lat="45.75249988751833" lon="10.480077415073247"><ele>392.0</ele><time>2026-04-06T10:07:57.063Z</time></trkpt><trkpt lat="45.752630340938026" lon="10.480147390628769"><ele>391.25</ele><time>2026-04-06T10:07:58.063Z</time></trkpt><trkpt lat="45.75276030616184" lon="10.480224804610812"><ele>390.5</ele><time>2026-04-06T10:07:59.063Z</time></trkpt><trkpt lat="45.75289066653665" lon="10.480310336631772"><ele>389.75</ele><time>2026-04-06T10:08:00.063Z</time></trkpt><trkpt lat="45.753027080336764" lon="10.480383334928618"><ele>389.0</ele><time>2026-04-06T10:08:01.063Z</time></trkpt><trkpt lat="45.7531525729955" lon="10.480449510982867"><ele>389.0</ele><time>2026-04-06T10:08:02.063Z</time></trkpt><trkpt lat="45.75326870904363" lon="10.480516573724294"><ele>389.0</ele><time>2026-04-06T10:08:03.063Z</time></trkpt><trkpt lat="45.753399225186485" lon="10.480591718998616"><ele>389.0</ele><time>2026-04-06T10:08:04.063Z</time></trkpt><trkpt lat="45.75352941932244" lon="10.480680607436808"><ele>389.0</ele><time>2026-04-06T10:08:05.063Z</time></trkpt><trkpt lat="45.753671499522106" lon="10.480768839042574"><ele>394.0</ele><time>2026-04-06T10:08:06.063Z</time></trkpt><trkpt lat="45.753828844348185" lon="10.480856873375279"><ele>399.0</ele><time>2026-04-06T10:08:07.063Z</time></trkpt><trkpt lat="45.753986062447744" lon="10.480948092043175"><ele>404.0</ele><time>2026-04-06T10:08:08.063Z</time></trkpt><trkpt lat="45.7541398803595" lon="10.48104680929775"><ele>404.0</ele><time>2026-04-06T10:08:09.063Z</time></trkpt><trkpt lat="45.75430196405681" lon="10.4811366315534"><ele>404.0</ele><time>2026-04-06T10:08:10.063Z</time></trkpt><trkpt lat="45.754459683302244" lon="10.4812244220658"><ele>404.0</ele><time>2026-04-06T10:08:11.063Z</time></trkpt><trkpt lat="45.754609920098716" lon="10.48130573810447"><ele>404.0</ele><time>2026-04-06T10:08:12.063Z</time></trkpt><trkpt lat="45.754745371704836" lon="10.481381553313975"><ele>404.0</ele><time>2026-04-06T10:08:13.063Z</time></trkpt><trkpt lat="45.7548631485204" lon="10.481483915117416"><ele>404.0</ele><time>2026-04-06T10:08:14.063Z</time></trkpt><trkpt lat="45.75495689820929" lon="10.481624944188644"><ele>404.0</ele><time>2026-04-06T10:08:15.063Z</time></trkpt><trkpt lat="45.75504333532751" lon="10.481782512372169"><ele>404.0</ele><time>2026-04-06T10:08:16.063Z</time></trkpt><trkpt lat="45.75512526452615" lon="10.481977074741001"><ele>404.0</ele><time>2026-04-06T10:08:17.063Z</time></trkpt><trkpt lat="45.755215543137446" lon="10.48216652129478"><ele>404.0</ele><time>2026-04-06T10:08:18.063Z</time></trkpt><trkpt lat="45.755300386360844" lon="10.482344562617818"><ele>410.3333333333333</ele><time>2026-04-06T10:08:19.063Z</time></trkpt><trkpt lat="45.75538683501725" lon="10.482525629887192"><ele>416.66666666666663</ele><time>2026-04-06T10:08:20.083Z</time></trkpt><trkpt lat="45.755469796688374" lon="10.482699128093671"><ele>423.0</ele><time>2026-04-06T10:08:21.077Z</time></trkpt><trkpt lat="45.75556455560143" lon="10.482895699291898"><ele>416.33333333333337</ele><time>2026-04-06T10:08:22.079Z</time></trkpt><trkpt lat="45.755656680016514" lon="10.483076690221461"><ele>409.6666666666667</ele><time>2026-04-06T10:08:23.075Z</time></trkpt><trkpt lat="45.75575241108437" lon="10.48325478272015"><ele>403.0</ele><time>2026-04-06T10:08:24.076Z</time></trkpt><trkpt lat="45.75584558202831" lon="10.483416477826568"><ele>403.0</ele><time>2026-04-06T10:08:25.079Z</time></trkpt><trkpt lat="45.755940131614885" lon="10.48357233452086"><ele>403.0</ele><time>2026-04-06T10:08:26.077Z</time></trkpt><trkpt lat="45.756221438699896" lon="10.483886125597875"><ele>403.0</ele><time>2026-04-06T10:08:52.656Z</time></trkpt><trkpt lat="45.756347867454835" lon="10.48397641964014"><ele>403.0</ele><time>2026-04-06T10:08:53.656Z</time></trkpt><trkpt lat="45.75645872093453" lon="10.484101955445668"><ele>403.0</ele><time>2026-04-06T10:08:54.656Z</time></trkpt><trkpt lat="45.75658045045758" lon="10.484202276113455"><ele>403.0</ele><time>2026-04-06T10:08:55.656Z</time></trkpt><trkpt lat="45.75670352705614" lon="10.48429889023914"><ele>403.0</ele><time>2026-04-06T10:08:56.657Z</time></trkpt><trkpt lat="45.75682778069702" lon="10.484392359055526"><ele>403.0</ele><time>2026-04-06T10:08:57.656Z</time></trkpt><trkpt lat="45.75695258728877" lon="10.484483213566097"><ele>403.0</ele><time>2026-04-06T10:08:58.656Z</time></trkpt><trkpt lat="45.757086067650654" lon="10.4845500175797"><ele>403.0</ele><time>2026-04-06T10:08:59.656Z</time></trkpt><trkpt lat="45.75720496359191" lon="10.4846585415737"><ele>402.25</ele><time>2026-04-06T10:09:00.656Z</time></trkpt><trkpt lat="45.757331304574926" lon="10.484745103912672"><ele>401.5</ele><time>2026-04-06T10:09:01.656Z</time></trkpt><trkpt lat="45.75746487683581" lon="10.484810133945984"><ele>400.75</ele><time>2026-04-06T10:09:02.656Z</time></trkpt><trkpt lat="45.75759141117505" lon="10.484896278693132"><ele>400.0</ele><time>2026-04-06T10:09:03.656Z</time></trkpt><trkpt lat="45.75771788314704" lon="10.484982380980572"><ele>401.0</ele><time>2026-04-06T10:09:04.656Z</time></trkpt><trkpt lat="45.75784530321909" lon="10.48506573898535"><ele>402.0</ele><time>2026-04-06T10:09:05.656Z</time></trkpt><trkpt lat="45.75797297264304" lon="10.485148126184672"><ele>403.0</ele><time>2026-04-06T10:09:06.656Z</time></trkpt><trkpt lat="45.76150600340537" lon="10.489068739493758"><ele>403.0</ele><time>2026-04-06T10:09:08.063Z</time></trkpt><trkpt lat="45.76157481040784" lon="10.489342937098877"><ele>403.0</ele><time>2026-04-06T10:09:09.063Z</time></trkpt><trkpt lat="45.76161110226431" lon="10.489525330631777"><ele>403.0</ele><time>2026-04-06T10:09:10.063Z</time></trkpt><trkpt lat="45.761676359616295" lon="10.489689020100633"><ele>405.25</ele><time>2026-04-06T10:09:11.063Z</time></trkpt><trkpt lat="45.76175625159486" lon="10.48986321831549"><ele>407.5</ele><time>2026-04-06T10:09:12.063Z</time></trkpt><trkpt lat="45.76184129396387" lon="10.490009706162825"><ele>409.75</ele><time>2026-04-06T10:09:13.064Z</time></trkpt><trkpt lat="45.76194883716425" lon="10.490147848857157"><ele>412.0</ele><time>2026-04-06T10:09:14.064Z</time></trkpt><trkpt lat="45.76205885315027" lon="10.490243155284457"><ele>412.0</ele><time>2026-04-06T10:09:15.064Z</time></trkpt><trkpt lat="45.76217002680911" lon="10.49036291474038"><ele>412.0</ele><time>2026-04-06T10:09:16.064Z</time></trkpt><trkpt lat="45.7622834712601" lon="10.490445779341595"><ele>412.0</ele><time>2026-04-06T10:09:17.064Z</time></trkpt><trkpt lat="45.76239420429628" lon="10.49055200764149"><ele>412.0</ele><time>2026-04-06T10:09:18.064Z</time></trkpt><trkpt lat="45.76250199313643" lon="10.490633720669269"><ele>409.0</ele><time>2026-04-06T10:09:19.064Z</time></trkpt><trkpt lat="45.762612989831794" lon="10.490708027910125"><ele>406.0</ele><time>2026-04-06T10:09:20.064Z</time></trkpt><trkpt lat="45.762727880504805" lon="10.49079612486703"><ele>403.0</ele><time>2026-04-06T10:09:21.064Z</time></trkpt><trkpt lat="45.7628443653127" lon="10.490868115107801"><ele>400.0</ele><time>2026-04-06T10:09:22.064Z</time></trkpt><trkpt lat="45.76296463215308" lon="10.490937026277443"><ele>400.0</ele><time>2026-04-06T10:09:23.064Z</time></trkpt><trkpt lat="45.76308793369554" lon="10.49099606356066"><ele>400.0</ele><time>2026-04-06T10:09:24.064Z</time></trkpt><trkpt lat="45.7632360111147" lon="10.491055883121469"><ele>400.0</ele><time>2026-04-06T10:09:25.064Z</time></trkpt><trkpt lat="45.76337811396942" lon="10.491108130051504"><ele>400.0</ele><time>2026-04-06T10:09:26.064Z</time></trkpt><trkpt lat="45.7635133001726" lon="10.491175684183291"><ele>402.0</ele><time>2026-04-06T10:09:27.064Z</time></trkpt><trkpt lat="45.76365228756262" lon="10.491226228164921"><ele>404.0</ele><time>2026-04-06T10:09:28.064Z</time></trkpt><trkpt lat="45.76380527784471" lon="10.49128252083444"><ele>406.0</ele><time>2026-04-06T10:09:29.064Z</time></trkpt><trkpt lat="45.76394079702135" lon="10.49135903413043"><ele>408.0</ele><time>2026-04-06T10:09:30.064Z</time></trkpt><trkpt lat="45.7640720933145" lon="10.491358839965006"><ele>405.2</ele><time>2026-04-06T10:09:31.064Z</time></trkpt><trkpt lat="45.764168447896665" lon="10.491407849827992"><ele>402.4</ele><time>2026-04-06T10:09:32.064Z</time></trkpt><trkpt lat="45.76423380805915" lon="10.49142730374329"><ele>399.59999999999997</ele><time>2026-04-06T10:09:33.064Z</time></trkpt><trkpt lat="45.764322276880506" lon="10.4914580205046"><ele>396.79999999999995</ele><time>2026-04-06T10:09:35.064Z</time></trkpt><trkpt lat="45.76443025141499" lon="10.491514758437537"><ele>394.0</ele><time>2026-04-06T10:09:37.064Z</time></trkpt><trkpt lat="45.764498765700175" lon="10.49156831458106"><ele>394.0</ele><time>2026-04-06T10:09:43.064Z</time></trkpt><trkpt lat="45.76457112155267" lon="10.491711395064724"><ele>394.0</ele><time>2026-04-06T10:09:45.064Z</time></trkpt><trkpt lat="45.76468313911749" lon="10.49174530313631"><ele>394.0</ele><time>2026-04-06T10:09:47.064Z</time></trkpt><trkpt lat="45.764765958192655" lon="10.491816566115768"><ele>394.0</ele><time>2026-04-06T10:09:49.064Z</time></trkpt><trkpt lat="45.76486668793055" lon="10.49188750263226"><ele>394.0</ele><time>2026-04-06T10:09:51.064Z</time></trkpt><trkpt lat="45.76493336153442" lon="10.491887876905693"><ele>394.00000000000006</ele><time>2026-04-06T10:09:52.064Z</time></trkpt><trkpt lat="45.76502983236041" lon="10.491864238005961"><ele>394.0</ele><time>2026-04-06T10:09:54.064Z</time></trkpt><trkpt lat="45.76511562245494" lon="10.49190775145758"><ele>394.0</ele><time>2026-04-06T10:09:57.064Z</time></trkpt><trkpt lat="45.765155333958646" lon="10.491997413984937"><ele>394.0</ele><time>2026-04-06T10:09:59.064Z</time></trkpt><trkpt lat="45.7651491371557" lon="10.492098600143155"><ele>394.00000000000006</ele><time>2026-04-06T10:10:01.064Z</time></trkpt><trkpt lat="45.76514407826632" lon="10.492204281167218"><ele>394.0</ele><time>2026-04-06T10:10:03.064Z</time></trkpt><trkpt lat="45.765068790851394" lon="10.492213049265112"><ele>392.50000000000006</ele><time>2026-04-06T10:10:04.064Z</time></trkpt><trkpt lat="45.76495292332665" lon="10.492224058350423"><ele>391.0</ele><time>2026-04-06T10:10:06.064Z</time></trkpt><trkpt lat="45.7648630902042" lon="10.492227432371948"><ele>389.5</ele><time>2026-04-06T10:10:07.064Z</time></trkpt><trkpt lat="45.764789730222404" lon="10.492238906977098"><ele>388.0</ele><time>2026-04-06T10:10:08.064Z</time></trkpt><trkpt lat="45.76470911749409" lon="10.492259786093461"><ele>386.50000000000006</ele><time>2026-04-06T10:10:09.064Z</time></trkpt><trkpt lat="45.764631349106686" lon="10.492261899949012"><ele>385.0</ele><time>2026-04-06T10:10:10.064Z</time></trkpt><trkpt lat="45.764554591736406" lon="10.492276538360885"><ele>385.00000000000006</ele><time>2026-04-06T10:10:11.064Z</time></trkpt><trkpt lat="45.76447497123085" lon="10.492307808246156"><ele>385.0</ele><time>2026-04-06T10:10:12.064Z</time></trkpt><trkpt lat="45.764405570702976" lon="10.492323356664722"><ele>385.0</ele><time>2026-04-06T10:10:13.064Z</time></trkpt><trkpt lat="45.7643365976606" lon="10.492349697560744"><ele>385.0</ele><time>2026-04-06T10:10:14.064Z</time></trkpt><trkpt lat="45.7642233182536" lon="10.49239777606884"><ele>385.00000000000006</ele><time>2026-04-06T10:10:16.064Z</time></trkpt><trkpt lat="45.76414728143705" lon="10.492419219768784"><ele>385.0</ele><time>2026-04-06T10:10:18.064Z</time></trkpt><trkpt lat="45.76407174311619" lon="10.492453406343708"><ele>383.8</ele><time>2026-04-06T10:10:21.064Z</time></trkpt><trkpt lat="45.76398779772723" lon="10.492477655394378"><ele>382.6</ele><time>2026-04-06T10:10:23.064Z</time></trkpt><trkpt lat="45.763927968383356" lon="10.492506368704097"><ele>381.4</ele><time>2026-04-06T10:10:24.064Z</time></trkpt><trkpt lat="45.763868106155876" lon="10.4925395500885"><ele>380.2</ele><time>2026-04-06T10:10:25.064Z</time></trkpt><trkpt lat="45.763753235620705" lon="10.492553542034319"><ele>379.0</ele><time>2026-04-06T10:10:27.064Z</time></trkpt><trkpt lat="45.76361751143475" lon="10.492540320967096"><ele>379.0</ele><time>2026-04-06T10:10:29.064Z</time></trkpt><trkpt lat="45.76354454613424" lon="10.492526535350828"><ele>379.0</ele><time>2026-04-06T10:10:30.064Z</time></trkpt><trkpt lat="45.76347489269523" lon="10.492498609695412"><ele>379.0</ele><time>2026-04-06T10:10:31.064Z</time></trkpt><trkpt lat="45.76339364163135" lon="10.492479189815457"><ele>379.0</ele><time>2026-04-06T10:10:32.064Z</time></trkpt><trkpt lat="45.76330876859586" lon="10.492458016960471"><ele>379.0</ele><time>2026-04-06T10:10:33.064Z</time></trkpt><trkpt lat="45.76322687204666" lon="10.492439134474381"><ele>379.0</ele><time>2026-04-06T10:10:34.064Z</time></trkpt><trkpt lat="45.76314943477383" lon="10.492407812230818"><ele>377.6</ele><time>2026-04-06T10:10:35.064Z</time></trkpt><trkpt lat="45.76307245271819" lon="10.492369994846126"><ele>376.2</ele><time>2026-04-06T10:10:36.064Z</time></trkpt><trkpt lat="45.76299894840945" lon="10.492339978411303"><ele>374.8</ele><time>2026-04-06T10:10:37.064Z</time></trkpt><trkpt lat="45.762886707723574" lon="10.49228973938888"><ele>373.40000000000003</ele><time>2026-04-06T10:10:39.064Z</time></trkpt><trkpt lat="45.762784810702904" lon="10.492223133497676"><ele>372.0</ele><time>2026-04-06T10:10:41.064Z</time></trkpt><trkpt lat="45.762697571267076" lon="10.492148401722956"><ele>371.8571428571429</ele><time>2026-04-06T10:10:43.064Z</time></trkpt><trkpt lat="45.76262757904455" lon="10.492077054277848"><ele>371.7142857142857</ele><time>2026-04-06T10:10:45.064Z</time></trkpt><trkpt lat="45.762570277072484" lon="10.492027311969482"><ele>371.57142857142856</ele><time>2026-04-06T10:10:47.064Z</time></trkpt><trkpt lat="45.76250842265162" lon="10.491997729575592"><ele>371.42857142857144</ele><time>2026-04-06T10:10:49.064Z</time></trkpt><trkpt lat="45.7624389791566" lon="10.49201723091487"><ele>371.2857142857143</ele><time>2026-04-06T10:10:51.064Z</time></trkpt><trkpt lat="45.762364206088016" lon="10.492050849506748"><ele>371.14285714285717</ele><time>2026-04-06T10:10:54.064Z</time></trkpt><trkpt lat="45.76230470834624" lon="10.49213082273598"><ele>371.0</ele><time>2026-04-06T10:10:58.064Z</time></trkpt><trkpt lat="45.762250321481446" lon="10.492179408042212"><ele>369.0</ele><time>2026-04-06T10:11:04.064Z</time></trkpt><trkpt lat="45.76220188481075" lon="10.49211494225696"><ele>369.0</ele><time>2026-04-06T10:14:43.065Z</time></trkpt><trkpt lat="45.7622434834245" lon="10.492032396244086"><ele>371.0</ele><time>2026-04-06T10:15:40.064Z</time></trkpt><trkpt lat="45.76222813285202" lon="10.492123959427115"><ele>369.0</ele><time>2026-04-06T10:16:01.064Z</time></trkpt><trkpt lat="45.76214843966182" lon="10.492152861623474"><ele>369.0</ele><time>2026-04-06T10:17:11.064Z</time></trkpt></trkseg><trkseg><trkpt lat="45.76748249966334" lon="10.492645983530352"><ele>405.0</ele><time>2026-04-06T11:53:14.048Z</time></trkpt><trkpt lat="45.76751104111317" lon="10.492736894143592"><ele>405.0</ele><time>2026-04-06T11:53:21.048Z</time></trkpt><trkpt lat="45.76754727465054" lon="10.492814713592354"><ele>405.0</ele><time>2026-04-06T11:53:29.048Z</time></trkpt><trkpt lat="45.767496613523164" lon="10.49287257907974"><ele>405.0</ele><time>2026-04-06T11:56:25.047Z</time></trkpt><trkpt lat="45.76760364860863" lon="10.49288293475078"><ele>405.0</ele><time>2026-04-06T12:00:06.043Z</time></trkpt><trkpt lat="45.76765424611497" lon="10.492945435663975"><ele>405.0</ele><time>2026-04-06T12:00:08.043Z</time></trkpt><trkpt lat="45.76774252133484" lon="10.493000558242661"><ele>408.0</ele><time>2026-04-06T12:00:24.043Z</time></trkpt><trkpt lat="45.767804143738786" lon="10.493071499027458"><ele>411.0</ele><time>2026-04-06T12:00:25.043Z</time></trkpt><trkpt lat="45.767854544650774" lon="10.493167483427714"><ele>414.0</ele><time>2026-04-06T12:00:26.043Z</time></trkpt><trkpt lat="45.767883179386494" lon="10.493254854658408"><ele>417.0</ele><time>2026-04-06T12:00:27.043Z</time></trkpt><trkpt lat="45.76793765527529" lon="10.493344617157264"><ele>420.0</ele><time>2026-04-06T12:00:28.043Z</time></trkpt><trkpt lat="45.76800527866594" lon="10.49344851419018"><ele>423.0</ele><time>2026-04-06T12:00:29.043Z</time></trkpt><trkpt lat="45.76807389822285" lon="10.493557214684417"><ele>423.0</ele><time>2026-04-06T12:00:30.043Z</time></trkpt><trkpt lat="45.7681679194279" lon="10.493712714512178"><ele>423.0</ele><time>2026-04-06T12:00:31.043Z</time></trkpt><trkpt lat="45.76829495277965" lon="10.493883091877002"><ele>423.0</ele><time>2026-04-06T12:00:32.043Z</time></trkpt><trkpt lat="45.76839844768195" lon="10.494025037582967"><ele>424.2</ele><time>2026-04-06T12:00:33.043Z</time></trkpt><trkpt lat="45.76848067468315" lon="10.494149980916594"><ele>425.4</ele><time>2026-04-06T12:00:34.043Z</time></trkpt><trkpt lat="45.76854524207546" lon="10.494276448167138"><ele>426.59999999999997</ele><time>2026-04-06T12:00:35.043Z</time></trkpt><trkpt lat="45.768600590243295" lon="10.494397150323481"><ele>427.79999999999995</ele><time>2026-04-06T12:00:36.043Z</time></trkpt><trkpt lat="45.76864890738456" lon="10.494519495672707"><ele>429.0</ele><time>2026-04-06T12:00:37.043Z</time></trkpt><trkpt lat="45.768694182199305" lon="10.494658388928844"><ele>429.0</ele><time>2026-04-06T12:00:38.043Z</time></trkpt><trkpt lat="45.76872789346345" lon="10.49480621007268"><ele>429.0</ele><time>2026-04-06T12:00:39.043Z</time></trkpt><trkpt lat="45.7687562513531" lon="10.494951054711526"><ele>429.0</ele><time>2026-04-06T12:00:40.043Z</time></trkpt><trkpt lat="45.76878178197449" lon="10.495100991261571"><ele>429.0</ele><time>2026-04-06T12:00:41.043Z</time></trkpt><trkpt lat="45.768784115328025" lon="10.495257598226639"><ele>429.0</ele><time>2026-04-06T12:00:42.043Z</time></trkpt><trkpt lat="45.76880699044654" lon="10.495410686446835"><ele>426.4</ele><time>2026-04-06T12:00:43.043Z</time></trkpt><trkpt lat="45.768807977915564" lon="10.49556825763522"><ele>423.79999999999995</ele><time>2026-04-06T12:00:44.043Z</time></trkpt><trkpt lat="45.76881789276733" lon="10.495726155599401"><ele>421.20000000000005</ele><time>2026-04-06T12:00:45.043Z</time></trkpt><trkpt lat="45.76882968480403" lon="10.495867289394672"><ele>418.6</ele><time>2026-04-06T12:00:46.043Z</time></trkpt><trkpt lat="45.76886106743525" lon="10.495996964030939"><ele>416.0</ele><time>2026-04-06T12:00:47.043Z</time></trkpt><trkpt lat="45.76889230397712" lon="10.49611641702116"><ele>416.0</ele><time>2026-04-06T12:00:48.043Z</time></trkpt><trkpt lat="45.768930437304434" lon="10.496221640745466"><ele>416.0</ele><time>2026-04-06T12:00:49.043Z</time></trkpt><trkpt lat="45.768982904565405" lon="10.49634044669436"><ele>416.0</ele><time>2026-04-06T12:00:50.043Z</time></trkpt><trkpt lat="45.769042100658346" lon="10.49645853957188"><ele>416.0</ele><time>2026-04-06T12:00:51.043Z</time></trkpt><trkpt lat="45.76910448665009" lon="10.496567004179896"><ele>416.0</ele><time>2026-04-06T12:00:52.043Z</time></trkpt><trkpt lat="45.769171452318695" lon="10.496641780517413"><ele>413.20000000000005</ele><time>2026-04-06T12:00:53.043Z</time></trkpt><trkpt lat="45.76923298465391" lon="10.496708771798476"><ele>410.40000000000003</ele><time>2026-04-06T12:00:54.043Z</time></trkpt><trkpt lat="45.76929942276526" lon="10.496767754203105"><ele>407.6</ele><time>2026-04-06T12:00:55.043Z</time></trkpt><trkpt lat="45.7693786304193" lon="10.496805503485177"><ele>404.8</ele><time>2026-04-06T12:00:56.043Z</time></trkpt><trkpt lat="45.76948323490097" lon="10.496907908811696"><ele>402.0</ele><time>2026-04-06T12:00:57.043Z</time></trkpt><trkpt lat="45.769578887685284" lon="10.49700238193332"><ele>405.33333333333337</ele><time>2026-04-06T12:00:58.043Z</time></trkpt><trkpt lat="45.76969746667071" lon="10.497161531764066"><ele>408.6666666666667</ele><time>2026-04-06T12:00:59.043Z</time></trkpt><trkpt lat="45.76981058950702" lon="10.497399320576358"><ele>412.0</ele><time>2026-04-06T12:01:00.043Z</time></trkpt><trkpt lat="45.76992807658384" lon="10.49762204281242"><ele>412.0</ele><time>2026-04-06T12:01:01.043Z</time></trkpt><trkpt lat="45.77001423696918" lon="10.497819261778275"><ele>412.0</ele><time>2026-04-06T12:01:02.043Z</time></trkpt><trkpt lat="45.770106423853775" lon="10.497971783132499"><ele>412.0</ele><time>2026-04-06T12:01:03.043Z</time></trkpt><trkpt lat="45.7702077719468" lon="10.498105711020642"><ele>412.0</ele><time>2026-04-06T12:01:04.043Z</time></trkpt><trkpt lat="45.77031537922752" lon="10.498224694935443"><ele>415.5</ele><time>2026-04-06T12:01:05.043Z</time></trkpt><trkpt lat="45.77042492672127" lon="10.498339935141722"><ele>419.0</ele><time>2026-04-06T12:01:06.043Z</time></trkpt><trkpt lat="45.770537319454" lon="10.498454260128318"><ele>422.5</ele><time>2026-04-06T12:01:07.043Z</time></trkpt><trkpt lat="45.77064896715247" lon="10.498561743330173"><ele>426.0</ele><time>2026-04-06T12:01:08.043Z</time></trkpt><trkpt lat="45.77074772956711" lon="10.4986642471685"><ele>425.25</ele><time>2026-04-06T12:01:09.043Z</time></trkpt><trkpt lat="45.77084404467757" lon="10.498773928725193"><ele>424.5</ele><time>2026-04-06T12:01:10.043Z</time></trkpt><trkpt lat="45.77094543486512" lon="10.498886117231036"><ele>423.75</ele><time>2026-04-06T12:01:11.043Z</time></trkpt><trkpt lat="45.77104233965017" lon="10.498993316837696"><ele>423.0</ele><time>2026-04-06T12:01:12.043Z</time></trkpt><trkpt lat="45.771132898847924" lon="10.499089851452657"><ele>423.0</ele><time>2026-04-06T12:01:13.043Z</time></trkpt><trkpt lat="45.771229597826554" lon="10.499192826536216"><ele>423.0</ele><time>2026-04-06T12:01:14.043Z</time></trkpt><trkpt lat="45.771317748093566" lon="10.499304502268464"><ele>423.0</ele><time>2026-04-06T12:01:15.043Z</time></trkpt><trkpt lat="45.77140516440051" lon="10.499418774185742"><ele>423.0</ele><time>2026-04-06T12:01:16.043Z</time></trkpt><trkpt lat="45.77149008992952" lon="10.499541189556801"><ele>422.5</ele><time>2026-04-06T12:01:17.043Z</time></trkpt><trkpt lat="45.7715785509073" lon="10.499652433381348"><ele>422.0</ele><time>2026-04-06T12:01:18.041Z</time></trkpt><trkpt lat="45.77167423072208" lon="10.499776391917033"><ele>421.5</ele><time>2026-04-06T12:01:19.041Z</time></trkpt><trkpt lat="45.7717700270385" lon="10.49990622319416"><ele>421.0</ele><time>2026-04-06T12:01:20.041Z</time></trkpt><trkpt lat="45.771863190011686" lon="10.500036065500353"><ele>421.0</ele><time>2026-04-06T12:01:21.041Z</time></trkpt><trkpt lat="45.771956428432354" lon="10.500158257557823"><ele>421.0</ele><time>2026-04-06T12:01:22.041Z</time></trkpt><trkpt lat="45.772047826416035" lon="10.500292337805686"><ele>421.0</ele><time>2026-04-06T12:01:23.041Z</time></trkpt><trkpt lat="45.77213891807138" lon="10.500429292178122"><ele>421.0</ele><time>2026-04-06T12:01:24.041Z</time></trkpt><trkpt lat="45.77223157086976" lon="10.500558104666613"><ele>415.75</ele><time>2026-04-06T12:01:25.041Z</time></trkpt><trkpt lat="45.772319753421144" lon="10.500682410906329"><ele>410.5</ele><time>2026-04-06T12:01:26.041Z</time></trkpt><trkpt lat="45.772408143162984" lon="10.500808211448879"><ele>405.25</ele><time>2026-04-06T12:01:27.041Z</time></trkpt><trkpt lat="45.77250125691178" lon="10.500938849372531"><ele>400.0</ele><time>2026-04-06T12:01:28.041Z</time></trkpt><trkpt lat="45.772593935956195" lon="10.501065529920245"><ele>400.0</ele><time>2026-04-06T12:01:29.041Z</time></trkpt><trkpt lat="45.77268575782808" lon="10.501195643504545"><ele>400.0</ele><time>2026-04-06T12:01:30.041Z</time></trkpt><trkpt lat="45.77277921627269" lon="10.501325270696077"><ele>400.0</ele><time>2026-04-06T12:01:31.041Z</time></trkpt><trkpt lat="45.772874016723975" lon="10.501440453831272"><ele>400.0</ele><time>2026-04-06T12:01:32.041Z</time></trkpt><trkpt lat="45.77295844397152" lon="10.50154616516154"><ele>400.25</ele><time>2026-04-06T12:01:33.041Z</time></trkpt><trkpt lat="45.77304984918197" lon="10.501660174128293"><ele>400.5</ele><time>2026-04-06T12:01:34.041Z</time></trkpt><trkpt lat="45.77314556130629" lon="10.50176994833978"><ele>400.75</ele><time>2026-04-06T12:01:35.041Z</time></trkpt><trkpt lat="45.773237695729705" lon="10.501872759379523"><ele>401.0</ele><time>2026-04-06T12:01:36.041Z</time></trkpt><trkpt lat="45.77334165854131" lon="10.5019584893702"><ele>401.0</ele><time>2026-04-06T12:01:37.041Z</time></trkpt><trkpt lat="45.773454321935255" lon="10.502029808186652"><ele>401.0</ele><time>2026-04-06T12:01:38.041Z</time></trkpt><trkpt lat="45.77356877923835" lon="10.502097340809947"><ele>401.0</ele><time>2026-04-06T12:01:39.041Z</time></trkpt><trkpt lat="45.773680793210005" lon="10.502161329498273"><ele>401.0</ele><time>2026-04-06T12:01:40.041Z</time></trkpt><trkpt lat="45.77379579411345" lon="10.502225002394947"><ele>397.5</ele><time>2026-04-06T12:01:41.041Z</time></trkpt><trkpt lat="45.773918955820825" lon="10.502294898895379"><ele>394.0</ele><time>2026-04-06T12:01:42.041Z</time></trkpt><trkpt lat="45.774046325503186" lon="10.502353754740017"><ele>390.5</ele><time>2026-04-06T12:01:43.041Z</time></trkpt><trkpt lat="45.77416947255106" lon="10.502389714820476"><ele>387.0</ele><time>2026-04-06T12:01:44.041Z</time></trkpt><trkpt lat="45.774294922693464" lon="10.502407406868203"><ele>389.75</ele><time>2026-04-06T12:01:45.041Z</time></trkpt><trkpt lat="45.77442287818762" lon="10.502434509578478"><ele>392.5</ele><time>2026-04-06T12:01:46.041Z</time></trkpt><trkpt lat="45.77454091936303" lon="10.502461593360863"><ele>395.25</ele><time>2026-04-06T12:01:47.041Z</time></trkpt><trkpt lat="45.7746648217999" lon="10.502500211287334"><ele>398.0</ele><time>2026-04-06T12:01:48.041Z</time></trkpt><trkpt lat="45.77479275018358" lon="10.502547765566225"><ele>398.0</ele><time>2026-04-06T12:01:49.041Z</time></trkpt><trkpt lat="45.77491810740488" lon="10.502608548160532"><ele>398.0</ele><time>2026-04-06T12:01:50.041Z</time></trkpt><trkpt lat="45.775042376022284" lon="10.502683998640515"><ele>398.0</ele><time>2026-04-06T12:01:51.041Z</time></trkpt><trkpt lat="45.77516293650405" lon="10.502760259160913"><ele>398.0</ele><time>2026-04-06T12:01:52.041Z</time></trkpt><trkpt lat="45.77527526402523" lon="10.502846676223774"><ele>395.0</ele><time>2026-04-06T12:01:53.041Z</time></trkpt><trkpt lat="45.77538332269508" lon="10.50293533695041"><ele>392.0</ele><time>2026-04-06T12:01:54.041Z</time></trkpt><trkpt lat="45.775495049676174" lon="10.503040888666591"><ele>389.0</ele><time>2026-04-06T12:01:55.041Z</time></trkpt><trkpt lat="45.775604200465146" lon="10.503149570186965"><ele>386.0</ele><time>2026-04-06T12:01:56.041Z</time></trkpt><trkpt lat="45.77570913574033" lon="10.503247351332476"><ele>386.0</ele><time>2026-04-06T12:01:57.041Z</time></trkpt><trkpt lat="45.775800852746684" lon="10.503345088072367"><ele>386.0</ele><time>2026-04-06T12:01:58.041Z</time></trkpt><trkpt lat="45.7758955943466" lon="10.503439333162312"><ele>386.0</ele><time>2026-04-06T12:01:59.041Z</time></trkpt><trkpt lat="45.775994781795625" lon="10.503526982806434"><ele>386.0</ele><time>2026-04-06T12:02:00.041Z</time></trkpt><trkpt lat="45.77608948869959" lon="10.503611716209102"><ele>389.0</ele><time>2026-04-06T12:02:01.041Z</time></trkpt><trkpt lat="45.776192250483334" lon="10.5036893134275"><ele>392.0</ele><time>2026-04-06T12:02:02.041Z</time></trkpt><trkpt lat="45.776293203236044" lon="10.503757062771"><ele>395.0</ele><time>2026-04-06T12:02:03.041Z</time></trkpt><trkpt lat="45.77641000620869" lon="10.503809298926264"><ele>398.0</ele><time>2026-04-06T12:02:04.041Z</time></trkpt><trkpt lat="45.776523873653495" lon="10.5038223043059"><ele>398.0</ele><time>2026-04-06T12:02:05.041Z</time></trkpt><trkpt lat="45.77663181149652" lon="10.503795714599962"><ele>398.0</ele><time>2026-04-06T12:02:06.041Z</time></trkpt><trkpt lat="45.77672552371494" lon="10.503748077423689"><ele>398.0</ele><time>2026-04-06T12:02:07.041Z</time></trkpt><trkpt lat="45.776822753654294" lon="10.503692512028636"><ele>398.0</ele><time>2026-04-06T12:02:08.041Z</time></trkpt><trkpt lat="45.77691693500082" lon="10.503620452001108"><ele>398.0</ele><time>2026-04-06T12:02:09.041Z</time></trkpt><trkpt lat="45.77700908051104" lon="10.503550871819316"><ele>396.0</ele><time>2026-04-06T12:02:10.041Z</time></trkpt><trkpt lat="45.77710148349856" lon="10.503487945969718"><ele>394.0</ele><time>2026-04-06T12:02:11.041Z</time></trkpt><trkpt lat="45.77718749011659" lon="10.503438297146314"><ele>392.0</ele><time>2026-04-06T12:02:12.041Z</time></trkpt><trkpt lat="45.777267665578044" lon="10.503392676891679"><ele>390.0</ele><time>2026-04-06T12:02:13.041Z</time></trkpt><trkpt lat="45.7773656240656" lon="10.50337396173989"><ele>388.0</ele><time>2026-04-06T12:02:14.041Z</time></trkpt><trkpt lat="45.77746053076042" lon="10.503317070798797"><ele>388.0</ele><time>2026-04-06T12:02:15.041Z</time></trkpt><trkpt lat="45.77756728463769" lon="10.50328901189267"><ele>388.0</ele><time>2026-04-06T12:02:16.041Z</time></trkpt><trkpt lat="45.77767524144566" lon="10.503261435043203"><ele>388.0</ele><time>2026-04-06T12:02:17.041Z</time></trkpt><trkpt lat="45.77778527510875" lon="10.50323664722204"><ele>388.0</ele><time>2026-04-06T12:02:18.041Z</time></trkpt><trkpt lat="45.77789302010045" lon="10.503204213932841"><ele>388.0</ele><time>2026-04-06T12:02:19.041Z</time></trkpt><trkpt lat="45.77800046623314" lon="10.503175329724238"><ele>387.75</ele><time>2026-04-06T12:02:20.041Z</time></trkpt><trkpt lat="45.77810675801052" lon="10.503160840672239"><ele>387.5</ele><time>2026-04-06T12:02:21.041Z</time></trkpt><trkpt lat="45.77822301753082" lon="10.503159052327621"><ele>387.25</ele><time>2026-04-06T12:02:22.041Z</time></trkpt><trkpt lat="45.778337371633725" lon="10.503188722828867"><ele>387.0</ele><time>2026-04-06T12:02:23.041Z</time></trkpt><trkpt lat="45.77844718608005" lon="10.50323744635241"><ele>388.0</ele><time>2026-04-06T12:02:24.041Z</time></trkpt><trkpt lat="45.77856330270378" lon="10.503286800373441"><ele>389.0</ele><time>2026-04-06T12:02:25.041Z</time></trkpt><trkpt lat="45.77867354663585" lon="10.503340145087009"><ele>390.0</ele><time>2026-04-06T12:02:26.041Z</time></trkpt><trkpt lat="45.77877971574326" lon="10.503390849853144"><ele>391.0</ele><time>2026-04-06T12:02:27.041Z</time></trkpt><trkpt lat="45.778895098061795" lon="10.503433139805814"><ele>391.0</ele><time>2026-04-06T12:02:28.041Z</time></trkpt><trkpt lat="45.77901385936949" lon="10.503456716784926"><ele>391.0</ele><time>2026-04-06T12:02:29.041Z</time></trkpt><trkpt lat="45.779139357014174" lon="10.503464079876471"><ele>391.0</ele><time>2026-04-06T12:02:30.041Z</time></trkpt><trkpt lat="45.77927553021728" lon="10.503456978135636"><ele>391.0</ele><time>2026-04-06T12:02:31.041Z</time></trkpt><trkpt lat="45.779388685946444" lon="10.50344851888465"><ele>391.0</ele><time>2026-04-06T12:02:32.041Z</time></trkpt><trkpt lat="45.779512676275075" lon="10.503432801659597"><ele>391.0</ele><time>2026-04-06T12:02:33.041Z</time></trkpt><trkpt lat="45.77963545168938" lon="10.503423101482115"><ele>391.0</ele><time>2026-04-06T12:02:34.041Z</time></trkpt><trkpt lat="45.779747313850145" lon="10.50341589674491"><ele>391.0</ele><time>2026-04-06T12:02:35.041Z</time></trkpt><trkpt lat="45.77985867335264" lon="10.5034019616354"><ele>391.0</ele><time>2026-04-06T12:02:36.041Z</time></trkpt><trkpt lat="45.77996223363248" lon="10.503367031806194"><ele>391.0</ele><time>2026-04-06T12:02:37.041Z</time></trkpt><trkpt lat="45.78005419676174" lon="10.503326383273787"><ele>391.0</ele><time>2026-04-06T12:02:38.041Z</time></trkpt><trkpt lat="45.78011993548235" lon="10.503283908091612"><ele>391.0</ele><time>2026-04-06T12:02:39.041Z</time></trkpt><trkpt lat="45.78021529313474" lon="10.503261907440143"><ele>391.0</ele><time>2026-04-06T12:02:40.041Z</time></trkpt><trkpt lat="45.78031660102084" lon="10.50321974078554"><ele>389.75</ele><time>2026-04-06T12:02:41.041Z</time></trkpt><trkpt lat="45.78044520755803" lon="10.503197628271108"><ele>388.5</ele><time>2026-04-06T12:02:42.041Z</time></trkpt><trkpt lat="45.780569927156044" lon="10.503183125646853"><ele>387.25</ele><time>2026-04-06T12:02:43.041Z</time></trkpt><trkpt lat="45.78068720902294" lon="10.503163028093025"><ele>386.0</ele><time>2026-04-06T12:02:44.041Z</time></trkpt><trkpt lat="45.78079357722635" lon="10.503168390051895"><ele>386.0</ele><time>2026-04-06T12:02:45.041Z</time></trkpt><trkpt lat="45.7809188257665" lon="10.503166459260566"><ele>386.0</ele><time>2026-04-06T12:02:46.041Z</time></trkpt><trkpt lat="45.7810616056604" lon="10.503152385260021"><ele>386.0</ele><time>2026-04-06T12:02:47.041Z</time></trkpt><trkpt lat="45.78120779214399" lon="10.503117874339035"><ele>386.0</ele><time>2026-04-06T12:02:48.041Z</time></trkpt><trkpt lat="45.781377199074285" lon="10.503062808997631"><ele>385.66666666666663</ele><time>2026-04-06T12:02:49.041Z</time></trkpt><trkpt lat="45.781559964793686" lon="10.502996982213782"><ele>385.33333333333337</ele><time>2026-04-06T12:02:50.041Z</time></trkpt><trkpt lat="45.78175604833974" lon="10.502913905716397"><ele>385.0</ele><time>2026-04-06T12:02:51.041Z</time></trkpt><trkpt lat="45.78196329691924" lon="10.502799871518642"><ele>388.33333333333337</ele><time>2026-04-06T12:02:52.041Z</time></trkpt><trkpt lat="45.78215984936542" lon="10.50266965731298"><ele>391.66666666666663</ele><time>2026-04-06T12:02:53.041Z</time></trkpt><trkpt lat="45.78233628089564" lon="10.502563903332566"><ele>395.0</ele><time>2026-04-06T12:02:54.041Z</time></trkpt><trkpt lat="45.78248948460544" lon="10.502471047088546"><ele>395.0</ele><time>2026-04-06T12:02:55.041Z</time></trkpt><trkpt lat="45.78263259160721" lon="10.502372672928653"><ele>395.0</ele><time>2026-04-06T12:02:56.041Z</time></trkpt><trkpt lat="45.782772212768805" lon="10.502259656429722"><ele>395.0</ele><time>2026-04-06T12:02:57.041Z</time></trkpt><trkpt lat="45.78290633369252" lon="10.502129359953534"><ele>394.3333333333333</ele><time>2026-04-06T12:02:58.041Z</time></trkpt><trkpt lat="45.78302971578459" lon="10.501998067013607"><ele>393.66666666666663</ele><time>2026-04-06T12:02:59.041Z</time></trkpt><trkpt lat="45.78315232790564" lon="10.501873368483992"><ele>393.0</ele><time>2026-04-06T12:03:00.041Z</time></trkpt><trkpt lat="45.783266743222775" lon="10.50173951212516"><ele>393.0</ele><time>2026-04-06T12:03:01.041Z</time></trkpt><trkpt lat="45.78336538950011" lon="10.501568429222807"><ele>393.0</ele><time>2026-04-06T12:03:02.041Z</time></trkpt><trkpt lat="45.78345954111095" lon="10.501355141296221"><ele>393.0</ele><time>2026-04-06T12:03:03.041Z</time></trkpt><trkpt lat="45.783561998585505" lon="10.50115130640753"><ele>393.0</ele><time>2026-04-06T12:03:04.041Z</time></trkpt><trkpt lat="45.78366112015409" lon="10.500975671988444"><ele>393.0</ele><time>2026-04-06T12:03:05.041Z</time></trkpt><trkpt lat="45.783788117736954" lon="10.50082958700937"><ele>393.0</ele><time>2026-04-06T12:03:06.041Z</time></trkpt><trkpt lat="45.78392581433165" lon="10.500715303521755"><ele>393.0</ele><time>2026-04-06T12:03:07.041Z</time></trkpt><trkpt lat="45.78406000563953" lon="10.50062468259942"><ele>393.0</ele><time>2026-04-06T12:03:08.041Z</time></trkpt><trkpt lat="45.784191392483244" lon="10.500571486241368"><ele>393.0</ele><time>2026-04-06T12:03:09.041Z</time></trkpt><trkpt lat="45.78432553202635" lon="10.500554186031938"><ele>393.0</ele><time>2026-04-06T12:03:10.041Z</time></trkpt><trkpt lat="45.78445721291419" lon="10.500569130232048"><ele>393.4</ele><time>2026-04-06T12:03:11.041Z</time></trkpt><trkpt lat="45.78457170217112" lon="10.500615395182631"><ele>393.79999999999995</ele><time>2026-04-06T12:03:12.041Z</time></trkpt><trkpt lat="45.78466424267421" lon="10.50067500824486"><ele>394.2</ele><time>2026-04-06T12:03:13.041Z</time></trkpt><trkpt lat="45.784760164722854" lon="10.500735222857791"><ele>394.6</ele><time>2026-04-06T12:03:14.041Z</time></trkpt><trkpt lat="45.784843358522885" lon="10.500787986657505"><ele>395.0</ele><time>2026-04-06T12:03:15.041Z</time></trkpt><trkpt lat="45.784937201479345" lon="10.50083783766595"><ele>395.0</ele><time>2026-04-06T12:03:16.041Z</time></trkpt><trkpt lat="45.785031624724546" lon="10.500887002958972"><ele>395.0</ele><time>2026-04-06T12:03:17.041Z</time></trkpt><trkpt lat="45.785137098560504" lon="10.500939985925667"><ele>395.0</ele><time>2026-04-06T12:03:18.041Z</time></trkpt><trkpt lat="45.78524409065451" lon="10.500990587627612"><ele>395.0</ele><time>2026-04-06T12:03:19.041Z</time></trkpt><trkpt lat="45.785342731786244" lon="10.501036158456934"><ele>395.0</ele><time>2026-04-06T12:03:20.041Z</time></trkpt><trkpt lat="45.78545120613313" lon="10.501083678250323"><ele>396.5</ele><time>2026-04-06T12:03:21.041Z</time></trkpt><trkpt lat="45.78556099507416" lon="10.501092667197366"><ele>398.0</ele><time>2026-04-06T12:03:22.041Z</time></trkpt><trkpt lat="45.78567723181792" lon="10.501106855081826"><ele>399.5</ele><time>2026-04-06T12:03:23.041Z</time></trkpt><trkpt lat="45.78581800166625" lon="10.501097570669952"><ele>401.0</ele><time>2026-04-06T12:03:24.04Z</time></trkpt><trkpt lat="45.78596264114471" lon="10.501084970555658"><ele>402.25</ele><time>2026-04-06T12:03:25.04Z</time></trkpt><trkpt lat="45.78608637494878" lon="10.501065068082008"><ele>403.5</ele><time>2026-04-06T12:03:26.04Z</time></trkpt><trkpt lat="45.78621727313582" lon="10.501049256299625"><ele>404.75</ele><time>2026-04-06T12:03:27.04Z</time></trkpt><trkpt lat="45.78634698056309" lon="10.501067741412076"><ele>406.0</ele><time>2026-04-06T12:03:28.04Z</time></trkpt><trkpt lat="45.78646883117327" lon="10.501045739915392"><ele>406.0</ele><time>2026-04-06T12:03:29.04Z</time></trkpt><trkpt lat="45.78658844154464" lon="10.501050327869951"><ele>406.0</ele><time>2026-04-06T12:03:30.04Z</time></trkpt><trkpt lat="45.78669668832009" lon="10.501049447863055"><ele>406.0</ele><time>2026-04-06T12:03:31.04Z</time></trkpt><trkpt lat="45.78680627774138" lon="10.501040421630762"><ele>406.0</ele><time>2026-04-06T12:03:32.04Z</time></trkpt><trkpt lat="45.78692024134925" lon="10.50102607822222"><ele>407.0</ele><time>2026-04-06T12:03:33.04Z</time></trkpt><trkpt lat="45.78703877756643" lon="10.501018649706246"><ele>408.0</ele><time>2026-04-06T12:03:34.04Z</time></trkpt><trkpt lat="45.78714397408899" lon="10.501003535975304"><ele>409.0</ele><time>2026-04-06T12:03:35.04Z</time></trkpt><trkpt lat="45.78725310836774" lon="10.500965499651464"><ele>410.0</ele><time>2026-04-06T12:03:36.04Z</time></trkpt><trkpt lat="45.78736775697934" lon="10.500899808689056"><ele>410.0</ele><time>2026-04-06T12:03:37.04Z</time></trkpt><trkpt lat="45.787481380940875" lon="10.500846681311835"><ele>410.0</ele><time>2026-04-06T12:03:38.04Z</time></trkpt><trkpt lat="45.787606273141066" lon="10.500795859528244"><ele>410.0</ele><time>2026-04-06T12:03:39.04Z</time></trkpt><trkpt lat="45.78773606340337" lon="10.500733351460669"><ele>410.0</ele><time>2026-04-06T12:03:40.04Z</time></trkpt><trkpt lat="45.78785334118342" lon="10.500711187885813"><ele>408.6</ele><time>2026-04-06T12:03:41.04Z</time></trkpt><trkpt lat="45.78794542073068" lon="10.500677836500723"><ele>407.2</ele><time>2026-04-06T12:03:42.04Z</time></trkpt><trkpt lat="45.78803408200127" lon="10.500645723142993"><ele>405.79999999999995</ele><time>2026-04-06T12:03:43.04Z</time></trkpt><trkpt lat="45.7881228755256" lon="10.50061501300345"><ele>404.4</ele><time>2026-04-06T12:03:44.04Z</time></trkpt><trkpt lat="45.78821727294801" lon="10.500582301689388"><ele>403.0</ele><time>2026-04-06T12:03:45.04Z</time></trkpt><trkpt lat="45.7882974681408" lon="10.500532827700871"><ele>403.0</ele><time>2026-04-06T12:03:46.04Z</time></trkpt><trkpt lat="45.78836606155826" lon="10.500510466061952"><ele>403.0</ele><time>2026-04-06T12:03:47.04Z</time></trkpt><trkpt lat="45.78850432982539" lon="10.500473108725016"><ele>403.0</ele><time>2026-04-06T12:03:49.04Z</time></trkpt><trkpt lat="45.78859261765989" lon="10.500435480178282"><ele>403.0</ele><time>2026-04-06T12:03:50.04Z</time></trkpt><trkpt lat="45.78868301483824" lon="10.500402625530988"><ele>403.0</ele><time>2026-04-06T12:03:51.04Z</time></trkpt><trkpt lat="45.7887616911105" lon="10.50037604644329"><ele>406.33333333333337</ele><time>2026-04-06T12:03:52.04Z</time></trkpt><trkpt lat="45.78883843106142" lon="10.500348363833504"><ele>409.6666666666667</ele><time>2026-04-06T12:03:53.04Z</time></trkpt><trkpt lat="45.78891851073858" lon="10.50032188233631"><ele>413.0</ele><time>2026-04-06T12:03:54.04Z</time></trkpt><trkpt lat="45.78899392631826" lon="10.500298404814604"><ele>416.33333333333337</ele><time>2026-04-06T12:03:55.04Z</time></trkpt><trkpt lat="45.78908837337417" lon="10.50027186246684"><ele>419.6666666666667</ele><time>2026-04-06T12:03:56.04Z</time></trkpt><trkpt lat="45.7891723262072" lon="10.500238216935726"><ele>423.0</ele><time>2026-04-06T12:03:57.04Z</time></trkpt><trkpt lat="45.78925764225699" lon="10.500202512975381"><ele>423.2</ele><time>2026-04-06T12:03:58.04Z</time></trkpt><trkpt lat="45.789353832225395" lon="10.500173493952598"><ele>423.4</ele><time>2026-04-06T12:03:59.04Z</time></trkpt><trkpt lat="45.78945542794038" lon="10.50014935155081"><ele>423.59999999999997</ele><time>2026-04-06T12:04:00.04Z</time></trkpt><trkpt lat="45.789558751651725" lon="10.500133641928395"><ele>423.79999999999995</ele><time>2026-04-06T12:04:01.04Z</time></trkpt><trkpt lat="45.78969096031827" lon="10.500089297080734"><ele>424.0</ele><time>2026-04-06T12:04:02.04Z</time></trkpt><trkpt lat="45.78982831653447" lon="10.500071810703375"><ele>424.0</ele><time>2026-04-06T12:04:03.04Z</time></trkpt><trkpt lat="45.79000265981119" lon="10.500076552400918"><ele>424.0</ele><time>2026-04-06T12:04:04.04Z</time></trkpt><trkpt lat="45.79018459125138" lon="10.500071928046678"><ele>424.0</ele><time>2026-04-06T12:04:05.04Z</time></trkpt><trkpt lat="45.79033336734233" lon="10.500075278846918"><ele>425.33333333333337</ele><time>2026-04-06T12:04:06.04Z</time></trkpt><trkpt lat="45.790484311186454" lon="10.500073627134006"><ele>426.66666666666663</ele><time>2026-04-06T12:04:07.04Z</time></trkpt><trkpt lat="45.790666967342645" lon="10.500101733077429"><ele>428.0</ele><time>2026-04-06T12:04:08.04Z</time></trkpt><trkpt lat="45.79084159421809" lon="10.500181078468014"><ele>428.0</ele><time>2026-04-06T12:04:09.04Z</time></trkpt><trkpt lat="45.790984161889185" lon="10.500231856543635"><ele>428.0</ele><time>2026-04-06T12:04:10.04Z</time></trkpt><trkpt lat="45.79111860068734" lon="10.500217729337184"><ele>428.0</ele><time>2026-04-06T12:04:11.04Z</time></trkpt><trkpt lat="45.79126507380476" lon="10.500151097035923"><ele>428.0</ele><time>2026-04-06T12:04:12.04Z</time></trkpt><trkpt lat="45.79140181783256" lon="10.500060285969663"><ele>428.2</ele><time>2026-04-06T12:04:13.04Z</time></trkpt><trkpt lat="45.79151122406424" lon="10.499972450347654"><ele>428.4</ele><time>2026-04-06T12:04:14.04Z</time></trkpt><trkpt lat="45.79160323562525" lon="10.499879051193275"><ele>428.59999999999997</ele><time>2026-04-06T12:04:15.04Z</time></trkpt><trkpt lat="45.791675858018465" lon="10.499789431209685"><ele>428.79999999999995</ele><time>2026-04-06T12:04:16.04Z</time></trkpt><trkpt lat="45.79174194505662" lon="10.499720935748979"><ele>429.0</ele><time>2026-04-06T12:04:17.04Z</time></trkpt><trkpt lat="45.79181437605543" lon="10.499692805112742"><ele>432.5</ele><time>2026-04-06T12:04:18.04Z</time></trkpt><trkpt lat="45.79190434499487" lon="10.499703673966058"><ele>436.0</ele><time>2026-04-06T12:04:19.04Z</time></trkpt><trkpt lat="45.791999957462366" lon="10.499772764574097"><ele>439.5</ele><time>2026-04-06T12:04:20.04Z</time></trkpt><trkpt lat="45.792098986407666" lon="10.499905975247005"><ele>443.0</ele><time>2026-04-06T12:04:21.04Z</time></trkpt><trkpt lat="45.792208146220126" lon="10.500097307037143"><ele>443.0</ele><time>2026-04-06T12:04:22.04Z</time></trkpt><trkpt lat="45.792331813507715" lon="10.500282928495537"><ele>443.0</ele><time>2026-04-06T12:04:23.04Z</time></trkpt><trkpt lat="45.79244788520404" lon="10.500421548635927"><ele>443.0</ele><time>2026-04-06T12:04:24.04Z</time></trkpt><trkpt lat="45.79256057265261" lon="10.500509886464785"><ele>440.4</ele><time>2026-04-06T12:04:25.04Z</time></trkpt><trkpt lat="45.79267574983741" lon="10.500569610674402"><ele>437.79999999999995</ele><time>2026-04-06T12:04:26.04Z</time></trkpt><trkpt lat="45.79278586109555" lon="10.500603522759228"><ele>435.2</ele><time>2026-04-06T12:04:27.04Z</time></trkpt><trkpt lat="45.79288687194483" lon="10.500633076913664"><ele>432.6</ele><time>2026-04-06T12:04:28.04Z</time></trkpt><trkpt lat="45.79299129873508" lon="10.500669272294475"><ele>430.0</ele><time>2026-04-06T12:04:29.04Z</time></trkpt><trkpt lat="45.79310385749446" lon="10.500706062833874"><ele>430.0</ele><time>2026-04-06T12:04:30.04Z</time></trkpt><trkpt lat="45.79322694831145" lon="10.500752103308612"><ele>430.0</ele><time>2026-04-06T12:04:31.04Z</time></trkpt><trkpt lat="45.79336343136209" lon="10.500797146556616"><ele>430.0</ele><time>2026-04-06T12:04:32.04Z</time></trkpt><trkpt lat="45.7935095344754" lon="10.500823633536802"><ele>430.0</ele><time>2026-04-06T12:04:33.04Z</time></trkpt><trkpt lat="45.7936534117056" lon="10.500873563459933"><ele>432.5</ele><time>2026-04-06T12:04:34.04Z</time></trkpt><trkpt lat="45.79377251913611" lon="10.500899636300485"><ele>435.0</ele><time>2026-04-06T12:04:35.04Z</time></trkpt><trkpt lat="45.793893241829146" lon="10.500924881912347"><ele>437.5</ele><time>2026-04-06T12:04:36.04Z</time></trkpt><trkpt lat="45.79401553053407" lon="10.500957772067057"><ele>440.0</ele><time>2026-04-06T12:04:37.04Z</time></trkpt><trkpt lat="45.79414165445484" lon="10.500980931559841"><ele>440.0</ele><time>2026-04-06T12:04:38.04Z</time></trkpt><trkpt lat="45.79426511561322" lon="10.500979192328666"><ele>440.0</ele><time>2026-04-06T12:04:39.04Z</time></trkpt><trkpt lat="45.79439067411147" lon="10.500963784424084"><ele>440.0</ele><time>2026-04-06T12:04:40.04Z</time></trkpt><trkpt lat="45.7945132323827" lon="10.500977133068199"><ele>440.0</ele><time>2026-04-06T12:04:41.04Z</time></trkpt><trkpt lat="45.79463352852832" lon="10.50102689196501"><ele>437.25</ele><time>2026-04-06T12:04:42.04Z</time></trkpt><trkpt lat="45.794738341146655" lon="10.501131167454234"><ele>434.5</ele><time>2026-04-06T12:04:43.04Z</time></trkpt><trkpt lat="45.79482425219181" lon="10.50126645720831"><ele>431.75</ele><time>2026-04-06T12:04:44.04Z</time></trkpt><trkpt lat="45.7949250382673" lon="10.50134611655542"><ele>429.0</ele><time>2026-04-06T12:04:45.04Z</time></trkpt><trkpt lat="45.79503982868243" lon="10.50139300751797"><ele>429.0</ele><time>2026-04-06T12:04:46.04Z</time></trkpt><trkpt lat="45.795155223910996" lon="10.501427025542487"><ele>429.0</ele><time>2026-04-06T12:04:47.04Z</time></trkpt><trkpt lat="45.795288091888644" lon="10.501460691260341"><ele>429.0</ele><time>2026-04-06T12:04:48.04Z</time></trkpt><trkpt lat="45.7953915260891" lon="10.501508535959074"><ele>429.0</ele><time>2026-04-06T12:04:49.04Z</time></trkpt><trkpt lat="45.79548910554502" lon="10.501548502830452"><ele>431.8333333333333</ele><time>2026-04-06T12:04:50.04Z</time></trkpt><trkpt lat="45.79557160777503" lon="10.501553533532531"><ele>434.66666666666663</ele><time>2026-04-06T12:04:51.04Z</time></trkpt><trkpt lat="45.79564260022157" lon="10.501550412862155"><ele>437.5</ele><time>2026-04-06T12:04:52.04Z</time></trkpt><trkpt lat="45.79572281488799" lon="10.501554943637023"><ele>440.3333333333333</ele><time>2026-04-06T12:04:53.04Z</time></trkpt><trkpt lat="45.79580321742449" lon="10.501585427918654"><ele>443.16666666666663</ele><time>2026-04-06T12:04:54.04Z</time></trkpt><trkpt lat="45.795885239402125" lon="10.501630465157135"><ele>446.0</ele><time>2026-04-06T12:04:55.04Z</time></trkpt><trkpt lat="45.79599647881247" lon="10.50174569545366"><ele>451.4</ele><time>2026-04-06T12:04:57.04Z</time></trkpt><trkpt lat="45.796062408774766" lon="10.501786134979724"><ele>456.8</ele><time>2026-04-06T12:04:58.04Z</time></trkpt><trkpt lat="45.79614262000103" lon="10.501824242404156"><ele>462.19999999999993</ele><time>2026-04-06T12:04:59.04Z</time></trkpt><trkpt lat="45.79623796600728" lon="10.501862679922978"><ele>467.59999999999997</ele><time>2026-04-06T12:05:00.04Z</time></trkpt><trkpt lat="45.796348650362496" lon="10.50188746772193"><ele>473.0</ele><time>2026-04-06T12:05:01.04Z</time></trkpt><trkpt lat="45.79646148625806" lon="10.501929314503299"><ele>473.0</ele><time>2026-04-06T12:05:02.04Z</time></trkpt><trkpt lat="45.79656219306562" lon="10.501986351364575"><ele>472.99999999999994</ele><time>2026-04-06T12:05:03.04Z</time></trkpt><trkpt lat="45.79663652081962" lon="10.502091341277657"><ele>472.99999999999994</ele><time>2026-04-06T12:05:04.04Z</time></trkpt><trkpt lat="45.7966872568195" lon="10.502236536483547"><ele>473.0</ele><time>2026-04-06T12:05:05.04Z</time></trkpt><trkpt lat="45.79672410487919" lon="10.502382117351868"><ele>473.0</ele><time>2026-04-06T12:05:06.04Z</time></trkpt><trkpt lat="45.79675107598269" lon="10.502523043545729"><ele>474.16666666666663</ele><time>2026-04-06T12:05:07.04Z</time></trkpt><trkpt lat="45.79679186106111" lon="10.502633606373996"><ele>475.3333333333333</ele><time>2026-04-06T12:05:08.04Z</time></trkpt><trkpt lat="45.79683824778222" lon="10.502731845166508"><ele>476.5</ele><time>2026-04-06T12:05:09.04Z</time></trkpt><trkpt lat="45.796888069160104" lon="10.502825644469318"><ele>477.66666666666663</ele><time>2026-04-06T12:05:10.04Z</time></trkpt><trkpt lat="45.79693988148478" lon="10.502913197291493"><ele>478.8333333333333</ele><time>2026-04-06T12:05:11.04Z</time></trkpt><trkpt lat="45.79698907358638" lon="10.50299880139595"><ele>480.0</ele><time>2026-04-06T12:05:12.04Z</time></trkpt><trkpt lat="45.79701832869073" lon="10.503087643214048"><ele>476.3333333333333</ele><time>2026-04-06T12:05:14.04Z</time></trkpt><trkpt lat="45.79710333038466" lon="10.503133106430939"><ele>472.66666666666663</ele><time>2026-04-06T12:05:30.039Z</time></trkpt><trkpt lat="45.79713692715532" lon="10.503235821388468"><ele>469.0</ele><time>2026-04-06T12:05:32.039Z</time></trkpt><trkpt lat="45.79718063499691" lon="10.503314796795584"><ele>465.3333333333333</ele><time>2026-04-06T12:06:09.039Z</time></trkpt><trkpt lat="45.797122168917724" lon="10.503272364437649"><ele>461.66666666666663</ele><time>2026-04-06T12:08:11.037Z</time></trkpt><trkpt lat="45.79720335333707" lon="10.503331394306633"><ele>458.0</ele><time>2026-04-06T12:08:38.037Z</time></trkpt><trkpt lat="45.79718021829713" lon="10.503241927480152"><ele>458.0</ele><time>2026-04-06T12:10:14.032Z</time></trkpt><trkpt lat="45.79725182103417" lon="10.503357581080204"><ele>457.99999999999994</ele><time>2026-04-06T12:12:06.03Z</time></trkpt><trkpt lat="45.79734462144542" lon="10.503428409086764"><ele>457.99999999999994</ele><time>2026-04-06T12:12:08.03Z</time></trkpt><trkpt lat="45.79743284004357" lon="10.503492550825568"><ele>458.0</ele><time>2026-04-06T12:12:10.03Z</time></trkpt><trkpt lat="45.79752687993579" lon="10.5035281386367"><ele>458.0</ele><time>2026-04-06T12:12:12.03Z</time></trkpt><trkpt lat="45.79761385892085" lon="10.503578427033858"><ele>460.4</ele><time>2026-04-06T12:12:14.03Z</time></trkpt><trkpt lat="45.79772222520155" lon="10.503653427391894"><ele>462.79999999999995</ele><time>2026-04-06T12:12:16.03Z</time></trkpt><trkpt lat="45.79780138513708" lon="10.503704970746433"><ele>465.2</ele><time>2026-04-06T12:12:17.03Z</time></trkpt><trkpt lat="45.79787170787245" lon="10.503774648026685"><ele>467.6</ele><time>2026-04-06T12:12:18.03Z</time></trkpt><trkpt lat="45.79793966598574" lon="10.503832711904366"><ele>470.0</ele><time>2026-04-06T12:12:19.03Z</time></trkpt><trkpt lat="45.798024672203546" lon="10.503877714631022"><ele>464.2</ele><time>2026-04-06T12:12:20.03Z</time></trkpt><trkpt lat="45.79812387402627" lon="10.503905332583715"><ele>458.4</ele><time>2026-04-06T12:12:21.03Z</time></trkpt><trkpt lat="45.7982191478796" lon="10.503950205809197"><ele>452.6</ele><time>2026-04-06T12:12:22.03Z</time></trkpt><trkpt lat="45.79831954588128" lon="10.504004673928335"><ele>446.8</ele><time>2026-04-06T12:12:23.03Z</time></trkpt><trkpt lat="45.798399125963215" lon="10.504085526274423"><ele>441.0</ele><time>2026-04-06T12:12:24.03Z</time></trkpt><trkpt lat="45.79847017904512" lon="10.504142600883835"><ele>441.6</ele><time>2026-04-06T12:12:25.03Z</time></trkpt><trkpt lat="45.79854547728506" lon="10.50417758148508"><ele>442.20000000000005</ele><time>2026-04-06T12:12:26.03Z</time></trkpt><trkpt lat="45.798703215612406" lon="10.504214372022696"><ele>442.79999999999995</ele><time>2026-04-06T12:12:27.03Z</time></trkpt><trkpt lat="45.79879157697542" lon="10.504276889924425"><ele>443.4</ele><time>2026-04-06T12:12:28.03Z</time></trkpt><trkpt lat="45.79887725106154" lon="10.504342906516788"><ele>444.0</ele><time>2026-04-06T12:12:29.03Z</time></trkpt><trkpt lat="45.798961296460874" lon="10.504372190250502"><ele>444.0</ele><time>2026-04-06T12:12:30.03Z</time></trkpt><trkpt lat="45.79905656953359" lon="10.504368990229093"><ele>444.0</ele><time>2026-04-06T12:12:31.03Z</time></trkpt><trkpt lat="45.79914023256475" lon="10.504329548400664"><ele>444.0</ele><time>2026-04-06T12:12:32.03Z</time></trkpt><trkpt lat="45.799211655949264" lon="10.504246660174687"><ele>444.0</ele><time>2026-04-06T12:12:33.03Z</time></trkpt><trkpt lat="45.79926809570817" lon="10.50415779191855"><ele>444.0</ele><time>2026-04-06T12:12:34.03Z</time></trkpt><trkpt lat="45.79932948379654" lon="10.504088506505697"><ele>444.0</ele><time>2026-04-06T12:12:35.03Z</time></trkpt><trkpt lat="45.79937574763236" lon="10.504016423733697"><ele>441.8333333333333</ele><time>2026-04-06T12:12:36.03Z</time></trkpt><trkpt lat="45.79942213440215" lon="10.503945504075817"><ele>439.66666666666663</ele><time>2026-04-06T12:12:37.03Z</time></trkpt><trkpt lat="45.79948094519575" lon="10.503876113157624"><ele>437.5</ele><time>2026-04-06T12:12:38.03Z</time></trkpt><trkpt lat="45.79953926624068" lon="10.50383210200678"><ele>435.3333333333333</ele><time>2026-04-06T12:12:39.03Z</time></trkpt><trkpt lat="45.79965663917586" lon="10.503774786776145"><ele>433.16666666666663</ele><time>2026-04-06T12:12:41.03Z</time></trkpt><trkpt lat="45.7997251739773" lon="10.503764282227282"><ele>431.0</ele><time>2026-04-06T12:12:42.03Z</time></trkpt><trkpt lat="45.79979641650932" lon="10.503757641724766"><ele>430.99999999999994</ele><time>2026-04-06T12:12:43.03Z</time></trkpt><trkpt lat="45.79986210282212" lon="10.50374793300514"><ele>431.0</ele><time>2026-04-06T12:12:44.03Z</time></trkpt><trkpt lat="45.799933149249284" lon="10.503740604176986"><ele>431.0</ele><time>2026-04-06T12:12:45.03Z</time></trkpt><trkpt lat="45.80001459983522" lon="10.503759060517986"><ele>431.0</ele><time>2026-04-06T12:12:46.03Z</time></trkpt><trkpt lat="45.80007738336494" lon="10.503810378962964"><ele>430.99999999999994</ele><time>2026-04-06T12:12:47.03Z</time></trkpt><trkpt lat="45.80014309910781" lon="10.503989288710663"><ele>431.0</ele><time>2026-04-06T12:12:49.03Z</time></trkpt><trkpt lat="45.80021825598002" lon="10.504140634213657"><ele>431.0</ele><time>2026-04-06T12:12:51.03Z</time></trkpt><trkpt lat="45.800088667679724" lon="10.504422631252556"><ele>431.0</ele><time>2026-04-06T12:12:52.03Z</time></trkpt><trkpt lat="45.800050866566664" lon="10.504531871705"><ele>431.0</ele><time>2026-04-06T12:12:53.03Z</time></trkpt><trkpt lat="45.80061157490711" lon="10.504351332425314"><ele>432.5</ele><time>2026-04-06T12:12:54.03Z</time></trkpt><trkpt lat="45.80072396826772" lon="10.50439259719563"><ele>434.0</ele><time>2026-04-06T12:12:55.03Z</time></trkpt><trkpt lat="45.80084626420371" lon="10.504418760895867"><ele>435.5</ele><time>2026-04-06T12:12:56.03Z</time></trkpt><trkpt lat="45.80097547492694" lon="10.504472126462538"><ele>437.0</ele><time>2026-04-06T12:12:57.03Z</time></trkpt><trkpt lat="45.80109567919348" lon="10.504570938133881"><ele>433.0</ele><time>2026-04-06T12:12:58.03Z</time></trkpt><trkpt lat="45.80120037798544" lon="10.504682441526763"><ele>429.0</ele><time>2026-04-06T12:12:59.03Z</time></trkpt><trkpt lat="45.8013049201514" lon="10.50476780290947"><ele>425.0</ele><time>2026-04-06T12:13:00.03Z</time></trkpt><trkpt lat="45.80141829670308" lon="10.504820549249056"><ele>421.0</ele><time>2026-04-06T12:13:01.03Z</time></trkpt><trkpt lat="45.80153782943342" lon="10.504828349246756"><ele>421.0</ele><time>2026-04-06T12:13:02.03Z</time></trkpt><trkpt lat="45.80165305825127" lon="10.504800853804236"><ele>421.0</ele><time>2026-04-06T12:13:03.03Z</time></trkpt><trkpt lat="45.80176387937119" lon="10.504791792896244"><ele>421.0</ele><time>2026-04-06T12:13:04.03Z</time></trkpt><trkpt lat="45.801862584320524" lon="10.50483193698528"><ele>421.0</ele><time>2026-04-06T12:13:05.03Z</time></trkpt><trkpt lat="45.801924737390294" lon="10.504953016000679"><ele>421.0</ele><time>2026-04-06T12:13:06.03Z</time></trkpt><trkpt lat="45.802007366515305" lon="10.505084821618617"><ele>418.5</ele><time>2026-04-06T12:13:07.03Z</time></trkpt><trkpt lat="45.802095756052275" lon="10.505221335890724"><ele>416.0</ele><time>2026-04-06T12:13:08.03Z</time></trkpt><trkpt lat="45.802205401180814" lon="10.505324534013278"><ele>413.5</ele><time>2026-04-06T12:13:09.03Z</time></trkpt><trkpt lat="45.80231319083676" lon="10.505402516949916"><ele>411.0</ele><time>2026-04-06T12:13:10.03Z</time></trkpt><trkpt lat="45.8024329032936" lon="10.505454880258865"><ele>411.0</ele><time>2026-04-06T12:13:11.03Z</time></trkpt><trkpt lat="45.80255000641689" lon="10.505492376927899"><ele>411.0</ele><time>2026-04-06T12:13:12.03Z</time></trkpt><trkpt lat="45.802667785406506" lon="10.505535837667681"><ele>411.0</ele><time>2026-04-06T12:13:13.03Z</time></trkpt><trkpt lat="45.80277917313236" lon="10.505576388008581"><ele>411.0</ele><time>2026-04-06T12:13:14.03Z</time></trkpt><trkpt lat="45.80289516934236" lon="10.505607580333733"><ele>413.25</ele><time>2026-04-06T12:13:15.03Z</time></trkpt><trkpt lat="45.80301682062353" lon="10.505646961713802"><ele>415.5</ele><time>2026-04-06T12:13:16.03Z</time></trkpt><trkpt lat="45.80316182937529" lon="10.505658980448707"><ele>417.75</ele><time>2026-04-06T12:13:17.03Z</time></trkpt><trkpt lat="45.80331523911418" lon="10.505693571007543"><ele>420.0</ele><time>2026-04-06T12:13:18.03Z</time></trkpt><trkpt lat="45.803450505064774" lon="10.50575160874719"><ele>427.33333333333337</ele><time>2026-04-06T12:13:19.03Z</time></trkpt><trkpt lat="45.80357163976235" lon="10.505852390498289"><ele>434.6666666666667</ele><time>2026-04-06T12:13:20.03Z</time></trkpt><trkpt lat="45.80369707685638" lon="10.505986801971515"><ele>442.0</ele><time>2026-04-06T12:13:21.03Z</time></trkpt><trkpt lat="45.80385975371781" lon="10.506156469251918"><ele>438.75</ele><time>2026-04-06T12:13:22.03Z</time></trkpt><trkpt lat="45.803950621057524" lon="10.506350054868886"><ele>435.5</ele><time>2026-04-06T12:13:23.03Z</time></trkpt><trkpt lat="45.80405967820472" lon="10.506424355388473"><ele>432.25</ele><time>2026-04-06T12:13:24.03Z</time></trkpt><trkpt lat="45.804199072014214" lon="10.506509715075321"><ele>429.0</ele><time>2026-04-06T12:13:25.03Z</time></trkpt><trkpt lat="45.804366585648594" lon="10.506574964675215"><ele>429.0</ele><time>2026-04-06T12:13:26.03Z</time></trkpt><trkpt lat="45.804556267841576" lon="10.5066399638098"><ele>429.0</ele><time>2026-04-06T12:13:27.03Z</time></trkpt><trkpt lat="45.804730009590095" lon="10.50669454072109"><ele>429.0</ele><time>2026-04-06T12:13:28.03Z</time></trkpt><trkpt lat="45.80489369621218" lon="10.506723266747468"><ele>429.0</ele><time>2026-04-06T12:13:29.03Z</time></trkpt><trkpt lat="45.805051701235314" lon="10.50672558456222"><ele>429.0</ele><time>2026-04-06T12:13:30.03Z</time></trkpt><trkpt lat="45.8051979314443" lon="10.506728151755386"><ele>429.0</ele><time>2026-04-06T12:13:31.03Z</time></trkpt><trkpt lat="45.80534383883886" lon="10.506718411961371"><ele>430.25</ele><time>2026-04-06T12:13:32.03Z</time></trkpt><trkpt lat="45.80547417366721" lon="10.506683159612631"><ele>431.5</ele><time>2026-04-06T12:13:33.03Z</time></trkpt><trkpt lat="45.80561044000439" lon="10.506618085775456"><ele>432.75</ele><time>2026-04-06T12:13:34.03Z</time></trkpt><trkpt lat="45.805741339783765" lon="10.506628557711066"><ele>434.0</ele><time>2026-04-06T12:13:35.03Z</time></trkpt><trkpt lat="45.805874252949856" lon="10.506662354580042"><ele>440.0</ele><time>2026-04-06T12:13:36.03Z</time></trkpt><trkpt lat="45.80601861594976" lon="10.506747734892834"><ele>446.0</ele><time>2026-04-06T12:13:37.03Z</time></trkpt><trkpt lat="45.80616984315204" lon="10.506820929973637"><ele>452.0</ele><time>2026-04-06T12:13:38.03Z</time></trkpt><trkpt lat="45.80630460963536" lon="10.506923400566707"><ele>452.0</ele><time>2026-04-06T12:13:39.03Z</time></trkpt><trkpt lat="45.80642818457726" lon="10.507045121829522"><ele>452.0</ele><time>2026-04-06T12:13:40.03Z</time></trkpt><trkpt lat="45.80654703156472" lon="10.50717517802393"><ele>452.0</ele><time>2026-04-06T12:13:41.03Z</time></trkpt><trkpt lat="45.80666439407717" lon="10.507306707347293"><ele>452.0</ele><time>2026-04-06T12:13:42.03Z</time></trkpt><trkpt lat="45.806789479141926" lon="10.507412167969576"><ele>452.5</ele><time>2026-04-06T12:13:43.03Z</time></trkpt><trkpt lat="45.80691387048395" lon="10.507483761234896"><ele>453.0</ele><time>2026-04-06T12:13:44.03Z</time></trkpt><trkpt lat="45.80703745782826" lon="10.50753284929808"><ele>453.5</ele><time>2026-04-06T12:13:45.03Z</time></trkpt><trkpt lat="45.807153607614254" lon="10.507576775978565"><ele>454.0</ele><time>2026-04-06T12:13:46.03Z</time></trkpt><trkpt lat="45.8072566776526" lon="10.507611448547523"><ele>454.0</ele><time>2026-04-06T12:13:47.03Z</time></trkpt><trkpt lat="45.80736013762728" lon="10.50764547327391"><ele>454.0</ele><time>2026-04-06T12:13:48.03Z</time></trkpt><trkpt lat="45.80744903577174" lon="10.507732737517303"><ele>454.0</ele><time>2026-04-06T12:13:49.03Z</time></trkpt><trkpt lat="45.80751520767547" lon="10.507864588214874"><ele>454.0</ele><time>2026-04-06T12:13:50.03Z</time></trkpt><trkpt lat="45.80751664944164" lon="10.508056497128939"><ele>457.5</ele><time>2026-04-06T12:13:51.03Z</time></trkpt><trkpt lat="45.80755005844748" lon="10.508233744158758"><ele>461.0</ele><time>2026-04-06T12:13:52.03Z</time></trkpt><trkpt lat="45.8075873294321" lon="10.508390097794798"><ele>464.5</ele><time>2026-04-06T12:13:53.03Z</time></trkpt><trkpt lat="45.80766086707176" lon="10.50852983578777"><ele>468.0</ele><time>2026-04-06T12:13:54.028Z</time></trkpt><trkpt lat="45.807779292625604" lon="10.508655434696202"><ele>468.0</ele><time>2026-04-06T12:13:55.028Z</time></trkpt><trkpt lat="45.80788800312043" lon="10.508722778092828"><ele>467.99999999999994</ele><time>2026-04-06T12:13:56.028Z</time></trkpt><trkpt lat="45.807974884547356" lon="10.508800912646834"><ele>467.99999999999994</ele><time>2026-04-06T12:13:57.028Z</time></trkpt><trkpt lat="45.808052845117714" lon="10.508889361069226"><ele>468.0</ele><time>2026-04-06T12:13:58.028Z</time></trkpt><trkpt lat="45.808129931988475" lon="10.50897863288135"><ele>468.0</ele><time>2026-04-06T12:13:59.028Z</time></trkpt><trkpt lat="45.808207836196495" lon="10.509052351340873"><ele>467.75</ele><time>2026-04-06T12:14:00.028Z</time></trkpt><trkpt lat="45.80828899668322" lon="10.509145710061835"><ele>467.5</ele><time>2026-04-06T12:14:01.028Z</time></trkpt><trkpt lat="45.80839301081214" lon="10.509247505465925"><ele>467.25</ele><time>2026-04-06T12:14:02.028Z</time></trkpt><trkpt lat="45.808492855938454" lon="10.509335478364024"><ele>467.0</ele><time>2026-04-06T12:14:03.028Z</time></trkpt><trkpt lat="45.80858642101134" lon="10.509426707325957"><ele>467.0</ele><time>2026-04-06T12:14:04.028Z</time></trkpt><trkpt lat="45.80867836053296" lon="10.509542023263766"><ele>467.0</ele><time>2026-04-06T12:14:05.028Z</time></trkpt><trkpt lat="45.80878292981824" lon="10.509684860392644"><ele>467.0</ele><time>2026-04-06T12:14:06.028Z</time></trkpt><trkpt lat="45.80888696139118" lon="10.509854567926945"><ele>467.0</ele><time>2026-04-06T12:14:07.028Z</time></trkpt><trkpt lat="45.808979865849906" lon="10.5099990153769"><ele>464.6</ele><time>2026-04-06T12:14:08.028Z</time></trkpt><trkpt lat="45.80906157928858" lon="10.51013552636091"><ele>462.20000000000005</ele><time>2026-04-06T12:14:09.028Z</time></trkpt><trkpt lat="45.80913744351688" lon="10.510252068288327"><ele>459.8</ele><time>2026-04-06T12:14:10.028Z</time></trkpt><trkpt lat="45.809204071472344" lon="10.510364520676651"><ele>457.4</ele><time>2026-04-06T12:14:11.028Z</time></trkpt><trkpt lat="45.809265449213996" lon="10.510463384713963"><ele>455.0</ele><time>2026-04-06T12:14:12.028Z</time></trkpt><trkpt lat="45.8093262697761" lon="10.510558558360438"><ele>455.0</ele><time>2026-04-06T12:14:13.028Z</time></trkpt><trkpt lat="45.809381943349365" lon="10.510647551304682"><ele>455.0</ele><time>2026-04-06T12:14:14.028Z</time></trkpt><trkpt lat="45.809431730324874" lon="10.510726690762858"><ele>455.0</ele><time>2026-04-06T12:14:15.028Z</time></trkpt><trkpt lat="45.80947811308269" lon="10.510800575475692"><ele>455.0</ele><time>2026-04-06T12:14:16.028Z</time></trkpt><trkpt lat="45.809517785678615" lon="10.510871615064703"><ele>455.0</ele><time>2026-04-06T12:14:17.028Z</time></trkpt><trkpt lat="45.809555789164236" lon="10.510944118015258"><ele>455.0</ele><time>2026-04-06T12:14:18.028Z</time></trkpt><trkpt lat="45.80959634739318" lon="10.511017478617916"><ele>455.0</ele><time>2026-04-06T12:14:19.028Z</time></trkpt><trkpt lat="45.80965101132656" lon="10.511105903619978"><ele>455.0</ele><time>2026-04-06T12:14:20.028Z</time></trkpt><trkpt lat="45.80971588968235" lon="10.511216019215855"><ele>455.0</ele><time>2026-04-06T12:14:21.028Z</time></trkpt><trkpt lat="45.80978820827333" lon="10.511342915152678"><ele>455.0</ele><time>2026-04-06T12:14:22.028Z</time></trkpt><trkpt lat="45.80986523057248" lon="10.511498462959882"><ele>455.0</ele><time>2026-04-06T12:14:23.028Z</time></trkpt><trkpt lat="45.80995327424217" lon="10.51166930330139"><ele>450.75</ele><time>2026-04-06T12:14:24.028Z</time></trkpt><trkpt lat="45.81003301711793" lon="10.511824752640047"><ele>446.5</ele><time>2026-04-06T12:14:25.028Z</time></trkpt><trkpt lat="45.81010670483597" lon="10.51195669529858"><ele>442.25</ele><time>2026-04-06T12:14:26.028Z</time></trkpt><trkpt lat="45.81017920052626" lon="10.51208570037189"><ele>438.0</ele><time>2026-04-06T12:14:27.028Z</time></trkpt><trkpt lat="45.810244442457325" lon="10.51221155881686"><ele>438.0</ele><time>2026-04-06T12:14:28.028Z</time></trkpt><trkpt lat="45.8103097756557" lon="10.512335375223937"><ele>438.0</ele><time>2026-04-06T12:14:29.028Z</time></trkpt><trkpt lat="45.81038241576607" lon="10.51247313105295"><ele>438.0</ele><time>2026-04-06T12:14:30.028Z</time></trkpt><trkpt lat="45.81048993820154" lon="10.512634319983693"><ele>438.0</ele><time>2026-04-06T12:14:31.028Z</time></trkpt><trkpt lat="45.81063557102225" lon="10.512804021992876"><ele>439.5</ele><time>2026-04-06T12:14:32.028Z</time></trkpt><trkpt lat="45.81082757608162" lon="10.512972543561085"><ele>441.0</ele><time>2026-04-06T12:14:33.028Z</time></trkpt><trkpt lat="45.81102298887851" lon="10.51314936145929"><ele>441.0</ele><time>2026-04-06T12:14:34.028Z</time></trkpt><trkpt lat="45.81117639180078" lon="10.513328209738761"><ele>441.0</ele><time>2026-04-06T12:14:35.028Z</time></trkpt><trkpt lat="45.81129296068638" lon="10.513537659445175"><ele>441.0</ele><time>2026-04-06T12:14:36.028Z</time></trkpt><trkpt lat="45.81140606602993" lon="10.51374434667839"><ele>436.33333333333337</ele><time>2026-04-06T12:14:37.028Z</time></trkpt><trkpt lat="45.81154184627904" lon="10.513966326912273"><ele>431.6666666666667</ele><time>2026-04-06T12:14:38.028Z</time></trkpt><trkpt lat="45.81165216612709" lon="10.514186405448326"><ele>427.0</ele><time>2026-04-06T12:14:39.028Z</time></trkpt><trkpt lat="45.81176943789418" lon="10.514369307517784"><ele>428.0</ele><time>2026-04-06T12:14:40.028Z</time></trkpt><trkpt lat="45.81191285789793" lon="10.514528844389558"><ele>429.0</ele><time>2026-04-06T12:14:41.028Z</time></trkpt><trkpt lat="45.812099469782844" lon="10.51468033146322"><ele>430.0</ele><time>2026-04-06T12:14:42.028Z</time></trkpt><trkpt lat="45.81231954738968" lon="10.514819995031234"><ele>430.0</ele><time>2026-04-06T12:14:43.028Z</time></trkpt><trkpt lat="45.81250677653226" lon="10.514947780923924"><ele>430.0</ele><time>2026-04-06T12:14:44.028Z</time></trkpt><trkpt lat="45.812649117857795" lon="10.515110359556333"><ele>430.0</ele><time>2026-04-06T12:14:45.028Z</time></trkpt><trkpt lat="45.8127671889956" lon="10.515274323929402"><ele>432.33333333333337</ele><time>2026-04-06T12:14:46.028Z</time></trkpt><trkpt lat="45.812864433217904" lon="10.515491203568608"><ele>434.66666666666663</ele><time>2026-04-06T12:14:47.028Z</time></trkpt><trkpt lat="45.81297405888153" lon="10.51571591878773"><ele>437.0</ele><time>2026-04-06T12:14:48.028Z</time></trkpt><trkpt lat="45.813060198454565" lon="10.515923363413771"><ele>437.0</ele><time>2026-04-06T12:14:49.028Z</time></trkpt><trkpt lat="45.81314738502874" lon="10.516099396249523"><ele>437.0</ele><time>2026-04-06T12:14:50.028Z</time></trkpt><trkpt lat="45.81323438516901" lon="10.516256427184425"><ele>437.0</ele><time>2026-04-06T12:14:51.028Z</time></trkpt><trkpt lat="45.81332273979543" lon="10.516404246528467"><ele>437.0</ele><time>2026-04-06T12:14:52.028Z</time></trkpt><trkpt lat="45.81341195513671" lon="10.51655081946229"><ele>438.0</ele><time>2026-04-06T12:14:53.028Z</time></trkpt><trkpt lat="45.813505375115646" lon="10.516685387046792"><ele>439.0</ele><time>2026-04-06T12:14:54.028Z</time></trkpt><trkpt lat="45.81359769089353" lon="10.516818390983618"><ele>440.0</ele><time>2026-04-06T12:14:55.028Z</time></trkpt><trkpt lat="45.81368174826303" lon="10.516945143018788"><ele>441.0</ele><time>2026-04-06T12:14:56.028Z</time></trkpt><trkpt lat="45.81376340418497" lon="10.517074551423002"><ele>436.25</ele><time>2026-04-06T12:14:57.028Z</time></trkpt><trkpt lat="45.81384628805976" lon="10.517187387364473"><ele>431.5</ele><time>2026-04-06T12:14:58.028Z</time></trkpt><trkpt lat="45.81394094105597" lon="10.517288660499412"><ele>426.75</ele><time>2026-04-06T12:14:59.028Z</time></trkpt><trkpt lat="45.81403972554437" lon="10.517377056774272"><ele>422.0</ele><time>2026-04-06T12:15:00.028Z</time></trkpt><trkpt lat="45.814130706373994" lon="10.517468701299274"><ele>422.0</ele><time>2026-04-06T12:15:01.028Z</time></trkpt><trkpt lat="45.814213001208984" lon="10.517558424430522"><ele>422.0</ele><time>2026-04-06T12:15:02.028Z</time></trkpt><trkpt lat="45.8142969870796" lon="10.517651086647493"><ele>422.0</ele><time>2026-04-06T12:15:03.028Z</time></trkpt><trkpt lat="45.81438279884527" lon="10.517748549694163"><ele>422.0</ele><time>2026-04-06T12:15:04.028Z</time></trkpt><trkpt lat="45.81446464332239" lon="10.517836198278292"><ele>422.0</ele><time>2026-04-06T12:15:05.028Z</time></trkpt><trkpt lat="45.8145567469563" lon="10.517923316641308"><ele>421.40000000000003</ele><time>2026-04-06T12:15:06.028Z</time></trkpt><trkpt lat="45.81464201306245" lon="10.518022372617644"><ele>420.8</ele><time>2026-04-06T12:15:07.028Z</time></trkpt><trkpt lat="45.81473247782912" lon="10.518132603206958"><ele>420.2</ele><time>2026-04-06T12:15:08.028Z</time></trkpt><trkpt lat="45.81480782772941" lon="10.518255501118277"><ele>419.6</ele><time>2026-04-06T12:15:09.028Z</time></trkpt><trkpt lat="45.81484765646803" lon="10.518369351118256"><ele>419.0</ele><time>2026-04-06T12:15:10.028Z</time></trkpt><trkpt lat="45.81488920332513" lon="10.518472427731503"><ele>418.99999999999994</ele><time>2026-04-06T12:15:11.028Z</time></trkpt><trkpt lat="45.81494260859081" lon="10.518566026304288"><ele>419.0</ele><time>2026-04-06T12:15:12.028Z</time></trkpt><trkpt lat="45.814981590315675" lon="10.518670786060774"><ele>419.0</ele><time>2026-04-06T12:15:13.028Z</time></trkpt><trkpt lat="45.81503356280081" lon="10.518758315576424"><ele>419.0</ele><time>2026-04-06T12:15:14.028Z</time></trkpt><trkpt lat="45.815097903378714" lon="10.518810894558182"><ele>418.99999999999994</ele><time>2026-04-06T12:15:15.028Z</time></trkpt><trkpt lat="45.8151803345152" lon="10.518900885026296"><ele>419.0</ele><time>2026-04-06T12:15:16.028Z</time></trkpt><trkpt lat="45.815294586201446" lon="10.518990405056527"><ele>416.0</ele><time>2026-04-06T12:15:17.028Z</time></trkpt><trkpt lat="45.81540939071098" lon="10.519040635221222"><ele>413.0</ele><time>2026-04-06T12:15:18.028Z</time></trkpt><trkpt lat="45.81552790872115" lon="10.519094388514215"><ele>410.0</ele><time>2026-04-06T12:15:19.028Z</time></trkpt><trkpt lat="45.81564412743339" lon="10.519159467780733"><ele>407.0</ele><time>2026-04-06T12:15:20.028Z</time></trkpt><trkpt lat="45.8157681900198" lon="10.5192240631376"><ele>407.0</ele><time>2026-04-06T12:15:21.028Z</time></trkpt><trkpt lat="45.8158999037609" lon="10.519293633095119"><ele>407.0</ele><time>2026-04-06T12:15:22.028Z</time></trkpt><trkpt lat="45.81602755909593" lon="10.519361684799998"><ele>407.0</ele><time>2026-04-06T12:15:23.028Z</time></trkpt><trkpt lat="45.816169361620965" lon="10.519433595291591"><ele>407.0</ele><time>2026-04-06T12:15:24.028Z</time></trkpt><trkpt lat="45.816303187972395" lon="10.519498217059928"><ele>405.0</ele><time>2026-04-06T12:15:25.028Z</time></trkpt><trkpt lat="45.81642669789561" lon="10.519588376952413"><ele>403.0</ele><time>2026-04-06T12:15:26.028Z</time></trkpt><trkpt lat="45.81654350916789" lon="10.519715448516356"><ele>401.0</ele><time>2026-04-06T12:15:27.028Z</time></trkpt><trkpt lat="45.81664358430488" lon="10.519861831919151"><ele>399.0</ele><time>2026-04-06T12:15:28.028Z</time></trkpt><trkpt lat="45.81675486065642" lon="10.52003617773752"><ele>401.0</ele><time>2026-04-06T12:15:29.028Z</time></trkpt><trkpt lat="45.81686039579777" lon="10.520248613415607"><ele>403.0</ele><time>2026-04-06T12:15:30.028Z</time></trkpt><trkpt lat="45.81697430439576" lon="10.520438895225233"><ele>405.0</ele><time>2026-04-06T12:15:31.028Z</time></trkpt><trkpt lat="45.817080663947955" lon="10.520616566455756"><ele>405.0</ele><time>2026-04-06T12:15:32.028Z</time></trkpt><trkpt lat="45.81717900278533" lon="10.520781066783309"><ele>405.0</ele><time>2026-04-06T12:15:33.028Z</time></trkpt><trkpt lat="45.81727424449878" lon="10.520940401305793"><ele>405.0</ele><time>2026-04-06T12:15:34.028Z</time></trkpt><trkpt lat="45.81736817989805" lon="10.521097550487802"><ele>405.0</ele><time>2026-04-06T12:15:35.028Z</time></trkpt><trkpt lat="45.817457797298744" lon="10.521247277622871"><ele>403.5</ele><time>2026-04-06T12:15:36.028Z</time></trkpt><trkpt lat="45.81754253331621" lon="10.52138736062707"><ele>402.0</ele><time>2026-04-06T12:15:37.028Z</time></trkpt><trkpt lat="45.81763002165454" lon="10.521505241379542"><ele>400.5</ele><time>2026-04-06T12:15:38.028Z</time></trkpt><trkpt lat="45.81770332791138" lon="10.521639121323355"><ele>399.0</ele><time>2026-04-06T12:15:39.028Z</time></trkpt><trkpt lat="45.8177829293434" lon="10.521756628979448"><ele>399.0</ele><time>2026-04-06T12:15:40.028Z</time></trkpt><trkpt lat="45.81785636274514" lon="10.521883265134713"><ele>399.0</ele><time>2026-04-06T12:15:41.028Z</time></trkpt><trkpt lat="45.81792382972841" lon="10.522011148978969"><ele>399.0</ele><time>2026-04-06T12:15:42.028Z</time></trkpt><trkpt lat="45.81801112210353" lon="10.522148482117894"><ele>399.0</ele><time>2026-04-06T12:15:43.028Z</time></trkpt><trkpt lat="45.81808139971942" lon="10.522257197801103"><ele>401.0</ele><time>2026-04-06T12:15:44.028Z</time></trkpt><trkpt lat="45.81815284752882" lon="10.52237272998195"><ele>403.0</ele><time>2026-04-06T12:15:45.028Z</time></trkpt><trkpt lat="45.81823166578865" lon="10.522467098086501"><ele>405.0</ele><time>2026-04-06T12:15:46.028Z</time></trkpt><trkpt lat="45.81832633797527" lon="10.522538403046266"><ele>407.0</ele><time>2026-04-06T12:15:47.028Z</time></trkpt><trkpt lat="45.818423126244745" lon="10.522588720363341"><ele>409.0</ele><time>2026-04-06T12:15:48.028Z</time></trkpt><trkpt lat="45.818511533898885" lon="10.5226495840897"><ele>409.0</ele><time>2026-04-06T12:15:49.028Z</time></trkpt><trkpt lat="45.818596914289216" lon="10.522724244278443"><ele>409.0</ele><time>2026-04-06T12:15:50.028Z</time></trkpt><trkpt lat="45.81867442196299" lon="10.522822985792047"><ele>409.0</ele><time>2026-04-06T12:15:51.028Z</time></trkpt><trkpt lat="45.81874126025377" lon="10.522954647463733"><ele>409.0</ele><time>2026-04-06T12:15:52.028Z</time></trkpt><trkpt lat="45.818818104998314" lon="10.523072382177759"><ele>409.0</ele><time>2026-04-06T12:15:53.028Z</time></trkpt><trkpt lat="45.81888810793841" lon="10.523181354673264"><ele>404.2</ele><time>2026-04-06T12:15:54.028Z</time></trkpt><trkpt lat="45.818957297716885" lon="10.52328906130946"><ele>399.4</ele><time>2026-04-06T12:15:55.028Z</time></trkpt><trkpt lat="45.81902316764691" lon="10.523392375495225"><ele>394.6</ele><time>2026-04-06T12:15:56.028Z</time></trkpt><trkpt lat="45.81909807977805" lon="10.52347657990641"><ele>389.8</ele><time>2026-04-06T12:15:57.028Z</time></trkpt><trkpt lat="45.81914991897284" lon="10.52359308305099"><ele>385.0</ele><time>2026-04-06T12:15:58.028Z</time></trkpt><trkpt lat="45.81920900217146" lon="10.523691551566683"><ele>385.83333333333337</ele><time>2026-04-06T12:15:59.028Z</time></trkpt><trkpt lat="45.81926333200625" lon="10.523785581613286"><ele>386.6666666666667</ele><time>2026-04-06T12:16:00.028Z</time></trkpt><trkpt lat="45.81931751430544" lon="10.523879356343741"><ele>387.5</ele><time>2026-04-06T12:16:01.028Z</time></trkpt><trkpt lat="45.81937304373961" lon="10.523975462595235"><ele>388.33333333333337</ele><time>2026-04-06T12:16:02.028Z</time></trkpt><trkpt lat="45.819419552903874" lon="10.524055957212376"><ele>389.1666666666667</ele><time>2026-04-06T12:16:03.028Z</time></trkpt><trkpt lat="45.819464277056255" lon="10.524133362483767"><ele>390.0</ele><time>2026-04-06T12:16:04.028Z</time></trkpt><trkpt lat="45.81952058994095" lon="10.524194417958789"><ele>390.0</ele><time>2026-04-06T12:16:05.028Z</time></trkpt><trkpt lat="45.8195664393082" lon="10.524280508743981"><ele>390.0</ele><time>2026-04-06T12:16:06.028Z</time></trkpt><trkpt lat="45.81961846537349" lon="10.52437473956728"><ele>390.0</ele><time>2026-04-06T12:16:07.028Z</time></trkpt><trkpt lat="45.819655183782686" lon="10.524463940833396"><ele>390.0</ele><time>2026-04-06T12:16:08.028Z</time></trkpt><trkpt lat="45.819708170738295" lon="10.524532959320014"><ele>390.0</ele><time>2026-04-06T12:16:09.028Z</time></trkpt><trkpt lat="45.81975312382713" lon="10.524615077155156"><ele>390.0</ele><time>2026-04-06T12:16:10.028Z</time></trkpt><trkpt lat="45.819805079192356" lon="10.524703270006947"><ele>387.8333333333333</ele><time>2026-04-06T12:16:11.028Z</time></trkpt><trkpt lat="45.81986370030839" lon="10.524796468594069"><ele>385.6666666666667</ele><time>2026-04-06T12:16:12.028Z</time></trkpt><trkpt lat="45.81992035711348" lon="10.524886898554398"><ele>383.5</ele><time>2026-04-06T12:16:13.028Z</time></trkpt><trkpt lat="45.819961442816954" lon="10.524995455025373"><ele>381.33333333333337</ele><time>2026-04-06T12:16:14.028Z</time></trkpt><trkpt lat="45.82001105607219" lon="10.52508130435639"><ele>379.1666666666667</ele><time>2026-04-06T12:16:15.028Z</time></trkpt><trkpt lat="45.820056972481886" lon="10.52516075676153"><ele>377.0</ele><time>2026-04-06T12:16:16.028Z</time></trkpt><trkpt lat="45.82010348051282" lon="10.525241232931139"><ele>376.99999999999994</ele><time>2026-04-06T12:16:17.028Z</time></trkpt><trkpt lat="45.82014670077011" lon="10.525316020012434"><ele>377.0</ele><time>2026-04-06T12:16:18.028Z</time></trkpt><trkpt lat="45.82020098856259" lon="10.525374801505757"><ele>377.0</ele><time>2026-04-06T12:16:19.028Z</time></trkpt><trkpt lat="45.82024021335628" lon="10.52544996231472"><ele>377.0</ele><time>2026-04-06T12:16:20.028Z</time></trkpt><trkpt lat="45.82028158580739" lon="10.52552386286837"><ele>377.0</ele><time>2026-04-06T12:16:21.028Z</time></trkpt><trkpt lat="45.820317959339825" lon="10.525613588290248"><ele>376.99999999999994</ele><time>2026-04-06T12:16:22.028Z</time></trkpt><trkpt lat="45.820371469759756" lon="10.525706567975318"><ele>377.0</ele><time>2026-04-06T12:16:23.028Z</time></trkpt><trkpt lat="45.820431609459426" lon="10.525775411035482"><ele>377.1666666666667</ele><time>2026-04-06T12:16:24.028Z</time></trkpt><trkpt lat="45.82047675969529" lon="10.525854358299924"><ele>377.33333333333337</ele><time>2026-04-06T12:16:25.028Z</time></trkpt><trkpt lat="45.82052667770359" lon="10.525939392577124"><ele>377.5</ele><time>2026-04-06T12:16:26.028Z</time></trkpt><trkpt lat="45.82056607631975" lon="10.526044716276575"><ele>377.6666666666667</ele><time>2026-04-06T12:16:27.028Z</time></trkpt><trkpt lat="45.82062158347885" lon="10.526141165492582"><ele>377.8333333333333</ele><time>2026-04-06T12:16:28.028Z</time></trkpt><trkpt lat="45.820680828219785" lon="10.526244109276414"><ele>378.0</ele><time>2026-04-06T12:16:29.028Z</time></trkpt><trkpt lat="45.820737501967535" lon="10.526343455854747"><ele>378.0</ele><time>2026-04-06T12:16:30.028Z</time></trkpt><trkpt lat="45.820787728848174" lon="10.526430855654871"><ele>378.0</ele><time>2026-04-06T12:16:31.028Z</time></trkpt><trkpt lat="45.82083731701715" lon="10.526516962987882"><ele>378.0</ele><time>2026-04-06T12:16:32.028Z</time></trkpt><trkpt lat="45.820900171429585" lon="10.526625074740924"><ele>378.0</ele><time>2026-04-06T12:16:33.028Z</time></trkpt><trkpt lat="45.82096344937844" lon="10.526734155623608"><ele>378.0</ele><time>2026-04-06T12:16:34.028Z</time></trkpt><trkpt lat="45.8210237575839" lon="10.526836028256334"><ele>378.0</ele><time>2026-04-06T12:16:35.028Z</time></trkpt><trkpt lat="45.82108135987555" lon="10.526931708565575"><ele>378.8333333333333</ele><time>2026-04-06T12:16:36.028Z</time></trkpt><trkpt lat="45.82113730384813" lon="10.527018972083233"><ele>379.6666666666667</ele><time>2026-04-06T12:16:37.028Z</time></trkpt><trkpt lat="45.821195456125324" lon="10.52710187104202"><ele>380.5</ele><time>2026-04-06T12:16:38.028Z</time></trkpt><trkpt lat="45.821251868972695" lon="10.52717336654544"><ele>381.33333333333337</ele><time>2026-04-06T12:16:39.028Z</time></trkpt><trkpt lat="45.82131629392063" lon="10.527252975465217"><ele>382.1666666666667</ele><time>2026-04-06T12:16:40.028Z</time></trkpt><trkpt lat="45.821388059334794" lon="10.527340807065237"><ele>383.0</ele><time>2026-04-06T12:16:41.028Z</time></trkpt><trkpt lat="45.821478791045045" lon="10.527449339916979"><ele>383.0</ele><time>2026-04-06T12:16:42.028Z</time></trkpt><trkpt lat="45.82153337875589" lon="10.527512632257245"><ele>383.0</ele><time>2026-04-06T12:16:43.028Z</time></trkpt><trkpt lat="45.82160279129845" lon="10.527593113449122"><ele>383.0</ele><time>2026-04-06T12:16:44.028Z</time></trkpt><trkpt lat="45.821672685107" lon="10.527671542042569"><ele>383.0</ele><time>2026-04-06T12:16:45.028Z</time></trkpt><trkpt lat="45.821748181695604" lon="10.527753855924592"><ele>383.0</ele><time>2026-04-06T12:16:46.028Z</time></trkpt><trkpt lat="45.821828768925194" lon="10.527812023363344"><ele>383.0</ele><time>2026-04-06T12:16:47.028Z</time></trkpt><trkpt lat="45.82190676187531" lon="10.527882103838637"><ele>382.2</ele><time>2026-04-06T12:16:48.028Z</time></trkpt><trkpt lat="45.8219910699579" lon="10.527964798035994"><ele>381.4</ele><time>2026-04-06T12:16:49.028Z</time></trkpt><trkpt lat="45.82207918040833" lon="10.528026367295226"><ele>380.59999999999997</ele><time>2026-04-06T12:16:50.028Z</time></trkpt><trkpt lat="45.8221604315566" lon="10.528094207541036"><ele>379.79999999999995</ele><time>2026-04-06T12:16:51.028Z</time></trkpt><trkpt lat="45.82224366749471" lon="10.528162497342544"><ele>379.0</ele><time>2026-04-06T12:16:52.028Z</time></trkpt><trkpt lat="45.82234157449108" lon="10.52823680938143"><ele>379.0</ele><time>2026-04-06T12:16:53.028Z</time></trkpt><trkpt lat="45.82243806065274" lon="10.5283064870834"><ele>379.0</ele><time>2026-04-06T12:16:54.028Z</time></trkpt><trkpt lat="45.822531584427274" lon="10.52838036110487"><ele>379.0</ele><time>2026-04-06T12:16:55.028Z</time></trkpt><trkpt lat="45.82262679531858" lon="10.528454342146038"><ele>379.0</ele><time>2026-04-06T12:16:56.028Z</time></trkpt><trkpt lat="45.82271411826328" lon="10.528521315552544"><ele>379.0</ele><time>2026-04-06T12:16:57.028Z</time></trkpt><trkpt lat="45.82278743216705" lon="10.528595218667832"><ele>379.6</ele><time>2026-04-06T12:16:58.028Z</time></trkpt><trkpt lat="45.82286059648073" lon="10.528639151635302"><ele>380.2</ele><time>2026-04-06T12:16:59.028Z</time></trkpt><trkpt lat="45.82295986357625" lon="10.528711796762177"><ele>380.8</ele><time>2026-04-06T12:17:00.028Z</time></trkpt><trkpt lat="45.82304983232365" lon="10.528786402429276"><ele>381.40000000000003</ele><time>2026-04-06T12:17:01.028Z</time></trkpt><trkpt lat="45.82314385696463" lon="10.528855191106594"><ele>382.0</ele><time>2026-04-06T12:17:02.028Z</time></trkpt><trkpt lat="45.82324243810754" lon="10.528931801232629"><ele>382.0</ele><time>2026-04-06T12:17:03.028Z</time></trkpt><trkpt lat="45.823341836700905" lon="10.529013536193863"><ele>382.0</ele><time>2026-04-06T12:17:04.028Z</time></trkpt><trkpt lat="45.82344729571578" lon="10.52909792952731"><ele>382.0</ele><time>2026-04-06T12:17:05.028Z</time></trkpt><trkpt lat="45.82355188798699" lon="10.52918696432666"><ele>382.0</ele><time>2026-04-06T12:17:06.028Z</time></trkpt><trkpt lat="45.82366302496277" lon="10.529272820018258"><ele>382.6</ele><time>2026-04-06T12:17:07.028Z</time></trkpt><trkpt lat="45.82377963645565" lon="10.529353905457402"><ele>383.20000000000005</ele><time>2026-04-06T12:17:08.028Z</time></trkpt><trkpt lat="45.823884465796354" lon="10.529423633407687"><ele>383.8</ele><time>2026-04-06T12:17:09.028Z</time></trkpt><trkpt lat="45.82397040489848" lon="10.52949832604986"><ele>384.4</ele><time>2026-04-06T12:17:10.028Z</time></trkpt><trkpt lat="45.82405429804192" lon="10.529563206626328"><ele>385.0</ele><time>2026-04-06T12:17:11.028Z</time></trkpt><trkpt lat="45.824133942348816" lon="10.529626528146734"><ele>385.00000000000006</ele><time>2026-04-06T12:17:12.028Z</time></trkpt><trkpt lat="45.82420496026245" lon="10.529642554819604"><ele>385.0</ele><time>2026-04-06T12:17:13.028Z</time></trkpt><trkpt lat="45.82428150312855" lon="10.52969305848867"><ele>385.0</ele><time>2026-04-06T12:17:14.028Z</time></trkpt><trkpt lat="45.82436357771984" lon="10.529743327120308"><ele>385.0</ele><time>2026-04-06T12:17:15.028Z</time></trkpt><trkpt lat="45.824456030690726" lon="10.529787156683557"><ele>385.00000000000006</ele><time>2026-04-06T12:17:16.028Z</time></trkpt><trkpt lat="45.82454873347096" lon="10.529831077779852"><ele>385.0</ele><time>2026-04-06T12:17:17.028Z</time></trkpt><trkpt lat="45.82465108999655" lon="10.529872949759238"><ele>385.2</ele><time>2026-04-06T12:17:18.028Z</time></trkpt><trkpt lat="45.824744468326564" lon="10.529927240920118"><ele>385.4</ele><time>2026-04-06T12:17:19.028Z</time></trkpt><trkpt lat="45.824847063135174" lon="10.529981593856338"><ele>385.6</ele><time>2026-04-06T12:17:20.028Z</time></trkpt><trkpt lat="45.82492498307916" lon="10.530039614162552"><ele>385.8</ele><time>2026-04-06T12:17:21.028Z</time></trkpt><trkpt lat="45.82500993336666" lon="10.530088269113977"><ele>386.0</ele><time>2026-04-06T12:17:22.028Z</time></trkpt><trkpt lat="45.825069224895145" lon="10.530161664189759"><ele>385.99999999999994</ele><time>2026-04-06T12:17:23.028Z</time></trkpt><trkpt lat="45.82510698888587" lon="10.530242897978432"><ele>386.0</ele><time>2026-04-06T12:17:24.028Z</time></trkpt><trkpt lat="45.82512378322907" lon="10.53033322832947"><ele>386.0</ele><time>2026-04-06T12:17:25.028Z</time></trkpt><trkpt lat="45.82515557663788" lon="10.53041157117158"><ele>386.0</ele><time>2026-04-06T12:17:26.028Z</time></trkpt><trkpt lat="45.82523629800149" lon="10.530544901823621"><ele>385.99999999999994</ele><time>2026-04-06T12:17:28.028Z</time></trkpt><trkpt lat="45.825298645363105" lon="10.530651037710767"><ele>386.0</ele><time>2026-04-06T12:17:30.028Z</time></trkpt><trkpt lat="45.825361055332834" lon="10.530756413899669"><ele>385.49999999999994</ele><time>2026-04-06T12:17:32.028Z</time></trkpt><trkpt lat="45.82543226874315" lon="10.530879532305244"><ele>385.0</ele><time>2026-04-06T12:17:34.028Z</time></trkpt><trkpt lat="45.82554465015175" lon="10.530922932089265"><ele>384.5</ele><time>2026-04-06T12:17:36.028Z</time></trkpt><trkpt lat="45.82560265508753" lon="10.530963173324643"><ele>384.0</ele><time>2026-04-06T12:17:37.028Z</time></trkpt><trkpt lat="45.8256625958613" lon="10.531028852298931"><ele>383.5</ele><time>2026-04-06T12:17:38.028Z</time></trkpt><trkpt lat="45.825717906572024" lon="10.531103432277527"><ele>383.0</ele><time>2026-04-06T12:17:39.028Z</time></trkpt><trkpt lat="45.82577530413875" lon="10.531173195538901"><ele>383.0</ele><time>2026-04-06T12:17:40.028Z</time></trkpt><trkpt lat="45.825826861435424" lon="10.531231821783543"><ele>383.0</ele><time>2026-04-06T12:17:41.028Z</time></trkpt><trkpt lat="45.825936398872" lon="10.5313463899553"><ele>383.0</ele><time>2026-04-06T12:17:43.028Z</time></trkpt><trkpt lat="45.82600020837793" lon="10.531411837759773"><ele>383.0</ele><time>2026-04-06T12:17:44.028Z</time></trkpt><trkpt lat="45.82606569475892" lon="10.53146686499116"><ele>383.0</ele><time>2026-04-06T12:17:45.028Z</time></trkpt><trkpt lat="45.82612131856154" lon="10.531530114262114"><ele>383.0</ele><time>2026-04-06T12:17:46.028Z</time></trkpt><trkpt lat="45.82618156674251" lon="10.531598506568217"><ele>384.0</ele><time>2026-04-06T12:17:47.028Z</time></trkpt><trkpt lat="45.82624061701381" lon="10.531653298635682"><ele>385.0</ele><time>2026-04-06T12:17:48.028Z</time></trkpt><trkpt lat="45.826347754602914" lon="10.531750419555639"><ele>386.0</ele><time>2026-04-06T12:17:50.028Z</time></trkpt><trkpt lat="45.826461968397304" lon="10.531854305460872"><ele>387.0</ele><time>2026-04-06T12:17:52.028Z</time></trkpt><trkpt lat="45.8265263463285" lon="10.531916005232429"><ele>388.0</ele><time>2026-04-06T12:17:53.028Z</time></trkpt><trkpt lat="45.826604915084566" lon="10.531980207687848"><ele>388.0</ele><time>2026-04-06T12:17:54.028Z</time></trkpt><trkpt lat="45.82667983455781" lon="10.532037772306499"><ele>388.0</ele><time>2026-04-06T12:17:55.028Z</time></trkpt><trkpt lat="45.826745615321585" lon="10.53208994879017"><ele>388.0</ele><time>2026-04-06T12:17:56.028Z</time></trkpt><trkpt lat="45.82681324301907" lon="10.532137861272574"><ele>388.0</ele><time>2026-04-06T12:17:57.028Z</time></trkpt><trkpt lat="45.826875077174996" lon="10.53218462373118"><ele>388.0</ele><time>2026-04-06T12:17:58.028Z</time></trkpt><trkpt lat="45.826936157357274" lon="10.532237825135107"><ele>388.0</ele><time>2026-04-06T12:17:59.028Z</time></trkpt><trkpt lat="45.82699447664409" lon="10.532282456878841"><ele>388.0</ele><time>2026-04-06T12:18:00.028Z</time></trkpt><trkpt lat="45.82704501356506" lon="10.532349765098227"><ele>389.2</ele><time>2026-04-06T12:18:02.028Z</time></trkpt><trkpt lat="45.82714606621073" lon="10.532383135114927"><ele>390.4</ele><time>2026-04-06T12:19:46.027Z</time></trkpt><trkpt lat="45.82721935949383" lon="10.532438240656349"><ele>391.59999999999997</ele><time>2026-04-06T12:19:48.027Z</time></trkpt><trkpt lat="45.82716057372392" lon="10.532394042585528"><ele>392.79999999999995</ele><time>2026-04-06T12:19:55.027Z</time></trkpt><trkpt lat="45.82721125507927" lon="10.532129783411962"><ele>394.0</ele><time>2026-04-06T12:19:56.027Z</time></trkpt><trkpt lat="45.827122422969225" lon="10.531950384323967"><ele>392.0</ele><time>2026-04-06T12:19:57.027Z</time></trkpt><trkpt lat="45.826851107930736" lon="10.531746717582356"><ele>390.0</ele><time>2026-04-06T12:19:58.027Z</time></trkpt><trkpt lat="45.826741485097735" lon="10.531652838703424"><ele>388.0</ele><time>2026-04-06T12:19:59.027Z</time></trkpt><trkpt lat="45.82660670899342" lon="10.531555768233794"><ele>388.0</ele><time>2026-04-06T12:20:00.027Z</time></trkpt><trkpt lat="45.82632288718697" lon="10.531960215497813"><ele>388.0</ele><time>2026-04-06T12:20:01.027Z</time></trkpt><trkpt lat="45.82622702065424" lon="10.531869446390589"><ele>388.0</ele><time>2026-04-06T12:20:02.027Z</time></trkpt><trkpt lat="45.826150690346246" lon="10.531764373329842"><ele>388.0</ele><time>2026-04-06T12:20:03.027Z</time></trkpt><trkpt lat="45.82613881788016" lon="10.531506994533483"><ele>388.0</ele><time>2026-04-06T12:20:04.027Z</time></trkpt><trkpt lat="45.82602583896072" lon="10.531393068794035"><ele>388.0</ele><time>2026-04-06T12:20:05.027Z</time></trkpt><trkpt lat="45.825911770975814" lon="10.531301504548223"><ele>387.0</ele><time>2026-04-06T12:20:06.027Z</time></trkpt><trkpt lat="45.82583387422345" lon="10.53119382163909"><ele>386.0</ele><time>2026-04-06T12:20:07.027Z</time></trkpt><trkpt lat="45.825777039999075" lon="10.531100326397695"><ele>385.0</ele><time>2026-04-06T12:20:08.027Z</time></trkpt><trkpt lat="45.82571988032247" lon="10.531013569055855"><ele>384.0</ele><time>2026-04-06T12:20:09.027Z</time></trkpt><trkpt lat="45.82565800239778" lon="10.530926709505806"><ele>383.0</ele><time>2026-04-06T12:20:10.027Z</time></trkpt><trkpt lat="45.825567406623165" lon="10.53086259557933"><ele>383.0</ele><time>2026-04-06T12:20:11.027Z</time></trkpt><trkpt lat="45.8255262750197" lon="10.53078551133303"><ele>383.0</ele><time>2026-04-06T12:20:12.027Z</time></trkpt><trkpt lat="45.825328436754695" lon="10.530893557326586"><ele>383.0</ele><time>2026-04-06T12:20:14.027Z</time></trkpt><trkpt lat="45.82524877760248" lon="10.530977296784654"><ele>383.0</ele><time>2026-04-06T12:20:15.027Z</time></trkpt><trkpt lat="45.825176098896584" lon="10.531067365716561"><ele>383.0</ele><time>2026-04-06T12:20:16.027Z</time></trkpt><trkpt lat="45.82509078489929" lon="10.53114896804396"><ele>383.0</ele><time>2026-04-06T12:20:17.027Z</time></trkpt><trkpt lat="45.82498535078067" lon="10.531250960532262"><ele>383.0</ele><time>2026-04-06T12:20:18.027Z</time></trkpt><trkpt lat="45.824897725552404" lon="10.531381026699108"><ele>383.0</ele><time>2026-04-06T12:20:19.027Z</time></trkpt><trkpt lat="45.82480494268337" lon="10.531509073412"><ele>383.0</ele><time>2026-04-06T12:20:20.027Z</time></trkpt><trkpt lat="45.82472320168811" lon="10.53163898704976"><ele>383.0</ele><time>2026-04-06T12:20:21.027Z</time></trkpt><trkpt lat="45.82464444879851" lon="10.531754474508784"><ele>383.0</ele><time>2026-04-06T12:20:22.027Z</time></trkpt><trkpt lat="45.824578845312466" lon="10.531870852596612"><ele>383.0</ele><time>2026-04-06T12:20:23.027Z</time></trkpt><trkpt lat="45.824507013511045" lon="10.531947243987668"><ele>383.0</ele><time>2026-04-06T12:20:24.027Z</time></trkpt><trkpt lat="45.82443876649468" lon="10.53202652225667"><ele>382.59999999999997</ele><time>2026-04-06T12:20:25.027Z</time></trkpt><trkpt lat="45.824334792988964" lon="10.532151745017401"><ele>382.2</ele><time>2026-04-06T12:20:28.027Z</time></trkpt><trkpt lat="45.82426108126514" lon="10.532234640042583"><ele>381.8</ele><time>2026-04-06T12:20:29.027Z</time></trkpt><trkpt lat="45.824189755646564" lon="10.532325979423238"><ele>381.4</ele><time>2026-04-06T12:20:30.027Z</time></trkpt><trkpt lat="45.82412184273007" lon="10.532440730350258"><ele>381.0</ele><time>2026-04-06T12:20:31.027Z</time></trkpt><trkpt lat="45.82405499011103" lon="10.532562094557184"><ele>381.0</ele><time>2026-04-06T12:20:32.027Z</time></trkpt><trkpt lat="45.8240136465469" lon="10.532688285679827"><ele>381.0</ele><time>2026-04-06T12:20:33.027Z</time></trkpt><trkpt lat="45.823969171355145" lon="10.532800955714364"><ele>381.0</ele><time>2026-04-06T12:20:34.027Z</time></trkpt><trkpt lat="45.823928572287" lon="10.532922153361616"><ele>381.0</ele><time>2026-04-06T12:20:35.027Z</time></trkpt><trkpt lat="45.82388866653961" lon="10.533046463933742"><ele>381.0</ele><time>2026-04-06T12:20:36.027Z</time></trkpt><trkpt lat="45.82383834345974" lon="10.533154894532343"><ele>381.0</ele><time>2026-04-06T12:20:37.027Z</time></trkpt><trkpt lat="45.8238144273209" lon="10.533269245055433"><ele>381.0</ele><time>2026-04-06T12:20:38.027Z</time></trkpt><trkpt lat="45.82377365181943" lon="10.533391305488054"><ele>381.0</ele><time>2026-04-06T12:20:39.027Z</time></trkpt><trkpt lat="45.82374314892047" lon="10.533535854332001"><ele>381.0</ele><time>2026-04-06T12:20:40.027Z</time></trkpt><trkpt lat="45.82370658987974" lon="10.533676686629237"><ele>381.0</ele><time>2026-04-06T12:20:41.027Z</time></trkpt><trkpt lat="45.82367826926763" lon="10.533835004506274"><ele>380.75</ele><time>2026-04-06T12:20:42.027Z</time></trkpt><trkpt lat="45.82364433922569" lon="10.534009553915837"><ele>380.5</ele><time>2026-04-06T12:20:43.027Z</time></trkpt><trkpt lat="45.82360585185056" lon="10.534198041111443"><ele>380.25</ele><time>2026-04-06T12:20:44.027Z</time></trkpt><trkpt lat="45.823565253606866" lon="10.53438565812251"><ele>380.0</ele><time>2026-04-06T12:20:45.027Z</time></trkpt><trkpt lat="45.82352415572287" lon="10.534555904226314"><ele>380.0</ele><time>2026-04-06T12:20:46.027Z</time></trkpt><trkpt lat="45.82348634332564" lon="10.534731427296379"><ele>380.0</ele><time>2026-04-06T12:20:47.027Z</time></trkpt><trkpt lat="45.8234484941098" lon="10.534890212578947"><ele>380.0</ele><time>2026-04-06T12:20:48.027Z</time></trkpt><trkpt lat="45.82341791000147" lon="10.535046642768323"><ele>380.0</ele><time>2026-04-06T12:20:49.027Z</time></trkpt><trkpt lat="45.8233823601313" lon="10.535204961266246"><ele>380.0</ele><time>2026-04-06T12:20:50.027Z</time></trkpt><trkpt lat="45.82334288505255" lon="10.535367973762423"><ele>380.0</ele><time>2026-04-06T12:20:51.027Z</time></trkpt><trkpt lat="45.82330031817724" lon="10.535526808513133"><ele>380.0</ele><time>2026-04-06T12:20:52.027Z</time></trkpt><trkpt lat="45.82324674651384" lon="10.535648161839395"><ele>380.0</ele><time>2026-04-06T12:20:53.027Z</time></trkpt><trkpt lat="45.82318754051852" lon="10.535760430168928"><ele>380.0</ele><time>2026-04-06T12:20:54.027Z</time></trkpt><trkpt lat="45.82312944313666" lon="10.535972072711536"><ele>379.75</ele><time>2026-04-06T12:20:55.027Z</time></trkpt><trkpt lat="45.82305443613727" lon="10.536101138219113"><ele>379.5</ele><time>2026-04-06T12:20:56.027Z</time></trkpt><trkpt lat="45.82296556524173" lon="10.53623165516659"><ele>379.25</ele><time>2026-04-06T12:20:57.027Z</time></trkpt><trkpt lat="45.82287434378608" lon="10.536340966666895"><ele>379.0</ele><time>2026-04-06T12:20:58.027Z</time></trkpt><trkpt lat="45.82277345158483" lon="10.536466791995204"><ele>379.0</ele><time>2026-04-06T12:20:59.027Z</time></trkpt><trkpt lat="45.822663260144076" lon="10.53657270772918"><ele>379.0</ele><time>2026-04-06T12:21:00.027Z</time></trkpt><trkpt lat="45.822550220879556" lon="10.536663937577556"><ele>379.0</ele><time>2026-04-06T12:21:01.027Z</time></trkpt><trkpt lat="45.82243839190877" lon="10.536765381769852"><ele>379.0</ele><time>2026-04-06T12:21:02.027Z</time></trkpt><trkpt lat="45.822317005377485" lon="10.536870619002976"><ele>379.0</ele><time>2026-04-06T12:21:03.027Z</time></trkpt><trkpt lat="45.82220277043738" lon="10.536977196189799"><ele>379.0</ele><time>2026-04-06T12:21:04.027Z</time></trkpt><trkpt lat="45.82210360751253" lon="10.53708442275814"><ele>379.0</ele><time>2026-04-06T12:21:05.027Z</time></trkpt><trkpt lat="45.82200374750537" lon="10.537197523903842"><ele>379.0</ele><time>2026-04-06T12:21:06.027Z</time></trkpt><trkpt lat="45.82190325328468" lon="10.537305892268924"><ele>379.0</ele><time>2026-04-06T12:21:07.027Z</time></trkpt><trkpt lat="45.821801842584165" lon="10.5374281388888"><ele>379.0</ele><time>2026-04-06T12:21:08.027Z</time></trkpt><trkpt lat="45.82171230579214" lon="10.53755768393876"><ele>379.0</ele><time>2026-04-06T12:21:09.027Z</time></trkpt><trkpt lat="45.82163135583368" lon="10.537698264157651"><ele>379.0</ele><time>2026-04-06T12:21:10.027Z</time></trkpt><trkpt lat="45.8215623820187" lon="10.53784586785479"><ele>378.25</ele><time>2026-04-06T12:21:11.027Z</time></trkpt><trkpt lat="45.821491613411844" lon="10.537999842131603"><ele>377.5</ele><time>2026-04-06T12:21:12.027Z</time></trkpt><trkpt lat="45.821424175196576" lon="10.538151167457459"><ele>376.75</ele><time>2026-04-06T12:21:13.027Z</time></trkpt><trkpt lat="45.82136482033224" lon="10.538313495819446"><ele>376.0</ele><time>2026-04-06T12:21:14.027Z</time></trkpt><trkpt lat="45.821309440530946" lon="10.538473766909592"><ele>376.0</ele><time>2026-04-06T12:21:15.027Z</time></trkpt><trkpt lat="45.82125523863649" lon="10.538622055134034"><ele>376.0</ele><time>2026-04-06T12:21:16.027Z</time></trkpt><trkpt lat="45.82119636180472" lon="10.53870595506232"><ele>376.0</ele><time>2026-04-06T12:21:17.027Z</time></trkpt><trkpt lat="45.82113951894605" lon="10.538782535203206"><ele>376.0</ele><time>2026-04-06T12:21:18.027Z</time></trkpt><trkpt lat="45.82109836162613" lon="10.538913713608492"><ele>376.0</ele><time>2026-04-06T12:21:19.027Z</time></trkpt><trkpt lat="45.82101689716382" lon="10.539146512400881"><ele>375.75</ele><time>2026-04-06T12:21:20.027Z</time></trkpt><trkpt lat="45.82094411503473" lon="10.539377061716628"><ele>375.5</ele><time>2026-04-06T12:21:21.027Z</time></trkpt><trkpt lat="45.82084731648753" lon="10.539545086940116"><ele>375.25</ele><time>2026-04-06T12:21:22.027Z</time></trkpt><trkpt lat="45.82077724130501" lon="10.539676632989051"><ele>375.0</ele><time>2026-04-06T12:21:23.027Z</time></trkpt><trkpt lat="45.82069520435531" lon="10.53981925047948"><ele>375.5</ele><time>2026-04-06T12:21:24.027Z</time></trkpt><trkpt lat="45.82060993034668" lon="10.539952186371437"><ele>376.0</ele><time>2026-04-06T12:21:25.027Z</time></trkpt><trkpt lat="45.82052408940172" lon="10.540058572785162"><ele>376.5</ele><time>2026-04-06T12:21:26.027Z</time></trkpt><trkpt lat="45.82043423952661" lon="10.540157667762369"><ele>377.0</ele><time>2026-04-06T12:21:27.027Z</time></trkpt><trkpt lat="45.82031200923902" lon="10.54024269817233"><ele>377.0</ele><time>2026-04-06T12:21:28.027Z</time></trkpt><trkpt lat="45.82017422190007" lon="10.54037381544592"><ele>377.0</ele><time>2026-04-06T12:21:29.027Z</time></trkpt><trkpt lat="45.820044331555046" lon="10.540463325163948"><ele>377.0</ele><time>2026-04-06T12:21:30.027Z</time></trkpt><trkpt lat="45.81992983377489" lon="10.540547041080936"><ele>377.0</ele><time>2026-04-06T12:21:31.027Z</time></trkpt><trkpt lat="45.81980160682119" lon="10.540634283948986"><ele>377.0</ele><time>2026-04-06T12:21:32.027Z</time></trkpt><trkpt lat="45.8196706777175" lon="10.540697114772936"><ele>377.0</ele><time>2026-04-06T12:21:33.027Z</time></trkpt><trkpt lat="45.81955783648602" lon="10.540797558723565"><ele>377.0</ele><time>2026-04-06T12:21:34.027Z</time></trkpt><trkpt lat="45.81945632625234" lon="10.540928742968076"><ele>377.0</ele><time>2026-04-06T12:21:35.027Z</time></trkpt><trkpt lat="45.81937533207569" lon="10.541094164510044"><ele>376.25</ele><time>2026-04-06T12:21:36.027Z</time></trkpt><trkpt lat="45.81929355515961" lon="10.54126562931685"><ele>375.5</ele><time>2026-04-06T12:21:37.027Z</time></trkpt><trkpt lat="45.81920136298653" lon="10.541432695740559"><ele>374.75</ele><time>2026-04-06T12:21:38.027Z</time></trkpt><trkpt lat="45.819135434436284" lon="10.541622428728497"><ele>374.0</ele><time>2026-04-06T12:21:39.027Z</time></trkpt><trkpt lat="45.81905343025293" lon="10.541822070299775"><ele>374.0</ele><time>2026-04-06T12:21:40.027Z</time></trkpt><trkpt lat="45.81896986896859" lon="10.542036196570717"><ele>374.0</ele><time>2026-04-06T12:21:41.027Z</time></trkpt><trkpt lat="45.8188866905907" lon="10.542235820946035"><ele>374.0</ele><time>2026-04-06T12:21:42.027Z</time></trkpt><trkpt lat="45.81879368705594" lon="10.54240405769394"><ele>374.33333333333337</ele><time>2026-04-06T12:21:43.027Z</time></trkpt><trkpt lat="45.818686778877755" lon="10.542571942815302"><ele>374.6666666666667</ele><time>2026-04-06T12:21:44.027Z</time></trkpt><trkpt lat="45.81856449438036" lon="10.542729418956416"><ele>375.0</ele><time>2026-04-06T12:21:45.027Z</time></trkpt><trkpt lat="45.81844681214033" lon="10.542892126162439"><ele>374.5</ele><time>2026-04-06T12:21:46.027Z</time></trkpt><trkpt lat="45.81834596451033" lon="10.543046366616451"><ele>374.0</ele><time>2026-04-06T12:21:47.027Z</time></trkpt><trkpt lat="45.8182571379109" lon="10.543192309739583"><ele>373.5</ele><time>2026-04-06T12:21:48.027Z</time></trkpt><trkpt lat="45.81816856726926" lon="10.54334846017004"><ele>373.0</ele><time>2026-04-06T12:21:49.027Z</time></trkpt><trkpt lat="45.81808115890444" lon="10.543524337368137"><ele>372.3333333333333</ele><time>2026-04-06T12:21:50.027Z</time></trkpt><trkpt lat="45.817991483131095" lon="10.543718197669593"><ele>371.6666666666667</ele><time>2026-04-06T12:21:51.027Z</time></trkpt><trkpt lat="45.81790495982994" lon="10.54389819303096"><ele>371.0</ele><time>2026-04-06T12:21:52.027Z</time></trkpt><trkpt lat="45.81781330343422" lon="10.544060020087917"><ele>371.0</ele><time>2026-04-06T12:21:53.027Z</time></trkpt><trkpt lat="45.81772417073732" lon="10.544236214604908"><ele>371.0</ele><time>2026-04-06T12:21:54.027Z</time></trkpt><trkpt lat="45.81763574080401" lon="10.544410269505686"><ele>371.0</ele><time>2026-04-06T12:21:55.027Z</time></trkpt><trkpt lat="45.81754808812067" lon="10.544593514966047"><ele>371.0</ele><time>2026-04-06T12:21:56.027Z</time></trkpt><trkpt lat="45.81746462296943" lon="10.544767978068284"><ele>371.0</ele><time>2026-04-06T12:21:57.027Z</time></trkpt><trkpt lat="45.81738266335352" lon="10.544932117816213"><ele>371.0</ele><time>2026-04-06T12:21:58.027Z</time></trkpt><trkpt lat="45.81730176464929" lon="10.545091801615087"><ele>371.0</ele><time>2026-04-06T12:21:59.027Z</time></trkpt><trkpt lat="45.81722841287772" lon="10.545238832347918"><ele>371.5</ele><time>2026-04-06T12:22:00.027Z</time></trkpt><trkpt lat="45.81715678638103" lon="10.545380057195581"><ele>372.0</ele><time>2026-04-06T12:22:01.027Z</time></trkpt><trkpt lat="45.81709246493405" lon="10.545531043324202"><ele>372.5</ele><time>2026-04-06T12:22:02.027Z</time></trkpt><trkpt lat="45.817042031716845" lon="10.545706899339029"><ele>373.0</ele><time>2026-04-06T12:22:03.027Z</time></trkpt><trkpt lat="45.81700351797516" lon="10.545917906578865"><ele>373.0</ele><time>2026-04-06T12:22:04.027Z</time></trkpt><trkpt lat="45.8169872966503" lon="10.546139855050164"><ele>373.0</ele><time>2026-04-06T12:22:05.027Z</time></trkpt><trkpt lat="45.81699200777341" lon="10.546383531954238"><ele>373.0</ele><time>2026-04-06T12:22:06.027Z</time></trkpt><trkpt lat="45.81700009221121" lon="10.546611539760104"><ele>373.25</ele><time>2026-04-06T12:22:07.027Z</time></trkpt><trkpt lat="45.81698785997974" lon="10.546833966021973"><ele>373.5</ele><time>2026-04-06T12:22:08.027Z</time></trkpt><trkpt lat="45.8170005623842" lon="10.54703723467858"><ele>373.75</ele><time>2026-04-06T12:22:09.027Z</time></trkpt><trkpt lat="45.816992309490665" lon="10.54722805673319"><ele>374.0</ele><time>2026-04-06T12:22:10.027Z</time></trkpt><trkpt lat="45.816985138907" lon="10.547389676275008"><ele>374.0</ele><time>2026-04-06T12:22:11.027Z</time></trkpt><trkpt lat="45.816974475539645" lon="10.547538344518053"><ele>374.0</ele><time>2026-04-06T12:22:12.027Z</time></trkpt><trkpt lat="45.81695734930537" lon="10.547658965690433"><ele>374.0</ele><time>2026-04-06T12:22:13.027Z</time></trkpt><trkpt lat="45.81691982454285" lon="10.54779728065537"><ele>374.0</ele><time>2026-04-06T12:22:15.027Z</time></trkpt><trkpt lat="45.81689171418593" lon="10.547889374499658"><ele>374.0</ele><time>2026-04-06T12:22:17.027Z</time></trkpt><trkpt lat="45.81688776612875" lon="10.548014554047432"><ele>374.79999999999995</ele><time>2026-04-06T12:22:19.027Z</time></trkpt><trkpt lat="45.81698653879994" lon="10.548114659257765"><ele>375.59999999999997</ele><time>2026-04-06T12:22:20.027Z</time></trkpt><trkpt lat="45.817066104180405" lon="10.548175024357064"><ele>376.4</ele><time>2026-04-06T12:22:21.027Z</time></trkpt><trkpt lat="45.81715507753974" lon="10.548251851251853"><ele>377.2</ele><time>2026-04-06T12:22:22.027Z</time></trkpt><trkpt lat="45.81725126442542" lon="10.548368025868687"><ele>378.0</ele><time>2026-04-06T12:22:23.027Z</time></trkpt><trkpt lat="45.81734812320273" lon="10.54851127334422"><ele>378.0</ele><time>2026-04-06T12:22:24.027Z</time></trkpt><trkpt lat="45.81745093445353" lon="10.548668447088689"><ele>378.0</ele><time>2026-04-06T12:22:25.027Z</time></trkpt><trkpt lat="45.81754247967704" lon="10.54881213273575"><ele>378.0</ele><time>2026-04-06T12:22:26.027Z</time></trkpt><trkpt lat="45.81759968250758" lon="10.548950063935855"><ele>378.0</ele><time>2026-04-06T12:22:27.027Z</time></trkpt><trkpt lat="45.817650314307514" lon="10.549069464559455"><ele>378.0</ele><time>2026-04-06T12:22:28.027Z</time></trkpt><trkpt lat="45.81770204748869" lon="10.54917741882539"><ele>378.0</ele><time>2026-04-06T12:22:29.027Z</time></trkpt><trkpt lat="45.817745110497896" lon="10.549317349144626"><ele>378.0</ele><time>2026-04-06T12:22:30.027Z</time></trkpt><trkpt lat="45.817793980213004" lon="10.549479106566322"><ele>378.0</ele><time>2026-04-06T12:22:31.027Z</time></trkpt><trkpt lat="45.81784762203287" lon="10.549665121654199"><ele>379.6666666666667</ele><time>2026-04-06T12:22:32.027Z</time></trkpt><trkpt lat="45.81790693530929" lon="10.549872059498448"><ele>381.33333333333337</ele><time>2026-04-06T12:22:33.027Z</time></trkpt><trkpt lat="45.817970197108025" lon="10.550078906850434"><ele>383.0</ele><time>2026-04-06T12:22:34.027Z</time></trkpt><trkpt lat="45.818045800207805" lon="10.550267893460147"><ele>382.0</ele><time>2026-04-06T12:22:35.027Z</time></trkpt><trkpt lat="45.81813315511759" lon="10.550427512367422"><ele>381.0</ele><time>2026-04-06T12:22:36.027Z</time></trkpt><trkpt lat="45.81823570927366" lon="10.550566684025025"><ele>380.0</ele><time>2026-04-06T12:22:37.027Z</time></trkpt><trkpt lat="45.81836806862477" lon="10.550696755100285"><ele>379.0</ele><time>2026-04-06T12:22:38.027Z</time></trkpt><trkpt lat="45.81854481990127" lon="10.550807044325058"><ele>379.0</ele><time>2026-04-06T12:22:39.027Z</time></trkpt><trkpt lat="45.818754226169496" lon="10.550897777865588"><ele>379.0</ele><time>2026-04-06T12:22:40.027Z</time></trkpt><trkpt lat="45.81894849372096" lon="10.550968867284736"><ele>379.0</ele><time>2026-04-06T12:22:41.027Z</time></trkpt><trkpt lat="45.81911570455132" lon="10.551060214624147"><ele>379.0</ele><time>2026-04-06T12:22:42.027Z</time></trkpt><trkpt lat="45.819267097967895" lon="10.55116828359888"><ele>379.0</ele><time>2026-04-06T12:22:43.027Z</time></trkpt><trkpt lat="45.81942520943579" lon="10.551284157709123"><ele>379.0</ele><time>2026-04-06T12:22:44.027Z</time></trkpt><trkpt lat="45.81959041242466" lon="10.551428330815607"><ele>382.0</ele><time>2026-04-06T12:22:45.027Z</time></trkpt><trkpt lat="45.81975148937477" lon="10.551633293900313"><ele>385.0</ele><time>2026-04-06T12:22:46.027Z</time></trkpt><trkpt lat="45.81993662989453" lon="10.551867247711098"><ele>384.0</ele><time>2026-04-06T12:22:47.027Z</time></trkpt><trkpt lat="45.820148017421985" lon="10.552096283464524"><ele>383.0</ele><time>2026-04-06T12:22:48.027Z</time></trkpt><trkpt lat="45.82036723657672" lon="10.552318691171557"><ele>383.0</ele><time>2026-04-06T12:22:49.027Z</time></trkpt><trkpt lat="45.82055901618127" lon="10.55250826945565"><ele>383.0</ele><time>2026-04-06T12:22:50.027Z</time></trkpt><trkpt lat="45.82074011090909" lon="10.552685068248286"><ele>383.0</ele><time>2026-04-06T12:22:51.027Z</time></trkpt><trkpt lat="45.820907889282736" lon="10.552872699597676"><ele>383.0</ele><time>2026-04-06T12:22:52.027Z</time></trkpt><trkpt lat="45.82112875583959" lon="10.552981884921032"><ele>383.0</ele><time>2026-04-06T12:22:53.027Z</time></trkpt><trkpt lat="45.821376162017906" lon="10.553097741319505"><ele>386.0</ele><time>2026-04-06T12:22:54.027Z</time></trkpt><trkpt lat="45.82161346571404" lon="10.553226216704632"><ele>389.0</ele><time>2026-04-06T12:22:55.027Z</time></trkpt><trkpt lat="45.821810761041014" lon="10.553400117671083"><ele>391.66666666666663</ele><time>2026-04-06T12:22:56.027Z</time></trkpt><trkpt lat="45.821999415202036" lon="10.553540994335517"><ele>394.33333333333337</ele><time>2026-04-06T12:22:57.027Z</time></trkpt><trkpt lat="45.822168452233086" lon="10.55368769270019"><ele>397.0</ele><time>2026-04-06T12:22:58.027Z</time></trkpt><trkpt lat="45.822339471928736" lon="10.553789068324473"><ele>397.0</ele><time>2026-04-06T12:22:59.027Z</time></trkpt><trkpt lat="45.82250498343472" lon="10.553869201507927"><ele>397.0</ele><time>2026-04-06T12:23:00.027Z</time></trkpt><trkpt lat="45.82265853442389" lon="10.55394646425071"><ele>397.0</ele><time>2026-04-06T12:23:01.027Z</time></trkpt><trkpt lat="45.82279641171286" lon="10.554032294255997"><ele>391.6666666666667</ele><time>2026-04-06T12:23:02.027Z</time></trkpt><trkpt lat="45.8229282437042" lon="10.554137483353399"><ele>386.33333333333337</ele><time>2026-04-06T12:23:03.027Z</time></trkpt><trkpt lat="45.823043606949646" lon="10.554283274606899"><ele>381.0</ele><time>2026-04-06T12:23:04.027Z</time></trkpt><trkpt lat="45.823148721206216" lon="10.55448363117438"><ele>381.0</ele><time>2026-04-06T12:23:05.027Z</time></trkpt><trkpt lat="45.82324860515187" lon="10.55475486153258"><ele>381.0</ele><time>2026-04-06T12:23:06.027Z</time></trkpt><trkpt lat="45.82334360350973" lon="10.555044265016843"><ele>381.0</ele><time>2026-04-06T12:23:07.027Z</time></trkpt><trkpt lat="45.823483965720094" lon="10.555306139472991"><ele>383.0</ele><time>2026-04-06T12:23:08.027Z</time></trkpt><trkpt lat="45.82362880783583" lon="10.555488396485888"><ele>385.0</ele><time>2026-04-06T12:23:09.027Z</time></trkpt><trkpt lat="45.82374100443702" lon="10.555527994903953"><ele>387.0</ele><time>2026-04-06T12:23:10.027Z</time></trkpt><trkpt lat="45.82393031304287" lon="10.555655349337693"><ele>387.0</ele><time>2026-04-06T12:23:11.027Z</time></trkpt><trkpt lat="45.824134386397276" lon="10.555747274274584"><ele>387.0</ele><time>2026-04-06T12:23:12.027Z</time></trkpt><trkpt lat="45.82431790198114" lon="10.555835021444775"><ele>387.0</ele><time>2026-04-06T12:23:13.027Z</time></trkpt><trkpt lat="45.82448838676552" lon="10.555954755378657"><ele>387.33333333333337</ele><time>2026-04-06T12:23:14.027Z</time></trkpt><trkpt lat="45.82463955504288" lon="10.556117221022156"><ele>387.6666666666667</ele><time>2026-04-06T12:23:15.027Z</time></trkpt><trkpt lat="45.82475574567259" lon="10.556292556799749"><ele>388.0</ele><time>2026-04-06T12:23:16.027Z</time></trkpt><trkpt lat="45.82488990696829" lon="10.556474647170226"><ele>388.0</ele><time>2026-04-06T12:23:17.027Z</time></trkpt><trkpt lat="45.82502953591707" lon="10.556633510445677"><ele>388.0</ele><time>2026-04-06T12:23:18.027Z</time></trkpt><trkpt lat="45.82515388486827" lon="10.5567642039951"><ele>388.0</ele><time>2026-04-06T12:23:19.027Z</time></trkpt><trkpt lat="45.82528964051538" lon="10.556862451304426"><ele>386.6666666666667</ele><time>2026-04-06T12:23:20.027Z</time></trkpt><trkpt lat="45.82549023772026" lon="10.556974709399636"><ele>385.33333333333337</ele><time>2026-04-06T12:23:21.027Z</time></trkpt><trkpt lat="45.825683224440006" lon="10.557012770528484"><ele>384.0</ele><time>2026-04-06T12:23:22.027Z</time></trkpt><trkpt lat="45.82590306303548" lon="10.557006141639516"><ele>382.0</ele><time>2026-04-06T12:23:23.027Z</time></trkpt><trkpt lat="45.82614158395483" lon="10.556994475487954"><ele>380.0</ele><time>2026-04-06T12:23:24.027Z</time></trkpt><trkpt lat="45.82635521678091" lon="10.55696867772277"><ele>380.0</ele><time>2026-04-06T12:23:25.027Z</time></trkpt><trkpt lat="45.82654192934424" lon="10.556959520887988"><ele>380.0</ele><time>2026-04-06T12:23:26.027Z</time></trkpt><trkpt lat="45.82670305186649" lon="10.556973641930348"><ele>380.0</ele><time>2026-04-06T12:23:27.027Z</time></trkpt><trkpt lat="45.82686251115302" lon="10.557010716931316"><ele>381.0</ele><time>2026-04-06T12:23:28.027Z</time></trkpt><trkpt lat="45.8269903760958" lon="10.55712527211428"><ele>382.0</ele><time>2026-04-06T12:23:29.027Z</time></trkpt><trkpt lat="45.82714248352911" lon="10.55725717459781"><ele>383.0</ele><time>2026-04-06T12:23:30.027Z</time></trkpt><trkpt lat="45.82731560064645" lon="10.557424539690562"><ele>383.0</ele><time>2026-04-06T12:23:31.027Z</time></trkpt><trkpt lat="45.82749935189588" lon="10.557605167924981"><ele>383.0</ele><time>2026-04-06T12:23:32.027Z</time></trkpt><trkpt lat="45.82770276294031" lon="10.557803847106825"><ele>382.5</ele><time>2026-04-06T12:23:33.027Z</time></trkpt><trkpt lat="45.82792592238441" lon="10.558019774023196"><ele>382.0</ele><time>2026-04-06T12:23:34.027Z</time></trkpt><trkpt lat="45.828159634545955" lon="10.558248214564273"><ele>382.0</ele><time>2026-04-06T12:23:35.027Z</time></trkpt><trkpt lat="45.828363249644255" lon="10.55844927933039"><ele>382.0</ele><time>2026-04-06T12:23:36.027Z</time></trkpt><trkpt lat="45.82855255958325" lon="10.558637992074207"><ele>382.66666666666663</ele><time>2026-04-06T12:23:37.027Z</time></trkpt><trkpt lat="45.828726075357515" lon="10.558810959690485"><ele>383.3333333333333</ele><time>2026-04-06T12:23:38.027Z</time></trkpt><trkpt lat="45.82889063520235" lon="10.558973366519135"><ele>384.0</ele><time>2026-04-06T12:23:39.027Z</time></trkpt><trkpt lat="45.82904611456175" lon="10.559125075940608"><ele>384.0</ele><time>2026-04-06T12:23:40.027Z</time></trkpt><trkpt lat="45.82919282299012" lon="10.55926557093329"><ele>384.0</ele><time>2026-04-06T12:23:41.027Z</time></trkpt><trkpt lat="45.82932841660723" lon="10.559399026891473"><ele>384.0</ele><time>2026-04-06T12:23:42.027Z</time></trkpt><trkpt lat="45.829459224207255" lon="10.559545465375182"><ele>383.3333333333333</ele><time>2026-04-06T12:23:43.027Z</time></trkpt><trkpt lat="45.82957053144658" lon="10.55970460163362"><ele>382.66666666666663</ele><time>2026-04-06T12:23:44.027Z</time></trkpt><trkpt lat="45.82969242924416" lon="10.559917700488105"><ele>382.0</ele><time>2026-04-06T12:23:45.027Z</time></trkpt><trkpt lat="45.82981105773292" lon="10.560149482032063"><ele>386.5</ele><time>2026-04-06T12:23:46.027Z</time></trkpt><trkpt lat="45.82995852328407" lon="10.560412263150146"><ele>391.0</ele><time>2026-04-06T12:23:47.027Z</time></trkpt><trkpt lat="45.83012496374003" lon="10.560705997857632"><ele>389.33333333333337</ele><time>2026-04-06T12:23:48.027Z</time></trkpt><trkpt lat="45.83028076146443" lon="10.560879084551319"><ele>387.66666666666663</ele><time>2026-04-06T12:23:49.027Z</time></trkpt><trkpt lat="45.830433994093504" lon="10.561063792423422"><ele>386.0</ele><time>2026-04-06T12:23:50.027Z</time></trkpt><trkpt lat="45.830572567614254" lon="10.561256083786144"><ele>386.0</ele><time>2026-04-06T12:23:51.027Z</time></trkpt><trkpt lat="45.830683270857676" lon="10.56148122278632"><ele>386.0</ele><time>2026-04-06T12:23:52.027Z</time></trkpt><trkpt lat="45.830777670867676" lon="10.561738187438417"><ele>386.0</ele><time>2026-04-06T12:23:53.027Z</time></trkpt><trkpt lat="45.83088839960247" lon="10.561999125928715"><ele>385.0</ele><time>2026-04-06T12:23:54.027Z</time></trkpt><trkpt lat="45.831012621414494" lon="10.562202537553276"><ele>384.0</ele><time>2026-04-06T12:23:55.027Z</time></trkpt><trkpt lat="45.83116304631509" lon="10.562385725736746"><ele>383.0</ele><time>2026-04-06T12:23:56.027Z</time></trkpt><trkpt lat="45.83132357013999" lon="10.562578288506817"><ele>383.0</ele><time>2026-04-06T12:23:57.027Z</time></trkpt><trkpt lat="45.831526721187515" lon="10.562692150501578"><ele>383.0</ele><time>2026-04-06T12:23:58.027Z</time></trkpt><trkpt lat="45.83171644653727" lon="10.562777126260018"><ele>383.0</ele><time>2026-04-06T12:23:59.027Z</time></trkpt><trkpt lat="45.83187849076459" lon="10.562893540807766"><ele>383.6666666666667</ele><time>2026-04-06T12:24:00.027Z</time></trkpt><trkpt lat="45.832038208396746" lon="10.563023676635833"><ele>384.33333333333337</ele><time>2026-04-06T12:24:01.027Z</time></trkpt><trkpt lat="45.83221512721713" lon="10.563193663236381"><ele>385.0</ele><time>2026-04-06T12:24:02.027Z</time></trkpt><trkpt lat="45.83240749696888" lon="10.563395537794351"><ele>385.0</ele><time>2026-04-06T12:24:03.027Z</time></trkpt><trkpt lat="45.83260508283621" lon="10.563582646744688"><ele>385.0</ele><time>2026-04-06T12:24:04.027Z</time></trkpt><trkpt lat="45.83277831333111" lon="10.563766577180138"><ele>384.6666666666667</ele><time>2026-04-06T12:24:05.027Z</time></trkpt><trkpt lat="45.83294944102694" lon="10.56391754204703"><ele>384.33333333333337</ele><time>2026-04-06T12:24:06.027Z</time></trkpt><trkpt lat="45.83312933208023" lon="10.564036555037974"><ele>384.0</ele><time>2026-04-06T12:24:07.027Z</time></trkpt><trkpt lat="45.83332720437545" lon="10.56412800260521"><ele>383.3333333333333</ele><time>2026-04-06T12:24:08.027Z</time></trkpt><trkpt lat="45.833524146454835" lon="10.564186945539118"><ele>382.66666666666663</ele><time>2026-04-06T12:24:09.027Z</time></trkpt><trkpt lat="45.83371179316105" lon="10.56421282049476"><ele>382.0</ele><time>2026-04-06T12:24:10.027Z</time></trkpt><trkpt lat="45.833901350916484" lon="10.56419813226004"><ele>382.0</ele><time>2026-04-06T12:24:11.027Z</time></trkpt><trkpt lat="45.83409110864631" lon="10.564174578288139"><ele>382.0</ele><time>2026-04-06T12:24:12.027Z</time></trkpt><trkpt lat="45.8342672279273" lon="10.56421011746194"><ele>382.0</ele><time>2026-04-06T12:24:13.027Z</time></trkpt><trkpt lat="45.83443685588202" lon="10.564276482382171"><ele>383.0</ele><time>2026-04-06T12:24:14.027Z</time></trkpt><trkpt lat="45.834589075570406" lon="10.564386795879962"><ele>384.0</ele><time>2026-04-06T12:24:15.027Z</time></trkpt><trkpt lat="45.83477334535546" lon="10.564557493573785"><ele>385.0</ele><time>2026-04-06T12:24:16.027Z</time></trkpt><trkpt lat="45.834963564963786" lon="10.564719450279883"><ele>384.0</ele><time>2026-04-06T12:24:17.027Z</time></trkpt><trkpt lat="45.83516961917924" lon="10.564874198027605"><ele>383.0</ele><time>2026-04-06T12:24:18.027Z</time></trkpt><trkpt lat="45.83539050091449" lon="10.565008312193855"><ele>383.0</ele><time>2026-04-06T12:24:19.027Z</time></trkpt><trkpt lat="45.835598624474905" lon="10.5651275028704"><ele>383.0</ele><time>2026-04-06T12:24:20.027Z</time></trkpt><trkpt lat="45.83578732274327" lon="10.565235825379071"><ele>383.0</ele><time>2026-04-06T12:24:21.027Z</time></trkpt><trkpt lat="45.83596675597374" lon="10.565319937424478"><ele>384.6666666666667</ele><time>2026-04-06T12:24:22.027Z</time></trkpt><trkpt lat="45.83615370275469" lon="10.565386720378772"><ele>386.33333333333337</ele><time>2026-04-06T12:24:23.027Z</time></trkpt><trkpt lat="45.83633356182472" lon="10.565458808910973"><ele>388.0</ele><time>2026-04-06T12:24:24.027Z</time></trkpt><trkpt lat="45.83652085917229" lon="10.56542574068628"><ele>388.0</ele><time>2026-04-06T12:24:25.027Z</time></trkpt><trkpt lat="45.836694292516" lon="10.565460468747617"><ele>388.0</ele><time>2026-04-06T12:24:26.027Z</time></trkpt><trkpt lat="45.83686020194325" lon="10.565494239643318"><ele>388.0</ele><time>2026-04-06T12:24:27.027Z</time></trkpt><trkpt lat="45.837016903812454" lon="10.56553072764365"><ele>387.59999999999997</ele><time>2026-04-06T12:24:28.027Z</time></trkpt><trkpt lat="45.83714581714307" lon="10.565559306068021"><ele>387.2</ele><time>2026-04-06T12:24:29.027Z</time></trkpt><trkpt lat="45.837245482682896" lon="10.565578178941815"><ele>386.8</ele><time>2026-04-06T12:24:30.027Z</time></trkpt><trkpt lat="45.83733396731551" lon="10.565558731582964"><ele>386.4</ele><time>2026-04-06T12:24:31.027Z</time></trkpt><trkpt lat="45.83741700271625" lon="10.565497020179851"><ele>386.0</ele><time>2026-04-06T12:24:32.027Z</time></trkpt><trkpt lat="45.837478962635416" lon="10.565404557155942"><ele>386.0</ele><time>2026-04-06T12:24:33.027Z</time></trkpt><trkpt lat="45.83752605435197" lon="10.56529097189126"><ele>386.0</ele><time>2026-04-06T12:24:34.027Z</time></trkpt><trkpt lat="45.837589660983134" lon="10.565228323706885"><ele>386.0</ele><time>2026-04-06T12:24:35.027Z</time></trkpt><trkpt lat="45.83769036572949" lon="10.565229743187867"><ele>386.0</ele><time>2026-04-06T12:24:36.027Z</time></trkpt><trkpt lat="45.837817852519244" lon="10.565279566363325"><ele>386.0</ele><time>2026-04-06T12:24:37.027Z</time></trkpt><trkpt lat="45.83794969228538" lon="10.56535318182179"><ele>385.66666666666663</ele><time>2026-04-06T12:24:38.027Z</time></trkpt><trkpt lat="45.838090693661954" lon="10.565442726838686"><ele>385.33333333333337</ele><time>2026-04-06T12:24:39.027Z</time></trkpt><trkpt lat="45.83824507620522" lon="10.56552502971503"><ele>385.0</ele><time>2026-04-06T12:24:40.027Z</time></trkpt><trkpt lat="45.83839789200324" lon="10.565603446817796"><ele>384.6666666666667</ele><time>2026-04-06T12:24:41.027Z</time></trkpt><trkpt lat="45.838537871868674" lon="10.565680931446355"><ele>384.33333333333337</ele><time>2026-04-06T12:24:42.027Z</time></trkpt><trkpt lat="45.83867616063155" lon="10.565760491262322"><ele>384.0</ele><time>2026-04-06T12:24:43.027Z</time></trkpt><trkpt lat="45.83882951423057" lon="10.56583499114569"><ele>384.0</ele><time>2026-04-06T12:24:44.027Z</time></trkpt><trkpt lat="45.83898550103292" lon="10.565917772170357"><ele>384.0</ele><time>2026-04-06T12:24:45.027Z</time></trkpt><trkpt lat="45.83914671533637" lon="10.56600971814193"><ele>384.0</ele><time>2026-04-06T12:24:46.027Z</time></trkpt><trkpt lat="45.839319800481796" lon="10.566112624278768"><ele>384.33333333333337</ele><time>2026-04-06T12:24:47.027Z</time></trkpt><trkpt lat="45.83950963309767" lon="10.566213107105096"><ele>384.6666666666667</ele><time>2026-04-06T12:24:48.027Z</time></trkpt><trkpt lat="45.839687117318135" lon="10.566305205897748"><ele>385.0</ele><time>2026-04-06T12:24:49.027Z</time></trkpt><trkpt lat="45.83985321072654" lon="10.566388169780579"><ele>385.0</ele><time>2026-04-06T12:24:50.027Z</time></trkpt><trkpt lat="45.84002178696826" lon="10.566478566892203"><ele>385.0</ele><time>2026-04-06T12:24:51.027Z</time></trkpt><trkpt lat="45.840183413220885" lon="10.566571922333642"><ele>385.0</ele><time>2026-04-06T12:24:52.027Z</time></trkpt><trkpt lat="45.840345168126504" lon="10.566662505493012"><ele>385.33333333333337</ele><time>2026-04-06T12:24:53.027Z</time></trkpt><trkpt lat="45.840515204053574" lon="10.56675129345011"><ele>385.66666666666663</ele><time>2026-04-06T12:24:54.027Z</time></trkpt><trkpt lat="45.84068560120003" lon="10.566837066698808"><ele>386.0</ele><time>2026-04-06T12:24:55.027Z</time></trkpt><trkpt lat="45.840843732442536" lon="10.566925466066914"><ele>385.66666666666663</ele><time>2026-04-06T12:24:56.027Z</time></trkpt><trkpt lat="45.84100069474537" lon="10.567018232082566"><ele>385.33333333333337</ele><time>2026-04-06T12:24:57.027Z</time></trkpt><trkpt lat="45.84117520385351" lon="10.567127984603953"><ele>385.0</ele><time>2026-04-06T12:24:58.027Z</time></trkpt><trkpt lat="45.841342131834026" lon="10.56728506988666"><ele>385.6666666666667</ele><time>2026-04-06T12:24:59.027Z</time></trkpt><trkpt lat="45.84148999081997" lon="10.567463710929992"><ele>386.33333333333337</ele><time>2026-04-06T12:25:00.027Z</time></trkpt><trkpt lat="45.84163916525168" lon="10.56762720577247"><ele>387.0</ele><time>2026-04-06T12:25:01.027Z</time></trkpt><trkpt lat="45.84178240074256" lon="10.567772830597947"><ele>386.66666666666663</ele><time>2026-04-06T12:25:02.027Z</time></trkpt><trkpt lat="45.84191515368453" lon="10.567926819956273"><ele>386.3333333333333</ele><time>2026-04-06T12:25:03.027Z</time></trkpt><trkpt lat="45.842046699782294" lon="10.56808525783651"><ele>386.0</ele><time>2026-04-06T12:25:04.027Z</time></trkpt><trkpt lat="45.84218276029746" lon="10.568253793775275"><ele>386.0</ele><time>2026-04-06T12:25:05.027Z</time></trkpt><trkpt lat="45.842324440560326" lon="10.56843893635996"><ele>386.0</ele><time>2026-04-06T12:25:06.027Z</time></trkpt><trkpt lat="45.842479920273696" lon="10.568646910738078"><ele>386.0</ele><time>2026-04-06T12:25:07.027Z</time></trkpt><trkpt lat="45.842650624761326" lon="10.56887182290099"><ele>386.0</ele><time>2026-04-06T12:25:08.027Z</time></trkpt><trkpt lat="45.84282456323678" lon="10.569092083135356"><ele>386.0</ele><time>2026-04-06T12:25:09.027Z</time></trkpt><trkpt lat="45.842979824955854" lon="10.5692885917211"><ele>386.0</ele><time>2026-04-06T12:25:10.027Z</time></trkpt><trkpt lat="45.84312067358956" lon="10.56947780290939"><ele>387.66666666666663</ele><time>2026-04-06T12:25:11.027Z</time></trkpt><trkpt lat="45.84324427053032" lon="10.569673389360595"><ele>389.33333333333337</ele><time>2026-04-06T12:25:12.027Z</time></trkpt><trkpt lat="45.84335637119176" lon="10.569873143757752"><ele>391.0</ele><time>2026-04-06T12:25:13.027Z</time></trkpt><trkpt lat="45.84346139032454" lon="10.57009197082649"><ele>389.6666666666667</ele><time>2026-04-06T12:25:14.027Z</time></trkpt><trkpt lat="45.84356931125975" lon="10.570330777023239"><ele>388.33333333333337</ele><time>2026-04-06T12:25:15.027Z</time></trkpt><trkpt lat="45.84367306508078" lon="10.570578284630178"><ele>387.0</ele><time>2026-04-06T12:25:16.027Z</time></trkpt><trkpt lat="45.84377393643509" lon="10.5708356816735"><ele>387.0</ele><time>2026-04-06T12:25:17.027Z</time></trkpt><trkpt lat="45.843867200225226" lon="10.571102638798347"><ele>387.0</ele><time>2026-04-06T12:25:18.027Z</time></trkpt><trkpt lat="45.843957597614256" lon="10.571381228726123"><ele>387.0</ele><time>2026-04-06T12:25:19.027Z</time></trkpt><trkpt lat="45.844055487253044" lon="10.571666039965754"><ele>387.0</ele><time>2026-04-06T12:25:20.027Z</time></trkpt><trkpt lat="45.84414918343323" lon="10.571924459422059"><ele>387.0</ele><time>2026-04-06T12:25:21.027Z</time></trkpt><trkpt lat="45.84423447143202" lon="10.572162659372834"><ele>387.0</ele><time>2026-04-06T12:25:22.027Z</time></trkpt><trkpt lat="45.84432132468316" lon="10.572383959759167"><ele>386.66666666666663</ele><time>2026-04-06T12:25:23.027Z</time></trkpt><trkpt lat="45.844421515423534" lon="10.57258827962432"><ele>386.3333333333333</ele><time>2026-04-06T12:25:24.027Z</time></trkpt><trkpt lat="45.84454164911659" lon="10.572777338076383"><ele>386.0</ele><time>2026-04-06T12:25:25.027Z</time></trkpt><trkpt lat="45.84468606074003" lon="10.572952496615166"><ele>386.0</ele><time>2026-04-06T12:25:26.027Z</time></trkpt><trkpt lat="45.84485867271642" lon="10.573115558492143"><ele>386.0</ele><time>2026-04-06T12:25:27.027Z</time></trkpt><trkpt lat="45.84504561549793" lon="10.573287180271862"><ele>386.0</ele><time>2026-04-06T12:25:28.027Z</time></trkpt><trkpt lat="45.84523406270147" lon="10.573472713401388"><ele>386.0</ele><time>2026-04-06T12:25:29.027Z</time></trkpt><trkpt lat="45.84541635629414" lon="10.57366773515005"><ele>386.0</ele><time>2026-04-06T12:25:30.027Z</time></trkpt><trkpt lat="45.8456003689981" lon="10.573857361830617"><ele>386.0</ele><time>2026-04-06T12:25:31.027Z</time></trkpt><trkpt lat="45.84576686145952" lon="10.574051951267343"><ele>386.0</ele><time>2026-04-06T12:25:32.027Z</time></trkpt><trkpt lat="45.845927147613224" lon="10.574217148869591"><ele>386.0</ele><time>2026-04-06T12:25:33.027Z</time></trkpt><trkpt lat="45.846089240849054" lon="10.574354130643414"><ele>386.3333333333333</ele><time>2026-04-06T12:25:34.027Z</time></trkpt><trkpt lat="45.84622972960532" lon="10.57450131930807"><ele>386.66666666666663</ele><time>2026-04-06T12:25:35.027Z</time></trkpt><trkpt lat="45.84636664545316" lon="10.574634916479535"><ele>387.0</ele><time>2026-04-06T12:25:36.027Z</time></trkpt><trkpt lat="45.84649536630317" lon="10.574750751417557"><ele>387.0</ele><time>2026-04-06T12:25:37.027Z</time></trkpt><trkpt lat="45.84661587004473" lon="10.574853304114622"><ele>387.0</ele><time>2026-04-06T12:25:38.027Z</time></trkpt><trkpt lat="45.84671964828032" lon="10.574957690919756"><ele>387.0</ele><time>2026-04-06T12:25:39.027Z</time></trkpt><trkpt lat="45.84681167363921" lon="10.575086836532925"><ele>387.0</ele><time>2026-04-06T12:25:40.027Z</time></trkpt><trkpt lat="45.84688246590607" lon="10.575262714682413"><ele>387.5</ele><time>2026-04-06T12:25:41.027Z</time></trkpt><trkpt lat="45.84695192447561" lon="10.575439179649441"><ele>388.0</ele><time>2026-04-06T12:25:42.027Z</time></trkpt><trkpt lat="45.847013271962176" lon="10.575598232308002"><ele>388.5</ele><time>2026-04-06T12:25:43.027Z</time></trkpt><trkpt lat="45.847082431317496" lon="10.575738348893417"><ele>389.0</ele><time>2026-04-06T12:25:44.027Z</time></trkpt><trkpt lat="45.847129638305205" lon="10.575878287789054"><ele>389.0</ele><time>2026-04-06T12:25:45.027Z</time></trkpt><trkpt lat="45.84718769510809" lon="10.576018312432534"><ele>389.0</ele><time>2026-04-06T12:25:46.027Z</time></trkpt><trkpt lat="45.84723855846953" lon="10.576140591783377"><ele>389.0</ele><time>2026-04-06T12:25:47.027Z</time></trkpt><trkpt lat="45.84728406120784" lon="10.576256992705323"><ele>389.0</ele><time>2026-04-06T12:25:48.027Z</time></trkpt><trkpt lat="45.84733344122578" lon="10.576377995522483"><ele>389.0</ele><time>2026-04-06T12:25:49.027Z</time></trkpt><trkpt lat="45.84738709064342" lon="10.576512475468244"><ele>389.0</ele><time>2026-04-06T12:25:50.027Z</time></trkpt><trkpt lat="45.847439575691425" lon="10.57665370737534"><ele>389.0</ele><time>2026-04-06T12:25:51.027Z</time></trkpt><trkpt lat="45.847497484960755" lon="10.576802153593556"><ele>389.0</ele><time>2026-04-06T12:25:52.027Z</time></trkpt><trkpt lat="45.84755833816845" lon="10.576959795789438"><ele>389.0</ele><time>2026-04-06T12:25:53.027Z</time></trkpt><trkpt lat="45.84762274738839" lon="10.577125216007737"><ele>389.25</ele><time>2026-04-06T12:25:54.027Z</time></trkpt><trkpt lat="45.84768060101938" lon="10.577299758669033"><ele>389.5</ele><time>2026-04-06T12:25:55.027Z</time></trkpt><trkpt lat="45.84772774078111" lon="10.577474669334068"><ele>389.75</ele><time>2026-04-06T12:25:56.027Z</time></trkpt><trkpt lat="45.84775905311049" lon="10.577632914101608"><ele>390.0</ele><time>2026-04-06T12:25:57.027Z</time></trkpt><trkpt lat="45.84776452175471" lon="10.577754791889271"><ele>390.5</ele><time>2026-04-06T12:25:58.027Z</time></trkpt><trkpt lat="45.847797092921176" lon="10.577922927803412"><ele>391.0</ele><time>2026-04-06T12:25:59.027Z</time></trkpt><trkpt lat="45.84783777788884" lon="10.578076451069142"><ele>391.5</ele><time>2026-04-06T12:26:00.027Z</time></trkpt><trkpt lat="45.847880755142725" lon="10.578209917882356"><ele>392.0</ele><time>2026-04-06T12:26:01.027Z</time></trkpt><trkpt lat="45.847941297034446" lon="10.578351663887721"><ele>391.99999999999994</ele><time>2026-04-06T12:26:02.027Z</time></trkpt><trkpt lat="45.84799391106137" lon="10.5784910922345"><ele>392.0</ele><time>2026-04-06T12:26:03.027Z</time></trkpt><trkpt lat="45.84805290781438" lon="10.57859948619379"><ele>392.0</ele><time>2026-04-06T12:26:04.027Z</time></trkpt><trkpt lat="45.84809980056681" lon="10.578687067350867"><ele>392.0</ele><time>2026-04-06T12:26:05.027Z</time></trkpt><trkpt lat="45.84815376690326" lon="10.578787859790584"><ele>391.99999999999994</ele><time>2026-04-06T12:26:06.027Z</time></trkpt><trkpt lat="45.8481975797879" lon="10.578869005705076"><ele>392.0</ele><time>2026-04-06T12:26:07.027Z</time></trkpt><trkpt lat="45.848239422495375" lon="10.57894431321652"><ele>392.3333333333333</ele><time>2026-04-06T12:26:08.027Z</time></trkpt><trkpt lat="45.848305139848094" lon="10.578952376732065"><ele>392.66666666666663</ele><time>2026-04-06T12:26:09.027Z</time></trkpt><trkpt lat="45.84830091902423" lon="10.57904484085212"><ele>393.0</ele><time>2026-04-06T12:26:11.027Z</time></trkpt><trkpt lat="45.848305862345576" lon="10.579136603087269"><ele>393.33333333333337</ele><time>2026-04-06T12:26:13.027Z</time></trkpt><trkpt lat="45.84826040065581" lon="10.579304677125005"><ele>393.6666666666667</ele><time>2026-04-06T12:26:15.027Z</time></trkpt><trkpt lat="45.848232744058976" lon="10.579415651949306"><ele>394.0</ele><time>2026-04-06T12:26:16.027Z</time></trkpt><trkpt lat="45.8482057466462" lon="10.579518784145707"><ele>394.1666666666667</ele><time>2026-04-06T12:26:17.027Z</time></trkpt><trkpt lat="45.848181521241465" lon="10.579609397320008"><ele>394.33333333333337</ele><time>2026-04-06T12:26:18.027Z</time></trkpt><trkpt lat="45.84815776030976" lon="10.57969657144335"><ele>394.5</ele><time>2026-04-06T12:26:19.027Z</time></trkpt><trkpt lat="45.84813289540483" lon="10.579787795785315"><ele>394.66666666666663</ele><time>2026-04-06T12:26:20.027Z</time></trkpt><trkpt lat="45.84809718708485" lon="10.57991880298867"><ele>394.8333333333333</ele><time>2026-04-06T12:26:22.027Z</time></trkpt><trkpt lat="45.848166427497276" lon="10.580030761416399"><ele>395.0</ele><time>2026-04-06T12:26:24.027Z</time></trkpt><trkpt lat="45.84821047271925" lon="10.580121181535127"><ele>397.0</ele><time>2026-04-06T12:26:25.027Z</time></trkpt><trkpt lat="45.84791901709061" lon="10.58058579982576"><ele>399.0</ele><time>2026-04-06T12:26:26.027Z</time></trkpt><trkpt lat="45.847886568346546" lon="10.580743617413805"><ele>399.0</ele><time>2026-04-06T12:26:27.027Z</time></trkpt><trkpt lat="45.847843560848865" lon="10.580893825462635"><ele>399.0</ele><time>2026-04-06T12:26:28.027Z</time></trkpt><trkpt lat="45.8478003515373" lon="10.581040121906877"><ele>399.0</ele><time>2026-04-06T12:26:29.027Z</time></trkpt><trkpt lat="45.84775716215213" lon="10.581176784221821"><ele>399.0</ele><time>2026-04-06T12:26:30.026Z</time></trkpt><trkpt lat="45.8477120869371" lon="10.581313255102929"><ele>399.0</ele><time>2026-04-06T12:26:31.026Z</time></trkpt><trkpt lat="45.84761134125663" lon="10.581371988981987"><ele>398.75</ele><time>2026-04-06T12:26:32.026Z</time></trkpt><trkpt lat="45.847523552540686" lon="10.581507909191108"><ele>398.5</ele><time>2026-04-06T12:26:33.026Z</time></trkpt><trkpt lat="45.847431232602105" lon="10.581634152964403"><ele>398.25</ele><time>2026-04-06T12:26:34.026Z</time></trkpt><trkpt lat="45.84733087902525" lon="10.58173413402787"><ele>398.0</ele><time>2026-04-06T12:26:35.026Z</time></trkpt><trkpt lat="45.84723193752587" lon="10.581820579307408"><ele>398.0</ele><time>2026-04-06T12:26:36.026Z</time></trkpt><trkpt lat="45.847137073595704" lon="10.581926816714702"><ele>398.0</ele><time>2026-04-06T12:26:37.026Z</time></trkpt><trkpt lat="45.847027492367275" lon="10.582012901755057"><ele>398.0</ele><time>2026-04-06T12:26:38.026Z</time></trkpt><trkpt lat="45.84693478033957" lon="10.582109997451658"><ele>398.0</ele><time>2026-04-06T12:26:39.026Z</time></trkpt><trkpt lat="45.84684789802056" lon="10.58219289926709"><ele>397.5</ele><time>2026-04-06T12:26:40.026Z</time></trkpt><trkpt lat="45.84675101041683" lon="10.582250916033786"><ele>397.0</ele><time>2026-04-06T12:26:41.026Z</time></trkpt><trkpt lat="45.84664890182868" lon="10.582328277432222"><ele>396.5</ele><time>2026-04-06T12:26:42.026Z</time></trkpt><trkpt lat="45.846522963366304" lon="10.582380415836818"><ele>396.0</ele><time>2026-04-06T12:26:43.026Z</time></trkpt><trkpt lat="45.84640337038132" lon="10.582445439527511"><ele>396.0</ele><time>2026-04-06T12:26:44.026Z</time></trkpt><trkpt lat="45.84628613671022" lon="10.582473028893263"><ele>396.0</ele><time>2026-04-06T12:26:45.026Z</time></trkpt><trkpt lat="45.84617910995196" lon="10.582520898908303"><ele>396.0</ele><time>2026-04-06T12:26:46.026Z</time></trkpt><trkpt lat="45.84607648310424" lon="10.582590698617562"><ele>396.0</ele><time>2026-04-06T12:26:47.026Z</time></trkpt><trkpt lat="45.84596205814884" lon="10.582639592155445"><ele>395.75</ele><time>2026-04-06T12:26:48.026Z</time></trkpt><trkpt lat="45.84584419949877" lon="10.582691680528148"><ele>395.5</ele><time>2026-04-06T12:26:49.026Z</time></trkpt><trkpt lat="45.84571942288128" lon="10.58274502952633"><ele>395.25</ele><time>2026-04-06T12:26:50.026Z</time></trkpt><trkpt lat="45.845592011080036" lon="10.582802482783292"><ele>395.0</ele><time>2026-04-06T12:26:51.026Z</time></trkpt><trkpt lat="45.84547045558172" lon="10.58286326146655"><ele>395.0</ele><time>2026-04-06T12:26:52.026Z</time></trkpt><trkpt lat="45.84534761066266" lon="10.582919061276387"><ele>395.0</ele><time>2026-04-06T12:26:53.026Z</time></trkpt><trkpt lat="45.8452356214052" lon="10.582961790503669"><ele>395.0</ele><time>2026-04-06T12:26:54.026Z</time></trkpt><trkpt lat="45.84512726332704" lon="10.583010086348615"><ele>395.0</ele><time>2026-04-06T12:26:55.026Z</time></trkpt><trkpt lat="45.84505033498743" lon="10.58302302608853"><ele>395.0</ele><time>2026-04-06T12:26:56.026Z</time></trkpt><trkpt lat="45.84494737901471" lon="10.583066117616106"><ele>395.0</ele><time>2026-04-06T12:26:57.026Z</time></trkpt><trkpt lat="45.8447454465573" lon="10.583175018507632"><ele>395.0</ele><time>2026-04-06T12:26:58.026Z</time></trkpt><trkpt lat="45.84461054438812" lon="10.583243170987922"><ele>395.0</ele><time>2026-04-06T12:26:59.026Z</time></trkpt><trkpt lat="45.84448160440701" lon="10.583302668450413"><ele>395.0</ele><time>2026-04-06T12:27:00.026Z</time></trkpt><trkpt lat="45.844363877072794" lon="10.583357853276382"><ele>395.0</ele><time>2026-04-06T12:27:01.026Z</time></trkpt><trkpt lat="45.84425391652608" lon="10.583399784224563"><ele>395.0</ele><time>2026-04-06T12:27:02.026Z</time></trkpt><trkpt lat="45.84413240551667" lon="10.583444630339653"><ele>395.0</ele><time>2026-04-06T12:27:03.026Z</time></trkpt><trkpt lat="45.84400405838631" lon="10.583505642287088"><ele>395.66666666666663</ele><time>2026-04-06T12:27:04.026Z</time></trkpt><trkpt lat="45.8438651041483" lon="10.583569513654876"><ele>396.33333333333337</ele><time>2026-04-06T12:27:05.026Z</time></trkpt><trkpt lat="45.84371082687054" lon="10.58364138283529"><ele>397.0</ele><time>2026-04-06T12:27:06.026Z</time></trkpt><trkpt lat="45.84352998212748" lon="10.583722058053715"><ele>398.33333333333337</ele><time>2026-04-06T12:27:07.026Z</time></trkpt><trkpt lat="45.84333140859287" lon="10.583810727283021"><ele>399.66666666666663</ele><time>2026-04-06T12:27:08.026Z</time></trkpt><trkpt lat="45.84312295442535" lon="10.583907062048112"><ele>401.0</ele><time>2026-04-06T12:27:09.026Z</time></trkpt><trkpt lat="45.8429403160741" lon="10.58399231746218"><ele>401.0</ele><time>2026-04-06T12:27:10.026Z</time></trkpt><trkpt lat="45.84277687064489" lon="10.584066880242112"><ele>401.0</ele><time>2026-04-06T12:27:11.026Z</time></trkpt><trkpt lat="45.84262541070878" lon="10.584138287958133"><ele>401.0</ele><time>2026-04-06T12:27:12.026Z</time></trkpt><trkpt lat="45.84249166716856" lon="10.584200551599736"><ele>400.5</ele><time>2026-04-06T12:27:13.026Z</time></trkpt><trkpt lat="45.84235450738453" lon="10.584256000228915"><ele>400.0</ele><time>2026-04-06T12:27:14.026Z</time></trkpt><trkpt lat="45.84223484216218" lon="10.584302520268333"><ele>399.5</ele><time>2026-04-06T12:27:15.026Z</time></trkpt><trkpt lat="45.842102539502" lon="10.584278574558988"><ele>399.0</ele><time>2026-04-06T12:27:16.026Z</time></trkpt><trkpt lat="45.84194650920712" lon="10.584271657862224"><ele>399.0</ele><time>2026-04-06T12:27:17.026Z</time></trkpt><trkpt lat="45.84180963331844" lon="10.5842431516299"><ele>399.0</ele><time>2026-04-06T12:27:18.026Z</time></trkpt><trkpt lat="45.84167821082841" lon="10.584228365664195"><ele>399.0</ele><time>2026-04-06T12:27:19.026Z</time></trkpt><trkpt lat="45.841565832884775" lon="10.584209364951729"><ele>399.0</ele><time>2026-04-06T12:27:20.026Z</time></trkpt><trkpt lat="45.84146953261175" lon="10.584158372601982"><ele>400.25</ele><time>2026-04-06T12:27:21.026Z</time></trkpt><trkpt lat="45.84138007713425" lon="10.584075411608989"><ele>401.5</ele><time>2026-04-06T12:27:22.026Z</time></trkpt><trkpt lat="45.841290173066646" lon="10.583964699995411"><ele>402.75</ele><time>2026-04-06T12:27:23.026Z</time></trkpt><trkpt lat="45.841211699491296" lon="10.583798077909004"><ele>404.0</ele><time>2026-04-06T12:27:24.026Z</time></trkpt><trkpt lat="45.84115503365642" lon="10.583597182097732"><ele>404.0</ele><time>2026-04-06T12:27:25.026Z</time></trkpt><trkpt lat="45.84112413611514" lon="10.583394520521502"><ele>404.0</ele><time>2026-04-06T12:27:26.026Z</time></trkpt><trkpt lat="45.841104002358804" lon="10.583163797911048"><ele>404.0</ele><time>2026-04-06T12:27:27.026Z</time></trkpt><trkpt lat="45.84111675799034" lon="10.582959878944743"><ele>404.0</ele><time>2026-04-06T12:27:28.026Z</time></trkpt><trkpt lat="45.84113597883736" lon="10.582790521202021"><ele>403.66666666666663</ele><time>2026-04-06T12:27:29.026Z</time></trkpt><trkpt lat="45.84115654830867" lon="10.582646928583612"><ele>403.3333333333333</ele><time>2026-04-06T12:27:30.026Z</time></trkpt><trkpt lat="45.84116121928014" lon="10.582517835615448"><ele>403.0</ele><time>2026-04-06T12:27:31.026Z</time></trkpt><trkpt lat="45.84117720323203" lon="10.582409119745899"><ele>402.66666666666663</ele><time>2026-04-06T12:27:32.026Z</time></trkpt><trkpt lat="45.841188478070826" lon="10.582311958492648"><ele>402.3333333333333</ele><time>2026-04-06T12:27:33.026Z</time></trkpt><trkpt lat="45.84119120560461" lon="10.582155165851601"><ele>402.0</ele><time>2026-04-06T12:27:35.026Z</time></trkpt><trkpt lat="45.84111108788454" lon="10.582037144225925"><ele>402.0</ele><time>2026-04-06T12:27:37.026Z</time></trkpt><trkpt lat="45.841034905555375" lon="10.582072541844834"><ele>402.0</ele><time>2026-04-06T12:27:38.026Z</time></trkpt><trkpt lat="45.84097520249386" lon="10.582182276658857"><ele>402.0</ele><time>2026-04-06T12:27:39.026Z</time></trkpt><trkpt lat="45.840943597017144" lon="10.582368384232709"><ele>402.0</ele><time>2026-04-06T12:27:40.026Z</time></trkpt><trkpt lat="45.840909202073526" lon="10.58258466411273"><ele>410.66666666666663</ele><time>2026-04-06T12:27:41.026Z</time></trkpt><trkpt lat="45.840846479119406" lon="10.582822306548437"><ele>419.3333333333333</ele><time>2026-04-06T12:27:42.026Z</time></trkpt><trkpt lat="45.84079715401759" lon="10.583039649071424"><ele>428.0</ele><time>2026-04-06T12:27:43.026Z</time></trkpt><trkpt lat="45.84076979926746" lon="10.58322361696336"><ele>428.0</ele><time>2026-04-06T12:27:44.026Z</time></trkpt><trkpt lat="45.84073497932435" lon="10.583405755711489"><ele>428.0</ele><time>2026-04-06T12:27:45.026Z</time></trkpt><trkpt lat="45.84070604137458" lon="10.583644575474002"><ele>428.0</ele><time>2026-04-06T12:27:46.026Z</time></trkpt><trkpt lat="45.84070724335438" lon="10.583923860508595"><ele>428.5</ele><time>2026-04-06T12:27:47.026Z</time></trkpt><trkpt lat="45.840713142928465" lon="10.584235103877091"><ele>429.0</ele><time>2026-04-06T12:27:48.026Z</time></trkpt><trkpt lat="45.84069696939164" lon="10.584582229203942"><ele>432.0</ele><time>2026-04-06T12:27:49.026Z</time></trkpt><trkpt lat="45.8406483391275" lon="10.584929443725299"><ele>435.0</ele><time>2026-04-06T12:27:50.026Z</time></trkpt><trkpt lat="45.840632700144994" lon="10.585231411022107"><ele>436.66666666666663</ele><time>2026-04-06T12:27:51.026Z</time></trkpt><trkpt lat="45.84060600810656" lon="10.585487242140282"><ele>438.3333333333333</ele><time>2026-04-06T12:27:52.026Z</time></trkpt><trkpt lat="45.84061961865733" lon="10.58573704568335"><ele>440.0</ele><time>2026-04-06T12:27:53.026Z</time></trkpt><trkpt lat="45.84065402258521" lon="10.586030538815075"><ele>441.0</ele><time>2026-04-06T12:27:54.026Z</time></trkpt><trkpt lat="45.840674861959684" lon="10.586313999491583"><ele>442.0</ele><time>2026-04-06T12:27:55.026Z</time></trkpt><trkpt lat="45.840681647751275" lon="10.586535825799617"><ele>443.0</ele><time>2026-04-06T12:27:56.026Z</time></trkpt><trkpt lat="45.84069268798452" lon="10.586704953708384"><ele>442.99999999999994</ele><time>2026-04-06T12:27:57.026Z</time></trkpt><trkpt lat="45.840702232031305" lon="10.586840066435164"><ele>443.0</ele><time>2026-04-06T12:27:58.026Z</time></trkpt><trkpt lat="45.84070928628999" lon="10.5869369905287"><ele>443.0</ele><time>2026-04-06T12:27:59.026Z</time></trkpt><trkpt lat="45.84072801599734" lon="10.587037380392726"><ele>443.0</ele><time>2026-04-06T12:28:01.026Z</time></trkpt><trkpt lat="45.84070597166273" lon="10.58720484606982"><ele>442.99999999999994</ele><time>2026-04-06T12:28:03.026Z</time></trkpt><trkpt lat="45.840647250073445" lon="10.587242017076441"><ele>443.0</ele><time>2026-04-06T12:28:04.026Z</time></trkpt><trkpt lat="45.84058703839258" lon="10.587178557317062"><ele>443.0</ele><time>2026-04-06T12:28:05.026Z</time></trkpt><trkpt lat="45.84055066436246" lon="10.587078622843743"><ele>442.99999999999994</ele><time>2026-04-06T12:28:06.026Z</time></trkpt><trkpt lat="45.84056932590966" lon="10.586898385806307"><ele>442.99999999999994</ele><time>2026-04-06T12:28:07.026Z</time></trkpt><trkpt lat="45.840542411618976" lon="10.586709229185864"><ele>443.0</ele><time>2026-04-06T12:28:08.026Z</time></trkpt><trkpt lat="45.84054078640614" lon="10.586564480504984"><ele>443.0</ele><time>2026-04-06T12:28:09.026Z</time></trkpt><trkpt lat="45.84052748809254" lon="10.586443433282291"><ele>442.99999999999994</ele><time>2026-04-06T12:28:10.026Z</time></trkpt><trkpt lat="45.84052759622254" lon="10.586346985407681"><ele>443.0</ele><time>2026-04-06T12:28:11.026Z</time></trkpt><trkpt lat="45.84051404174116" lon="10.58625576809894"><ele>443.0</ele><time>2026-04-06T12:28:12.026Z</time></trkpt><trkpt lat="45.84042211172991" lon="10.586167581634903"><ele>443.0</ele><time>2026-04-06T12:28:14.026Z</time></trkpt><trkpt lat="45.840348669909105" lon="10.586289257459358"><ele>442.99999999999994</ele><time>2026-04-06T12:28:16.026Z</time></trkpt><trkpt lat="45.84035592657567" lon="10.586407293784639"><ele>443.0</ele><time>2026-04-06T12:28:17.026Z</time></trkpt><trkpt lat="45.84035205006314" lon="10.586557437655939"><ele>443.0</ele><time>2026-04-06T12:28:18.026Z</time></trkpt><trkpt lat="45.840355352684085" lon="10.58675681826391"><ele>443.0</ele><time>2026-04-06T12:28:19.026Z</time></trkpt><trkpt lat="45.840376686055876" lon="10.586997543061107"><ele>443.0</ele><time>2026-04-06T12:28:20.026Z</time></trkpt><trkpt lat="45.84042582143367" lon="10.587233336963385"><ele>445.0</ele><time>2026-04-06T12:28:21.026Z</time></trkpt><trkpt lat="45.84049907767501" lon="10.587509784737685"><ele>447.0</ele><time>2026-04-06T12:28:22.026Z</time></trkpt><trkpt lat="45.84056065073296" lon="10.587770470223754"><ele>449.0</ele><time>2026-04-06T12:28:23.026Z</time></trkpt><trkpt lat="45.84058131272039" lon="10.58803815126794"><ele>450.66666666666663</ele><time>2026-04-06T12:28:24.026Z</time></trkpt><trkpt lat="45.84058611760344" lon="10.588305719609128"><ele>452.33333333333337</ele><time>2026-04-06T12:28:25.026Z</time></trkpt><trkpt lat="45.84060013828621" lon="10.588571310045525"><ele>454.0</ele><time>2026-04-06T12:28:26.026Z</time></trkpt><trkpt lat="45.84060546778248" lon="10.588770567961099"><ele>455.5</ele><time>2026-04-06T12:28:27.026Z</time></trkpt><trkpt lat="45.840596490305465" lon="10.588923020559593"><ele>457.0</ele><time>2026-04-06T12:28:28.026Z</time></trkpt><trkpt lat="45.84053815210612" lon="10.589072543451302"><ele>458.5</ele><time>2026-04-06T12:28:29.026Z</time></trkpt><trkpt lat="45.84047021353226" lon="10.589297484687867"><ele>460.0</ele><time>2026-04-06T12:28:30.026Z</time></trkpt><trkpt lat="45.840373967724574" lon="10.589529763784173"><ele>460.25</ele><time>2026-04-06T12:28:31.026Z</time></trkpt><trkpt lat="45.84028050150775" lon="10.589710101491953"><ele>460.5</ele><time>2026-04-06T12:28:32.026Z</time></trkpt><trkpt lat="45.84018875114578" lon="10.589822026834904"><ele>460.75</ele><time>2026-04-06T12:28:33.026Z</time></trkpt><trkpt lat="45.840108086748714" lon="10.589893980081207"><ele>461.0</ele><time>2026-04-06T12:28:34.026Z</time></trkpt><trkpt lat="45.840074190214956" lon="10.590027850165384"><ele>460.25</ele><time>2026-04-06T12:28:35.026Z</time></trkpt><trkpt lat="45.84007919677341" lon="10.590205021265573"><ele>459.5</ele><time>2026-04-06T12:28:36.026Z</time></trkpt><trkpt lat="45.84013527648916" lon="10.5903986383412"><ele>458.75</ele><time>2026-04-06T12:28:37.026Z</time></trkpt><trkpt lat="45.8402290844132" lon="10.590606003150965"><ele>458.0</ele><time>2026-04-06T12:28:38.026Z</time></trkpt><trkpt lat="45.84033514508558" lon="10.59077534355661"><ele>458.0</ele><time>2026-04-06T12:28:39.026Z</time></trkpt><trkpt lat="45.84037714248876" lon="10.590918663593465"><ele>458.0</ele><time>2026-04-06T12:28:40.026Z</time></trkpt><trkpt lat="45.84037666433333" lon="10.591065211355946"><ele>458.0</ele><time>2026-04-06T12:28:41.026Z</time></trkpt><trkpt lat="45.84032522466457" lon="10.591254454139154"><ele>458.0</ele><time>2026-04-06T12:28:42.026Z</time></trkpt><trkpt lat="45.84028687064843" lon="10.5914897949435"><ele>459.66666666666663</ele><time>2026-04-06T12:28:43.026Z</time></trkpt><trkpt lat="45.840264975559194" lon="10.59173149333594"><ele>461.33333333333337</ele><time>2026-04-06T12:28:44.026Z</time></trkpt><trkpt lat="45.84030039268514" lon="10.591999810035045"><ele>463.0</ele><time>2026-04-06T12:28:45.026Z</time></trkpt><trkpt lat="45.84037196654515" lon="10.59227264234186"><ele>466.0</ele><time>2026-04-06T12:28:46.026Z</time></trkpt><trkpt lat="45.840424084738515" lon="10.592515704177409"><ele>469.0</ele><time>2026-04-06T12:28:47.026Z</time></trkpt><trkpt lat="45.84042525859441" lon="10.592761643678566"><ele>472.0</ele><time>2026-04-06T12:28:48.026Z</time></trkpt><trkpt lat="45.84041392598113" lon="10.593062935899125"><ele>475.5</ele><time>2026-04-06T12:28:49.026Z</time></trkpt><trkpt lat="45.840412870679636" lon="10.593398544735896"><ele>479.0</ele><time>2026-04-06T12:28:50.026Z</time></trkpt><trkpt lat="45.840449999218286" lon="10.593773914684032"><ele>484.0</ele><time>2026-04-06T12:28:51.026Z</time></trkpt><trkpt lat="45.84049859090158" lon="10.594144367909145"><ele>489.0</ele><time>2026-04-06T12:28:52.026Z</time></trkpt><trkpt lat="45.84053300376093" lon="10.594449809229214"><ele>497.66666666666663</ele><time>2026-04-06T12:28:53.026Z</time></trkpt><trkpt lat="45.8405669795111" lon="10.594696677112454"><ele>506.3333333333333</ele><time>2026-04-06T12:28:54.026Z</time></trkpt><trkpt lat="45.840611663536926" lon="10.59491212233506"><ele>515.0</ele><time>2026-04-06T12:28:55.026Z</time></trkpt><trkpt lat="45.84064591652076" lon="10.595090686153661"><ele>515.0</ele><time>2026-04-06T12:28:56.026Z</time></trkpt><trkpt lat="45.84067030158719" lon="10.595224888563097"><ele>515.0</ele><time>2026-04-06T12:28:57.026Z</time></trkpt><trkpt lat="45.84069053107524" lon="10.59533037945052"><ele>515.0</ele><time>2026-04-06T12:28:58.026Z</time></trkpt><trkpt lat="45.8407170537776" lon="10.595412602969049"><ele>515.0</ele><time>2026-04-06T12:28:59.026Z</time></trkpt><trkpt lat="45.84076023575634" lon="10.595523172095408"><ele>515.0</ele><time>2026-04-06T12:29:00.026Z</time></trkpt><trkpt lat="45.84083240290699" lon="10.595527956152358"><ele>515.0</ele><time>2026-04-06T12:29:01.026Z</time></trkpt><trkpt lat="45.840904544594956" lon="10.595507872178642"><ele>517.8</ele><time>2026-04-06T12:29:02.026Z</time></trkpt><trkpt lat="45.84099541007231" lon="10.595493248424448"><ele>520.6</ele><time>2026-04-06T12:29:03.026Z</time></trkpt><trkpt lat="45.84109202401096" lon="10.595454305370971"><ele>523.4</ele><time>2026-04-06T12:29:04.026Z</time></trkpt><trkpt lat="45.84118819054085" lon="10.595384085838694"><ele>526.2</ele><time>2026-04-06T12:29:05.026Z</time></trkpt><trkpt lat="45.84127471793972" lon="10.595307452816213"><ele>529.0</ele><time>2026-04-06T12:29:06.026Z</time></trkpt><trkpt lat="45.84133733989335" lon="10.595201823043512"><ele>529.0</ele><time>2026-04-06T12:29:07.026Z</time></trkpt><trkpt lat="45.8414089267395" lon="10.595068211330496"><ele>529.0</ele><time>2026-04-06T12:29:08.026Z</time></trkpt><trkpt lat="45.841451528910945" lon="10.594913375472728"><ele>529.0</ele><time>2026-04-06T12:29:09.026Z</time></trkpt><trkpt lat="45.84149635075033" lon="10.59475008483563"><ele>529.0</ele><time>2026-04-06T12:29:10.026Z</time></trkpt><trkpt lat="45.841553573175936" lon="10.594576597393324"><ele>518.75</ele><time>2026-04-06T12:29:11.026Z</time></trkpt><trkpt lat="45.841628782993524" lon="10.594423434371787"><ele>508.5</ele><time>2026-04-06T12:29:12.026Z</time></trkpt><trkpt lat="45.8417271033853" lon="10.594343374688522"><ele>498.25</ele><time>2026-04-06T12:29:13.026Z</time></trkpt><trkpt lat="45.84172722789886" lon="10.594467886896632"><ele>488.0</ele><time>2026-04-06T12:29:14.026Z</time></trkpt><trkpt lat="45.841842662106" lon="10.594390422178366"><ele>487.75</ele><time>2026-04-06T12:29:15.026Z</time></trkpt><trkpt lat="45.84194561159013" lon="10.594265315093969"><ele>487.5</ele><time>2026-04-06T12:29:16.026Z</time></trkpt><trkpt lat="45.84203628131148" lon="10.594182388380021"><ele>487.25</ele><time>2026-04-06T12:29:17.026Z</time></trkpt><trkpt lat="45.84213715845297" lon="10.59411134088428"><ele>487.0</ele><time>2026-04-06T12:29:18.026Z</time></trkpt><trkpt lat="45.84223557920392" lon="10.59414203070029"><ele>487.0</ele><time>2026-04-06T12:29:19.026Z</time></trkpt><trkpt lat="45.842342974580234" lon="10.594193087833021"><ele>487.0</ele><time>2026-04-06T12:29:20.026Z</time></trkpt><trkpt lat="45.84244158105891" lon="10.594277370314526"><ele>487.0</ele><time>2026-04-06T12:29:21.026Z</time></trkpt><trkpt lat="45.84259298550065" lon="10.59442320460839"><ele>487.0</ele><time>2026-04-06T12:29:22.026Z</time></trkpt><trkpt lat="45.84271926592373" lon="10.594540204725316"><ele>492.00000000000006</ele><time>2026-04-06T12:29:23.026Z</time></trkpt><trkpt lat="45.84281978308104" lon="10.594629162488097"><ele>497.0</ele><time>2026-04-06T12:29:24.026Z</time></trkpt><trkpt lat="45.84288158027578" lon="10.594695461747028"><ele>502.0</ele><time>2026-04-06T12:29:25.026Z</time></trkpt><trkpt lat="45.84287934290093" lon="10.594788411025888"><ele>507.0</ele><time>2026-04-06T12:29:27.026Z</time></trkpt><trkpt lat="45.842813973099034" lon="10.59476668610833"><ele>512.0</ele><time>2026-04-06T12:29:29.026Z</time></trkpt><trkpt lat="45.842748995593986" lon="10.594714407507748"><ele>517.0</ele><time>2026-04-06T12:29:30.026Z</time></trkpt><trkpt lat="45.84266862022956" lon="10.594580867577756"><ele>509.5</ele><time>2026-04-06T12:29:31.026Z</time></trkpt><trkpt lat="45.84254250831818" lon="10.59446933933325"><ele>502.0</ele><time>2026-04-06T12:29:32.026Z</time></trkpt><trkpt lat="45.84240327224236" lon="10.594370917542506"><ele>494.5</ele><time>2026-04-06T12:29:33.026Z</time></trkpt><trkpt lat="45.842287704765624" lon="10.59431280936936"><ele>487.0</ele><time>2026-04-06T12:29:34.026Z</time></trkpt><trkpt lat="45.842189715197094" lon="10.594301239980375"><ele>487.0</ele><time>2026-04-06T12:29:35.026Z</time></trkpt><trkpt lat="45.842120646483" lon="10.594320218726361"><ele>487.00000000000006</ele><time>2026-04-06T12:29:36.026Z</time></trkpt><trkpt lat="45.842063640912784" lon="10.594481880245333"><ele>487.00000000000006</ele><time>2026-04-06T12:29:38.026Z</time></trkpt><trkpt lat="45.842136333793654" lon="10.59457151351284"><ele>487.0</ele><time>2026-04-06T12:29:39.026Z</time></trkpt><trkpt lat="45.84222983472235" lon="10.594589269601409"><ele>487.0</ele><time>2026-04-06T12:29:40.026Z</time></trkpt><trkpt lat="45.84232460409379" lon="10.594582014552419"><ele>493.0</ele><time>2026-04-06T12:29:41.026Z</time></trkpt><trkpt lat="45.84241531397241" lon="10.594638695122216"><ele>499.00000000000006</ele><time>2026-04-06T12:29:42.026Z</time></trkpt><trkpt lat="45.84250019073733" lon="10.594736147822147"><ele>505.00000000000006</ele><time>2026-04-06T12:29:43.026Z</time></trkpt><trkpt lat="45.842584214730095" lon="10.594830550859871"><ele>511.0</ele><time>2026-04-06T12:29:44.026Z</time></trkpt><trkpt lat="45.842644158159665" lon="10.594932561452154"><ele>517.0</ele><time>2026-04-06T12:29:45.026Z</time></trkpt><trkpt lat="45.842663075378" lon="10.595084232316275"><ele>517.0</ele><time>2026-04-06T12:29:46.026Z</time></trkpt><trkpt lat="45.84268900735269" lon="10.595261069687908"><ele>517.0</ele><time>2026-04-06T12:29:47.026Z</time></trkpt><trkpt lat="45.84276624313826" lon="10.595527420334113"><ele>517.0</ele><time>2026-04-06T12:29:48.026Z</time></trkpt><trkpt lat="45.84284770718097" lon="10.595716797467809"><ele>520.8000000000001</ele><time>2026-04-06T12:29:49.026Z</time></trkpt><trkpt lat="45.84292246026791" lon="10.595839980113434"><ele>524.6</ele><time>2026-04-06T12:29:50.026Z</time></trkpt><trkpt lat="45.84296666641451" lon="10.59595217974135"><ele>528.4000000000001</ele><time>2026-04-06T12:29:51.026Z</time></trkpt><trkpt lat="45.842950321987615" lon="10.596078550281934"><ele>532.2</ele><time>2026-04-06T12:29:52.026Z</time></trkpt><trkpt lat="45.842953601320595" lon="10.596231707952223"><ele>536.0</ele><time>2026-04-06T12:29:53.026Z</time></trkpt><trkpt lat="45.84297934967859" lon="10.596432000060297"><ele>538.5</ele><time>2026-04-06T12:29:54.026Z</time></trkpt><trkpt lat="45.84304179685601" lon="10.59665607001816"><ele>541.0</ele><time>2026-04-06T12:29:55.026Z</time></trkpt><trkpt lat="45.843122145499926" lon="10.59684344536778"><ele>543.5</ele><time>2026-04-06T12:29:56.026Z</time></trkpt><trkpt lat="45.84319824050738" lon="10.596988156658783"><ele>546.0</ele><time>2026-04-06T12:29:57.026Z</time></trkpt><trkpt lat="45.843291640148564" lon="10.597077728717906"><ele>548.6666666666666</ele><time>2026-04-06T12:29:58.026Z</time></trkpt><trkpt lat="45.84344240677621" lon="10.597150616948312"><ele>551.3333333333333</ele><time>2026-04-06T12:29:59.026Z</time></trkpt><trkpt lat="45.84361238053619" lon="10.597250642946063"><ele>554.0</ele><time>2026-04-06T12:30:00.026Z</time></trkpt><trkpt lat="45.843778999183556" lon="10.597391839777565"><ele>554.0</ele><time>2026-04-06T12:30:01.026Z</time></trkpt><trkpt lat="45.84394002925426" lon="10.597611398776012"><ele>554.0</ele><time>2026-04-06T12:30:02.026Z</time></trkpt><trkpt lat="45.844090754038355" lon="10.597780299828338"><ele>554.0</ele><time>2026-04-06T12:30:03.026Z</time></trkpt><trkpt lat="45.84422866254909" lon="10.597923648880164"><ele>556.75</ele><time>2026-04-06T12:30:04.026Z</time></trkpt><trkpt lat="45.84435354586128" lon="10.59803993181326"><ele>559.5</ele><time>2026-04-06T12:30:05.026Z</time></trkpt><trkpt lat="45.84446212353929" lon="10.598151270581806"><ele>562.25</ele><time>2026-04-06T12:30:06.026Z</time></trkpt><trkpt lat="45.84452636997658" lon="10.598297155577841"><ele>565.0</ele><time>2026-04-06T12:30:07.026Z</time></trkpt><trkpt lat="45.84457007990479" lon="10.598450165789012"><ele>565.0</ele><time>2026-04-06T12:30:08.026Z</time></trkpt><trkpt lat="45.84460452506219" lon="10.59864144027518"><ele>565.0</ele><time>2026-04-06T12:30:09.026Z</time></trkpt><trkpt lat="45.84466130854494" lon="10.598822740297454"><ele>565.0</ele><time>2026-04-06T12:30:10.026Z</time></trkpt><trkpt lat="45.844747356508435" lon="10.59902225256949"><ele>565.0</ele><time>2026-04-06T12:30:11.026Z</time></trkpt><trkpt lat="45.84487647713211" lon="10.599170293660935"><ele>564.6</ele><time>2026-04-06T12:30:12.026Z</time></trkpt><trkpt lat="45.84497008726666" lon="10.599308184211042"><ele>564.2</ele><time>2026-04-06T12:30:13.026Z</time></trkpt><trkpt lat="45.84505035923401" lon="10.599414611692312"><ele>563.8</ele><time>2026-04-06T12:30:14.026Z</time></trkpt><trkpt lat="45.845107477871835" lon="10.599514323616885"><ele>563.4</ele><time>2026-04-06T12:30:15.026Z</time></trkpt><trkpt lat="45.84514742159693" lon="10.599629583519198"><ele>563.0</ele><time>2026-04-06T12:30:16.026Z</time></trkpt><trkpt lat="45.845169972721344" lon="10.599772551184888"><ele>569.0</ele><time>2026-04-06T12:30:17.026Z</time></trkpt><trkpt lat="45.8451690856383" lon="10.59995139169289"><ele>575.0</ele><time>2026-04-06T12:30:18.026Z</time></trkpt><trkpt lat="45.84517119596864" lon="10.600141094673608"><ele>581.0</ele><time>2026-04-06T12:30:19.026Z</time></trkpt><trkpt lat="45.84517415902769" lon="10.600382970056001"><ele>587.0</ele><time>2026-04-06T12:30:20.026Z</time></trkpt><trkpt lat="45.845181622684095" lon="10.600632002240395"><ele>587.0</ele><time>2026-04-06T12:30:21.026Z</time></trkpt><trkpt lat="45.8451994393234" lon="10.600884015552348"><ele>587.0</ele><time>2026-04-06T12:30:22.026Z</time></trkpt><trkpt lat="45.84522861802906" lon="10.601090359261496"><ele>587.0</ele><time>2026-04-06T12:30:23.026Z</time></trkpt><trkpt lat="45.845263201088585" lon="10.601269396624785"><ele>586.2</ele><time>2026-04-06T12:30:24.026Z</time></trkpt><trkpt lat="45.84529578384406" lon="10.601424987853534"><ele>585.4000000000001</ele><time>2026-04-06T12:30:25.026Z</time></trkpt><trkpt lat="45.84532592058834" lon="10.601562214651706"><ele>584.5999999999999</ele><time>2026-04-06T12:30:26.026Z</time></trkpt><trkpt lat="45.84534128787353" lon="10.60167595008546"><ele>583.8</ele><time>2026-04-06T12:30:27.026Z</time></trkpt><trkpt lat="45.84533512086873" lon="10.601791937921014"><ele>583.0</ele><time>2026-04-06T12:30:28.026Z</time></trkpt><trkpt lat="45.84528066130798" lon="10.601896437520928"><ele>582.5</ele><time>2026-04-06T12:30:29.026Z</time></trkpt><trkpt lat="45.84520700045061" lon="10.602001577473438"><ele>582.0</ele><time>2026-04-06T12:30:30.026Z</time></trkpt><trkpt lat="45.84510153621969" lon="10.60216798580216"><ele>581.5</ele><time>2026-04-06T12:30:31.026Z</time></trkpt><trkpt lat="45.84504205689357" lon="10.60232873727774"><ele>581.0</ele><time>2026-04-06T12:30:32.026Z</time></trkpt><trkpt lat="45.844985065396564" lon="10.602539315932392"><ele>581.0</ele><time>2026-04-06T12:30:33.026Z</time></trkpt><trkpt lat="45.84494156918454" lon="10.60273513116263"><ele>581.0</ele><time>2026-04-06T12:30:34.026Z</time></trkpt><trkpt lat="45.84492262657567" lon="10.602923925404212"><ele>581.0</ele><time>2026-04-06T12:30:35.026Z</time></trkpt><trkpt lat="45.84492762428291" lon="10.603146137124302"><ele>581.0</ele><time>2026-04-06T12:30:36.026Z</time></trkpt><trkpt lat="45.844949620362456" lon="10.603355100869141"><ele>585.0</ele><time>2026-04-06T12:30:37.026Z</time></trkpt><trkpt lat="45.844997141241215" lon="10.603587976895456"><ele>589.0</ele><time>2026-04-06T12:30:38.026Z</time></trkpt><trkpt lat="45.84503327885755" lon="10.603837497412023"><ele>593.0</ele><time>2026-04-06T12:30:39.026Z</time></trkpt><trkpt lat="45.84504355601582" lon="10.604080347028534"><ele>596.6</ele><time>2026-04-06T12:30:40.026Z</time></trkpt><trkpt lat="45.84507167241354" lon="10.604261694055262"><ele>600.1999999999999</ele><time>2026-04-06T12:30:41.026Z</time></trkpt><trkpt lat="45.84511453025455" lon="10.604394983305742"><ele>603.8</ele><time>2026-04-06T12:30:42.026Z</time></trkpt><trkpt lat="45.84520384134111" lon="10.604512140308234"><ele>607.4</ele><time>2026-04-06T12:30:43.026Z</time></trkpt><trkpt lat="45.84522417652931" lon="10.604621780930882"><ele>611.0</ele><time>2026-04-06T12:30:44.026Z</time></trkpt><trkpt lat="45.845180756665464" lon="10.60472762946405"><ele>609.6666666666666</ele><time>2026-04-06T12:30:45.026Z</time></trkpt><trkpt lat="45.84513806420675" lon="10.604924854971507"><ele>608.3333333333334</ele><time>2026-04-06T12:30:46.026Z</time></trkpt><trkpt lat="45.845121772710414" lon="10.605164648451074"><ele>607.0</ele><time>2026-04-06T12:30:47.026Z</time></trkpt><trkpt lat="45.84512603808014" lon="10.60545262505869"><ele>607.0</ele><time>2026-04-06T12:30:48.026Z</time></trkpt><trkpt lat="45.84515700642282" lon="10.605766614344635"><ele>607.0</ele><time>2026-04-06T12:30:49.026Z</time></trkpt><trkpt lat="45.84518164521794" lon="10.606114254940293"><ele>607.0</ele><time>2026-04-06T12:30:50.026Z</time></trkpt><trkpt lat="45.84523235969628" lon="10.606484161522655"><ele>607.0</ele><time>2026-04-06T12:30:51.026Z</time></trkpt><trkpt lat="45.84524505126858" lon="10.606809852851626"><ele>607.0</ele><time>2026-04-06T12:30:52.026Z</time></trkpt><trkpt lat="45.845268618505195" lon="10.607076209851826"><ele>607.0</ele><time>2026-04-06T12:30:53.026Z</time></trkpt><trkpt lat="45.84529878178764" lon="10.607308941064138"><ele>607.0</ele><time>2026-04-06T12:30:54.026Z</time></trkpt><trkpt lat="45.845310279356475" lon="10.607521060545498"><ele>607.0</ele><time>2026-04-06T12:30:55.026Z</time></trkpt><trkpt lat="45.84532785048829" lon="10.607704166562273"><ele>607.0</ele><time>2026-04-06T12:30:56.026Z</time></trkpt><trkpt lat="45.84532585660299" lon="10.607871669929985"><ele>607.0</ele><time>2026-04-06T12:30:57.026Z</time></trkpt><trkpt lat="45.845293245478715" lon="10.608060629490355"><ele>607.0</ele><time>2026-04-06T12:30:58.026Z</time></trkpt><trkpt lat="45.845222853017965" lon="10.608277017970126"><ele>598.0</ele><time>2026-04-06T12:30:59.026Z</time></trkpt><trkpt lat="45.84512484770731" lon="10.608509250278685"><ele>589.0</ele><time>2026-04-06T12:31:00.026Z</time></trkpt><trkpt lat="45.845005468356135" lon="10.60866276254952"><ele>580.0</ele><time>2026-04-06T12:31:01.026Z</time></trkpt><trkpt lat="45.844882416548245" lon="10.608779723577847"><ele>580.0</ele><time>2026-04-06T12:31:02.026Z</time></trkpt><trkpt lat="45.84478830613822" lon="10.608892829323176"><ele>580.0</ele><time>2026-04-06T12:31:03.026Z</time></trkpt><trkpt lat="45.84472597270952" lon="10.609028862784616"><ele>580.0</ele><time>2026-04-06T12:31:04.026Z</time></trkpt><trkpt lat="45.84470205556426" lon="10.609219098787678"><ele>580.0</ele><time>2026-04-06T12:31:05.026Z</time></trkpt><trkpt lat="45.84471156884004" lon="10.609429557299999"><ele>586.0</ele><time>2026-04-06T12:31:06.026Z</time></trkpt><trkpt lat="45.84475546782521" lon="10.609665389825702"><ele>592.0</ele><time>2026-04-06T12:31:07.026Z</time></trkpt><trkpt lat="45.8447317110006" lon="10.609916578083297"><ele>598.0</ele><time>2026-04-06T12:31:08.026Z</time></trkpt><trkpt lat="45.84469721333559" lon="10.610211437056476"><ele>601.0</ele><time>2026-04-06T12:31:09.026Z</time></trkpt><trkpt lat="45.84468746591377" lon="10.61051648714694"><ele>604.0</ele><time>2026-04-06T12:31:10.026Z</time></trkpt><trkpt lat="45.844689679121814" lon="10.610770801460188"><ele>607.0</ele><time>2026-04-06T12:31:11.026Z</time></trkpt><trkpt lat="45.844680757093116" lon="10.610987475513854"><ele>612.25</ele><time>2026-04-06T12:31:12.026Z</time></trkpt><trkpt lat="45.84467306699158" lon="10.611182488245843"><ele>617.5</ele><time>2026-04-06T12:31:13.026Z</time></trkpt><trkpt lat="45.84464832295567" lon="10.611365766493707"><ele>622.75</ele><time>2026-04-06T12:31:14.026Z</time></trkpt><trkpt lat="45.8446106984948" lon="10.61153994599101"><ele>628.0</ele><time>2026-04-06T12:31:15.026Z</time></trkpt><trkpt lat="45.84455846386512" lon="10.611723065433"><ele>628.0</ele><time>2026-04-06T12:31:16.026Z</time></trkpt><trkpt lat="45.84448210140036" lon="10.611914588874074"><ele>628.0</ele><time>2026-04-06T12:31:17.026Z</time></trkpt><trkpt lat="45.84438928039123" lon="10.612105804176673"><ele>628.0</ele><time>2026-04-06T12:31:18.026Z</time></trkpt><trkpt lat="45.844284096640074" lon="10.612310263579838"><ele>626.0</ele><time>2026-04-06T12:31:19.026Z</time></trkpt><trkpt lat="45.844176205711676" lon="10.612462275565596"><ele>624.0</ele><time>2026-04-06T12:31:20.026Z</time></trkpt><trkpt lat="45.844096580604216" lon="10.612618090796447"><ele>622.0</ele><time>2026-04-06T12:31:21.026Z</time></trkpt><trkpt lat="45.84404282101215" lon="10.612794098877947"><ele>620.0</ele><time>2026-04-06T12:31:22.026Z</time></trkpt><trkpt lat="45.84396271420778" lon="10.612987467258012"><ele>620.0</ele><time>2026-04-06T12:31:23.026Z</time></trkpt><trkpt lat="45.84387658818032" lon="10.613212804422306"><ele>620.0</ele><time>2026-04-06T12:31:24.026Z</time></trkpt><trkpt lat="45.844008880057004" lon="10.613643533110992"><ele>620.0</ele><time>2026-04-06T12:31:25.026Z</time></trkpt><trkpt lat="45.84403113241343" lon="10.613991273160607"><ele>620.0</ele><time>2026-04-06T12:31:26.026Z</time></trkpt><trkpt lat="45.844029782192756" lon="10.6143841079244"><ele>620.0</ele><time>2026-04-06T12:31:27.026Z</time></trkpt><trkpt lat="45.84399215825382" lon="10.614805045448207"><ele>620.0</ele><time>2026-04-06T12:31:28.026Z</time></trkpt><trkpt lat="45.84394255851499" lon="10.61520644540174"><ele>620.0</ele><time>2026-04-06T12:31:29.026Z</time></trkpt><trkpt lat="45.8439066475772" lon="10.6156074716485"><ele>620.0</ele><time>2026-04-06T12:31:30.026Z</time></trkpt><trkpt lat="45.84387764248879" lon="10.616043023113424"><ele>620.0</ele><time>2026-04-06T12:31:31.026Z</time></trkpt><trkpt lat="45.843832180575916" lon="10.616495247924197"><ele>620.0</ele><time>2026-04-06T12:31:32.026Z</time></trkpt><trkpt lat="45.84378737452019" lon="10.616913802594496"><ele>620.0</ele><time>2026-04-06T12:31:33.026Z</time></trkpt><trkpt lat="45.8437553040199" lon="10.617282247913838"><ele>620.0</ele><time>2026-04-06T12:31:34.026Z</time></trkpt><trkpt lat="45.84371181122451" lon="10.617619348134708"><ele>620.0</ele><time>2026-04-06T12:31:35.026Z</time></trkpt><trkpt lat="45.84366214366721" lon="10.617935052836799"><ele>620.0</ele><time>2026-04-06T12:31:36.026Z</time></trkpt><trkpt lat="45.84361609629047" lon="10.618215422978741"><ele>620.0</ele><time>2026-04-06T12:31:37.026Z</time></trkpt><trkpt lat="45.843573312770936" lon="10.618474358967593"><ele>620.0</ele><time>2026-04-06T12:31:38.026Z</time></trkpt><trkpt lat="45.84353704783619" lon="10.618715575122737"><ele>620.0</ele><time>2026-04-06T12:31:39.026Z</time></trkpt><trkpt lat="45.843503995024115" lon="10.618940569338209"><ele>620.0</ele><time>2026-04-06T12:31:40.026Z</time></trkpt><trkpt lat="45.843484945113865" lon="10.619145581362892"><ele>620.0</ele><time>2026-04-06T12:31:41.026Z</time></trkpt><trkpt lat="45.84346639624894" lon="10.619326571566265"><ele>620.0</ele><time>2026-04-06T12:31:42.026Z</time></trkpt><trkpt lat="45.84346417877553" lon="10.619491391918558"><ele>620.0</ele><time>2026-04-06T12:31:43.026Z</time></trkpt><trkpt lat="45.84348578458119" lon="10.619647971977912"><ele>620.0</ele><time>2026-04-06T12:31:44.026Z</time></trkpt><trkpt lat="45.843514950753175" lon="10.619783093553986"><ele>619.3333333333333</ele><time>2026-04-06T12:31:45.026Z</time></trkpt><trkpt lat="45.84353676869898" lon="10.61989812959033"><ele>618.6666666666666</ele><time>2026-04-06T12:31:46.026Z</time></trkpt><trkpt lat="45.84354429413229" lon="10.620005888307483"><ele>618.0</ele><time>2026-04-06T12:31:47.026Z</time></trkpt><trkpt lat="45.8435302334988" lon="10.620109711867862"><ele>617.3333333333334</ele><time>2026-04-06T12:31:48.026Z</time></trkpt><trkpt lat="45.843474084196785" lon="10.620193263835864"><ele>616.6666666666667</ele><time>2026-04-06T12:31:49.026Z</time></trkpt><trkpt lat="45.84338658333715" lon="10.620248679177042"><ele>616.0</ele><time>2026-04-06T12:31:50.026Z</time></trkpt><trkpt lat="45.84330706144625" lon="10.620298534437866"><ele>616.0</ele><time>2026-04-06T12:31:51.026Z</time></trkpt><trkpt lat="45.8432361316726" lon="10.620323826580872"><ele>616.0</ele><time>2026-04-06T12:31:52.026Z</time></trkpt><trkpt lat="45.84316879850763" lon="10.62027854314381"><ele>616.0</ele><time>2026-04-06T12:31:53.026Z</time></trkpt><trkpt lat="45.84310344197278" lon="10.620168049083192"><ele>616.0</ele><time>2026-04-06T12:31:54.026Z</time></trkpt><trkpt lat="45.843059753368095" lon="10.619988581192088"><ele>616.0</ele><time>2026-04-06T12:31:55.026Z</time></trkpt><trkpt lat="45.843019758454446" lon="10.61986196908894"><ele>616.0</ele><time>2026-04-06T12:31:56.026Z</time></trkpt><trkpt lat="45.84290120750368" lon="10.619852148567858"><ele>616.0</ele><time>2026-04-06T12:31:58.026Z</time></trkpt><trkpt lat="45.842865166636344" lon="10.619978870725676"><ele>616.0</ele><time>2026-04-06T12:31:59.026Z</time></trkpt><trkpt lat="45.84289251674519" lon="10.620126612096069"><ele>616.0</ele><time>2026-04-06T12:32:00.026Z</time></trkpt><trkpt lat="45.842964364727415" lon="10.620294784534627"><ele>617.0</ele><time>2026-04-06T12:32:01.026Z</time></trkpt><trkpt lat="45.84301973381424" lon="10.620495977017796"><ele>618.0</ele><time>2026-04-06T12:32:02.026Z</time></trkpt><trkpt lat="45.84309087235335" lon="10.620762963325586"><ele>619.0</ele><time>2026-04-06T12:32:03.026Z</time></trkpt><trkpt lat="45.84316409614923" lon="10.620987906481092"><ele>619.0</ele><time>2026-04-06T12:32:04.026Z</time></trkpt><trkpt lat="45.84320305260565" lon="10.621140773464314"><ele>619.0</ele><time>2026-04-06T12:32:05.026Z</time></trkpt><trkpt lat="45.84326373194082" lon="10.621267187234658"><ele>619.0</ele><time>2026-04-06T12:32:06.026Z</time></trkpt><trkpt lat="45.84335082433595" lon="10.621349459512663"><ele>619.0</ele><time>2026-04-06T12:32:07.026Z</time></trkpt><trkpt lat="45.843459584624355" lon="10.621385635245247"><ele>619.0</ele><time>2026-04-06T12:32:08.026Z</time></trkpt><trkpt lat="45.843540971763105" lon="10.621437836768054"><ele>623.25</ele><time>2026-04-06T12:32:09.026Z</time></trkpt><trkpt lat="45.84366319004474" lon="10.621375379056076"><ele>627.5</ele><time>2026-04-06T12:32:10.026Z</time></trkpt><trkpt lat="45.84376385556924" lon="10.62126040534697"><ele>631.75</ele><time>2026-04-06T12:32:11.026Z</time></trkpt><trkpt lat="45.84382753629813" lon="10.62115822154977"><ele>636.0</ele><time>2026-04-06T12:32:12.026Z</time></trkpt><trkpt lat="45.84391693129634" lon="10.621106794628448"><ele>636.0</ele><time>2026-04-06T12:32:13.026Z</time></trkpt><trkpt lat="45.84401475884829" lon="10.621109395838358"><ele>636.0</ele><time>2026-04-06T12:32:14.026Z</time></trkpt><trkpt lat="45.84410344849051" lon="10.621281516151736"><ele>636.0</ele><time>2026-04-06T12:32:15.026Z</time></trkpt><trkpt lat="45.844177211222075" lon="10.621453385686017"><ele>636.0</ele><time>2026-04-06T12:32:16.026Z</time></trkpt><trkpt lat="45.84423859651747" lon="10.621700293344334"><ele>638.3333333333334</ele><time>2026-04-06T12:32:17.026Z</time></trkpt><trkpt lat="45.84430456969763" lon="10.621946075623868"><ele>640.6666666666667</ele><time>2026-04-06T12:32:18.026Z</time></trkpt><trkpt lat="45.844402463741886" lon="10.622142170762935"><ele>643.0</ele><time>2026-04-06T12:32:19.026Z</time></trkpt><trkpt lat="45.84455863259086" lon="10.622343937089479"><ele>643.0</ele><time>2026-04-06T12:32:20.026Z</time></trkpt><trkpt lat="45.84475848605352" lon="10.62252154456744"><ele>643.0</ele><time>2026-04-06T12:32:21.026Z</time></trkpt><trkpt lat="45.84499002694323" lon="10.6226969569957"><ele>647.5</ele><time>2026-04-06T12:32:22.026Z</time></trkpt><trkpt lat="45.84523901165065" lon="10.622903039871046"><ele>652.0</ele><time>2026-04-06T12:32:23.026Z</time></trkpt><trkpt lat="45.84547748510844" lon="10.623139273509322"><ele>652.0</ele><time>2026-04-06T12:32:24.026Z</time></trkpt><trkpt lat="45.845683236952404" lon="10.623222911994583"><ele>652.0</ele><time>2026-04-06T12:32:25.026Z</time></trkpt><trkpt lat="45.845864556051694" lon="10.623340878988126"><ele>652.0</ele><time>2026-04-06T12:32:26.026Z</time></trkpt><trkpt lat="45.846019667827896" lon="10.623463210890815"><ele>658.75</ele><time>2026-04-06T12:32:27.026Z</time></trkpt><trkpt lat="45.84616419973388" lon="10.623553646892134"><ele>665.5</ele><time>2026-04-06T12:32:28.026Z</time></trkpt><trkpt lat="45.8462846330785" lon="10.623623751870701"><ele>672.25</ele><time>2026-04-06T12:32:29.026Z</time></trkpt><trkpt lat="45.846370592661756" lon="10.623760325919903"><ele>679.0</ele><time>2026-04-06T12:32:30.026Z</time></trkpt><trkpt lat="45.8464378495426" lon="10.623899708175271"><ele>679.0</ele><time>2026-04-06T12:32:31.026Z</time></trkpt><trkpt lat="45.84644835180971" lon="10.624038423799545"><ele>679.0</ele><time>2026-04-06T12:32:32.026Z</time></trkpt><trkpt lat="45.84648681502777" lon="10.62411919296535"><ele>679.0</ele><time>2026-04-06T12:32:33.026Z</time></trkpt><trkpt lat="45.84653595009676" lon="10.624245756462454"><ele>679.0</ele><time>2026-04-06T12:32:35.026Z</time></trkpt><trkpt lat="45.84648157832905" lon="10.624299578430254"><ele>679.0</ele><time>2026-04-06T12:32:36.026Z</time></trkpt><trkpt lat="45.84640970309328" lon="10.624268168379695"><ele>679.0</ele><time>2026-04-06T12:32:37.026Z</time></trkpt><trkpt lat="45.84636245768627" lon="10.62420320870755"><ele>679.0</ele><time>2026-04-06T12:32:38.026Z</time></trkpt><trkpt lat="45.84631437763422" lon="10.624098026188962"><ele>679.0</ele><time>2026-04-06T12:32:39.026Z</time></trkpt><trkpt lat="45.84624412593911" lon="10.623972224833343"><ele>679.0</ele><time>2026-04-06T12:32:40.026Z</time></trkpt><trkpt lat="45.84619427964097" lon="10.623831004060097"><ele>679.0</ele><time>2026-04-06T12:32:41.026Z</time></trkpt><trkpt lat="45.8461474433799" lon="10.623754883473014"><ele>679.0</ele><time>2026-04-06T12:32:42.026Z</time></trkpt><trkpt lat="45.846063969973564" lon="10.623736223215262"><ele>679.0</ele><time>2026-04-06T12:32:44.026Z</time></trkpt><trkpt lat="45.84603082138709" lon="10.623815192001281"><ele>679.0</ele><time>2026-04-06T12:32:45.026Z</time></trkpt><trkpt lat="45.84603658347941" lon="10.623932612832423"><ele>679.0</ele><time>2026-04-06T12:32:46.026Z</time></trkpt><trkpt lat="45.846107001748976" lon="10.624036859882782"><ele>679.0</ele><time>2026-04-06T12:32:47.026Z</time></trkpt><trkpt lat="45.84620770919978" lon="10.624155683559698"><ele>679.0</ele><time>2026-04-06T12:32:48.027Z</time></trkpt><trkpt lat="45.84632205608871" lon="10.624340856792488"><ele>677.0</ele><time>2026-04-06T12:32:49.027Z</time></trkpt><trkpt lat="45.84643423628307" lon="10.624540353274257"><ele>675.0</ele><time>2026-04-06T12:32:50.027Z</time></trkpt><trkpt lat="45.84651503099842" lon="10.624703887829659"><ele>673.0</ele><time>2026-04-06T12:32:51.027Z</time></trkpt><trkpt lat="45.84657016076484" lon="10.624921057893516"><ele>673.0</ele><time>2026-04-06T12:32:52.027Z</time></trkpt><trkpt lat="45.84667370512225" lon="10.625161575004862"><ele>673.0</ele><time>2026-04-06T12:32:53.027Z</time></trkpt><trkpt lat="45.84677435812418" lon="10.625374481287952"><ele>673.0</ele><time>2026-04-06T12:32:54.027Z</time></trkpt><trkpt lat="45.84685743171823" lon="10.625559419516897"><ele>671.25</ele><time>2026-04-06T12:32:55.027Z</time></trkpt><trkpt lat="45.84693750054646" lon="10.6257215904454"><ele>669.5</ele><time>2026-04-06T12:32:56.027Z</time></trkpt><trkpt lat="45.84705755114223" lon="10.62582257239144"><ele>667.75</ele><time>2026-04-06T12:32:57.027Z</time></trkpt><trkpt lat="45.84715547282154" lon="10.625911286478646"><ele>666.0</ele><time>2026-04-06T12:32:58.027Z</time></trkpt><trkpt lat="45.8472455618288" lon="10.626021842043766"><ele>666.0</ele><time>2026-04-06T12:32:59.027Z</time></trkpt><trkpt lat="45.847341132180844" lon="10.626115859979576"><ele>666.0</ele><time>2026-04-06T12:33:00.027Z</time></trkpt><trkpt lat="45.84738213854616" lon="10.626229155818502"><ele>666.0</ele><time>2026-04-06T12:33:01.027Z</time></trkpt><trkpt lat="45.84745494044817" lon="10.626361545408207"><ele>666.0</ele><time>2026-04-06T12:33:02.027Z</time></trkpt><trkpt lat="45.84756978045895" lon="10.626448300923492"><ele>675.75</ele><time>2026-04-06T12:33:03.027Z</time></trkpt><trkpt lat="45.847702449717026" lon="10.626519635621506"><ele>685.5</ele><time>2026-04-06T12:33:04.027Z</time></trkpt><trkpt lat="45.8478227239177" lon="10.626572826859913"><ele>695.25</ele><time>2026-04-06T12:33:05.027Z</time></trkpt><trkpt lat="45.84793022504216" lon="10.626608603693967"><ele>705.0</ele><time>2026-04-06T12:33:06.027Z</time></trkpt><trkpt lat="45.84804250717541" lon="10.62666958832281"><ele>705.0</ele><time>2026-04-06T12:33:07.027Z</time></trkpt><trkpt lat="45.84808736603541" lon="10.626857160306251"><ele>705.0</ele><time>2026-04-06T12:33:08.027Z</time></trkpt><trkpt lat="45.848143793867166" lon="10.62709139827504"><ele>705.0</ele><time>2026-04-06T12:33:09.027Z</time></trkpt><trkpt lat="45.8482189419821" lon="10.627279718813165"><ele>704.75</ele><time>2026-04-06T12:33:10.027Z</time></trkpt><trkpt lat="45.84827628985039" lon="10.627430611507794"><ele>704.5</ele><time>2026-04-06T12:33:11.027Z</time></trkpt><trkpt lat="45.84830352949552" lon="10.627572041112185"><ele>704.25</ele><time>2026-04-06T12:33:12.027Z</time></trkpt><trkpt lat="45.84830021589056" lon="10.627766575545612"><ele>704.0</ele><time>2026-04-06T12:33:13.027Z</time></trkpt><trkpt lat="45.84827961905141" lon="10.62801617979248"><ele>703.3333333333333</ele><time>2026-04-06T12:33:14.027Z</time></trkpt><trkpt lat="45.84824575906765" lon="10.62830230014481"><ele>702.6666666666666</ele><time>2026-04-06T12:33:15.027Z</time></trkpt><trkpt lat="45.84825242427879" lon="10.62856622510381"><ele>702.0</ele><time>2026-04-06T12:33:16.027Z</time></trkpt><trkpt lat="45.84828565480608" lon="10.628857881600574"><ele>702.0</ele><time>2026-04-06T12:33:17.027Z</time></trkpt><trkpt lat="45.84833383452143" lon="10.629195098393998"><ele>702.0</ele><time>2026-04-06T12:33:18.027Z</time></trkpt><trkpt lat="45.84838081643006" lon="10.629580339451518"><ele>704.0</ele><time>2026-04-06T12:33:19.027Z</time></trkpt><trkpt lat="45.84842334281765" lon="10.62998928249124"><ele>706.0</ele><time>2026-04-06T12:33:20.027Z</time></trkpt><trkpt lat="45.84846249422327" lon="10.630344834180109"><ele>703.0</ele><time>2026-04-06T12:33:21.027Z</time></trkpt><trkpt lat="45.84852716549642" lon="10.630656630050183"><ele>700.0</ele><time>2026-04-06T12:33:22.027Z</time></trkpt><trkpt lat="45.84859486702622" lon="10.630945175066094"><ele>697.0</ele><time>2026-04-06T12:33:23.027Z</time></trkpt><trkpt lat="45.84868494361112" lon="10.631202764638646"><ele>697.0</ele><time>2026-04-06T12:33:24.027Z</time></trkpt><trkpt lat="45.848797770437024" lon="10.631452363119285"><ele>697.0</ele><time>2026-04-06T12:33:25.027Z</time></trkpt><trkpt lat="45.84893567713009" lon="10.631696887370337"><ele>697.0</ele><time>2026-04-06T12:33:26.027Z</time></trkpt><trkpt lat="45.84910713512078" lon="10.631933943463737"><ele>701.0</ele><time>2026-04-06T12:33:27.027Z</time></trkpt><trkpt lat="45.84931611647413" lon="10.632165947473565"><ele>705.0</ele><time>2026-04-06T12:33:28.027Z</time></trkpt><trkpt lat="45.849534641945525" lon="10.632413080977246"><ele>705.0</ele><time>2026-04-06T12:33:29.027Z</time></trkpt><trkpt lat="45.84976228584725" lon="10.632691389183886"><ele>705.0</ele><time>2026-04-06T12:33:30.027Z</time></trkpt><trkpt lat="45.84998546080322" lon="10.632977322819455"><ele>705.0</ele><time>2026-04-06T12:33:31.027Z</time></trkpt><trkpt lat="45.85017597603686" lon="10.633226997918543"><ele>705.0</ele><time>2026-04-06T12:33:32.027Z</time></trkpt><trkpt lat="45.85033762834394" lon="10.6334236251858"><ele>705.0</ele><time>2026-04-06T12:33:33.027Z</time></trkpt><trkpt lat="45.85049549327601" lon="10.63358681611463"><ele>705.0</ele><time>2026-04-06T12:33:34.027Z</time></trkpt><trkpt lat="45.85064420367193" lon="10.633717095089946"><ele>705.0</ele><time>2026-04-06T12:33:35.027Z</time></trkpt><trkpt lat="45.85079663067616" lon="10.633824917595724"><ele>705.5</ele><time>2026-04-06T12:33:36.027Z</time></trkpt><trkpt lat="45.85093568980427" lon="10.63388561072142"><ele>706.0</ele><time>2026-04-06T12:33:37.027Z</time></trkpt><trkpt lat="45.85105724967016" lon="10.633909304350224"><ele>706.5</ele><time>2026-04-06T12:33:38.027Z</time></trkpt><trkpt lat="45.851169250839014" lon="10.633930563959613"><ele>707.0</ele><time>2026-04-06T12:33:39.027Z</time></trkpt><trkpt lat="45.851255201687394" lon="10.63399612160494"><ele>708.5</ele><time>2026-04-06T12:33:40.027Z</time></trkpt><trkpt lat="45.85134702618812" lon="10.634082296898933"><ele>710.0</ele><time>2026-04-06T12:33:41.027Z</time></trkpt><trkpt lat="45.851429203212426" lon="10.634212011508238"><ele>711.5</ele><time>2026-04-06T12:33:42.027Z</time></trkpt><trkpt lat="45.85148996123019" lon="10.634420601276174"><ele>713.0</ele><time>2026-04-06T12:33:43.027Z</time></trkpt><trkpt lat="45.851531248467296" lon="10.634643994792807"><ele>712.6666666666666</ele><time>2026-04-06T12:33:44.027Z</time></trkpt><trkpt lat="45.85163592006427" lon="10.634857015037387"><ele>712.3333333333334</ele><time>2026-04-06T12:33:45.027Z</time></trkpt><trkpt lat="45.851779052077156" lon="10.635041681225763"><ele>712.0</ele><time>2026-04-06T12:33:46.027Z</time></trkpt><trkpt lat="45.85193320792875" lon="10.635169396046575"><ele>712.0</ele><time>2026-04-06T12:33:47.027Z</time></trkpt><trkpt lat="45.85211410402947" lon="10.635238691620977"><ele>712.0</ele><time>2026-04-06T12:33:48.027Z</time></trkpt><trkpt lat="45.85225702898725" lon="10.635271966507895"><ele>712.0</ele><time>2026-04-06T12:33:49.027Z</time></trkpt><trkpt lat="45.852390134039766" lon="10.635297774442035"><ele>711.0</ele><time>2026-04-06T12:33:50.027Z</time></trkpt><trkpt lat="45.8525179255063" lon="10.635393854590042"><ele>710.0</ele><time>2026-04-06T12:33:51.027Z</time></trkpt><trkpt lat="45.852627236928626" lon="10.635554691727553"><ele>709.0</ele><time>2026-04-06T12:33:52.027Z</time></trkpt><trkpt lat="45.85277756374928" lon="10.635760372765684"><ele>709.0</ele><time>2026-04-06T12:33:53.027Z</time></trkpt><trkpt lat="45.85293410197997" lon="10.63597837069023"><ele>709.0</ele><time>2026-04-06T12:33:54.027Z</time></trkpt><trkpt lat="45.85307671868918" lon="10.636132169937916"><ele>709.0</ele><time>2026-04-06T12:33:55.027Z</time></trkpt><trkpt lat="45.853238452719886" lon="10.636221976983292"><ele>711.6666666666667</ele><time>2026-04-06T12:33:56.027Z</time></trkpt><trkpt lat="45.85342007285708" lon="10.636285319839542"><ele>714.3333333333334</ele><time>2026-04-06T12:33:57.027Z</time></trkpt><trkpt lat="45.85360441870864" lon="10.636318532657892"><ele>717.0</ele><time>2026-04-06T12:33:58.027Z</time></trkpt><trkpt lat="45.853777268982455" lon="10.636355859387102"><ele>717.0</ele><time>2026-04-06T12:33:59.027Z</time></trkpt><trkpt lat="45.853933451339124" lon="10.63646045317296"><ele>717.0</ele><time>2026-04-06T12:34:00.027Z</time></trkpt><trkpt lat="45.85409883944562" lon="10.636630657903321"><ele>717.0</ele><time>2026-04-06T12:34:01.027Z</time></trkpt><trkpt lat="45.85427490354464" lon="10.636790810785364"><ele>717.0</ele><time>2026-04-06T12:34:02.027Z</time></trkpt><trkpt lat="45.854432213094235" lon="10.636919185854378"><ele>717.0</ele><time>2026-04-06T12:34:03.027Z</time></trkpt><trkpt lat="45.85458436849864" lon="10.636999210682252"><ele>717.0</ele><time>2026-04-06T12:34:04.027Z</time></trkpt><trkpt lat="45.85476357380302" lon="10.637028003277718"><ele>717.0</ele><time>2026-04-06T12:34:05.027Z</time></trkpt><trkpt lat="45.85496972101665" lon="10.637015048753675"><ele>717.0</ele><time>2026-04-06T12:34:06.027Z</time></trkpt><trkpt lat="45.8551881808767" lon="10.636950844234743"><ele>717.0</ele><time>2026-04-06T12:34:07.027Z</time></trkpt><trkpt lat="45.855357973329966" lon="10.636833341750192"><ele>717.0</ele><time>2026-04-06T12:34:08.027Z</time></trkpt><trkpt lat="45.85552877141449" lon="10.63676522306904"><ele>717.0</ele><time>2026-04-06T12:34:09.027Z</time></trkpt><trkpt lat="45.85568508188471" lon="10.636757808223203"><ele>717.0</ele><time>2026-04-06T12:34:10.027Z</time></trkpt><trkpt lat="45.85584773606788" lon="10.63676134734855"><ele>717.0</ele><time>2026-04-06T12:34:11.027Z</time></trkpt><trkpt lat="45.85600633292094" lon="10.636839647628173"><ele>717.0</ele><time>2026-04-06T12:34:12.027Z</time></trkpt><trkpt lat="45.85618193338713" lon="10.636868202268356"><ele>717.0</ele><time>2026-04-06T12:34:13.027Z</time></trkpt><trkpt lat="45.85635563662038" lon="10.636880034298349"><ele>724.3333333333334</ele><time>2026-04-06T12:34:14.027Z</time></trkpt><trkpt lat="45.85652150556827" lon="10.63689434396669"><ele>731.6666666666667</ele><time>2026-04-06T12:34:15.027Z</time></trkpt><trkpt lat="45.856690197940274" lon="10.636931646959603"><ele>739.0</ele><time>2026-04-06T12:34:16.027Z</time></trkpt><trkpt lat="45.85690239305827" lon="10.636957742420481"><ele>739.0</ele><time>2026-04-06T12:34:17.027Z</time></trkpt><trkpt lat="45.85708871984787" lon="10.636968788298482"><ele>739.0</ele><time>2026-04-06T12:34:18.027Z</time></trkpt><trkpt lat="45.857268300958026" lon="10.637001414789488"><ele>739.0</ele><time>2026-04-06T12:34:19.027Z</time></trkpt><trkpt lat="45.85742076013299" lon="10.637041108223418"><ele>734.6666666666667</ele><time>2026-04-06T12:34:20.027Z</time></trkpt><trkpt lat="45.85758183244754" lon="10.637087912208655"><ele>730.3333333333334</ele><time>2026-04-06T12:34:21.027Z</time></trkpt><trkpt lat="45.85776290023143" lon="10.637305730952475"><ele>726.0</ele><time>2026-04-06T12:34:22.027Z</time></trkpt><trkpt lat="45.85793256591375" lon="10.63745520601427"><ele>726.0</ele><time>2026-04-06T12:34:23.027Z</time></trkpt><trkpt lat="45.85807139949878" lon="10.637536070315791"><ele>726.0</ele><time>2026-04-06T12:34:24.027Z</time></trkpt><trkpt lat="45.85821834882405" lon="10.637563127251315"><ele>726.0</ele><time>2026-04-06T12:34:25.027Z</time></trkpt><trkpt lat="45.85836231079518" lon="10.637569480231605"><ele>726.0</ele><time>2026-04-06T12:34:26.027Z</time></trkpt><trkpt lat="45.85848235178576" lon="10.637577032863716"><ele>732.0</ele><time>2026-04-06T12:34:27.027Z</time></trkpt><trkpt lat="45.85860146558695" lon="10.637608211152529"><ele>738.0</ele><time>2026-04-06T12:34:28.027Z</time></trkpt><trkpt lat="45.858706850470995" lon="10.637652008269086"><ele>744.0</ele><time>2026-04-06T12:34:29.027Z</time></trkpt><trkpt lat="45.85880720224871" lon="10.63767980179777"><ele>750.0</ele><time>2026-04-06T12:34:30.027Z</time></trkpt><trkpt lat="45.85891157968968" lon="10.637724003372236"><ele>756.0</ele><time>2026-04-06T12:34:31.027Z</time></trkpt><trkpt lat="45.85901469820352" lon="10.637781247575434"><ele>756.5</ele><time>2026-04-06T12:34:32.027Z</time></trkpt><trkpt lat="45.859115193415036" lon="10.637850614712672"><ele>757.0</ele><time>2026-04-06T12:34:33.027Z</time></trkpt><trkpt lat="45.859214750421366" lon="10.637931310495121"><ele>757.5</ele><time>2026-04-06T12:34:34.027Z</time></trkpt><trkpt lat="45.859303806497444" lon="10.638043972535629"><ele>758.0</ele><time>2026-04-06T12:34:35.027Z</time></trkpt><trkpt lat="45.85940479846341" lon="10.638160573648447"><ele>758.0</ele><time>2026-04-06T12:34:36.027Z</time></trkpt><trkpt lat="45.859507696495974" lon="10.638272262917942"><ele>758.0</ele><time>2026-04-06T12:34:37.027Z</time></trkpt><trkpt lat="45.859600736508945" lon="10.638418761024223"><ele>758.0</ele><time>2026-04-06T12:34:38.027Z</time></trkpt><trkpt lat="45.859673181178074" lon="10.638594917403255"><ele>758.0</ele><time>2026-04-06T12:34:39.027Z</time></trkpt><trkpt lat="45.85976781428818" lon="10.638748880146695"><ele>750.25</ele><time>2026-04-06T12:34:40.027Z</time></trkpt><trkpt lat="45.859851837514846" lon="10.63891588076651"><ele>742.5</ele><time>2026-04-06T12:34:41.027Z</time></trkpt><trkpt lat="45.85994480954812" lon="10.639072188161945"><ele>734.75</ele><time>2026-04-06T12:34:42.027Z</time></trkpt><trkpt lat="45.860041855067855" lon="10.639217478502925"><ele>727.0</ele><time>2026-04-06T12:34:43.027Z</time></trkpt><trkpt lat="45.860142461725275" lon="10.639360658050993"><ele>729.0</ele><time>2026-04-06T12:34:44.027Z</time></trkpt><trkpt lat="45.860234760233816" lon="10.639492749281601"><ele>731.0</ele><time>2026-04-06T12:34:45.027Z</time></trkpt><trkpt lat="45.86032538089806" lon="10.639618494103624"><ele>733.0</ele><time>2026-04-06T12:34:46.027Z</time></trkpt><trkpt lat="45.86040994284169" lon="10.639736876110453"><ele>735.0</ele><time>2026-04-06T12:34:47.027Z</time></trkpt><trkpt lat="45.8604909573342" lon="10.639846008676958"><ele>735.0</ele><time>2026-04-06T12:34:48.027Z</time></trkpt><trkpt lat="45.860569019956" lon="10.63995317191888"><ele>735.0</ele><time>2026-04-06T12:34:49.027Z</time></trkpt><trkpt lat="45.86064868690354" lon="10.640061666008537"><ele>735.0</ele><time>2026-04-06T12:34:50.027Z</time></trkpt><trkpt lat="45.86073107952368" lon="10.640176594607384"><ele>735.0</ele><time>2026-04-06T12:34:51.027Z</time></trkpt><trkpt lat="45.860818656304666" lon="10.64029000475806"><ele>730.75</ele><time>2026-04-06T12:34:52.027Z</time></trkpt><trkpt lat="45.860902193833255" lon="10.640401270027771"><ele>726.5</ele><time>2026-04-06T12:34:53.027Z</time></trkpt><trkpt lat="45.86098602270354" lon="10.640518813477154"><ele>722.25</ele><time>2026-04-06T12:34:54.027Z</time></trkpt><trkpt lat="45.86107556287186" lon="10.640648102524"><ele>718.0</ele><time>2026-04-06T12:34:55.027Z</time></trkpt><trkpt lat="45.86116710123964" lon="10.640769235313098"><ele>719.5</ele><time>2026-04-06T12:34:56.027Z</time></trkpt><trkpt lat="45.86125916998244" lon="10.640887630488475"><ele>721.0</ele><time>2026-04-06T12:34:57.027Z</time></trkpt><trkpt lat="45.86136188089988" lon="10.64101569753596"><ele>722.5</ele><time>2026-04-06T12:34:58.027Z</time></trkpt><trkpt lat="45.86145458490599" lon="10.641131925567722"><ele>724.0</ele><time>2026-04-06T12:34:59.027Z</time></trkpt><trkpt lat="45.86152850736942" lon="10.641257982770766"><ele>724.0</ele><time>2026-04-06T12:35:00.027Z</time></trkpt><trkpt lat="45.861615450895876" lon="10.641374946178127"><ele>724.0</ele><time>2026-04-06T12:35:01.027Z</time></trkpt><trkpt lat="45.861718126004625" lon="10.641491909448964"><ele>724.0</ele><time>2026-04-06T12:35:02.027Z</time></trkpt><trkpt lat="45.861815767223746" lon="10.64162885799737"><ele>724.0</ele><time>2026-04-06T12:35:03.027Z</time></trkpt><trkpt lat="45.861913801629484" lon="10.641750954356562"><ele>728.5</ele><time>2026-04-06T12:35:04.027Z</time></trkpt><trkpt lat="45.86203256200716" lon="10.641873528478419"><ele>733.0</ele><time>2026-04-06T12:35:05.027Z</time></trkpt><trkpt lat="45.86212630533985" lon="10.642015384128841"><ele>737.5</ele><time>2026-04-06T12:35:06.027Z</time></trkpt><trkpt lat="45.86222523454035" lon="10.642143355409328"><ele>742.0</ele><time>2026-04-06T12:35:07.027Z</time></trkpt><trkpt lat="45.86233621701699" lon="10.642271077280448"><ele>742.0</ele><time>2026-04-06T12:35:08.027Z</time></trkpt><trkpt lat="45.86244519004872" lon="10.64240752252953"><ele>742.0</ele><time>2026-04-06T12:35:09.027Z</time></trkpt><trkpt lat="45.862537780027424" lon="10.642539490236128"><ele>742.0</ele><time>2026-04-06T12:35:10.027Z</time></trkpt><trkpt lat="45.8626220266148" lon="10.64265563083994"><ele>742.0</ele><time>2026-04-06T12:35:11.027Z</time></trkpt><trkpt lat="45.86271515063127" lon="10.642784598550657"><ele>747.25</ele><time>2026-04-06T12:35:12.027Z</time></trkpt><trkpt lat="45.862829898919834" lon="10.642907929384242"><ele>752.5</ele><time>2026-04-06T12:35:13.027Z</time></trkpt><trkpt lat="45.86291234354213" lon="10.643055747252927"><ele>757.75</ele><time>2026-04-06T12:35:14.027Z</time></trkpt><trkpt lat="45.86300069029822" lon="10.643195954819664"><ele>763.0</ele><time>2026-04-06T12:35:15.027Z</time></trkpt><trkpt lat="45.86306095681397" lon="10.643358627860517"><ele>763.0</ele><time>2026-04-06T12:35:16.027Z</time></trkpt><trkpt lat="45.86311977195287" lon="10.643509968067912"><ele>763.0</ele><time>2026-04-06T12:35:17.027Z</time></trkpt><trkpt lat="45.863196724681714" lon="10.643705690513642"><ele>763.0</ele><time>2026-04-06T12:35:18.027Z</time></trkpt><trkpt lat="45.86328275132831" lon="10.643870213284123"><ele>763.0</ele><time>2026-04-06T12:35:19.027Z</time></trkpt><trkpt lat="45.86336114046203" lon="10.644046974471907"><ele>756.6666666666667</ele><time>2026-04-06T12:35:20.027Z</time></trkpt><trkpt lat="45.863449153620316" lon="10.644236039878582"><ele>750.3333333333334</ele><time>2026-04-06T12:35:21.027Z</time></trkpt><trkpt lat="45.863553092336886" lon="10.644400267711768"><ele>744.0</ele><time>2026-04-06T12:35:22.027Z</time></trkpt><trkpt lat="45.86367567306006" lon="10.64453401669653"><ele>744.0</ele><time>2026-04-06T12:35:23.027Z</time></trkpt><trkpt lat="45.8637956002925" lon="10.644692530220558"><ele>744.0</ele><time>2026-04-06T12:35:24.027Z</time></trkpt><trkpt lat="45.863921065792034" lon="10.644851839683918"><ele>744.0</ele><time>2026-04-06T12:35:25.027Z</time></trkpt><trkpt lat="45.864044370483604" lon="10.645010568782522"><ele>744.0</ele><time>2026-04-06T12:35:26.027Z</time></trkpt><trkpt lat="45.8641585897588" lon="10.645161875554223"><ele>744.0</ele><time>2026-04-06T12:35:27.027Z</time></trkpt><trkpt lat="45.86427323423757" lon="10.645289765101902"><ele>744.0</ele><time>2026-04-06T12:35:28.027Z</time></trkpt><trkpt lat="45.86439440832368" lon="10.64544120771064"><ele>741.6666666666666</ele><time>2026-04-06T12:35:29.027Z</time></trkpt><trkpt lat="45.86451288512901" lon="10.645583494347914"><ele>739.3333333333333</ele><time>2026-04-06T12:35:30.027Z</time></trkpt><trkpt lat="45.8646431804465" lon="10.645723044983656"><ele>737.0</ele><time>2026-04-06T12:35:31.027Z</time></trkpt><trkpt lat="45.86478535004943" lon="10.645846145605805"><ele>737.0</ele><time>2026-04-06T12:35:32.027Z</time></trkpt><trkpt lat="45.86493349405419" lon="10.645949038078722"><ele>737.0</ele><time>2026-04-06T12:35:33.027Z</time></trkpt><trkpt lat="45.86508809750551" lon="10.646047340109378"><ele>737.0</ele><time>2026-04-06T12:35:34.027Z</time></trkpt><trkpt lat="45.865247342000956" lon="10.64613717384744"><ele>732.6666666666666</ele><time>2026-04-06T12:35:35.027Z</time></trkpt><trkpt lat="45.8654106230221" lon="10.646215422421893"><ele>728.3333333333334</ele><time>2026-04-06T12:35:36.027Z</time></trkpt><trkpt lat="45.86557787154931" lon="10.646272811600495"><ele>724.0</ele><time>2026-04-06T12:35:37.027Z</time></trkpt><trkpt lat="45.865747532737444" lon="10.646317518469413"><ele>724.0</ele><time>2026-04-06T12:35:38.027Z</time></trkpt><trkpt lat="45.865922625138964" lon="10.646350240433884"><ele>724.0</ele><time>2026-04-06T12:35:39.027Z</time></trkpt><trkpt lat="45.86609072402179" lon="10.6463930134393"><ele>724.0</ele><time>2026-04-06T12:35:40.027Z</time></trkpt><trkpt lat="45.86625998369393" lon="10.646451237260933"><ele>727.3333333333334</ele><time>2026-04-06T12:35:41.027Z</time></trkpt><trkpt lat="45.86641799558565" lon="10.646547299992521"><ele>730.6666666666666</ele><time>2026-04-06T12:35:42.027Z</time></trkpt><trkpt lat="45.866568139756744" lon="10.646667953374614"><ele>734.0</ele><time>2026-04-06T12:35:43.027Z</time></trkpt><trkpt lat="45.86670972810153" lon="10.646814382975819"><ele>732.6666666666666</ele><time>2026-04-06T12:35:44.027Z</time></trkpt><trkpt lat="45.8668419604125" lon="10.646980232034732"><ele>731.3333333333334</ele><time>2026-04-06T12:35:45.027Z</time></trkpt><trkpt lat="45.86696982676125" lon="10.647140965054593"><ele>730.0</ele><time>2026-04-06T12:35:46.027Z</time></trkpt><trkpt lat="45.86710798154331" lon="10.647301728065612"><ele>730.0</ele><time>2026-04-06T12:35:47.027Z</time></trkpt><trkpt lat="45.867245513523635" lon="10.647459789940264"><ele>730.0</ele><time>2026-04-06T12:35:48.027Z</time></trkpt><trkpt lat="45.867383232828935" lon="10.647616646998541"><ele>730.0</ele><time>2026-04-06T12:35:49.027Z</time></trkpt><trkpt lat="45.86752500454959" lon="10.6477741802817"><ele>730.6666666666667</ele><time>2026-04-06T12:35:50.027Z</time></trkpt><trkpt lat="45.867657435275945" lon="10.647921486973413"><ele>731.3333333333334</ele><time>2026-04-06T12:35:51.027Z</time></trkpt><trkpt lat="45.86777563857958" lon="10.648054106910035"><ele>732.0</ele><time>2026-04-06T12:35:52.027Z</time></trkpt><trkpt lat="45.867884646610015" lon="10.648172057825166"><ele>732.0</ele><time>2026-04-06T12:35:53.027Z</time></trkpt><trkpt lat="45.86800618467532" lon="10.648279285631292"><ele>732.0</ele><time>2026-04-06T12:35:54.027Z</time></trkpt><trkpt lat="45.868137765354334" lon="10.648376976216204"><ele>732.0</ele><time>2026-04-06T12:35:55.027Z</time></trkpt><trkpt lat="45.86828884325324" lon="10.648467698320603"><ele>731.0</ele><time>2026-04-06T12:35:56.027Z</time></trkpt><trkpt lat="45.86846105375332" lon="10.648553005081219"><ele>730.0</ele><time>2026-04-06T12:35:57.027Z</time></trkpt><trkpt lat="45.86863685180419" lon="10.648639525966324"><ele>729.0</ele><time>2026-04-06T12:35:58.027Z</time></trkpt><trkpt lat="45.86881659593982" lon="10.648738424821493"><ele>728.6666666666666</ele><time>2026-04-06T12:35:59.027Z</time></trkpt><trkpt lat="45.8689895000222" lon="10.648841326782582"><ele>728.3333333333333</ele><time>2026-04-06T12:36:00.027Z</time></trkpt><trkpt lat="45.869150497492406" lon="10.648939621741293"><ele>728.0</ele><time>2026-04-06T12:36:01.027Z</time></trkpt><trkpt lat="45.86931145516121" lon="10.649014568733161"><ele>728.0</ele><time>2026-04-06T12:36:02.027Z</time></trkpt><trkpt lat="45.86947568988881" lon="10.649084259245276"><ele>728.0</ele><time>2026-04-06T12:36:03.027Z</time></trkpt><trkpt lat="45.86964848032132" lon="10.649153333382898"><ele>728.0</ele><time>2026-04-06T12:36:04.027Z</time></trkpt><trkpt lat="45.869817252431766" lon="10.649224438361395"><ele>728.0</ele><time>2026-04-06T12:36:05.027Z</time></trkpt><trkpt lat="45.8699868701192" lon="10.64925058991849"><ele>728.0</ele><time>2026-04-06T12:36:06.027Z</time></trkpt><trkpt lat="45.870187251853544" lon="10.64928490791676"><ele>728.0</ele><time>2026-04-06T12:36:07.027Z</time></trkpt><trkpt lat="45.8704085895179" lon="10.649295353351379"><ele>728.3333333333333</ele><time>2026-04-06T12:36:08.027Z</time></trkpt><trkpt lat="45.8705363331381" lon="10.649374267024054"><ele>728.6666666666666</ele><time>2026-04-06T12:36:09.027Z</time></trkpt><trkpt lat="45.87071079120653" lon="10.649482769732897"><ele>729.0</ele><time>2026-04-06T12:36:10.027Z</time></trkpt><trkpt lat="45.87082057658567" lon="10.649763951079724"><ele>729.0</ele><time>2026-04-06T12:36:11.027Z</time></trkpt><trkpt lat="45.87092415909536" lon="10.64999789816532"><ele>729.0</ele><time>2026-04-06T12:36:12.027Z</time></trkpt><trkpt lat="45.870978487779745" lon="10.650264446407329"><ele>729.0</ele><time>2026-04-06T12:36:13.027Z</time></trkpt><trkpt lat="45.87105824355754" lon="10.650507410808313"><ele>731.6666666666666</ele><time>2026-04-06T12:36:14.027Z</time></trkpt><trkpt lat="45.87115707827987" lon="10.65071394269584"><ele>734.3333333333333</ele><time>2026-04-06T12:36:15.027Z</time></trkpt><trkpt lat="45.87133805624267" lon="10.650959144339396"><ele>737.0</ele><time>2026-04-06T12:36:16.027Z</time></trkpt><trkpt lat="45.87149643595315" lon="10.651107623091866"><ele>737.0</ele><time>2026-04-06T12:36:17.027Z</time></trkpt><trkpt lat="45.871680901193656" lon="10.651220570814239"><ele>737.0</ele><time>2026-04-06T12:36:18.027Z</time></trkpt><trkpt lat="45.87181106984008" lon="10.651277782043076"><ele>737.0</ele><time>2026-04-06T12:36:19.027Z</time></trkpt><trkpt lat="45.87195369800072" lon="10.65138016875135"><ele>737.0</ele><time>2026-04-06T12:36:20.027Z</time></trkpt><trkpt lat="45.87212073274895" lon="10.651559389611219"><ele>737.0</ele><time>2026-04-06T12:36:21.027Z</time></trkpt><trkpt lat="45.87222967399991" lon="10.65172634769534"><ele>737.0</ele><time>2026-04-06T12:36:22.027Z</time></trkpt><trkpt lat="45.87233641921395" lon="10.651975069460768"><ele>733.6666666666666</ele><time>2026-04-06T12:36:23.027Z</time></trkpt><trkpt lat="45.87242200397226" lon="10.652227213392287"><ele>730.3333333333334</ele><time>2026-04-06T12:36:24.027Z</time></trkpt><trkpt lat="45.87250477631428" lon="10.652443847281813"><ele>727.0</ele><time>2026-04-06T12:36:25.027Z</time></trkpt><trkpt lat="45.87260054971934" lon="10.652666837205869"><ele>731.0</ele><time>2026-04-06T12:36:26.027Z</time></trkpt><trkpt lat="45.87270087548518" lon="10.652847841804181"><ele>735.0</ele><time>2026-04-06T12:36:27.027Z</time></trkpt><trkpt lat="45.872827495017816" lon="10.65306991024408"><ele>739.0</ele><time>2026-04-06T12:36:28.027Z</time></trkpt><trkpt lat="45.872939137335884" lon="10.653285996421246"><ele>739.0</ele><time>2026-04-06T12:36:29.027Z</time></trkpt><trkpt lat="45.87311875627203" lon="10.653536632012047"><ele>739.0</ele><time>2026-04-06T12:36:30.027Z</time></trkpt><trkpt lat="45.87327460116337" lon="10.653750010761188"><ele>740.5</ele><time>2026-04-06T12:36:31.027Z</time></trkpt><trkpt lat="45.87337877700558" lon="10.653898926352182"><ele>742.0</ele><time>2026-04-06T12:36:32.027Z</time></trkpt><trkpt lat="45.873470675208964" lon="10.653995752012774"><ele>743.5</ele><time>2026-04-06T12:36:33.027Z</time></trkpt><trkpt lat="45.87353412684627" lon="10.65419090313862"><ele>745.0</ele><time>2026-04-06T12:36:34.027Z</time></trkpt><trkpt lat="45.87356380611811" lon="10.654436474126426"><ele>742.6666666666667</ele><time>2026-04-06T12:36:35.027Z</time></trkpt><trkpt lat="45.87362635191864" lon="10.654731151745185"><ele>740.3333333333334</ele><time>2026-04-06T12:36:36.027Z</time></trkpt><trkpt lat="45.87373971642933" lon="10.655009262983446"><ele>738.0</ele><time>2026-04-06T12:36:37.027Z</time></trkpt><trkpt lat="45.87377439312125" lon="10.655349154130892"><ele>735.3333333333334</ele><time>2026-04-06T12:36:38.027Z</time></trkpt><trkpt lat="45.87383136568559" lon="10.655587047039479"><ele>732.6666666666667</ele><time>2026-04-06T12:36:39.027Z</time></trkpt><trkpt lat="45.87389890562658" lon="10.655800422394956"><ele>730.0</ele><time>2026-04-06T12:36:40.027Z</time></trkpt><trkpt lat="45.873983045384996" lon="10.656010230094187"><ele>729.6666666666667</ele><time>2026-04-06T12:36:41.027Z</time></trkpt><trkpt lat="45.87411581844199" lon="10.656217895641367"><ele>729.3333333333334</ele><time>2026-04-06T12:36:42.027Z</time></trkpt><trkpt lat="45.874229037460566" lon="10.6563801510156"><ele>729.0</ele><time>2026-04-06T12:36:43.027Z</time></trkpt><trkpt lat="45.874377551860604" lon="10.656575528265456"><ele>730.3333333333334</ele><time>2026-04-06T12:36:44.027Z</time></trkpt><trkpt lat="45.87452243857998" lon="10.656764757354125"><ele>731.6666666666667</ele><time>2026-04-06T12:36:45.027Z</time></trkpt><trkpt lat="45.8746655720913" lon="10.656952808869725"><ele>733.0</ele><time>2026-04-06T12:36:46.027Z</time></trkpt><trkpt lat="45.874818027719115" lon="10.657157881433584"><ele>733.0</ele><time>2026-04-06T12:36:47.027Z</time></trkpt><trkpt lat="45.87498080556722" lon="10.657373520445697"><ele>733.0</ele><time>2026-04-06T12:36:48.027Z</time></trkpt><trkpt lat="45.87514603952633" lon="10.657592412955346"><ele>733.0</ele><time>2026-04-06T12:36:49.027Z</time></trkpt><trkpt lat="45.87527184680047" lon="10.65776215583851"><ele>733.0</ele><time>2026-04-06T12:36:50.027Z</time></trkpt><trkpt lat="45.87539727888092" lon="10.657932152879836"><ele>733.0</ele><time>2026-04-06T12:36:51.027Z</time></trkpt><trkpt lat="45.87552553188495" lon="10.658113885209657"><ele>733.0</ele><time>2026-04-06T12:36:52.027Z</time></trkpt><trkpt lat="45.87563708948257" lon="10.65830657154884"><ele>733.0</ele><time>2026-04-06T12:36:53.027Z</time></trkpt><trkpt lat="45.875761522190956" lon="10.658559611311224"><ele>733.0</ele><time>2026-04-06T12:36:54.027Z</time></trkpt><trkpt lat="45.8758318333517" lon="10.658712986519806"><ele>733.0</ele><time>2026-04-06T12:36:55.027Z</time></trkpt><trkpt lat="45.87592242538722" lon="10.65891660351344"><ele>734.6666666666667</ele><time>2026-04-06T12:36:56.027Z</time></trkpt><trkpt lat="45.87601571251032" lon="10.659109233950481"><ele>736.3333333333334</ele><time>2026-04-06T12:36:57.027Z</time></trkpt><trkpt lat="45.876108488590596" lon="10.659335977569764"><ele>738.0</ele><time>2026-04-06T12:36:58.027Z</time></trkpt><trkpt lat="45.87620363153521" lon="10.659533457875229"><ele>738.0</ele><time>2026-04-06T12:36:59.027Z</time></trkpt><trkpt lat="45.8762911937734" lon="10.659704265624054"><ele>738.0</ele><time>2026-04-06T12:37:00.027Z</time></trkpt><trkpt lat="45.87638466764015" lon="10.65992998466291"><ele>738.0</ele><time>2026-04-06T12:37:01.027Z</time></trkpt><trkpt lat="45.876473505197865" lon="10.660106386559278"><ele>738.0</ele><time>2026-04-06T12:37:02.027Z</time></trkpt><trkpt lat="45.87656806877941" lon="10.660324654133234"><ele>738.0</ele><time>2026-04-06T12:37:03.027Z</time></trkpt><trkpt lat="45.87665903579032" lon="10.660538054581902"><ele>738.0</ele><time>2026-04-06T12:37:04.027Z</time></trkpt><trkpt lat="45.87674177299098" lon="10.66074120461273"><ele>741.6666666666666</ele><time>2026-04-06T12:37:05.027Z</time></trkpt><trkpt lat="45.87683760632138" lon="10.660970861926593"><ele>745.3333333333333</ele><time>2026-04-06T12:37:06.027Z</time></trkpt><trkpt lat="45.8769419960723" lon="10.661178225498293"><ele>749.0</ele><time>2026-04-06T12:37:07.027Z</time></trkpt><trkpt lat="45.877034919359744" lon="10.661442011539691"><ele>749.0</ele><time>2026-04-06T12:37:08.027Z</time></trkpt><trkpt lat="45.877154349348054" lon="10.661681052244127"><ele>749.0</ele><time>2026-04-06T12:37:09.027Z</time></trkpt><trkpt lat="45.87724754011038" lon="10.661884925887483"><ele>749.0</ele><time>2026-04-06T12:37:10.027Z</time></trkpt><trkpt lat="45.87734741508944" lon="10.662069549550159"><ele>747.3333333333333</ele><time>2026-04-06T12:37:11.027Z</time></trkpt><trkpt lat="45.87747974275372" lon="10.662244433171756"><ele>745.6666666666666</ele><time>2026-04-06T12:37:12.027Z</time></trkpt><trkpt lat="45.87764934249784" lon="10.662435511455174"><ele>744.0</ele><time>2026-04-06T12:37:13.027Z</time></trkpt><trkpt lat="45.877794117392234" lon="10.66264589330008"><ele>743.6666666666666</ele><time>2026-04-06T12:37:14.027Z</time></trkpt><trkpt lat="45.87794485488522" lon="10.66279479943938"><ele>743.3333333333333</ele><time>2026-04-06T12:37:15.027Z</time></trkpt><trkpt lat="45.87809763078999" lon="10.662943674817226"><ele>743.0</ele><time>2026-04-06T12:37:16.027Z</time></trkpt><trkpt lat="45.878215237104094" lon="10.663136502373074"><ele>743.0</ele><time>2026-04-06T12:37:17.027Z</time></trkpt><trkpt lat="45.878336224050585" lon="10.663273353730276"><ele>743.0</ele><time>2026-04-06T12:37:18.027Z</time></trkpt><trkpt lat="45.878459836874946" lon="10.663407171583312"><ele>743.0</ele><time>2026-04-06T12:37:19.027Z</time></trkpt><trkpt lat="45.878568979325266" lon="10.663549708282321"><ele>741.75</ele><time>2026-04-06T12:37:20.027Z</time></trkpt><trkpt lat="45.87868036163474" lon="10.663635579000799"><ele>740.5</ele><time>2026-04-06T12:37:21.027Z</time></trkpt><trkpt lat="45.878776899505255" lon="10.663734194326494"><ele>739.25</ele><time>2026-04-06T12:37:22.027Z</time></trkpt><trkpt lat="45.878895317903726" lon="10.663847839292155"><ele>738.0</ele><time>2026-04-06T12:37:23.027Z</time></trkpt><trkpt lat="45.87903901156571" lon="10.66393608058471"><ele>738.0</ele><time>2026-04-06T12:37:24.027Z</time></trkpt><trkpt lat="45.87919147448497" lon="10.664000997450882"><ele>738.0</ele><time>2026-04-06T12:37:25.027Z</time></trkpt><trkpt lat="45.879417877441455" lon="10.66406185716694"><ele>738.0</ele><time>2026-04-06T12:37:26.027Z</time></trkpt><trkpt lat="45.87960717036793" lon="10.664056218173295"><ele>740.6666666666666</ele><time>2026-04-06T12:37:27.027Z</time></trkpt><trkpt lat="45.8797745510109" lon="10.664094625989911"><ele>743.3333333333333</ele><time>2026-04-06T12:37:28.027Z</time></trkpt><trkpt lat="45.879955520901724" lon="10.664147105420264"><ele>746.0</ele><time>2026-04-06T12:37:29.027Z</time></trkpt><trkpt lat="45.88007373869138" lon="10.664176772543644"><ele>747.0</ele><time>2026-04-06T12:37:30.027Z</time></trkpt><trkpt lat="45.880237714054125" lon="10.664219467808906"><ele>748.0</ele><time>2026-04-06T12:37:31.027Z</time></trkpt><trkpt lat="45.88036496872271" lon="10.664239836668138"><ele>749.0</ele><time>2026-04-06T12:37:32.027Z</time></trkpt><trkpt lat="45.88046172563576" lon="10.664321125312549"><ele>750.0</ele><time>2026-04-06T12:37:33.027Z</time></trkpt><trkpt lat="45.88058390366605" lon="10.664353777164099"><ele>750.0</ele><time>2026-04-06T12:37:34.027Z</time></trkpt><trkpt lat="45.8806823645724" lon="10.664423209218524"><ele>750.0</ele><time>2026-04-06T12:37:35.027Z</time></trkpt><trkpt lat="45.880771533295444" lon="10.664559722982023"><ele>750.0</ele><time>2026-04-06T12:37:37.027Z</time></trkpt><trkpt lat="45.88084154967139" lon="10.664648984591315"><ele>750.0</ele><time>2026-04-06T12:37:40.027Z</time></trkpt><trkpt lat="45.88089045603742" lon="10.664711795621502"><ele>750.0</ele><time>2026-04-06T12:37:42.027Z</time></trkpt><trkpt lat="45.88097360848736" lon="10.664665490529481"><ele>749.6</ele><time>2026-04-06T12:39:06.028Z</time></trkpt><trkpt lat="45.88103889399115" lon="10.66470472818616"><ele>749.2</ele><time>2026-04-06T12:39:07.028Z</time></trkpt><trkpt lat="45.881126890819495" lon="10.664798398939437"><ele>748.8</ele><time>2026-04-06T12:39:08.028Z</time></trkpt><trkpt lat="45.881218666001" lon="10.664893885649722"><ele>748.4</ele><time>2026-04-06T12:39:09.028Z</time></trkpt><trkpt lat="45.88129148320551" lon="10.664974808345292"><ele>748.0</ele><time>2026-04-06T12:39:10.028Z</time></trkpt><trkpt lat="45.88136171566711" lon="10.665039491099412"><ele>748.0</ele><time>2026-04-06T12:39:11.028Z</time></trkpt><trkpt lat="45.88142031611802" lon="10.665092777860261"><ele>748.0</ele><time>2026-04-06T12:39:12.028Z</time></trkpt><trkpt lat="45.88147207457176" lon="10.665145527212603"><ele>748.0</ele><time>2026-04-06T12:39:13.028Z</time></trkpt><trkpt lat="45.88156091586103" lon="10.665237679453368"><ele>748.0</ele><time>2026-04-06T12:39:15.028Z</time></trkpt><trkpt lat="45.88161359933677" lon="10.66528844890174"><ele>748.0</ele><time>2026-04-06T12:39:16.028Z</time></trkpt><trkpt lat="45.881704589619744" lon="10.665361040315295"><ele>748.0</ele><time>2026-04-06T12:39:17.028Z</time></trkpt><trkpt lat="45.881813119297625" lon="10.665456273256025"><ele>749.6666666666667</ele><time>2026-04-06T12:39:18.028Z</time></trkpt><trkpt lat="45.88193608191461" lon="10.665585862122061"><ele>751.3333333333334</ele><time>2026-04-06T12:39:19.028Z</time></trkpt><trkpt lat="45.88208335044367" lon="10.665728798437224"><ele>753.0</ele><time>2026-04-06T12:39:20.028Z</time></trkpt><trkpt lat="45.882190978078846" lon="10.665827886649893"><ele>753.0</ele><time>2026-04-06T12:39:21.028Z</time></trkpt><trkpt lat="45.88231186451465" lon="10.665927354299608"><ele>753.0</ele><time>2026-04-06T12:39:22.028Z</time></trkpt><trkpt lat="45.8824434020846" lon="10.66602833890972"><ele>753.0</ele><time>2026-04-06T12:39:23.028Z</time></trkpt><trkpt lat="45.882594505980364" lon="10.66613854700712"><ele>751.3333333333334</ele><time>2026-04-06T12:39:24.028Z</time></trkpt><trkpt lat="45.882772891659734" lon="10.6662520765708"><ele>749.6666666666667</ele><time>2026-04-06T12:39:25.028Z</time></trkpt><trkpt lat="45.882971820175705" lon="10.66638101487917"><ele>748.0</ele><time>2026-04-06T12:39:26.028Z</time></trkpt><trkpt lat="45.88316353749509" lon="10.666512675538515"><ele>748.0</ele><time>2026-04-06T12:39:27.028Z</time></trkpt><trkpt lat="45.883325583573345" lon="10.666627561625063"><ele>748.0</ele><time>2026-04-06T12:39:28.028Z</time></trkpt><trkpt lat="45.883507190337774" lon="10.666742349478648"><ele>748.0</ele><time>2026-04-06T12:39:29.028Z</time></trkpt><trkpt lat="45.883674359850936" lon="10.666850004002038"><ele>748.0</ele><time>2026-04-06T12:39:30.028Z</time></trkpt><trkpt lat="45.883826175355665" lon="10.666956560278313"><ele>748.0</ele><time>2026-04-06T12:39:31.028Z</time></trkpt><trkpt lat="45.88396911452194" lon="10.667055619125946"><ele>748.0</ele><time>2026-04-06T12:39:32.028Z</time></trkpt><trkpt lat="45.88411564814004" lon="10.667167892512738"><ele>746.0</ele><time>2026-04-06T12:39:33.028Z</time></trkpt><trkpt lat="45.88427035013623" lon="10.667294700314958"><ele>744.0</ele><time>2026-04-06T12:39:34.028Z</time></trkpt><trkpt lat="45.88441873806424" lon="10.667425792119374"><ele>742.0</ele><time>2026-04-06T12:39:35.028Z</time></trkpt><trkpt lat="45.88456415807284" lon="10.667538661388116"><ele>742.0</ele><time>2026-04-06T12:39:36.028Z</time></trkpt><trkpt lat="45.88472706100908" lon="10.667661598426612"><ele>742.0</ele><time>2026-04-06T12:39:37.028Z</time></trkpt><trkpt lat="45.8849114527627" lon="10.667784266071193"><ele>742.0</ele><time>2026-04-06T12:39:38.028Z</time></trkpt><trkpt lat="45.88506797891996" lon="10.6679883909853"><ele>742.3333333333334</ele><time>2026-04-06T12:39:39.028Z</time></trkpt><trkpt lat="45.88524632723722" lon="10.668143698008219"><ele>742.6666666666666</ele><time>2026-04-06T12:39:40.028Z</time></trkpt><trkpt lat="45.88541871052369" lon="10.668293811494186"><ele>743.0</ele><time>2026-04-06T12:39:41.028Z</time></trkpt><trkpt lat="45.885559092581985" lon="10.668394798672368"><ele>743.0</ele><time>2026-04-06T12:39:42.028Z</time></trkpt><trkpt lat="45.88572090706617" lon="10.668537587284698"><ele>743.0</ele><time>2026-04-06T12:39:43.028Z</time></trkpt><trkpt lat="45.885863935153374" lon="10.668670097525688"><ele>743.0</ele><time>2026-04-06T12:39:44.028Z</time></trkpt><trkpt lat="45.8860073412036" lon="10.668786400676817"><ele>743.0</ele><time>2026-04-06T12:39:45.028Z</time></trkpt><trkpt lat="45.88613503161523" lon="10.668902743917462"><ele>743.0</ele><time>2026-04-06T12:39:46.028Z</time></trkpt><trkpt lat="45.88624246155843" lon="10.669001673732664"><ele>743.0</ele><time>2026-04-06T12:39:47.028Z</time></trkpt><trkpt lat="45.886343312905495" lon="10.66909423350283"><ele>743.0</ele><time>2026-04-06T12:39:48.028Z</time></trkpt><trkpt lat="45.88644885438299" lon="10.669189708329995"><ele>743.0</ele><time>2026-04-06T12:39:49.028Z</time></trkpt><trkpt lat="45.88657604538471" lon="10.66929241064004"><ele>743.0</ele><time>2026-04-06T12:39:50.028Z</time></trkpt><trkpt lat="45.886725603688674" lon="10.669406826008077"><ele>743.0</ele><time>2026-04-06T12:39:51.028Z</time></trkpt><trkpt lat="45.886883433631965" lon="10.669564467637363"><ele>743.6666666666666</ele><time>2026-04-06T12:39:52.028Z</time></trkpt><trkpt lat="45.887068295630755" lon="10.669711465517086"><ele>744.3333333333334</ele><time>2026-04-06T12:39:53.028Z</time></trkpt><trkpt lat="45.88726519451893" lon="10.669895009149812"><ele>745.0</ele><time>2026-04-06T12:39:54.028Z</time></trkpt><trkpt lat="45.88747653765409" lon="10.670092679701785"><ele>747.0</ele><time>2026-04-06T12:39:55.028Z</time></trkpt><trkpt lat="45.88768771916399" lon="10.670316190174095"><ele>749.0</ele><time>2026-04-06T12:39:56.028Z</time></trkpt><trkpt lat="45.887874164443296" lon="10.670526688888758"><ele>749.0</ele><time>2026-04-06T12:39:57.028Z</time></trkpt><trkpt lat="45.88803341819794" lon="10.670728672043515"><ele>749.0</ele><time>2026-04-06T12:39:58.028Z</time></trkpt><trkpt lat="45.88817406447605" lon="10.670923369242905"><ele>749.0</ele><time>2026-04-06T12:39:59.028Z</time></trkpt><trkpt lat="45.888310832970745" lon="10.671110197207803"><ele>748.0</ele><time>2026-04-06T12:40:00.028Z</time></trkpt><trkpt lat="45.88844745770313" lon="10.671304079845804"><ele>747.0</ele><time>2026-04-06T12:40:01.028Z</time></trkpt><trkpt lat="45.88856873692748" lon="10.671488705354692"><ele>746.0</ele><time>2026-04-06T12:40:02.028Z</time></trkpt><trkpt lat="45.888679501660725" lon="10.671659850266819"><ele>746.0</ele><time>2026-04-06T12:40:03.028Z</time></trkpt><trkpt lat="45.88877470953781" lon="10.671829151101822"><ele>746.0</ele><time>2026-04-06T12:40:04.028Z</time></trkpt><trkpt lat="45.8888436109613" lon="10.672001800629285"><ele>746.0</ele><time>2026-04-06T12:40:05.028Z</time></trkpt><trkpt lat="45.88891995872882" lon="10.672189995825477"><ele>746.0</ele><time>2026-04-06T12:40:06.028Z</time></trkpt><trkpt lat="45.88899135814002" lon="10.67237664254361"><ele>745.75</ele><time>2026-04-06T12:40:07.028Z</time></trkpt><trkpt lat="45.889059783382216" lon="10.672554987862386"><ele>745.5</ele><time>2026-04-06T12:40:08.028Z</time></trkpt><trkpt lat="45.889125889941376" lon="10.672726875844633"><ele>745.25</ele><time>2026-04-06T12:40:09.028Z</time></trkpt><trkpt lat="45.889190651421714" lon="10.672915723933526"><ele>745.0</ele><time>2026-04-06T12:40:10.028Z</time></trkpt><trkpt lat="45.88925644181739" lon="10.673106685282184"><ele>745.25</ele><time>2026-04-06T12:40:11.028Z</time></trkpt><trkpt lat="45.88933040706979" lon="10.673293495573173"><ele>745.5</ele><time>2026-04-06T12:40:12.028Z</time></trkpt><trkpt lat="45.88939838692032" lon="10.67347169632991"><ele>745.75</ele><time>2026-04-06T12:40:13.028Z</time></trkpt><trkpt lat="45.889458691238886" lon="10.673648978038837"><ele>746.0</ele><time>2026-04-06T12:40:14.028Z</time></trkpt><trkpt lat="45.88951581125775" lon="10.673809979779874"><ele>745.25</ele><time>2026-04-06T12:40:15.028Z</time></trkpt><trkpt lat="45.889576517460526" lon="10.673957855741103"><ele>744.5</ele><time>2026-04-06T12:40:16.028Z</time></trkpt><trkpt lat="45.88964302610005" lon="10.674095611771419"><ele>743.75</ele><time>2026-04-06T12:40:17.028Z</time></trkpt><trkpt lat="45.889725648444866" lon="10.674207404088095"><ele>743.0</ele><time>2026-04-06T12:40:18.028Z</time></trkpt><trkpt lat="45.889832136207296" lon="10.674312708887019"><ele>743.0</ele><time>2026-04-06T12:40:19.028Z</time></trkpt><trkpt lat="45.88994387356886" lon="10.674417904240778"><ele>743.0</ele><time>2026-04-06T12:40:20.028Z</time></trkpt><trkpt lat="45.890069930530345" lon="10.674524964383318"><ele>743.0</ele><time>2026-04-06T12:40:21.028Z</time></trkpt><trkpt lat="45.89020649974864" lon="10.674629486625257"><ele>743.0</ele><time>2026-04-06T12:40:22.028Z</time></trkpt><trkpt lat="45.890349509785175" lon="10.674732059202803"><ele>742.25</ele><time>2026-04-06T12:40:23.028Z</time></trkpt><trkpt lat="45.8904717186069" lon="10.674830171342311"><ele>741.5</ele><time>2026-04-06T12:40:24.028Z</time></trkpt><trkpt lat="45.89059273248042" lon="10.674933603538085"><ele>740.75</ele><time>2026-04-06T12:40:25.028Z</time></trkpt><trkpt lat="45.8907177477841" lon="10.675034942284771"><ele>740.0</ele><time>2026-04-06T12:40:26.028Z</time></trkpt><trkpt lat="45.890847188377464" lon="10.675137183108983"><ele>740.25</ele><time>2026-04-06T12:40:27.028Z</time></trkpt><trkpt lat="45.89097372993278" lon="10.675238694042212"><ele>740.5</ele><time>2026-04-06T12:40:28.028Z</time></trkpt><trkpt lat="45.89110039248564" lon="10.675343792970192"><ele>740.75</ele><time>2026-04-06T12:40:29.028Z</time></trkpt><trkpt lat="45.891226655162484" lon="10.675446468791867"><ele>741.0</ele><time>2026-04-06T12:40:30.028Z</time></trkpt><trkpt lat="45.891356880001325" lon="10.675551570234092"><ele>741.0</ele><time>2026-04-06T12:40:31.028Z</time></trkpt><trkpt lat="45.89149448003313" lon="10.675664225623274"><ele>741.0</ele><time>2026-04-06T12:40:32.028Z</time></trkpt><trkpt lat="45.89161958747454" lon="10.675791097975146"><ele>741.0</ele><time>2026-04-06T12:40:33.028Z</time></trkpt><trkpt lat="45.89173307751154" lon="10.675940745302954"><ele>742.5</ele><time>2026-04-06T12:40:34.028Z</time></trkpt><trkpt lat="45.891830554521505" lon="10.676110053887024"><ele>744.0</ele><time>2026-04-06T12:40:35.028Z</time></trkpt><trkpt lat="45.89191170229068" lon="10.67628836819771"><ele>745.5</ele><time>2026-04-06T12:40:36.028Z</time></trkpt><trkpt lat="45.89198608041565" lon="10.676465326725314"><ele>747.0</ele><time>2026-04-06T12:40:37.028Z</time></trkpt><trkpt lat="45.89205527613685" lon="10.676633219380385"><ele>747.0</ele><time>2026-04-06T12:40:38.028Z</time></trkpt><trkpt lat="45.89212534458942" lon="10.676794925404309"><ele>747.0</ele><time>2026-04-06T12:40:39.028Z</time></trkpt><trkpt lat="45.89219650508296" lon="10.676961682848788"><ele>747.0</ele><time>2026-04-06T12:40:40.028Z</time></trkpt><trkpt lat="45.89226581163047" lon="10.677132425594511"><ele>747.0</ele><time>2026-04-06T12:40:41.028Z</time></trkpt><trkpt lat="45.8923227786414" lon="10.677312890371123"><ele>744.3333333333334</ele><time>2026-04-06T12:40:42.028Z</time></trkpt><trkpt lat="45.89236725788016" lon="10.677518057393643"><ele>741.6666666666667</ele><time>2026-04-06T12:40:43.028Z</time></trkpt><trkpt lat="45.8924108504651" lon="10.677741636244331"><ele>739.0</ele><time>2026-04-06T12:40:44.028Z</time></trkpt><trkpt lat="45.892444272102836" lon="10.67796916489667"><ele>738.0</ele><time>2026-04-06T12:40:45.028Z</time></trkpt><trkpt lat="45.89247246771588" lon="10.678179413430929"><ele>737.0</ele><time>2026-04-06T12:40:46.028Z</time></trkpt><trkpt lat="45.89249505094996" lon="10.678382364202243"><ele>736.0</ele><time>2026-04-06T12:40:47.028Z</time></trkpt><trkpt lat="45.892514283268376" lon="10.678581703348954"><ele>735.0</ele><time>2026-04-06T12:40:48.028Z</time></trkpt><trkpt lat="45.89253053872658" lon="10.67878205440799"><ele>735.0</ele><time>2026-04-06T12:40:49.028Z</time></trkpt><trkpt lat="45.892543511662595" lon="10.678976143565045"><ele>735.0</ele><time>2026-04-06T12:40:50.028Z</time></trkpt><trkpt lat="45.892548824363665" lon="10.679164589694723"><ele>735.0</ele><time>2026-04-06T12:40:51.028Z</time></trkpt><trkpt lat="45.89252599441604" lon="10.679290843632238"><ele>735.0</ele><time>2026-04-06T12:40:52.028Z</time></trkpt><trkpt lat="45.89252606764636" lon="10.679456281450898"><ele>735.3333333333334</ele><time>2026-04-06T12:40:53.028Z</time></trkpt><trkpt lat="45.892617431120776" lon="10.679717613870492"><ele>735.6666666666667</ele><time>2026-04-06T12:40:54.028Z</time></trkpt><trkpt lat="45.89267213897422" lon="10.67990881941146"><ele>736.0</ele><time>2026-04-06T12:40:55.028Z</time></trkpt><trkpt lat="45.89272681291782" lon="10.680092835787002"><ele>736.0</ele><time>2026-04-06T12:40:56.028Z</time></trkpt><trkpt lat="45.8927776073382" lon="10.680260708367634"><ele>736.0</ele><time>2026-04-06T12:40:57.028Z</time></trkpt><trkpt lat="45.8928289514595" lon="10.680422793237799"><ele>736.0</ele><time>2026-04-06T12:40:58.028Z</time></trkpt><trkpt lat="45.89286905633514" lon="10.68058566031995"><ele>736.0</ele><time>2026-04-06T12:40:59.028Z</time></trkpt><trkpt lat="45.8929114772387" lon="10.680740618967286"><ele>736.0</ele><time>2026-04-06T12:41:00.028Z</time></trkpt><trkpt lat="45.89295456450645" lon="10.680885140186088"><ele>736.0</ele><time>2026-04-06T12:41:01.028Z</time></trkpt><trkpt lat="45.89299092451846" lon="10.681029643494528"><ele>736.0</ele><time>2026-04-06T12:41:02.028Z</time></trkpt><trkpt lat="45.893039046593174" lon="10.681200967696062"><ele>736.0</ele><time>2026-04-06T12:41:03.028Z</time></trkpt><trkpt lat="45.89309346104533" lon="10.681382184885106"><ele>735.75</ele><time>2026-04-06T12:41:04.028Z</time></trkpt><trkpt lat="45.89314363516444" lon="10.681535323816636"><ele>735.5</ele><time>2026-04-06T12:41:05.028Z</time></trkpt><trkpt lat="45.89317790994666" lon="10.681686516342765"><ele>735.25</ele><time>2026-04-06T12:41:06.028Z</time></trkpt><trkpt lat="45.89319316955957" lon="10.68185184727404"><ele>735.0</ele><time>2026-04-06T12:41:07.028Z</time></trkpt><trkpt lat="45.893214270990896" lon="10.682038448061853"><ele>735.0</ele><time>2026-04-06T12:41:08.028Z</time></trkpt><trkpt lat="45.89322675603698" lon="10.68224072571906"><ele>735.0</ele><time>2026-04-06T12:41:09.028Z</time></trkpt><trkpt lat="45.89323129387068" lon="10.68243623520649"><ele>735.0</ele><time>2026-04-06T12:41:10.028Z</time></trkpt><trkpt lat="45.893227042408135" lon="10.68262093229696"><ele>735.0</ele><time>2026-04-06T12:41:11.028Z</time></trkpt><trkpt lat="45.8932202285953" lon="10.682794238286945"><ele>734.75</ele><time>2026-04-06T12:41:12.028Z</time></trkpt><trkpt lat="45.89321500720605" lon="10.68297205677671"><ele>734.5</ele><time>2026-04-06T12:41:13.028Z</time></trkpt><trkpt lat="45.89321166095092" lon="10.683160830746974"><ele>734.25</ele><time>2026-04-06T12:41:14.028Z</time></trkpt><trkpt lat="45.89318917625877" lon="10.68335542640446"><ele>734.0</ele><time>2026-04-06T12:41:15.028Z</time></trkpt><trkpt lat="45.89318501839695" lon="10.683547390508563"><ele>732.75</ele><time>2026-04-06T12:41:16.028Z</time></trkpt><trkpt lat="45.89314871714397" lon="10.68374402934323"><ele>731.5</ele><time>2026-04-06T12:41:17.028Z</time></trkpt><trkpt lat="45.89310094337312" lon="10.68395436614664"><ele>730.25</ele><time>2026-04-06T12:41:18.028Z</time></trkpt><trkpt lat="45.89305446172537" lon="10.684154027015493"><ele>729.0</ele><time>2026-04-06T12:41:19.028Z</time></trkpt><trkpt lat="45.8930015071388" lon="10.68433234767745"><ele>729.0</ele><time>2026-04-06T12:41:20.028Z</time></trkpt><trkpt lat="45.892944413432616" lon="10.684515612802137"><ele>729.0</ele><time>2026-04-06T12:41:21.028Z</time></trkpt><trkpt lat="45.89289161126601" lon="10.68471477614412"><ele>729.0</ele><time>2026-04-06T12:41:22.028Z</time></trkpt><trkpt lat="45.89283797589278" lon="10.684914167465806"><ele>729.0</ele><time>2026-04-06T12:41:23.028Z</time></trkpt><trkpt lat="45.892784227390834" lon="10.685095378831315"><ele>729.0</ele><time>2026-04-06T12:41:24.028Z</time></trkpt><trkpt lat="45.892734568276225" lon="10.6852606053607"><ele>729.0</ele><time>2026-04-06T12:41:25.028Z</time></trkpt><trkpt lat="45.89268804040458" lon="10.685423043621443"><ele>729.0</ele><time>2026-04-06T12:41:26.028Z</time></trkpt><trkpt lat="45.892643861936804" lon="10.685573936161548"><ele>729.0</ele><time>2026-04-06T12:41:27.028Z</time></trkpt><trkpt lat="45.892596642566836" lon="10.685712927989805"><ele>727.75</ele><time>2026-04-06T12:41:28.028Z</time></trkpt><trkpt lat="45.89255148700116" lon="10.685894252711938"><ele>726.5</ele><time>2026-04-06T12:41:29.028Z</time></trkpt><trkpt lat="45.89250254087378" lon="10.686094050731795"><ele>725.25</ele><time>2026-04-06T12:41:30.028Z</time></trkpt><trkpt lat="45.892451084799944" lon="10.686271778051564"><ele>724.0</ele><time>2026-04-06T12:41:31.028Z</time></trkpt><trkpt lat="45.89240227267787" lon="10.686441056536358"><ele>723.75</ele><time>2026-04-06T12:41:32.028Z</time></trkpt><trkpt lat="45.892355395644394" lon="10.68661127347407"><ele>723.5</ele><time>2026-04-06T12:41:33.028Z</time></trkpt><trkpt lat="45.89231290473042" lon="10.686765664682376"><ele>723.25</ele><time>2026-04-06T12:41:34.028Z</time></trkpt><trkpt lat="45.892277675338725" lon="10.686920524229775"><ele>723.0</ele><time>2026-04-06T12:41:35.028Z</time></trkpt><trkpt lat="45.89225101411158" lon="10.687074504865484"><ele>722.4</ele><time>2026-04-06T12:41:36.028Z</time></trkpt><trkpt lat="45.89223184526187" lon="10.687226181533289"><ele>721.8</ele><time>2026-04-06T12:41:37.028Z</time></trkpt><trkpt lat="45.892216986630594" lon="10.687377189086472"><ele>721.2</ele><time>2026-04-06T12:41:38.028Z</time></trkpt><trkpt lat="45.892201351845124" lon="10.687527521585858"><ele>720.6</ele><time>2026-04-06T12:41:39.028Z</time></trkpt><trkpt lat="45.89219293953942" lon="10.687680434485367"><ele>720.0</ele><time>2026-04-06T12:41:40.028Z</time></trkpt><trkpt lat="45.89219345227502" lon="10.687835428431335"><ele>719.8</ele><time>2026-04-06T12:41:41.028Z</time></trkpt><trkpt lat="45.89219247474917" lon="10.687989985582348"><ele>719.6</ele><time>2026-04-06T12:41:42.028Z</time></trkpt><trkpt lat="45.892191812457334" lon="10.688141879051601"><ele>719.4000000000001</ele><time>2026-04-06T12:41:43.028Z</time></trkpt><trkpt lat="45.89220202983113" lon="10.688285076176161"><ele>719.2</ele><time>2026-04-06T12:41:44.028Z</time></trkpt><trkpt lat="45.892210638214294" lon="10.688426717485369"><ele>719.0</ele><time>2026-04-06T12:41:45.028Z</time></trkpt><trkpt lat="45.89221223780008" lon="10.688571290582752"><ele>719.0</ele><time>2026-04-06T12:41:46.028Z</time></trkpt><trkpt lat="45.8922162348419" lon="10.688727647131023"><ele>719.0</ele><time>2026-04-06T12:41:47.028Z</time></trkpt><trkpt lat="45.89222409902501" lon="10.68889055102954"><ele>719.0</ele><time>2026-04-06T12:41:48.028Z</time></trkpt><trkpt lat="45.89223400094966" lon="10.689062248064918"><ele>719.0</ele><time>2026-04-06T12:41:49.028Z</time></trkpt><trkpt lat="45.89224278468095" lon="10.689234954264002"><ele>719.0</ele><time>2026-04-06T12:41:50.028Z</time></trkpt><trkpt lat="45.8922493923072" lon="10.689400572580466"><ele>719.0</ele><time>2026-04-06T12:41:51.028Z</time></trkpt><trkpt lat="45.892256772287844" lon="10.689565206632366"><ele>719.0</ele><time>2026-04-06T12:41:52.028Z</time></trkpt><trkpt lat="45.892261110074" lon="10.689729866587667"><ele>719.0</ele><time>2026-04-06T12:41:53.028Z</time></trkpt><trkpt lat="45.89226696598841" lon="10.689887518275034"><ele>718.8000000000001</ele><time>2026-04-06T12:41:54.028Z</time></trkpt><trkpt lat="45.89227340293462" lon="10.690044392037189"><ele>718.6</ele><time>2026-04-06T12:41:55.028Z</time></trkpt><trkpt lat="45.892283132977035" lon="10.690201185434915"><ele>718.4</ele><time>2026-04-06T12:41:56.028Z</time></trkpt><trkpt lat="45.892289583705676" lon="10.69035442751281"><ele>718.2</ele><time>2026-04-06T12:41:57.028Z</time></trkpt><trkpt lat="45.89229656782379" lon="10.690507811528493"><ele>718.0</ele><time>2026-04-06T12:41:58.028Z</time></trkpt><trkpt lat="45.8923027540841" lon="10.690662529667593"><ele>718.0</ele><time>2026-04-06T12:41:59.028Z</time></trkpt><trkpt lat="45.89231026092022" lon="10.690823328406411"><ele>718.0</ele><time>2026-04-06T12:42:00.028Z</time></trkpt><trkpt lat="45.892318302462435" lon="10.690982395358526"><ele>718.0</ele><time>2026-04-06T12:42:01.028Z</time></trkpt><trkpt lat="45.892330328410516" lon="10.691146102887801"><ele>718.0</ele><time>2026-04-06T12:42:02.028Z</time></trkpt><trkpt lat="45.89234267765943" lon="10.691310523687585"><ele>717.0</ele><time>2026-04-06T12:42:03.028Z</time></trkpt><trkpt lat="45.892356759346136" lon="10.691473702007276"><ele>716.0</ele><time>2026-04-06T12:42:04.028Z</time></trkpt><trkpt lat="45.8923722136626" lon="10.691642802894082"><ele>715.0</ele><time>2026-04-06T12:42:05.028Z</time></trkpt><trkpt lat="45.89239144250025" lon="10.691803647119345"><ele>714.0</ele><time>2026-04-06T12:42:06.028Z</time></trkpt><trkpt lat="45.89241097910355" lon="10.691969212543784"><ele>714.0</ele><time>2026-04-06T12:42:07.028Z</time></trkpt><trkpt lat="45.89242561191463" lon="10.692132265328045"><ele>714.0</ele><time>2026-04-06T12:42:08.028Z</time></trkpt><trkpt lat="45.892441457996924" lon="10.692297383336335"><ele>714.0</ele><time>2026-04-06T12:42:09.028Z</time></trkpt><trkpt lat="45.892456519636454" lon="10.69245165805113"><ele>714.0</ele><time>2026-04-06T12:42:10.028Z</time></trkpt><trkpt lat="45.89246974499532" lon="10.69259456535514"><ele>714.0</ele><time>2026-04-06T12:42:11.028Z</time></trkpt><trkpt lat="45.892481213355936" lon="10.69273253244489"><ele>715.8000000000001</ele><time>2026-04-06T12:42:12.028Z</time></trkpt><trkpt lat="45.89249445039658" lon="10.692861821101145"><ele>717.6</ele><time>2026-04-06T12:42:13.028Z</time></trkpt><trkpt lat="45.89250957369678" lon="10.6929982268804"><ele>719.4</ele><time>2026-04-06T12:42:14.028Z</time></trkpt><trkpt lat="45.89252223487492" lon="10.693146081704398"><ele>721.2</ele><time>2026-04-06T12:42:15.028Z</time></trkpt><trkpt lat="45.89252697582062" lon="10.693295713764565"><ele>723.0</ele><time>2026-04-06T12:42:16.028Z</time></trkpt><trkpt lat="45.89252151385809" lon="10.693458924954863"><ele>724.75</ele><time>2026-04-06T12:42:17.028Z</time></trkpt><trkpt lat="45.892501867683286" lon="10.69361608556789"><ele>726.5</ele><time>2026-04-06T12:42:18.028Z</time></trkpt><trkpt lat="45.89247273675412" lon="10.693782784963927"><ele>728.25</ele><time>2026-04-06T12:42:19.028Z</time></trkpt><trkpt lat="45.89243780755435" lon="10.693947204781612"><ele>730.0</ele><time>2026-04-06T12:42:20.028Z</time></trkpt><trkpt lat="45.892369349600834" lon="10.694112368147547"><ele>730.0</ele><time>2026-04-06T12:42:21.028Z</time></trkpt><trkpt lat="45.89229548039315" lon="10.694284903839328"><ele>730.0</ele><time>2026-04-06T12:42:22.028Z</time></trkpt><trkpt lat="45.892226908139634" lon="10.69446130567968"><ele>730.0</ele><time>2026-04-06T12:42:23.028Z</time></trkpt><trkpt lat="45.892158477847175" lon="10.694624978916448"><ele>730.0</ele><time>2026-04-06T12:42:24.028Z</time></trkpt><trkpt lat="45.89209765512495" lon="10.694810451323926"><ele>732.75</ele><time>2026-04-06T12:42:25.028Z</time></trkpt><trkpt lat="45.892046670280614" lon="10.6950047938142"><ele>735.5</ele><time>2026-04-06T12:42:26.028Z</time></trkpt><trkpt lat="45.8920206961159" lon="10.695200142114365"><ele>738.25</ele><time>2026-04-06T12:42:27.028Z</time></trkpt><trkpt lat="45.89199919847414" lon="10.695403300303893"><ele>741.0</ele><time>2026-04-06T12:42:28.028Z</time></trkpt><trkpt lat="45.89198627376625" lon="10.69561220229595"><ele>743.75</ele><time>2026-04-06T12:42:29.028Z</time></trkpt><trkpt lat="45.89196396277985" lon="10.695816104395867"><ele>746.5</ele><time>2026-04-06T12:42:30.028Z</time></trkpt><trkpt lat="45.89194297730327" lon="10.696014567433107"><ele>749.25</ele><time>2026-04-06T12:42:31.028Z</time></trkpt><trkpt lat="45.89192065951429" lon="10.696223302391278"><ele>752.0</ele><time>2026-04-06T12:42:32.028Z</time></trkpt><trkpt lat="45.89192513921325" lon="10.696439433130246"><ele>752.3333333333333</ele><time>2026-04-06T12:42:33.028Z</time></trkpt><trkpt lat="45.891941090340566" lon="10.696652093897034"><ele>752.6666666666666</ele><time>2026-04-06T12:42:34.028Z</time></trkpt><trkpt lat="45.891974799990614" lon="10.696887653789613"><ele>753.0</ele><time>2026-04-06T12:42:35.028Z</time></trkpt><trkpt lat="45.89202276557502" lon="10.697134701805725"><ele>750.6666666666666</ele><time>2026-04-06T12:42:36.028Z</time></trkpt><trkpt lat="45.892074422295835" lon="10.69736821008856"><ele>748.3333333333333</ele><time>2026-04-06T12:42:37.028Z</time></trkpt><trkpt lat="45.892117217654324" lon="10.697579886592"><ele>746.0</ele><time>2026-04-06T12:42:38.028Z</time></trkpt><trkpt lat="45.89215229013536" lon="10.697785771398106"><ele>740.6666666666666</ele><time>2026-04-06T12:42:39.028Z</time></trkpt><trkpt lat="45.89220370857434" lon="10.697984511776788"><ele>735.3333333333334</ele><time>2026-04-06T12:42:40.028Z</time></trkpt><trkpt lat="45.89226402494249" lon="10.698182824396302"><ele>730.0</ele><time>2026-04-06T12:42:41.028Z</time></trkpt><trkpt lat="45.89233083337592" lon="10.698380482622914"><ele>726.6666666666667</ele><time>2026-04-06T12:42:42.028Z</time></trkpt><trkpt lat="45.8923911238302" lon="10.698588123356409"><ele>723.3333333333334</ele><time>2026-04-06T12:42:43.028Z</time></trkpt><trkpt lat="45.89244849474121" lon="10.698790860412702"><ele>720.0</ele><time>2026-04-06T12:42:44.028Z</time></trkpt><trkpt lat="45.892485822329846" lon="10.699001046938177"><ele>720.0</ele><time>2026-04-06T12:42:45.028Z</time></trkpt><trkpt lat="45.89251566646764" lon="10.699223614130934"><ele>720.0</ele><time>2026-04-06T12:42:46.028Z</time></trkpt><trkpt lat="45.89253304037552" lon="10.699451170256019"><ele>720.0</ele><time>2026-04-06T12:42:47.028Z</time></trkpt><trkpt lat="45.89254671765054" lon="10.6996744085963"><ele>717.6666666666666</ele><time>2026-04-06T12:42:48.028Z</time></trkpt><trkpt lat="45.89257195024344" lon="10.699929893351936"><ele>715.3333333333333</ele><time>2026-04-06T12:42:49.028Z</time></trkpt><trkpt lat="45.89259075333392" lon="10.700190206165356"><ele>713.0</ele><time>2026-04-06T12:42:50.028Z</time></trkpt><trkpt lat="45.892613898757375" lon="10.70044883886439"><ele>717.3333333333333</ele><time>2026-04-06T12:42:51.028Z</time></trkpt><trkpt lat="45.89263574334881" lon="10.700714002839135"><ele>721.6666666666666</ele><time>2026-04-06T12:42:52.028Z</time></trkpt><trkpt lat="45.89265480174461" lon="10.700978579294459"><ele>726.0</ele><time>2026-04-06T12:42:53.028Z</time></trkpt><trkpt lat="45.89267965872854" lon="10.701253125656725"><ele>726.0</ele><time>2026-04-06T12:42:54.028Z</time></trkpt><trkpt lat="45.89270284620917" lon="10.701523318519543"><ele>726.0</ele><time>2026-04-06T12:42:55.028Z</time></trkpt><trkpt lat="45.892720593347576" lon="10.701789961819667"><ele>726.0</ele><time>2026-04-06T12:42:56.028Z</time></trkpt><trkpt lat="45.892740781584905" lon="10.702040539970728"><ele>718.0</ele><time>2026-04-06T12:42:57.028Z</time></trkpt><trkpt lat="45.892762328681385" lon="10.702284853611056"><ele>710.0</ele><time>2026-04-06T12:42:58.028Z</time></trkpt><trkpt lat="45.89278685903069" lon="10.702526717110686"><ele>702.0</ele><time>2026-04-06T12:42:59.028Z</time></trkpt><trkpt lat="45.892810129296066" lon="10.70275984731935"><ele>700.0</ele><time>2026-04-06T12:43:00.028Z</time></trkpt><trkpt lat="45.89282175197489" lon="10.702988747168751"><ele>698.0</ele><time>2026-04-06T12:43:01.028Z</time></trkpt><trkpt lat="45.89284074193616" lon="10.703226346514159"><ele>696.0</ele><time>2026-04-06T12:43:02.028Z</time></trkpt><trkpt lat="45.89286677583737" lon="10.703474547562129"><ele>696.3333333333334</ele><time>2026-04-06T12:43:03.028Z</time></trkpt><trkpt lat="45.89287531260981" lon="10.703736315149289"><ele>696.6666666666667</ele><time>2026-04-06T12:43:04.028Z</time></trkpt><trkpt lat="45.89289719973548" lon="10.70400486401192"><ele>697.0</ele><time>2026-04-06T12:43:05.028Z</time></trkpt><trkpt lat="45.89292013466107" lon="10.704286269059377"><ele>697.0</ele><time>2026-04-06T12:43:06.028Z</time></trkpt><trkpt lat="45.892942257545954" lon="10.704557811177493"><ele>697.0</ele><time>2026-04-06T12:43:07.028Z</time></trkpt><trkpt lat="45.89296415613813" lon="10.704826721330447"><ele>697.0</ele><time>2026-04-06T12:43:08.028Z</time></trkpt><trkpt lat="45.89298295990245" lon="10.705057627611243"><ele>697.3333333333334</ele><time>2026-04-06T12:43:09.028Z</time></trkpt><trkpt lat="45.89301048988141" lon="10.705276122362834"><ele>697.6666666666666</ele><time>2026-04-06T12:43:11.028Z</time></trkpt><trkpt lat="45.893025499692605" lon="10.705486110952082"><ele>698.0</ele><time>2026-04-06T12:43:12.028Z</time></trkpt><trkpt lat="45.89304547852513" lon="10.705702825169123"><ele>698.0</ele><time>2026-04-06T12:43:13.028Z</time></trkpt><trkpt lat="45.89306257083079" lon="10.70591636901017"><ele>698.0</ele><time>2026-04-06T12:43:14.028Z</time></trkpt><trkpt lat="45.893075112590736" lon="10.706129937983267"><ele>698.0</ele><time>2026-04-06T12:43:15.028Z</time></trkpt><trkpt lat="45.89309299390833" lon="10.70635042541494"><ele>697.6666666666666</ele><time>2026-04-06T12:43:16.028Z</time></trkpt><trkpt lat="45.89311403852754" lon="10.706566850092704"><ele>697.3333333333334</ele><time>2026-04-06T12:43:17.028Z</time></trkpt><trkpt lat="45.89312685150275" lon="10.706772480757452"><ele>697.0</ele><time>2026-04-06T12:43:18.028Z</time></trkpt><trkpt lat="45.89314361530244" lon="10.706992575849105"><ele>696.0</ele><time>2026-04-06T12:43:19.028Z</time></trkpt><trkpt lat="45.893168329118446" lon="10.707201545726743"><ele>695.0</ele><time>2026-04-06T12:43:20.028Z</time></trkpt><trkpt lat="45.89318462125866" lon="10.707438074333595"><ele>694.0</ele><time>2026-04-06T12:43:21.028Z</time></trkpt><trkpt lat="45.89320277595016" lon="10.707676575386705"><ele>693.75</ele><time>2026-04-06T12:43:22.028Z</time></trkpt><trkpt lat="45.89322614723952" lon="10.70788776880206"><ele>693.5</ele><time>2026-04-06T12:43:23.028Z</time></trkpt><trkpt lat="45.89325264887391" lon="10.70808949347523"><ele>693.25</ele><time>2026-04-06T12:43:24.028Z</time></trkpt><trkpt lat="45.89329071629606" lon="10.708290342097053"><ele>693.0</ele><time>2026-04-06T12:43:25.028Z</time></trkpt><trkpt lat="45.893344230387264" lon="10.708495299618855"><ele>693.0</ele><time>2026-04-06T12:43:26.028Z</time></trkpt><trkpt lat="45.89340470101249" lon="10.708713802798322"><ele>693.0</ele><time>2026-04-06T12:43:27.028Z</time></trkpt><trkpt lat="45.89348536393825" lon="10.708947260333693"><ele>693.0</ele><time>2026-04-06T12:43:28.028Z</time></trkpt><trkpt lat="45.89359035830724" lon="10.70918210615886"><ele>693.0</ele><time>2026-04-06T12:43:29.028Z</time></trkpt><trkpt lat="45.893688041132485" lon="10.70938655228809"><ele>693.0</ele><time>2026-04-06T12:43:30.028Z</time></trkpt><trkpt lat="45.89377283004383" lon="10.709574331308584"><ele>693.0</ele><time>2026-04-06T12:43:31.028Z</time></trkpt><trkpt lat="45.893859571087596" lon="10.709753360601612"><ele>693.0</ele><time>2026-04-06T12:43:32.028Z</time></trkpt><trkpt lat="45.89395332251031" lon="10.709916184123122"><ele>693.0</ele><time>2026-04-06T12:43:33.028Z</time></trkpt><trkpt lat="45.894036429997165" lon="10.710100772574217"><ele>693.0</ele><time>2026-04-06T12:43:34.028Z</time></trkpt><trkpt lat="45.89412333185804" lon="10.71028686046319"><ele>691.6666666666666</ele><time>2026-04-06T12:43:35.028Z</time></trkpt><trkpt lat="45.89420986660801" lon="10.710473517792463"><ele>690.3333333333333</ele><time>2026-04-06T12:43:36.028Z</time></trkpt><trkpt lat="45.89430176167598" lon="10.710662003321655"><ele>689.0</ele><time>2026-04-06T12:43:37.028Z</time></trkpt><trkpt lat="45.89438371939447" lon="10.710842719697917"><ele>689.0</ele><time>2026-04-06T12:43:38.028Z</time></trkpt><trkpt lat="45.894466159583864" lon="10.711030083016041"><ele>689.0</ele><time>2026-04-06T12:43:39.028Z</time></trkpt><trkpt lat="45.89454844315106" lon="10.71122154739305"><ele>689.0</ele><time>2026-04-06T12:43:40.028Z</time></trkpt><trkpt lat="45.89463037135685" lon="10.711413866631846"><ele>688.3333333333333</ele><time>2026-04-06T12:43:41.028Z</time></trkpt><trkpt lat="45.8947378176936" lon="10.711617190046265"><ele>687.6666666666666</ele><time>2026-04-06T12:43:42.028Z</time></trkpt><trkpt lat="45.894834107640534" lon="10.711820622785991"><ele>687.0</ele><time>2026-04-06T12:43:43.028Z</time></trkpt><trkpt lat="45.894922904637276" lon="10.712025914566892"><ele>687.0</ele><time>2026-04-06T12:43:44.028Z</time></trkpt><trkpt lat="45.895007637546065" lon="10.712218291542888"><ele>687.0</ele><time>2026-04-06T12:43:45.028Z</time></trkpt><trkpt lat="45.895064172610944" lon="10.71240868067117"><ele>687.0</ele><time>2026-04-06T12:43:46.028Z</time></trkpt><trkpt lat="45.895127628713695" lon="10.712610414307262"><ele>685.25</ele><time>2026-04-06T12:43:47.028Z</time></trkpt><trkpt lat="45.89518192437266" lon="10.712812520816657"><ele>683.5</ele><time>2026-04-06T12:43:48.028Z</time></trkpt><trkpt lat="45.89522427268603" lon="10.71301159370143"><ele>681.75</ele><time>2026-04-06T12:43:49.028Z</time></trkpt><trkpt lat="45.89525209047117" lon="10.713208480052256"><ele>680.0</ele><time>2026-04-06T12:43:50.028Z</time></trkpt><trkpt lat="45.89527782772782" lon="10.713402659289326"><ele>681.25</ele><time>2026-04-06T12:43:51.028Z</time></trkpt><trkpt lat="45.8952909349612" lon="10.713601887632345"><ele>682.5</ele><time>2026-04-06T12:43:52.028Z</time></trkpt><trkpt lat="45.89529908108952" lon="10.713796513127727"><ele>683.75</ele><time>2026-04-06T12:43:53.028Z</time></trkpt><trkpt lat="45.89530204400431" lon="10.713991324969601"><ele>685.0</ele><time>2026-04-06T12:43:54.028Z</time></trkpt><trkpt lat="45.89530165294796" lon="10.714194783501652"><ele>685.0</ele><time>2026-04-06T12:43:55.028Z</time></trkpt><trkpt lat="45.895295480741325" lon="10.714403947485732"><ele>685.0</ele><time>2026-04-06T12:43:56.028Z</time></trkpt><trkpt lat="45.89528525487275" lon="10.714600293607107"><ele>685.0</ele><time>2026-04-06T12:43:57.028Z</time></trkpt><trkpt lat="45.89527552282961" lon="10.714790448883331"><ele>685.0</ele><time>2026-04-06T12:43:58.028Z</time></trkpt><trkpt lat="45.89526565570192" lon="10.714982971531688"><ele>686.25</ele><time>2026-04-06T12:43:59.028Z</time></trkpt><trkpt lat="45.895277736749634" lon="10.715174949020186"><ele>687.5</ele><time>2026-04-06T12:44:00.028Z</time></trkpt><trkpt lat="45.89526893053931" lon="10.71536930207309"><ele>688.75</ele><time>2026-04-06T12:44:01.028Z</time></trkpt><trkpt lat="45.89525870696728" lon="10.71556138501116"><ele>690.0</ele><time>2026-04-06T12:44:02.028Z</time></trkpt><trkpt lat="45.89525244297033" lon="10.715747393191242"><ele>690.75</ele><time>2026-04-06T12:44:03.028Z</time></trkpt><trkpt lat="45.89522190525578" lon="10.715935259388928"><ele>691.5</ele><time>2026-04-06T12:44:04.028Z</time></trkpt><trkpt lat="45.89521363740048" lon="10.716124532052046"><ele>692.25</ele><time>2026-04-06T12:44:05.028Z</time></trkpt><trkpt lat="45.895204867782425" lon="10.716318649284256"><ele>693.0</ele><time>2026-04-06T12:44:06.028Z</time></trkpt><trkpt lat="45.895195935939924" lon="10.716516357419161"><ele>693.0</ele><time>2026-04-06T12:44:07.028Z</time></trkpt><trkpt lat="45.89518701820368" lon="10.716713753300622"><ele>693.0</ele><time>2026-04-06T12:44:08.028Z</time></trkpt><trkpt lat="45.89517823499699" lon="10.71690817138016"><ele>693.0</ele><time>2026-04-06T12:44:09.028Z</time></trkpt><trkpt lat="45.895170322464125" lon="10.717101901659426"><ele>693.0</ele><time>2026-04-06T12:44:10.028Z</time></trkpt><trkpt lat="45.89516189479355" lon="10.71729165197235"><ele>693.25</ele><time>2026-04-06T12:44:11.028Z</time></trkpt><trkpt lat="45.895153332534655" lon="10.717484432512189"><ele>693.5</ele><time>2026-04-06T12:44:12.028Z</time></trkpt><trkpt lat="45.89515941345797" lon="10.717681633766228"><ele>693.75</ele><time>2026-04-06T12:44:13.028Z</time></trkpt><trkpt lat="45.89514704666483" lon="10.71788586407748"><ele>694.0</ele><time>2026-04-06T12:44:14.028Z</time></trkpt><trkpt lat="45.89512678614698" lon="10.718082128428149"><ele>694.0</ele><time>2026-04-06T12:44:15.028Z</time></trkpt><trkpt lat="45.89511893765045" lon="10.718258838988348"><ele>694.0</ele><time>2026-04-06T12:44:16.028Z</time></trkpt><trkpt lat="45.8951115359447" lon="10.71843147864487"><ele>694.0</ele><time>2026-04-06T12:44:17.028Z</time></trkpt><trkpt lat="45.89510471427245" lon="10.71858890465459"><ele>694.0</ele><time>2026-04-06T12:44:18.028Z</time></trkpt><trkpt lat="45.89509765921339" lon="10.71875171658282"><ele>694.75</ele><time>2026-04-06T12:44:19.028Z</time></trkpt><trkpt lat="45.895090623313784" lon="10.718914086355007"><ele>695.5</ele><time>2026-04-06T12:44:20.028Z</time></trkpt><trkpt lat="45.89508334112402" lon="10.71908213986694"><ele>696.25</ele><time>2026-04-06T12:44:21.028Z</time></trkpt><trkpt lat="45.89507521588749" lon="10.719269648673244"><ele>697.0</ele><time>2026-04-06T12:44:22.028Z</time></trkpt><trkpt lat="45.89506647413136" lon="10.719471384970676"><ele>695.25</ele><time>2026-04-06T12:44:23.028Z</time></trkpt><trkpt lat="45.89506741360233" lon="10.719660979241596"><ele>693.5</ele><time>2026-04-06T12:44:24.028Z</time></trkpt><trkpt lat="45.89503723304811" lon="10.7198538944332"><ele>691.75</ele><time>2026-04-06T12:44:25.028Z</time></trkpt><trkpt lat="45.89499591345988" lon="10.720054300627037"><ele>690.0</ele><time>2026-04-06T12:44:26.028Z</time></trkpt><trkpt lat="45.89491016248003" lon="10.720223666070135"><ele>689.6666666666666</ele><time>2026-04-06T12:44:27.028Z</time></trkpt><trkpt lat="45.894831102180596" lon="10.720418650385618"><ele>689.3333333333333</ele><time>2026-04-06T12:44:28.028Z</time></trkpt><trkpt lat="45.89474312202167" lon="10.720635130130631"><ele>689.0</ele><time>2026-04-06T12:44:29.028Z</time></trkpt><trkpt lat="45.89467278788474" lon="10.720850109898038"><ele>689.0</ele><time>2026-04-06T12:44:30.028Z</time></trkpt><trkpt lat="45.89460078121034" lon="10.721034519375662"><ele>689.0</ele><time>2026-04-06T12:44:31.028Z</time></trkpt><trkpt lat="45.89452821671832" lon="10.721228572567286"><ele>689.0</ele><time>2026-04-06T12:44:32.028Z</time></trkpt><trkpt lat="45.8944566962456" lon="10.721426975951323"><ele>688.5</ele><time>2026-04-06T12:44:33.028Z</time></trkpt><trkpt lat="45.894375026815354" lon="10.721609133694885"><ele>688.0</ele><time>2026-04-06T12:44:34.028Z</time></trkpt><trkpt lat="45.89430633468763" lon="10.721798428002264"><ele>687.5</ele><time>2026-04-06T12:44:35.028Z</time></trkpt><trkpt lat="45.894242216225024" lon="10.721976196997641"><ele>687.0</ele><time>2026-04-06T12:44:36.028Z</time></trkpt><trkpt lat="45.8941802266945" lon="10.722145187453577"><ele>685.5</ele><time>2026-04-06T12:44:37.028Z</time></trkpt><trkpt lat="45.89411892214251" lon="10.722310539648678"><ele>684.0</ele><time>2026-04-06T12:44:38.028Z</time></trkpt><trkpt lat="45.894067057208986" lon="10.722479101248187"><ele>682.5</ele><time>2026-04-06T12:44:39.028Z</time></trkpt><trkpt lat="45.893995876861766" lon="10.722629462466667"><ele>681.0</ele><time>2026-04-06T12:44:40.028Z</time></trkpt><trkpt lat="45.89391928013096" lon="10.722774793489329"><ele>680.75</ele><time>2026-04-06T12:44:41.028Z</time></trkpt><trkpt lat="45.89381640180928" lon="10.722894415013482"><ele>680.5</ele><time>2026-04-06T12:44:42.028Z</time></trkpt><trkpt lat="45.89372477461687" lon="10.723025959459962"><ele>680.25</ele><time>2026-04-06T12:44:43.028Z</time></trkpt><trkpt lat="45.89364339334703" lon="10.723174767024185"><ele>680.0</ele><time>2026-04-06T12:44:44.028Z</time></trkpt><trkpt lat="45.893550086268995" lon="10.72330950383354"><ele>680.0</ele><time>2026-04-06T12:44:45.028Z</time></trkpt><trkpt lat="45.89345535206863" lon="10.723445575580467"><ele>680.0</ele><time>2026-04-06T12:44:46.028Z</time></trkpt><trkpt lat="45.89334817301628" lon="10.723566232638783"><ele>680.0</ele><time>2026-04-06T12:44:47.028Z</time></trkpt><trkpt lat="45.89325268885439" lon="10.723703206767997"><ele>680.0</ele><time>2026-04-06T12:44:48.028Z</time></trkpt><trkpt lat="45.893161715277714" lon="10.723833710306762"><ele>678.5</ele><time>2026-04-06T12:44:49.028Z</time></trkpt><trkpt lat="45.89307256191319" lon="10.723961276215995"><ele>677.0</ele><time>2026-04-06T12:44:50.028Z</time></trkpt><trkpt lat="45.89298426846506" lon="10.7240871798481"><ele>675.5</ele><time>2026-04-06T12:44:51.028Z</time></trkpt><trkpt lat="45.89290830586931" lon="10.724226591899258"><ele>674.0</ele><time>2026-04-06T12:44:52.028Z</time></trkpt><trkpt lat="45.89282422874778" lon="10.724349787343442"><ele>673.5</ele><time>2026-04-06T12:44:53.028Z</time></trkpt><trkpt lat="45.89272881767874" lon="10.724452282690411"><ele>673.0</ele><time>2026-04-06T12:44:54.028Z</time></trkpt><trkpt lat="45.892643905850164" lon="10.724573327465645"><ele>672.5</ele><time>2026-04-06T12:44:55.028Z</time></trkpt><trkpt lat="45.89255553980892" lon="10.724699296348902"><ele>672.0</ele><time>2026-04-06T12:44:56.028Z</time></trkpt><trkpt lat="45.89245819986818" lon="10.72483805781006"><ele>671.0</ele><time>2026-04-06T12:44:57.028Z</time></trkpt><trkpt lat="45.89236241938359" lon="10.72497459624082"><ele>670.0</ele><time>2026-04-06T12:44:58.028Z</time></trkpt><trkpt lat="45.892261372563674" lon="10.725118642014467"><ele>669.0</ele><time>2026-04-06T12:44:59.028Z</time></trkpt><trkpt lat="45.892158278857806" lon="10.725265605945388"><ele>668.0</ele><time>2026-04-06T12:45:00.028Z</time></trkpt><trkpt lat="45.89205474458623" lon="10.725413797820046"><ele>667.75</ele><time>2026-04-06T12:45:01.028Z</time></trkpt><trkpt lat="45.89195754155361" lon="10.725552804238696"><ele>667.5</ele><time>2026-04-06T12:45:02.028Z</time></trkpt><trkpt lat="45.89186086592747" lon="10.725692206712298"><ele>667.25</ele><time>2026-04-06T12:45:03.028Z</time></trkpt><trkpt lat="45.8917638534829" lon="10.725832531788631"><ele>667.0</ele><time>2026-04-06T12:45:04.028Z</time></trkpt><trkpt lat="45.89167846767855" lon="10.725987372200008"><ele>666.75</ele><time>2026-04-06T12:45:05.028Z</time></trkpt><trkpt lat="45.89157522276412" lon="10.726102327703268"><ele>666.5</ele><time>2026-04-06T12:45:06.028Z</time></trkpt><trkpt lat="45.89148071676698" lon="10.726237229520091"><ele>666.25</ele><time>2026-04-06T12:45:07.028Z</time></trkpt><trkpt lat="45.89139334331502" lon="10.726361888013955"><ele>666.0</ele><time>2026-04-06T12:45:08.028Z</time></trkpt><trkpt lat="45.89130414772332" lon="10.726489146198"><ele>666.0</ele><time>2026-04-06T12:45:09.028Z</time></trkpt><trkpt lat="45.891216132234426" lon="10.726614720704728"><ele>666.0</ele><time>2026-04-06T12:45:10.028Z</time></trkpt><trkpt lat="45.89111856151397" lon="10.726754387583961"><ele>666.0</ele><time>2026-04-06T12:45:11.028Z</time></trkpt><trkpt lat="45.891022411554104" lon="10.726892461105939"><ele>666.0</ele><time>2026-04-06T12:45:12.028Z</time></trkpt><trkpt lat="45.8909366483313" lon="10.727046221339306"><ele>665.75</ele><time>2026-04-06T12:45:13.028Z</time></trkpt><trkpt lat="45.89083679543674" lon="10.727188287798704"><ele>665.5</ele><time>2026-04-06T12:45:14.028Z</time></trkpt><trkpt lat="45.890733694693594" lon="10.727337437861435"><ele>665.25</ele><time>2026-04-06T12:45:15.028Z</time></trkpt><trkpt lat="45.890631595246745" lon="10.727484557023828"><ele>665.0</ele><time>2026-04-06T12:45:16.028Z</time></trkpt><trkpt lat="45.890516110145214" lon="10.727617055419293"><ele>665.0</ele><time>2026-04-06T12:45:17.028Z</time></trkpt><trkpt lat="45.890409465701914" lon="10.727768565749894"><ele>665.0</ele><time>2026-04-06T12:45:18.028Z</time></trkpt><trkpt lat="45.890308139575424" lon="10.727914687736275"><ele>665.0</ele><time>2026-04-06T12:45:19.028Z</time></trkpt><trkpt lat="45.89021676816115" lon="10.728078848457777"><ele>665.0</ele><time>2026-04-06T12:45:20.028Z</time></trkpt><trkpt lat="45.89010639124403" lon="10.728204519070923"><ele>664.75</ele><time>2026-04-06T12:45:21.028Z</time></trkpt><trkpt lat="45.890009058120064" lon="10.728345679440595"><ele>664.5</ele><time>2026-04-06T12:45:22.028Z</time></trkpt><trkpt lat="45.889913625644745" lon="10.728482884203835"><ele>664.25</ele><time>2026-04-06T12:45:23.028Z</time></trkpt><trkpt lat="45.889835792774214" lon="10.728620362830702"><ele>664.0</ele><time>2026-04-06T12:45:24.028Z</time></trkpt><trkpt lat="45.88975027766825" lon="10.72875040017819"><ele>664.0</ele><time>2026-04-06T12:45:25.028Z</time></trkpt><trkpt lat="45.88966246692545" lon="10.728894640663842"><ele>664.0</ele><time>2026-04-06T12:45:26.028Z</time></trkpt><trkpt lat="45.88958388072193" lon="10.729041217078805"><ele>664.0</ele><time>2026-04-06T12:45:27.028Z</time></trkpt><trkpt lat="45.88950919934415" lon="10.72920006342751"><ele>664.0</ele><time>2026-04-06T12:45:28.028Z</time></trkpt><trkpt lat="45.889423928538626" lon="10.729342604463959"><ele>663.5</ele><time>2026-04-06T12:45:29.028Z</time></trkpt><trkpt lat="45.88935964043671" lon="10.729494455597655"><ele>663.0</ele><time>2026-04-06T12:45:30.028Z</time></trkpt><trkpt lat="45.889299446126174" lon="10.729639381857018"><ele>662.5</ele><time>2026-04-06T12:45:31.028Z</time></trkpt><trkpt lat="45.88924146839776" lon="10.729780969100982"><ele>662.0</ele><time>2026-04-06T12:45:32.028Z</time></trkpt><trkpt lat="45.88918512818172" lon="10.729918557698259"><ele>662.0</ele><time>2026-04-06T12:45:33.028Z</time></trkpt><trkpt lat="45.889131421207104" lon="10.730049766167058"><ele>662.0</ele><time>2026-04-06T12:45:34.028Z</time></trkpt><trkpt lat="45.889079177948325" lon="10.730177388133152"><ele>662.0</ele><time>2026-04-06T12:45:35.028Z</time></trkpt><trkpt lat="45.88903076332961" lon="10.730295657241046"><ele>662.0</ele><time>2026-04-06T12:45:36.027Z</time></trkpt><trkpt lat="45.888994668236485" lon="10.730419552717818"><ele>662.0</ele><time>2026-04-06T12:45:37.027Z</time></trkpt><trkpt lat="45.888947748409464" lon="10.730536393100984"><ele>662.0</ele><time>2026-04-06T12:45:38.027Z</time></trkpt><trkpt lat="45.88888910267842" lon="10.730631288807565"><ele>662.0</ele><time>2026-04-06T12:45:39.027Z</time></trkpt><trkpt lat="45.888845459834556" lon="10.730735570168655"><ele>662.0</ele><time>2026-04-06T12:45:40.027Z</time></trkpt><trkpt lat="45.88882009043675" lon="10.730830692648702"><ele>662.0</ele><time>2026-04-06T12:45:41.027Z</time></trkpt><trkpt lat="45.88876978959462" lon="10.730894759696948"><ele>662.0</ele><time>2026-04-06T12:45:42.027Z</time></trkpt><trkpt lat="45.88870395677905" lon="10.730945579462114"><ele>662.0</ele><time>2026-04-06T12:45:43.027Z</time></trkpt><trkpt lat="45.88864594835964" lon="10.730990618339018"><ele>662.0</ele><time>2026-04-06T12:45:44.027Z</time></trkpt><trkpt lat="45.88860024091679" lon="10.731053860627496"><ele>662.0</ele><time>2026-04-06T12:45:45.027Z</time></trkpt><trkpt lat="45.88856561706077" lon="10.731156067652554"><ele>662.0</ele><time>2026-04-06T12:45:46.027Z</time></trkpt><trkpt lat="45.88855510081846" lon="10.731264738915712"><ele>662.0</ele><time>2026-04-06T12:45:47.027Z</time></trkpt><trkpt lat="45.888559782232704" lon="10.731376574607932"><ele>662.0</ele><time>2026-04-06T12:45:48.027Z</time></trkpt><trkpt lat="45.88855015133614" lon="10.731473447240516"><ele>662.0</ele><time>2026-04-06T12:45:49.027Z</time></trkpt><trkpt lat="45.88850966648124" lon="10.73156515055629"><ele>662.0</ele><time>2026-04-06T12:45:50.027Z</time></trkpt><trkpt lat="45.88846891989503" lon="10.731664405264308"><ele>661.4000000000001</ele><time>2026-04-06T12:45:51.027Z</time></trkpt><trkpt lat="45.88842610348542" lon="10.731761005054622"><ele>660.8000000000001</ele><time>2026-04-06T12:45:52.027Z</time></trkpt><trkpt lat="45.88839468700362" lon="10.731899382156636"><ele>660.2</ele><time>2026-04-06T12:45:53.027Z</time></trkpt><trkpt lat="45.88834118256601" lon="10.732045649290331"><ele>659.6</ele><time>2026-04-06T12:45:54.027Z</time></trkpt><trkpt lat="45.88827804494586" lon="10.732212567574114"><ele>659.0</ele><time>2026-04-06T12:45:55.027Z</time></trkpt><trkpt lat="45.88822129160736" lon="10.732420357421153"><ele>659.0</ele><time>2026-04-06T12:45:56.027Z</time></trkpt><trkpt lat="45.88808048728439" lon="10.732598487389659"><ele>659.0</ele><time>2026-04-06T12:45:57.027Z</time></trkpt><trkpt lat="45.8880227290652" lon="10.732738407517125"><ele>659.0</ele><time>2026-04-06T12:45:59.027Z</time></trkpt><trkpt lat="45.88794643155809" lon="10.73292173737093"><ele>659.0</ele><time>2026-04-06T12:46:00.027Z</time></trkpt><trkpt lat="45.887876607406575" lon="10.7330895140186"><ele>659.0</ele><time>2026-04-06T12:46:01.027Z</time></trkpt><trkpt lat="45.887814282352515" lon="10.73327875097101"><ele>659.0</ele><time>2026-04-06T12:46:02.027Z</time></trkpt><trkpt lat="45.88773383412325" lon="10.733465955209423"><ele>659.0</ele><time>2026-04-06T12:46:03.027Z</time></trkpt><trkpt lat="45.88765099086106" lon="10.733662278165397"><ele>658.0</ele><time>2026-04-06T12:46:04.027Z</time></trkpt><trkpt lat="45.88756586650067" lon="10.733869936548496"><ele>657.0</ele><time>2026-04-06T12:46:05.027Z</time></trkpt><trkpt lat="45.887476088915875" lon="10.734082285916"><ele>656.0</ele><time>2026-04-06T12:46:06.027Z</time></trkpt><trkpt lat="45.887390285802475" lon="10.734284731186632"><ele>657.0</ele><time>2026-04-06T12:46:07.027Z</time></trkpt><trkpt lat="45.887327838015516" lon="10.734425089202599"><ele>658.0</ele><time>2026-04-06T12:46:08.027Z</time></trkpt><trkpt lat="45.88727392025223" lon="10.734547639198132"><ele>659.0</ele><time>2026-04-06T12:46:09.027Z</time></trkpt><trkpt lat="45.8872234927643" lon="10.734677506668062"><ele>660.0</ele><time>2026-04-06T12:46:10.027Z</time></trkpt><trkpt lat="45.8871645796531" lon="10.734815294960441"><ele>661.0</ele><time>2026-04-06T12:46:11.027Z</time></trkpt><trkpt lat="45.887084659736274" lon="10.734941076176343"><ele>661.0</ele><time>2026-04-06T12:46:12.027Z</time></trkpt><trkpt lat="45.887003130638696" lon="10.735076360565682"><ele>661.0</ele><time>2026-04-06T12:46:13.027Z</time></trkpt><trkpt lat="45.886920119677576" lon="10.73521991606034"><ele>661.0</ele><time>2026-04-06T12:46:14.027Z</time></trkpt><trkpt lat="45.88684440625812" lon="10.735353523472387"><ele>661.0</ele><time>2026-04-06T12:46:15.027Z</time></trkpt><trkpt lat="45.88676946517772" lon="10.735496902957983"><ele>661.5999999999999</ele><time>2026-04-06T12:46:16.027Z</time></trkpt><trkpt lat="45.886718397861046" lon="10.735655655440633"><ele>662.2</ele><time>2026-04-06T12:46:17.027Z</time></trkpt><trkpt lat="45.88666657409853" lon="10.735800628975284"><ele>662.8</ele><time>2026-04-06T12:46:18.027Z</time></trkpt><trkpt lat="45.88660976953578" lon="10.735929902882582"><ele>663.4000000000001</ele><time>2026-04-06T12:46:19.027Z</time></trkpt><trkpt lat="45.88656643529255" lon="10.736053818421057"><ele>664.0</ele><time>2026-04-06T12:46:20.027Z</time></trkpt><trkpt lat="45.88652317094375" lon="10.736177534049844"><ele>668.0</ele><time>2026-04-06T12:46:21.027Z</time></trkpt><trkpt lat="45.88647814789019" lon="10.736306068042456"><ele>672.0</ele><time>2026-04-06T12:46:22.027Z</time></trkpt><trkpt lat="45.886454263895" lon="10.736418330771945"><ele>676.0</ele><time>2026-04-06T12:46:23.027Z</time></trkpt><trkpt lat="45.88640971374945" lon="10.736538335952359"><ele>680.0</ele><time>2026-04-06T12:46:25.027Z</time></trkpt><trkpt lat="45.88634971691282" lon="10.736674427171382"><ele>684.0</ele><time>2026-04-06T12:47:07.027Z</time></trkpt><trkpt lat="45.88631381297192" lon="10.736777685516811"><ele>688.4000000000001</ele><time>2026-04-06T12:47:08.027Z</time></trkpt><trkpt lat="45.88625706710204" lon="10.736941020812093"><ele>692.8</ele><time>2026-04-06T12:47:09.027Z</time></trkpt><trkpt lat="45.88621442617253" lon="10.73706435434158"><ele>697.2</ele><time>2026-04-06T12:47:10.027Z</time></trkpt><trkpt lat="45.886173927212226" lon="10.737179872748197"><ele>701.5999999999999</ele><time>2026-04-06T12:47:11.027Z</time></trkpt><trkpt lat="45.88612719005967" lon="10.737313184927839"><ele>706.0</ele><time>2026-04-06T12:47:12.027Z</time></trkpt><trkpt lat="45.886077904599304" lon="10.73745430642668"><ele>706.0</ele><time>2026-04-06T12:47:13.027Z</time></trkpt><trkpt lat="45.8860229952627" lon="10.737613229773867"><ele>706.0</ele><time>2026-04-06T12:47:14.027Z</time></trkpt><trkpt lat="45.885967180096465" lon="10.737781769359927"><ele>706.0</ele><time>2026-04-06T12:47:15.027Z</time></trkpt><trkpt lat="45.88592849146874" lon="10.737924898858907"><ele>706.0</ele><time>2026-04-06T12:47:16.027Z</time></trkpt><trkpt lat="45.885898754267345" lon="10.738064917282063"><ele>697.1999999999999</ele><time>2026-04-06T12:47:17.027Z</time></trkpt><trkpt lat="45.88588380288438" lon="10.738222551941801"><ele>688.4</ele><time>2026-04-06T12:47:18.027Z</time></trkpt><trkpt lat="45.88587770998437" lon="10.738358045105638"><ele>679.6</ele><time>2026-04-06T12:47:19.027Z</time></trkpt><trkpt lat="45.88589441282632" lon="10.738497102353715"><ele>670.8</ele><time>2026-04-06T12:47:20.027Z</time></trkpt><trkpt lat="45.88591104056971" lon="10.738641377635835"><ele>662.0</ele><time>2026-04-06T12:47:21.027Z</time></trkpt><trkpt lat="45.885914775096744" lon="10.738792579177982"><ele>672.8</ele><time>2026-04-06T12:47:22.027Z</time></trkpt><trkpt lat="45.885933548744624" lon="10.738940392765148"><ele>683.6</ele><time>2026-04-06T12:47:23.027Z</time></trkpt><trkpt lat="45.88594655746581" lon="10.739042816415656"><ele>694.4</ele><time>2026-04-06T12:47:24.027Z</time></trkpt><trkpt lat="45.885955018441095" lon="10.73914982309648"><ele>705.1999999999999</ele><time>2026-04-06T12:47:26.027Z</time></trkpt><trkpt lat="45.88597554899948" lon="10.739266093471311"><ele>716.0</ele><time>2026-04-06T12:48:13.027Z</time></trkpt><trkpt lat="45.88600466418153" lon="10.739487533522547"><ele>716.0</ele><time>2026-04-06T12:48:15.027Z</time></trkpt><trkpt lat="45.88602058853389" lon="10.739607057694412"><ele>716.0</ele><time>2026-04-06T12:48:16.027Z</time></trkpt><trkpt lat="45.88603447617948" lon="10.739714868919702"><ele>716.0</ele><time>2026-04-06T12:48:17.027Z</time></trkpt><trkpt lat="45.88605060210799" lon="10.739840521917243"><ele>716.0</ele><time>2026-04-06T12:48:18.027Z</time></trkpt><trkpt lat="45.8860722239436" lon="10.740007252882487"><ele>716.0</ele><time>2026-04-06T12:48:19.027Z</time></trkpt><trkpt lat="45.88609550156376" lon="10.740190093115372"><ele>714.5999999999999</ele><time>2026-04-06T12:48:20.027Z</time></trkpt><trkpt lat="45.88611465076046" lon="10.74034284272119"><ele>713.2</ele><time>2026-04-06T12:48:21.027Z</time></trkpt><trkpt lat="45.88612522298799" lon="10.74047810241598"><ele>711.8</ele><time>2026-04-06T12:48:22.027Z</time></trkpt><trkpt lat="45.886123434464096" lon="10.740626546262893"><ele>710.4000000000001</ele><time>2026-04-06T12:48:23.027Z</time></trkpt><trkpt lat="45.8861243036974" lon="10.740774643286327"><ele>709.0</ele><time>2026-04-06T12:48:24.027Z</time></trkpt><trkpt lat="45.886082678044666" lon="10.740945254932441"><ele>711.25</ele><time>2026-04-06T12:48:25.027Z</time></trkpt><trkpt lat="45.88604570588594" lon="10.741137084959236"><ele>713.5</ele><time>2026-04-06T12:48:26.027Z</time></trkpt><trkpt lat="45.886009821106924" lon="10.741315827010625"><ele>715.75</ele><time>2026-04-06T12:48:27.027Z</time></trkpt><trkpt lat="45.88597563019736" lon="10.741486132105134"><ele>718.0</ele><time>2026-04-06T12:48:28.027Z</time></trkpt><trkpt lat="45.88593956755217" lon="10.7416672911048"><ele>709.2</ele><time>2026-04-06T12:48:29.027Z</time></trkpt><trkpt lat="45.88590720521451" lon="10.741832351542197"><ele>700.4</ele><time>2026-04-06T12:48:30.027Z</time></trkpt><trkpt lat="45.88587568605905" lon="10.741993111380339"><ele>691.6</ele><time>2026-04-06T12:48:31.027Z</time></trkpt><trkpt lat="45.885846342884534" lon="10.742142463131108"><ele>682.8000000000001</ele><time>2026-04-06T12:48:32.027Z</time></trkpt><trkpt lat="45.88581783473574" lon="10.74228425955929"><ele>674.0</ele><time>2026-04-06T12:48:33.027Z</time></trkpt><trkpt lat="45.88578914822445" lon="10.742421772129118"><ele>674.0</ele><time>2026-04-06T12:48:34.027Z</time></trkpt><trkpt lat="45.88574853472479" lon="10.742567798020541"><ele>674.0</ele><time>2026-04-06T12:48:35.027Z</time></trkpt><trkpt lat="45.88568789987443" lon="10.74270689457836"><ele>674.0</ele><time>2026-04-06T12:48:36.027Z</time></trkpt><trkpt lat="45.88561129185767" lon="10.742833649365336"><ele>674.0</ele><time>2026-04-06T12:48:37.027Z</time></trkpt><trkpt lat="45.885527129112276" lon="10.74293211730474"><ele>674.0</ele><time>2026-04-06T12:48:38.027Z</time></trkpt><trkpt lat="45.885440058544" lon="10.743019002089454"><ele>671.0</ele><time>2026-04-06T12:48:39.027Z</time></trkpt><trkpt lat="45.88536161700186" lon="10.743089121561646"><ele>668.0</ele><time>2026-04-06T12:48:40.027Z</time></trkpt><trkpt lat="45.885294697923655" lon="10.743182062434592"><ele>665.0</ele><time>2026-04-06T12:48:41.027Z</time></trkpt><trkpt lat="45.8852214198721" lon="10.74323089646998"><ele>662.0</ele><time>2026-04-06T12:48:42.027Z</time></trkpt><trkpt lat="45.88515277466381" lon="10.743338606244864"><ele>659.0</ele><time>2026-04-06T12:48:44.027Z</time></trkpt><trkpt lat="45.88509155212711" lon="10.74338685598205"><ele>656.0</ele><time>2026-04-06T12:48:47.027Z</time></trkpt><trkpt lat="45.88503381847148" lon="10.743430864255162"><ele>656.0</ele><time>2026-04-06T12:48:52.027Z</time></trkpt><trkpt lat="45.88508320967858" lon="10.743364047113564"><ele>656.0</ele><time>2026-04-06T12:54:26.019Z</time></trkpt><trkpt lat="45.885008208808046" lon="10.743434622347703"><ele>656.0</ele><time>2026-04-06T12:54:47.019Z</time></trkpt><trkpt lat="45.885053172779486" lon="10.743540672387644"><ele>656.0</ele><time>2026-04-06T12:59:46.01Z</time></trkpt><trkpt lat="45.885065415040884" lon="10.743651795951394"><ele>656.0</ele><time>2026-04-06T12:59:48.01Z</time></trkpt><trkpt lat="45.88506117706087" lon="10.74375225976489"><ele>656.0</ele><time>2026-04-06T12:59:49.01Z</time></trkpt><trkpt lat="45.885074328341354" lon="10.743888090261452"><ele>665.1666666666666</ele><time>2026-04-06T12:59:50.01Z</time></trkpt><trkpt lat="45.88510006717631" lon="10.744024232478619"><ele>674.3333333333333</ele><time>2026-04-06T12:59:51.01Z</time></trkpt><trkpt lat="45.885121008960986" lon="10.744132919771744"><ele>683.5</ele><time>2026-04-06T12:59:52.01Z</time></trkpt><trkpt lat="45.88513648777616" lon="10.744230757565322"><ele>692.6666666666666</ele><time>2026-04-06T12:59:53.01Z</time></trkpt><trkpt lat="45.885153695709995" lon="10.744333833545118"><ele>701.8333333333334</ele><time>2026-04-06T12:59:54.01Z</time></trkpt><trkpt lat="45.88516666364507" lon="10.744435088096436"><ele>711.0</ele><time>2026-04-06T12:59:55.01Z</time></trkpt><trkpt lat="45.885176546649916" lon="10.744540007689867"><ele>713.1666666666666</ele><time>2026-04-06T12:59:56.01Z</time></trkpt><trkpt lat="45.88517470929321" lon="10.744639898029597"><ele>715.3333333333334</ele><time>2026-04-06T12:59:57.01Z</time></trkpt><trkpt lat="45.885168989918974" lon="10.74473666780878"><ele>717.5</ele><time>2026-04-06T12:59:58.01Z</time></trkpt><trkpt lat="45.88513949252586" lon="10.744830615665277"><ele>719.6666666666667</ele><time>2026-04-06T12:59:59.01Z</time></trkpt><trkpt lat="45.88511404948698" lon="10.745012154982343"><ele>721.8333333333334</ele><time>2026-04-06T13:00:01.01Z</time></trkpt><trkpt lat="45.885088434862055" lon="10.745113053265708"><ele>724.0</ele><time>2026-04-06T13:00:02.01Z</time></trkpt><trkpt lat="45.88506283984513" lon="10.74522956031193"><ele>713.4000000000001</ele><time>2026-04-06T13:00:03.01Z</time></trkpt><trkpt lat="45.88500945353477" lon="10.74533566429579"><ele>702.8</ele><time>2026-04-06T13:00:04.01Z</time></trkpt><trkpt lat="45.88496111124144" lon="10.745444834221182"><ele>692.2</ele><time>2026-04-06T13:00:05.01Z</time></trkpt><trkpt lat="45.88492144588081" lon="10.745566192587068"><ele>681.5999999999999</ele><time>2026-04-06T13:00:06.008Z</time></trkpt><trkpt lat="45.88486509969434" lon="10.74566740221161"><ele>671.0</ele><time>2026-04-06T13:00:07.008Z</time></trkpt><trkpt lat="45.8848127271848" lon="10.74577942938928"><ele>671.0</ele><time>2026-04-06T13:00:08.008Z</time></trkpt><trkpt lat="45.884765264123615" lon="10.745895921009529"><ele>671.0</ele><time>2026-04-06T13:00:09.008Z</time></trkpt><trkpt lat="45.884712416662566" lon="10.746015373371282"><ele>671.0</ele><time>2026-04-06T13:00:10.008Z</time></trkpt><trkpt lat="45.88466014678996" lon="10.746132302083044"><ele>671.0</ele><time>2026-04-06T13:00:11.008Z</time></trkpt><trkpt lat="45.884609272713874" lon="10.746251907094013"><ele>671.0</ele><time>2026-04-06T13:00:12.008Z</time></trkpt><trkpt lat="45.884552725281516" lon="10.746364851441518"><ele>670.8</ele><time>2026-04-06T13:00:13.008Z</time></trkpt><trkpt lat="45.88449076565931" lon="10.746483848430957"><ele>670.5999999999999</ele><time>2026-04-06T13:00:14.008Z</time></trkpt><trkpt lat="45.884425595683894" lon="10.746617563964046"><ele>670.4</ele><time>2026-04-06T13:00:15.008Z</time></trkpt><trkpt lat="45.88434830951168" lon="10.746739272947922"><ele>670.2</ele><time>2026-04-06T13:00:16.008Z</time></trkpt><trkpt lat="45.884277856159564" lon="10.74684270960471"><ele>670.0</ele><time>2026-04-06T13:00:17.008Z</time></trkpt><trkpt lat="45.88422044043679" lon="10.74692971581443"><ele>670.0</ele><time>2026-04-06T13:00:18.008Z</time></trkpt><trkpt lat="45.88415304188172" lon="10.747021685211793"><ele>670.0</ele><time>2026-04-06T13:00:19.008Z</time></trkpt><trkpt lat="45.884079249141536" lon="10.747104946186704"><ele>670.0</ele><time>2026-04-06T13:00:20.008Z</time></trkpt><trkpt lat="45.8840026868642" lon="10.747215172622875"><ele>670.0</ele><time>2026-04-06T13:00:21.008Z</time></trkpt><trkpt lat="45.883928957755344" lon="10.747323979255563"><ele>670.0</ele><time>2026-04-06T13:00:22.008Z</time></trkpt><trkpt lat="45.88384381729733" lon="10.747436547808556"><ele>670.0</ele><time>2026-04-06T13:00:23.008Z</time></trkpt><trkpt lat="45.88375617748953" lon="10.747560628723267"><ele>670.0</ele><time>2026-04-06T13:00:24.008Z</time></trkpt><trkpt lat="45.8836706219797" lon="10.747704586629816"><ele>670.0</ele><time>2026-04-06T13:00:25.008Z</time></trkpt><trkpt lat="45.88359275334903" lon="10.747865797800396"><ele>670.0</ele><time>2026-04-06T13:00:26.008Z</time></trkpt><trkpt lat="45.883522519449315" lon="10.748038048759842"><ele>668.5</ele><time>2026-04-06T13:00:27.008Z</time></trkpt><trkpt lat="45.883441088577236" lon="10.748193556160942"><ele>667.0</ele><time>2026-04-06T13:00:28.008Z</time></trkpt><trkpt lat="45.8833771540301" lon="10.748352636416138"><ele>665.5</ele><time>2026-04-06T13:00:29.008Z</time></trkpt><trkpt lat="45.8832914849215" lon="10.748474027611763"><ele>664.0</ele><time>2026-04-06T13:00:30.008Z</time></trkpt><trkpt lat="45.88318016381661" lon="10.74853397087809"><ele>669.25</ele><time>2026-04-06T13:00:31.008Z</time></trkpt><trkpt lat="45.88308767712885" lon="10.748623137874244"><ele>674.5</ele><time>2026-04-06T13:00:32.008Z</time></trkpt><trkpt lat="45.88299316497478" lon="10.748700626154536"><ele>679.75</ele><time>2026-04-06T13:00:33.008Z</time></trkpt><trkpt lat="45.8829177168217" lon="10.748827801491258"><ele>685.0</ele><time>2026-04-06T13:00:34.008Z</time></trkpt><trkpt lat="45.88286223417665" lon="10.748988044565285"><ele>685.0</ele><time>2026-04-06T13:00:35.008Z</time></trkpt><trkpt lat="45.882816986364446" lon="10.749147541976093"><ele>685.0</ele><time>2026-04-06T13:00:36.008Z</time></trkpt><trkpt lat="45.8827819177559" lon="10.749304869344327"><ele>685.0</ele><time>2026-04-06T13:00:37.008Z</time></trkpt><trkpt lat="45.88271997761176" lon="10.749428013896527"><ele>685.0</ele><time>2026-04-06T13:00:38.008Z</time></trkpt><trkpt lat="45.88263856752795" lon="10.749524696398831"><ele>685.0</ele><time>2026-04-06T13:00:39.008Z</time></trkpt><trkpt lat="45.88254272275832" lon="10.749608316860476"><ele>680.75</ele><time>2026-04-06T13:00:40.008Z</time></trkpt><trkpt lat="45.88242738707729" lon="10.749651545975025"><ele>676.5</ele><time>2026-04-06T13:00:41.008Z</time></trkpt><trkpt lat="45.882305618619824" lon="10.749657025655537"><ele>672.25</ele><time>2026-04-06T13:00:42.008Z</time></trkpt><trkpt lat="45.88218038173592" lon="10.749648971443522"><ele>668.0</ele><time>2026-04-06T13:00:43.008Z</time></trkpt><trkpt lat="45.882057570758874" lon="10.749625047721661"><ele>668.0</ele><time>2026-04-06T13:00:44.008Z</time></trkpt><trkpt lat="45.881947702439604" lon="10.74962846973992"><ele>668.0</ele><time>2026-04-06T13:00:45.008Z</time></trkpt><trkpt lat="45.88184268270471" lon="10.749667250568757"><ele>668.0</ele><time>2026-04-06T13:00:46.008Z</time></trkpt><trkpt lat="45.88173617871096" lon="10.74972915442261"><ele>668.0</ele><time>2026-04-06T13:00:47.008Z</time></trkpt><trkpt lat="45.881637551776166" lon="10.749823990455301"><ele>667.0</ele><time>2026-04-06T13:00:48.008Z</time></trkpt><trkpt lat="45.881543034377366" lon="10.749940789697469"><ele>666.0</ele><time>2026-04-06T13:00:49.008Z</time></trkpt><trkpt lat="45.8814443246643" lon="10.75005371952459"><ele>665.0</ele><time>2026-04-06T13:00:50.008Z</time></trkpt><trkpt lat="45.88134044662703" lon="10.750166355442753"><ele>664.0</ele><time>2026-04-06T13:00:51.008Z</time></trkpt><trkpt lat="45.881236300869716" lon="10.750284104610751"><ele>664.0</ele><time>2026-04-06T13:00:52.008Z</time></trkpt><trkpt lat="45.88113111796072" lon="10.750400124933511"><ele>664.0</ele><time>2026-04-06T13:00:53.008Z</time></trkpt><trkpt lat="45.881028946046" lon="10.750520005936337"><ele>664.0</ele><time>2026-04-06T13:00:54.008Z</time></trkpt><trkpt lat="45.880928163664926" lon="10.750637214868293"><ele>664.0</ele><time>2026-04-06T13:00:55.008Z</time></trkpt><trkpt lat="45.88083639890464" lon="10.75074393293209"><ele>662.5</ele><time>2026-04-06T13:00:56.008Z</time></trkpt><trkpt lat="45.88075957817321" lon="10.750863418975616"><ele>661.0</ele><time>2026-04-06T13:00:57.008Z</time></trkpt><trkpt lat="45.880682178329394" lon="10.75097944620069"><ele>659.5</ele><time>2026-04-06T13:00:58.008Z</time></trkpt><trkpt lat="45.88060359083056" lon="10.751095946056301"><ele>658.0</ele><time>2026-04-06T13:00:59.008Z</time></trkpt><trkpt lat="45.880525071707346" lon="10.751217341317165"><ele>658.0</ele><time>2026-04-06T13:01:00.008Z</time></trkpt><trkpt lat="45.880440653552625" lon="10.751322240049598"><ele>658.0</ele><time>2026-04-06T13:01:01.008Z</time></trkpt><trkpt lat="45.88036706308265" lon="10.751424129206846"><ele>658.0</ele><time>2026-04-06T13:01:02.008Z</time></trkpt><trkpt lat="45.88030272153386" lon="10.75151828437483"><ele>658.0</ele><time>2026-04-06T13:01:03.008Z</time></trkpt><trkpt lat="45.88024958106859" lon="10.75162008394653"><ele>658.0</ele><time>2026-04-06T13:01:04.008Z</time></trkpt><trkpt lat="45.880192384689174" lon="10.751700425908261"><ele>658.0</ele><time>2026-04-06T13:01:05.008Z</time></trkpt><trkpt lat="45.880150293971276" lon="10.751805524180392"><ele>658.0</ele><time>2026-04-06T13:01:06.008Z</time></trkpt><trkpt lat="45.88010632137346" lon="10.751922748781135"><ele>658.0</ele><time>2026-04-06T13:01:07.008Z</time></trkpt><trkpt lat="45.88011116524662" lon="10.752056468978179"><ele>658.0</ele><time>2026-04-06T13:01:08.008Z</time></trkpt><trkpt lat="45.88012774296308" lon="10.752206924477614"><ele>658.0</ele><time>2026-04-06T13:01:09.008Z</time></trkpt><trkpt lat="45.88014084431416" lon="10.752363242135177"><ele>658.5</ele><time>2026-04-06T13:01:10.008Z</time></trkpt><trkpt lat="45.88016291131288" lon="10.752519960873586"><ele>659.0</ele><time>2026-04-06T13:01:11.008Z</time></trkpt><trkpt lat="45.88017718810301" lon="10.752684769114337"><ele>659.5</ele><time>2026-04-06T13:01:12.008Z</time></trkpt><trkpt lat="45.88019096787411" lon="10.752850534541874"><ele>660.0</ele><time>2026-04-06T13:01:13.008Z</time></trkpt><trkpt lat="45.880190196801756" lon="10.753021479410876"><ele>661.75</ele><time>2026-04-06T13:01:14.008Z</time></trkpt><trkpt lat="45.880179537273605" lon="10.753203973886832"><ele>663.5</ele><time>2026-04-06T13:01:15.008Z</time></trkpt><trkpt lat="45.880146648927294" lon="10.75337307495977"><ele>665.25</ele><time>2026-04-06T13:01:16.008Z</time></trkpt><trkpt lat="45.88012554026564" lon="10.753540024211562"><ele>667.0</ele><time>2026-04-06T13:01:17.008Z</time></trkpt><trkpt lat="45.880120051428314" lon="10.753680446062239"><ele>665.6</ele><time>2026-04-06T13:01:18.008Z</time></trkpt><trkpt lat="45.88010450509979" lon="10.753813104910968"><ele>664.2</ele><time>2026-04-06T13:01:19.008Z</time></trkpt><trkpt lat="45.880076336365185" lon="10.753934093893713"><ele>662.8</ele><time>2026-04-06T13:01:20.008Z</time></trkpt><trkpt lat="45.8800535975829" lon="10.754072308335306"><ele>661.4</ele><time>2026-04-06T13:01:21.008Z</time></trkpt><trkpt lat="45.8800483068876" lon="10.754233130328785"><ele>660.0</ele><time>2026-04-06T13:01:22.008Z</time></trkpt><trkpt lat="45.88003202343412" lon="10.754379914925414"><ele>658.8</ele><time>2026-04-06T13:01:23.008Z</time></trkpt><trkpt lat="45.88001048812943" lon="10.754529646810447"><ele>657.6</ele><time>2026-04-06T13:01:24.008Z</time></trkpt><trkpt lat="45.879998935608434" lon="10.754675379180473"><ele>656.4000000000001</ele><time>2026-04-06T13:01:25.008Z</time></trkpt><trkpt lat="45.88000560134455" lon="10.754821371321327"><ele>655.2</ele><time>2026-04-06T13:01:26.008Z</time></trkpt><trkpt lat="45.88004839149605" lon="10.754951644459213"><ele>654.0</ele><time>2026-04-06T13:01:27.008Z</time></trkpt><trkpt lat="45.880119892244174" lon="10.755065390045061"><ele>657.0</ele><time>2026-04-06T13:01:28.008Z</time></trkpt><trkpt lat="45.880203863356726" lon="10.755165175027372"><ele>660.0</ele><time>2026-04-06T13:01:29.008Z</time></trkpt><trkpt lat="45.88029947557272" lon="10.75528761401157"><ele>663.0</ele><time>2026-04-06T13:01:30.008Z</time></trkpt><trkpt lat="45.88040862918013" lon="10.75539348498697"><ele>666.0</ele><time>2026-04-06T13:01:31.008Z</time></trkpt><trkpt lat="45.880507433438765" lon="10.755525356096832"><ele>666.0</ele><time>2026-04-06T13:01:32.008Z</time></trkpt><trkpt lat="45.88060275329568" lon="10.75567521678325"><ele>666.0</ele><time>2026-04-06T13:01:33.008Z</time></trkpt><trkpt lat="45.88068428678907" lon="10.755832110954618"><ele>666.0</ele><time>2026-04-06T13:01:34.008Z</time></trkpt><trkpt lat="45.88074854929766" lon="10.755992976270342"><ele>666.0</ele><time>2026-04-06T13:01:35.008Z</time></trkpt><trkpt lat="45.88080126471956" lon="10.756163070670551"><ele>665.5</ele><time>2026-04-06T13:01:36.008Z</time></trkpt><trkpt lat="45.8808384191679" lon="10.756345967258962"><ele>665.0</ele><time>2026-04-06T13:01:37.008Z</time></trkpt><trkpt lat="45.88086172274295" lon="10.75653770898984"><ele>664.5</ele><time>2026-04-06T13:01:38.008Z</time></trkpt><trkpt lat="45.88087196486261" lon="10.756726640673632"><ele>664.0</ele><time>2026-04-06T13:01:39.008Z</time></trkpt><trkpt lat="45.88087659998105" lon="10.756918418142837"><ele>664.0</ele><time>2026-04-06T13:01:40.008Z</time></trkpt><trkpt lat="45.880881320178844" lon="10.757105760381966"><ele>664.0</ele><time>2026-04-06T13:01:41.008Z</time></trkpt><trkpt lat="45.88088303280759" lon="10.757279058584517"><ele>664.0</ele><time>2026-04-06T13:01:42.008Z</time></trkpt><trkpt lat="45.880877621111196" lon="10.757457496708613"><ele>664.0</ele><time>2026-04-06T13:01:43.008Z</time></trkpt><trkpt lat="45.88084944226028" lon="10.757632471033137"><ele>664.75</ele><time>2026-04-06T13:01:44.008Z</time></trkpt><trkpt lat="45.880800181852855" lon="10.757798335829388"><ele>665.5</ele><time>2026-04-06T13:01:45.008Z</time></trkpt><trkpt lat="45.88073573624931" lon="10.757964137775506"><ele>666.25</ele><time>2026-04-06T13:01:46.008Z</time></trkpt><trkpt lat="45.880657776665466" lon="10.75812474462715"><ele>667.0</ele><time>2026-04-06T13:01:47.008Z</time></trkpt><trkpt lat="45.88057726822177" lon="10.758272461941495"><ele>667.0</ele><time>2026-04-06T13:01:48.008Z</time></trkpt><trkpt lat="45.880515652915065" lon="10.75843417594585"><ele>667.0</ele><time>2026-04-06T13:01:49.008Z</time></trkpt><trkpt lat="45.880475043963735" lon="10.758610324750416"><ele>667.0</ele><time>2026-04-06T13:01:50.008Z</time></trkpt><trkpt lat="45.880426233725025" lon="10.758807487531527"><ele>667.0</ele><time>2026-04-06T13:01:51.008Z</time></trkpt><trkpt lat="45.88040363204275" lon="10.759008664009352"><ele>673.75</ele><time>2026-04-06T13:01:52.008Z</time></trkpt><trkpt lat="45.88038940513062" lon="10.759215546089179"><ele>680.5</ele><time>2026-04-06T13:01:53.008Z</time></trkpt><trkpt lat="45.88036776093791" lon="10.759401992271215"><ele>687.25</ele><time>2026-04-06T13:01:54.008Z</time></trkpt><trkpt lat="45.88033074190636" lon="10.759600778178429"><ele>694.0</ele><time>2026-04-06T13:01:55.008Z</time></trkpt><trkpt lat="45.88027993463002" lon="10.759809464904588"><ele>697.5</ele><time>2026-04-06T13:01:56.008Z</time></trkpt><trkpt lat="45.88024626226296" lon="10.760012709521053"><ele>701.0</ele><time>2026-04-06T13:01:57.008Z</time></trkpt><trkpt lat="45.88019752918306" lon="10.760183832607282"><ele>704.5</ele><time>2026-04-06T13:01:58.008Z</time></trkpt><trkpt lat="45.88014603281037" lon="10.760353980050763"><ele>708.0</ele><time>2026-04-06T13:01:59.008Z</time></trkpt><trkpt lat="45.88009164254264" lon="10.76051376866964"><ele>708.0</ele><time>2026-04-06T13:02:00.008Z</time></trkpt><trkpt lat="45.88002825468623" lon="10.76066439674151"><ele>708.0</ele><time>2026-04-06T13:02:01.008Z</time></trkpt><trkpt lat="45.87992946961184" lon="10.760769685160355"><ele>708.0</ele><time>2026-04-06T13:02:02.008Z</time></trkpt><trkpt lat="45.879844126101425" lon="10.760896539713832"><ele>708.0</ele><time>2026-04-06T13:02:03.008Z</time></trkpt><trkpt lat="45.87974467981496" lon="10.760999097712142"><ele>707.0</ele><time>2026-04-06T13:02:04.008Z</time></trkpt><trkpt lat="45.879650259147525" lon="10.761105341206832"><ele>706.0</ele><time>2026-04-06T13:02:05.008Z</time></trkpt><trkpt lat="45.87956673972133" lon="10.761201918941726"><ele>705.0</ele><time>2026-04-06T13:02:06.008Z</time></trkpt><trkpt lat="45.87949000718513" lon="10.761295242318889"><ele>704.0</ele><time>2026-04-06T13:02:07.008Z</time></trkpt><trkpt lat="45.879431977387554" lon="10.761393592792837"><ele>703.0</ele><time>2026-04-06T13:02:08.008Z</time></trkpt><trkpt lat="45.87938469940943" lon="10.76149909520832"><ele>703.0</ele><time>2026-04-06T13:02:09.008Z</time></trkpt><trkpt lat="45.87936973836443" lon="10.761616845734117"><ele>703.0</ele><time>2026-04-06T13:02:10.008Z</time></trkpt><trkpt lat="45.8793570616713" lon="10.761728127461518"><ele>703.0</ele><time>2026-04-06T13:02:11.008Z</time></trkpt><trkpt lat="45.87936241772036" lon="10.761838368272995"><ele>703.0</ele><time>2026-04-06T13:02:12.002Z</time></trkpt><trkpt lat="45.87937616598066" lon="10.762037413122972"><ele>703.0</ele><time>2026-04-06T13:02:14.002Z</time></trkpt><trkpt lat="45.879368501811136" lon="10.762155036199726"><ele>703.8</ele><time>2026-04-06T13:02:15.002Z</time></trkpt><trkpt lat="45.87935510624003" lon="10.762278253863986"><ele>704.5999999999999</ele><time>2026-04-06T13:02:16.002Z</time></trkpt><trkpt lat="45.879326885763085" lon="10.762406354701714"><ele>705.4000000000001</ele><time>2026-04-06T13:02:17.002Z</time></trkpt><trkpt lat="45.879266828311145" lon="10.762533259968373"><ele>706.2</ele><time>2026-04-06T13:02:18.002Z</time></trkpt><trkpt lat="45.87918834040707" lon="10.762640255633473"><ele>707.0</ele><time>2026-04-06T13:02:19.002Z</time></trkpt><trkpt lat="45.87910110634858" lon="10.762714478312814"><ele>709.2</ele><time>2026-04-06T13:02:20.002Z</time></trkpt><trkpt lat="45.87899715898741" lon="10.762755396244598"><ele>711.4000000000001</ele><time>2026-04-06T13:02:21.002Z</time></trkpt><trkpt lat="45.87887787689313" lon="10.762794374268962"><ele>713.5999999999999</ele><time>2026-04-06T13:02:22.002Z</time></trkpt><trkpt lat="45.87877646177325" lon="10.762832877011085"><ele>715.8</ele><time>2026-04-06T13:02:23.002Z</time></trkpt><trkpt lat="45.87869039698002" lon="10.762865466621525"><ele>718.0</ele><time>2026-04-06T13:02:24.002Z</time></trkpt><trkpt lat="45.878612753231856" lon="10.762894867498906"><ele>718.0</ele><time>2026-04-06T13:02:25.001Z</time></trkpt><trkpt lat="45.87852745519755" lon="10.76292716873107"><ele>718.0</ele><time>2026-04-06T13:02:26.001Z</time></trkpt><trkpt lat="45.87843547808431" lon="10.76296199711072"><ele>718.0</ele><time>2026-04-06T13:02:27.001Z</time></trkpt><trkpt lat="45.878343278643875" lon="10.762996909722043"><ele>718.0</ele><time>2026-04-06T13:02:28.001Z</time></trkpt><trkpt lat="45.878266440254315" lon="10.7630244434442"><ele>718.0</ele><time>2026-04-06T13:02:29.001Z</time></trkpt><trkpt lat="45.878181279662265" lon="10.763054850798673"><ele>718.0</ele><time>2026-04-06T13:02:30.001Z</time></trkpt><trkpt lat="45.8781098111827" lon="10.763082708837059"><ele>706.3333333333334</ele><time>2026-04-06T13:02:31.001Z</time></trkpt><trkpt lat="45.8780445297606" lon="10.76312097721527"><ele>694.6666666666667</ele><time>2026-04-06T13:02:32.001Z</time></trkpt><trkpt lat="45.87799210217577" lon="10.763174284585668"><ele>683.0</ele><time>2026-04-06T13:02:33.001Z</time></trkpt><trkpt lat="45.877952924439334" lon="10.76327422943709"><ele>671.3333333333334</ele><time>2026-04-06T13:02:34.001Z</time></trkpt><trkpt lat="45.87794229429186" lon="10.763368254951756"><ele>659.6666666666666</ele><time>2026-04-06T13:02:35.001Z</time></trkpt><trkpt lat="45.877995568254086" lon="10.763519448442624"><ele>648.0</ele><time>2026-04-06T13:02:37.001Z</time></trkpt><trkpt lat="45.878080542305234" lon="10.763622007482622"><ele>648.0</ele><time>2026-04-06T13:02:39.001Z</time></trkpt><trkpt lat="45.87813239191385" lon="10.763673657726919"><ele>648.0</ele><time>2026-04-06T13:02:41.001Z</time></trkpt><trkpt lat="45.87817371013201" lon="10.763752966920956"><ele>648.0</ele><time>2026-04-06T13:04:40Z</time></trkpt><trkpt lat="45.87828493470655" lon="10.76377520405468"><ele>648.0</ele><time>2026-04-06T13:04:42Z</time></trkpt><trkpt lat="45.878373782982784" lon="10.763837262041056"><ele>648.0</ele><time>2026-04-06T13:04:43Z</time></trkpt><trkpt lat="45.87850356463132" lon="10.763957722995276"><ele>659.5999999999999</ele><time>2026-04-06T13:04:44Z</time></trkpt><trkpt lat="45.87862603368261" lon="10.764057593749456"><ele>671.1999999999999</ele><time>2026-04-06T13:04:45Z</time></trkpt><trkpt lat="45.878723486178686" lon="10.764135734715373"><ele>682.8</ele><time>2026-04-06T13:04:46Z</time></trkpt><trkpt lat="45.878805276107045" lon="10.764210939875253"><ele>694.4</ele><time>2026-04-06T13:04:47Z</time></trkpt><trkpt lat="45.87888276986" lon="10.76427817416156"><ele>706.0</ele><time>2026-04-06T13:04:48Z</time></trkpt><trkpt lat="45.878954677019834" lon="10.764333999945897"><ele>706.0</ele><time>2026-04-06T13:04:49Z</time></trkpt><trkpt lat="45.87901639972961" lon="10.764406901717107"><ele>706.0</ele><time>2026-04-06T13:04:50Z</time></trkpt><trkpt lat="45.87907434861204" lon="10.764509317277108"><ele>706.0</ele><time>2026-04-06T13:04:51Z</time></trkpt><trkpt lat="45.879115298999466" lon="10.764650788697375"><ele>706.0</ele><time>2026-04-06T13:04:52Z</time></trkpt><trkpt lat="45.87913134545761" lon="10.764797817021368"><ele>706.0</ele><time>2026-04-06T13:04:53Z</time></trkpt><trkpt lat="45.87912554672429" lon="10.764961493268627"><ele>706.0</ele><time>2026-04-06T13:04:54Z</time></trkpt><trkpt lat="45.879070561462264" lon="10.765110583910218"><ele>706.0</ele><time>2026-04-06T13:04:55Z</time></trkpt><trkpt lat="45.87901407968512" lon="10.765228401275067"><ele>706.0</ele><time>2026-04-06T13:04:56Z</time></trkpt><trkpt lat="45.878967747385495" lon="10.765361399686105"><ele>706.0</ele><time>2026-04-06T13:04:57Z</time></trkpt><trkpt lat="45.878921494759425" lon="10.765488111760362"><ele>706.0</ele><time>2026-04-06T13:04:58Z</time></trkpt><trkpt lat="45.878894515881456" lon="10.765609299703357"><ele>706.0</ele><time>2026-04-06T13:04:59Z</time></trkpt><trkpt lat="45.878874127421376" lon="10.765741082289177"><ele>706.0</ele><time>2026-04-06T13:05:00Z</time></trkpt><trkpt lat="45.878844875763946" lon="10.765877462301804"><ele>706.0</ele><time>2026-04-06T13:05:01Z</time></trkpt><trkpt lat="45.87882815896622" lon="10.766030602345285"><ele>706.0</ele><time>2026-04-06T13:05:02Z</time></trkpt><trkpt lat="45.87880945722023" lon="10.766201925454657"><ele>706.0</ele><time>2026-04-06T13:05:03Z</time></trkpt><trkpt lat="45.87879448720589" lon="10.766337307698574"><ele>706.0</ele><time>2026-04-06T13:05:04Z</time></trkpt><trkpt lat="45.87877285021693" lon="10.766489715503791"><ele>706.0</ele><time>2026-04-06T13:05:05Z</time></trkpt><trkpt lat="45.87874311703877" lon="10.766628282548629"><ele>706.0</ele><time>2026-04-06T13:05:06Z</time></trkpt><trkpt lat="45.87869470609962" lon="10.76673950314626"><ele>706.0</ele><time>2026-04-06T13:05:07Z</time></trkpt><trkpt lat="45.87863558639537" lon="10.766838752562016"><ele>706.0</ele><time>2026-04-06T13:05:08Z</time></trkpt><trkpt lat="45.87858900826214" lon="10.766951700339462"><ele>706.0</ele><time>2026-04-06T13:05:09Z</time></trkpt><trkpt lat="45.878519933789235" lon="10.767036663693396"><ele>706.0</ele><time>2026-04-06T13:05:10Z</time></trkpt><trkpt lat="45.87845045548057" lon="10.767148616539469"><ele>706.0</ele><time>2026-04-06T13:05:11Z</time></trkpt><trkpt lat="45.878382369079674" lon="10.767284804493618"><ele>706.0</ele><time>2026-04-06T13:05:12Z</time></trkpt><trkpt lat="45.87831762693677" lon="10.767447329616772"><ele>706.0</ele><time>2026-04-06T13:05:13Z</time></trkpt><trkpt lat="45.878272320429254" lon="10.767609553669866"><ele>706.0</ele><time>2026-04-06T13:05:14Z</time></trkpt><trkpt lat="45.87823163891638" lon="10.767763742034774"><ele>706.0</ele><time>2026-04-06T13:05:15Z</time></trkpt><trkpt lat="45.878190870742195" lon="10.767937400440056"><ele>706.0</ele><time>2026-04-06T13:05:16Z</time></trkpt><trkpt lat="45.87813313781807" lon="10.768114283066913"><ele>706.0</ele><time>2026-04-06T13:05:17Z</time></trkpt><trkpt lat="45.878035173449675" lon="10.768255420560688"><ele>706.0</ele><time>2026-04-06T13:05:18Z</time></trkpt><trkpt lat="45.87792851929341" lon="10.768363576352737"><ele>706.0</ele><time>2026-04-06T13:05:19Z</time></trkpt><trkpt lat="45.87781060848321" lon="10.768444310560026"><ele>706.0</ele><time>2026-04-06T13:05:20Z</time></trkpt><trkpt lat="45.877700135402854" lon="10.768559783243502"><ele>706.0</ele><time>2026-04-06T13:05:21Z</time></trkpt><trkpt lat="45.877563374306234" lon="10.768633214068455"><ele>706.0</ele><time>2026-04-06T13:05:22Z</time></trkpt><trkpt lat="45.87743623537294" lon="10.768723275945723"><ele>706.0</ele><time>2026-04-06T13:05:23Z</time></trkpt><trkpt lat="45.877309729138055" lon="10.768818414106375"><ele>706.0</ele><time>2026-04-06T13:05:24Z</time></trkpt><trkpt lat="45.87718525257392" lon="10.768881926071531"><ele>706.0</ele><time>2026-04-06T13:05:25Z</time></trkpt><trkpt lat="45.87705772581537" lon="10.76892907614363"><ele>706.0</ele><time>2026-04-06T13:05:26Z</time></trkpt><trkpt lat="45.87691539942285" lon="10.768932990948834"><ele>706.0</ele><time>2026-04-06T13:05:27Z</time></trkpt><trkpt lat="45.87677425208329" lon="10.76891784000864"><ele>706.0</ele><time>2026-04-06T13:05:28Z</time></trkpt><trkpt lat="45.87664431605569" lon="10.768877725493484"><ele>706.0</ele><time>2026-04-06T13:05:29Z</time></trkpt><trkpt lat="45.876509048615574" lon="10.768817484739222"><ele>706.0</ele><time>2026-04-06T13:05:30Z</time></trkpt><trkpt lat="45.87637450554483" lon="10.768736100803077"><ele>706.0</ele><time>2026-04-06T13:05:31Z</time></trkpt><trkpt lat="45.87626060953581" lon="10.768630966773879"><ele>706.0</ele><time>2026-04-06T13:05:32Z</time></trkpt><trkpt lat="45.87614156197428" lon="10.768503861702817"><ele>706.0</ele><time>2026-04-06T13:05:33Z</time></trkpt><trkpt lat="45.876047167184474" lon="10.768381655502305"><ele>706.0</ele><time>2026-04-06T13:05:34Z</time></trkpt><trkpt lat="45.87595388047299" lon="10.768269565599706"><ele>706.0</ele><time>2026-04-06T13:05:35Z</time></trkpt><trkpt lat="45.875863460882115" lon="10.768176032816339"><ele>706.0</ele><time>2026-04-06T13:05:36Z</time></trkpt><trkpt lat="45.87580392893079" lon="10.768049076121608"><ele>706.0</ele><time>2026-04-06T13:05:37Z</time></trkpt><trkpt lat="45.87572209376111" lon="10.767934414370522"><ele>694.4</ele><time>2026-04-06T13:05:38Z</time></trkpt><trkpt lat="45.87565110787882" lon="10.767808805330917"><ele>682.8</ele><time>2026-04-06T13:05:39Z</time></trkpt><trkpt lat="45.875579065606274" lon="10.767697611901557"><ele>671.1999999999999</ele><time>2026-04-06T13:05:40Z</time></trkpt><trkpt lat="45.87551111618759" lon="10.767577253453707"><ele>659.5999999999999</ele><time>2026-04-06T13:05:41Z</time></trkpt><trkpt lat="45.87544944302444" lon="10.767445965179567"><ele>648.0</ele><time>2026-04-06T13:05:42Z</time></trkpt><trkpt lat="45.875397775656204" lon="10.767293411672044"><ele>648.0</ele><time>2026-04-06T13:05:43Z</time></trkpt><trkpt lat="45.87535849534851" lon="10.767134225141236"><ele>648.0</ele><time>2026-04-06T13:05:44Z</time></trkpt><trkpt lat="45.87532770564713" lon="10.766981643258177"><ele>648.0</ele><time>2026-04-06T13:05:45Z</time></trkpt><trkpt lat="45.87529575019581" lon="10.766832403011648"><ele>648.0</ele><time>2026-04-06T13:05:46Z</time></trkpt><trkpt lat="45.875258954703874" lon="10.766690434492023"><ele>648.0</ele><time>2026-04-06T13:05:47Z</time></trkpt><trkpt lat="45.875223681361554" lon="10.76655477093709"><ele>648.0</ele><time>2026-04-06T13:05:48Z</time></trkpt><trkpt lat="45.87518128782684" lon="10.766420620046855"><ele>648.0</ele><time>2026-04-06T13:05:49Z</time></trkpt><trkpt lat="45.87512370479185" lon="10.76630188315098"><ele>648.0</ele><time>2026-04-06T13:05:50Z</time></trkpt><trkpt lat="45.87505774023351" lon="10.766205287643599"><ele>648.0</ele><time>2026-04-06T13:05:51Z</time></trkpt><trkpt lat="45.87498352589514" lon="10.766126760711087"><ele>648.0</ele><time>2026-04-06T13:05:52Z</time></trkpt><trkpt lat="45.87491085394273" lon="10.76607680912772"><ele>648.0</ele><time>2026-04-06T13:05:53Z</time></trkpt><trkpt lat="45.87484805993627" lon="10.76604549126042"><ele>648.0</ele><time>2026-04-06T13:05:54Z</time></trkpt><trkpt lat="45.874718527931705" lon="10.766012106458371"><ele>648.0</ele><time>2026-04-06T13:05:56Z</time></trkpt><trkpt lat="45.874642945255815" lon="10.766007688004928"><ele>648.0</ele><time>2026-04-06T13:05:57Z</time></trkpt><trkpt lat="45.874573099045676" lon="10.766017854086773"><ele>648.0</ele><time>2026-04-06T13:05:58Z</time></trkpt><trkpt lat="45.87451042496794" lon="10.76604224349301"><ele>648.0</ele><time>2026-04-06T13:05:59Z</time></trkpt><trkpt lat="45.87439233003306" lon="10.766115256939308"><ele>648.0</ele><time>2026-04-06T13:06:01Z</time></trkpt><trkpt lat="45.87432861065425" lon="10.766169720910884"><ele>648.0</ele><time>2026-04-06T13:06:02Z</time></trkpt><trkpt lat="45.87426174453964" lon="10.766224831200777"><ele>648.0</ele><time>2026-04-06T13:06:03Z</time></trkpt><trkpt lat="45.87419344352493" lon="10.76626992742859"><ele>648.0</ele><time>2026-04-06T13:06:04Z</time></trkpt><trkpt lat="45.87412395870886" lon="10.76631800119895"><ele>648.0</ele><time>2026-04-06T13:06:05Z</time></trkpt><trkpt lat="45.87405443326245" lon="10.766376314751348"><ele>648.0</ele><time>2026-04-06T13:06:06Z</time></trkpt><trkpt lat="45.873993778335006" lon="10.766433720931447"><ele>648.0</ele><time>2026-04-06T13:06:07Z</time></trkpt><trkpt lat="45.87388214993429" lon="10.766503555754998"><ele>648.0</ele><time>2026-04-06T13:06:09Z</time></trkpt><trkpt lat="45.87377873517243" lon="10.766599640600747"><ele>648.0</ele><time>2026-04-06T13:06:11Z</time></trkpt><trkpt lat="45.873670282816576" lon="10.766700981447796"><ele>648.0</ele><time>2026-04-06T13:06:13Z</time></trkpt><trkpt lat="45.87355986348864" lon="10.76675871123565"><ele>648.0</ele><time>2026-04-06T13:06:15Z</time></trkpt><trkpt lat="45.87349848888297" lon="10.766734517966633"><ele>648.0</ele><time>2026-04-06T13:06:16Z</time></trkpt><trkpt lat="45.87341082667798" lon="10.766636702114935"><ele>648.0</ele><time>2026-04-06T13:06:18Z</time></trkpt><trkpt lat="45.87338648844479" lon="10.766498124018977"><ele>648.0</ele><time>2026-04-06T13:06:20Z</time></trkpt><trkpt lat="45.87344034705472" lon="10.766404568980962"><ele>648.0</ele><time>2026-04-06T13:06:21Z</time></trkpt><trkpt lat="45.87347380481313" lon="10.766325743118776"><ele>648.0</ele><time>2026-04-06T13:06:22Z</time></trkpt><trkpt lat="45.873533326183626" lon="10.76617682089976"><ele>648.0</ele><time>2026-04-06T13:06:23.999Z</time></trkpt><trkpt lat="45.87358426921854" lon="10.76602030608946"><ele>648.0</ele><time>2026-04-06T13:06:25.999Z</time></trkpt><trkpt lat="45.87360702533412" lon="10.765924976509956"><ele>648.0</ele><time>2026-04-06T13:06:26.999Z</time></trkpt><trkpt lat="45.87363468175388" lon="10.765837440222455"><ele>648.0</ele><time>2026-04-06T13:06:27.999Z</time></trkpt><trkpt lat="45.873666926714144" lon="10.76574629442854"><ele>648.0</ele><time>2026-04-06T13:06:28.999Z</time></trkpt><trkpt lat="45.87369437540721" lon="10.76565055393475"><ele>648.0</ele><time>2026-04-06T13:06:29.999Z</time></trkpt><trkpt lat="45.87375190368683" lon="10.765492384765018"><ele>648.0</ele><time>2026-04-06T13:06:31.999Z</time></trkpt><trkpt lat="45.87379296646258" lon="10.765370979057167"><ele>648.0</ele><time>2026-04-06T13:06:32.999Z</time></trkpt><trkpt lat="45.873806547550984" lon="10.765247389587623"><ele>648.0</ele><time>2026-04-06T13:06:33.999Z</time></trkpt><trkpt lat="45.87383137780735" lon="10.76513946883846"><ele>648.0</ele><time>2026-04-06T13:06:34.999Z</time></trkpt><trkpt lat="45.87384963769997" lon="10.76504494619387"><ele>648.0</ele><time>2026-04-06T13:06:35.999Z</time></trkpt><trkpt lat="45.87385395732176" lon="10.764948332148846"><ele>648.0</ele><time>2026-04-06T13:06:36.999Z</time></trkpt><trkpt lat="45.87384422945738" lon="10.764850237760147"><ele>648.0</ele><time>2026-04-06T13:06:37.999Z</time></trkpt><trkpt lat="45.87377647996337" lon="10.764680332590316"><ele>648.0</ele><time>2026-04-06T13:06:39.999Z</time></trkpt><trkpt lat="45.87372279962783" lon="10.764600065734953"><ele>648.0</ele><time>2026-04-06T13:06:40.999Z</time></trkpt><trkpt lat="45.8736728340478" lon="10.76452902964082"><ele>648.0</ele><time>2026-04-06T13:06:41.999Z</time></trkpt><trkpt lat="45.87361365849223" lon="10.764468016925317"><ele>648.0</ele><time>2026-04-06T13:06:42.999Z</time></trkpt><trkpt lat="45.873547740382485" lon="10.764391843091449"><ele>648.0</ele><time>2026-04-06T13:06:43.999Z</time></trkpt><trkpt lat="45.87347835464103" lon="10.764329313903783"><ele>648.0</ele><time>2026-04-06T13:06:44.999Z</time></trkpt><trkpt lat="45.873415004862785" lon="10.764262204617484"><ele>648.0</ele><time>2026-04-06T13:06:45.999Z</time></trkpt><trkpt lat="45.873361342531325" lon="10.764204721766113"><ele>648.0</ele><time>2026-04-06T13:06:46.999Z</time></trkpt><trkpt lat="45.873317166750134" lon="10.764133094002283"><ele>648.0</ele><time>2026-04-06T13:06:47.999Z</time></trkpt><trkpt lat="45.8732653557554" lon="10.764074496689236"><ele>648.0</ele><time>2026-04-06T13:06:48.999Z</time></trkpt><trkpt lat="45.87319472494932" lon="10.76400785572285"><ele>648.0</ele><time>2026-04-06T13:06:49.999Z</time></trkpt><trkpt lat="45.87309875556354" lon="10.76389495580245"><ele>648.0</ele><time>2026-04-06T13:06:51.999Z</time></trkpt><trkpt lat="45.87306152320074" lon="10.763798403375453"><ele>648.0</ele><time>2026-04-06T13:06:52.999Z</time></trkpt><trkpt lat="45.8730196938274" lon="10.763709018826944"><ele>648.0</ele><time>2026-04-06T13:06:53.999Z</time></trkpt><trkpt lat="45.872990252694" lon="10.763617242932696"><ele>648.0</ele><time>2026-04-06T13:06:54.999Z</time></trkpt><trkpt lat="45.872962887481556" lon="10.763524927981143"><ele>648.0</ele><time>2026-04-06T13:06:55.999Z</time></trkpt><trkpt lat="45.87292484689331" lon="10.763444127580359"><ele>648.0</ele><time>2026-04-06T13:06:56.999Z</time></trkpt><trkpt lat="45.8729023725638" lon="10.763355160003945"><ele>648.0</ele><time>2026-04-06T13:06:57.999Z</time></trkpt><trkpt lat="45.87288055338951" lon="10.763267318440084"><ele>648.0</ele><time>2026-04-06T13:06:58.999Z</time></trkpt><trkpt lat="45.87286164590956" lon="10.76317876669927"><ele>648.0</ele><time>2026-04-06T13:06:59.999Z</time></trkpt><trkpt lat="45.872836223558174" lon="10.76308759153784"><ele>648.0</ele><time>2026-04-06T13:07:00.999Z</time></trkpt><trkpt lat="45.872812042161094" lon="10.762988617020204"><ele>648.0</ele><time>2026-04-06T13:07:01.999Z</time></trkpt><trkpt lat="45.87279179804273" lon="10.762891237987263"><ele>648.0</ele><time>2026-04-06T13:07:02.999Z</time></trkpt><trkpt lat="45.872752157269616" lon="10.762732171061486"><ele>648.0</ele><time>2026-04-06T13:07:04.999Z</time></trkpt><trkpt lat="45.87270789619346" lon="10.762576891217739"><ele>648.0</ele><time>2026-04-06T13:07:06.999Z</time></trkpt><trkpt lat="45.87268365348292" lon="10.762483548010502"><ele>648.0</ele><time>2026-04-06T13:07:07.999Z</time></trkpt><trkpt lat="45.87266651385298" lon="10.762380365124613"><ele>648.0</ele><time>2026-04-06T13:07:08.999Z</time></trkpt><trkpt lat="45.872623847440806" lon="10.762290092862544"><ele>648.0</ele><time>2026-04-06T13:07:09.999Z</time></trkpt><trkpt lat="45.872565409487905" lon="10.762209955781953"><ele>648.0</ele><time>2026-04-06T13:07:10.999Z</time></trkpt><trkpt lat="45.87251228031488" lon="10.76211581295962"><ele>648.0</ele><time>2026-04-06T13:07:11.999Z</time></trkpt><trkpt lat="45.87244981210977" lon="10.762025649819966"><ele>648.0</ele><time>2026-04-06T13:07:12.999Z</time></trkpt><trkpt lat="45.872388971665465" lon="10.761958141637525"><ele>648.0</ele><time>2026-04-06T13:07:13.999Z</time></trkpt><trkpt lat="45.87233648546418" lon="10.761891356479943"><ele>648.0</ele><time>2026-04-06T13:07:14.999Z</time></trkpt><trkpt lat="45.87228487493543" lon="10.761814393245501"><ele>648.0</ele><time>2026-04-06T13:07:15.999Z</time></trkpt><trkpt lat="45.87223287376973" lon="10.761754144745824"><ele>648.0</ele><time>2026-04-06T13:07:16.999Z</time></trkpt><trkpt lat="45.8721827600346" lon="10.76168561571709"><ele>648.0</ele><time>2026-04-06T13:07:17.999Z</time></trkpt><trkpt lat="45.87213313680962" lon="10.761618883084962"><ele>648.0</ele><time>2026-04-06T13:07:18.999Z</time></trkpt><trkpt lat="45.872075587962485" lon="10.761562530084376"><ele>648.0</ele><time>2026-04-06T13:07:19.999Z</time></trkpt><trkpt lat="45.87201601218191" lon="10.761505971172731"><ele>648.0</ele><time>2026-04-06T13:07:20.999Z</time></trkpt><trkpt lat="45.871947094572086" lon="10.761451421243347"><ele>648.0</ele><time>2026-04-06T13:07:21.999Z</time></trkpt><trkpt lat="45.87188071315543" lon="10.761390644905436"><ele>648.0</ele><time>2026-04-06T13:07:22.999Z</time></trkpt><trkpt lat="45.87180278611281" lon="10.761339004034717"><ele>648.0</ele><time>2026-04-06T13:07:23.999Z</time></trkpt><trkpt lat="45.871737613842306" lon="10.761290018151662"><ele>648.0</ele><time>2026-04-06T13:07:24.999Z</time></trkpt><trkpt lat="45.87166964785961" lon="10.761232242422203"><ele>648.0</ele><time>2026-04-06T13:07:25.999Z</time></trkpt><trkpt lat="45.87160207121813" lon="10.761171213252904"><ele>648.0</ele><time>2026-04-06T13:07:26.999Z</time></trkpt><trkpt lat="45.87154274020683" lon="10.76109930500697"><ele>648.0</ele><time>2026-04-06T13:07:27.999Z</time></trkpt><trkpt lat="45.87148592876741" lon="10.761020579332625"><ele>648.0</ele><time>2026-04-06T13:07:28.999Z</time></trkpt><trkpt lat="45.87142231995164" lon="10.760934686288987"><ele>648.0</ele><time>2026-04-06T13:07:29.999Z</time></trkpt><trkpt lat="45.87140051279844" lon="10.76082582688608"><ele>648.0</ele><time>2026-04-06T13:07:30.999Z</time></trkpt><trkpt lat="45.87136182342971" lon="10.760735454101017"><ele>648.0</ele><time>2026-04-06T13:07:31.999Z</time></trkpt><trkpt lat="45.87134654191852" lon="10.760620105682035"><ele>648.0</ele><time>2026-04-06T13:07:32.999Z</time></trkpt><trkpt lat="45.87133212212873" lon="10.760491355013125"><ele>648.0</ele><time>2026-04-06T13:07:33.999Z</time></trkpt><trkpt lat="45.87135053251029" lon="10.760363662012455"><ele>648.0</ele><time>2026-04-06T13:07:34.999Z</time></trkpt><trkpt lat="45.87137092794" lon="10.760246930873214"><ele>648.0</ele><time>2026-04-06T13:07:35.999Z</time></trkpt><trkpt lat="45.87138562045199" lon="10.76011727718475"><ele>648.0</ele><time>2026-04-06T13:07:36.999Z</time></trkpt><trkpt lat="45.8714011574774" lon="10.759989642539226"><ele>648.0</ele><time>2026-04-06T13:07:37.999Z</time></trkpt><trkpt lat="45.87140269111755" lon="10.759869822310991"><ele>648.0</ele><time>2026-04-06T13:07:38.999Z</time></trkpt><trkpt lat="45.871403535311096" lon="10.759739062965672"><ele>648.0</ele><time>2026-04-06T13:07:39.999Z</time></trkpt><trkpt lat="45.871379640315325" lon="10.759605398458676"><ele>648.0</ele><time>2026-04-06T13:07:40.999Z</time></trkpt><trkpt lat="45.87135838821403" lon="10.759465020940569"><ele>648.0</ele><time>2026-04-06T13:07:41.999Z</time></trkpt><trkpt lat="45.87134889987963" lon="10.759330548371244"><ele>648.0</ele><time>2026-04-06T13:07:42.999Z</time></trkpt><trkpt lat="45.87135224201598" lon="10.759210202533408"><ele>648.0</ele><time>2026-04-06T13:07:43.999Z</time></trkpt><trkpt lat="45.8713590879649" lon="10.7591040255599"><ele>648.0</ele><time>2026-04-06T13:07:44.999Z</time></trkpt><trkpt lat="45.87141117881857" lon="10.75902454791655"><ele>648.0</ele><time>2026-04-06T13:07:45.999Z</time></trkpt><trkpt lat="45.871437164668365" lon="10.758937299931583"><ele>648.0</ele><time>2026-04-06T13:07:46.999Z</time></trkpt><trkpt lat="45.87149953102083" lon="10.75884419637254"><ele>648.0</ele><time>2026-04-06T13:07:47.999Z</time></trkpt><trkpt lat="45.87158114587324" lon="10.758817174245154"><ele>648.0</ele><time>2026-04-06T13:07:48.999Z</time></trkpt><trkpt lat="45.87166371707651" lon="10.758799889800969"><ele>648.0</ele><time>2026-04-06T13:07:49.999Z</time></trkpt><trkpt lat="45.87175402336122" lon="10.758829860573647"><ele>648.0</ele><time>2026-04-06T13:07:51.999Z</time></trkpt><trkpt lat="45.87181656749496" lon="10.758849307321539"><ele>648.0</ele><time>2026-04-06T13:07:52.999Z</time></trkpt><trkpt lat="45.87187641629256" lon="10.758880141964806"><ele>648.0</ele><time>2026-04-06T13:07:53.999Z</time></trkpt><trkpt lat="45.87197524776014" lon="10.758898626815318"><ele>648.0</ele><time>2026-04-06T13:07:55.999Z</time></trkpt><trkpt lat="45.872093976788406" lon="10.758910856221268"><ele>648.0</ele><time>2026-04-06T13:07:57.999Z</time></trkpt><trkpt lat="45.87216220811866" lon="10.758935384694231"><ele>648.0</ele><time>2026-04-06T13:07:58.999Z</time></trkpt><trkpt lat="45.87222656026138" lon="10.758969537245498"><ele>648.0</ele><time>2026-04-06T13:07:59.999Z</time></trkpt><trkpt lat="45.87234125371769" lon="10.758948565736546"><ele>648.0</ele><time>2026-04-06T13:08:01.999Z</time></trkpt><trkpt lat="45.87240053571238" lon="10.758910998224001"><ele>648.0</ele><time>2026-04-06T13:08:02.999Z</time></trkpt><trkpt lat="45.872437754484544" lon="10.758812549627134"><ele>648.0</ele><time>2026-04-06T13:08:03.999Z</time></trkpt><trkpt lat="45.8724903234958" lon="10.758738996486109"><ele>648.0</ele><time>2026-04-06T13:08:04.999Z</time></trkpt><trkpt lat="45.87251769955726" lon="10.758624188066083"><ele>648.0</ele><time>2026-04-06T13:08:05.999Z</time></trkpt><trkpt lat="45.87253938326162" lon="10.758516721273123"><ele>648.0</ele><time>2026-04-06T13:08:06.999Z</time></trkpt><trkpt lat="45.872563111349855" lon="10.75841891125645"><ele>648.0</ele><time>2026-04-06T13:08:07.999Z</time></trkpt><trkpt lat="45.872591926259474" lon="10.758313692758264"><ele>648.0</ele><time>2026-04-06T13:08:08.999Z</time></trkpt><trkpt lat="45.87262415931925" lon="10.758211546992829"><ele>648.0</ele><time>2026-04-06T13:08:09.999Z</time></trkpt><trkpt lat="45.872660087788596" lon="10.758119347043063"><ele>648.0</ele><time>2026-04-06T13:08:10.999Z</time></trkpt><trkpt lat="45.87267996035933" lon="10.758011619080001"><ele>648.0</ele><time>2026-04-06T13:08:11.999Z</time></trkpt><trkpt lat="45.872707495786194" lon="10.757916949592657"><ele>648.0</ele><time>2026-04-06T13:08:12.999Z</time></trkpt><trkpt lat="45.87273283358984" lon="10.757802931325113"><ele>648.0</ele><time>2026-04-06T13:08:13.999Z</time></trkpt><trkpt lat="45.87274786082042" lon="10.757695777537721"><ele>648.0</ele><time>2026-04-06T13:08:14.999Z</time></trkpt><trkpt lat="45.87275825792097" lon="10.75758704293108"><ele>648.0</ele><time>2026-04-06T13:08:15.999Z</time></trkpt><trkpt lat="45.87277785488305" lon="10.75747087555866"><ele>648.0</ele><time>2026-04-06T13:08:16.999Z</time></trkpt><trkpt lat="45.87280530735402" lon="10.75736460813732"><ele>648.0</ele><time>2026-04-06T13:08:17.999Z</time></trkpt><trkpt lat="45.872821742647204" lon="10.757253048284149"><ele>648.0</ele><time>2026-04-06T13:08:18.999Z</time></trkpt><trkpt lat="45.872820862197955" lon="10.757052723275594"><ele>648.0</ele><time>2026-04-06T13:08:20.999Z</time></trkpt><trkpt lat="45.872832249331985" lon="10.756892751492716"><ele>648.0</ele><time>2026-04-06T13:08:21.999Z</time></trkpt><trkpt lat="45.872861015435944" lon="10.756798260348617"><ele>648.0</ele><time>2026-04-06T13:08:22.999Z</time></trkpt><trkpt lat="45.872864446189936" lon="10.75670497219815"><ele>648.0</ele><time>2026-04-06T13:08:23.999Z</time></trkpt><trkpt lat="45.872881323423634" lon="10.756607316217503"><ele>648.0</ele><time>2026-04-06T13:08:24.999Z</time></trkpt><trkpt lat="45.872898078297624" lon="10.756509761895103"><ele>648.0</ele><time>2026-04-06T13:08:25.999Z</time></trkpt><trkpt lat="45.87288404765516" lon="10.756408507543373"><ele>648.0</ele><time>2026-04-06T13:08:26.999Z</time></trkpt><trkpt lat="45.872865417702386" lon="10.756309152434467"><ele>648.0</ele><time>2026-04-06T13:08:27.999Z</time></trkpt><trkpt lat="45.87283881995227" lon="10.756221475485532"><ele>648.0</ele><time>2026-04-06T13:08:28.999Z</time></trkpt><trkpt lat="45.872829695295174" lon="10.756067089796614"><ele>648.0</ele><time>2026-04-06T13:08:30.995Z</time></trkpt><trkpt lat="45.872757500150556" lon="10.755918734004688"><ele>648.0</ele><time>2026-04-06T13:08:32.995Z</time></trkpt><trkpt lat="45.8726961658018" lon="10.75585309462555"><ele>648.0</ele><time>2026-04-06T13:08:33.995Z</time></trkpt><trkpt lat="45.87264777993612" lon="10.755780826797306"><ele>648.0</ele><time>2026-04-06T13:08:34.995Z</time></trkpt><trkpt lat="45.87261186844012" lon="10.75569592270532"><ele>648.0</ele><time>2026-04-06T13:08:35.995Z</time></trkpt><trkpt lat="45.872531406046704" lon="10.755604146680305"><ele>648.0</ele><time>2026-04-06T13:08:37.995Z</time></trkpt><trkpt lat="45.872404106236395" lon="10.755575928826968"><ele>648.0</ele><time>2026-04-06T13:08:39.995Z</time></trkpt><trkpt lat="45.87234234846767" lon="10.755526489075628"><ele>648.0</ele><time>2026-04-06T13:08:40.995Z</time></trkpt><trkpt lat="45.87230387958778" lon="10.755443356888264"><ele>648.0</ele><time>2026-04-06T13:08:41.995Z</time></trkpt><trkpt lat="45.872266341557584" lon="10.755370337157789"><ele>648.0</ele><time>2026-04-06T13:08:42.995Z</time></trkpt><trkpt lat="45.872211441538646" lon="10.755169299332689"><ele>648.0</ele><time>2026-04-06T13:08:44.995Z</time></trkpt><trkpt lat="45.87217922679888" lon="10.755039367024215"><ele>648.0</ele><time>2026-04-06T13:08:45.995Z</time></trkpt><trkpt lat="45.87214379431745" lon="10.7549317843938"><ele>648.0</ele><time>2026-04-06T13:08:46.995Z</time></trkpt><trkpt lat="45.87210693179016" lon="10.754828546542237"><ele>648.0</ele><time>2026-04-06T13:08:47.995Z</time></trkpt><trkpt lat="45.87207124193415" lon="10.754748560497696"><ele>648.0</ele><time>2026-04-06T13:08:48.995Z</time></trkpt><trkpt lat="45.87201959954854" lon="10.754669436665345"><ele>648.0</ele><time>2026-04-06T13:08:49.995Z</time></trkpt><trkpt lat="45.871971596699915" lon="10.75459506286831"><ele>648.0</ele><time>2026-04-06T13:08:50.995Z</time></trkpt><trkpt lat="45.87192274240371" lon="10.754461269741418"><ele>648.0</ele><time>2026-04-06T13:08:52.995Z</time></trkpt><trkpt lat="45.8718867176897" lon="10.754318292658688"><ele>648.0</ele><time>2026-04-06T13:08:54.995Z</time></trkpt><trkpt lat="45.87183438408354" lon="10.754194935365756"><ele>648.0</ele><time>2026-04-06T13:08:56.995Z</time></trkpt><trkpt lat="45.87178065155936" lon="10.754128546310818"><ele>648.0</ele><time>2026-04-06T13:08:57.995Z</time></trkpt><trkpt lat="45.87171497651752" lon="10.754080384653323"><ele>648.0</ele><time>2026-04-06T13:08:58.995Z</time></trkpt><trkpt lat="45.87164822187689" lon="10.75402653969335"><ele>648.0</ele><time>2026-04-06T13:08:59.995Z</time></trkpt><trkpt lat="45.87158040073275" lon="10.75395285229757"><ele>648.0</ele><time>2026-04-06T13:09:00.995Z</time></trkpt><trkpt lat="45.871509793148476" lon="10.75385888443238"><ele>648.0</ele><time>2026-04-06T13:09:01.995Z</time></trkpt><trkpt lat="45.87146617468393" lon="10.75375411872671"><ele>648.0</ele><time>2026-04-06T13:09:02.995Z</time></trkpt><trkpt lat="45.87143014268279" lon="10.753644631597119"><ele>648.0</ele><time>2026-04-06T13:09:03.995Z</time></trkpt><trkpt lat="45.87134850177279" lon="10.75352528221262"><ele>648.0</ele><time>2026-04-06T13:09:04.995Z</time></trkpt><trkpt lat="45.87123296954514" lon="10.753385688295559"><ele>648.0</ele><time>2026-04-06T13:09:05.995Z</time></trkpt><trkpt lat="45.87109379093416" lon="10.753206816859866"><ele>648.0</ele><time>2026-04-06T13:09:06.995Z</time></trkpt><trkpt lat="45.87096685697888" lon="10.753041716523617"><ele>648.0</ele><time>2026-04-06T13:09:07.995Z</time></trkpt><trkpt lat="45.87087246708544" lon="10.752886123356584"><ele>648.0</ele><time>2026-04-06T13:09:08.995Z</time></trkpt><trkpt lat="45.87078662515786" lon="10.752734292472352"><ele>648.0</ele><time>2026-04-06T13:09:09.995Z</time></trkpt><trkpt lat="45.87071892461078" lon="10.752589757937432"><ele>648.0</ele><time>2026-04-06T13:09:10.995Z</time></trkpt><trkpt lat="45.87066799124098" lon="10.752449143999737"><ele>648.0</ele><time>2026-04-06T13:09:11.995Z</time></trkpt><trkpt lat="45.87062781630946" lon="10.752313661607571"><ele>648.0</ele><time>2026-04-06T13:09:12.995Z</time></trkpt><trkpt lat="45.87058804054777" lon="10.752189272644934"><ele>648.0</ele><time>2026-04-06T13:09:13.995Z</time></trkpt><trkpt lat="45.870565628167114" lon="10.752082892850709"><ele>648.0</ele><time>2026-04-06T13:09:14.995Z</time></trkpt><trkpt lat="45.8705857532754" lon="10.751954342489356"><ele>648.0</ele><time>2026-04-06T13:09:15.995Z</time></trkpt><trkpt lat="45.87056766677763" lon="10.751840865007976"><ele>648.0</ele><time>2026-04-06T13:09:16.995Z</time></trkpt><trkpt lat="45.87054912956243" lon="10.75173529063209"><ele>648.0</ele><time>2026-04-06T13:09:17.995Z</time></trkpt><trkpt lat="45.870496146542806" lon="10.751624841646759"><ele>648.0</ele><time>2026-04-06T13:09:18.995Z</time></trkpt><trkpt lat="45.87043918539763" lon="10.751500753541025"><ele>648.0</ele><time>2026-04-06T13:09:19.995Z</time></trkpt><trkpt lat="45.87039449658467" lon="10.75136963838967"><ele>648.0</ele><time>2026-04-06T13:09:20.995Z</time></trkpt><trkpt lat="45.87034386501729" lon="10.751282757729166"><ele>648.0</ele><time>2026-04-06T13:09:21.995Z</time></trkpt><trkpt lat="45.8702673810254" lon="10.751222838150836"><ele>648.0</ele><time>2026-04-06T13:09:22.995Z</time></trkpt><trkpt lat="45.87018877555288" lon="10.751136663057038"><ele>648.0</ele><time>2026-04-06T13:09:23.995Z</time></trkpt><trkpt lat="45.87011017539293" lon="10.751068961834033"><ele>648.0</ele><time>2026-04-06T13:09:24.995Z</time></trkpt><trkpt lat="45.87003210361581" lon="10.751009676764339"><ele>648.0</ele><time>2026-04-06T13:09:25.995Z</time></trkpt><trkpt lat="45.86999033559776" lon="10.75091561072178"><ele>648.0</ele><time>2026-04-06T13:09:26.995Z</time></trkpt><trkpt lat="45.86999689544992" lon="10.750802246813382"><ele>648.0</ele><time>2026-04-06T13:09:27.995Z</time></trkpt><trkpt lat="45.86996413688895" lon="10.75071208180257"><ele>648.0</ele><time>2026-04-06T13:09:28.995Z</time></trkpt><trkpt lat="45.869948107112506" lon="10.750537175049542"><ele>648.0</ele><time>2026-04-06T13:09:30.995Z</time></trkpt><trkpt lat="45.8699158284304" lon="10.750442917602818"><ele>648.0</ele><time>2026-04-06T13:09:31.995Z</time></trkpt><trkpt lat="45.86990087272446" lon="10.750348215614379"><ele>648.0</ele><time>2026-04-06T13:09:32.995Z</time></trkpt><trkpt lat="45.86986758942713" lon="10.750250568357512"><ele>648.0</ele><time>2026-04-06T13:09:33.995Z</time></trkpt><trkpt lat="45.8698142595361" lon="10.750174211125367"><ele>648.0</ele><time>2026-04-06T13:09:34.995Z</time></trkpt><trkpt lat="45.86975733655555" lon="10.75010661157652"><ele>648.0</ele><time>2026-04-06T13:09:35.995Z</time></trkpt><trkpt lat="45.86969973355173" lon="10.750044122139213"><ele>648.0</ele><time>2026-04-06T13:09:36.995Z</time></trkpt><trkpt lat="45.86964885012363" lon="10.749970183572858"><ele>648.0</ele><time>2026-04-06T13:09:37.995Z</time></trkpt><trkpt lat="45.869593475412046" lon="10.749814250968432"><ele>648.0</ele><time>2026-04-06T13:09:39.995Z</time></trkpt><trkpt lat="45.86954328035228" lon="10.749753508479523"><ele>648.0</ele><time>2026-04-06T13:09:40.995Z</time></trkpt><trkpt lat="45.86945011517593" lon="10.749651902723656"><ele>648.0</ele><time>2026-04-06T13:09:42.995Z</time></trkpt><trkpt lat="45.869399182348616" lon="10.749588287969544"><ele>648.0</ele><time>2026-04-06T13:09:43.995Z</time></trkpt><trkpt lat="45.8693610231552" lon="10.749402831175356"><ele>648.0</ele><time>2026-04-06T13:09:45.995Z</time></trkpt><trkpt lat="45.86933391367198" lon="10.74930993906499"><ele>648.0</ele><time>2026-04-06T13:09:46.995Z</time></trkpt><trkpt lat="45.86932761964927" lon="10.749118123123427"><ele>648.0</ele><time>2026-04-06T13:09:48.995Z</time></trkpt><trkpt lat="45.86932488048233" lon="10.749008556095033"><ele>648.0</ele><time>2026-04-06T13:09:49.995Z</time></trkpt><trkpt lat="45.869320171506565" lon="10.748907319854792"><ele>648.0</ele><time>2026-04-06T13:09:50.995Z</time></trkpt><trkpt lat="45.8693072431771" lon="10.748806278933063"><ele>648.0</ele><time>2026-04-06T13:09:51.995Z</time></trkpt><trkpt lat="45.86928177078618" lon="10.748714836192205"><ele>648.0</ele><time>2026-04-06T13:09:52.995Z</time></trkpt><trkpt lat="45.869234015931795" lon="10.748590996352172"><ele>648.0</ele><time>2026-04-06T13:09:53.995Z</time></trkpt><trkpt lat="45.869176960379406" lon="10.748427358467293"><ele>648.0</ele><time>2026-04-06T13:09:54.995Z</time></trkpt><trkpt lat="45.869143162077705" lon="10.748342558435004"><ele>648.0</ele><time>2026-04-06T13:09:55.995Z</time></trkpt><trkpt lat="45.86910982029024" lon="10.748261668916728"><ele>648.0</ele><time>2026-04-06T13:09:56.995Z</time></trkpt><trkpt lat="45.86904853853394" lon="10.748122276091005"><ele>648.0</ele><time>2026-04-06T13:09:58.995Z</time></trkpt><trkpt lat="45.86898425340099" lon="10.747984821375761"><ele>648.0</ele><time>2026-04-06T13:10:00.995Z</time></trkpt><trkpt lat="45.86894672246455" lon="10.74790987350756"><ele>648.0</ele><time>2026-04-06T13:10:01.995Z</time></trkpt><trkpt lat="45.8688929360955" lon="10.747850432188072"><ele>648.0</ele><time>2026-04-06T13:10:02.995Z</time></trkpt><trkpt lat="45.868859718688675" lon="10.74776329280516"><ele>648.0</ele><time>2026-04-06T13:10:03.995Z</time></trkpt><trkpt lat="45.86879044724664" lon="10.747697423309017"><ele>648.0</ele><time>2026-04-06T13:10:04.995Z</time></trkpt><trkpt lat="45.86877755889558" lon="10.747567968685033"><ele>648.0</ele><time>2026-04-06T13:10:05.995Z</time></trkpt><trkpt lat="45.86874651535256" lon="10.747479492003023"><ele>648.0</ele><time>2026-04-06T13:10:06.995Z</time></trkpt><trkpt lat="45.868734450725704" lon="10.747386468684466"><ele>648.0</ele><time>2026-04-06T13:10:07.995Z</time></trkpt><trkpt lat="45.868725604069155" lon="10.74729225705988"><ele>648.0</ele><time>2026-04-06T13:10:08.995Z</time></trkpt><trkpt lat="45.86875186311049" lon="10.747205956750825"><ele>648.0</ele><time>2026-04-06T13:10:09.995Z</time></trkpt><trkpt lat="45.86875975620629" lon="10.747098832128268"><ele>648.0</ele><time>2026-04-06T13:10:11.995Z</time></trkpt><trkpt lat="45.868837931049256" lon="10.747050199957284"><ele>648.0</ele><time>2026-04-06T13:10:13.995Z</time></trkpt><trkpt lat="45.86893022110639" lon="10.747072162781924"><ele>648.0</ele><time>2026-04-06T13:10:15.995Z</time></trkpt><trkpt lat="45.869025271351674" lon="10.747169429695868"><ele>648.0</ele><time>2026-04-06T13:10:17.995Z</time></trkpt><trkpt lat="45.869097794738586" lon="10.747204911435196"><ele>648.0</ele><time>2026-04-06T13:10:18.995Z</time></trkpt><trkpt lat="45.86917307705334" lon="10.74724501743575"><ele>648.0</ele><time>2026-04-06T13:10:19.995Z</time></trkpt><trkpt lat="45.86923614344234" lon="10.747256718991343"><ele>648.0</ele><time>2026-04-06T13:10:20.995Z</time></trkpt><trkpt lat="45.86935236819321" lon="10.747282252052878"><ele>648.0</ele><time>2026-04-06T13:10:22.995Z</time></trkpt><trkpt lat="45.86945621304922" lon="10.747258195976011"><ele>648.0</ele><time>2026-04-06T13:10:24.995Z</time></trkpt><trkpt lat="45.86952008743429" lon="10.747118359711344"><ele>648.0</ele><time>2026-04-06T13:10:26.995Z</time></trkpt><trkpt lat="45.86956224341185" lon="10.746970166944976"><ele>648.0</ele><time>2026-04-06T13:10:28.995Z</time></trkpt><trkpt lat="45.86961956387103" lon="10.746839979246628"><ele>648.0</ele><time>2026-04-06T13:10:30.995Z</time></trkpt><trkpt lat="45.869662895638264" lon="10.74672188697871"><ele>648.0</ele><time>2026-04-06T13:10:32.995Z</time></trkpt><trkpt lat="45.86969811575563" lon="10.746643960989816"><ele>648.0</ele><time>2026-04-06T13:10:34.995Z</time></trkpt><trkpt lat="45.869770811031884" lon="10.746583107544248"><ele>648.0</ele><time>2026-04-06T13:10:52.994Z</time></trkpt><trkpt lat="45.869833243543646" lon="10.746445730824949"><ele>648.0</ele><time>2026-04-06T13:10:54.994Z</time></trkpt><trkpt lat="45.869889047705605" lon="10.746391549561153"><ele>648.0</ele><time>2026-04-06T13:10:59.994Z</time></trkpt><trkpt lat="45.87003599449785" lon="10.746647641200477"><ele>648.0</ele><time>2026-04-06T13:12:32.994Z</time></trkpt><trkpt lat="45.87009791245557" lon="10.746664911191464"><ele>648.0</ele><time>2026-04-06T13:17:17.987Z</time></trkpt><trkpt lat="45.870042662647705" lon="10.74660337121061"><ele>648.0</ele><time>2026-04-06T13:19:53.974Z</time></trkpt><trkpt lat="45.87000272218043" lon="10.746527968655892"><ele>648.0</ele><time>2026-04-06T13:20:10.974Z</time></trkpt><trkpt lat="45.869941526819325" lon="10.746472522701511"><ele>648.0</ele><time>2026-04-06T13:20:16.974Z</time></trkpt><trkpt lat="45.86992546807553" lon="10.746335256812506"><ele>648.0</ele><time>2026-04-06T13:21:51.969Z</time></trkpt><trkpt lat="45.86992902521905" lon="10.746243425035717"><ele>648.0</ele><time>2026-04-06T13:21:57.969Z</time></trkpt><trkpt lat="45.869889140784295" lon="10.746172351560643"><ele>648.0</ele><time>2026-04-06T13:22:06.969Z</time></trkpt><trkpt lat="45.86981416159496" lon="10.746160832715042"><ele>648.0</ele><time>2026-04-06T13:24:32.967Z</time></trkpt><trkpt lat="45.86984664606728" lon="10.746257458971183"><ele>648.0</ele><time>2026-04-06T13:31:48.963Z</time></trkpt><trkpt lat="45.86988557592885" lon="10.746339640773778"><ele>648.0</ele><time>2026-04-06T14:07:13.945Z</time></trkpt><trkpt lat="45.869796041998804" lon="10.746370047024575"><ele>648.0</ele><time>2026-04-06T14:12:05.941Z</time></trkpt><trkpt lat="45.86974079055574" lon="10.746471973922171"><ele>648.0</ele><time>2026-04-06T14:12:06.941Z</time></trkpt><trkpt lat="45.86969301240357" lon="10.746590245737167"><ele>648.0</ele><time>2026-04-06T14:12:07.941Z</time></trkpt><trkpt lat="45.869660481502734" lon="10.746674022022441"><ele>648.0</ele><time>2026-04-06T14:12:08.941Z</time></trkpt><trkpt lat="45.86960366540958" lon="10.746833900759048"><ele>648.0</ele><time>2026-04-06T14:12:10.941Z</time></trkpt><trkpt lat="45.869559779851635" lon="10.746949530485033"><ele>648.0</ele><time>2026-04-06T14:12:11.941Z</time></trkpt><trkpt lat="45.86951006715762" lon="10.747063594537401"><ele>648.0</ele><time>2026-04-06T14:12:12.941Z</time></trkpt><trkpt lat="45.86944837508216" lon="10.747170700957344"><ele>648.0</ele><time>2026-04-06T14:12:13.941Z</time></trkpt><trkpt lat="45.86936410584099" lon="10.747272331568087"><ele>648.0</ele><time>2026-04-06T14:12:15.941Z</time></trkpt><trkpt lat="45.869293947324856" lon="10.747282318364634"><ele>648.0</ele><time>2026-04-06T14:12:16.941Z</time></trkpt><trkpt lat="45.86922243607449" lon="10.747216159288174"><ele>648.0</ele><time>2026-04-06T14:12:17.941Z</time></trkpt><trkpt lat="45.86915352516128" lon="10.74720937063803"><ele>648.0</ele><time>2026-04-06T14:12:18.941Z</time></trkpt><trkpt lat="45.86903101532862" lon="10.747121231416635"><ele>648.0</ele><time>2026-04-06T14:12:20.941Z</time></trkpt><trkpt lat="45.868967514885526" lon="10.747063788733128"><ele>648.0</ele><time>2026-04-06T14:12:21.941Z</time></trkpt><trkpt lat="45.868903599375756" lon="10.74701818145599"><ele>648.0</ele><time>2026-04-06T14:12:22.941Z</time></trkpt><trkpt lat="45.86883303820778" lon="10.746995541286937"><ele>648.0</ele><time>2026-04-06T14:12:23.941Z</time></trkpt><trkpt lat="45.8687708885274" lon="10.747034551190024"><ele>648.0</ele><time>2026-04-06T14:12:24.941Z</time></trkpt><trkpt lat="45.868715344091605" lon="10.747109781133949"><ele>648.0</ele><time>2026-04-06T14:12:25.941Z</time></trkpt><trkpt lat="45.86869122420913" lon="10.74721506375234"><ele>648.0</ele><time>2026-04-06T14:12:26.941Z</time></trkpt><trkpt lat="45.868689078499905" lon="10.747315378879847"><ele>648.0</ele><time>2026-04-06T14:12:27.941Z</time></trkpt><trkpt lat="45.86871179556622" lon="10.74741808613424"><ele>648.0</ele><time>2026-04-06T14:12:28.941Z</time></trkpt><trkpt lat="45.86874341471835" lon="10.747511508929836"><ele>648.0</ele><time>2026-04-06T14:12:29.941Z</time></trkpt><trkpt lat="45.86877325979085" lon="10.747596148668427"><ele>648.0</ele><time>2026-04-06T14:12:30.941Z</time></trkpt><trkpt lat="45.86883431991959" lon="10.747744690519577"><ele>648.0</ele><time>2026-04-06T14:12:32.941Z</time></trkpt><trkpt lat="45.868916309899305" lon="10.74791818127733"><ele>648.0</ele><time>2026-04-06T14:12:34.941Z</time></trkpt><trkpt lat="45.868971645915074" lon="10.748031719279359"><ele>648.0</ele><time>2026-04-06T14:12:35.941Z</time></trkpt><trkpt lat="45.869046857684594" lon="10.748206625477437"><ele>648.0</ele><time>2026-04-06T14:12:36.941Z</time></trkpt><trkpt lat="45.86909957295275" lon="10.748330570584724"><ele>648.0</ele><time>2026-04-06T14:12:37.941Z</time></trkpt><trkpt lat="45.869160343481006" lon="10.748434038492828"><ele>648.0</ele><time>2026-04-06T14:12:38.941Z</time></trkpt><trkpt lat="45.869203382509625" lon="10.748545962906707"><ele>648.0</ele><time>2026-04-06T14:12:39.941Z</time></trkpt><trkpt lat="45.869242247198514" lon="10.748665364147618"><ele>648.0</ele><time>2026-04-06T14:12:40.941Z</time></trkpt><trkpt lat="45.8692555582716" lon="10.74880919980751"><ele>648.0</ele><time>2026-04-06T14:12:41.941Z</time></trkpt><trkpt lat="45.86928391285018" lon="10.748956843137366"><ele>648.0</ele><time>2026-04-06T14:12:42.941Z</time></trkpt><trkpt lat="45.869283121555725" lon="10.749110456229808"><ele>648.0</ele><time>2026-04-06T14:12:43.941Z</time></trkpt><trkpt lat="45.869283046728675" lon="10.749234532528366"><ele>648.0</ele><time>2026-04-06T14:12:44.941Z</time></trkpt><trkpt lat="45.869273652636636" lon="10.749360285333703"><ele>648.0</ele><time>2026-04-06T14:12:45.941Z</time></trkpt><trkpt lat="45.86930153620726" lon="10.749465140631656"><ele>648.0</ele><time>2026-04-06T14:12:46.941Z</time></trkpt><trkpt lat="45.86934288661843" lon="10.749557549675691"><ele>648.0</ele><time>2026-04-06T14:12:47.941Z</time></trkpt><trkpt lat="45.8693997222104" lon="10.749641961239172"><ele>648.0</ele><time>2026-04-06T14:12:48.941Z</time></trkpt><trkpt lat="45.869472442117875" lon="10.749711776463206"><ele>648.0</ele><time>2026-04-06T14:12:49.941Z</time></trkpt><trkpt lat="45.86955441021276" lon="10.749779413209849"><ele>648.0</ele><time>2026-04-06T14:12:50.941Z</time></trkpt><trkpt lat="45.86957456128589" lon="10.74993858530431"><ele>648.0</ele><time>2026-04-06T14:12:51.941Z</time></trkpt><trkpt lat="45.869626283860356" lon="10.750003985071599"><ele>648.0</ele><time>2026-04-06T14:12:52.941Z</time></trkpt><trkpt lat="45.86967505262921" lon="10.75008177883139"><ele>648.0</ele><time>2026-04-06T14:12:53.941Z</time></trkpt><trkpt lat="45.869758302406574" lon="10.75014060561137"><ele>648.0</ele><time>2026-04-06T14:12:54.941Z</time></trkpt><trkpt lat="45.86983527509038" lon="10.750239843353567"><ele>648.0</ele><time>2026-04-06T14:12:55.941Z</time></trkpt><trkpt lat="45.869878754365594" lon="10.750330363037781"><ele>648.0</ele><time>2026-04-06T14:12:56.941Z</time></trkpt><trkpt lat="45.86989730407326" lon="10.750429514816416"><ele>648.0</ele><time>2026-04-06T14:12:57.941Z</time></trkpt><trkpt lat="45.869912433708734" lon="10.75052833010496"><ele>648.0</ele><time>2026-04-06T14:12:58.941Z</time></trkpt><trkpt lat="45.869936442735494" lon="10.750621895364336"><ele>648.0</ele><time>2026-04-06T14:12:59.941Z</time></trkpt><trkpt lat="45.86996261403225" lon="10.750728224227128"><ele>648.0</ele><time>2026-04-06T14:13:00.941Z</time></trkpt><trkpt lat="45.86996949487317" lon="10.75083631759825"><ele>648.0</ele><time>2026-04-06T14:13:01.941Z</time></trkpt><trkpt lat="45.86999261457626" lon="10.750935220291042"><ele>648.0</ele><time>2026-04-06T14:13:02.941Z</time></trkpt><trkpt lat="45.87002919257287" lon="10.75104455458655"><ele>648.0</ele><time>2026-04-06T14:13:03.941Z</time></trkpt><trkpt lat="45.87011607391348" lon="10.751130720821996"><ele>648.0</ele><time>2026-04-06T14:13:04.941Z</time></trkpt><trkpt lat="45.87019699639385" lon="10.75120068792438"><ele>648.0</ele><time>2026-04-06T14:13:05.941Z</time></trkpt><trkpt lat="45.8702591374455" lon="10.751258472797298"><ele>648.0</ele><time>2026-04-06T14:13:06.941Z</time></trkpt><trkpt lat="45.87033523693314" lon="10.751339146849274"><ele>648.0</ele><time>2026-04-06T14:13:07.941Z</time></trkpt><trkpt lat="45.870404814603425" lon="10.751474525357482"><ele>648.0</ele><time>2026-04-06T14:13:09.941Z</time></trkpt><trkpt lat="45.87044313612591" lon="10.751566574087791"><ele>648.0</ele><time>2026-04-06T14:13:10.941Z</time></trkpt><trkpt lat="45.87049092318717" lon="10.751689015155794"><ele>648.0</ele><time>2026-04-06T14:13:12.941Z</time></trkpt><trkpt lat="45.870531279766475" lon="10.75180773462342"><ele>648.0</ele><time>2026-04-06T14:13:14.941Z</time></trkpt><trkpt lat="45.870549065567126" lon="10.751896162541518"><ele>648.0</ele><time>2026-04-06T14:13:15.941Z</time></trkpt><trkpt lat="45.87053425736589" lon="10.752000208185912"><ele>648.0</ele><time>2026-04-06T14:13:16.941Z</time></trkpt><trkpt lat="45.870535760606955" lon="10.752103965922279"><ele>648.0</ele><time>2026-04-06T14:13:17.941Z</time></trkpt><trkpt lat="45.87054827992213" lon="10.752200542977562"><ele>648.0</ele><time>2026-04-06T14:13:18.941Z</time></trkpt><trkpt lat="45.87058402267209" lon="10.752288262442132"><ele>648.0</ele><time>2026-04-06T14:13:19.941Z</time></trkpt><trkpt lat="45.87061637454373" lon="10.752377176588984"><ele>648.0</ele><time>2026-04-06T14:13:20.941Z</time></trkpt><trkpt lat="45.87067685895269" lon="10.752560290240984"><ele>648.0</ele><time>2026-04-06T14:13:22.941Z</time></trkpt><trkpt lat="45.87071008813077" lon="10.752652652674382"><ele>648.0</ele><time>2026-04-06T14:13:23.941Z</time></trkpt><trkpt lat="45.87074545737156" lon="10.752731084203553"><ele>648.0</ele><time>2026-04-06T14:13:24.941Z</time></trkpt><trkpt lat="45.87078427942885" lon="10.752806633809211"><ele>648.0</ele><time>2026-04-06T14:13:25.941Z</time></trkpt><trkpt lat="45.87082747699544" lon="10.752883039073797"><ele>648.0</ele><time>2026-04-06T14:13:26.941Z</time></trkpt><trkpt lat="45.87090705693183" lon="10.753010748741849"><ele>648.0</ele><time>2026-04-06T14:13:28.941Z</time></trkpt><trkpt lat="45.870975256889764" lon="10.753116079986771"><ele>648.0</ele><time>2026-04-06T14:13:30.941Z</time></trkpt><trkpt lat="45.871055325567234" lon="10.753234328731114"><ele>648.0</ele><time>2026-04-06T14:13:32.941Z</time></trkpt><trkpt lat="45.871132206919405" lon="10.753345557400092"><ele>648.0</ele><time>2026-04-06T14:13:34.941Z</time></trkpt><trkpt lat="45.871210040364296" lon="10.753442022915623"><ele>648.0</ele><time>2026-04-06T14:13:36.941Z</time></trkpt><trkpt lat="45.8712956097833" lon="10.753541761993104"><ele>648.0</ele><time>2026-04-06T14:13:38.941Z</time></trkpt><trkpt lat="45.87138327203481" lon="10.753659167927493"><ele>648.0</ele><time>2026-04-06T14:13:40.941Z</time></trkpt><trkpt lat="45.8714397039083" lon="10.753742585562957"><ele>648.0</ele><time>2026-04-06T14:13:41.941Z</time></trkpt><trkpt lat="45.87147064362561" lon="10.753851707904055"><ele>648.0</ele><time>2026-04-06T14:13:42.941Z</time></trkpt><trkpt lat="45.87151444697075" lon="10.753939361150554"><ele>648.0</ele><time>2026-04-06T14:13:43.941Z</time></trkpt><trkpt lat="45.87156531654963" lon="10.754001851953333"><ele>648.0</ele><time>2026-04-06T14:13:44.941Z</time></trkpt><trkpt lat="45.871674958838526" lon="10.754091633971118"><ele>648.0</ele><time>2026-04-06T14:13:46.941Z</time></trkpt><trkpt lat="45.87173502673469" lon="10.754136704578897"><ele>648.0</ele><time>2026-04-06T14:13:47.941Z</time></trkpt><trkpt lat="45.87181006728911" lon="10.754187204190407"><ele>648.0</ele><time>2026-04-06T14:13:48.941Z</time></trkpt><trkpt lat="45.8718460583066" lon="10.754303959899463"><ele>648.0</ele><time>2026-04-06T14:13:49.941Z</time></trkpt><trkpt lat="45.87186372093339" lon="10.754397615299084"><ele>648.0</ele><time>2026-04-06T14:13:50.941Z</time></trkpt><trkpt lat="45.87192660585989" lon="10.754530266229173"><ele>648.0</ele><time>2026-04-06T14:13:51.941Z</time></trkpt><trkpt lat="45.87196601636262" lon="10.754629359983001"><ele>648.0</ele><time>2026-04-06T14:13:52.941Z</time></trkpt><trkpt lat="45.87201054489667" lon="10.754743385679621"><ele>648.0</ele><time>2026-04-06T14:13:53.941Z</time></trkpt><trkpt lat="45.87206842250171" lon="10.754828231837907"><ele>648.0</ele><time>2026-04-06T14:13:54.941Z</time></trkpt><trkpt lat="45.87210562779703" lon="10.754908552615316"><ele>648.0</ele><time>2026-04-06T14:13:55.941Z</time></trkpt><trkpt lat="45.87212533461335" lon="10.755000656430889"><ele>648.0</ele><time>2026-04-06T14:13:56.941Z</time></trkpt><trkpt lat="45.87216640646245" lon="10.755108622688374"><ele>648.0</ele><time>2026-04-06T14:13:57.941Z</time></trkpt><trkpt lat="45.87219345239079" lon="10.755220708526709"><ele>648.0</ele><time>2026-04-06T14:13:58.941Z</time></trkpt><trkpt lat="45.87223107988082" lon="10.7553270900007"><ele>648.0</ele><time>2026-04-06T14:13:59.941Z</time></trkpt><trkpt lat="45.87226542205164" lon="10.755437102273355"><ele>648.0</ele><time>2026-04-06T14:14:00.941Z</time></trkpt><trkpt lat="45.87231865465994" lon="10.755524939294975"><ele>648.0</ele><time>2026-04-06T14:14:01.941Z</time></trkpt><trkpt lat="45.87241922938402" lon="10.75562425440981"><ele>648.0</ele><time>2026-04-06T14:14:03.941Z</time></trkpt><trkpt lat="45.8724931315371" lon="10.755620366231003"><ele>648.0</ele><time>2026-04-06T14:14:04.941Z</time></trkpt><trkpt lat="45.872595986103974" lon="10.75567118182537"><ele>648.0</ele><time>2026-04-06T14:14:06.941Z</time></trkpt><trkpt lat="45.87264243997278" lon="10.75573993808466"><ele>648.0</ele><time>2026-04-06T14:14:07.941Z</time></trkpt><trkpt lat="45.872652890170855" lon="10.755835725564516"><ele>648.0</ele><time>2026-04-06T14:14:08.941Z</time></trkpt><trkpt lat="45.87269953120677" lon="10.755911047342792"><ele>648.0</ele><time>2026-04-06T14:14:09.941Z</time></trkpt><trkpt lat="45.872746697445336" lon="10.755977852702221"><ele>648.0</ele><time>2026-04-06T14:14:10.941Z</time></trkpt><trkpt lat="45.872786452991335" lon="10.75605394748258"><ele>648.0</ele><time>2026-04-06T14:14:11.941Z</time></trkpt><trkpt lat="45.87281270789379" lon="10.756149451481493"><ele>648.0</ele><time>2026-04-06T14:14:12.941Z</time></trkpt><trkpt lat="45.87280399196725" lon="10.75626844421576"><ele>648.0</ele><time>2026-04-06T14:14:13.941Z</time></trkpt><trkpt lat="45.872823629952485" lon="10.756372927964504"><ele>648.0</ele><time>2026-04-06T14:14:14.941Z</time></trkpt><trkpt lat="45.872842825926185" lon="10.756462318052792"><ele>648.0</ele><time>2026-04-06T14:14:15.941Z</time></trkpt><trkpt lat="45.87283316607436" lon="10.756657546663062"><ele>648.0</ele><time>2026-04-06T14:14:17.941Z</time></trkpt><trkpt lat="45.87281231443331" lon="10.75676887263793"><ele>648.0</ele><time>2026-04-06T14:14:18.941Z</time></trkpt><trkpt lat="45.8727865668306" lon="10.756907108316966"><ele>648.0</ele><time>2026-04-06T14:14:19.941Z</time></trkpt><trkpt lat="45.87277487123247" lon="10.757024948712456"><ele>648.0</ele><time>2026-04-06T14:14:20.941Z</time></trkpt><trkpt lat="45.8727754541604" lon="10.757137137740234"><ele>648.0</ele><time>2026-04-06T14:14:21.941Z</time></trkpt><trkpt lat="45.872777192738695" lon="10.757234979740401"><ele>648.0</ele><time>2026-04-06T14:14:22.941Z</time></trkpt><trkpt lat="45.87277273081982" lon="10.757340478816415"><ele>648.0</ele><time>2026-04-06T14:14:24.941Z</time></trkpt><trkpt lat="45.872764990809" lon="10.757452216318336"><ele>648.0</ele><time>2026-04-06T14:14:28.941Z</time></trkpt><trkpt lat="45.87274980365434" lon="10.757543224636557"><ele>648.0</ele><time>2026-04-06T14:14:30.941Z</time></trkpt><trkpt lat="45.872737260860795" lon="10.757653248446445"><ele>648.0</ele><time>2026-04-06T14:14:32.941Z</time></trkpt><trkpt lat="45.872707338420646" lon="10.757797600356156"><ele>648.0</ele><time>2026-04-06T14:14:34.941Z</time></trkpt><trkpt lat="45.87266063958539" lon="10.757943214600951"><ele>648.0</ele><time>2026-04-06T14:14:36.941Z</time></trkpt><trkpt lat="45.87261807750215" lon="10.758082924594508"><ele>648.0</ele><time>2026-04-06T14:14:38.941Z</time></trkpt><trkpt lat="45.87259743259539" lon="10.758174744189654"><ele>648.0</ele><time>2026-04-06T14:14:39.941Z</time></trkpt><trkpt lat="45.872575224638204" lon="10.758284890535984"><ele>648.0</ele><time>2026-04-06T14:14:40.941Z</time></trkpt><trkpt lat="45.87254373198133" lon="10.758397164124885"><ele>648.0</ele><time>2026-04-06T14:14:41.941Z</time></trkpt><trkpt lat="45.87251088012924" lon="10.758514339447485"><ele>648.0</ele><time>2026-04-06T14:14:42.941Z</time></trkpt><trkpt lat="45.87247885411211" lon="10.758597339263764"><ele>648.0</ele><time>2026-04-06T14:14:43.941Z</time></trkpt><trkpt lat="45.87245528634877" lon="10.75869102461141"><ele>648.0</ele><time>2026-04-06T14:14:44.941Z</time></trkpt><trkpt lat="45.87237877594138" lon="10.75882715435773"><ele>648.0</ele><time>2026-04-06T14:14:46.941Z</time></trkpt><trkpt lat="45.87232423341427" lon="10.758880748946487"><ele>648.0</ele><time>2026-04-06T14:14:47.941Z</time></trkpt><trkpt lat="45.872204305860436" lon="10.758923462180565"><ele>648.0</ele><time>2026-04-06T14:14:49.941Z</time></trkpt><trkpt lat="45.872122729346536" lon="10.758867904207879"><ele>648.0</ele><time>2026-04-06T14:14:50.941Z</time></trkpt><trkpt lat="45.872048644221955" lon="10.758840621082873"><ele>648.0</ele><time>2026-04-06T14:14:51.941Z</time></trkpt><trkpt lat="45.8719702647865" lon="10.758839586102466"><ele>648.0</ele><time>2026-04-06T14:14:52.941Z</time></trkpt><trkpt lat="45.871883981339934" lon="10.758829812552355"><ele>648.0</ele><time>2026-04-06T14:14:53.941Z</time></trkpt><trkpt lat="45.871815725587616" lon="10.758799240715131"><ele>648.0</ele><time>2026-04-06T14:14:54.941Z</time></trkpt><trkpt lat="45.87172655131653" lon="10.758764493931407"><ele>648.0</ele><time>2026-04-06T14:14:55.941Z</time></trkpt><trkpt lat="45.871642255817385" lon="10.758775133377199"><ele>648.0</ele><time>2026-04-06T14:14:56.941Z</time></trkpt><trkpt lat="45.871551968178075" lon="10.758809936527111"><ele>648.0</ele><time>2026-04-06T14:14:57.941Z</time></trkpt><trkpt lat="45.8714783495643" lon="10.758880664602449"><ele>648.0</ele><time>2026-04-06T14:14:58.941Z</time></trkpt><trkpt lat="45.87141542652793" lon="10.758981241618494"><ele>648.0</ele><time>2026-04-06T14:14:59.941Z</time></trkpt><trkpt lat="45.87136716728003" lon="10.759106164905553"><ele>648.0</ele><time>2026-04-06T14:15:00.941Z</time></trkpt><trkpt lat="45.87134734553022" lon="10.759250001631433"><ele>648.0</ele><time>2026-04-06T14:15:01.941Z</time></trkpt><trkpt lat="45.871333865987765" lon="10.75944055234786"><ele>648.0</ele><time>2026-04-06T14:15:02.941Z</time></trkpt><trkpt lat="45.87137165822709" lon="10.75966856652487"><ele>648.0</ele><time>2026-04-06T14:15:03.941Z</time></trkpt><trkpt lat="45.87139042861164" lon="10.759876258672419"><ele>648.0</ele><time>2026-04-06T14:15:04.941Z</time></trkpt><trkpt lat="45.87138376700139" lon="10.760035336327253"><ele>648.0</ele><time>2026-04-06T14:15:05.941Z</time></trkpt><trkpt lat="45.87137377678864" lon="10.759876722494225"><ele>648.0</ele><time>2026-04-06T14:15:06.941Z</time></trkpt><trkpt lat="45.8713612979594" lon="10.759994312958582"><ele>648.0</ele><time>2026-04-06T14:15:07.941Z</time></trkpt><trkpt lat="45.871344895143224" lon="10.760088104486389"><ele>648.0</ele><time>2026-04-06T14:15:08.941Z</time></trkpt><trkpt lat="45.87132624465423" lon="10.760177122863444"><ele>648.0</ele><time>2026-04-06T14:15:09.941Z</time></trkpt><trkpt lat="45.871318491358615" lon="10.760268680424351"><ele>648.0</ele><time>2026-04-06T14:15:10.941Z</time></trkpt><trkpt lat="45.87129545790698" lon="10.760446848764428"><ele>648.0</ele><time>2026-04-06T14:15:12.941Z</time></trkpt><trkpt lat="45.87129518698134" lon="10.76053936059877"><ele>648.0</ele><time>2026-04-06T14:15:13.941Z</time></trkpt><trkpt lat="45.871303454467345" lon="10.760671775341198"><ele>648.0</ele><time>2026-04-06T14:15:15.941Z</time></trkpt><trkpt lat="45.87134271728057" lon="10.760789792446692"><ele>648.0</ele><time>2026-04-06T14:15:17.941Z</time></trkpt><trkpt lat="45.8713906354699" lon="10.760900843535095"><ele>648.0</ele><time>2026-04-06T14:15:19.941Z</time></trkpt><trkpt lat="45.87145387142054" lon="10.761018258660007"><ele>648.0</ele><time>2026-04-06T14:15:21.941Z</time></trkpt><trkpt lat="45.871536894386765" lon="10.76112291111553"><ele>648.0</ele><time>2026-04-06T14:15:23.941Z</time></trkpt><trkpt lat="45.871648121312006" lon="10.761242046495127"><ele>648.0</ele><time>2026-04-06T14:15:25.941Z</time></trkpt><trkpt lat="45.87172541868925" lon="10.761303238330514"><ele>648.0</ele><time>2026-04-06T14:15:26.941Z</time></trkpt><trkpt lat="45.87181630528462" lon="10.761387303773395"><ele>648.0</ele><time>2026-04-06T14:15:27.941Z</time></trkpt><trkpt lat="45.871903311731366" lon="10.761455350525573"><ele>648.0</ele><time>2026-04-06T14:15:28.941Z</time></trkpt><trkpt lat="45.87199014518153" lon="10.761526696903237"><ele>648.0</ele><time>2026-04-06T14:15:29.941Z</time></trkpt><trkpt lat="45.872074088297666" lon="10.761602993149051"><ele>648.0</ele><time>2026-04-06T14:15:30.941Z</time></trkpt><trkpt lat="45.872161801531504" lon="10.761699097413027"><ele>648.0</ele><time>2026-04-06T14:15:31.941Z</time></trkpt><trkpt lat="45.872245274077024" lon="10.761809599816868"><ele>648.0</ele><time>2026-04-06T14:15:32.941Z</time></trkpt><trkpt lat="45.87233087153578" lon="10.761893372495528"><ele>648.0</ele><time>2026-04-06T14:15:33.941Z</time></trkpt><trkpt lat="45.872396123161046" lon="10.76198233706508"><ele>648.0</ele><time>2026-04-06T14:15:34.941Z</time></trkpt><trkpt lat="45.87245703718305" lon="10.762070930888608"><ele>648.0</ele><time>2026-04-06T14:15:35.941Z</time></trkpt><trkpt lat="45.87251928581366" lon="10.762158313297649"><ele>648.0</ele><time>2026-04-06T14:15:36.941Z</time></trkpt><trkpt lat="45.872575748730455" lon="10.762255196977478"><ele>648.0</ele><time>2026-04-06T14:15:37.941Z</time></trkpt><trkpt lat="45.87262473449608" lon="10.762358952783508"><ele>648.0</ele><time>2026-04-06T14:15:38.941Z</time></trkpt><trkpt lat="45.87266483601938" lon="10.762471656986847"><ele>648.0</ele><time>2026-04-06T14:15:39.941Z</time></trkpt><trkpt lat="45.87269746781461" lon="10.76258412096341"><ele>648.0</ele><time>2026-04-06T14:15:40.941Z</time></trkpt><trkpt lat="45.87272438725207" lon="10.762699273311803"><ele>648.0</ele><time>2026-04-06T14:15:41.94Z</time></trkpt><trkpt lat="45.87275019276442" lon="10.7628060273271"><ele>648.0</ele><time>2026-04-06T14:15:42.94Z</time></trkpt><trkpt lat="45.87277380883481" lon="10.762897571324231"><ele>648.0</ele><time>2026-04-06T14:15:43.94Z</time></trkpt><trkpt lat="45.872797747557115" lon="10.7629828289688"><ele>648.0</ele><time>2026-04-06T14:15:44.94Z</time></trkpt><trkpt lat="45.872835940340494" lon="10.763138976609534"><ele>648.0</ele><time>2026-04-06T14:15:46.94Z</time></trkpt><trkpt lat="45.872857434167905" lon="10.763232151847498"><ele>648.0</ele><time>2026-04-06T14:15:47.94Z</time></trkpt><trkpt lat="45.87288248567339" lon="10.763337360582026"><ele>648.0</ele><time>2026-04-06T14:15:48.94Z</time></trkpt><trkpt lat="45.87290667357847" lon="10.763452161540032"><ele>648.0</ele><time>2026-04-06T14:15:49.94Z</time></trkpt><trkpt lat="45.87293670835116" lon="10.763572194078085"><ele>648.0</ele><time>2026-04-06T14:15:50.94Z</time></trkpt><trkpt lat="45.87297640230685" lon="10.763695970061775"><ele>648.0</ele><time>2026-04-06T14:15:51.94Z</time></trkpt><trkpt lat="45.873028251058855" lon="10.763804363354492"><ele>648.0</ele><time>2026-04-06T14:15:52.94Z</time></trkpt><trkpt lat="45.87308184438167" lon="10.76389831615928"><ele>648.0</ele><time>2026-04-06T14:15:53.94Z</time></trkpt><trkpt lat="45.873128373830546" lon="10.763988784529662"><ele>648.0</ele><time>2026-04-06T14:15:54.94Z</time></trkpt><trkpt lat="45.87320417457012" lon="10.764052050760936"><ele>648.0</ele><time>2026-04-06T14:15:55.94Z</time></trkpt><trkpt lat="45.873272221012094" lon="10.764131768339402"><ele>648.0</ele><time>2026-04-06T14:15:56.94Z</time></trkpt><trkpt lat="45.8733448882289" lon="10.764206092187639"><ele>648.0</ele><time>2026-04-06T14:15:57.94Z</time></trkpt><trkpt lat="45.873412242296375" lon="10.764283471439688"><ele>648.0</ele><time>2026-04-06T14:15:58.94Z</time></trkpt><trkpt lat="45.87348169724182" lon="10.76435344248179"><ele>648.0</ele><time>2026-04-06T14:15:59.94Z</time></trkpt><trkpt lat="45.87355009121485" lon="10.764418583939483"><ele>648.0</ele><time>2026-04-06T14:16:00.94Z</time></trkpt><trkpt lat="45.87361774520125" lon="10.764482870776042"><ele>648.0</ele><time>2026-04-06T14:16:01.94Z</time></trkpt><trkpt lat="45.873674995584835" lon="10.764543884814788"><ele>648.0</ele><time>2026-04-06T14:16:02.94Z</time></trkpt><trkpt lat="45.87372818331754" lon="10.764626713901938"><ele>648.0</ele><time>2026-04-06T14:16:03.94Z</time></trkpt><trkpt lat="45.87377322180354" lon="10.764721060931729"><ele>648.0</ele><time>2026-04-06T14:16:04.94Z</time></trkpt><trkpt lat="45.87381119592807" lon="10.764832432887125"><ele>648.0</ele><time>2026-04-06T14:16:05.94Z</time></trkpt><trkpt lat="45.87382740073343" lon="10.764949778612989"><ele>648.0</ele><time>2026-04-06T14:16:06.94Z</time></trkpt><trkpt lat="45.87382053981939" lon="10.765046071570355"><ele>648.0</ele><time>2026-04-06T14:16:07.94Z</time></trkpt><trkpt lat="45.873794695704724" lon="10.76514158947262"><ele>648.0</ele><time>2026-04-06T14:16:08.94Z</time></trkpt><trkpt lat="45.87376922624918" lon="10.765233302789797"><ele>648.0</ele><time>2026-04-06T14:16:09.94Z</time></trkpt><trkpt lat="45.87374248246524" lon="10.765317707111159"><ele>648.0</ele><time>2026-04-06T14:16:10.94Z</time></trkpt><trkpt lat="45.87371686131796" lon="10.7654103411123"><ele>648.0</ele><time>2026-04-06T14:16:11.94Z</time></trkpt><trkpt lat="45.87369060642112" lon="10.765507727036885"><ele>648.0</ele><time>2026-04-06T14:16:12.94Z</time></trkpt><trkpt lat="45.87366729752153" lon="10.765604200275618"><ele>648.0</ele><time>2026-04-06T14:16:13.94Z</time></trkpt><trkpt lat="45.873641723878016" lon="10.76571949359396"><ele>648.0</ele><time>2026-04-06T14:16:14.94Z</time></trkpt><trkpt lat="45.87361059263171" lon="10.76582179502244"><ele>648.0</ele><time>2026-04-06T14:16:15.94Z</time></trkpt><trkpt lat="45.87357832591563" lon="10.765938616048086"><ele>648.0</ele><time>2026-04-06T14:16:16.94Z</time></trkpt><trkpt lat="45.873543742414505" lon="10.76603901595435"><ele>648.0</ele><time>2026-04-06T14:16:17.94Z</time></trkpt><trkpt lat="45.87352069712313" lon="10.76614022538459"><ele>648.0</ele><time>2026-04-06T14:16:18.94Z</time></trkpt><trkpt lat="45.87348832604904" lon="10.76622219804096"><ele>648.0</ele><time>2026-04-06T14:16:19.94Z</time></trkpt><trkpt lat="45.87342703790454" lon="10.766363832839629"><ele>648.0</ele><time>2026-04-06T14:16:21.94Z</time></trkpt><trkpt lat="45.87336749880974" lon="10.766481222642607"><ele>648.0</ele><time>2026-04-06T14:16:23.94Z</time></trkpt><trkpt lat="45.873313686322994" lon="10.76661661009825"><ele>648.0</ele><time>2026-04-06T14:16:25.94Z</time></trkpt><trkpt lat="45.87325926433507" lon="10.766708955229658"><ele>648.0</ele><time>2026-04-06T14:16:27.94Z</time></trkpt><trkpt lat="45.87333032332687" lon="10.766854966529403"><ele>648.0</ele><time>2026-04-06T14:16:28.94Z</time></trkpt><trkpt lat="45.87339167270604" lon="10.766989320514188"><ele>648.0</ele><time>2026-04-06T14:16:30.94Z</time></trkpt><trkpt lat="45.87331410731548" lon="10.767241539095089"><ele>648.0</ele><time>2026-04-06T14:16:32.94Z</time></trkpt><trkpt lat="45.8732721949237" lon="10.767347878960011"><ele>648.0</ele><time>2026-04-06T14:16:33.94Z</time></trkpt><trkpt lat="45.873229480958145" lon="10.767454515977834"><ele>648.0</ele><time>2026-04-06T14:16:34.94Z</time></trkpt><trkpt lat="45.873200064490746" lon="10.767561776443697"><ele>648.0</ele><time>2026-04-06T14:16:35.94Z</time></trkpt><trkpt lat="45.87315779961358" lon="10.767669614289455"><ele>648.0</ele><time>2026-04-06T14:16:36.94Z</time></trkpt><trkpt lat="45.87311833173413" lon="10.767780347585346"><ele>648.0</ele><time>2026-04-06T14:16:37.94Z</time></trkpt><trkpt lat="45.873049783088" lon="10.767892968033186"><ele>648.0</ele><time>2026-04-06T14:16:38.94Z</time></trkpt><trkpt lat="45.8729765235968" lon="10.768047374477245"><ele>661.8</ele><time>2026-04-06T14:16:39.94Z</time></trkpt><trkpt lat="45.872909360278086" lon="10.768177041912766"><ele>675.5999999999999</ele><time>2026-04-06T14:16:40.94Z</time></trkpt><trkpt lat="45.87285137456322" lon="10.768302620660737"><ele>689.4000000000001</ele><time>2026-04-06T14:16:41.94Z</time></trkpt><trkpt lat="45.872792248995594" lon="10.768440280776757"><ele>703.2</ele><time>2026-04-06T14:16:42.94Z</time></trkpt><trkpt lat="45.872740206976474" lon="10.76859375673386"><ele>717.0</ele><time>2026-04-06T14:16:43.94Z</time></trkpt><trkpt lat="45.87269999055519" lon="10.76874833738008"><ele>717.0</ele><time>2026-04-06T14:16:44.94Z</time></trkpt><trkpt lat="45.87267494220776" lon="10.768896165153164"><ele>717.0</ele><time>2026-04-06T14:16:45.94Z</time></trkpt><trkpt lat="45.87264367172276" lon="10.769044594865143"><ele>717.0</ele><time>2026-04-06T14:16:46.94Z</time></trkpt><trkpt lat="45.87260562654879" lon="10.769206817814595"><ele>717.0</ele><time>2026-04-06T14:16:47.94Z</time></trkpt><trkpt lat="45.872566747395865" lon="10.769373089089285"><ele>717.0</ele><time>2026-04-06T14:16:48.94Z</time></trkpt><trkpt lat="45.87253453562461" lon="10.76951708647565"><ele>717.0</ele><time>2026-04-06T14:16:49.94Z</time></trkpt><trkpt lat="45.87249627463747" lon="10.769665892100234"><ele>717.0</ele><time>2026-04-06T14:16:50.94Z</time></trkpt><trkpt lat="45.872458101797974" lon="10.769826631037406"><ele>717.0</ele><time>2026-04-06T14:16:51.94Z</time></trkpt><trkpt lat="45.87241021302524" lon="10.769999941764452"><ele>717.0</ele><time>2026-04-06T14:16:52.94Z</time></trkpt><trkpt lat="45.872360912313525" lon="10.770154588459167"><ele>717.0</ele><time>2026-04-06T14:16:53.94Z</time></trkpt><trkpt lat="45.87231528196094" lon="10.770306471214154"><ele>717.0</ele><time>2026-04-06T14:16:54.94Z</time></trkpt><trkpt lat="45.87227644434446" lon="10.770439392788896"><ele>717.0</ele><time>2026-04-06T14:16:55.94Z</time></trkpt><trkpt lat="45.87223923504342" lon="10.770551698655217"><ele>717.0</ele><time>2026-04-06T14:16:56.94Z</time></trkpt><trkpt lat="45.87221257303781" lon="10.77063660587864"><ele>717.0</ele><time>2026-04-06T14:16:57.94Z</time></trkpt><trkpt lat="45.872178387887345" lon="10.77074140924385"><ele>717.0</ele><time>2026-04-06T14:16:59.94Z</time></trkpt><trkpt lat="45.87213464119812" lon="10.770816772459005"><ele>717.0</ele><time>2026-04-06T14:17:04.94Z</time></trkpt><trkpt lat="45.87208990260786" lon="10.770901489032418"><ele>717.0</ele><time>2026-04-06T14:18:58.94Z</time></trkpt><trkpt lat="45.8721469105822" lon="10.770857012391204"><ele>717.0</ele><time>2026-04-06T14:20:25.94Z</time></trkpt><trkpt lat="45.87213884288852" lon="10.770974234684719"><ele>717.0</ele><time>2026-04-06T14:24:12.941Z</time></trkpt><trkpt lat="45.87209377890729" lon="10.771088825792699"><ele>717.0</ele><time>2026-04-06T14:24:17.941Z</time></trkpt><trkpt lat="45.87207903050396" lon="10.771183087497025"><ele>717.0</ele><time>2026-04-06T14:24:18.941Z</time></trkpt><trkpt lat="45.87204779535336" lon="10.771288808231265"><ele>717.0</ele><time>2026-04-06T14:24:19.941Z</time></trkpt><trkpt lat="45.87198814477576" lon="10.771458512249831"><ele>717.0</ele><time>2026-04-06T14:24:21.941Z</time></trkpt><trkpt lat="45.87195668538796" lon="10.771557959017159"><ele>717.0</ele><time>2026-04-06T14:24:22.941Z</time></trkpt><trkpt lat="45.87192828733485" lon="10.771649760840619"><ele>717.0</ele><time>2026-04-06T14:24:23.941Z</time></trkpt><trkpt lat="45.87187755968246" lon="10.771797757836236"><ele>717.0</ele><time>2026-04-06T14:24:25.941Z</time></trkpt><trkpt lat="45.871834767124284" lon="10.771955431708301"><ele>717.0</ele><time>2026-04-06T14:24:27.941Z</time></trkpt><trkpt lat="45.87180551504967" lon="10.772059987832176"><ele>717.0</ele><time>2026-04-06T14:24:28.941Z</time></trkpt><trkpt lat="45.87176501401025" lon="10.772192541866866"><ele>717.0</ele><time>2026-04-06T14:24:29.941Z</time></trkpt><trkpt lat="45.8717240198553" lon="10.77232740053635"><ele>717.0</ele><time>2026-04-06T14:24:30.941Z</time></trkpt><trkpt lat="45.87168270598981" lon="10.772455031437481"><ele>717.0</ele><time>2026-04-06T14:24:31.941Z</time></trkpt><trkpt lat="45.871642110879804" lon="10.772581055738915"><ele>717.0</ele><time>2026-04-06T14:24:32.941Z</time></trkpt><trkpt lat="45.87160981712596" lon="10.77269941292808"><ele>717.0</ele><time>2026-04-06T14:24:33.941Z</time></trkpt><trkpt lat="45.87158241321234" lon="10.772808073147766"><ele>717.0</ele><time>2026-04-06T14:24:34.941Z</time></trkpt><trkpt lat="45.87154702957911" lon="10.772914568272265"><ele>717.0</ele><time>2026-04-06T14:24:35.941Z</time></trkpt><trkpt lat="45.87150786957217" lon="10.773024724168922"><ele>717.0</ele><time>2026-04-06T14:24:36.941Z</time></trkpt><trkpt lat="45.87148114304293" lon="10.773128968429049"><ele>717.0</ele><time>2026-04-06T14:24:37.941Z</time></trkpt><trkpt lat="45.87147681761942" lon="10.77324089775337"><ele>717.0</ele><time>2026-04-06T14:24:38.941Z</time></trkpt><trkpt lat="45.87148099228676" lon="10.773364974712722"><ele>717.0</ele><time>2026-04-06T14:24:39.941Z</time></trkpt><trkpt lat="45.87150559222753" lon="10.773498022921176"><ele>717.0</ele><time>2026-04-06T14:24:40.941Z</time></trkpt><trkpt lat="45.87152824071817" lon="10.77362443643793"><ele>717.0</ele><time>2026-04-06T14:24:41.941Z</time></trkpt><trkpt lat="45.871563477862225" lon="10.773744183597081"><ele>717.0</ele><time>2026-04-06T14:24:42.941Z</time></trkpt><trkpt lat="45.8715882687125" lon="10.773875640525135"><ele>717.0</ele><time>2026-04-06T14:24:43.941Z</time></trkpt><trkpt lat="45.87163517893181" lon="10.773989982670944"><ele>717.0</ele><time>2026-04-06T14:24:44.941Z</time></trkpt><trkpt lat="45.871678354991985" lon="10.77411065170614"><ele>717.0</ele><time>2026-04-06T14:24:45.941Z</time></trkpt><trkpt lat="45.87171155726603" lon="10.774232040104177"><ele>717.0</ele><time>2026-04-06T14:24:46.941Z</time></trkpt><trkpt lat="45.87173179717317" lon="10.77435228511098"><ele>717.0</ele><time>2026-04-06T14:24:47.941Z</time></trkpt><trkpt lat="45.87175388704777" lon="10.774478039501833"><ele>707.8333333333334</ele><time>2026-04-06T14:24:48.941Z</time></trkpt><trkpt lat="45.871774758939026" lon="10.774601975367354"><ele>698.6666666666666</ele><time>2026-04-06T14:24:49.941Z</time></trkpt><trkpt lat="45.87180131745448" lon="10.774727519982076"><ele>689.5</ele><time>2026-04-06T14:24:50.941Z</time></trkpt><trkpt lat="45.871820636236855" lon="10.774851987592154"><ele>680.3333333333333</ele><time>2026-04-06T14:24:51.941Z</time></trkpt><trkpt lat="45.871843187815145" lon="10.77497654694021"><ele>671.1666666666666</ele><time>2026-04-06T14:24:52.941Z</time></trkpt><trkpt lat="45.87186445516856" lon="10.775098284805386"><ele>662.0</ele><time>2026-04-06T14:24:53.941Z</time></trkpt><trkpt lat="45.871875687395594" lon="10.775225818168401"><ele>662.0</ele><time>2026-04-06T14:24:54.941Z</time></trkpt><trkpt lat="45.8719061952096" lon="10.77534475608708"><ele>662.0</ele><time>2026-04-06T14:24:55.941Z</time></trkpt><trkpt lat="45.87194998319382" lon="10.775463995912123"><ele>662.0</ele><time>2026-04-06T14:24:56.941Z</time></trkpt><trkpt lat="45.87195602632529" lon="10.775599918087169"><ele>662.0</ele><time>2026-04-06T14:24:57.941Z</time></trkpt><trkpt lat="45.87197304518885" lon="10.775751190099099"><ele>662.0</ele><time>2026-04-06T14:24:58.941Z</time></trkpt><trkpt lat="45.871973351231155" lon="10.775916187786496"><ele>662.6</ele><time>2026-04-06T14:24:59.941Z</time></trkpt><trkpt lat="45.871972315478274" lon="10.776070224534417"><ele>663.2</ele><time>2026-04-06T14:25:00.941Z</time></trkpt><trkpt lat="45.871975348739454" lon="10.776225124290447"><ele>663.8</ele><time>2026-04-06T14:25:01.941Z</time></trkpt><trkpt lat="45.87198292680998" lon="10.776382337947748"><ele>664.4</ele><time>2026-04-06T14:25:02.941Z</time></trkpt><trkpt lat="45.87199195034881" lon="10.776539858208093"><ele>665.0</ele><time>2026-04-06T14:25:03.941Z</time></trkpt><trkpt lat="45.87200253858571" lon="10.776690521018145"><ele>665.0</ele><time>2026-04-06T14:25:04.941Z</time></trkpt><trkpt lat="45.87201247922379" lon="10.776836218103119"><ele>665.0</ele><time>2026-04-06T14:25:05.941Z</time></trkpt><trkpt lat="45.87201482775869" lon="10.776988663514988"><ele>665.0</ele><time>2026-04-06T14:25:06.941Z</time></trkpt><trkpt lat="45.87201307466237" lon="10.777141344064932"><ele>665.0</ele><time>2026-04-06T14:25:07.941Z</time></trkpt><trkpt lat="45.87201127494035" lon="10.777292763268512"><ele>665.0</ele><time>2026-04-06T14:25:08.941Z</time></trkpt><trkpt lat="45.872000503127005" lon="10.777450259266336"><ele>664.0</ele><time>2026-04-06T14:25:09.941Z</time></trkpt><trkpt lat="45.87198533577559" lon="10.777603033150758"><ele>663.0</ele><time>2026-04-06T14:25:10.941Z</time></trkpt><trkpt lat="45.87197340076313" lon="10.777760080319698"><ele>662.0</ele><time>2026-04-06T14:25:11.941Z</time></trkpt><trkpt lat="45.87195962905528" lon="10.777903064526706"><ele>661.0</ele><time>2026-04-06T14:25:12.941Z</time></trkpt><trkpt lat="45.87194300752935" lon="10.778033417774362"><ele>660.0</ele><time>2026-04-06T14:25:13.941Z</time></trkpt><trkpt lat="45.871918135226" lon="10.778152133880974"><ele>657.4</ele><time>2026-04-06T14:25:14.941Z</time></trkpt><trkpt lat="45.871892151524094" lon="10.77827043629689"><ele>654.8</ele><time>2026-04-06T14:25:15.941Z</time></trkpt><trkpt lat="45.871861506332905" lon="10.77839648500055"><ele>652.2</ele><time>2026-04-06T14:25:16.941Z</time></trkpt><trkpt lat="45.87183139055616" lon="10.778521155324004"><ele>649.6</ele><time>2026-04-06T14:25:17.941Z</time></trkpt><trkpt lat="45.871805232329926" lon="10.778613495842704"><ele>647.0</ele><time>2026-04-06T14:25:18.941Z</time></trkpt><trkpt lat="45.871776994802076" lon="10.778775285016106"><ele>641.5</ele><time>2026-04-06T14:25:20.941Z</time></trkpt><trkpt lat="45.87175684463541" lon="10.778918911782027"><ele>636.0</ele><time>2026-04-06T14:25:22.941Z</time></trkpt><trkpt lat="45.87172411798981" lon="10.77902316641755"><ele>630.5</ele><time>2026-04-06T14:25:24.941Z</time></trkpt><trkpt lat="45.871661485832945" lon="10.779055212568705"><ele>625.0</ele><time>2026-04-06T14:25:26.941Z</time></trkpt><trkpt lat="45.87160106317157" lon="10.778954601290561"><ele>619.5</ele><time>2026-04-06T14:25:28.941Z</time></trkpt><trkpt lat="45.8716163358503" lon="10.778808335661871"><ele>614.0</ele><time>2026-04-06T14:25:30.941Z</time></trkpt><trkpt lat="45.87163529593446" lon="10.778677701585831"><ele>614.0</ele><time>2026-04-06T14:25:32.941Z</time></trkpt><trkpt lat="45.87165094584382" lon="10.778526650719051"><ele>614.0</ele><time>2026-04-06T14:25:34.941Z</time></trkpt><trkpt lat="45.87167454122897" lon="10.778425566509066"><ele>614.0</ele><time>2026-04-06T14:25:35.941Z</time></trkpt><trkpt lat="45.871707157398504" lon="10.778331529887742"><ele>614.0</ele><time>2026-04-06T14:25:36.941Z</time></trkpt><trkpt lat="45.87174064225372" lon="10.778244008927976"><ele>614.0</ele><time>2026-04-06T14:25:37.941Z</time></trkpt><trkpt lat="45.87177928645379" lon="10.77807823631873"><ele>614.0</ele><time>2026-04-06T14:25:39.941Z</time></trkpt><trkpt lat="45.87174144672557" lon="10.777910260337588"><ele>614.0</ele><time>2026-04-06T14:25:41.941Z</time></trkpt><trkpt lat="45.871690520546636" lon="10.7778378119108"><ele>614.0</ele><time>2026-04-06T14:25:42.941Z</time></trkpt><trkpt lat="45.871623909369916" lon="10.777796425751136"><ele>614.0</ele><time>2026-04-06T14:25:43.941Z</time></trkpt><trkpt lat="45.871546631672636" lon="10.777804559727503"><ele>614.0</ele><time>2026-04-06T14:25:44.941Z</time></trkpt><trkpt lat="45.87148135665346" lon="10.777869281502255"><ele>614.0</ele><time>2026-04-06T14:25:45.941Z</time></trkpt><trkpt lat="45.87143523987959" lon="10.777985240307494"><ele>614.0</ele><time>2026-04-06T14:25:46.941Z</time></trkpt><trkpt lat="45.87140166648036" lon="10.77814409770726"><ele>614.0</ele><time>2026-04-06T14:25:47.941Z</time></trkpt><trkpt lat="45.87138293378715" lon="10.778307816279938"><ele>614.0</ele><time>2026-04-06T14:25:48.941Z</time></trkpt><trkpt lat="45.87136764139527" lon="10.77846609736163"><ele>614.0</ele><time>2026-04-06T14:25:49.941Z</time></trkpt><trkpt lat="45.87133428319958" lon="10.778638104656467"><ele>614.0</ele><time>2026-04-06T14:25:50.941Z</time></trkpt><trkpt lat="45.871292328007684" lon="10.778815945277396"><ele>614.0</ele><time>2026-04-06T14:25:51.941Z</time></trkpt><trkpt lat="45.87124997745787" lon="10.779043026095893"><ele>614.0</ele><time>2026-04-06T14:25:52.941Z</time></trkpt><trkpt lat="45.87121177018235" lon="10.779257585751106"><ele>614.0</ele><time>2026-04-06T14:25:53.941Z</time></trkpt><trkpt lat="45.87117711487124" lon="10.779456720956308"><ele>615.25</ele><time>2026-04-06T14:25:54.941Z</time></trkpt><trkpt lat="45.87113638543874" lon="10.779647551604343"><ele>616.5</ele><time>2026-04-06T14:25:55.941Z</time></trkpt><trkpt lat="45.87109547213491" lon="10.779839181888462"><ele>617.75</ele><time>2026-04-06T14:25:56.941Z</time></trkpt><trkpt lat="45.8710556795044" lon="10.780017987765142"><ele>619.0</ele><time>2026-04-06T14:25:57.941Z</time></trkpt><trkpt lat="45.871018673245544" lon="10.780198021207777"><ele>623.0</ele><time>2026-04-06T14:25:58.941Z</time></trkpt><trkpt lat="45.87098305945118" lon="10.780368793744914"><ele>627.0</ele><time>2026-04-06T14:25:59.941Z</time></trkpt><trkpt lat="45.8709513858154" lon="10.780534478959508"><ele>631.0</ele><time>2026-04-06T14:26:00.941Z</time></trkpt><trkpt lat="45.87092567383275" lon="10.780699990294657"><ele>635.0</ele><time>2026-04-06T14:26:01.941Z</time></trkpt><trkpt lat="45.87090907168788" lon="10.780866200396911"><ele>626.4</ele><time>2026-04-06T14:26:02.941Z</time></trkpt><trkpt lat="45.8709042196289" lon="10.781029386372156"><ele>617.8</ele><time>2026-04-06T14:26:03.941Z</time></trkpt><trkpt lat="45.870899277118774" lon="10.78119649774889"><ele>609.2</ele><time>2026-04-06T14:26:04.941Z</time></trkpt><trkpt lat="45.87089163134127" lon="10.781345415128483"><ele>600.6</ele><time>2026-04-06T14:26:05.941Z</time></trkpt><trkpt lat="45.87088339205175" lon="10.78147742239653"><ele>592.0</ele><time>2026-04-06T14:26:06.941Z</time></trkpt><trkpt lat="45.87086513207042" lon="10.781607524768098"><ele>592.0</ele><time>2026-04-06T14:26:07.941Z</time></trkpt><trkpt lat="45.87083392913458" lon="10.781740261880037"><ele>592.0</ele><time>2026-04-06T14:26:08.941Z</time></trkpt><trkpt lat="45.87078337209357" lon="10.781863969629752"><ele>592.0</ele><time>2026-04-06T14:26:09.941Z</time></trkpt><trkpt lat="45.87072047457876" lon="10.781972443888643"><ele>592.0</ele><time>2026-04-06T14:26:10.941Z</time></trkpt><trkpt lat="45.870651789137895" lon="10.78207601153175"><ele>592.0</ele><time>2026-04-06T14:26:11.941Z</time></trkpt><trkpt lat="45.8705727156945" lon="10.782199103628365"><ele>592.0</ele><time>2026-04-06T14:26:12.941Z</time></trkpt><trkpt lat="45.87049619163554" lon="10.782333368139836"><ele>592.0</ele><time>2026-04-06T14:26:13.941Z</time></trkpt><trkpt lat="45.87042182052969" lon="10.78246256425074"><ele>592.0</ele><time>2026-04-06T14:26:14.941Z</time></trkpt><trkpt lat="45.870352585037644" lon="10.78258951728677"><ele>592.0</ele><time>2026-04-06T14:26:15.941Z</time></trkpt><trkpt lat="45.87029388554218" lon="10.78272939321272"><ele>592.0</ele><time>2026-04-06T14:26:16.941Z</time></trkpt><trkpt lat="45.870242043904526" lon="10.782890391314588"><ele>592.0</ele><time>2026-04-06T14:26:17.941Z</time></trkpt><trkpt lat="45.870186093803824" lon="10.783069163117686"><ele>592.0</ele><time>2026-04-06T14:26:18.941Z</time></trkpt><trkpt lat="45.87012647517225" lon="10.783249902367386"><ele>592.0</ele><time>2026-04-06T14:26:19.941Z</time></trkpt><trkpt lat="45.87006577623525" lon="10.783432971710365"><ele>587.75</ele><time>2026-04-06T14:26:20.941Z</time></trkpt><trkpt lat="45.87000915183373" lon="10.783627267901426"><ele>583.5</ele><time>2026-04-06T14:26:21.941Z</time></trkpt><trkpt lat="45.869956507317696" lon="10.783816403839626"><ele>579.25</ele><time>2026-04-06T14:26:22.941Z</time></trkpt><trkpt lat="45.86990489639742" lon="10.783992677993048"><ele>575.0</ele><time>2026-04-06T14:26:23.941Z</time></trkpt><trkpt lat="45.869858753468165" lon="10.78418949426842"><ele>579.5</ele><time>2026-04-06T14:26:24.941Z</time></trkpt><trkpt lat="45.86980840544672" lon="10.78437231371931"><ele>584.0</ele><time>2026-04-06T14:26:25.941Z</time></trkpt><trkpt lat="45.86976242964255" lon="10.784541600899791"><ele>588.5</ele><time>2026-04-06T14:26:26.941Z</time></trkpt><trkpt lat="45.869714145905654" lon="10.784697172132756"><ele>593.0</ele><time>2026-04-06T14:26:27.941Z</time></trkpt><trkpt lat="45.869655992798485" lon="10.784849948449239"><ele>593.0</ele><time>2026-04-06T14:26:28.941Z</time></trkpt><trkpt lat="45.869600894505716" lon="10.785006767463942"><ele>593.0</ele><time>2026-04-06T14:26:29.941Z</time></trkpt><trkpt lat="45.869544863240584" lon="10.785164646149383"><ele>593.0</ele><time>2026-04-06T14:26:30.941Z</time></trkpt><trkpt lat="45.8694853744862" lon="10.785317551955941"><ele>593.0</ele><time>2026-04-06T14:26:31.941Z</time></trkpt><trkpt lat="45.86942987502471" lon="10.785469222984606"><ele>596.0</ele><time>2026-04-06T14:26:32.941Z</time></trkpt><trkpt lat="45.869377258153165" lon="10.78561664323885"><ele>599.0</ele><time>2026-04-06T14:26:33.941Z</time></trkpt><trkpt lat="45.86932555318512" lon="10.785764552430896"><ele>602.0</ele><time>2026-04-06T14:26:34.941Z</time></trkpt><trkpt lat="45.86927855797283" lon="10.785915468164028"><ele>605.0</ele><time>2026-04-06T14:26:35.941Z</time></trkpt><trkpt lat="45.86924241086948" lon="10.786074200215477"><ele>598.0</ele><time>2026-04-06T14:26:36.941Z</time></trkpt><trkpt lat="45.86922306079497" lon="10.786238779984844"><ele>591.0</ele><time>2026-04-06T14:26:37.941Z</time></trkpt><trkpt lat="45.86921761470835" lon="10.78640291954599"><ele>584.0</ele><time>2026-04-06T14:26:38.941Z</time></trkpt><trkpt lat="45.86920798434767" lon="10.786566032701431"><ele>577.0</ele><time>2026-04-06T14:26:39.941Z</time></trkpt><trkpt lat="45.86918151004489" lon="10.786725739055964"><ele>582.5</ele><time>2026-04-06T14:26:40.941Z</time></trkpt><trkpt lat="45.86912080272253" lon="10.786869311036908"><ele>588.0</ele><time>2026-04-06T14:26:41.941Z</time></trkpt><trkpt lat="45.86907406325996" lon="10.78704473305039"><ele>593.5</ele><time>2026-04-06T14:26:42.941Z</time></trkpt><trkpt lat="45.86901465938891" lon="10.787209927998763"><ele>599.0</ele><time>2026-04-06T14:26:43.941Z</time></trkpt><trkpt lat="45.868956280426545" lon="10.787375983283823"><ele>599.0</ele><time>2026-04-06T14:26:44.941Z</time></trkpt><trkpt lat="45.868900645895074" lon="10.787540536800767"><ele>599.0</ele><time>2026-04-06T14:26:45.941Z</time></trkpt><trkpt lat="45.868842573148434" lon="10.787714267815863"><ele>599.0</ele><time>2026-04-06T14:26:46.941Z</time></trkpt><trkpt lat="45.86878305783038" lon="10.787893980327707"><ele>599.0</ele><time>2026-04-06T14:26:47.941Z</time></trkpt><trkpt lat="45.8687343227721" lon="10.788077264365066"><ele>598.5</ele><time>2026-04-06T14:26:48.941Z</time></trkpt><trkpt lat="45.86869481717485" lon="10.788260404304223"><ele>598.0</ele><time>2026-04-06T14:26:49.941Z</time></trkpt><trkpt lat="45.86866258080064" lon="10.788450471161818"><ele>597.5</ele><time>2026-04-06T14:26:50.941Z</time></trkpt><trkpt lat="45.8686268494513" lon="10.788639658589123"><ele>597.0</ele><time>2026-04-06T14:26:51.941Z</time></trkpt><trkpt lat="45.86858518432174" lon="10.78882036702664"><ele>595.0</ele><time>2026-04-06T14:26:52.941Z</time></trkpt><trkpt lat="45.868547142191645" lon="10.78899590585503"><ele>593.0</ele><time>2026-04-06T14:26:53.941Z</time></trkpt><trkpt lat="45.86851305183694" lon="10.789169901415582"><ele>591.0</ele><time>2026-04-06T14:26:54.941Z</time></trkpt><trkpt lat="45.86848804330379" lon="10.78934801924632"><ele>589.0</ele><time>2026-04-06T14:26:55.941Z</time></trkpt><trkpt lat="45.868472298944674" lon="10.789535607030254"><ele>589.0</ele><time>2026-04-06T14:26:56.941Z</time></trkpt><trkpt lat="45.86845575956058" lon="10.789711761840183"><ele>589.0</ele><time>2026-04-06T14:26:57.941Z</time></trkpt><trkpt lat="45.868438610122155" lon="10.789895339724058"><ele>589.0</ele><time>2026-04-06T14:26:58.941Z</time></trkpt><trkpt lat="45.86842048987084" lon="10.790071099012502"><ele>589.0</ele><time>2026-04-06T14:26:59.941Z</time></trkpt><trkpt lat="45.86839597582937" lon="10.790255789661071"><ele>579.75</ele><time>2026-04-06T14:27:00.941Z</time></trkpt><trkpt lat="45.86836110961155" lon="10.790430201331159"><ele>570.5</ele><time>2026-04-06T14:27:01.941Z</time></trkpt><trkpt lat="45.868316072233675" lon="10.790602218944295"><ele>561.25</ele><time>2026-04-06T14:27:02.941Z</time></trkpt><trkpt lat="45.868275569561746" lon="10.790761078976535"><ele>552.0</ele><time>2026-04-06T14:27:03.941Z</time></trkpt><trkpt lat="45.86823415635494" lon="10.79092268607939"><ele>551.8000000000001</ele><time>2026-04-06T14:27:04.941Z</time></trkpt><trkpt lat="45.86819645894426" lon="10.791061359619796"><ele>551.6</ele><time>2026-04-06T14:27:05.941Z</time></trkpt><trkpt lat="45.868163045269675" lon="10.791192218975166"><ele>551.4000000000001</ele><time>2026-04-06T14:27:06.941Z</time></trkpt><trkpt lat="45.86814121178072" lon="10.791327415606228"><ele>551.2</ele><time>2026-04-06T14:27:07.941Z</time></trkpt><trkpt lat="45.86810518112045" lon="10.791456520068047"><ele>551.0</ele><time>2026-04-06T14:27:08.941Z</time></trkpt><trkpt lat="45.86811085269556" lon="10.791573065939543"><ele>551.0</ele><time>2026-04-06T14:27:09.941Z</time></trkpt><trkpt lat="45.86809985069806" lon="10.791679660434188"><ele>551.0</ele><time>2026-04-06T14:27:10.941Z</time></trkpt><trkpt lat="45.8680519015585" lon="10.791820357184596"><ele>551.0</ele><time>2026-04-06T14:27:12.941Z</time></trkpt><trkpt lat="45.86795566160208" lon="10.791820542913952"><ele>551.0</ele><time>2026-04-06T14:27:14.941Z</time></trkpt><trkpt lat="45.86793189638485" lon="10.791727814958149"><ele>551.0</ele><time>2026-04-06T14:27:15.941Z</time></trkpt><trkpt lat="45.867965537377685" lon="10.791614342630588"><ele>551.0</ele><time>2026-04-06T14:27:16.941Z</time></trkpt><trkpt lat="45.86798060720383" lon="10.791472792126855"><ele>551.0</ele><time>2026-04-06T14:27:17.941Z</time></trkpt><trkpt lat="45.86799942690018" lon="10.791294829163457"><ele>551.0</ele><time>2026-04-06T14:27:18.941Z</time></trkpt><trkpt lat="45.8680186900279" lon="10.791139451055775"><ele>551.0</ele><time>2026-04-06T14:27:19.941Z</time></trkpt><trkpt lat="45.868034544234824" lon="10.79101270212121"><ele>551.0</ele><time>2026-04-06T14:27:20.941Z</time></trkpt><trkpt lat="45.868018922232125" lon="10.79086284364478"><ele>551.0</ele><time>2026-04-06T14:27:21.941Z</time></trkpt><trkpt lat="45.86793522359805" lon="10.790758377349274"><ele>551.3333333333333</ele><time>2026-04-06T14:27:22.941Z</time></trkpt><trkpt lat="45.86783748815143" lon="10.790667590489715"><ele>551.6666666666666</ele><time>2026-04-06T14:27:23.941Z</time></trkpt><trkpt lat="45.86770746399362" lon="10.790567836320553"><ele>552.0</ele><time>2026-04-06T14:27:24.941Z</time></trkpt><trkpt lat="45.867521187040055" lon="10.790487518231556"><ele>552.0</ele><time>2026-04-06T14:27:25.941Z</time></trkpt><trkpt lat="45.867355580195124" lon="10.790439204881547"><ele>552.0</ele><time>2026-04-06T14:27:26.941Z</time></trkpt><trkpt lat="45.86724330939159" lon="10.790411336829607"><ele>552.0</ele><time>2026-04-06T14:27:27.941Z</time></trkpt><trkpt lat="45.867156346471596" lon="10.790378815768568"><ele>552.0</ele><time>2026-04-06T14:27:28.941Z</time></trkpt><trkpt lat="45.867078863434394" lon="10.790389832985808"><ele>543.4</ele><time>2026-04-06T14:27:29.941Z</time></trkpt><trkpt lat="45.867016728159335" lon="10.790429757089724"><ele>534.8000000000001</ele><time>2026-04-06T14:27:30.941Z</time></trkpt><trkpt lat="45.866971531140535" lon="10.790554129332357"><ele>526.2</ele><time>2026-04-06T14:27:31.941Z</time></trkpt><trkpt lat="45.86699758095814" lon="10.790658350901708"><ele>517.6</ele><time>2026-04-06T14:27:32.941Z</time></trkpt><trkpt lat="45.86706852749157" lon="10.790851075884847"><ele>509.0</ele><time>2026-04-06T14:27:33.941Z</time></trkpt><trkpt lat="45.86717926272168" lon="10.791059493259374"><ele>509.0</ele><time>2026-04-06T14:27:34.941Z</time></trkpt><trkpt lat="45.86727168626071" lon="10.791278325809355"><ele>509.0</ele><time>2026-04-06T14:27:35.941Z</time></trkpt><trkpt lat="45.867336569125015" lon="10.791476157202265"><ele>509.0</ele><time>2026-04-06T14:27:36.941Z</time></trkpt><trkpt lat="45.867334913211856" lon="10.791680768938189"><ele>512.0</ele><time>2026-04-06T14:27:37.941Z</time></trkpt><trkpt lat="45.867315240612164" lon="10.791902873678703"><ele>515.0</ele><time>2026-04-06T14:27:38.941Z</time></trkpt><trkpt lat="45.867275279179715" lon="10.792140388120412"><ele>518.0</ele><time>2026-04-06T14:27:39.941Z</time></trkpt><trkpt lat="45.86722645254207" lon="10.792345672653319"><ele>518.0</ele><time>2026-04-06T14:27:40.941Z</time></trkpt><trkpt lat="45.86715965906894" lon="10.792520079971291"><ele>518.0</ele><time>2026-04-06T14:27:41.941Z</time></trkpt><trkpt lat="45.86705325219121" lon="10.792637249897354"><ele>518.0</ele><time>2026-04-06T14:27:42.941Z</time></trkpt><trkpt lat="45.86694887933014" lon="10.792757856704254"><ele>518.0</ele><time>2026-04-06T14:27:43.941Z</time></trkpt><trkpt lat="45.866872925622566" lon="10.792880470615966"><ele>517.8</ele><time>2026-04-06T14:27:44.941Z</time></trkpt><trkpt lat="45.8667978248284" lon="10.792995065988997"><ele>517.5999999999999</ele><time>2026-04-06T14:27:45.941Z</time></trkpt><trkpt lat="45.866746787234014" lon="10.793133456523586"><ele>517.4000000000001</ele><time>2026-04-06T14:27:46.941Z</time></trkpt><trkpt lat="45.86670635432858" lon="10.793279613646938"><ele>517.2</ele><time>2026-04-06T14:27:47.941Z</time></trkpt><trkpt lat="45.866670614357716" lon="10.79343787102408"><ele>517.0</ele><time>2026-04-06T14:27:48.941Z</time></trkpt><trkpt lat="45.86661769972448" lon="10.79360205838179"><ele>510.75</ele><time>2026-04-06T14:27:49.941Z</time></trkpt><trkpt lat="45.86655209706999" lon="10.793743186571565"><ele>504.5</ele><time>2026-04-06T14:27:50.941Z</time></trkpt><trkpt lat="45.86648421405959" lon="10.793884444029047"><ele>498.25</ele><time>2026-04-06T14:27:51.941Z</time></trkpt><trkpt lat="45.86642376521165" lon="10.794023351171424"><ele>492.0</ele><time>2026-04-06T14:27:52.941Z</time></trkpt><trkpt lat="45.866364267542814" lon="10.794157783337203"><ele>492.0</ele><time>2026-04-06T14:27:53.941Z</time></trkpt><trkpt lat="45.86630660973817" lon="10.794288839167093"><ele>492.00000000000006</ele><time>2026-04-06T14:27:54.941Z</time></trkpt><trkpt lat="45.866255255816526" lon="10.794423451530246"><ele>492.00000000000006</ele><time>2026-04-06T14:27:55.941Z</time></trkpt><trkpt lat="45.86621082286759" lon="10.794561411496058"><ele>492.0</ele><time>2026-04-06T14:27:56.941Z</time></trkpt><trkpt lat="45.866180577024245" lon="10.794703583942477"><ele>492.0</ele><time>2026-04-06T14:27:57.941Z</time></trkpt><trkpt lat="45.86617804763181" lon="10.794873498284739"><ele>492.25</ele><time>2026-04-06T14:27:58.941Z</time></trkpt><trkpt lat="45.86619846379695" lon="10.795055111410653"><ele>492.5</ele><time>2026-04-06T14:27:59.941Z</time></trkpt><trkpt lat="45.8662265889862" lon="10.79522388035553"><ele>492.75</ele><time>2026-04-06T14:28:00.941Z</time></trkpt><trkpt lat="45.8662501257051" lon="10.79538152735861"><ele>493.0</ele><time>2026-04-06T14:28:01.941Z</time></trkpt><trkpt lat="45.866272937792786" lon="10.795537780507937"><ele>494.59999999999997</ele><time>2026-04-06T14:28:02.941Z</time></trkpt><trkpt lat="45.86629918633501" lon="10.795690264038749"><ele>496.19999999999993</ele><time>2026-04-06T14:28:03.941Z</time></trkpt><trkpt lat="45.86632630589092" lon="10.795844664665081"><ele>497.8</ele><time>2026-04-06T14:28:04.941Z</time></trkpt><trkpt lat="45.86635855656857" lon="10.795988596755729"><ele>499.4</ele><time>2026-04-06T14:28:05.941Z</time></trkpt><trkpt lat="45.8663836438609" lon="10.796129600484782"><ele>501.0</ele><time>2026-04-06T14:28:06.941Z</time></trkpt><trkpt lat="45.86640078869466" lon="10.796252412588581"><ele>501.0</ele><time>2026-04-06T14:28:07.941Z</time></trkpt><trkpt lat="45.866412539724195" lon="10.796356059233174"><ele>501.0</ele><time>2026-04-06T14:28:08.941Z</time></trkpt><trkpt lat="45.86643060217375" lon="10.796448688389082"><ele>501.0</ele><time>2026-04-06T14:28:09.941Z</time></trkpt><trkpt lat="45.86643409276775" lon="10.796607796661824"><ele>501.0</ele><time>2026-04-06T14:28:11.941Z</time></trkpt><trkpt lat="45.86631350521776" lon="10.796638761637844"><ele>501.0</ele><time>2026-04-06T14:28:13.941Z</time></trkpt><trkpt lat="45.86625907841227" lon="10.796464160380687"><ele>501.0</ele><time>2026-04-06T14:28:15.941Z</time></trkpt><trkpt lat="45.86624974253552" lon="10.796346952512419"><ele>501.0</ele><time>2026-04-06T14:28:16.941Z</time></trkpt><trkpt lat="45.86623035587176" lon="10.79620464160699"><ele>501.0</ele><time>2026-04-06T14:28:17.941Z</time></trkpt><trkpt lat="45.866185778237224" lon="10.796071243759325"><ele>501.0</ele><time>2026-04-06T14:28:18.941Z</time></trkpt><trkpt lat="45.86613466930657" lon="10.795963369840763"><ele>501.0</ele><time>2026-04-06T14:28:19.941Z</time></trkpt><trkpt lat="45.86608739688956" lon="10.795867046099143"><ele>501.6</ele><time>2026-04-06T14:28:20.941Z</time></trkpt><trkpt lat="45.866045142964886" lon="10.79577400287089"><ele>502.20000000000005</ele><time>2026-04-06T14:28:21.941Z</time></trkpt><trkpt lat="45.86601471860025" lon="10.795683632891695"><ele>502.79999999999995</ele><time>2026-04-06T14:28:22.941Z</time></trkpt><trkpt lat="45.86590393802558" lon="10.79563336386948"><ele>503.4</ele><time>2026-04-06T14:28:24.941Z</time></trkpt><trkpt lat="45.865801331492065" lon="10.795745697487085"><ele>504.0</ele><time>2026-04-06T14:28:26.941Z</time></trkpt><trkpt lat="45.865803957107794" lon="10.795878273360902"><ele>503.4</ele><time>2026-04-06T14:28:27.941Z</time></trkpt><trkpt lat="45.865833407959684" lon="10.79599868817369"><ele>502.79999999999995</ele><time>2026-04-06T14:28:28.941Z</time></trkpt><trkpt lat="45.86588455014648" lon="10.796099211954036"><ele>502.20000000000005</ele><time>2026-04-06T14:28:29.941Z</time></trkpt><trkpt lat="45.86592329806448" lon="10.79620783605218"><ele>501.6</ele><time>2026-04-06T14:28:30.941Z</time></trkpt><trkpt lat="45.86595719614576" lon="10.796338850368656"><ele>501.0</ele><time>2026-04-06T14:28:31.941Z</time></trkpt><trkpt lat="45.86598116752044" lon="10.796493895692178"><ele>501.0</ele><time>2026-04-06T14:28:32.941Z</time></trkpt><trkpt lat="45.865996272447056" lon="10.796652395173506"><ele>501.0</ele><time>2026-04-06T14:28:33.941Z</time></trkpt><trkpt lat="45.86598530031269" lon="10.796805825204643"><ele>501.0</ele><time>2026-04-06T14:28:34.941Z</time></trkpt><trkpt lat="45.865952004563844" lon="10.796965036133155"><ele>501.0</ele><time>2026-04-06T14:28:35.941Z</time></trkpt><trkpt lat="45.86589018271485" lon="10.797120158234561"><ele>504.66666666666663</ele><time>2026-04-06T14:28:36.941Z</time></trkpt><trkpt lat="45.86582615729547" lon="10.797296501468715"><ele>508.3333333333333</ele><time>2026-04-06T14:28:37.941Z</time></trkpt><trkpt lat="45.86579539907058" lon="10.797522088028751"><ele>512.0</ele><time>2026-04-06T14:28:38.941Z</time></trkpt><trkpt lat="45.86577739211241" lon="10.797780550516821"><ele>512.0</ele><time>2026-04-06T14:28:39.941Z</time></trkpt><trkpt lat="45.86574322870319" lon="10.798010175297248"><ele>512.0</ele><time>2026-04-06T14:28:40.941Z</time></trkpt><trkpt lat="45.86570931238431" lon="10.798224473448792"><ele>512.0</ele><time>2026-04-06T14:28:41.941Z</time></trkpt><trkpt lat="45.8656766934281" lon="10.798431953665593"><ele>508.5</ele><time>2026-04-06T14:28:42.941Z</time></trkpt><trkpt lat="45.86564844046817" lon="10.798632437285193"><ele>505.0</ele><time>2026-04-06T14:28:43.941Z</time></trkpt><trkpt lat="45.865617793361956" lon="10.798835360114772"><ele>501.5</ele><time>2026-04-06T14:28:44.941Z</time></trkpt><trkpt lat="45.865594222901095" lon="10.799037403389645"><ele>498.0</ele><time>2026-04-06T14:28:45.941Z</time></trkpt><trkpt lat="45.86559367336362" lon="10.79928345850155"><ele>501.0</ele><time>2026-04-06T14:28:46.941Z</time></trkpt><trkpt lat="45.86560671296092" lon="10.799526220612817"><ele>504.0</ele><time>2026-04-06T14:28:47.941Z</time></trkpt><trkpt lat="45.86560326174123" lon="10.799752631839349"><ele>507.0</ele><time>2026-04-06T14:28:48.941Z</time></trkpt><trkpt lat="45.865635562215104" lon="10.799958540221764"><ele>507.0</ele><time>2026-04-06T14:28:49.941Z</time></trkpt><trkpt lat="45.86564138746153" lon="10.800164755268721"><ele>507.0</ele><time>2026-04-06T14:28:50.941Z</time></trkpt><trkpt lat="45.86564315585113" lon="10.800360928618163"><ele>507.0</ele><time>2026-04-06T14:28:51.941Z</time></trkpt><trkpt lat="45.86562797895157" lon="10.800555283810077"><ele>507.0</ele><time>2026-04-06T14:28:52.941Z</time></trkpt><trkpt lat="45.86560773309182" lon="10.800744076231066"><ele>503.25</ele><time>2026-04-06T14:28:53.941Z</time></trkpt><trkpt lat="45.86558623480939" lon="10.800947413946835"><ele>499.5</ele><time>2026-04-06T14:28:54.941Z</time></trkpt><trkpt lat="45.865576404046806" lon="10.80114943116347"><ele>495.75</ele><time>2026-04-06T14:28:55.941Z</time></trkpt><trkpt lat="45.86556714643517" lon="10.801362131103602"><ele>492.0</ele><time>2026-04-06T14:28:56.941Z</time></trkpt><trkpt lat="45.865569172860816" lon="10.801563849330547"><ele>492.0</ele><time>2026-04-06T14:28:57.941Z</time></trkpt><trkpt lat="45.86559152341401" lon="10.801777821779979"><ele>492.0</ele><time>2026-04-06T14:28:58.941Z</time></trkpt><trkpt lat="45.86561036927115" lon="10.801988271367934"><ele>492.0</ele><time>2026-04-06T14:28:59.941Z</time></trkpt><trkpt lat="45.865566217944156" lon="10.802182851006837"><ele>492.0</ele><time>2026-04-06T14:29:00.941Z</time></trkpt><trkpt lat="45.86551972204661" lon="10.802365455474371"><ele>492.0</ele><time>2026-04-06T14:29:01.941Z</time></trkpt><trkpt lat="45.86543980619589" lon="10.802542119146768"><ele>492.0</ele><time>2026-04-06T14:29:02.941Z</time></trkpt><trkpt lat="45.86536301806064" lon="10.802694753324495"><ele>492.0</ele><time>2026-04-06T14:29:03.941Z</time></trkpt><trkpt lat="45.865297267465635" lon="10.802824737641908"><ele>492.0</ele><time>2026-04-06T14:29:04.941Z</time></trkpt><trkpt lat="45.865246733995654" lon="10.802948549696143"><ele>492.0</ele><time>2026-04-06T14:29:05.941Z</time></trkpt><trkpt lat="45.865205194306654" lon="10.803076519608387"><ele>492.00000000000006</ele><time>2026-04-06T14:29:06.941Z</time></trkpt><trkpt lat="45.865163549932596" lon="10.803208278470386"><ele>492.00000000000006</ele><time>2026-04-06T14:29:07.941Z</time></trkpt><trkpt lat="45.86512822018161" lon="10.803320179372253"><ele>492.0</ele><time>2026-04-06T14:29:08.941Z</time></trkpt><trkpt lat="45.865087793542585" lon="10.803425203757678"><ele>492.0</ele><time>2026-04-06T14:29:09.941Z</time></trkpt><trkpt lat="45.86504913411435" lon="10.803539749922377"><ele>492.0</ele><time>2026-04-06T14:29:10.941Z</time></trkpt><trkpt lat="45.86501134894299" lon="10.803643177146737"><ele>492.0</ele><time>2026-04-06T14:29:11.941Z</time></trkpt><trkpt lat="45.86498038891313" lon="10.80374455869642"><ele>492.0</ele><time>2026-04-06T14:29:12.941Z</time></trkpt><trkpt lat="45.86494712294168" lon="10.80384950924948"><ele>492.0</ele><time>2026-04-06T14:29:13.941Z</time></trkpt><trkpt lat="45.864928990623056" lon="10.803966654366414"><ele>492.0</ele><time>2026-04-06T14:29:14.941Z</time></trkpt><trkpt lat="45.86492673582976" lon="10.804097607597196"><ele>492.0</ele><time>2026-04-06T14:29:15.941Z</time></trkpt><trkpt lat="45.86491852178333" lon="10.804221456172343"><ele>492.00000000000006</ele><time>2026-04-06T14:29:16.941Z</time></trkpt><trkpt lat="45.864920396410724" lon="10.804317264970804"><ele>492.0</ele><time>2026-04-06T14:29:17.941Z</time></trkpt><trkpt lat="45.864921256715725" lon="10.804420716899031"><ele>492.00000000000006</ele><time>2026-04-06T14:29:20.941Z</time></trkpt><trkpt lat="45.86492125671366" lon="10.804532469648668"><ele>492.00000000000006</ele><time>2026-04-06T14:29:22.941Z</time></trkpt><trkpt lat="45.86492125671139" lon="10.8046296383901"><ele>492.0</ele><time>2026-04-06T14:29:23.941Z</time></trkpt><trkpt lat="45.864922231780064" lon="10.804745027088044"><ele>492.00000000000006</ele><time>2026-04-06T14:29:24.941Z</time></trkpt><trkpt lat="45.86492848208273" lon="10.804844085565705"><ele>492.00000000000006</ele><time>2026-04-06T14:29:25.941Z</time></trkpt><trkpt lat="45.86494313013982" lon="10.80496601079684"><ele>492.0</ele><time>2026-04-06T14:29:26.941Z</time></trkpt><trkpt lat="45.86497002747779" lon="10.805096876274071"><ele>492.00000000000006</ele><time>2026-04-06T14:29:27.941Z</time></trkpt><trkpt lat="45.86499532320008" lon="10.80521761101986"><ele>492.00000000000006</ele><time>2026-04-06T14:29:28.941Z</time></trkpt><trkpt lat="45.86501994793433" lon="10.805340948755603"><ele>492.0</ele><time>2026-04-06T14:29:29.941Z</time></trkpt><trkpt lat="45.86504596058014" lon="10.805476685632255"><ele>492.0</ele><time>2026-04-06T14:29:30.941Z</time></trkpt><trkpt lat="45.86506482388105" lon="10.80561248884675"><ele>492.0</ele><time>2026-04-06T14:29:31.941Z</time></trkpt><trkpt lat="45.86507047309537" lon="10.805752971148936"><ele>492.0</ele><time>2026-04-06T14:29:32.941Z</time></trkpt><trkpt lat="45.86507625580281" lon="10.805922872742066"><ele>492.0</ele><time>2026-04-06T14:29:33.941Z</time></trkpt><trkpt lat="45.865082294012765" lon="10.806100280994325"><ele>492.0</ele><time>2026-04-06T14:29:34.941Z</time></trkpt><trkpt lat="45.86508942695434" lon="10.806271623568204"><ele>492.0</ele><time>2026-04-06T14:29:35.941Z</time></trkpt><trkpt lat="45.86509836296417" lon="10.806442829488141"><ele>492.0</ele><time>2026-04-06T14:29:36.941Z</time></trkpt><trkpt lat="45.86510697615686" lon="10.806607850303484"><ele>492.0</ele><time>2026-04-06T14:29:37.941Z</time></trkpt><trkpt lat="45.86511517164697" lon="10.80676486837783"><ele>492.0</ele><time>2026-04-06T14:29:38.941Z</time></trkpt><trkpt lat="45.86512285965015" lon="10.806919044208886"><ele>492.0</ele><time>2026-04-06T14:29:39.941Z</time></trkpt><trkpt lat="45.865130900334094" lon="10.807077615068374"><ele>492.00000000000006</ele><time>2026-04-06T14:29:40.941Z</time></trkpt><trkpt lat="45.86513884780126" lon="10.807228093542138"><ele>492.00000000000006</ele><time>2026-04-06T14:29:41.941Z</time></trkpt><trkpt lat="45.86515643554138" lon="10.807371649773746"><ele>492.0</ele><time>2026-04-06T14:29:42.941Z</time></trkpt><trkpt lat="45.86516484169223" lon="10.807522180362705"><ele>492.0</ele><time>2026-04-06T14:29:43.941Z</time></trkpt><trkpt lat="45.865154756681775" lon="10.80767185710794"><ele>492.0</ele><time>2026-04-06T14:29:44.941Z</time></trkpt><trkpt lat="45.86513777460571" lon="10.80780769312254"><ele>492.00000000000006</ele><time>2026-04-06T14:29:45.941Z</time></trkpt><trkpt lat="45.86511269356026" lon="10.80793936556921"><ele>492.00000000000006</ele><time>2026-04-06T14:29:46.941Z</time></trkpt><trkpt lat="45.86507943763522" lon="10.808081397480443"><ele>492.0</ele><time>2026-04-06T14:29:47.941Z</time></trkpt><trkpt lat="45.86501836112112" lon="10.808244680794836"><ele>492.0</ele><time>2026-04-06T14:29:48.941Z</time></trkpt><trkpt lat="45.864958127769306" lon="10.80842052236358"><ele>492.0</ele><time>2026-04-06T14:29:49.941Z</time></trkpt><trkpt lat="45.864893972329426" lon="10.808614374568673"><ele>492.0</ele><time>2026-04-06T14:29:50.941Z</time></trkpt><trkpt lat="45.8648769904914" lon="10.808800099132545"><ele>492.0</ele><time>2026-04-06T14:29:51.941Z</time></trkpt><trkpt lat="45.86484929055095" lon="10.808967495401966"><ele>492.0</ele><time>2026-04-06T14:29:52.941Z</time></trkpt><trkpt lat="45.86481985913767" lon="10.809125470484997"><ele>492.0</ele><time>2026-04-06T14:29:53.941Z</time></trkpt><trkpt lat="45.86477553316398" lon="10.809279354127806"><ele>492.0</ele><time>2026-04-06T14:29:54.941Z</time></trkpt><trkpt lat="45.86473310934799" lon="10.809425226131275"><ele>492.0</ele><time>2026-04-06T14:29:55.941Z</time></trkpt><trkpt lat="45.864663425837236" lon="10.809558961779963"><ele>492.0</ele><time>2026-04-06T14:29:56.941Z</time></trkpt><trkpt lat="45.864621892484266" lon="10.809714234398896"><ele>492.0</ele><time>2026-04-06T14:29:57.941Z</time></trkpt><trkpt lat="45.86456913489613" lon="10.80986105680693"><ele>492.0</ele><time>2026-04-06T14:29:58.941Z</time></trkpt><trkpt lat="45.864525929359644" lon="10.810022373946662"><ele>492.0</ele><time>2026-04-06T14:29:59.941Z</time></trkpt><trkpt lat="45.86450379099786" lon="10.810214622741046"><ele>492.0</ele><time>2026-04-06T14:30:00.941Z</time></trkpt><trkpt lat="45.86449377711376" lon="10.810416755598858"><ele>468.33333333333337</ele><time>2026-04-06T14:30:01.941Z</time></trkpt><trkpt lat="45.864490260827125" lon="10.810658975917573"><ele>444.6666666666667</ele><time>2026-04-06T14:30:02.941Z</time></trkpt><trkpt lat="45.86450936196361" lon="10.810890389222143"><ele>421.0</ele><time>2026-04-06T14:30:03.941Z</time></trkpt><trkpt lat="45.86454651811143" lon="10.811208145986836"><ele>421.0</ele><time>2026-04-06T14:30:04.941Z</time></trkpt><trkpt lat="45.864602939280395" lon="10.811520736970547"><ele>421.0</ele><time>2026-04-06T14:30:05.941Z</time></trkpt><trkpt lat="45.86459397958552" lon="10.811805813973885"><ele>421.0</ele><time>2026-04-06T14:30:06.941Z</time></trkpt><trkpt lat="45.8645502413786" lon="10.81210517593714"><ele>421.33333333333337</ele><time>2026-04-06T14:30:07.941Z</time></trkpt><trkpt lat="45.86448661273211" lon="10.812391144283549"><ele>421.66666666666663</ele><time>2026-04-06T14:30:08.941Z</time></trkpt><trkpt lat="45.86444633273795" lon="10.812636713544295"><ele>422.0</ele><time>2026-04-06T14:30:09.941Z</time></trkpt><trkpt lat="45.86442880603059" lon="10.81289062499493"><ele>419.3333333333333</ele><time>2026-04-06T14:30:10.941Z</time></trkpt><trkpt lat="45.86445056514727" lon="10.813157543519258"><ele>416.66666666666663</ele><time>2026-04-06T14:30:11.941Z</time></trkpt><trkpt lat="45.86450510977482" lon="10.813452936982044"><ele>414.0</ele><time>2026-04-06T14:30:12.941Z</time></trkpt><trkpt lat="45.86456700901169" lon="10.81377250544566"><ele>410.66666666666663</ele><time>2026-04-06T14:30:13.941Z</time></trkpt><trkpt lat="45.86460296664414" lon="10.814062318944213"><ele>407.3333333333333</ele><time>2026-04-06T14:30:14.941Z</time></trkpt><trkpt lat="45.86464483808463" lon="10.81433463345296"><ele>404.0</ele><time>2026-04-06T14:30:15.941Z</time></trkpt><trkpt lat="45.86466473561658" lon="10.81457318952358"><ele>404.0</ele><time>2026-04-06T14:30:16.941Z</time></trkpt><trkpt lat="45.864655665032956" lon="10.814796282170105"><ele>404.0</ele><time>2026-04-06T14:30:17.941Z</time></trkpt><trkpt lat="45.864612166212055" lon="10.815020468098448"><ele>404.0</ele><time>2026-04-06T14:30:18.941Z</time></trkpt><trkpt lat="45.86454362876246" lon="10.815229842889151"><ele>404.0</ele><time>2026-04-06T14:30:19.941Z</time></trkpt><trkpt lat="45.86447958487645" lon="10.815410199337325"><ele>404.0</ele><time>2026-04-06T14:30:20.941Z</time></trkpt><trkpt lat="45.86443261979506" lon="10.815574242679977"><ele>404.0</ele><time>2026-04-06T14:30:21.941Z</time></trkpt><trkpt lat="45.864407824385516" lon="10.815748378911874"><ele>404.0</ele><time>2026-04-06T14:30:22.941Z</time></trkpt><trkpt lat="45.864444486020886" lon="10.815958477266634"><ele>404.0</ele><time>2026-04-06T14:30:23.941Z</time></trkpt><trkpt lat="45.864521877296596" lon="10.816180365099514"><ele>404.0</ele><time>2026-04-06T14:30:24.941Z</time></trkpt><trkpt lat="45.864615889784446" lon="10.81640491439009"><ele>404.0</ele><time>2026-04-06T14:30:25.941Z</time></trkpt><trkpt lat="45.86468950920226" lon="10.816615421635218"><ele>404.0</ele><time>2026-04-06T14:30:26.941Z</time></trkpt><trkpt lat="45.864752123684944" lon="10.816828573105752"><ele>404.0</ele><time>2026-04-06T14:30:27.941Z</time></trkpt><trkpt lat="45.86481393922465" lon="10.817035027640417"><ele>404.0</ele><time>2026-04-06T14:30:28.941Z</time></trkpt><trkpt lat="45.864884412566624" lon="10.81724185008155"><ele>404.0</ele><time>2026-04-06T14:30:29.941Z</time></trkpt><trkpt lat="45.86495571064677" lon="10.817453331652814"><ele>404.0</ele><time>2026-04-06T14:30:30.941Z</time></trkpt><trkpt lat="45.86501896679078" lon="10.817653211996468"><ele>404.0</ele><time>2026-04-06T14:30:31.941Z</time></trkpt><trkpt lat="45.86508078163068" lon="10.817840190178357"><ele>411.5</ele><time>2026-04-06T14:30:32.941Z</time></trkpt><trkpt lat="45.86513644607357" lon="10.818014231348831"><ele>419.0</ele><time>2026-04-06T14:30:33.941Z</time></trkpt><trkpt lat="45.86519612419032" lon="10.818164271505456"><ele>426.5</ele><time>2026-04-06T14:30:34.941Z</time></trkpt><trkpt lat="45.86526920918817" lon="10.818283965312038"><ele>434.0</ele><time>2026-04-06T14:30:35.941Z</time></trkpt><trkpt lat="45.86535865681705" lon="10.818388851358048"><ele>434.0</ele><time>2026-04-06T14:30:36.941Z</time></trkpt><trkpt lat="45.865474927910086" lon="10.818467570074212"><ele>434.0</ele><time>2026-04-06T14:30:37.941Z</time></trkpt><trkpt lat="45.865581141778904" lon="10.81849872224901"><ele>434.0</ele><time>2026-04-06T14:30:38.941Z</time></trkpt><trkpt lat="45.86568336824275" lon="10.818554752101186"><ele>434.0</ele><time>2026-04-06T14:30:39.941Z</time></trkpt><trkpt lat="45.865787103663145" lon="10.818614117173968"><ele>416.5</ele><time>2026-04-06T14:30:40.958Z</time></trkpt><trkpt lat="45.865889629277106" lon="10.818671474193032"><ele>399.0</ele><time>2026-04-06T14:30:41.962Z</time></trkpt><trkpt lat="45.86660694168461" lon="10.818910854682976"><ele>399.0</ele><time>2026-04-06T14:31:07.659Z</time></trkpt><trkpt lat="45.86703754732393" lon="10.819098018959906"><ele>399.0</ele><time>2026-04-06T14:31:08.659Z</time></trkpt><trkpt lat="45.86764509973851" lon="10.819335934225244"><ele>399.0</ele><time>2026-04-06T14:31:09.659Z</time></trkpt><trkpt lat="45.868247394568854" lon="10.819599338833179"><ele>399.0</ele><time>2026-04-06T14:31:10.659Z</time></trkpt><trkpt lat="45.8687513" lon="10.8198204"><ele>155.0</ele><time>2026-04-06T14:31:11.659Z</time></trkpt><trkpt lat="45.90312140066726" lon="10.834356425340133"><ele>155.0</ele><time>2026-04-06T14:34:45.941Z</time></trkpt><trkpt lat="45.90303385168863" lon="10.834293477247314"><ele>155.0</ele><time>2026-04-06T14:34:46.941Z</time></trkpt><trkpt lat="45.90292457997884" lon="10.834349479827399"><ele>155.0</ele><time>2026-04-06T14:34:47.941Z</time></trkpt><trkpt lat="45.90281315289343" lon="10.834329732309357"><ele>155.0</ele><time>2026-04-06T14:34:48.941Z</time></trkpt><trkpt lat="45.90268692021866" lon="10.83433066593266"><ele>157.33333333333331</ele><time>2026-04-06T14:34:49.941Z</time></trkpt><trkpt lat="45.9025660531029" lon="10.834308888826572"><ele>159.66666666666666</ele><time>2026-04-06T14:34:50.941Z</time></trkpt><trkpt lat="45.90240117479776" lon="10.834277743858612"><ele>162.0</ele><time>2026-04-06T14:34:51.943Z</time></trkpt><trkpt lat="45.90221934840649" lon="10.834288369749677"><ele>162.0</ele><time>2026-04-06T14:34:52.943Z</time></trkpt><trkpt lat="45.90206216929594" lon="10.834258414594451"><ele>162.0</ele><time>2026-04-06T14:34:53.943Z</time></trkpt><trkpt lat="45.901932033091384" lon="10.834225626185493"><ele>162.0</ele><time>2026-04-06T14:34:54.943Z</time></trkpt><trkpt lat="45.901817367873164" lon="10.834186411369508"><ele>162.0</ele><time>2026-04-06T14:34:55.943Z</time></trkpt><trkpt lat="45.90170708713697" lon="10.834155958669562"><ele>161.5</ele><time>2026-04-06T14:34:56.943Z</time></trkpt><trkpt lat="45.90158549178964" lon="10.83414602177249"><ele>161.0</ele><time>2026-04-06T14:34:57.943Z</time></trkpt><trkpt lat="45.901473068235745" lon="10.834174912445532"><ele>160.5</ele><time>2026-04-06T14:34:58.943Z</time></trkpt><trkpt lat="45.90135641153554" lon="10.834229831424338"><ele>160.0</ele><time>2026-04-06T14:34:59.943Z</time></trkpt><trkpt lat="45.90122239644819" lon="10.834308013485426"><ele>152.5</ele><time>2026-04-06T14:35:00.943Z</time></trkpt><trkpt lat="45.901088729746135" lon="10.834366260111475"><ele>145.0</ele><time>2026-04-06T14:35:01.943Z</time></trkpt><trkpt lat="45.90096518307563" lon="10.834436056105565"><ele>137.5</ele><time>2026-04-06T14:35:02.943Z</time></trkpt><trkpt lat="45.90081934206368" lon="10.834450829084785"><ele>130.0</ele><time>2026-04-06T14:35:03.943Z</time></trkpt><trkpt lat="45.90071582207549" lon="10.834481120133692"><ele>128.5</ele><time>2026-04-06T14:35:04.943Z</time></trkpt><trkpt lat="45.9006033375917" lon="10.834498411983725"><ele>127.0</ele><time>2026-04-06T14:35:05.943Z</time></trkpt><trkpt lat="45.90050669837081" lon="10.834506628225475"><ele>125.5</ele><time>2026-04-06T14:35:06.943Z</time></trkpt><trkpt lat="45.900364054449355" lon="10.83449592548522"><ele>124.0</ele><time>2026-04-06T14:35:07.943Z</time></trkpt><trkpt lat="45.90017522054352" lon="10.834465851525314"><ele>123.75</ele><time>2026-04-06T14:35:08.943Z</time></trkpt><trkpt lat="45.90004495486893" lon="10.834426668133752"><ele>123.5</ele><time>2026-04-06T14:35:09.943Z</time></trkpt><trkpt lat="45.8999364395626" lon="10.834395265960033"><ele>123.25</ele><time>2026-04-06T14:35:10.943Z</time></trkpt><trkpt lat="45.899812746233216" lon="10.83439942276607"><ele>123.0</ele><time>2026-04-06T14:35:11.943Z</time></trkpt><trkpt lat="45.89968768317004" lon="10.834409654559327"><ele>123.0</ele><time>2026-04-06T14:35:12.943Z</time></trkpt><trkpt lat="45.89956956471025" lon="10.834451396607177"><ele>123.00000000000001</ele><time>2026-04-06T14:35:13.943Z</time></trkpt><trkpt lat="45.899456760711765" lon="10.834457356849724"><ele>123.00000000000001</ele><time>2026-04-06T14:35:14.943Z</time></trkpt><trkpt lat="45.89936413451107" lon="10.834440380489328"><ele>123.0</ele><time>2026-04-06T14:35:15.943Z</time></trkpt><trkpt lat="45.89926765561678" lon="10.834385955369678"><ele>123.0</ele><time>2026-04-06T14:35:16.943Z</time></trkpt><trkpt lat="45.89916936729149" lon="10.834318510439227"><ele>127.60000000000001</ele><time>2026-04-06T14:35:17.943Z</time></trkpt><trkpt lat="45.899083607422604" lon="10.83424016632533"><ele>132.20000000000002</ele><time>2026-04-06T14:35:18.943Z</time></trkpt><trkpt lat="45.89900470922664" lon="10.834178217018673"><ele>136.8</ele><time>2026-04-06T14:35:19.943Z</time></trkpt><trkpt lat="45.89892882758415" lon="10.834135554664542"><ele>141.4</ele><time>2026-04-06T14:35:20.943Z</time></trkpt><trkpt lat="45.898808075251914" lon="10.834115308880506"><ele>146.0</ele><time>2026-04-06T14:35:21.943Z</time></trkpt><trkpt lat="45.898709872868665" lon="10.834140848141459"><ele>146.0</ele><time>2026-04-06T14:35:22.943Z</time></trkpt><trkpt lat="45.89860403379092" lon="10.834201281586356"><ele>146.0</ele><time>2026-04-06T14:35:23.943Z</time></trkpt><trkpt lat="45.89849828680672" lon="10.834281004727709"><ele>146.0</ele><time>2026-04-06T14:35:24.943Z</time></trkpt><trkpt lat="45.89841632157364" lon="10.834376796211346"><ele>146.0</ele><time>2026-04-06T14:35:25.943Z</time></trkpt><trkpt lat="45.898344234954216" lon="10.834503950576838"><ele>142.0</ele><time>2026-04-06T14:35:26.943Z</time></trkpt><trkpt lat="45.898263597104176" lon="10.834609612274894"><ele>138.0</ele><time>2026-04-06T14:35:27.943Z</time></trkpt><trkpt lat="45.89818518684492" lon="10.834706931169451"><ele>134.0</ele><time>2026-04-06T14:35:28.943Z</time></trkpt><trkpt lat="45.89810028027991" lon="10.834781478747335"><ele>130.0</ele><time>2026-04-06T14:35:29.943Z</time></trkpt><trkpt lat="45.898010470155796" lon="10.834837780611604"><ele>126.0</ele><time>2026-04-06T14:35:30.943Z</time></trkpt><trkpt lat="45.897915002939584" lon="10.834887502756622"><ele>126.0</ele><time>2026-04-06T14:35:31.943Z</time></trkpt><trkpt lat="45.897812642956595" lon="10.83495074820926"><ele>126.0</ele><time>2026-04-06T14:35:32.943Z</time></trkpt><trkpt lat="45.897711835689485" lon="10.834995731747478"><ele>126.0</ele><time>2026-04-06T14:35:33.943Z</time></trkpt><trkpt lat="45.897603804543365" lon="10.835043057388141"><ele>126.0</ele><time>2026-04-06T14:35:34.943Z</time></trkpt><trkpt lat="45.897495875333" lon="10.83508985949879"><ele>126.0</ele><time>2026-04-06T14:35:35.943Z</time></trkpt><trkpt lat="45.89738664211693" lon="10.835139073579102"><ele>122.25</ele><time>2026-04-06T14:35:36.943Z</time></trkpt><trkpt lat="45.897270488624116" lon="10.835183337631179"><ele>118.5</ele><time>2026-04-06T14:35:37.943Z</time></trkpt><trkpt lat="45.89715961604719" lon="10.835226455901557"><ele>114.75</ele><time>2026-04-06T14:35:38.943Z</time></trkpt><trkpt lat="45.897051158939554" lon="10.835277111893369"><ele>111.0</ele><time>2026-04-06T14:35:39.943Z</time></trkpt><trkpt lat="45.896950272326045" lon="10.835355371935274"><ele>111.0</ele><time>2026-04-06T14:35:40.943Z</time></trkpt><trkpt lat="45.896862910140264" lon="10.835464540849404"><ele>111.0</ele><time>2026-04-06T14:35:41.943Z</time></trkpt><trkpt lat="45.89678995379684" lon="10.835582909089227"><ele>111.0</ele><time>2026-04-06T14:35:42.943Z</time></trkpt><trkpt lat="45.896726389440964" lon="10.835718560391843"><ele>111.0</ele><time>2026-04-06T14:35:43.943Z</time></trkpt><trkpt lat="45.89667487291884" lon="10.835862985972794"><ele>109.75</ele><time>2026-04-06T14:35:44.943Z</time></trkpt><trkpt lat="45.896631452882204" lon="10.836016523269851"><ele>108.5</ele><time>2026-04-06T14:35:45.943Z</time></trkpt><trkpt lat="45.896601480743286" lon="10.836172272527246"><ele>107.25</ele><time>2026-04-06T14:35:46.943Z</time></trkpt><trkpt lat="45.89658879784298" lon="10.836340328163644"><ele>106.0</ele><time>2026-04-06T14:35:47.943Z</time></trkpt><trkpt lat="45.89658376010039" lon="10.836502895678542"><ele>106.0</ele><time>2026-04-06T14:35:48.943Z</time></trkpt><trkpt lat="45.89657655076054" lon="10.836672531707043"><ele>106.0</ele><time>2026-04-06T14:35:49.943Z</time></trkpt><trkpt lat="45.896565367311766" lon="10.836844237832706"><ele>106.0</ele><time>2026-04-06T14:35:50.943Z</time></trkpt><trkpt lat="45.89656493029959" lon="10.837038499003679"><ele>106.0</ele><time>2026-04-06T14:35:51.943Z</time></trkpt><trkpt lat="45.8965443359976" lon="10.837158205193429"><ele>105.50000000000001</ele><time>2026-04-06T14:35:52.943Z</time></trkpt><trkpt lat="45.896507925080364" lon="10.837281286309974"><ele>105.0</ele><time>2026-04-06T14:35:53.943Z</time></trkpt><trkpt lat="45.896468130068136" lon="10.837383406740196"><ele>104.5</ele><time>2026-04-06T14:35:54.943Z</time></trkpt><trkpt lat="45.8964304612469" lon="10.837473242503599"><ele>104.0</ele><time>2026-04-06T14:35:55.943Z</time></trkpt><trkpt lat="45.89639855472926" lon="10.83756258052558"><ele>103.50000000000001</ele><time>2026-04-06T14:35:56.943Z</time></trkpt><trkpt lat="45.89637165737511" lon="10.837651050157238"><ele>103.0</ele><time>2026-04-06T14:35:57.943Z</time></trkpt><trkpt lat="45.89636164047556" lon="10.837743672531332"><ele>102.80000000000001</ele><time>2026-04-06T14:35:58.943Z</time></trkpt><trkpt lat="45.896354890394555" lon="10.837895430415825"><ele>102.6</ele><time>2026-04-06T14:36:00.943Z</time></trkpt><trkpt lat="45.89631854814296" lon="10.838030782971892"><ele>102.4</ele><time>2026-04-06T14:36:02.943Z</time></trkpt><trkpt lat="45.8962903004237" lon="10.838181466844281"><ele>102.19999999999999</ele><time>2026-04-06T14:36:04.943Z</time></trkpt><trkpt lat="45.896304772374464" lon="10.838285028204588"><ele>102.0</ele><time>2026-04-06T14:36:05.943Z</time></trkpt><trkpt lat="45.896351301397964" lon="10.838375635682938"><ele>102.0</ele><time>2026-04-06T14:36:06.943Z</time></trkpt><trkpt lat="45.89640904779166" lon="10.838446236592196"><ele>102.0</ele><time>2026-04-06T14:36:07.943Z</time></trkpt><trkpt lat="45.89650819656028" lon="10.838422136664803"><ele>102.0</ele><time>2026-04-06T14:36:08.943Z</time></trkpt><trkpt lat="45.896576627735996" lon="10.838379153172665"><ele>102.0</ele><time>2026-04-06T14:36:09.943Z</time></trkpt><trkpt lat="45.89663472153755" lon="10.83832548026793"><ele>102.0</ele><time>2026-04-06T14:36:10.943Z</time></trkpt><trkpt lat="45.89674604277252" lon="10.838285364980322"><ele>102.0</ele><time>2026-04-06T14:36:12.943Z</time></trkpt><trkpt lat="45.89686684860276" lon="10.838274804109552"><ele>101.57142857142857</ele><time>2026-04-06T14:36:14.943Z</time></trkpt><trkpt lat="45.896978980489585" lon="10.838242426506723"><ele>101.14285714285714</ele><time>2026-04-06T14:36:16.943Z</time></trkpt><trkpt lat="45.89704675313751" lon="10.838244717347525"><ele>100.71428571428572</ele><time>2026-04-06T14:36:17.943Z</time></trkpt><trkpt lat="45.89711523950008" lon="10.838208936185643"><ele>100.28571428571428</ele><time>2026-04-06T14:36:18.943Z</time></trkpt><trkpt lat="45.89717911143864" lon="10.838197614733982"><ele>99.85714285714285</ele><time>2026-04-06T14:36:19.943Z</time></trkpt><trkpt lat="45.89724318236975" lon="10.838192396287246"><ele>99.42857142857143</ele><time>2026-04-06T14:36:20.943Z</time></trkpt><trkpt lat="45.89730846458367" lon="10.838179653491425"><ele>99.0</ele><time>2026-04-06T14:36:21.943Z</time></trkpt><trkpt lat="45.89738084353508" lon="10.838168243384017"><ele>99.0</ele><time>2026-04-06T14:36:22.943Z</time></trkpt><trkpt lat="45.89747259902071" lon="10.838141846638264"><ele>99.0</ele><time>2026-04-06T14:36:23.943Z</time></trkpt><trkpt lat="45.89761911703772" lon="10.83812180963173"><ele>99.0</ele><time>2026-04-06T14:36:24.943Z</time></trkpt><trkpt lat="45.89781171933147" lon="10.838097400831272"><ele>99.0</ele><time>2026-04-06T14:36:25.943Z</time></trkpt><trkpt lat="45.89801963848837" lon="10.838063458765102"><ele>99.0</ele><time>2026-04-06T14:36:26.943Z</time></trkpt><trkpt lat="45.898203272485986" lon="10.838037048183482"><ele>99.0</ele><time>2026-04-06T14:36:27.943Z</time></trkpt><trkpt lat="45.89839995925963" lon="10.8380313574053"><ele>99.0</ele><time>2026-04-06T14:36:28.943Z</time></trkpt><trkpt lat="45.89861114037901" lon="10.83800028214451"><ele>99.0</ele><time>2026-04-06T14:36:29.943Z</time></trkpt><trkpt lat="45.89878613978849" lon="10.83797381027937"><ele>99.0</ele><time>2026-04-06T14:36:30.943Z</time></trkpt><trkpt lat="45.898922771775396" lon="10.837932311902994"><ele>99.0</ele><time>2026-04-06T14:36:31.943Z</time></trkpt><trkpt lat="45.899037919254305" lon="10.837935730181563"><ele>99.0</ele><time>2026-04-06T14:36:32.943Z</time></trkpt><trkpt lat="45.89912737262878" lon="10.837922793430817"><ele>99.0</ele><time>2026-04-06T14:36:33.943Z</time></trkpt><trkpt lat="45.8992029455549" lon="10.837889245047773"><ele>99.0</ele><time>2026-04-06T14:36:34.943Z</time></trkpt><trkpt lat="45.89927844749161" lon="10.83788972876275"><ele>99.0</ele><time>2026-04-06T14:36:35.943Z</time></trkpt><trkpt lat="45.899351110251146" lon="10.837932562800656"><ele>99.0</ele><time>2026-04-06T14:36:36.943Z</time></trkpt><trkpt lat="45.89940086844427" lon="10.83804739545179"><ele>99.0</ele><time>2026-04-06T14:36:37.943Z</time></trkpt><trkpt lat="45.8994268714615" lon="10.838203199537618"><ele>99.0</ele><time>2026-04-06T14:36:38.943Z</time></trkpt><trkpt lat="45.89946895149299" lon="10.83832988129017"><ele>99.0</ele><time>2026-04-06T14:36:39.943Z</time></trkpt><trkpt lat="45.89955799514975" lon="10.83837666672914"><ele>99.0</ele><time>2026-04-06T14:36:40.943Z</time></trkpt><trkpt lat="45.89966089508181" lon="10.83835372730821"><ele>99.0</ele><time>2026-04-06T14:36:41.943Z</time></trkpt><trkpt lat="45.899747667720845" lon="10.83827049549012"><ele>99.0</ele><time>2026-04-06T14:36:42.943Z</time></trkpt><trkpt lat="45.899799233160735" lon="10.838135855732563"><ele>99.0</ele><time>2026-04-06T14:36:43.943Z</time></trkpt><trkpt lat="45.899797038204845" lon="10.837984605217846"><ele>99.0</ele><time>2026-04-06T14:36:44.943Z</time></trkpt><trkpt lat="45.899743657159924" lon="10.837831750860799"><ele>99.0</ele><time>2026-04-06T14:36:45.943Z</time></trkpt><trkpt lat="45.89965323486338" lon="10.837738987918112"><ele>99.0</ele><time>2026-04-06T14:36:46.943Z</time></trkpt><trkpt lat="45.899548029960954" lon="10.837726508071286"><ele>99.0</ele><time>2026-04-06T14:36:47.943Z</time></trkpt><trkpt lat="45.899429320073395" lon="10.83778914576056"><ele>99.0</ele><time>2026-04-06T14:36:48.943Z</time></trkpt><trkpt lat="45.8993121814627" lon="10.837928093562478"><ele>99.0</ele><time>2026-04-06T14:36:49.943Z</time></trkpt><trkpt lat="45.8990742013092" lon="10.837883524386028"><ele>99.0</ele><time>2026-04-06T14:36:50.943Z</time></trkpt><trkpt lat="45.898822798406854" lon="10.837910419173491"><ele>99.0</ele><time>2026-04-06T14:36:51.943Z</time></trkpt><trkpt lat="45.89858141188771" lon="10.837948748903347"><ele>99.0</ele><time>2026-04-06T14:36:52.943Z</time></trkpt><trkpt lat="45.89833811169705" lon="10.837995800405228"><ele>98.66666666666666</ele><time>2026-04-06T14:36:53.943Z</time></trkpt><trkpt lat="45.89810641739488" lon="10.838025620751795"><ele>98.33333333333333</ele><time>2026-04-06T14:36:54.943Z</time></trkpt><trkpt lat="45.897905417269214" lon="10.838053013770383"><ele>98.0</ele><time>2026-04-06T14:36:55.943Z</time></trkpt><trkpt lat="45.89771795214124" lon="10.838074873777408"><ele>98.33333333333333</ele><time>2026-04-06T14:36:56.943Z</time></trkpt><trkpt lat="45.897547063488815" lon="10.838092236417003"><ele>98.66666666666666</ele><time>2026-04-06T14:36:57.944Z</time></trkpt><trkpt lat="45.89738855335126" lon="10.838122181289176"><ele>99.0</ele><time>2026-04-06T14:36:58.944Z</time></trkpt><trkpt lat="45.897241455165094" lon="10.838150272390568"><ele>99.0</ele><time>2026-04-06T14:36:59.944Z</time></trkpt><trkpt lat="45.897104506060025" lon="10.838181669032448"><ele>99.0</ele><time>2026-04-06T14:37:00.944Z</time></trkpt><trkpt lat="45.89697592699439" lon="10.838223358929802"><ele>99.0</ele><time>2026-04-06T14:37:01.944Z</time></trkpt><trkpt lat="45.89686301719275" lon="10.838243254170457"><ele>99.0</ele><time>2026-04-06T14:37:02.944Z</time></trkpt><trkpt lat="45.896778640288815" lon="10.838249012012753"><ele>99.6</ele><time>2026-04-06T14:37:03.944Z</time></trkpt><trkpt lat="45.89670125987078" lon="10.838200241938424"><ele>100.2</ele><time>2026-04-06T14:37:05.944Z</time></trkpt><trkpt lat="45.89663699468233" lon="10.838104532096574"><ele>100.8</ele><time>2026-04-06T14:37:07.944Z</time></trkpt><trkpt lat="45.896589349347835" lon="10.83802395017922"><ele>101.39999999999999</ele><time>2026-04-06T14:37:08.944Z</time></trkpt><trkpt lat="45.896504484763234" lon="10.837927604586614"><ele>102.0</ele><time>2026-04-06T14:37:10.944Z</time></trkpt><trkpt lat="45.89640654423612" lon="10.8379254716756"><ele>102.0</ele><time>2026-04-06T14:37:12.944Z</time></trkpt><trkpt lat="45.8963319715027" lon="10.837980201774883"><ele>102.0</ele><time>2026-04-06T14:37:14.944Z</time></trkpt><trkpt lat="45.896262867261456" lon="10.838057517061936"><ele>102.0</ele><time>2026-04-06T14:37:16.944Z</time></trkpt><trkpt lat="45.89614989475738" lon="10.838104069868283"><ele>102.0</ele><time>2026-04-06T14:37:18.944Z</time></trkpt><trkpt lat="45.896032758494606" lon="10.838130232675597"><ele>102.0</ele><time>2026-04-06T14:37:20.944Z</time></trkpt><trkpt lat="45.89595614143066" lon="10.838165217063846"><ele>102.19999999999999</ele><time>2026-04-06T14:37:21.944Z</time></trkpt><trkpt lat="45.895872858953375" lon="10.838193373724692"><ele>102.4</ele><time>2026-04-06T14:37:22.944Z</time></trkpt><trkpt lat="45.895762187879775" lon="10.838239017073564"><ele>102.6</ele><time>2026-04-06T14:37:23.944Z</time></trkpt><trkpt lat="45.89567006644171" lon="10.838278386569218"><ele>102.80000000000001</ele><time>2026-04-06T14:37:24.944Z</time></trkpt><trkpt lat="45.89557433586585" lon="10.838315309927378"><ele>103.0</ele><time>2026-04-06T14:37:25.944Z</time></trkpt><trkpt lat="45.89547861625281" lon="10.838353255752322"><ele>103.0</ele><time>2026-04-06T14:37:26.944Z</time></trkpt><trkpt lat="45.89537048597894" lon="10.838380331907203"><ele>103.0</ele><time>2026-04-06T14:37:27.944Z</time></trkpt><trkpt lat="45.89523967669586" lon="10.838398453730871"><ele>103.0</ele><time>2026-04-06T14:37:28.944Z</time></trkpt><trkpt lat="45.89509169412719" lon="10.83840569211563"><ele>103.0</ele><time>2026-04-06T14:37:29.944Z</time></trkpt><trkpt lat="45.89494879883789" lon="10.838402901910856"><ele>102.5</ele><time>2026-04-06T14:37:30.944Z</time></trkpt><trkpt lat="45.89481627205582" lon="10.83838246905105"><ele>102.0</ele><time>2026-04-06T14:37:31.944Z</time></trkpt><trkpt lat="45.894681202488" lon="10.83834783748172"><ele>101.5</ele><time>2026-04-06T14:37:32.944Z</time></trkpt><trkpt lat="45.89455886493697" lon="10.838321363598576"><ele>101.0</ele><time>2026-04-06T14:37:33.944Z</time></trkpt><trkpt lat="45.894434975435296" lon="10.838296990389376"><ele>101.0</ele><time>2026-04-06T14:37:34.944Z</time></trkpt><trkpt lat="45.89431328768825" lon="10.838268935854929"><ele>101.0</ele><time>2026-04-06T14:37:35.944Z</time></trkpt><trkpt lat="45.89419373791554" lon="10.838249955525459"><ele>101.0</ele><time>2026-04-06T14:37:36.944Z</time></trkpt><trkpt lat="45.89407355018457" lon="10.838232759860416"><ele>101.0</ele><time>2026-04-06T14:37:37.944Z</time></trkpt><trkpt lat="45.89396077025014" lon="10.838180908459737"><ele>100.0</ele><time>2026-04-06T14:37:38.944Z</time></trkpt><trkpt lat="45.89384346813086" lon="10.838132961954157"><ele>99.0</ele><time>2026-04-06T14:37:39.944Z</time></trkpt><trkpt lat="45.89373098075443" lon="10.838081952775807"><ele>98.0</ele><time>2026-04-06T14:37:40.944Z</time></trkpt><trkpt lat="45.89362247864593" lon="10.838020276222961"><ele>97.0</ele><time>2026-04-06T14:37:41.96Z</time></trkpt><trkpt lat="45.893518877065" lon="10.837953723886255"><ele>97.39999999999999</ele><time>2026-04-06T14:37:42.959Z</time></trkpt><trkpt lat="45.89341819984036" lon="10.837879835111739"><ele>97.8</ele><time>2026-04-06T14:37:43.961Z</time></trkpt><trkpt lat="45.89332381579806" lon="10.837802900335296"><ele>98.2</ele><time>2026-04-06T14:37:44.96Z</time></trkpt><trkpt lat="45.89323576504423" lon="10.837721290199926"><ele>98.6</ele><time>2026-04-06T14:37:45.96Z</time></trkpt><trkpt lat="45.89314676100687" lon="10.837636733803055"><ele>99.0</ele><time>2026-04-06T14:37:46.959Z</time></trkpt><trkpt lat="45.893060652771005" lon="10.837551940842781"><ele>94.0</ele><time>2026-04-06T14:37:47.962Z</time></trkpt><trkpt lat="45.892565025814065" lon="10.837058451149579"><ele>94.0</ele><time>2026-04-06T14:37:49.944Z</time></trkpt><trkpt lat="45.89244910375316" lon="10.83694348848356"><ele>94.0</ele><time>2026-04-06T14:37:50.944Z</time></trkpt><trkpt lat="45.89231291218585" lon="10.83680736622247"><ele>94.0</ele><time>2026-04-06T14:37:51.944Z</time></trkpt><trkpt lat="45.892190902946965" lon="10.836685084611068"><ele>95.25</ele><time>2026-04-06T14:37:52.944Z</time></trkpt><trkpt lat="45.892069089951946" lon="10.836563005385315"><ele>96.5</ele><time>2026-04-06T14:37:53.944Z</time></trkpt><trkpt lat="45.89194689838242" lon="10.836440546608515"><ele>97.75</ele><time>2026-04-06T14:37:54.944Z</time></trkpt><trkpt lat="45.89182650512021" lon="10.8363198904096"><ele>99.0</ele><time>2026-04-06T14:37:55.963Z</time></trkpt><trkpt lat="45.89174913234117" lon="10.836242347574844"><ele>100.5</ele><time>2026-04-06T14:38:20.659Z</time></trkpt><trkpt lat="45.89162125978135" lon="10.83614329012038"><ele>102.0</ele><time>2026-04-06T14:38:21.659Z</time></trkpt><trkpt lat="45.8915123088943" lon="10.836005129419634"><ele>103.5</ele><time>2026-04-06T14:38:22.659Z</time></trkpt><trkpt lat="45.89139351515398" lon="10.835887170956044"><ele>105.0</ele><time>2026-04-06T14:38:23.659Z</time></trkpt><trkpt lat="45.891265196426936" lon="10.835789242328223"><ele>118.5</ele><time>2026-04-06T14:38:24.659Z</time></trkpt><trkpt lat="45.89115287021642" lon="10.835656012402607"><ele>132.0</ele><time>2026-04-06T14:38:25.659Z</time></trkpt><trkpt lat="45.891020081609966" lon="10.835570144425136"><ele>145.5</ele><time>2026-04-06T14:38:26.659Z</time></trkpt><trkpt lat="45.890900939042986" lon="10.835450334132796"><ele>159.0</ele><time>2026-04-06T14:38:27.659Z</time></trkpt><trkpt lat="45.89076733271834" lon="10.835365089354571"><ele>159.0</ele><time>2026-04-06T14:38:28.659Z</time></trkpt><trkpt lat="45.8906311656984" lon="10.8352933529451"><ele>159.0</ele><time>2026-04-06T14:38:29.659Z</time></trkpt><trkpt lat="45.890487886691076" lon="10.835253804893673"><ele>159.0</ele><time>2026-04-06T14:38:30.659Z</time></trkpt><trkpt lat="45.89034733031924" lon="10.835205758819844"><ele>159.0</ele><time>2026-04-06T14:38:31.659Z</time></trkpt><trkpt lat="45.890206326893924" lon="10.835150947694562"><ele>154.75</ele><time>2026-04-06T14:38:32.659Z</time></trkpt><trkpt lat="45.8900607955155" lon="10.835153973277594"><ele>150.5</ele><time>2026-04-06T14:38:33.659Z</time></trkpt><trkpt lat="45.889916585710516" lon="10.83511926464114"><ele>146.25</ele><time>2026-04-06T14:38:34.659Z</time></trkpt><trkpt lat="45.889772220869204" lon="10.835151666175847"><ele>142.0</ele><time>2026-04-06T14:38:35.659Z</time></trkpt><trkpt lat="45.88962657327795" lon="10.83514404681112"><ele>142.0</ele><time>2026-04-06T14:38:36.659Z</time></trkpt><trkpt lat="45.88948540978592" lon="10.835198701661396"><ele>142.0</ele><time>2026-04-06T14:38:37.659Z</time></trkpt><trkpt lat="45.889340543944336" lon="10.83521982699023"><ele>142.0</ele><time>2026-04-06T14:38:38.659Z</time></trkpt><trkpt lat="45.88920633092808" lon="10.835304567783385"><ele>142.0</ele><time>2026-04-06T14:38:39.659Z</time></trkpt><trkpt lat="45.8890698343803" lon="10.835372084747032"><ele>145.5</ele><time>2026-04-06T14:38:40.659Z</time></trkpt><trkpt lat="45.8889300868764" lon="10.835432958884564"><ele>149.0</ele><time>2026-04-06T14:38:41.659Z</time></trkpt><trkpt lat="45.887434972190015" lon="10.83772571229683"><ele>104.0</ele><time>2026-04-06T14:38:42.944Z</time></trkpt><trkpt lat="45.88785825715946" lon="10.837033018383696"><ele>86.0</ele><time>2026-04-06T14:38:47.944Z</time></trkpt><trkpt lat="45.88733147235013" lon="10.83775199021753"><ele>86.0</ele><time>2026-04-06T14:38:49.944Z</time></trkpt><trkpt lat="45.8872520592758" lon="10.837795473557321"><ele>86.0</ele><time>2026-04-06T14:38:51.944Z</time></trkpt><trkpt lat="45.887199239011686" lon="10.837846073164489"><ele>86.0</ele><time>2026-04-06T14:38:53.944Z</time></trkpt><trkpt lat="45.8871692268283" lon="10.837956760450735"><ele>86.0</ele><time>2026-04-06T14:38:56.944Z</time></trkpt><trkpt lat="45.887207932746676" lon="10.838057628442824"><ele>86.0</ele><time>2026-04-06T14:38:58.944Z</time></trkpt><trkpt lat="45.88728325031163" lon="10.838108978631572"><ele>86.0</ele><time>2026-04-06T14:39:00.944Z</time></trkpt><trkpt lat="45.887357309889694" lon="10.838115010755235"><ele>86.0</ele><time>2026-04-06T14:39:02.944Z</time></trkpt><trkpt lat="45.88741247267003" lon="10.838014844523077"><ele>86.0</ele><time>2026-04-06T14:39:04.944Z</time></trkpt><trkpt lat="45.88738811665051" lon="10.837868120210981"><ele>86.0</ele><time>2026-04-06T14:39:06.944Z</time></trkpt><trkpt lat="45.88731050484059" lon="10.837792797718022"><ele>86.0</ele><time>2026-04-06T14:39:08.944Z</time></trkpt><trkpt lat="45.88723453997328" lon="10.837813098016193"><ele>86.0</ele><time>2026-04-06T14:39:10.944Z</time></trkpt><trkpt lat="45.88715931300491" lon="10.837851438358419"><ele>86.0</ele><time>2026-04-06T14:39:12.944Z</time></trkpt><trkpt lat="45.887079122966234" lon="10.837847478146458"><ele>86.0</ele><time>2026-04-06T14:39:14.944Z</time></trkpt><trkpt lat="45.887000297687244" lon="10.837816024268097"><ele>86.0</ele><time>2026-04-06T14:39:17.944Z</time></trkpt><trkpt lat="45.886899878346036" lon="10.837805784983669"><ele>86.0</ele><time>2026-04-06T14:39:19.944Z</time></trkpt><trkpt lat="45.88681432284296" lon="10.837796553882578"><ele>86.0</ele><time>2026-04-06T14:39:20.944Z</time></trkpt><trkpt lat="45.88673258035138" lon="10.837783575289691"><ele>86.0</ele><time>2026-04-06T14:39:21.944Z</time></trkpt><trkpt lat="45.886605502319405" lon="10.837799683056609"><ele>86.00000000000001</ele><time>2026-04-06T14:39:23.944Z</time></trkpt><trkpt lat="45.88653127970832" lon="10.83780214512367"><ele>86.0</ele><time>2026-04-06T14:39:24.944Z</time></trkpt><trkpt lat="45.88645220295767" lon="10.837811960793681"><ele>86.0</ele><time>2026-04-06T14:39:25.944Z</time></trkpt><trkpt lat="45.88637473058864" lon="10.837816083909146"><ele>86.0</ele><time>2026-04-06T14:39:26.944Z</time></trkpt><trkpt lat="45.88630261773214" lon="10.837814454741334"><ele>86.0</ele><time>2026-04-06T14:39:27.944Z</time></trkpt><trkpt lat="45.886238358119606" lon="10.837822743640645"><ele>86.00000000000001</ele><time>2026-04-06T14:39:28.944Z</time></trkpt><trkpt lat="45.88615976427897" lon="10.837804617367311"><ele>86.0</ele><time>2026-04-06T14:39:29.944Z</time></trkpt><trkpt lat="45.88609436645961" lon="10.837815033854836"><ele>86.0</ele><time>2026-04-06T14:39:30.944Z</time></trkpt><trkpt lat="45.88602107501808" lon="10.837833339402795"><ele>86.0</ele><time>2026-04-06T14:39:31.944Z</time></trkpt><trkpt lat="45.885943617820836" lon="10.837833177535659"><ele>86.0</ele><time>2026-04-06T14:39:32.944Z</time></trkpt><trkpt lat="45.88586729969687" lon="10.83782175778765"><ele>86.0</ele><time>2026-04-06T14:39:33.944Z</time></trkpt><trkpt lat="45.885793854280195" lon="10.837832213615874"><ele>86.0</ele><time>2026-04-06T14:39:34.944Z</time></trkpt><trkpt lat="45.885708295871666" lon="10.837841135749915"><ele>86.0</ele><time>2026-04-06T14:39:35.944Z</time></trkpt><trkpt lat="45.885607869841024" lon="10.837833984665508"><ele>85.4</ele><time>2026-04-06T14:39:36.944Z</time></trkpt><trkpt lat="45.88550336306479" lon="10.837840588675922"><ele>84.8</ele><time>2026-04-06T14:39:37.944Z</time></trkpt><trkpt lat="45.88539968256517" lon="10.837843343506155"><ele>84.2</ele><time>2026-04-06T14:39:38.944Z</time></trkpt><trkpt lat="45.88529939932677" lon="10.83784202733433"><ele>83.60000000000001</ele><time>2026-04-06T14:39:39.944Z</time></trkpt><trkpt lat="45.88519737906966" lon="10.837850345731692"><ele>83.0</ele><time>2026-04-06T14:39:40.944Z</time></trkpt><trkpt lat="45.885099382933404" lon="10.83785586828588"><ele>82.0</ele><time>2026-04-06T14:39:41.944Z</time></trkpt><trkpt lat="45.88500258430217" lon="10.837855934564756"><ele>81.0</ele><time>2026-04-06T14:39:42.944Z</time></trkpt><trkpt lat="45.884909063890994" lon="10.837869362629561"><ele>80.0</ele><time>2026-04-06T14:39:43.944Z</time></trkpt><trkpt lat="45.88481878857855" lon="10.83788560290833"><ele>79.0</ele><time>2026-04-06T14:39:44.944Z</time></trkpt><trkpt lat="45.884730311476275" lon="10.837907391776726"><ele>78.0</ele><time>2026-04-06T14:39:45.944Z</time></trkpt><trkpt lat="45.884648459226455" lon="10.837949561767006"><ele>78.0</ele><time>2026-04-06T14:39:46.944Z</time></trkpt><trkpt lat="45.88457363073801" lon="10.83800231036579"><ele>78.0</ele><time>2026-04-06T14:39:47.944Z</time></trkpt><trkpt lat="45.88449716840458" lon="10.838045033067537"><ele>78.0</ele><time>2026-04-06T14:39:48.944Z</time></trkpt><trkpt lat="45.884424544904036" lon="10.83811408975655"><ele>78.0</ele><time>2026-04-06T14:39:49.944Z</time></trkpt><trkpt lat="45.88435350710387" lon="10.838174240888113"><ele>78.0</ele><time>2026-04-06T14:39:50.944Z</time></trkpt><trkpt lat="45.884292491225786" lon="10.838232950416744"><ele>78.0</ele><time>2026-04-06T14:39:51.944Z</time></trkpt><trkpt lat="45.884230609810324" lon="10.838274042641867"><ele>77.66666666666667</ele><time>2026-04-06T14:39:52.944Z</time></trkpt><trkpt lat="45.884158581257" lon="10.838327778565663"><ele>77.33333333333333</ele><time>2026-04-06T14:39:53.944Z</time></trkpt><trkpt lat="45.884087681610396" lon="10.83837777665297"><ele>77.0</ele><time>2026-04-06T14:39:54.944Z</time></trkpt><trkpt lat="45.88401840112133" lon="10.838413524880274"><ele>76.66666666666666</ele><time>2026-04-06T14:39:55.944Z</time></trkpt><trkpt lat="45.883954626467904" lon="10.838473210019506"><ele>76.33333333333333</ele><time>2026-04-06T14:39:56.944Z</time></trkpt><trkpt lat="45.883891981588086" lon="10.838515485744601"><ele>76.0</ele><time>2026-04-06T14:39:57.944Z</time></trkpt><trkpt lat="45.88382468815759" lon="10.838555397536254"><ele>74.83333333333333</ele><time>2026-04-06T14:39:58.944Z</time></trkpt><trkpt lat="45.883744180460724" lon="10.838563794135316"><ele>73.66666666666666</ele><time>2026-04-06T14:39:59.944Z</time></trkpt><trkpt lat="45.883671225308" lon="10.83857644527079"><ele>72.5</ele><time>2026-04-06T14:40:00.944Z</time></trkpt><trkpt lat="45.883608387852654" lon="10.838566967766159"><ele>71.33333333333333</ele><time>2026-04-06T14:40:01.944Z</time></trkpt><trkpt lat="45.883502536856774" lon="10.838543833124499"><ele>70.16666666666667</ele><time>2026-04-06T14:40:03.944Z</time></trkpt><trkpt lat="45.88342298597322" lon="10.838522947549649"><ele>69.0</ele><time>2026-04-06T14:40:06.944Z</time></trkpt><trkpt lat="45.88333185408646" lon="10.838508459746697"><ele>68.25</ele><time>2026-04-06T14:40:19.944Z</time></trkpt><trkpt lat="45.883247716568704" lon="10.838486950260002"><ele>67.5</ele><time>2026-04-06T14:40:21.944Z</time></trkpt><trkpt lat="45.883154559399266" lon="10.838452267681548"><ele>66.75</ele><time>2026-04-06T14:40:23.944Z</time></trkpt><trkpt lat="45.883176610148034" lon="10.83877355314858"><ele>66.0</ele><time>2026-04-06T14:40:24.944Z</time></trkpt><trkpt lat="45.88328956337521" lon="10.838720292109235"><ele>66.0</ele><time>2026-04-06T14:40:26.944Z</time></trkpt><trkpt lat="45.88338221208279" lon="10.83875282190886"><ele>66.0</ele><time>2026-04-06T14:40:28.944Z</time></trkpt><trkpt lat="45.88346245120853" lon="10.838787693110826"><ele>66.0</ele><time>2026-04-06T14:40:30.944Z</time></trkpt><trkpt lat="45.88352631118569" lon="10.838816564241721"><ele>66.0</ele><time>2026-04-06T14:40:32.944Z</time></trkpt><trkpt lat="45.8836017510088" lon="10.838822569872534"><ele>66.0</ele><time>2026-04-06T14:40:34.944Z</time></trkpt><trkpt lat="45.88367925309705" lon="10.838806581327567"><ele>66.0</ele><time>2026-04-06T14:40:37.944Z</time></trkpt><trkpt lat="45.883741874275934" lon="10.838772602524708"><ele>66.5</ele><time>2026-04-06T14:40:54.944Z</time></trkpt><trkpt lat="45.8837880984139" lon="10.838701802416287"><ele>67.0</ele><time>2026-04-06T14:41:02.944Z</time></trkpt><trkpt lat="45.88385313077519" lon="10.838661221254846"><ele>67.5</ele><time>2026-04-06T14:41:04.944Z</time></trkpt><trkpt lat="45.88395045448441" lon="10.838604386967198"><ele>68.0</ele><time>2026-04-06T14:41:06.944Z</time></trkpt><trkpt lat="45.88402492903304" lon="10.838528212497181"><ele>68.5</ele><time>2026-04-06T14:41:07.944Z</time></trkpt><trkpt lat="45.88410210695354" lon="10.838443294927751"><ele>69.0</ele><time>2026-04-06T14:41:08.944Z</time></trkpt><trkpt lat="45.884166181199674" lon="10.838371849038774"><ele>70.8</ele><time>2026-04-06T14:41:09.945Z</time></trkpt><trkpt lat="45.88426443104799" lon="10.838303504124967"><ele>72.60000000000001</ele><time>2026-04-06T14:41:10.945Z</time></trkpt><trkpt lat="45.88437332630968" lon="10.838215410948703"><ele>74.4</ele><time>2026-04-06T14:41:11.945Z</time></trkpt><trkpt lat="45.88428669255551" lon="10.838281467056966"><ele>76.2</ele><time>2026-04-06T14:41:12.945Z</time></trkpt><trkpt lat="45.88435089540469" lon="10.83821623240114"><ele>78.0</ele><time>2026-04-06T14:41:13.945Z</time></trkpt><trkpt lat="45.88441066804823" lon="10.838161856894406"><ele>78.0</ele><time>2026-04-06T14:41:14.945Z</time></trkpt><trkpt lat="45.88449786985989" lon="10.838114644583468"><ele>78.0</ele><time>2026-04-06T14:41:15.945Z</time></trkpt><trkpt lat="45.8845724105307" lon="10.838072408820839"><ele>78.0</ele><time>2026-04-06T14:41:16.945Z</time></trkpt><trkpt lat="45.88467020336461" lon="10.837992661668014"><ele>78.0</ele><time>2026-04-06T14:41:18.945Z</time></trkpt><trkpt lat="45.884807751859825" lon="10.837935123354832"><ele>78.0</ele><time>2026-04-06T14:41:20.945Z</time></trkpt><trkpt lat="45.88489404900504" lon="10.837953552772401"><ele>78.0</ele><time>2026-04-06T14:41:21.945Z</time></trkpt><trkpt lat="45.884998387158824" lon="10.837939676672217"><ele>78.0</ele><time>2026-04-06T14:41:23.945Z</time></trkpt><trkpt lat="45.88507836164764" lon="10.837939529110661"><ele>78.0</ele><time>2026-04-06T14:41:25.945Z</time></trkpt><trkpt lat="45.88517487970309" lon="10.83792830761202"><ele>78.0</ele><time>2026-04-06T14:41:27.945Z</time></trkpt><trkpt lat="45.885287443098996" lon="10.837921316475173"><ele>78.0</ele><time>2026-04-06T14:41:29.945Z</time></trkpt><trkpt lat="45.88538423995051" lon="10.837921758019318"><ele>79.0</ele><time>2026-04-06T14:41:31.945Z</time></trkpt><trkpt lat="45.8855025996936" lon="10.837907059832103"><ele>80.0</ele><time>2026-04-06T14:41:33.945Z</time></trkpt><trkpt lat="45.8855978457525" lon="10.837912625014795"><ele>81.0</ele><time>2026-04-06T14:41:35.945Z</time></trkpt><trkpt lat="45.88567852880728" lon="10.837901042856108"><ele>82.0</ele><time>2026-04-06T14:41:38.945Z</time></trkpt><trkpt lat="45.88576236015742" lon="10.837894921052468"><ele>83.0</ele><time>2026-04-06T14:41:40.945Z</time></trkpt><trkpt lat="45.88586241726311" lon="10.837904933460377"><ele>83.0</ele><time>2026-04-06T14:41:42.945Z</time></trkpt><trkpt lat="45.88592695976502" lon="10.837909521458606"><ele>83.0</ele><time>2026-04-06T14:41:43.945Z</time></trkpt><trkpt lat="45.88601852311111" lon="10.837910765130829"><ele>83.0</ele><time>2026-04-06T14:41:45.945Z</time></trkpt><trkpt lat="45.88609194932472" lon="10.837900761617828"><ele>83.0</ele><time>2026-04-06T14:41:48.945Z</time></trkpt><trkpt lat="45.886161890191595" lon="10.83789284710175"><ele>83.0</ele><time>2026-04-06T14:41:50.945Z</time></trkpt><trkpt lat="45.88626799198459" lon="10.83789116424356"><ele>83.0</ele><time>2026-04-06T14:41:52.945Z</time></trkpt><trkpt lat="45.8863791090045" lon="10.837879321851851"><ele>83.60000000000001</ele><time>2026-04-06T14:41:54.945Z</time></trkpt><trkpt lat="45.8864883648158" lon="10.837868413867536"><ele>84.2</ele><time>2026-04-06T14:41:56.945Z</time></trkpt><trkpt lat="45.88660226476249" lon="10.83785384132898"><ele>84.8</ele><time>2026-04-06T14:41:58.945Z</time></trkpt><trkpt lat="45.886696906836214" lon="10.837857728448435"><ele>85.4</ele><time>2026-04-06T14:42:00.945Z</time></trkpt><trkpt lat="45.88678869495851" lon="10.837855746378953"><ele>86.0</ele><time>2026-04-06T14:42:02.945Z</time></trkpt><trkpt lat="45.88687994145857" lon="10.83787383684346"><ele>86.0</ele><time>2026-04-06T14:42:04.945Z</time></trkpt><trkpt lat="45.886975868734424" lon="10.837911586786712"><ele>86.0</ele><time>2026-04-06T14:42:06.945Z</time></trkpt><trkpt lat="45.88708485311752" lon="10.837977133810664"><ele>86.0</ele><time>2026-04-06T14:42:08.945Z</time></trkpt><trkpt lat="45.88719104825624" lon="10.838046688517684"><ele>86.0</ele><time>2026-04-06T14:42:10.945Z</time></trkpt><trkpt lat="45.88728708595805" lon="10.838098590121225"><ele>86.0</ele><time>2026-04-06T14:42:12.945Z</time></trkpt><trkpt lat="45.887387613665084" lon="10.838149574854336"><ele>86.0</ele><time>2026-04-06T14:42:14.945Z</time></trkpt><trkpt lat="45.887436263691896" lon="10.838024913753586"><ele>86.0</ele><time>2026-04-06T14:42:23.945Z</time></trkpt><trkpt lat="45.887448548845036" lon="10.837925785405753"><ele>86.0</ele><time>2026-04-06T14:42:24.945Z</time></trkpt><trkpt lat="45.88747077979142" lon="10.83780572708285"><ele>86.0</ele><time>2026-04-06T14:42:26.945Z</time></trkpt><trkpt lat="45.887522932053415" lon="10.837690445767327"><ele>86.0</ele><time>2026-04-06T14:42:28.945Z</time></trkpt><trkpt lat="45.88756666469577" lon="10.83760398285628"><ele>86.0</ele><time>2026-04-06T14:42:29.945Z</time></trkpt><trkpt lat="45.88764277309886" lon="10.83747376033413"><ele>90.5</ele><time>2026-04-06T14:42:30.945Z</time></trkpt><trkpt lat="45.8877246647559" lon="10.837317753051495"><ele>95.0</ele><time>2026-04-06T14:42:31.945Z</time></trkpt><trkpt lat="45.887807513924656" lon="10.837159629630762"><ele>99.5</ele><time>2026-04-06T14:42:32.96Z</time></trkpt><trkpt lat="45.88788610209697" lon="10.837011543391347"><ele>104.0</ele><time>2026-04-06T14:42:33.966Z</time></trkpt><trkpt lat="45.88795566798882" lon="10.836824977334524"><ele>110.25</ele><time>2026-04-06T14:42:34.961Z</time></trkpt><trkpt lat="45.88804592404489" lon="10.836618945232903"><ele>116.5</ele><time>2026-04-06T14:42:35.965Z</time></trkpt><trkpt lat="45.8881260455681" lon="10.836496505538435"><ele>122.75</ele><time>2026-04-06T14:42:36.96Z</time></trkpt><trkpt lat="45.8881827334782" lon="10.83635531430324"><ele>129.0</ele><time>2026-04-06T14:42:37.963Z</time></trkpt><trkpt lat="45.888246624304884" lon="10.836244462219142"><ele>129.0</ele><time>2026-04-06T14:42:38.973Z</time></trkpt><trkpt lat="45.888318184931094" lon="10.83611522768082"><ele>129.0</ele><time>2026-04-06T14:42:39.961Z</time></trkpt><trkpt lat="45.892671765802326" lon="10.837237201641162"><ele>120.33333333333334</ele><time>2026-04-06T14:43:01.945Z</time></trkpt><trkpt lat="45.89280466804648" lon="10.83736607191747"><ele>111.66666666666667</ele><time>2026-04-06T14:43:02.945Z</time></trkpt><trkpt lat="45.892927729126164" lon="10.837496097642115"><ele>103.0</ele><time>2026-04-06T14:43:03.945Z</time></trkpt><trkpt lat="45.893043956827036" lon="10.837615612462773"><ele>101.0</ele><time>2026-04-06T14:43:04.945Z</time></trkpt><trkpt lat="45.893172437956046" lon="10.837746238422055"><ele>99.0</ele><time>2026-04-06T14:43:05.964Z</time></trkpt><trkpt lat="45.89423427828205" lon="10.838332464928587"><ele>99.66666666666666</ele><time>2026-04-06T14:43:13.945Z</time></trkpt><trkpt lat="45.8943765653815" lon="10.838359131971737"><ele>100.33333333333333</ele><time>2026-04-06T14:43:14.945Z</time></trkpt><trkpt lat="45.89458556094983" lon="10.838371902510303"><ele>101.0</ele><time>2026-04-06T14:43:15.945Z</time></trkpt><trkpt lat="45.89471103178736" lon="10.838401472343632"><ele>101.0</ele><time>2026-04-06T14:43:16.945Z</time></trkpt><trkpt lat="45.894838147373385" lon="10.838421084901015"><ele>101.0</ele><time>2026-04-06T14:43:17.945Z</time></trkpt><trkpt lat="45.89495117726732" lon="10.838438635695928"><ele>101.0</ele><time>2026-04-06T14:43:18.945Z</time></trkpt><trkpt lat="45.89505683386744" lon="10.838445734053234"><ele>101.0</ele><time>2026-04-06T14:43:19.946Z</time></trkpt><trkpt lat="45.895143575795146" lon="10.838427077953355"><ele>101.0</ele><time>2026-04-06T14:43:20.946Z</time></trkpt><trkpt lat="45.89522264132491" lon="10.838434026783569"><ele>101.33333333333333</ele><time>2026-04-06T14:43:21.946Z</time></trkpt><trkpt lat="45.89529251553259" lon="10.83842010219778"><ele>101.66666666666666</ele><time>2026-04-06T14:43:22.946Z</time></trkpt><trkpt lat="45.89540416612337" lon="10.838402792278158"><ele>102.0</ele><time>2026-04-06T14:43:24.946Z</time></trkpt><trkpt lat="45.895511943050195" lon="10.838376617611885"><ele>102.33333333333334</ele><time>2026-04-06T14:43:26.946Z</time></trkpt><trkpt lat="45.89559396073366" lon="10.838352936232138"><ele>102.66666666666667</ele><time>2026-04-06T14:43:28.946Z</time></trkpt><trkpt lat="45.89566490797797" lon="10.83832676497268"><ele>103.0</ele><time>2026-04-06T14:43:30.946Z</time></trkpt><trkpt lat="45.89574262636305" lon="10.838307090024044"><ele>103.00000000000001</ele><time>2026-04-06T14:43:32.946Z</time></trkpt><trkpt lat="45.89582550869492" lon="10.838264569805219"><ele>103.0</ele><time>2026-04-06T14:43:34.946Z</time></trkpt><trkpt lat="45.895892265503456" lon="10.838237107073404"><ele>103.0</ele><time>2026-04-06T14:43:36.946Z</time></trkpt><trkpt lat="45.895958885512655" lon="10.838226204843702"><ele>103.0</ele><time>2026-04-06T14:43:50.946Z</time></trkpt><trkpt lat="45.89602636535944" lon="10.838235240216804"><ele>103.00000000000001</ele><time>2026-04-06T14:43:52.946Z</time></trkpt><trkpt lat="45.896103768381444" lon="10.838193157668625"><ele>103.0</ele><time>2026-04-06T14:43:54.946Z</time></trkpt><trkpt lat="45.89618236339806" lon="10.838156467981218"><ele>102.80000000000001</ele><time>2026-04-06T14:43:58.946Z</time></trkpt><trkpt lat="45.89625167321497" lon="10.838194255638484"><ele>102.6</ele><time>2026-04-06T14:44:07.946Z</time></trkpt><trkpt lat="45.896319893676754" lon="10.838319961771512"><ele>102.4</ele><time>2026-04-06T14:44:09.946Z</time></trkpt><trkpt lat="45.8963956994186" lon="10.838425653976875"><ele>102.19999999999999</ele><time>2026-04-06T14:44:11.946Z</time></trkpt><trkpt lat="45.89647507737442" lon="10.83855839123973"><ele>102.0</ele><time>2026-04-06T14:44:13.946Z</time></trkpt><trkpt lat="45.8964887308008" lon="10.838657408462291"><ele>101.19999999999999</ele><time>2026-04-06T14:44:14.946Z</time></trkpt><trkpt lat="45.89645982044485" lon="10.838754403626059"><ele>100.4</ele><time>2026-04-06T14:44:15.946Z</time></trkpt><trkpt lat="45.89645314740826" lon="10.838868196849202"><ele>99.6</ele><time>2026-04-06T14:44:16.946Z</time></trkpt><trkpt lat="45.896445645005535" lon="10.839014987766124"><ele>98.80000000000001</ele><time>2026-04-06T14:44:17.946Z</time></trkpt><trkpt lat="45.89645368896081" lon="10.83918111059004"><ele>98.0</ele><time>2026-04-06T14:44:18.946Z</time></trkpt><trkpt lat="45.89643918910818" lon="10.839346483533696"><ele>97.5</ele><time>2026-04-06T14:44:19.946Z</time></trkpt><trkpt lat="45.89641450673534" lon="10.839497055457572"><ele>97.0</ele><time>2026-04-06T14:44:20.946Z</time></trkpt><trkpt lat="45.89638196747727" lon="10.839620634911125"><ele>96.5</ele><time>2026-04-06T14:44:21.946Z</time></trkpt><trkpt lat="45.89634525873355" lon="10.839816547373056"><ele>96.0</ele><time>2026-04-06T14:44:22.946Z</time></trkpt><trkpt lat="45.89629559939828" lon="10.839980937626233"><ele>95.66666666666667</ele><time>2026-04-06T14:44:23.946Z</time></trkpt><trkpt lat="45.89623766031291" lon="10.840142662444999"><ele>95.33333333333334</ele><time>2026-04-06T14:44:24.946Z</time></trkpt><trkpt lat="45.89615357595857" lon="10.840344852998067"><ele>95.0</ele><time>2026-04-06T14:44:25.946Z</time></trkpt><trkpt lat="45.8960146859542" lon="10.840542545078298"><ele>94.66666666666667</ele><time>2026-04-06T14:44:26.946Z</time></trkpt><trkpt lat="45.89587469957639" lon="10.840728875009281"><ele>94.33333333333333</ele><time>2026-04-06T14:44:27.946Z</time></trkpt><trkpt lat="45.89572614600812" lon="10.840940407770901"><ele>94.0</ele><time>2026-04-06T14:44:28.946Z</time></trkpt><trkpt lat="45.895567291436755" lon="10.84112065333575"><ele>93.33333333333333</ele><time>2026-04-06T14:44:29.946Z</time></trkpt><trkpt lat="45.895433149880056" lon="10.841301294619932"><ele>92.66666666666667</ele><time>2026-04-06T14:44:30.946Z</time></trkpt><trkpt lat="45.895307014850204" lon="10.841448157867458"><ele>92.0</ele><time>2026-04-06T14:44:31.946Z</time></trkpt><trkpt lat="45.89522826127985" lon="10.84159905008852"><ele>92.0</ele><time>2026-04-06T14:44:32.946Z</time></trkpt><trkpt lat="45.8951329141296" lon="10.84172465966853"><ele>92.0</ele><time>2026-04-06T14:44:33.946Z</time></trkpt><trkpt lat="45.89503639162052" lon="10.84191930243929"><ele>92.0</ele><time>2026-04-06T14:44:34.946Z</time></trkpt><trkpt lat="45.89494965740334" lon="10.842133007822536"><ele>92.0</ele><time>2026-04-06T14:44:35.946Z</time></trkpt><trkpt lat="45.8948860591646" lon="10.842318414497596"><ele>92.0</ele><time>2026-04-06T14:44:36.946Z</time></trkpt><trkpt lat="45.894838271857274" lon="10.842461132707035"><ele>92.0</ele><time>2026-04-06T14:44:37.946Z</time></trkpt><trkpt lat="45.89479062998419" lon="10.842605536023441"><ele>92.0</ele><time>2026-04-06T14:44:38.946Z</time></trkpt><trkpt lat="45.89474891373572" lon="10.842731978874683"><ele>91.83333333333334</ele><time>2026-04-06T14:44:39.946Z</time></trkpt><trkpt lat="45.89470848944739" lon="10.842852644823035"><ele>91.66666666666667</ele><time>2026-04-06T14:44:40.946Z</time></trkpt><trkpt lat="45.8946724650209" lon="10.842957175511"><ele>91.5</ele><time>2026-04-06T14:44:41.946Z</time></trkpt><trkpt lat="45.89464316259421" lon="10.843039232955737"><ele>91.33333333333333</ele><time>2026-04-06T14:44:42.946Z</time></trkpt><trkpt lat="45.89461405508511" lon="10.843154624728408"><ele>91.16666666666666</ele><time>2026-04-06T14:44:44.946Z</time></trkpt><trkpt lat="45.89454064876813" lon="10.84320527781999"><ele>91.0</ele><time>2026-04-06T14:44:47.946Z</time></trkpt><trkpt lat="45.894425718629314" lon="10.843230310581308"><ele>91.0</ele><time>2026-04-06T14:44:49.946Z</time></trkpt><trkpt lat="45.89435161855139" lon="10.843204932999317"><ele>91.0</ele><time>2026-04-06T14:44:50.946Z</time></trkpt><trkpt lat="45.894234320817674" lon="10.843253976894768"><ele>91.0</ele><time>2026-04-06T14:44:52.946Z</time></trkpt><trkpt lat="45.894209616955024" lon="10.843449949431662"><ele>91.0</ele><time>2026-04-06T14:44:54.946Z</time></trkpt><trkpt lat="45.89424383787199" lon="10.843534566527364"><ele>91.0</ele><time>2026-04-06T14:44:55.946Z</time></trkpt><trkpt lat="45.89430660790728" lon="10.843576886063325"><ele>91.0</ele><time>2026-04-06T14:44:56.946Z</time></trkpt><trkpt lat="45.894393340952824" lon="10.84358934447935"><ele>91.0</ele><time>2026-04-06T14:44:57.946Z</time></trkpt><trkpt lat="45.894479262589485" lon="10.843580584400392"><ele>91.0</ele><time>2026-04-06T14:44:58.946Z</time></trkpt><trkpt lat="45.89455250285826" lon="10.843562205159234"><ele>91.0</ele><time>2026-04-06T14:44:59.946Z</time></trkpt><trkpt lat="45.894600739531874" lon="10.843488207772467"><ele>91.0</ele><time>2026-04-06T14:45:00.946Z</time></trkpt><trkpt lat="45.89461900686668" lon="10.843384787757216"><ele>91.0</ele><time>2026-04-06T14:45:01.946Z</time></trkpt><trkpt lat="45.89458803081289" lon="10.843299401322541"><ele>91.0</ele><time>2026-04-06T14:45:02.946Z</time></trkpt><trkpt lat="45.89441588782279" lon="10.843234552087445"><ele>91.0</ele><time>2026-04-06T14:45:04.946Z</time></trkpt><trkpt lat="45.894325423952765" lon="10.843214677517901"><ele>91.0</ele><time>2026-04-06T14:45:05.946Z</time></trkpt><trkpt lat="45.89423439360317" lon="10.843197906599789"><ele>91.0</ele><time>2026-04-06T14:45:07.946Z</time></trkpt><trkpt lat="45.894213379348194" lon="10.843355376452324"><ele>90.4</ele><time>2026-04-06T14:45:08.946Z</time></trkpt><trkpt lat="45.89424825609985" lon="10.843515207833432"><ele>89.8</ele><time>2026-04-06T14:45:10.946Z</time></trkpt><trkpt lat="45.89425271264612" lon="10.843649265358623"><ele>89.2</ele><time>2026-04-06T14:45:11.946Z</time></trkpt><trkpt lat="45.89423963076716" lon="10.843786262947209"><ele>88.60000000000001</ele><time>2026-04-06T14:45:12.946Z</time></trkpt><trkpt lat="45.89419431893608" lon="10.843921345928553"><ele>88.0</ele><time>2026-04-06T14:45:13.946Z</time></trkpt><trkpt lat="45.89416061531757" lon="10.844070075872844"><ele>88.0</ele><time>2026-04-06T14:45:14.946Z</time></trkpt><trkpt lat="45.8941309435185" lon="10.84419330752334"><ele>88.0</ele><time>2026-04-06T14:45:15.946Z</time></trkpt><trkpt lat="45.89410032319884" lon="10.844321553333998"><ele>88.0</ele><time>2026-04-06T14:45:17.946Z</time></trkpt><trkpt lat="45.89407741101078" lon="10.844417515447592"><ele>88.0</ele><time>2026-04-06T14:45:18.946Z</time></trkpt><trkpt lat="45.89404353193432" lon="10.844559410146053"><ele>88.0</ele><time>2026-04-06T14:45:19.946Z</time></trkpt><trkpt lat="45.89400657337811" lon="10.84473332214754"><ele>87.5</ele><time>2026-04-06T14:45:20.946Z</time></trkpt><trkpt lat="45.89396298451822" lon="10.844880510345908"><ele>87.0</ele><time>2026-04-06T14:45:21.946Z</time></trkpt><trkpt lat="45.89390912275034" lon="10.845027589268751"><ele>86.5</ele><time>2026-04-06T14:45:22.946Z</time></trkpt><trkpt lat="45.8938143328715" lon="10.845160587732048"><ele>86.0</ele><time>2026-04-06T14:45:23.946Z</time></trkpt><trkpt lat="45.893671606310036" lon="10.84529388583696"><ele>85.66666666666667</ele><time>2026-04-06T14:45:24.946Z</time></trkpt><trkpt lat="45.89351785228098" lon="10.845484490374911"><ele>85.33333333333333</ele><time>2026-04-06T14:45:25.946Z</time></trkpt><trkpt lat="45.89336118819945" lon="10.845652266884017"><ele>85.0</ele><time>2026-04-06T14:45:26.946Z</time></trkpt><trkpt lat="45.893227529460475" lon="10.845806223735877"><ele>84.33333333333333</ele><time>2026-04-06T14:45:27.946Z</time></trkpt><trkpt lat="45.89310148975425" lon="10.845925841554934"><ele>83.66666666666667</ele><time>2026-04-06T14:45:28.946Z</time></trkpt><trkpt lat="45.89296617964679" lon="10.846024083522176"><ele>83.0</ele><time>2026-04-06T14:45:29.946Z</time></trkpt><trkpt lat="45.892826356001194" lon="10.846118954881948"><ele>83.0</ele><time>2026-04-06T14:45:30.946Z</time></trkpt><trkpt lat="45.89268842606986" lon="10.84620615165752"><ele>83.0</ele><time>2026-04-06T14:45:31.946Z</time></trkpt><trkpt lat="45.89257525629589" lon="10.846287338855612"><ele>83.0</ele><time>2026-04-06T14:45:32.946Z</time></trkpt><trkpt lat="45.89248107063726" lon="10.846344366698624"><ele>83.0</ele><time>2026-04-06T14:45:33.946Z</time></trkpt><trkpt lat="45.89240743590411" lon="10.846365187137861"><ele>83.16666666666667</ele><time>2026-04-06T14:45:34.946Z</time></trkpt><trkpt lat="45.89234242674334" lon="10.846377210154794"><ele>83.33333333333334</ele><time>2026-04-06T14:45:35.946Z</time></trkpt><trkpt lat="45.892276817537784" lon="10.846361211863751"><ele>83.5</ele><time>2026-04-06T14:45:36.946Z</time></trkpt><trkpt lat="45.89221068740749" lon="10.846332116447405"><ele>83.66666666666667</ele><time>2026-04-06T14:45:37.946Z</time></trkpt><trkpt lat="45.89212825684783" lon="10.84630514220624"><ele>83.83333333333333</ele><time>2026-04-06T14:45:39.946Z</time></trkpt><trkpt lat="45.89206070273495" lon="10.846361488918088"><ele>84.0</ele><time>2026-04-06T14:45:48.946Z</time></trkpt><trkpt lat="45.892032607577136" lon="10.846499202886719"><ele>84.0</ele><time>2026-04-06T14:45:50.946Z</time></trkpt><trkpt lat="45.89205833416696" lon="10.846584244374142"><ele>84.0</ele><time>2026-04-06T14:45:51.946Z</time></trkpt><trkpt lat="45.892127609301745" lon="10.846682637188344"><ele>84.0</ele><time>2026-04-06T14:45:53.946Z</time></trkpt><trkpt lat="45.89219180266447" lon="10.846764372965717"><ele>84.0</ele><time>2026-04-06T14:45:55.946Z</time></trkpt><trkpt lat="45.89228992076608" lon="10.846872157016087"><ele>84.0</ele><time>2026-04-06T14:45:57.946Z</time></trkpt><trkpt lat="45.892349268693124" lon="10.84694303971618"><ele>84.0</ele><time>2026-04-06T14:45:58.946Z</time></trkpt><trkpt lat="45.8924069361179" lon="10.847013532590253"><ele>84.0</ele><time>2026-04-06T14:45:59.946Z</time></trkpt><trkpt lat="45.89251442263059" lon="10.847130162680402"><ele>84.0</ele><time>2026-04-06T14:46:01.946Z</time></trkpt><trkpt lat="45.89256547107492" lon="10.847186321898713"><ele>84.0</ele><time>2026-04-06T14:46:02.946Z</time></trkpt><trkpt lat="45.8926087819667" lon="10.847272741328759"><ele>84.0</ele><time>2026-04-06T14:46:03.946Z</time></trkpt><trkpt lat="45.89270209249365" lon="10.847341341263824"><ele>84.0</ele><time>2026-04-06T14:46:05.946Z</time></trkpt><trkpt lat="45.89279078084383" lon="10.847419025447998"><ele>84.0</ele><time>2026-04-06T14:46:07.946Z</time></trkpt><trkpt lat="45.892882357543776" lon="10.847522476754834"><ele>84.0</ele><time>2026-04-06T14:46:09.946Z</time></trkpt><trkpt lat="45.89296043939153" lon="10.847599325041106"><ele>84.0</ele><time>2026-04-06T14:46:11.946Z</time></trkpt><trkpt lat="45.89304121713512" lon="10.847682456265773"><ele>84.0</ele><time>2026-04-06T14:46:13.946Z</time></trkpt><trkpt lat="45.8930932169391" lon="10.84774007512644"><ele>84.0</ele><time>2026-04-06T14:46:15.946Z</time></trkpt><trkpt lat="45.893155238951216" lon="10.847780681762924"><ele>84.0</ele><time>2026-04-06T14:47:30.946Z</time></trkpt><trkpt lat="45.89321056540215" lon="10.84785530511795"><ele>84.0</ele><time>2026-04-06T14:47:31.947Z</time></trkpt><trkpt lat="45.89328988225959" lon="10.84792741667075"><ele>84.0</ele><time>2026-04-06T14:47:32.947Z</time></trkpt><trkpt lat="45.89334531936135" lon="10.847988407082546"><ele>84.0</ele><time>2026-04-06T14:47:33.947Z</time></trkpt><trkpt lat="45.89341323938542" lon="10.84807645494901"><ele>84.0</ele><time>2026-04-06T14:47:40.947Z</time></trkpt><trkpt lat="45.89347609740131" lon="10.84812040528051"><ele>84.0</ele><time>2026-04-06T14:47:41.946Z</time></trkpt><trkpt lat="45.893527495192735" lon="10.848176996168895"><ele>84.0</ele><time>2026-04-06T14:47:42.946Z</time></trkpt><trkpt lat="45.893612556733224" lon="10.84827173922868"><ele>84.0</ele><time>2026-04-06T14:47:44.946Z</time></trkpt><trkpt lat="45.893672989273874" lon="10.84832478137829"><ele>84.0</ele><time>2026-04-06T14:47:45.946Z</time></trkpt><trkpt lat="45.89374216142702" lon="10.848400563973485"><ele>84.0</ele><time>2026-04-06T14:47:46.946Z</time></trkpt><trkpt lat="45.89379714180975" lon="10.848462753381787"><ele>84.0</ele><time>2026-04-06T14:47:47.946Z</time></trkpt><trkpt lat="45.893850757907174" lon="10.84851787043205"><ele>84.0</ele><time>2026-04-06T14:47:48.946Z</time></trkpt><trkpt lat="45.89390450523064" lon="10.848577004555379"><ele>84.0</ele><time>2026-04-06T14:47:49.946Z</time></trkpt><trkpt lat="45.893961788639615" lon="10.848649237643764"><ele>84.0</ele><time>2026-04-06T14:47:50.946Z</time></trkpt><trkpt lat="45.89402629554696" lon="10.848716343378767"><ele>83.80000000000001</ele><time>2026-04-06T14:47:51.946Z</time></trkpt><trkpt lat="45.894084731444096" lon="10.848780684038408"><ele>83.60000000000001</ele><time>2026-04-06T14:47:52.946Z</time></trkpt><trkpt lat="45.89415047935902" lon="10.84886543977239"><ele>83.4</ele><time>2026-04-06T14:47:53.946Z</time></trkpt><trkpt lat="45.89422462040535" lon="10.848951255023126"><ele>83.2</ele><time>2026-04-06T14:47:54.946Z</time></trkpt><trkpt lat="45.894304257548285" lon="10.849036165203657"><ele>83.0</ele><time>2026-04-06T14:47:55.946Z</time></trkpt><trkpt lat="45.89438837354925" lon="10.849119691415993"><ele>83.66666666666667</ele><time>2026-04-06T14:47:56.946Z</time></trkpt><trkpt lat="45.89447144427377" lon="10.849202556080193"><ele>84.33333333333334</ele><time>2026-04-06T14:47:57.946Z</time></trkpt><trkpt lat="45.8945459866887" lon="10.849280477891876"><ele>85.0</ele><time>2026-04-06T14:47:58.946Z</time></trkpt><trkpt lat="45.894611004655914" lon="10.84933758703145"><ele>85.66666666666667</ele><time>2026-04-06T14:47:59.946Z</time></trkpt><trkpt lat="45.89466098815513" lon="10.84940052372228"><ele>86.33333333333333</ele><time>2026-04-06T14:48:00.946Z</time></trkpt><trkpt lat="45.894718675577955" lon="10.849454232474622"><ele>87.0</ele><time>2026-04-06T14:48:01.946Z</time></trkpt><trkpt lat="45.894777298761" lon="10.849516734446153"><ele>87.0</ele><time>2026-04-06T14:48:02.946Z</time></trkpt><trkpt lat="45.89483987932868" lon="10.849591136183474"><ele>87.0</ele><time>2026-04-06T14:48:03.946Z</time></trkpt><trkpt lat="45.89491111087747" lon="10.849675567618682"><ele>87.0</ele><time>2026-04-06T14:48:04.946Z</time></trkpt><trkpt lat="45.89498017837429" lon="10.849759960693287"><ele>87.0</ele><time>2026-04-06T14:48:05.946Z</time></trkpt><trkpt lat="45.89506372896035" lon="10.849854629588403"><ele>87.0</ele><time>2026-04-06T14:48:06.946Z</time></trkpt><trkpt lat="45.895135231595646" lon="10.849932509879599"><ele>87.33333333333333</ele><time>2026-04-06T14:48:07.946Z</time></trkpt><trkpt lat="45.895206810436825" lon="10.850003158907338"><ele>87.66666666666667</ele><time>2026-04-06T14:48:08.946Z</time></trkpt><trkpt lat="45.895274403805104" lon="10.850077896900556"><ele>88.0</ele><time>2026-04-06T14:48:09.946Z</time></trkpt><trkpt lat="45.89534501136396" lon="10.850151988160205"><ele>88.33333333333334</ele><time>2026-04-06T14:48:10.946Z</time></trkpt><trkpt lat="45.89542200701884" lon="10.850218429880131"><ele>88.66666666666667</ele><time>2026-04-06T14:48:11.946Z</time></trkpt><trkpt lat="45.89549580310867" lon="10.850294408965935"><ele>89.0</ele><time>2026-04-06T14:48:12.946Z</time></trkpt><trkpt lat="45.89556642570322" lon="10.85037325600529"><ele>89.0</ele><time>2026-04-06T14:48:13.946Z</time></trkpt><trkpt lat="45.89564003472235" lon="10.850451864519878"><ele>89.0</ele><time>2026-04-06T14:48:14.946Z</time></trkpt><trkpt lat="45.895714385454234" lon="10.850530018583473"><ele>89.0</ele><time>2026-04-06T14:48:15.946Z</time></trkpt><trkpt lat="45.895787004926305" lon="10.850605728936273"><ele>89.0</ele><time>2026-04-06T14:48:16.946Z</time></trkpt><trkpt lat="45.8958563520852" lon="10.85068106838004"><ele>89.0</ele><time>2026-04-06T14:48:17.946Z</time></trkpt><trkpt lat="45.89591995284498" lon="10.850750637539955"><ele>89.0</ele><time>2026-04-06T14:48:18.946Z</time></trkpt><trkpt lat="45.89598380651654" lon="10.8508229324426"><ele>89.33333333333334</ele><time>2026-04-06T14:48:19.946Z</time></trkpt><trkpt lat="45.89605332194286" lon="10.8508988432108"><ele>89.66666666666667</ele><time>2026-04-06T14:48:20.946Z</time></trkpt><trkpt lat="45.89612542234657" lon="10.850978376229136"><ele>90.0</ele><time>2026-04-06T14:48:21.946Z</time></trkpt><trkpt lat="45.89619459968485" lon="10.851050254647895"><ele>90.33333333333333</ele><time>2026-04-06T14:48:22.946Z</time></trkpt><trkpt lat="45.896258012357464" lon="10.851118269832254"><ele>90.66666666666666</ele><time>2026-04-06T14:48:23.946Z</time></trkpt><trkpt lat="45.89632619082329" lon="10.851183196978047"><ele>91.0</ele><time>2026-04-06T14:48:24.946Z</time></trkpt><trkpt lat="45.89639930104791" lon="10.851262386009598"><ele>91.0</ele><time>2026-04-06T14:48:25.946Z</time></trkpt><trkpt lat="45.896477911164084" lon="10.851331861134987"><ele>91.0</ele><time>2026-04-06T14:48:26.946Z</time></trkpt><trkpt lat="45.89655303420352" lon="10.851400686651706"><ele>91.0</ele><time>2026-04-06T14:48:27.946Z</time></trkpt><trkpt lat="45.896615018897855" lon="10.851469995615387"><ele>91.0</ele><time>2026-04-06T14:48:28.946Z</time></trkpt><trkpt lat="45.896668717708096" lon="10.851530721892267"><ele>91.0</ele><time>2026-04-06T14:48:29.946Z</time></trkpt><trkpt lat="45.89672835321993" lon="10.851589557579722"><ele>91.0</ele><time>2026-04-06T14:48:30.946Z</time></trkpt><trkpt lat="45.89678970626703" lon="10.85165146516396"><ele>91.16666666666666</ele><time>2026-04-06T14:48:31.946Z</time></trkpt><trkpt lat="45.8968430021543" lon="10.851703660689907"><ele>91.33333333333333</ele><time>2026-04-06T14:48:32.946Z</time></trkpt><trkpt lat="45.89689862904961" lon="10.851759984802017"><ele>91.5</ele><time>2026-04-06T14:48:34.946Z</time></trkpt><trkpt lat="45.89695344938736" lon="10.851816578898276"><ele>91.66666666666667</ele><time>2026-04-06T14:48:36.946Z</time></trkpt><trkpt lat="45.897017265973425" lon="10.85189109170297"><ele>91.83333333333334</ele><time>2026-04-06T14:48:38.946Z</time></trkpt><trkpt lat="45.89709196899126" lon="10.851966182814817"><ele>92.0</ele><time>2026-04-06T14:48:40.946Z</time></trkpt><trkpt lat="45.897174414907866" lon="10.852059856151422"><ele>91.66666666666667</ele><time>2026-04-06T14:48:42.946Z</time></trkpt><trkpt lat="45.89721415728121" lon="10.85213636190057"><ele>91.33333333333334</ele><time>2026-04-06T14:48:43.946Z</time></trkpt><trkpt lat="45.89727815462285" lon="10.852297200645422"><ele>91.0</ele><time>2026-04-06T14:48:45.946Z</time></trkpt><trkpt lat="45.89732281334304" lon="10.852376483669287"><ele>90.66666666666667</ele><time>2026-04-06T14:48:46.946Z</time></trkpt><trkpt lat="45.89737902357294" lon="10.852444430014465"><ele>90.33333333333333</ele><time>2026-04-06T14:48:47.946Z</time></trkpt><trkpt lat="45.897469404839256" lon="10.852456014869997"><ele>90.0</ele><time>2026-04-06T14:48:48.946Z</time></trkpt><trkpt lat="45.89757680052193" lon="10.852474904420987"><ele>90.2</ele><time>2026-04-06T14:48:49.946Z</time></trkpt><trkpt lat="45.89768610221711" lon="10.852540245282881"><ele>90.4</ele><time>2026-04-06T14:48:50.946Z</time></trkpt><trkpt lat="45.89777387173022" lon="10.852614070917722"><ele>90.6</ele><time>2026-04-06T14:48:51.946Z</time></trkpt><trkpt lat="45.89785131827474" lon="10.852687272838882"><ele>90.8</ele><time>2026-04-06T14:48:52.946Z</time></trkpt><trkpt lat="45.89793324268194" lon="10.852767718850522"><ele>91.0</ele><time>2026-04-06T14:48:53.946Z</time></trkpt><trkpt lat="45.89801841758015" lon="10.852853347102121"><ele>91.0</ele><time>2026-04-06T14:48:54.946Z</time></trkpt><trkpt lat="45.89809749588443" lon="10.852937628111773"><ele>91.0</ele><time>2026-04-06T14:48:55.946Z</time></trkpt><trkpt lat="45.89816754314337" lon="10.853030294386643"><ele>91.0</ele><time>2026-04-06T14:48:56.946Z</time></trkpt><trkpt lat="45.898242105466736" lon="10.853118459834606"><ele>91.0</ele><time>2026-04-06T14:48:57.946Z</time></trkpt><trkpt lat="45.898298556873144" lon="10.853216228886362"><ele>91.0</ele><time>2026-04-06T14:48:58.946Z</time></trkpt><trkpt lat="45.89835972309348" lon="10.853300264103392"><ele>90.8</ele><time>2026-04-06T14:48:59.946Z</time></trkpt><trkpt lat="45.898430510666095" lon="10.853368429090839"><ele>90.6</ele><time>2026-04-06T14:49:00.946Z</time></trkpt><trkpt lat="45.89847118107885" lon="10.853459457952345"><ele>90.4</ele><time>2026-04-06T14:49:01.946Z</time></trkpt><trkpt lat="45.89851499228168" lon="10.853533167263663"><ele>90.2</ele><time>2026-04-06T14:49:02.946Z</time></trkpt><trkpt lat="45.89860530934417" lon="10.853682017327587"><ele>90.0</ele><time>2026-04-06T14:49:04.946Z</time></trkpt><trkpt lat="45.89866532551251" lon="10.853783787925288"><ele>89.8</ele><time>2026-04-06T14:49:05.946Z</time></trkpt><trkpt lat="45.89873963566821" lon="10.853909111728159"><ele>89.6</ele><time>2026-04-06T14:49:06.946Z</time></trkpt><trkpt lat="45.89881648513691" lon="10.854040844905235"><ele>89.4</ele><time>2026-04-06T14:49:07.946Z</time></trkpt><trkpt lat="45.89888421954044" lon="10.854158909366486"><ele>89.2</ele><time>2026-04-06T14:49:08.946Z</time></trkpt><trkpt lat="45.89894654573885" lon="10.85426864205731"><ele>89.0</ele><time>2026-04-06T14:49:09.946Z</time></trkpt><trkpt lat="45.89900846442486" lon="10.854375787985331"><ele>88.33333333333334</ele><time>2026-04-06T14:49:10.946Z</time></trkpt><trkpt lat="45.89906931882774" lon="10.854480737681376"><ele>87.66666666666667</ele><time>2026-04-06T14:49:11.946Z</time></trkpt><trkpt lat="45.89912531697486" lon="10.854576429382753"><ele>87.0</ele><time>2026-04-06T14:49:12.946Z</time></trkpt><trkpt lat="45.89917928785553" lon="10.854667662872913"><ele>86.33333333333333</ele><time>2026-04-06T14:49:13.946Z</time></trkpt><trkpt lat="45.89923121564237" lon="10.85475544262587"><ele>85.66666666666666</ele><time>2026-04-06T14:49:14.946Z</time></trkpt><trkpt lat="45.89928950044449" lon="10.854853968431954"><ele>85.0</ele><time>2026-04-06T14:49:15.946Z</time></trkpt><trkpt lat="45.89935811091551" lon="10.854971735707021"><ele>85.0</ele><time>2026-04-06T14:49:16.946Z</time></trkpt><trkpt lat="45.89943532089454" lon="10.855104857787948"><ele>85.0</ele><time>2026-04-06T14:49:17.946Z</time></trkpt><trkpt lat="45.89952846760447" lon="10.85526446814577"><ele>85.0</ele><time>2026-04-06T14:49:18.946Z</time></trkpt><trkpt lat="45.89961436497426" lon="10.855413287291608"><ele>85.0</ele><time>2026-04-06T14:49:19.946Z</time></trkpt><trkpt lat="45.89969456915839" lon="10.855552410494388"><ele>84.75</ele><time>2026-04-06T14:49:20.946Z</time></trkpt><trkpt lat="45.89977000228156" lon="10.855683317167328"><ele>84.5</ele><time>2026-04-06T14:49:21.946Z</time></trkpt><trkpt lat="45.89986646101082" lon="10.855792910270198"><ele>84.25</ele><time>2026-04-06T14:49:22.946Z</time></trkpt><trkpt lat="45.89994226765381" lon="10.85592825710526"><ele>84.0</ele><time>2026-04-06T14:49:23.946Z</time></trkpt><trkpt lat="45.90004843390512" lon="10.85609949803251"><ele>83.5</ele><time>2026-04-06T14:49:24.946Z</time></trkpt><trkpt lat="45.90015578795317" lon="10.856282294417671"><ele>83.0</ele><time>2026-04-06T14:49:25.946Z</time></trkpt><trkpt lat="45.90024816472932" lon="10.856441564889277"><ele>82.5</ele><time>2026-04-06T14:49:26.946Z</time></trkpt><trkpt lat="45.90033620923607" lon="10.856590588718374"><ele>82.0</ele><time>2026-04-06T14:49:27.946Z</time></trkpt><trkpt lat="45.900400740358705" lon="10.856713468990842"><ele>81.83333333333333</ele><time>2026-04-06T14:49:28.946Z</time></trkpt><trkpt lat="45.90044007254167" lon="10.856836630985685"><ele>81.66666666666666</ele><time>2026-04-06T14:49:29.946Z</time></trkpt><trkpt lat="45.90049695485109" lon="10.85693490420056"><ele>81.5</ele><time>2026-04-06T14:49:30.946Z</time></trkpt><trkpt lat="45.90055174543888" lon="10.857029563739472"><ele>81.33333333333333</ele><time>2026-04-06T14:49:31.946Z</time></trkpt><trkpt lat="45.90060006154784" lon="10.85711303758754"><ele>81.16666666666667</ele><time>2026-04-06T14:49:32.946Z</time></trkpt><trkpt lat="45.90066763515146" lon="10.857181673360493"><ele>81.0</ele><time>2026-04-06T14:49:33.946Z</time></trkpt><trkpt lat="45.900728162792944" lon="10.857285594450456"><ele>81.0</ele><time>2026-04-06T14:49:34.946Z</time></trkpt><trkpt lat="45.90078709007155" lon="10.857393685917751"><ele>81.0</ele><time>2026-04-06T14:49:35.946Z</time></trkpt><trkpt lat="45.90085159129981" lon="10.85750059114939"><ele>81.0</ele><time>2026-04-06T14:49:36.946Z</time></trkpt><trkpt lat="45.90090759388703" lon="10.857601803740405"><ele>81.0</ele><time>2026-04-06T14:49:37.946Z</time></trkpt><trkpt lat="45.900965652805134" lon="10.857703050594264"><ele>81.0</ele><time>2026-04-06T14:49:38.946Z</time></trkpt><trkpt lat="45.90102984712016" lon="10.857816926857296"><ele>81.0</ele><time>2026-04-06T14:49:39.946Z</time></trkpt><trkpt lat="45.9011049578639" lon="10.857939079109844"><ele>81.0</ele><time>2026-04-06T14:49:40.946Z</time></trkpt><trkpt lat="45.90117009155687" lon="10.85809177040362"><ele>81.0</ele><time>2026-04-06T14:49:41.946Z</time></trkpt><trkpt lat="45.90127552667936" lon="10.85821856450693"><ele>81.0</ele><time>2026-04-06T14:49:42.946Z</time></trkpt><trkpt lat="45.90134730097079" lon="10.85834929968463"><ele>80.8</ele><time>2026-04-06T14:49:43.946Z</time></trkpt><trkpt lat="45.90141249876142" lon="10.85848055028063"><ele>80.6</ele><time>2026-04-06T14:49:44.946Z</time></trkpt><trkpt lat="45.901482308500164" lon="10.858598199581614"><ele>80.4</ele><time>2026-04-06T14:49:45.946Z</time></trkpt><trkpt lat="45.901551064985725" lon="10.85871528745791"><ele>80.2</ele><time>2026-04-06T14:49:46.946Z</time></trkpt><trkpt lat="45.90161756494216" lon="10.858831708222262"><ele>80.0</ele><time>2026-04-06T14:49:47.946Z</time></trkpt><trkpt lat="45.90168283147537" lon="10.858945976424119"><ele>80.0</ele><time>2026-04-06T14:49:48.946Z</time></trkpt><trkpt lat="45.901743118309895" lon="10.859058674862816"><ele>80.0</ele><time>2026-04-06T14:49:49.946Z</time></trkpt><trkpt lat="45.90179995494354" lon="10.859167594158745"><ele>80.0</ele><time>2026-04-06T14:49:50.946Z</time></trkpt><trkpt lat="45.90185843428324" lon="10.859271305354394"><ele>80.0</ele><time>2026-04-06T14:49:51.946Z</time></trkpt><trkpt lat="45.90191285457567" lon="10.859366261851935"><ele>80.0</ele><time>2026-04-06T14:49:52.946Z</time></trkpt><trkpt lat="45.901972374164174" lon="10.859464278326124"><ele>80.0</ele><time>2026-04-06T14:49:53.946Z</time></trkpt><trkpt lat="45.9020340563483" lon="10.859579212662828"><ele>80.0</ele><time>2026-04-06T14:49:54.946Z</time></trkpt><trkpt lat="45.90209205802095" lon="10.85967397857471"><ele>80.0</ele><time>2026-04-06T14:49:55.946Z</time></trkpt><trkpt lat="45.902149515660334" lon="10.859771843458091"><ele>80.0</ele><time>2026-04-06T14:49:56.946Z</time></trkpt><trkpt lat="45.90219533985223" lon="10.859856704774245"><ele>80.0</ele><time>2026-04-06T14:49:57.946Z</time></trkpt><trkpt lat="45.90228040044216" lon="10.859983957569927"><ele>80.0</ele><time>2026-04-06T14:49:59.946Z</time></trkpt><trkpt lat="45.902345927947295" lon="10.860116218076032"><ele>80.0</ele><time>2026-04-06T14:50:01.946Z</time></trkpt><trkpt lat="45.90240962514857" lon="10.860222752202462"><ele>80.0</ele><time>2026-04-06T14:50:03.946Z</time></trkpt><trkpt lat="45.90246172539007" lon="10.860309890314316"><ele>80.0</ele><time>2026-04-06T14:50:05.946Z</time></trkpt><trkpt lat="45.902523279214876" lon="10.860382450713022"><ele>80.0</ele><time>2026-04-06T14:50:08.946Z</time></trkpt><trkpt lat="45.902589342007495" lon="10.860509307810618"><ele>80.0</ele><time>2026-04-06T14:50:43.946Z</time></trkpt><trkpt lat="45.902625926207016" lon="10.860604740523028"><ele>80.0</ele><time>2026-04-06T14:50:44.946Z</time></trkpt><trkpt lat="45.90266182992077" lon="10.860713329168135"><ele>80.0</ele><time>2026-04-06T14:50:45.946Z</time></trkpt><trkpt lat="45.902704347208676" lon="10.860847874031279"><ele>80.0</ele><time>2026-04-06T14:50:46.946Z</time></trkpt><trkpt lat="45.9028391413111" lon="10.86095174365149"><ele>80.0</ele><time>2026-04-06T14:50:47.946Z</time></trkpt><trkpt lat="45.90293658325205" lon="10.861111416261839"><ele>79.0</ele><time>2026-04-06T14:50:48.946Z</time></trkpt><trkpt lat="45.90301893109266" lon="10.861253223807203"><ele>78.0</ele><time>2026-04-06T14:50:49.946Z</time></trkpt><trkpt lat="45.90310068868827" lon="10.861396451936912"><ele>77.0</ele><time>2026-04-06T14:50:50.946Z</time></trkpt><trkpt lat="45.903192382472135" lon="10.86155650345402"><ele>76.0</ele><time>2026-04-06T14:50:51.946Z</time></trkpt><trkpt lat="45.90329132935591" lon="10.861724535615819"><ele>76.0</ele><time>2026-04-06T14:50:52.946Z</time></trkpt><trkpt lat="45.9034034374804" lon="10.861923309540122"><ele>76.0</ele><time>2026-04-06T14:50:53.946Z</time></trkpt><trkpt lat="45.90353968750341" lon="10.862159492120863"><ele>76.0</ele><time>2026-04-06T14:50:54.946Z</time></trkpt><trkpt lat="45.90364739132382" lon="10.862376910671841"><ele>76.0</ele><time>2026-04-06T14:50:55.946Z</time></trkpt><trkpt lat="45.90376696724411" lon="10.8625513671026"><ele>76.0</ele><time>2026-04-06T14:50:56.946Z</time></trkpt><trkpt lat="45.90386547231882" lon="10.862726848886876"><ele>76.0</ele><time>2026-04-06T14:50:57.946Z</time></trkpt><trkpt lat="45.9039610361714" lon="10.862883291060031"><ele>76.0</ele><time>2026-04-06T14:50:58.946Z</time></trkpt><trkpt lat="45.90404658206271" lon="10.863030344202196"><ele>76.0</ele><time>2026-04-06T14:50:59.946Z</time></trkpt><trkpt lat="45.904126957370494" lon="10.863173732057675"><ele>76.0</ele><time>2026-04-06T14:51:00.946Z</time></trkpt><trkpt lat="45.90419766615398" lon="10.863301205741482"><ele>76.0</ele><time>2026-04-06T14:51:01.946Z</time></trkpt><trkpt lat="45.90426938802011" lon="10.863420619782051"><ele>75.75</ele><time>2026-04-06T14:51:02.946Z</time></trkpt><trkpt lat="45.90434640440419" lon="10.863542609902419"><ele>75.5</ele><time>2026-04-06T14:51:03.946Z</time></trkpt><trkpt lat="45.90442170582491" lon="10.86367708973832"><ele>75.25</ele><time>2026-04-06T14:51:04.946Z</time></trkpt><trkpt lat="45.90450815367668" lon="10.863818615170342"><ele>75.0</ele><time>2026-04-06T14:51:05.946Z</time></trkpt><trkpt lat="45.9046063427406" lon="10.863964510619079"><ele>75.0</ele><time>2026-04-06T14:51:06.946Z</time></trkpt><trkpt lat="45.904725841026256" lon="10.864116812070783"><ele>75.0</ele><time>2026-04-06T14:51:07.946Z</time></trkpt><trkpt lat="45.904858131409014" lon="10.864259469284981"><ele>75.0</ele><time>2026-04-06T14:51:08.946Z</time></trkpt><trkpt lat="45.904975760261536" lon="10.864387755667947"><ele>75.0</ele><time>2026-04-06T14:51:09.946Z</time></trkpt><trkpt lat="45.905080975219825" lon="10.864541627654543"><ele>75.0</ele><time>2026-04-06T14:51:10.946Z</time></trkpt><trkpt lat="45.90517816615642" lon="10.864660811573117"><ele>75.0</ele><time>2026-04-06T14:51:11.946Z</time></trkpt><trkpt lat="45.90527485841983" lon="10.864783740883443"><ele>75.0</ele><time>2026-04-06T14:51:12.946Z</time></trkpt><trkpt lat="45.905367984723625" lon="10.864899133800925"><ele>75.0</ele><time>2026-04-06T14:51:13.946Z</time></trkpt><trkpt lat="45.90545682747577" lon="10.86500870846146"><ele>75.0</ele><time>2026-04-06T14:51:14.946Z</time></trkpt><trkpt lat="45.90555179340763" lon="10.865080852340508"><ele>75.0</ele><time>2026-04-06T14:51:15.946Z</time></trkpt><trkpt lat="45.90562133615171" lon="10.865170726552144"><ele>75.0</ele><time>2026-04-06T14:51:16.946Z</time></trkpt><trkpt lat="45.90568361025324" lon="10.86524980989529"><ele>75.0</ele><time>2026-04-06T14:51:17.946Z</time></trkpt><trkpt lat="45.90574522974896" lon="10.865313316281073"><ele>75.4</ele><time>2026-04-06T14:51:18.946Z</time></trkpt><trkpt lat="45.90579024763924" lon="10.865425988831767"><ele>75.8</ele><time>2026-04-06T14:51:19.946Z</time></trkpt><trkpt lat="45.905864420136325" lon="10.865520517469925"><ele>76.2</ele><time>2026-04-06T14:51:20.946Z</time></trkpt><trkpt lat="45.905943463213816" lon="10.865619217189208"><ele>76.6</ele><time>2026-04-06T14:51:21.946Z</time></trkpt><trkpt lat="45.906034336499765" lon="10.865732689073637"><ele>77.0</ele><time>2026-04-06T14:51:22.946Z</time></trkpt><trkpt lat="45.90613895391355" lon="10.865833269890379"><ele>76.75</ele><time>2026-04-06T14:51:23.946Z</time></trkpt><trkpt lat="45.9062442322605" lon="10.865960641075334"><ele>76.5</ele><time>2026-04-06T14:51:24.946Z</time></trkpt><trkpt lat="45.9063569610439" lon="10.86610164788985"><ele>76.25</ele><time>2026-04-06T14:51:25.946Z</time></trkpt><trkpt lat="45.90645641520698" lon="10.866231420913893"><ele>76.0</ele><time>2026-04-06T14:51:26.946Z</time></trkpt><trkpt lat="45.90654714775444" lon="10.86634593030592"><ele>76.0</ele><time>2026-04-06T14:51:27.946Z</time></trkpt><trkpt lat="45.906636960262965" lon="10.866455694479411"><ele>76.0</ele><time>2026-04-06T14:51:28.946Z</time></trkpt><trkpt lat="45.9067156249834" lon="10.866559285297482"><ele>76.0</ele><time>2026-04-06T14:51:29.946Z</time></trkpt><trkpt lat="45.90679393631623" lon="10.866655481363692"><ele>76.0</ele><time>2026-04-06T14:51:30.946Z</time></trkpt><trkpt lat="45.906865683578204" lon="10.86675168530824"><ele>76.0</ele><time>2026-04-06T14:51:31.946Z</time></trkpt><trkpt lat="45.90693609141215" lon="10.86683660664135"><ele>76.0</ele><time>2026-04-06T14:51:32.946Z</time></trkpt><trkpt lat="45.907001587147555" lon="10.866918971079958"><ele>76.0</ele><time>2026-04-06T14:51:33.946Z</time></trkpt><trkpt lat="45.9070561462755" lon="10.86700412636796"><ele>76.0</ele><time>2026-04-06T14:51:34.946Z</time></trkpt><trkpt lat="45.907088613608366" lon="10.867086002659507"><ele>76.0</ele><time>2026-04-06T14:51:35.946Z</time></trkpt><trkpt lat="45.90710912412109" lon="10.867175318277125"><ele>76.0</ele><time>2026-04-06T14:51:37.946Z</time></trkpt><trkpt lat="45.90711585715809" lon="10.867277178502741"><ele>76.0</ele><time>2026-04-06T14:51:49.946Z</time></trkpt><trkpt lat="45.90712592196608" lon="10.867479988532873"><ele>76.0</ele><time>2026-04-06T14:51:51.946Z</time></trkpt><trkpt lat="45.90712915767402" lon="10.867594526093104"><ele>76.0</ele><time>2026-04-06T14:51:52.946Z</time></trkpt><trkpt lat="45.90708569224767" lon="10.86768621504466"><ele>76.0</ele><time>2026-04-06T14:51:53.946Z</time></trkpt><trkpt lat="45.90699678433694" lon="10.86778141111247"><ele>76.0</ele><time>2026-04-06T14:51:54.946Z</time></trkpt><trkpt lat="45.90690616986571" lon="10.867892865082792"><ele>76.0</ele><time>2026-04-06T14:51:55.946Z</time></trkpt><trkpt lat="45.90679535900213" lon="10.868056381739251"><ele>76.33333333333333</ele><time>2026-04-06T14:51:56.946Z</time></trkpt><trkpt lat="45.9066605256685" lon="10.868271440513537"><ele>76.66666666666667</ele><time>2026-04-06T14:51:57.946Z</time></trkpt><trkpt lat="45.906515624355656" lon="10.868531966748524"><ele>77.0</ele><time>2026-04-06T14:51:58.946Z</time></trkpt><trkpt lat="45.906392577694895" lon="10.868764444627415"><ele>77.0</ele><time>2026-04-06T14:51:59.946Z</time></trkpt><trkpt lat="45.90627623047851" lon="10.868990139255862"><ele>77.0</ele><time>2026-04-06T14:52:00.946Z</time></trkpt><trkpt lat="45.90614906088612" lon="10.86925084268091"><ele>77.0</ele><time>2026-04-06T14:52:01.946Z</time></trkpt><trkpt lat="45.905999847326704" lon="10.86956857712763"><ele>77.5</ele><time>2026-04-06T14:52:02.946Z</time></trkpt><trkpt lat="45.90584675138777" lon="10.869870192758164"><ele>78.0</ele><time>2026-04-06T14:52:03.946Z</time></trkpt><trkpt lat="45.905715312909855" lon="10.87014174516013"><ele>78.33333333333333</ele><time>2026-04-06T14:52:04.946Z</time></trkpt><trkpt lat="45.90559564594492" lon="10.870386189242788"><ele>78.66666666666666</ele><time>2026-04-06T14:52:05.946Z</time></trkpt><trkpt lat="45.9054858013227" lon="10.870616457658953"><ele>79.0</ele><time>2026-04-06T14:52:06.946Z</time></trkpt><trkpt lat="45.905378669883866" lon="10.870833920312347"><ele>79.0</ele><time>2026-04-06T14:52:07.946Z</time></trkpt><trkpt lat="45.90527874211466" lon="10.871049530184667"><ele>79.0</ele><time>2026-04-06T14:52:08.946Z</time></trkpt><trkpt lat="45.90518564143239" lon="10.871271666517954"><ele>79.0</ele><time>2026-04-06T14:52:09.946Z</time></trkpt><trkpt lat="45.90509805060077" lon="10.871494025983225"><ele>79.0</ele><time>2026-04-06T14:52:10.946Z</time></trkpt><trkpt lat="45.90501549603064" lon="10.871718222804695"><ele>79.0</ele><time>2026-04-06T14:52:11.946Z</time></trkpt><trkpt lat="45.90493504751445" lon="10.871935065655558"><ele>79.0</ele><time>2026-04-06T14:52:12.946Z</time></trkpt><trkpt lat="45.90485729345155" lon="10.8721460115091"><ele>79.0</ele><time>2026-04-06T14:52:13.946Z</time></trkpt><trkpt lat="45.90478634346213" lon="10.872339355025488"><ele>79.0</ele><time>2026-04-06T14:52:14.946Z</time></trkpt><trkpt lat="45.90472281381605" lon="10.872529490476085"><ele>79.0</ele><time>2026-04-06T14:52:15.946Z</time></trkpt><trkpt lat="45.904660087055724" lon="10.872725931807325"><ele>79.0</ele><time>2026-04-06T14:52:16.946Z</time></trkpt><trkpt lat="45.904592859251146" lon="10.872912410950347"><ele>78.8</ele><time>2026-04-06T14:52:17.946Z</time></trkpt><trkpt lat="45.90453182918062" lon="10.87308769381421"><ele>78.60000000000001</ele><time>2026-04-06T14:52:18.946Z</time></trkpt><trkpt lat="45.90447924017036" lon="10.87323264724728"><ele>78.4</ele><time>2026-04-06T14:52:19.946Z</time></trkpt><trkpt lat="45.90444163520761" lon="10.873365107675873"><ele>78.2</ele><time>2026-04-06T14:52:20.946Z</time></trkpt><trkpt lat="45.90440328225802" lon="10.873484872560221"><ele>78.0</ele><time>2026-04-06T14:52:21.946Z</time></trkpt><trkpt lat="45.90435232131718" lon="10.873582816989613"><ele>78.0</ele><time>2026-04-06T14:52:22.946Z</time></trkpt><trkpt lat="45.90428533934543" lon="10.873668476170527"><ele>78.0</ele><time>2026-04-06T14:52:23.946Z</time></trkpt><trkpt lat="45.90419057578076" lon="10.873718845190878"><ele>78.0</ele><time>2026-04-06T14:52:24.946Z</time></trkpt><trkpt lat="45.90411407182526" lon="10.873812886529361"><ele>78.0</ele><time>2026-04-06T14:52:25.946Z</time></trkpt><trkpt lat="45.903958621286" lon="10.873739063970303"><ele>78.0</ele><time>2026-04-06T14:52:26.946Z</time></trkpt><trkpt lat="45.9038271448937" lon="10.87370223396549"><ele>78.0</ele><time>2026-04-06T14:52:27.946Z</time></trkpt><trkpt lat="45.903684357425" lon="10.873706719120165"><ele>78.0</ele><time>2026-04-06T14:52:28.946Z</time></trkpt><trkpt lat="45.90353111009042" lon="10.87357194903414"><ele>78.0</ele><time>2026-04-06T14:52:29.946Z</time></trkpt><trkpt lat="45.90338376012946" lon="10.873475503529141"><ele>78.0</ele><time>2026-04-06T14:52:30.946Z</time></trkpt><trkpt lat="45.903257252332395" lon="10.873380636645612"><ele>78.0</ele><time>2026-04-06T14:52:31.946Z</time></trkpt><trkpt lat="45.903138592694575" lon="10.873277837955664"><ele>78.0</ele><time>2026-04-06T14:52:32.946Z</time></trkpt><trkpt lat="45.903017317673125" lon="10.873159070405656"><ele>78.0</ele><time>2026-04-06T14:52:33.946Z</time></trkpt><trkpt lat="45.90288377399854" lon="10.873036129175484"><ele>78.0</ele><time>2026-04-06T14:52:34.946Z</time></trkpt><trkpt lat="45.90274709435449" lon="10.872905848664713"><ele>78.0</ele><time>2026-04-06T14:52:35.946Z</time></trkpt><trkpt lat="45.902614955354956" lon="10.872776050077304"><ele>78.0</ele><time>2026-04-06T14:52:36.946Z</time></trkpt><trkpt lat="45.9024892843317" lon="10.872652417524186"><ele>78.0</ele><time>2026-04-06T14:52:37.946Z</time></trkpt><trkpt lat="45.90237686467833" lon="10.872534602629582"><ele>78.0</ele><time>2026-04-06T14:52:38.946Z</time></trkpt><trkpt lat="45.90226558704387" lon="10.872421504729136"><ele>78.0</ele><time>2026-04-06T14:52:39.946Z</time></trkpt><trkpt lat="45.90215387628465" lon="10.872312279667788"><ele>78.25</ele><time>2026-04-06T14:52:40.946Z</time></trkpt><trkpt lat="45.90205537083825" lon="10.872208666819319"><ele>78.5</ele><time>2026-04-06T14:52:41.946Z</time></trkpt><trkpt lat="45.90194760055066" lon="10.872098801982212"><ele>78.75</ele><time>2026-04-06T14:52:42.946Z</time></trkpt><trkpt lat="45.90184316260922" lon="10.871987484210052"><ele>79.0</ele><time>2026-04-06T14:52:43.946Z</time></trkpt><trkpt lat="45.901742702390614" lon="10.871880432975255"><ele>79.0</ele><time>2026-04-06T14:52:44.946Z</time></trkpt><trkpt lat="45.901643434348244" lon="10.871779959354786"><ele>79.0</ele><time>2026-04-06T14:52:45.946Z</time></trkpt><trkpt lat="45.901559547774134" lon="10.87167729579546"><ele>79.0</ele><time>2026-04-06T14:52:46.946Z</time></trkpt><trkpt lat="45.9014852885732" lon="10.871574941074122"><ele>79.0</ele><time>2026-04-06T14:52:47.946Z</time></trkpt><trkpt lat="45.901413501162246" lon="10.87147252354263"><ele>79.0</ele><time>2026-04-06T14:52:48.946Z</time></trkpt><trkpt lat="45.90134846877448" lon="10.87137224186406"><ele>78.66666666666666</ele><time>2026-04-06T14:52:49.946Z</time></trkpt><trkpt lat="45.90128380562311" lon="10.871274910813609"><ele>78.33333333333333</ele><time>2026-04-06T14:52:50.946Z</time></trkpt><trkpt lat="45.90122671805391" lon="10.871191453247608"><ele>78.0</ele><time>2026-04-06T14:52:51.946Z</time></trkpt><trkpt lat="45.90117467415263" lon="10.87111583325835"><ele>77.66666666666667</ele><time>2026-04-06T14:52:52.946Z</time></trkpt><trkpt lat="45.901101599235325" lon="10.871011657211978"><ele>77.33333333333334</ele><time>2026-04-06T14:52:54.946Z</time></trkpt><trkpt lat="45.901035117180385" lon="10.870926839926954"><ele>77.0</ele><time>2026-04-06T14:53:20.946Z</time></trkpt><trkpt lat="45.900908075877524" lon="10.870978522390093"><ele>77.0</ele><time>2026-04-06T14:53:23.946Z</time></trkpt><trkpt lat="45.9008855680743" lon="10.871072228403412"><ele>77.0</ele><time>2026-04-06T14:53:24.946Z</time></trkpt><trkpt lat="45.900836613284206" lon="10.87119120166174"><ele>77.0</ele><time>2026-04-06T14:53:25.946Z</time></trkpt><trkpt lat="45.90073600081983" lon="10.871348694741386"><ele>77.0</ele><time>2026-04-06T14:53:26.946Z</time></trkpt><trkpt lat="45.90060954140534" lon="10.871579885621877"><ele>77.0</ele><time>2026-04-06T14:53:27.946Z</time></trkpt><trkpt lat="45.90047659491259" lon="10.871827539920435"><ele>77.0</ele><time>2026-04-06T14:53:28.946Z</time></trkpt><trkpt lat="45.900395367540156" lon="10.872001978872559"><ele>77.0</ele><time>2026-04-06T14:53:29.946Z</time></trkpt><trkpt lat="45.90025474823139" lon="10.872254117262951"><ele>77.0</ele><time>2026-04-06T14:53:30.946Z</time></trkpt><trkpt lat="45.90012052845639" lon="10.872519664506287"><ele>77.0</ele><time>2026-04-06T14:53:31.946Z</time></trkpt><trkpt lat="45.89999443014336" lon="10.872784073436938"><ele>77.33333333333334</ele><time>2026-04-06T14:53:32.946Z</time></trkpt><trkpt lat="45.899892527545155" lon="10.873019403278798"><ele>77.66666666666667</ele><time>2026-04-06T14:53:33.946Z</time></trkpt><trkpt lat="45.899804814579156" lon="10.873224862423344"><ele>78.0</ele><time>2026-04-06T14:53:34.946Z</time></trkpt><trkpt lat="45.89974252418382" lon="10.87340897979387"><ele>78.0</ele><time>2026-04-06T14:53:35.946Z</time></trkpt><trkpt lat="45.899638123876876" lon="10.873570752742326"><ele>78.0</ele><time>2026-04-06T14:53:36.946Z</time></trkpt><trkpt lat="45.89950850474306" lon="10.87377226841272"><ele>78.0</ele><time>2026-04-06T14:53:37.946Z</time></trkpt><trkpt lat="45.89936442873402" lon="10.874014590214585"><ele>77.66666666666667</ele><time>2026-04-06T14:53:38.946Z</time></trkpt><trkpt lat="45.89921856175353" lon="10.874208287379103"><ele>77.33333333333334</ele><time>2026-04-06T14:53:39.946Z</time></trkpt><trkpt lat="45.89909545179734" lon="10.874386551041043"><ele>77.0</ele><time>2026-04-06T14:53:40.946Z</time></trkpt><trkpt lat="45.898986588638316" lon="10.874561409990786"><ele>77.0</ele><time>2026-04-06T14:53:41.946Z</time></trkpt><trkpt lat="45.898896799491595" lon="10.87476410967514"><ele>77.0</ele><time>2026-04-06T14:53:42.946Z</time></trkpt><trkpt lat="45.89882062436786" lon="10.875004229354067"><ele>77.0</ele><time>2026-04-06T14:53:43.946Z</time></trkpt><trkpt lat="45.89873591849234" lon="10.87527181317723"><ele>77.5</ele><time>2026-04-06T14:53:44.946Z</time></trkpt><trkpt lat="45.89864704448101" lon="10.875579911533231"><ele>78.0</ele><time>2026-04-06T14:53:45.946Z</time></trkpt><trkpt lat="45.89854696573246" lon="10.87589167506264"><ele>78.0</ele><time>2026-04-06T14:53:46.946Z</time></trkpt><trkpt lat="45.89846147265929" lon="10.876149702930181"><ele>78.0</ele><time>2026-04-06T14:53:47.946Z</time></trkpt><trkpt lat="45.89838703942884" lon="10.876383636842641"><ele>78.0</ele><time>2026-04-06T14:53:48.946Z</time></trkpt><trkpt lat="45.89831442260719" lon="10.876591126510398"><ele>77.5</ele><time>2026-04-06T14:53:49.946Z</time></trkpt><trkpt lat="45.89825362254724" lon="10.876780119633874"><ele>77.0</ele><time>2026-04-06T14:53:50.946Z</time></trkpt><trkpt lat="45.89820026908766" lon="10.876941407683738"><ele>76.5</ele><time>2026-04-06T14:53:51.946Z</time></trkpt><trkpt lat="45.89815499299369" lon="10.877106591978837"><ele>76.0</ele><time>2026-04-06T14:53:52.946Z</time></trkpt><trkpt lat="45.898123090939755" lon="10.877279386959067"><ele>76.0</ele><time>2026-04-06T14:53:53.945Z</time></trkpt><trkpt lat="45.898100980830996" lon="10.877464042020863"><ele>76.0</ele><time>2026-04-06T14:53:54.945Z</time></trkpt><trkpt lat="45.89808529372742" lon="10.877650480139316"><ele>76.0</ele><time>2026-04-06T14:53:55.945Z</time></trkpt><trkpt lat="45.89805934906082" lon="10.877828402702878"><ele>76.0</ele><time>2026-04-06T14:53:56.945Z</time></trkpt><trkpt lat="45.89803532721639" lon="10.87799579757069"><ele>76.75</ele><time>2026-04-06T14:53:57.945Z</time></trkpt><trkpt lat="45.897987411224015" lon="10.878148200997122"><ele>77.5</ele><time>2026-04-06T14:53:58.945Z</time></trkpt><trkpt lat="45.897935763514795" lon="10.8783173594125"><ele>78.25</ele><time>2026-04-06T14:53:59.945Z</time></trkpt><trkpt lat="45.8978698579612" lon="10.878496915027025"><ele>79.0</ele><time>2026-04-06T14:54:00.945Z</time></trkpt><trkpt lat="45.89781490213087" lon="10.878697200115562"><ele>79.0</ele><time>2026-04-06T14:54:01.945Z</time></trkpt><trkpt lat="45.897739981884264" lon="10.87889927558799"><ele>79.0</ele><time>2026-04-06T14:54:02.945Z</time></trkpt><trkpt lat="45.89765501798028" lon="10.87910491231889"><ele>79.0</ele><time>2026-04-06T14:54:03.945Z</time></trkpt><trkpt lat="45.897580736437114" lon="10.879292167242099"><ele>78.5</ele><time>2026-04-06T14:54:04.945Z</time></trkpt><trkpt lat="45.897510152345305" lon="10.879469649035956"><ele>78.0</ele><time>2026-04-06T14:54:05.945Z</time></trkpt><trkpt lat="45.897430777788834" lon="10.879623910662618"><ele>77.5</ele><time>2026-04-06T14:54:06.945Z</time></trkpt><trkpt lat="45.8973422050848" lon="10.87975888078657"><ele>77.0</ele><time>2026-04-06T14:54:07.945Z</time></trkpt><trkpt lat="45.89726200024547" lon="10.879898084174892"><ele>77.0</ele><time>2026-04-06T14:54:08.945Z</time></trkpt><trkpt lat="45.89718803265779" lon="10.880027306717638"><ele>77.0</ele><time>2026-04-06T14:54:09.945Z</time></trkpt><trkpt lat="45.8971084765972" lon="10.880142655287125"><ele>77.0</ele><time>2026-04-06T14:54:10.945Z</time></trkpt><trkpt lat="45.89703214978134" lon="10.880248600423338"><ele>77.0</ele><time>2026-04-06T14:54:11.945Z</time></trkpt><trkpt lat="45.89696857192994" lon="10.88033913108715"><ele>77.0</ele><time>2026-04-06T14:54:12.945Z</time></trkpt><trkpt lat="45.896922051898436" lon="10.880410023099502"><ele>76.6</ele><time>2026-04-06T14:54:13.945Z</time></trkpt><trkpt lat="45.896851751777746" lon="10.880523172173943"><ele>76.2</ele><time>2026-04-06T14:54:15.945Z</time></trkpt><trkpt lat="45.89678121099705" lon="10.880623892637606"><ele>75.8</ele><time>2026-04-06T14:54:17.945Z</time></trkpt><trkpt lat="45.896727288861946" lon="10.880692914237356"><ele>75.4</ele><time>2026-04-06T14:54:20.945Z</time></trkpt><trkpt lat="45.89667791087107" lon="10.880754390231152"><ele>75.0</ele><time>2026-04-06T14:54:23.945Z</time></trkpt><trkpt lat="45.89659309309428" lon="10.880875420361166"><ele>74.5</ele><time>2026-04-06T14:54:29.945Z</time></trkpt><trkpt lat="45.89652863117787" lon="10.88091099720579"><ele>74.0</ele><time>2026-04-06T14:54:30.945Z</time></trkpt><trkpt lat="45.89645891171186" lon="10.880923862756424"><ele>73.5</ele><time>2026-04-06T14:54:31.945Z</time></trkpt><trkpt lat="45.89637705227935" lon="10.880923917058364"><ele>73.0</ele><time>2026-04-06T14:54:32.945Z</time></trkpt><trkpt lat="45.896293023602595" lon="10.880908867490973"><ele>72.5</ele><time>2026-04-06T14:54:33.945Z</time></trkpt><trkpt lat="45.896205848838505" lon="10.880879972669533"><ele>72.0</ele><time>2026-04-06T14:54:34.945Z</time></trkpt><trkpt lat="45.896103310335874" lon="10.880824955861007"><ele>72.0</ele><time>2026-04-06T14:54:35.945Z</time></trkpt><trkpt lat="45.89597635996643" lon="10.880748896168209"><ele>72.0</ele><time>2026-04-06T14:54:36.945Z</time></trkpt><trkpt lat="45.89583142677386" lon="10.880605634622732"><ele>72.0</ele><time>2026-04-06T14:54:37.945Z</time></trkpt><trkpt lat="45.895655040260344" lon="10.880462971668704"><ele>73.0</ele><time>2026-04-06T14:54:38.945Z</time></trkpt><trkpt lat="45.89545623819083" lon="10.880302277095629"><ele>74.0</ele><time>2026-04-06T14:54:39.945Z</time></trkpt><trkpt lat="45.8952628510827" lon="10.880164693056262"><ele>75.0</ele><time>2026-04-06T14:54:40.945Z</time></trkpt><trkpt lat="45.8951000852702" lon="10.88002576037704"><ele>74.33333333333333</ele><time>2026-04-06T14:54:41.945Z</time></trkpt><trkpt lat="45.89495041130527" lon="10.879906082896216"><ele>73.66666666666666</ele><time>2026-04-06T14:54:42.945Z</time></trkpt><trkpt lat="45.89480907902306" lon="10.879789288342208"><ele>73.0</ele><time>2026-04-06T14:54:43.945Z</time></trkpt><trkpt lat="45.89467024398019" lon="10.87969650547822"><ele>73.0</ele><time>2026-04-06T14:54:44.945Z</time></trkpt><trkpt lat="45.89451368599614" lon="10.87963608270745"><ele>73.0</ele><time>2026-04-06T14:54:45.945Z</time></trkpt><trkpt lat="45.89431958511695" lon="10.879600655652892"><ele>73.0</ele><time>2026-04-06T14:54:46.945Z</time></trkpt><trkpt lat="45.89409769228394" lon="10.87960371865328"><ele>72.66666666666666</ele><time>2026-04-06T14:54:47.945Z</time></trkpt><trkpt lat="45.893894663382824" lon="10.879564811787901"><ele>72.33333333333333</ele><time>2026-04-06T14:54:48.945Z</time></trkpt><trkpt lat="45.89371008717442" lon="10.879547676514447"><ele>72.0</ele><time>2026-04-06T14:54:49.945Z</time></trkpt><trkpt lat="45.893535784952036" lon="10.879553043272125"><ele>72.0</ele><time>2026-04-06T14:54:50.945Z</time></trkpt><trkpt lat="45.893375626376994" lon="10.879516078505201"><ele>72.0</ele><time>2026-04-06T14:54:51.945Z</time></trkpt><trkpt lat="45.89322020283504" lon="10.879501321324724"><ele>72.0</ele><time>2026-04-06T14:54:52.945Z</time></trkpt><trkpt lat="45.89306609197338" lon="10.879486688780243"><ele>72.0</ele><time>2026-04-06T14:54:53.945Z</time></trkpt><trkpt lat="45.8929187817782" lon="10.87947324172411"><ele>72.0</ele><time>2026-04-06T14:54:54.945Z</time></trkpt><trkpt lat="45.89277117295459" lon="10.879459960264654"><ele>72.0</ele><time>2026-04-06T14:54:55.945Z</time></trkpt><trkpt lat="45.89262628209683" lon="10.879446923353605"><ele>72.0</ele><time>2026-04-06T14:54:56.945Z</time></trkpt><trkpt lat="45.89247841027991" lon="10.879456770897288"><ele>73.0</ele><time>2026-04-06T14:54:57.945Z</time></trkpt><trkpt lat="45.89232652948544" lon="10.87943999698598"><ele>74.0</ele><time>2026-04-06T14:54:58.945Z</time></trkpt><trkpt lat="45.89216329152574" lon="10.879405264650655"><ele>75.0</ele><time>2026-04-06T14:54:59.945Z</time></trkpt><trkpt lat="45.89198294954142" lon="10.879410955196226"><ele>75.0</ele><time>2026-04-06T14:55:00.945Z</time></trkpt><trkpt lat="45.891794649722115" lon="10.87939368015532"><ele>75.0</ele><time>2026-04-06T14:55:01.945Z</time></trkpt><trkpt lat="45.8915936617267" lon="10.879373337209662"><ele>75.0</ele><time>2026-04-06T14:55:02.945Z</time></trkpt><trkpt lat="45.89139499430739" lon="10.879336135243223"><ele>74.66666666666667</ele><time>2026-04-06T14:55:03.945Z</time></trkpt><trkpt lat="45.89121176490369" lon="10.879319658080371"><ele>74.33333333333334</ele><time>2026-04-06T14:55:04.945Z</time></trkpt><trkpt lat="45.891028603372426" lon="10.87930318780188"><ele>74.0</ele><time>2026-04-06T14:55:05.945Z</time></trkpt><trkpt lat="45.89084527890626" lon="10.879286702466208"><ele>74.0</ele><time>2026-04-06T14:55:06.945Z</time></trkpt><trkpt lat="45.89066748925404" lon="10.879271450066813"><ele>74.0</ele><time>2026-04-06T14:55:07.945Z</time></trkpt><trkpt lat="45.8905018642961" lon="10.879278219052225"><ele>74.0</ele><time>2026-04-06T14:55:08.945Z</time></trkpt><trkpt lat="45.89034613457503" lon="10.879265651396752"><ele>74.0</ele><time>2026-04-06T14:55:09.945Z</time></trkpt><trkpt lat="45.8901967869013" lon="10.879233193005915"><ele>74.0</ele><time>2026-04-06T14:55:10.945Z</time></trkpt><trkpt lat="45.89005732016703" lon="10.8792430010673"><ele>74.0</ele><time>2026-04-06T14:55:11.945Z</time></trkpt><trkpt lat="45.889924514575014" lon="10.879228736553603"><ele>74.0</ele><time>2026-04-06T14:55:12.945Z</time></trkpt><trkpt lat="45.88979424705429" lon="10.87921865980905"><ele>73.25</ele><time>2026-04-06T14:55:13.945Z</time></trkpt><trkpt lat="45.88966598396598" lon="10.879205035601506"><ele>72.5</ele><time>2026-04-06T14:55:14.945Z</time></trkpt><trkpt lat="45.88954042664025" lon="10.879197605890544"><ele>71.75</ele><time>2026-04-06T14:55:15.945Z</time></trkpt><trkpt lat="45.88942106968762" lon="10.879182329231787"><ele>71.0</ele><time>2026-04-06T14:55:16.945Z</time></trkpt><trkpt lat="45.88929242405454" lon="10.87916938849779"><ele>70.66666666666667</ele><time>2026-04-06T14:55:17.945Z</time></trkpt><trkpt lat="45.88914489380041" lon="10.879146042199492"><ele>70.33333333333333</ele><time>2026-04-06T14:55:18.945Z</time></trkpt><trkpt lat="45.888984563310814" lon="10.879103748097751"><ele>70.0</ele><time>2026-04-06T14:55:19.945Z</time></trkpt><trkpt lat="45.888815895373455" lon="10.879060277970089"><ele>70.0</ele><time>2026-04-06T14:55:20.945Z</time></trkpt><trkpt lat="45.88865925384605" lon="10.879029097645379"><ele>70.0</ele><time>2026-04-06T14:55:21.945Z</time></trkpt><trkpt lat="45.888510483582486" lon="10.878993871234194"><ele>70.0</ele><time>2026-04-06T14:55:22.945Z</time></trkpt><trkpt lat="45.888390892891806" lon="10.878948871745747"><ele>70.0</ele><time>2026-04-06T14:55:23.945Z</time></trkpt><trkpt lat="45.88824041967544" lon="10.878923326241399"><ele>70.33333333333333</ele><time>2026-04-06T14:55:24.945Z</time></trkpt><trkpt lat="45.88801683135144" lon="10.878908041440493"><ele>70.66666666666667</ele><time>2026-04-06T14:55:25.945Z</time></trkpt><trkpt lat="45.887844180776526" lon="10.878881612936883"><ele>71.0</ele><time>2026-04-06T14:55:26.945Z</time></trkpt><trkpt lat="45.88767715260197" lon="10.878854535605914"><ele>70.66666666666667</ele><time>2026-04-06T14:55:27.945Z</time></trkpt><trkpt lat="45.88751228335892" lon="10.87882758049905"><ele>70.33333333333333</ele><time>2026-04-06T14:55:28.945Z</time></trkpt><trkpt lat="45.887352603019316" lon="10.878802619419904"><ele>70.0</ele><time>2026-04-06T14:55:29.945Z</time></trkpt><trkpt lat="45.8871893876409" lon="10.878787259117772"><ele>70.0</ele><time>2026-04-06T14:55:30.945Z</time></trkpt><trkpt lat="45.887040880836054" lon="10.878748555704695"><ele>70.0</ele><time>2026-04-06T14:55:31.945Z</time></trkpt><trkpt lat="45.88688974701164" lon="10.878726216002539"><ele>70.0</ele><time>2026-04-06T14:55:32.945Z</time></trkpt><trkpt lat="45.88672746084043" lon="10.878707086171902"><ele>70.33333333333333</ele><time>2026-04-06T14:55:33.945Z</time></trkpt><trkpt lat="45.88657050592207" lon="10.878686362666484"><ele>70.66666666666667</ele><time>2026-04-06T14:55:34.945Z</time></trkpt><trkpt lat="45.88641733025834" lon="10.878661158338444"><ele>71.0</ele><time>2026-04-06T14:55:35.945Z</time></trkpt><trkpt lat="45.88626305843812" lon="10.87863906691858"><ele>71.0</ele><time>2026-04-06T14:55:36.945Z</time></trkpt><trkpt lat="45.886111883976554" lon="10.878615580539613"><ele>71.0</ele><time>2026-04-06T14:55:37.945Z</time></trkpt><trkpt lat="45.88595730128982" lon="10.878590009563908"><ele>71.0</ele><time>2026-04-06T14:55:38.945Z</time></trkpt><trkpt lat="45.88580422794043" lon="10.878567407164827"><ele>71.0</ele><time>2026-04-06T14:55:39.945Z</time></trkpt><trkpt lat="45.88564744773584" lon="10.878539927425278"><ele>71.0</ele><time>2026-04-06T14:55:40.945Z</time></trkpt><trkpt lat="45.88549118366368" lon="10.878491666027097"><ele>71.0</ele><time>2026-04-06T14:55:41.945Z</time></trkpt><trkpt lat="45.88532963974237" lon="10.878416244802906"><ele>71.0</ele><time>2026-04-06T14:55:42.945Z</time></trkpt><trkpt lat="45.885163083177005" lon="10.878318362224782"><ele>71.0</ele><time>2026-04-06T14:55:43.945Z</time></trkpt><trkpt lat="45.88500756808193" lon="10.87821817059827"><ele>71.0</ele><time>2026-04-06T14:55:44.945Z</time></trkpt><trkpt lat="45.884843301080195" lon="10.878117223995009"><ele>71.0</ele><time>2026-04-06T14:55:45.945Z</time></trkpt><trkpt lat="45.88467975913178" lon="10.878018794075913"><ele>71.0</ele><time>2026-04-06T14:55:46.945Z</time></trkpt><trkpt lat="45.88452046150463" lon="10.877926415633535"><ele>71.0</ele><time>2026-04-06T14:55:47.945Z</time></trkpt><trkpt lat="45.88435900861034" lon="10.877832226215814"><ele>71.0</ele><time>2026-04-06T14:55:48.945Z</time></trkpt><trkpt lat="45.88419856131872" lon="10.877734070112671"><ele>71.0</ele><time>2026-04-06T14:55:49.945Z</time></trkpt><trkpt lat="45.884035551261874" lon="10.877626587814559"><ele>71.0</ele><time>2026-04-06T14:55:50.945Z</time></trkpt><trkpt lat="45.88388220964669" lon="10.877514424632366"><ele>71.66666666666667</ele><time>2026-04-06T14:55:51.945Z</time></trkpt><trkpt lat="45.883723390057845" lon="10.877439500295024"><ele>72.33333333333333</ele><time>2026-04-06T14:55:52.945Z</time></trkpt><trkpt lat="45.883574551812735" lon="10.87737276963561"><ele>73.0</ele><time>2026-04-06T14:55:53.945Z</time></trkpt><trkpt lat="45.88342852465609" lon="10.877307691269069"><ele>73.0</ele><time>2026-04-06T14:55:54.945Z</time></trkpt><trkpt lat="45.883291845641466" lon="10.877251188194473"><ele>73.0</ele><time>2026-04-06T14:55:55.945Z</time></trkpt><trkpt lat="45.88316040611557" lon="10.877193188143368"><ele>73.0</ele><time>2026-04-06T14:55:56.945Z</time></trkpt><trkpt lat="45.88303203927001" lon="10.877134702406488"><ele>73.0</ele><time>2026-04-06T14:55:57.945Z</time></trkpt><trkpt lat="45.882902781684706" lon="10.877076451475425"><ele>73.0</ele><time>2026-04-06T14:55:58.945Z</time></trkpt><trkpt lat="45.882765235295025" lon="10.877013229393958"><ele>73.0</ele><time>2026-04-06T14:55:59.945Z</time></trkpt><trkpt lat="45.88262818964629" lon="10.876949760706633"><ele>73.0</ele><time>2026-04-06T14:56:00.945Z</time></trkpt><trkpt lat="45.88249852543219" lon="10.876899782211977"><ele>73.0</ele><time>2026-04-06T14:56:01.945Z</time></trkpt><trkpt lat="45.88238272622951" lon="10.876853593627231"><ele>72.4</ele><time>2026-04-06T14:56:02.945Z</time></trkpt><trkpt lat="45.88227893667511" lon="10.876800494280127"><ele>71.8</ele><time>2026-04-06T14:56:03.945Z</time></trkpt><trkpt lat="45.88218938820774" lon="10.876749336204359"><ele>71.2</ele><time>2026-04-06T14:56:04.945Z</time></trkpt><trkpt lat="45.882109838006585" lon="10.876692893380168"><ele>70.6</ele><time>2026-04-06T14:56:05.945Z</time></trkpt><trkpt lat="45.88203419095311" lon="10.876637657187883"><ele>70.0</ele><time>2026-04-06T14:56:06.945Z</time></trkpt><trkpt lat="45.881962793731184" lon="10.876575219219777"><ele>70.6</ele><time>2026-04-06T14:56:07.945Z</time></trkpt><trkpt lat="45.881895129328626" lon="10.876503853260223"><ele>71.2</ele><time>2026-04-06T14:56:08.945Z</time></trkpt><trkpt lat="45.881811901058605" lon="10.876434049589207"><ele>71.8</ele><time>2026-04-06T14:56:09.945Z</time></trkpt><trkpt lat="45.881734144494644" lon="10.876343721776058"><ele>72.4</ele><time>2026-04-06T14:56:10.945Z</time></trkpt><trkpt lat="45.881657845105806" lon="10.876254055434355"><ele>73.0</ele><time>2026-04-06T14:56:11.945Z</time></trkpt><trkpt lat="45.881588202000415" lon="10.87617084540755"><ele>73.0</ele><time>2026-04-06T14:56:12.945Z</time></trkpt><trkpt lat="45.881521893173144" lon="10.876102942043737"><ele>73.0</ele><time>2026-04-06T14:56:13.945Z</time></trkpt><trkpt lat="45.88145836959121" lon="10.876032802673384"><ele>73.0</ele><time>2026-04-06T14:56:14.945Z</time></trkpt><trkpt lat="45.88139936548119" lon="10.875952854373793"><ele>73.0</ele><time>2026-04-06T14:56:15.945Z</time></trkpt><trkpt lat="45.881334146473215" lon="10.875888323444133"><ele>73.0</ele><time>2026-04-06T14:56:16.945Z</time></trkpt><trkpt lat="45.8812670801776" lon="10.875814435304955"><ele>73.0</ele><time>2026-04-06T14:56:17.945Z</time></trkpt><trkpt lat="45.88120223301794" lon="10.875733671554212"><ele>72.66666666666666</ele><time>2026-04-06T14:56:18.945Z</time></trkpt><trkpt lat="45.88114237666571" lon="10.875643785079438"><ele>72.33333333333333</ele><time>2026-04-06T14:56:19.945Z</time></trkpt><trkpt lat="45.88108541910046" lon="10.875565134361798"><ele>72.0</ele><time>2026-04-06T14:56:20.945Z</time></trkpt><trkpt lat="45.881040742156806" lon="10.875482838295936"><ele>71.66666666666667</ele><time>2026-04-06T14:56:21.945Z</time></trkpt><trkpt lat="45.881003940850135" lon="10.875398855529525"><ele>71.33333333333334</ele><time>2026-04-06T14:56:22.945Z</time></trkpt><trkpt lat="45.88094091686563" lon="10.87531232369275"><ele>71.0</ele><time>2026-04-06T14:56:24.945Z</time></trkpt><trkpt lat="45.88088948746538" lon="10.87523271919898"><ele>71.0</ele><time>2026-04-06T14:56:26.945Z</time></trkpt><trkpt lat="45.88083993124233" lon="10.875153810161"><ele>71.0</ele><time>2026-04-06T14:56:28.945Z</time></trkpt><trkpt lat="45.880794866660864" lon="10.875088337579582"><ele>71.0</ele><time>2026-04-06T14:56:29.945Z</time></trkpt><trkpt lat="45.88073587982008" lon="10.875004684462542"><ele>71.0</ele><time>2026-04-06T14:56:30.945Z</time></trkpt><trkpt lat="45.8806893570489" lon="10.874926764381938"><ele>71.0</ele><time>2026-04-06T14:56:31.945Z</time></trkpt><trkpt lat="45.88062362607136" lon="10.874835910812427"><ele>71.0</ele><time>2026-04-06T14:56:32.945Z</time></trkpt><trkpt lat="45.8805521671904" lon="10.874765117864243"><ele>71.5</ele><time>2026-04-06T14:56:33.945Z</time></trkpt><trkpt lat="45.880500610196584" lon="10.874699294857358"><ele>72.0</ele><time>2026-04-06T14:56:34.945Z</time></trkpt><trkpt lat="45.88046229850907" lon="10.874620204928902"><ele>72.5</ele><time>2026-04-06T14:56:36.945Z</time></trkpt><trkpt lat="45.880413964820896" lon="10.874531793580752"><ele>73.0</ele><time>2026-04-06T14:56:51.945Z</time></trkpt><trkpt lat="45.88033604375628" lon="10.874456787084844"><ele>73.5</ele><time>2026-04-06T14:57:06.945Z</time></trkpt><trkpt lat="45.88027596234521" lon="10.874411609122125"><ele>74.0</ele><time>2026-04-06T14:57:07.945Z</time></trkpt><trkpt lat="45.88018727631246" lon="10.87432452156365"><ele>73.60000000000001</ele><time>2026-04-06T14:57:08.945Z</time></trkpt><trkpt lat="45.880109283479605" lon="10.874245707120522"><ele>73.2</ele><time>2026-04-06T14:57:09.945Z</time></trkpt><trkpt lat="45.88003608200929" lon="10.87419703955"><ele>72.80000000000001</ele><time>2026-04-06T14:57:10.945Z</time></trkpt><trkpt lat="45.879962641707344" lon="10.874161249172415"><ele>72.4</ele><time>2026-04-06T14:57:11.945Z</time></trkpt><trkpt lat="45.8798589126309" lon="10.874134482894377"><ele>72.0</ele><time>2026-04-06T14:57:12.945Z</time></trkpt><trkpt lat="45.879754882062315" lon="10.874105549061255"><ele>72.0</ele><time>2026-04-06T14:57:13.945Z</time></trkpt><trkpt lat="45.87967435071874" lon="10.874080451774512"><ele>72.0</ele><time>2026-04-06T14:57:14.945Z</time></trkpt><trkpt lat="45.8795951694543" lon="10.874050591281208"><ele>72.0</ele><time>2026-04-06T14:57:15.945Z</time></trkpt><trkpt lat="45.87953225448315" lon="10.87402872470819"><ele>72.0</ele><time>2026-04-06T14:57:16.945Z</time></trkpt><trkpt lat="45.8794369257136" lon="10.873989202291405"><ele>72.0</ele><time>2026-04-06T14:57:18.945Z</time></trkpt><trkpt lat="45.87935965774105" lon="10.873950175645156"><ele>72.0</ele><time>2026-04-06T14:57:20.945Z</time></trkpt><trkpt lat="45.87901546680173" lon="10.873934199895746"><ele>72.0</ele><time>2026-04-06T14:57:21.945Z</time></trkpt><trkpt lat="45.87892341052516" lon="10.873922195389449"><ele>72.0</ele><time>2026-04-06T14:57:22.945Z</time></trkpt><trkpt lat="45.87883724650703" lon="10.873910109218926"><ele>72.0</ele><time>2026-04-06T14:57:23.945Z</time></trkpt><trkpt lat="45.87875775188624" lon="10.873891930330647"><ele>72.0</ele><time>2026-04-06T14:57:24.945Z</time></trkpt><trkpt lat="45.878683461378046" lon="10.873869245929638"><ele>72.0</ele><time>2026-04-06T14:57:25.945Z</time></trkpt><trkpt lat="45.87861935553848" lon="10.873856776159625"><ele>72.0</ele><time>2026-04-06T14:57:26.945Z</time></trkpt><trkpt lat="45.878526286049166" lon="10.873850475225428"><ele>71.16666666666667</ele><time>2026-04-06T14:57:31.945Z</time></trkpt><trkpt lat="45.87840134263247" lon="10.87380203746821"><ele>70.33333333333333</ele><time>2026-04-06T14:57:33.945Z</time></trkpt><trkpt lat="45.87833822740664" lon="10.873811156669863"><ele>69.5</ele><time>2026-04-06T14:57:34.945Z</time></trkpt><trkpt lat="45.878225319051964" lon="10.873785387951164"><ele>68.66666666666666</ele><time>2026-04-06T14:57:36.945Z</time></trkpt><trkpt lat="45.878162978394236" lon="10.873751178755997"><ele>67.83333333333333</ele><time>2026-04-06T14:57:37.945Z</time></trkpt><trkpt lat="45.87809543687284" lon="10.873758990341463"><ele>67.0</ele><time>2026-04-06T14:57:38.945Z</time></trkpt><trkpt lat="45.87796709336328" lon="10.873727075294045"><ele>67.0</ele><time>2026-04-06T14:57:40.945Z</time></trkpt><trkpt lat="45.87788793979575" lon="10.87370911746612"><ele>67.0</ele><time>2026-04-06T14:57:41.945Z</time></trkpt><trkpt lat="45.877813598033356" lon="10.873675433033267"><ele>67.0</ele><time>2026-04-06T14:57:42.945Z</time></trkpt><trkpt lat="45.87774920040191" lon="10.873630185948013"><ele>67.0</ele><time>2026-04-06T14:57:43.945Z</time></trkpt><trkpt lat="45.87769504993407" lon="10.873560958068651"><ele>67.0</ele><time>2026-04-06T14:57:44.945Z</time></trkpt><trkpt lat="45.87764237019893" lon="10.873496956290307"><ele>67.0</ele><time>2026-04-06T14:57:45.945Z</time></trkpt><trkpt lat="45.87758897543646" lon="10.87342975540874"><ele>67.0</ele><time>2026-04-06T14:57:46.945Z</time></trkpt><trkpt lat="45.87753160431841" lon="10.873357781386105"><ele>67.33333333333333</ele><time>2026-04-06T14:57:47.945Z</time></trkpt><trkpt lat="45.87747814816142" lon="10.87327658798899"><ele>67.66666666666666</ele><time>2026-04-06T14:57:48.945Z</time></trkpt><trkpt lat="45.877435772929644" lon="10.873196031693626"><ele>68.0</ele><time>2026-04-06T14:57:49.945Z</time></trkpt><trkpt lat="45.877390867992005" lon="10.873115732830213"><ele>68.33333333333333</ele><time>2026-04-06T14:57:50.945Z</time></trkpt><trkpt lat="45.8773409068567" lon="10.873031064476928"><ele>68.66666666666667</ele><time>2026-04-06T14:57:51.945Z</time></trkpt><trkpt lat="45.87729385152" lon="10.872935961351429"><ele>69.0</ele><time>2026-04-06T14:57:52.945Z</time></trkpt><trkpt lat="45.877251344634736" lon="10.872852144124508"><ele>69.0</ele><time>2026-04-06T14:57:53.945Z</time></trkpt><trkpt lat="45.877218318609145" lon="10.872760920394455"><ele>69.0</ele><time>2026-04-06T14:57:56.945Z</time></trkpt><trkpt lat="45.87718083913143" lon="10.872665763898064"><ele>69.0</ele><time>2026-04-06T14:57:59.945Z</time></trkpt><trkpt lat="45.877148888263264" lon="10.872578937609225"><ele>69.0</ele><time>2026-04-06T14:58:01.944Z</time></trkpt><trkpt lat="45.877112153062335" lon="10.872485826370294"><ele>69.0</ele><time>2026-04-06T14:58:04.944Z</time></trkpt><trkpt lat="45.87708040485923" lon="10.87239014709553"><ele>69.0</ele><time>2026-04-06T14:58:06.944Z</time></trkpt><trkpt lat="45.877044667515214" lon="10.872314218528114"><ele>69.0</ele><time>2026-04-06T14:58:09.944Z</time></trkpt><trkpt lat="45.87700044432201" lon="10.872210314173147"><ele>68.60000000000001</ele><time>2026-04-06T14:58:21.944Z</time></trkpt><trkpt lat="45.8769438649534" lon="10.872083048706767"><ele>68.2</ele><time>2026-04-06T14:58:23.944Z</time></trkpt><trkpt lat="45.87689448416709" lon="10.871953320683073"><ele>67.80000000000001</ele><time>2026-04-06T14:58:25.944Z</time></trkpt><trkpt lat="45.876853194986644" lon="10.871845208410374"><ele>67.4</ele><time>2026-04-06T14:58:27.944Z</time></trkpt><trkpt lat="45.876804960002744" lon="10.871731140811656"><ele>67.0</ele><time>2026-04-06T14:58:29.944Z</time></trkpt><trkpt lat="45.87676092387219" lon="10.871617012163568"><ele>66.66666666666666</ele><time>2026-04-06T14:58:31.944Z</time></trkpt><trkpt lat="45.876722324444216" lon="10.87150442845048"><ele>66.33333333333333</ele><time>2026-04-06T14:58:33.944Z</time></trkpt><trkpt lat="45.87666908472715" lon="10.871382962554781"><ele>66.0</ele><time>2026-04-06T14:58:35.944Z</time></trkpt><trkpt lat="45.87663589097648" lon="10.871295913460557"><ele>65.66666666666667</ele><time>2026-04-06T14:58:37.944Z</time></trkpt><trkpt lat="45.876601821848155" lon="10.871180074037072"><ele>65.33333333333334</ele><time>2026-04-06T14:58:40.944Z</time></trkpt><trkpt lat="45.87658823010233" lon="10.8710864784661"><ele>65.0</ele><time>2026-04-06T14:58:49.944Z</time></trkpt><trkpt lat="45.87658118011419" lon="10.870993925331474"><ele>65.0</ele><time>2026-04-06T14:58:54.944Z</time></trkpt><trkpt lat="45.87660503816184" lon="10.87086283276514"><ele>65.0</ele><time>2026-04-06T14:59:02.944Z</time></trkpt><trkpt lat="45.87661687025297" lon="10.870771751259785"><ele>65.0</ele><time>2026-04-06T14:59:05.944Z</time></trkpt><trkpt lat="45.87661346325175" lon="10.870622191647536"><ele>65.0</ele><time>2026-04-06T14:59:08.944Z</time></trkpt><trkpt lat="45.87654179438579" lon="10.870520168409852"><ele>65.0</ele><time>2026-04-06T14:59:10.944Z</time></trkpt><trkpt lat="45.876487523693854" lon="10.870566403768626"><ele>65.0</ele><time>2026-04-06T14:59:11.944Z</time></trkpt><trkpt lat="45.87640889664537" lon="10.870563384694579"><ele>65.0</ele><time>2026-04-06T14:59:13.944Z</time></trkpt><trkpt lat="45.876354707281244" lon="10.870616511978719"><ele>65.0</ele><time>2026-04-06T14:59:15.944Z</time></trkpt><trkpt lat="45.87628393363397" lon="10.870672491294842"><ele>65.0</ele><time>2026-04-06T14:59:17.944Z</time></trkpt><trkpt lat="45.876224826596236" lon="10.87076875251632"><ele>65.0</ele><time>2026-04-06T14:59:19.944Z</time></trkpt><trkpt lat="45.87613766619767" lon="10.87084973314602"><ele>65.0</ele><time>2026-04-06T14:59:21.944Z</time></trkpt><trkpt lat="45.87605293348419" lon="10.870931606899246"><ele>65.0</ele><time>2026-04-06T14:59:23.944Z</time></trkpt><trkpt lat="45.87600576829686" lon="10.87100052812984"><ele>65.0</ele><time>2026-04-06T14:59:24.944Z</time></trkpt><trkpt lat="45.87597073055546" lon="10.871092908946514"><ele>65.0</ele><time>2026-04-06T14:59:25.944Z</time></trkpt><trkpt lat="45.87589850817349" lon="10.871209295371152"><ele>65.0</ele><time>2026-04-06T14:59:27.944Z</time></trkpt><trkpt lat="45.875830355653406" lon="10.871310991910432"><ele>65.0</ele><time>2026-04-06T14:59:29.944Z</time></trkpt><trkpt lat="45.8757590944711" lon="10.871439375882845"><ele>65.0</ele><time>2026-04-06T14:59:31.944Z</time></trkpt><trkpt lat="45.87571418095468" lon="10.871508601925997"><ele>65.2</ele><time>2026-04-06T14:59:32.944Z</time></trkpt><trkpt lat="45.875644215910434" lon="10.871557480637428"><ele>65.4</ele><time>2026-04-06T14:59:33.944Z</time></trkpt><trkpt lat="45.87557047598105" lon="10.87168312214527"><ele>65.6</ele><time>2026-04-06T14:59:35.944Z</time></trkpt><trkpt lat="45.8755095880348" lon="10.871787750443008"><ele>65.8</ele><time>2026-04-06T14:59:37.944Z</time></trkpt><trkpt lat="45.875440009346434" lon="10.871908297623127"><ele>66.0</ele><time>2026-04-06T14:59:39.944Z</time></trkpt><trkpt lat="45.87536925191509" lon="10.872031294799182"><ele>66.0</ele><time>2026-04-06T14:59:41.944Z</time></trkpt><trkpt lat="45.875313745256534" lon="10.872127840971496"><ele>66.0</ele><time>2026-04-06T14:59:50.944Z</time></trkpt><trkpt lat="45.87525503453127" lon="10.872229959324036"><ele>66.0</ele><time>2026-04-06T14:59:52.944Z</time></trkpt><trkpt lat="45.87520754609177" lon="10.87231255774313"><ele>66.0</ele><time>2026-04-06T14:59:55.944Z</time></trkpt><trkpt lat="45.87517096811358" lon="10.872430365407864"><ele>66.0</ele><time>2026-04-06T14:59:57.944Z</time></trkpt><trkpt lat="45.87510586676771" lon="10.872520677722243"><ele>66.0</ele><time>2026-04-06T14:59:59.944Z</time></trkpt><trkpt lat="45.87505131758325" lon="10.872591145984272"><ele>66.2</ele><time>2026-04-06T15:00:01.944Z</time></trkpt><trkpt lat="45.874987901900205" lon="10.872664296451658"><ele>66.39999999999999</ele><time>2026-04-06T15:00:10.944Z</time></trkpt><trkpt lat="45.87491087079048" lon="10.87275120855203"><ele>66.6</ele><time>2026-04-06T15:00:13.944Z</time></trkpt><trkpt lat="45.87483369871679" lon="10.872840244737798"><ele>66.8</ele><time>2026-04-06T15:00:15.944Z</time></trkpt><trkpt lat="45.87474773289713" lon="10.872929594195538"><ele>67.0</ele><time>2026-04-06T15:00:17.944Z</time></trkpt><trkpt lat="45.87469329837223" lon="10.872985440079232"><ele>67.0</ele><time>2026-04-06T15:00:18.944Z</time></trkpt><trkpt lat="45.87460149573072" lon="10.873073728387375"><ele>67.0</ele><time>2026-04-06T15:00:20.944Z</time></trkpt><trkpt lat="45.87452835898434" lon="10.873129091050902"><ele>67.0</ele><time>2026-04-06T15:00:22.944Z</time></trkpt><trkpt lat="45.874453812533176" lon="10.87321467880961"><ele>67.0</ele><time>2026-04-06T15:00:24.944Z</time></trkpt><trkpt lat="45.87440189196212" lon="10.873269967171394"><ele>67.0</ele><time>2026-04-06T15:00:25.944Z</time></trkpt><trkpt lat="45.8743481201916" lon="10.87332431155446"><ele>67.0</ele><time>2026-04-06T15:00:26.944Z</time></trkpt><trkpt lat="45.87424769870496" lon="10.873419787594301"><ele>67.0</ele><time>2026-04-06T15:00:28.944Z</time></trkpt><trkpt lat="45.87416422045347" lon="10.87349379969453"><ele>67.0</ele><time>2026-04-06T15:00:30.944Z</time></trkpt><trkpt lat="45.8740809797242" lon="10.873561128767678"><ele>67.0</ele><time>2026-04-06T15:00:32.944Z</time></trkpt><trkpt lat="45.8739842131948" lon="10.873631877677528"><ele>67.0</ele><time>2026-04-06T15:00:34.944Z</time></trkpt><trkpt lat="45.87391766662081" lon="10.873675769524644"><ele>67.0</ele><time>2026-04-06T15:00:36.944Z</time></trkpt><trkpt lat="45.873857897648705" lon="10.873712412032177"><ele>67.0</ele><time>2026-04-06T15:00:38.944Z</time></trkpt><trkpt lat="45.87377252798574" lon="10.87376215080015"><ele>67.0</ele><time>2026-04-06T15:00:40.944Z</time></trkpt><trkpt lat="45.87369818040634" lon="10.873805468458322"><ele>67.0</ele><time>2026-04-06T15:00:42.944Z</time></trkpt><trkpt lat="45.87362651053089" lon="10.873844865265356"><ele>67.0</ele><time>2026-04-06T15:00:45.944Z</time></trkpt><trkpt lat="45.873553570175304" lon="10.87388621042365"><ele>67.0</ele><time>2026-04-06T15:00:49.944Z</time></trkpt><trkpt lat="45.87348685064594" lon="10.873924029373883"><ele>67.0</ele><time>2026-04-06T15:00:57.944Z</time></trkpt><trkpt lat="45.87342486495768" lon="10.873959165030255"><ele>67.0</ele><time>2026-04-06T15:01:01.944Z</time></trkpt><trkpt lat="45.87332926036162" lon="10.874013146020898"><ele>67.0</ele><time>2026-04-06T15:01:03.944Z</time></trkpt><trkpt lat="45.87324815873991" lon="10.874080872360837"><ele>67.0</ele><time>2026-04-06T15:01:05.944Z</time></trkpt><trkpt lat="45.873147495737754" lon="10.874123977477337"><ele>67.0</ele><time>2026-04-06T15:01:07.944Z</time></trkpt><trkpt lat="45.8730566001984" lon="10.874176408653788"><ele>67.0</ele><time>2026-04-06T15:01:09.944Z</time></trkpt><trkpt lat="45.87299618480241" lon="10.874208601217516"><ele>67.0</ele><time>2026-04-06T15:01:11.944Z</time></trkpt><trkpt lat="45.872938876880276" lon="10.874253287039274"><ele>67.0</ele><time>2026-04-06T15:01:13.944Z</time></trkpt><trkpt lat="45.87285574611609" lon="10.874281344791182"><ele>67.0</ele><time>2026-04-06T15:01:16.944Z</time></trkpt><trkpt lat="45.87278356135838" lon="10.874329495067018"><ele>67.0</ele><time>2026-04-06T15:01:19.944Z</time></trkpt><trkpt lat="45.872715676607015" lon="10.874370754510073"><ele>67.0</ele><time>2026-04-06T15:01:21.944Z</time></trkpt><trkpt lat="45.87264055467879" lon="10.874416412965656"><ele>67.0</ele><time>2026-04-06T15:01:23.944Z</time></trkpt><trkpt lat="45.87257863433056" lon="10.874487508529553"><ele>67.0</ele><time>2026-04-06T15:01:25.944Z</time></trkpt><trkpt lat="45.87252427459098" lon="10.874535755342743"><ele>67.0</ele><time>2026-04-06T15:01:27.944Z</time></trkpt><trkpt lat="45.87246184658672" lon="10.8745947719347"><ele>66.83333333333333</ele><time>2026-04-06T15:01:29.944Z</time></trkpt><trkpt lat="45.87240701214118" lon="10.874666418707427"><ele>66.66666666666666</ele><time>2026-04-06T15:01:43.944Z</time></trkpt><trkpt lat="45.87234929179598" lon="10.874710651719381"><ele>66.5</ele><time>2026-04-06T15:01:48.944Z</time></trkpt><trkpt lat="45.872277683098446" lon="10.874752766156648"><ele>66.33333333333333</ele><time>2026-04-06T15:01:55.944Z</time></trkpt><trkpt lat="45.8722148245557" lon="10.874778501933717"><ele>66.16666666666667</ele><time>2026-04-06T15:02:02.944Z</time></trkpt><trkpt lat="45.87215418207805" lon="10.87483642786688"><ele>66.0</ele><time>2026-04-06T15:02:16.943Z</time></trkpt><trkpt lat="45.87207912909679" lon="10.874922071465674"><ele>66.0</ele><time>2026-04-06T15:02:18.943Z</time></trkpt><trkpt lat="45.871966422656996" lon="10.874982872548777"><ele>66.0</ele><time>2026-04-06T15:02:20.943Z</time></trkpt><trkpt lat="45.87183620879512" lon="10.875018962796625"><ele>66.0</ele><time>2026-04-06T15:02:22.943Z</time></trkpt><trkpt lat="45.87177331627734" lon="10.875044245363553"><ele>66.0</ele><time>2026-04-06T15:02:23.943Z</time></trkpt><trkpt lat="45.87165453074967" lon="10.875090666318581"><ele>66.0</ele><time>2026-04-06T15:02:25.943Z</time></trkpt><trkpt lat="45.871549698101326" lon="10.875131599353587"><ele>66.16666666666667</ele><time>2026-04-06T15:02:27.943Z</time></trkpt><trkpt lat="45.871477101098" lon="10.875184551004605"><ele>66.33333333333333</ele><time>2026-04-06T15:02:29.943Z</time></trkpt><trkpt lat="45.87140109718437" lon="10.875174954871504"><ele>66.5</ele><time>2026-04-06T15:02:31.943Z</time></trkpt><trkpt lat="45.87133036385269" lon="10.875237507033672"><ele>66.66666666666666</ele><time>2026-04-06T15:02:33.943Z</time></trkpt><trkpt lat="45.87125307058049" lon="10.875288369249057"><ele>66.83333333333333</ele><time>2026-04-06T15:02:35.943Z</time></trkpt><trkpt lat="45.87122103625568" lon="10.87537793856523"><ele>67.0</ele><time>2026-04-06T15:02:38.943Z</time></trkpt><trkpt lat="45.87115216053472" lon="10.875479751638593"><ele>67.0</ele><time>2026-04-06T15:02:41.943Z</time></trkpt><trkpt lat="45.871084175841894" lon="10.875542863912834"><ele>67.0</ele><time>2026-04-06T15:02:43.943Z</time></trkpt><trkpt lat="45.87105025443464" lon="10.875627071755867"><ele>67.0</ele><time>2026-04-06T15:02:45.943Z</time></trkpt><trkpt lat="45.87098304032588" lon="10.87569605289414"><ele>67.0</ele><time>2026-04-06T15:02:48.943Z</time></trkpt><trkpt lat="45.87093764022043" lon="10.875808450512272"><ele>67.0</ele><time>2026-04-06T15:02:52.943Z</time></trkpt><trkpt lat="45.87088607863819" lon="10.875890614883906"><ele>67.0</ele><time>2026-04-06T15:02:55.943Z</time></trkpt><trkpt lat="45.870820901038414" lon="10.875970040374082"><ele>67.33333333333333</ele><time>2026-04-06T15:02:58.943Z</time></trkpt><trkpt lat="45.870729738940014" lon="10.875998593056492"><ele>67.66666666666666</ele><time>2026-04-06T15:03:00.943Z</time></trkpt><trkpt lat="45.87065267008241" lon="10.876006240278436"><ele>68.0</ele><time>2026-04-06T15:03:02.943Z</time></trkpt><trkpt lat="45.87057539445766" lon="10.875980222608124"><ele>68.33333333333333</ele><time>2026-04-06T15:03:04.943Z</time></trkpt><trkpt lat="45.870493255286775" lon="10.875963864381724"><ele>68.66666666666667</ele><time>2026-04-06T15:03:06.943Z</time></trkpt><trkpt lat="45.87039390818253" lon="10.875899213804372"><ele>69.0</ele><time>2026-04-06T15:03:08.943Z</time></trkpt><trkpt lat="45.87026009629561" lon="10.875869039564357"><ele>69.0</ele><time>2026-04-06T15:03:10.943Z</time></trkpt><trkpt lat="45.87017702614996" lon="10.875833036551631"><ele>69.0</ele><time>2026-04-06T15:03:11.943Z</time></trkpt><trkpt lat="45.870102200949646" lon="10.875797338733973"><ele>69.0</ele><time>2026-04-06T15:03:12.943Z</time></trkpt><trkpt lat="45.87002654159448" lon="10.875773745322755"><ele>69.0</ele><time>2026-04-06T15:03:13.943Z</time></trkpt><trkpt lat="45.86994492815469" lon="10.875756431937475"><ele>69.0</ele><time>2026-04-06T15:03:15.943Z</time></trkpt><trkpt lat="45.86987655328303" lon="10.875744449196139"><ele>69.0</ele><time>2026-04-06T15:03:18.943Z</time></trkpt><trkpt lat="45.86980413142867" lon="10.875756268312871"><ele>69.33333333333333</ele><time>2026-04-06T15:03:21.943Z</time></trkpt><trkpt lat="45.86973579588731" lon="10.875753871160521"><ele>69.66666666666667</ele><time>2026-04-06T15:03:25.943Z</time></trkpt><trkpt lat="45.869674924999934" lon="10.875833906314321"><ele>70.0</ele><time>2026-04-06T15:03:27.943Z</time></trkpt><trkpt lat="45.869563534673105" lon="10.875880500101122"><ele>70.33333333333334</ele><time>2026-04-06T15:03:29.943Z</time></trkpt><trkpt lat="45.869489813845846" lon="10.875937960623533"><ele>70.66666666666667</ele><time>2026-04-06T15:03:32.943Z</time></trkpt><trkpt lat="45.86940078855427" lon="10.875994120908047"><ele>71.0</ele><time>2026-04-06T15:03:35.943Z</time></trkpt><trkpt lat="45.86934246469735" lon="10.876048628486195"><ele>70.66666666666667</ele><time>2026-04-06T15:03:41.943Z</time></trkpt><trkpt lat="45.869258316471935" lon="10.876105956025663"><ele>70.33333333333334</ele><time>2026-04-06T15:03:48.943Z</time></trkpt><trkpt lat="45.869174589190806" lon="10.876163787192219"><ele>70.0</ele><time>2026-04-06T15:03:49.943Z</time></trkpt><trkpt lat="45.869108293382446" lon="10.876210388598075"><ele>69.66666666666667</ele><time>2026-04-06T15:03:50.943Z</time></trkpt><trkpt lat="45.86904290344303" lon="10.876264593031948"><ele>69.33333333333333</ele><time>2026-04-06T15:03:51.943Z</time></trkpt><trkpt lat="45.868978455394206" lon="10.876309788592176"><ele>69.0</ele><time>2026-04-06T15:03:52.943Z</time></trkpt><trkpt lat="45.868918396587176" lon="10.876346835458053"><ele>69.0</ele><time>2026-04-06T15:03:53.943Z</time></trkpt><trkpt lat="45.86885909683101" lon="10.876400831073243"><ele>69.0</ele><time>2026-04-06T15:03:54.943Z</time></trkpt><trkpt lat="45.868793093904614" lon="10.876470262011246"><ele>69.0</ele><time>2026-04-06T15:03:55.943Z</time></trkpt><trkpt lat="45.86870534060345" lon="10.876530486810395"><ele>69.0</ele><time>2026-04-06T15:03:56.943Z</time></trkpt><trkpt lat="45.86859634086218" lon="10.87662104385653"><ele>69.0</ele><time>2026-04-06T15:03:58.943Z</time></trkpt><trkpt lat="45.86853866409564" lon="10.876660845602936"><ele>69.0</ele><time>2026-04-06T15:03:59.943Z</time></trkpt><trkpt lat="45.868438533779965" lon="10.876741647166838"><ele>69.33333333333333</ele><time>2026-04-06T15:04:01.943Z</time></trkpt><trkpt lat="45.86831855872888" lon="10.87682171850041"><ele>69.66666666666667</ele><time>2026-04-06T15:04:03.943Z</time></trkpt><trkpt lat="45.86824817172808" lon="10.876864940411199"><ele>70.0</ele><time>2026-04-06T15:04:04.943Z</time></trkpt><trkpt lat="45.868172352077295" lon="10.87691036340181"><ele>70.33333333333334</ele><time>2026-04-06T15:04:05.943Z</time></trkpt><trkpt lat="45.868100406165226" lon="10.87696030348248"><ele>70.66666666666667</ele><time>2026-04-06T15:04:06.943Z</time></trkpt><trkpt lat="45.868031861213495" lon="10.876999984446043"><ele>71.0</ele><time>2026-04-06T15:04:07.943Z</time></trkpt><trkpt lat="45.8679195499294" lon="10.877041260429916"><ele>71.0</ele><time>2026-04-06T15:04:09.943Z</time></trkpt><trkpt lat="45.86780106762834" lon="10.877073785655034"><ele>71.0</ele><time>2026-04-06T15:04:11.943Z</time></trkpt><trkpt lat="45.86772282847009" lon="10.877089834516417"><ele>71.0</ele><time>2026-04-06T15:04:12.943Z</time></trkpt><trkpt lat="45.867634874136286" lon="10.877100572050754"><ele>71.0</ele><time>2026-04-06T15:04:13.943Z</time></trkpt><trkpt lat="45.86756613724904" lon="10.877092855494988"><ele>71.0</ele><time>2026-04-06T15:04:14.943Z</time></trkpt><trkpt lat="45.86744731188945" lon="10.877077711201734"><ele>70.83333333333334</ele><time>2026-04-06T15:04:16.943Z</time></trkpt><trkpt lat="45.86734348335796" lon="10.877062691708911"><ele>70.66666666666667</ele><time>2026-04-06T15:04:18.943Z</time></trkpt><trkpt lat="45.86727858011327" lon="10.877047181365395"><ele>70.5</ele><time>2026-04-06T15:04:19.942Z</time></trkpt><trkpt lat="45.867203520503736" lon="10.877024002787458"><ele>70.33333333333333</ele><time>2026-04-06T15:04:20.942Z</time></trkpt><trkpt lat="45.86712339565056" lon="10.876976093569933"><ele>70.16666666666666</ele><time>2026-04-06T15:04:22.942Z</time></trkpt><trkpt lat="45.86702586391985" lon="10.876937877498323"><ele>70.0</ele><time>2026-04-06T15:04:24.942Z</time></trkpt><trkpt lat="45.86696235008958" lon="10.876898578123466"><ele>70.0</ele><time>2026-04-06T15:04:25.942Z</time></trkpt><trkpt lat="45.86686465978319" lon="10.876838139799853"><ele>70.0</ele><time>2026-04-06T15:04:26.942Z</time></trkpt><trkpt lat="45.86678080350685" lon="10.876773275994958"><ele>70.0</ele><time>2026-04-06T15:04:27.942Z</time></trkpt><trkpt lat="45.86666524440434" lon="10.876675190044486"><ele>70.0</ele><time>2026-04-06T15:04:28.942Z</time></trkpt><trkpt lat="45.866574767825995" lon="10.876599441904593"><ele>70.0</ele><time>2026-04-06T15:04:29.942Z</time></trkpt><trkpt lat="45.866484471788716" lon="10.876529275602147"><ele>69.33333333333333</ele><time>2026-04-06T15:04:30.942Z</time></trkpt><trkpt lat="45.86640718524293" lon="10.876466424880451"><ele>68.66666666666666</ele><time>2026-04-06T15:04:31.942Z</time></trkpt><trkpt lat="45.8663344801959" lon="10.876409118599778"><ele>68.0</ele><time>2026-04-06T15:04:32.942Z</time></trkpt><trkpt lat="45.86626214281149" lon="10.876350113670066"><ele>67.33333333333333</ele><time>2026-04-06T15:04:33.942Z</time></trkpt><trkpt lat="45.86618709098024" lon="10.876288322940596"><ele>66.66666666666667</ele><time>2026-04-06T15:04:34.942Z</time></trkpt><trkpt lat="45.86610666706592" lon="10.876221915443988"><ele>66.0</ele><time>2026-04-06T15:04:35.942Z</time></trkpt><trkpt lat="45.86602836709669" lon="10.876152805215904"><ele>66.0</ele><time>2026-04-06T15:04:36.942Z</time></trkpt><trkpt lat="45.8659494510635" lon="10.87608844728988"><ele>66.0</ele><time>2026-04-06T15:04:37.942Z</time></trkpt><trkpt lat="45.86586509998914" lon="10.87602158588124"><ele>66.0</ele><time>2026-04-06T15:04:38.942Z</time></trkpt><trkpt lat="45.865778309858435" lon="10.875953220078571"><ele>66.0</ele><time>2026-04-06T15:04:39.942Z</time></trkpt><trkpt lat="45.865690481404144" lon="10.875877598971273"><ele>66.0</ele><time>2026-04-06T15:04:40.942Z</time></trkpt><trkpt lat="45.86560642323256" lon="10.875810953044361"><ele>65.8</ele><time>2026-04-06T15:04:41.942Z</time></trkpt><trkpt lat="45.865531389195404" lon="10.875746466201322"><ele>65.6</ele><time>2026-04-06T15:04:42.942Z</time></trkpt><trkpt lat="45.86545259010027" lon="10.875686932951789"><ele>65.4</ele><time>2026-04-06T15:04:43.942Z</time></trkpt><trkpt lat="45.86536542584459" lon="10.87561323504415"><ele>65.2</ele><time>2026-04-06T15:04:44.942Z</time></trkpt><trkpt lat="45.86526433255549" lon="10.875534221664873"><ele>65.0</ele><time>2026-04-06T15:04:45.942Z</time></trkpt><trkpt lat="45.86515529993242" lon="10.875457700063846"><ele>68.2</ele><time>2026-04-06T15:04:46.942Z</time></trkpt><trkpt lat="45.865058378457555" lon="10.875398675965288"><ele>71.4</ele><time>2026-04-06T15:04:47.942Z</time></trkpt><trkpt lat="45.86496663656778" lon="10.875349424491255"><ele>74.6</ele><time>2026-04-06T15:04:48.942Z</time></trkpt><trkpt lat="45.864871147210685" lon="10.875306410133234"><ele>77.8</ele><time>2026-04-06T15:04:49.942Z</time></trkpt><trkpt lat="45.86478735081124" lon="10.875260542362211"><ele>81.0</ele><time>2026-04-06T15:04:50.942Z</time></trkpt><trkpt lat="45.86470175385197" lon="10.875216900840982"><ele>81.0</ele><time>2026-04-06T15:04:51.942Z</time></trkpt><trkpt lat="45.86460686782986" lon="10.87518982177823"><ele>81.0</ele><time>2026-04-06T15:04:52.942Z</time></trkpt><trkpt lat="45.86450496958363" lon="10.875177959786187"><ele>81.0</ele><time>2026-04-06T15:04:53.942Z</time></trkpt><trkpt lat="45.86441711518732" lon="10.87517184030057"><ele>81.0</ele><time>2026-04-06T15:04:54.942Z</time></trkpt><trkpt lat="45.86432674780141" lon="10.875187170030507"><ele>81.0</ele><time>2026-04-06T15:04:55.942Z</time></trkpt><trkpt lat="45.86422988416944" lon="10.875224603409544"><ele>81.0</ele><time>2026-04-06T15:04:56.942Z</time></trkpt><trkpt lat="45.864129500614524" lon="10.875271224357478"><ele>81.0</ele><time>2026-04-06T15:04:57.942Z</time></trkpt><trkpt lat="45.864043037756744" lon="10.87532031854151"><ele>81.0</ele><time>2026-04-06T15:04:58.942Z</time></trkpt><trkpt lat="45.86395567649098" lon="10.875390122617077"><ele>81.0</ele><time>2026-04-06T15:04:59.942Z</time></trkpt><trkpt lat="45.86386298115568" lon="10.87549302421949"><ele>81.0</ele><time>2026-04-06T15:05:00.942Z</time></trkpt><trkpt lat="45.863768241021816" lon="10.875624490621425"><ele>81.0</ele><time>2026-04-06T15:05:01.942Z</time></trkpt><trkpt lat="45.863686949558115" lon="10.87574025792015"><ele>81.0</ele><time>2026-04-06T15:05:02.942Z</time></trkpt><trkpt lat="45.86361155708579" lon="10.875831399991833"><ele>81.0</ele><time>2026-04-06T15:05:03.942Z</time></trkpt><trkpt lat="45.8635507415009" lon="10.875929613278673"><ele>81.0</ele><time>2026-04-06T15:05:04.942Z</time></trkpt><trkpt lat="45.86350244064086" lon="10.8760059740293"><ele>81.0</ele><time>2026-04-06T15:05:05.942Z</time></trkpt><trkpt lat="45.863450837570824" lon="10.876072420352424"><ele>81.0</ele><time>2026-04-06T15:05:06.942Z</time></trkpt><trkpt lat="45.86337848272991" lon="10.876155588082595"><ele>82.75</ele><time>2026-04-06T15:05:07.942Z</time></trkpt><trkpt lat="45.8632806303662" lon="10.876259487461818"><ele>84.5</ele><time>2026-04-06T15:05:08.942Z</time></trkpt><trkpt lat="45.86316626248127" lon="10.876352717974175"><ele>86.25</ele><time>2026-04-06T15:05:09.942Z</time></trkpt><trkpt lat="45.8630726542989" lon="10.876424672868135"><ele>88.0</ele><time>2026-04-06T15:05:10.942Z</time></trkpt><trkpt lat="45.86297713138816" lon="10.876465855639163"><ele>88.0</ele><time>2026-04-06T15:05:11.942Z</time></trkpt><trkpt lat="45.86288532223759" lon="10.876492190670417"><ele>88.0</ele><time>2026-04-06T15:05:12.942Z</time></trkpt><trkpt lat="45.86280476600189" lon="10.876543394041454"><ele>88.0</ele><time>2026-04-06T15:05:13.942Z</time></trkpt><trkpt lat="45.86270609065641" lon="10.876571958659065"><ele>88.0</ele><time>2026-04-06T15:05:14.942Z</time></trkpt><trkpt lat="45.86259163903564" lon="10.876596437557188"><ele>88.0</ele><time>2026-04-06T15:05:15.942Z</time></trkpt><trkpt lat="45.86247700614072" lon="10.876603990926638"><ele>85.0</ele><time>2026-04-06T15:05:16.942Z</time></trkpt><trkpt lat="45.86236724664837" lon="10.876604005962642"><ele>82.0</ele><time>2026-04-06T15:05:17.942Z</time></trkpt><trkpt lat="45.8622734171469" lon="10.876591893467765"><ele>79.0</ele><time>2026-04-06T15:05:18.942Z</time></trkpt><trkpt lat="45.86218759865857" lon="10.876579329000228"><ele>76.0</ele><time>2026-04-06T15:05:19.942Z</time></trkpt><trkpt lat="45.86210260020578" lon="10.876563775704753"><ele>73.0</ele><time>2026-04-06T15:05:20.942Z</time></trkpt><trkpt lat="45.86201014157862" lon="10.876542932847885"><ele>73.0</ele><time>2026-04-06T15:05:21.942Z</time></trkpt><trkpt lat="45.8619136623953" lon="10.876502053223966"><ele>73.0</ele><time>2026-04-06T15:05:22.942Z</time></trkpt><trkpt lat="45.86180965725388" lon="10.876454884122493"><ele>73.0</ele><time>2026-04-06T15:05:23.942Z</time></trkpt><trkpt lat="45.86170620147805" lon="10.876391970777219"><ele>73.0</ele><time>2026-04-06T15:05:24.942Z</time></trkpt><trkpt lat="45.86161343501312" lon="10.876328953771045"><ele>73.0</ele><time>2026-04-06T15:05:25.942Z</time></trkpt><trkpt lat="45.861528847944875" lon="10.876260390003834"><ele>71.6</ele><time>2026-04-06T15:05:26.942Z</time></trkpt><trkpt lat="45.8614440919047" lon="10.876175823284305"><ele>70.19999999999999</ele><time>2026-04-06T15:05:27.942Z</time></trkpt><trkpt lat="45.86135811884542" lon="10.876080906013973"><ele>68.8</ele><time>2026-04-06T15:05:28.942Z</time></trkpt><trkpt lat="45.86126973898984" lon="10.875979995608947"><ele>67.39999999999999</ele><time>2026-04-06T15:05:29.942Z</time></trkpt><trkpt lat="45.86117382782455" lon="10.875882929569716"><ele>66.0</ele><time>2026-04-06T15:05:30.942Z</time></trkpt><trkpt lat="45.8610866819971" lon="10.875764820459688"><ele>66.0</ele><time>2026-04-06T15:05:31.942Z</time></trkpt><trkpt lat="45.86101359673422" lon="10.875622619689944"><ele>66.0</ele><time>2026-04-06T15:05:32.942Z</time></trkpt><trkpt lat="45.86093069194723" lon="10.875450654851356"><ele>66.0</ele><time>2026-04-06T15:05:33.942Z</time></trkpt><trkpt lat="45.86082849035742" lon="10.875282687739816"><ele>66.0</ele><time>2026-04-06T15:05:34.942Z</time></trkpt><trkpt lat="45.86073515043923" lon="10.875128830272853"><ele>68.33333333333333</ele><time>2026-04-06T15:05:35.942Z</time></trkpt><trkpt lat="45.86062580013181" lon="10.874967880254896"><ele>70.66666666666666</ele><time>2026-04-06T15:05:36.942Z</time></trkpt><trkpt lat="45.86049471566568" lon="10.874805814141931"><ele>73.0</ele><time>2026-04-06T15:05:37.942Z</time></trkpt><trkpt lat="45.860357217441944" lon="10.87464919067429"><ele>73.0</ele><time>2026-04-06T15:05:38.942Z</time></trkpt><trkpt lat="45.86022368940048" lon="10.874514635134396"><ele>73.0</ele><time>2026-04-06T15:05:39.942Z</time></trkpt><trkpt lat="45.860103449602065" lon="10.874388068492411"><ele>73.0</ele><time>2026-04-06T15:05:40.942Z</time></trkpt><trkpt lat="45.85999314065678" lon="10.874265642262952"><ele>73.0</ele><time>2026-04-06T15:05:41.942Z</time></trkpt><trkpt lat="45.85988596065481" lon="10.874135861403763"><ele>73.0</ele><time>2026-04-06T15:05:42.942Z</time></trkpt><trkpt lat="45.859774696525726" lon="10.87400661081441"><ele>73.0</ele><time>2026-04-06T15:05:43.942Z</time></trkpt><trkpt lat="45.85965244053162" lon="10.873852234152055"><ele>73.0</ele><time>2026-04-06T15:05:44.942Z</time></trkpt><trkpt lat="45.85953585321598" lon="10.873663828308633"><ele>73.0</ele><time>2026-04-06T15:05:45.942Z</time></trkpt><trkpt lat="45.85941577561793" lon="10.873458530589929"><ele>73.0</ele><time>2026-04-06T15:05:46.942Z</time></trkpt><trkpt lat="45.85931560761307" lon="10.873272369286038"><ele>73.0</ele><time>2026-04-06T15:05:47.942Z</time></trkpt><trkpt lat="45.859213840591174" lon="10.873092497318938"><ele>75.33333333333333</ele><time>2026-04-06T15:05:48.942Z</time></trkpt><trkpt lat="45.85909418329739" lon="10.872890733902716"><ele>77.66666666666667</ele><time>2026-04-06T15:05:49.942Z</time></trkpt><trkpt lat="45.85897062839387" lon="10.872712445681017"><ele>80.0</ele><time>2026-04-06T15:05:50.942Z</time></trkpt><trkpt lat="45.858847214123365" lon="10.87253946778117"><ele>74.66666666666667</ele><time>2026-04-06T15:05:51.942Z</time></trkpt><trkpt lat="45.85872989144099" lon="10.872386718702858"><ele>69.33333333333333</ele><time>2026-04-06T15:05:52.942Z</time></trkpt><trkpt lat="45.85861053991151" lon="10.872242985337541"><ele>64.0</ele><time>2026-04-06T15:05:53.942Z</time></trkpt><trkpt lat="45.85849897230691" lon="10.872098812365806"><ele>64.75</ele><time>2026-04-06T15:05:54.942Z</time></trkpt><trkpt lat="45.858395427024824" lon="10.87195506658153"><ele>65.5</ele><time>2026-04-06T15:05:55.942Z</time></trkpt><trkpt lat="45.85829329484706" lon="10.87181748301043"><ele>66.25</ele><time>2026-04-06T15:05:56.942Z</time></trkpt><trkpt lat="45.858184092361086" lon="10.871678881294036"><ele>67.0</ele><time>2026-04-06T15:05:57.942Z</time></trkpt><trkpt lat="45.85804810884087" lon="10.871538678831616"><ele>67.0</ele><time>2026-04-06T15:05:58.942Z</time></trkpt><trkpt lat="45.857914642855974" lon="10.871457112958508"><ele>67.0</ele><time>2026-04-06T15:05:59.942Z</time></trkpt><trkpt lat="45.85778334825244" lon="10.87135387137368"><ele>67.0</ele><time>2026-04-06T15:06:00.942Z</time></trkpt><trkpt lat="45.857634223607086" lon="10.871272974950145"><ele>81.33333333333333</ele><time>2026-04-06T15:06:01.942Z</time></trkpt><trkpt lat="45.85749554294848" lon="10.871179696395176"><ele>95.66666666666666</ele><time>2026-04-06T15:06:02.942Z</time></trkpt><trkpt lat="45.857356679080276" lon="10.871105172793008"><ele>110.0</ele><time>2026-04-06T15:06:03.942Z</time></trkpt><trkpt lat="45.85721865189766" lon="10.871022409096224"><ele>108.25</ele><time>2026-04-06T15:06:04.957Z</time></trkpt><trkpt lat="45.85708983025422" lon="10.870928224508873"><ele>106.5</ele><time>2026-04-06T15:06:05.962Z</time></trkpt><trkpt lat="45.85697394973648" lon="10.87082742803506"><ele>104.75</ele><time>2026-04-06T15:06:06.96Z</time></trkpt><trkpt lat="45.856872786105804" lon="10.870720665432332"><ele>103.0</ele><time>2026-04-06T15:06:07.96Z</time></trkpt><trkpt lat="45.85677348377098" lon="10.870609266064513"><ele>103.0</ele><time>2026-04-06T15:06:08.957Z</time></trkpt><trkpt lat="45.8566640697773" lon="10.87048696466402"><ele>103.0</ele><time>2026-04-06T15:06:09.959Z</time></trkpt><trkpt lat="45.85654195313132" lon="10.870350338097959"><ele>103.0</ele><time>2026-04-06T15:06:10.958Z</time></trkpt><trkpt lat="45.85642491170865" lon="10.870220410999467"><ele>103.0</ele><time>2026-04-06T15:06:11.942Z</time></trkpt><trkpt lat="45.856340196713354" lon="10.8701341541898"><ele>101.0</ele><time>2026-04-06T15:06:12.942Z</time></trkpt><trkpt lat="45.85627099911733" lon="10.870062595252264"><ele>99.0</ele><time>2026-04-06T15:06:13.942Z</time></trkpt><trkpt lat="45.8561706374162" lon="10.869949150472022"><ele>97.0</ele><time>2026-04-06T15:06:14.942Z</time></trkpt><trkpt lat="45.85607326886889" lon="10.869829213168655"><ele>95.0</ele><time>2026-04-06T15:06:15.942Z</time></trkpt><trkpt lat="45.8559461116715" lon="10.869711897683157"><ele>95.0</ele><time>2026-04-06T15:06:16.942Z</time></trkpt><trkpt lat="45.85585350946031" lon="10.869589646003604"><ele>95.0</ele><time>2026-04-06T15:06:17.942Z</time></trkpt><trkpt lat="45.85574046065211" lon="10.869461145818303"><ele>95.0</ele><time>2026-04-06T15:06:18.942Z</time></trkpt><trkpt lat="45.85564602514217" lon="10.869340609600203"><ele>95.0</ele><time>2026-04-06T15:06:19.942Z</time></trkpt><trkpt lat="45.85550459573722" lon="10.869205441121006"><ele>93.66666666666667</ele><time>2026-04-06T15:06:20.942Z</time></trkpt><trkpt lat="45.85533528453142" lon="10.869055589992168"><ele>92.33333333333333</ele><time>2026-04-06T15:06:21.942Z</time></trkpt><trkpt lat="45.85518262399728" lon="10.868897662345766"><ele>91.0</ele><time>2026-04-06T15:06:22.942Z</time></trkpt><trkpt lat="45.8550053010427" lon="10.868735207891158"><ele>91.0</ele><time>2026-04-06T15:06:23.942Z</time></trkpt><trkpt lat="45.854813056008574" lon="10.868549379658644"><ele>91.0</ele><time>2026-04-06T15:06:24.942Z</time></trkpt><trkpt lat="45.854627587709416" lon="10.868364480685392"><ele>95.0</ele><time>2026-04-06T15:06:25.941Z</time></trkpt><trkpt lat="45.85446211165587" lon="10.868198912061946"><ele>99.0</ele><time>2026-04-06T15:06:26.941Z</time></trkpt><trkpt lat="45.85430389500781" lon="10.868042724698972"><ele>103.0</ele><time>2026-04-06T15:06:27.941Z</time></trkpt><trkpt lat="45.85413430969868" lon="10.867881507700444"><ele>103.0</ele><time>2026-04-06T15:06:28.941Z</time></trkpt><trkpt lat="45.85395438847974" lon="10.867677474014762"><ele>103.0</ele><time>2026-04-06T15:06:29.941Z</time></trkpt><trkpt lat="45.85374093702871" lon="10.867465112516351"><ele>101.33333333333334</ele><time>2026-04-06T15:06:30.941Z</time></trkpt><trkpt lat="45.853556483008354" lon="10.86728456785103"><ele>99.66666666666666</ele><time>2026-04-06T15:06:31.941Z</time></trkpt><trkpt lat="45.85339822787092" lon="10.867119693024556"><ele>98.0</ele><time>2026-04-06T15:06:32.941Z</time></trkpt><trkpt lat="45.853249227913736" lon="10.86694320476766"><ele>89.33333333333333</ele><time>2026-04-06T15:06:33.941Z</time></trkpt><trkpt lat="45.85310296693613" lon="10.866727170659734"><ele>80.66666666666666</ele><time>2026-04-06T15:06:34.941Z</time></trkpt><trkpt lat="45.85295568192096" lon="10.86649920664272"><ele>72.0</ele><time>2026-04-06T15:06:35.941Z</time></trkpt><trkpt lat="45.85283701989027" lon="10.866269390461552"><ele>72.0</ele><time>2026-04-06T15:06:36.941Z</time></trkpt><trkpt lat="45.85273887563263" lon="10.866062009189243"><ele>72.0</ele><time>2026-04-06T15:06:37.941Z</time></trkpt><trkpt lat="45.85264752301622" lon="10.865875599061313"><ele>72.0</ele><time>2026-04-06T15:06:38.941Z</time></trkpt><trkpt lat="45.852556737519286" lon="10.865698505697907"><ele>76.66666666666667</ele><time>2026-04-06T15:06:39.941Z</time></trkpt><trkpt lat="45.852462036702086" lon="10.865537119288485"><ele>81.33333333333334</ele><time>2026-04-06T15:06:40.941Z</time></trkpt><trkpt lat="45.85236857254113" lon="10.865374447125946"><ele>86.0</ele><time>2026-04-06T15:06:41.941Z</time></trkpt><trkpt lat="45.85224776773861" lon="10.865188699064797"><ele>80.33333333333334</ele><time>2026-04-06T15:06:42.941Z</time></trkpt><trkpt lat="45.85213244519457" lon="10.865022135697743"><ele>74.66666666666667</ele><time>2026-04-06T15:06:43.941Z</time></trkpt><trkpt lat="45.8520162721756" lon="10.864870679633595"><ele>69.0</ele><time>2026-04-06T15:06:44.941Z</time></trkpt><trkpt lat="45.8519060058995" lon="10.864731150626985"><ele>69.0</ele><time>2026-04-06T15:06:45.941Z</time></trkpt><trkpt lat="45.85180508368514" lon="10.86461123021956"><ele>69.0</ele><time>2026-04-06T15:06:46.941Z</time></trkpt><trkpt lat="45.851701122783" lon="10.864494596827846"><ele>69.0</ele><time>2026-04-06T15:06:47.941Z</time></trkpt><trkpt lat="45.851604065138034" lon="10.864394431760143"><ele>69.0</ele><time>2026-04-06T15:06:48.941Z</time></trkpt><trkpt lat="45.85149429177939" lon="10.86429010406245"><ele>70.75</ele><time>2026-04-06T15:06:49.941Z</time></trkpt><trkpt lat="45.85138036900047" lon="10.864192790214192"><ele>72.5</ele><time>2026-04-06T15:06:50.941Z</time></trkpt><trkpt lat="45.85127709324094" lon="10.864065172728166"><ele>74.25</ele><time>2026-04-06T15:06:51.941Z</time></trkpt><trkpt lat="45.85115243802738" lon="10.863943117858383"><ele>76.0</ele><time>2026-04-06T15:06:52.941Z</time></trkpt><trkpt lat="45.851054979054084" lon="10.863861436542615"><ele>73.75</ele><time>2026-04-06T15:06:53.941Z</time></trkpt><trkpt lat="45.85094258680802" lon="10.863752684150704"><ele>71.5</ele><time>2026-04-06T15:06:54.941Z</time></trkpt><trkpt lat="45.8508297984545" lon="10.863635305487211"><ele>69.25</ele><time>2026-04-06T15:06:55.941Z</time></trkpt><trkpt lat="45.85071636351667" lon="10.863524332161514"><ele>67.0</ele><time>2026-04-06T15:06:56.941Z</time></trkpt><trkpt lat="45.85059905819312" lon="10.863406917597775"><ele>67.0</ele><time>2026-04-06T15:06:57.941Z</time></trkpt><trkpt lat="45.850471963211824" lon="10.863300721644324"><ele>67.0</ele><time>2026-04-06T15:06:58.941Z</time></trkpt><trkpt lat="45.85033775554285" lon="10.863205960196936"><ele>67.0</ele><time>2026-04-06T15:06:59.941Z</time></trkpt><trkpt lat="45.850199091038675" lon="10.86312291447036"><ele>67.0</ele><time>2026-04-06T15:07:00.941Z</time></trkpt><trkpt lat="45.850067340787305" lon="10.863062004357865"><ele>73.0</ele><time>2026-04-06T15:07:01.941Z</time></trkpt><trkpt lat="45.849937894753204" lon="10.863019985529677"><ele>79.0</ele><time>2026-04-06T15:07:02.941Z</time></trkpt><trkpt lat="45.84979796626185" lon="10.863008746005393"><ele>85.0</ele><time>2026-04-06T15:07:03.941Z</time></trkpt><trkpt lat="45.849652604451045" lon="10.863027523402339"><ele>91.0</ele><time>2026-04-06T15:07:04.941Z</time></trkpt><trkpt lat="45.849509837248235" lon="10.863074417373173"><ele>91.0</ele><time>2026-04-06T15:07:05.941Z</time></trkpt><trkpt lat="45.84936515235786" lon="10.863137325824106"><ele>91.0</ele><time>2026-04-06T15:07:06.941Z</time></trkpt><trkpt lat="45.8492231995751" lon="10.86318189665885"><ele>91.0</ele><time>2026-04-06T15:07:07.941Z</time></trkpt><trkpt lat="45.84907891359294" lon="10.86322779826991"><ele>91.0</ele><time>2026-04-06T15:07:08.958Z</time></trkpt><trkpt lat="45.84893720320149" lon="10.863271873257952"><ele>95.66666666666666</ele><time>2026-04-06T15:07:09.956Z</time></trkpt><trkpt lat="45.84879461833611" lon="10.863316281915795"><ele>100.33333333333333</ele><time>2026-04-06T15:07:10.96Z</time></trkpt><trkpt lat="45.84866064684007" lon="10.863394486400036"><ele>105.0</ele><time>2026-04-06T15:07:11.956Z</time></trkpt><trkpt lat="45.84823296875306" lon="10.86369568483053"><ele>116.33333333333334</ele><time>2026-04-06T15:07:15.941Z</time></trkpt><trkpt lat="45.84810671956871" lon="10.863752916120749"><ele>127.66666666666667</ele><time>2026-04-06T15:07:16.941Z</time></trkpt><trkpt lat="45.84796381122414" lon="10.863748753713924"><ele>139.0</ele><time>2026-04-06T15:07:17.941Z</time></trkpt><trkpt lat="45.84777343529334" lon="10.863704777014021"><ele>129.33333333333334</ele><time>2026-04-06T15:07:18.941Z</time></trkpt><trkpt lat="45.8476248468149" lon="10.863647188552516"><ele>119.66666666666666</ele><time>2026-04-06T15:07:19.941Z</time></trkpt><trkpt lat="45.8474663058163" lon="10.863582251387074"><ele>110.0</ele><time>2026-04-06T15:07:20.941Z</time></trkpt><trkpt lat="45.8472421326341" lon="10.863441863428415"><ele>105.25</ele><time>2026-04-06T15:07:21.941Z</time></trkpt><trkpt lat="45.847100999078556" lon="10.863379907634716"><ele>100.5</ele><time>2026-04-06T15:07:22.941Z</time></trkpt><trkpt lat="45.846954568988615" lon="10.86328706986645"><ele>95.75</ele><time>2026-04-06T15:07:23.941Z</time></trkpt><trkpt lat="45.84682254588285" lon="10.863333274917004"><ele>91.0</ele><time>2026-04-06T15:07:24.941Z</time></trkpt><trkpt lat="45.84668985557301" lon="10.863284276964093"><ele>91.0</ele><time>2026-04-06T15:07:25.941Z</time></trkpt><trkpt lat="45.846558255260625" lon="10.863217980271953"><ele>91.0</ele><time>2026-04-06T15:07:26.941Z</time></trkpt><trkpt lat="45.846433721742955" lon="10.86316479897599"><ele>91.0</ele><time>2026-04-06T15:07:27.941Z</time></trkpt><trkpt lat="45.84630871578402" lon="10.863140853958914"><ele>91.0</ele><time>2026-04-06T15:07:28.941Z</time></trkpt><trkpt lat="45.84618499389067" lon="10.863128490595544"><ele>91.0</ele><time>2026-04-06T15:07:29.941Z</time></trkpt><trkpt lat="45.84605443652918" lon="10.863144774753682"><ele>91.0</ele><time>2026-04-06T15:07:30.941Z</time></trkpt><trkpt lat="45.84590460729797" lon="10.86316682428327"><ele>91.0</ele><time>2026-04-06T15:07:31.941Z</time></trkpt><trkpt lat="45.845745588586006" lon="10.86320211638152"><ele>91.0</ele><time>2026-04-06T15:07:32.941Z</time></trkpt><trkpt lat="45.84558054041886" lon="10.863248359489189"><ele>92.0</ele><time>2026-04-06T15:07:33.959Z</time></trkpt><trkpt lat="45.845415966153595" lon="10.86331016653164"><ele>93.0</ele><time>2026-04-06T15:07:34.96Z</time></trkpt><trkpt lat="45.84523866107441" lon="10.863330581478372"><ele>94.0</ele><time>2026-04-06T15:07:35.961Z</time></trkpt><trkpt lat="45.84504958920915" lon="10.863378887321527"><ele>94.0</ele><time>2026-04-06T15:07:36.958Z</time></trkpt><trkpt lat="45.844877538647154" lon="10.863414382528076"><ele>94.0</ele><time>2026-04-06T15:07:37.96Z</time></trkpt><trkpt lat="45.844881648228906" lon="10.863539426332467"><ele>94.0</ele><time>2026-04-06T15:07:39.941Z</time></trkpt><trkpt lat="45.84474864535504" lon="10.86357947229132"><ele>94.0</ele><time>2026-04-06T15:07:40.941Z</time></trkpt><trkpt lat="45.844606048166234" lon="10.863625581373672"><ele>97.75</ele><time>2026-04-06T15:07:41.941Z</time></trkpt><trkpt lat="45.84447832313871" lon="10.863607050577285"><ele>101.5</ele><time>2026-04-06T15:07:42.941Z</time></trkpt><trkpt lat="45.844357913184474" lon="10.863580696211368"><ele>105.25</ele><time>2026-04-06T15:07:43.941Z</time></trkpt><trkpt lat="45.844243111392316" lon="10.86353048714541"><ele>109.0</ele><time>2026-04-06T15:07:44.941Z</time></trkpt><trkpt lat="45.84410593154844" lon="10.863453521737934"><ele>98.33333333333334</ele><time>2026-04-06T15:07:45.941Z</time></trkpt><trkpt lat="45.8439627158165" lon="10.863330684637098"><ele>87.66666666666667</ele><time>2026-04-06T15:07:46.941Z</time></trkpt><trkpt lat="45.843813926306815" lon="10.86321656690995"><ele>77.0</ele><time>2026-04-06T15:07:47.941Z</time></trkpt><trkpt lat="45.84365769640574" lon="10.8631137112025"><ele>77.0</ele><time>2026-04-06T15:07:48.941Z</time></trkpt><trkpt lat="45.84350053308834" lon="10.863021014040765"><ele>77.0</ele><time>2026-04-06T15:07:49.941Z</time></trkpt><trkpt lat="45.84336701751816" lon="10.862941515990023"><ele>77.0</ele><time>2026-04-06T15:07:50.941Z</time></trkpt><trkpt lat="45.84321651926619" lon="10.862859125984983"><ele>83.33333333333334</ele><time>2026-04-06T15:07:51.941Z</time></trkpt><trkpt lat="45.843060242040714" lon="10.862775855941685"><ele>89.66666666666667</ele><time>2026-04-06T15:07:52.941Z</time></trkpt><trkpt lat="45.842900624726056" lon="10.862706734704755"><ele>96.0</ele><time>2026-04-06T15:07:53.941Z</time></trkpt><trkpt lat="45.84272945150323" lon="10.862634381558523"><ele>90.66666666666667</ele><time>2026-04-06T15:07:54.941Z</time></trkpt><trkpt lat="45.84255128421321" lon="10.862542788557624"><ele>85.33333333333334</ele><time>2026-04-06T15:07:55.941Z</time></trkpt><trkpt lat="45.84237832745709" lon="10.862404135703533"><ele>80.0</ele><time>2026-04-06T15:07:56.941Z</time></trkpt><trkpt lat="45.842189410170754" lon="10.862258941555185"><ele>80.0</ele><time>2026-04-06T15:07:57.941Z</time></trkpt><trkpt lat="45.84199126410446" lon="10.862110932307587"><ele>80.0</ele><time>2026-04-06T15:07:58.941Z</time></trkpt><trkpt lat="45.841780167741675" lon="10.861953451542057"><ele>80.5</ele><time>2026-04-06T15:07:59.941Z</time></trkpt><trkpt lat="45.84154458638302" lon="10.861793103666956"><ele>81.0</ele><time>2026-04-06T15:08:00.941Z</time></trkpt><trkpt lat="45.841309167161995" lon="10.861605388355354"><ele>81.0</ele><time>2026-04-06T15:08:01.941Z</time></trkpt><trkpt lat="45.84108216243478" lon="10.861439473059757"><ele>81.0</ele><time>2026-04-06T15:08:02.941Z</time></trkpt><trkpt lat="45.84088902513194" lon="10.861289573669689"><ele>76.33333333333333</ele><time>2026-04-06T15:08:03.941Z</time></trkpt><trkpt lat="45.84071657938377" lon="10.861152715756909"><ele>71.66666666666666</ele><time>2026-04-06T15:08:04.941Z</time></trkpt><trkpt lat="45.84055703437354" lon="10.861035471158774"><ele>67.0</ele><time>2026-04-06T15:08:05.941Z</time></trkpt><trkpt lat="45.84042732704709" lon="10.860948556834938"><ele>67.0</ele><time>2026-04-06T15:08:06.941Z</time></trkpt><trkpt lat="45.840269323535104" lon="10.860877081470209"><ele>67.0</ele><time>2026-04-06T15:08:07.941Z</time></trkpt><trkpt lat="45.84009489544535" lon="10.860854655120576"><ele>67.0</ele><time>2026-04-06T15:08:08.941Z</time></trkpt><trkpt lat="45.839893112868424" lon="10.86084635084588"><ele>71.33333333333333</ele><time>2026-04-06T15:08:09.941Z</time></trkpt><trkpt lat="45.839668355633506" lon="10.860807175650407"><ele>75.66666666666667</ele><time>2026-04-06T15:08:10.941Z</time></trkpt><trkpt lat="45.839459795963414" lon="10.860778421558665"><ele>80.0</ele><time>2026-04-06T15:08:11.941Z</time></trkpt><trkpt lat="45.839267363099516" lon="10.86075189087592"><ele>83.66666666666667</ele><time>2026-04-06T15:08:12.941Z</time></trkpt><trkpt lat="45.83909032796233" lon="10.860727477135391"><ele>87.33333333333333</ele><time>2026-04-06T15:08:13.941Z</time></trkpt><trkpt lat="45.83892131429528" lon="10.860721689670719"><ele>91.0</ele><time>2026-04-06T15:08:14.941Z</time></trkpt><trkpt lat="45.83876401841968" lon="10.860691083800313"><ele>91.0</ele><time>2026-04-06T15:08:15.941Z</time></trkpt><trkpt lat="45.838618649088986" lon="10.860661325775302"><ele>91.0</ele><time>2026-04-06T15:08:16.941Z</time></trkpt><trkpt lat="45.83847585886154" lon="10.860615021873281"><ele>91.0</ele><time>2026-04-06T15:08:17.941Z</time></trkpt><trkpt lat="45.8383289917523" lon="10.860562888652032"><ele>91.0</ele><time>2026-04-06T15:08:18.941Z</time></trkpt><trkpt lat="45.83818173435927" lon="10.860473570234323"><ele>93.0</ele><time>2026-04-06T15:08:19.941Z</time></trkpt><trkpt lat="45.83804144007481" lon="10.860416348626126"><ele>95.0</ele><time>2026-04-06T15:08:20.941Z</time></trkpt><trkpt lat="45.837938894535355" lon="10.860252504273761"><ele>97.0</ele><time>2026-04-06T15:08:21.941Z</time></trkpt><trkpt lat="45.83777925128181" lon="10.86020999648081"><ele>97.25</ele><time>2026-04-06T15:08:22.941Z</time></trkpt><trkpt lat="45.83763276319078" lon="10.860138470749868"><ele>97.5</ele><time>2026-04-06T15:08:23.941Z</time></trkpt><trkpt lat="45.837496599774774" lon="10.860053864493533"><ele>97.75</ele><time>2026-04-06T15:08:24.941Z</time></trkpt><trkpt lat="45.837373816682515" lon="10.85996925833889"><ele>98.0</ele><time>2026-04-06T15:08:25.941Z</time></trkpt><trkpt lat="45.83724067191816" lon="10.859903887261478"><ele>91.0</ele><time>2026-04-06T15:08:26.941Z</time></trkpt><trkpt lat="45.83709969004294" lon="10.85980859904713"><ele>84.0</ele><time>2026-04-06T15:08:27.941Z</time></trkpt><trkpt lat="45.83695708856742" lon="10.859719330285444"><ele>77.0</ele><time>2026-04-06T15:08:28.941Z</time></trkpt><trkpt lat="45.836825001918335" lon="10.859640612559858"><ele>80.25</ele><time>2026-04-06T15:08:29.941Z</time></trkpt><trkpt lat="45.83670028735219" lon="10.859561340889655"><ele>83.5</ele><time>2026-04-06T15:08:30.941Z</time></trkpt><trkpt lat="45.836578213707966" lon="10.859488338439096"><ele>86.75</ele><time>2026-04-06T15:08:31.941Z</time></trkpt><trkpt lat="45.836456566545074" lon="10.859423208004978"><ele>90.0</ele><time>2026-04-06T15:08:32.941Z</time></trkpt><trkpt lat="45.83633646882241" lon="10.859361585272834"><ele>90.0</ele><time>2026-04-06T15:08:33.941Z</time></trkpt><trkpt lat="45.83620646261526" lon="10.859327061916295"><ele>90.0</ele><time>2026-04-06T15:08:34.941Z</time></trkpt><trkpt lat="45.836070650372285" lon="10.859316942540922"><ele>90.0</ele><time>2026-04-06T15:08:35.941Z</time></trkpt><trkpt lat="45.83593774961738" lon="10.859309610337371"><ele>90.0</ele><time>2026-04-06T15:08:36.941Z</time></trkpt><trkpt lat="45.83580391604754" lon="10.85934079112246"><ele>90.5</ele><time>2026-04-06T15:08:37.941Z</time></trkpt><trkpt lat="45.835675536291966" lon="10.85939011428436"><ele>91.0</ele><time>2026-04-06T15:08:38.941Z</time></trkpt><trkpt lat="45.83555542938335" lon="10.85944830420485"><ele>91.5</ele><time>2026-04-06T15:08:39.941Z</time></trkpt><trkpt lat="45.83544614271734" lon="10.859506675893094"><ele>92.0</ele><time>2026-04-06T15:08:40.941Z</time></trkpt><trkpt lat="45.83534303771638" lon="10.859570045252335"><ele>92.0</ele><time>2026-04-06T15:08:41.941Z</time></trkpt><trkpt lat="45.835247425068815" lon="10.8596376965521"><ele>92.0</ele><time>2026-04-06T15:08:42.941Z</time></trkpt><trkpt lat="45.835151131874305" lon="10.859697962116416"><ele>92.0</ele><time>2026-04-06T15:08:43.941Z</time></trkpt><trkpt lat="45.835048908112014" lon="10.859766083798391"><ele>92.0</ele><time>2026-04-06T15:08:44.941Z</time></trkpt><trkpt lat="45.83494041854585" lon="10.859829677252044"><ele>92.0</ele><time>2026-04-06T15:08:45.941Z</time></trkpt><trkpt lat="45.83483218773536" lon="10.859899444782794"><ele>91.0</ele><time>2026-04-06T15:08:46.941Z</time></trkpt><trkpt lat="45.83473728670434" lon="10.85996438950578"><ele>90.0</ele><time>2026-04-06T15:08:47.941Z</time></trkpt><trkpt lat="45.83464743683126" lon="10.860019140917215"><ele>89.0</ele><time>2026-04-06T15:08:48.941Z</time></trkpt><trkpt lat="45.834550143445945" lon="10.86005683667667"><ele>88.0</ele><time>2026-04-06T15:08:49.941Z</time></trkpt><trkpt lat="45.83444261362981" lon="10.860135805496348"><ele>87.0</ele><time>2026-04-06T15:08:50.941Z</time></trkpt><trkpt lat="45.83432706815737" lon="10.860204282683684"><ele>92.8</ele><time>2026-04-06T15:08:51.941Z</time></trkpt><trkpt lat="45.834218701095125" lon="10.86023990182456"><ele>98.6</ele><time>2026-04-06T15:08:52.941Z</time></trkpt><trkpt lat="45.83412187959622" lon="10.860291775853161"><ele>104.39999999999999</ele><time>2026-04-06T15:08:53.941Z</time></trkpt><trkpt lat="45.83402396281552" lon="10.860299888329553"><ele>110.19999999999999</ele><time>2026-04-06T15:08:54.941Z</time></trkpt><trkpt lat="45.83392271641729" lon="10.860321289320066"><ele>116.0</ele><time>2026-04-06T15:08:55.941Z</time></trkpt><trkpt lat="45.83381040290322" lon="10.860299625864346"><ele>116.0</ele><time>2026-04-06T15:08:56.941Z</time></trkpt><trkpt lat="45.83369518095118" lon="10.860271782947924"><ele>116.0</ele><time>2026-04-06T15:08:57.941Z</time></trkpt><trkpt lat="45.83356760898236" lon="10.860220898486872"><ele>116.0</ele><time>2026-04-06T15:08:58.941Z</time></trkpt><trkpt lat="45.833435767731046" lon="10.860125185711864"><ele>116.0</ele><time>2026-04-06T15:08:59.941Z</time></trkpt><trkpt lat="45.83328191564151" lon="10.860038078135432"><ele>105.66666666666666</ele><time>2026-04-06T15:09:00.941Z</time></trkpt><trkpt lat="45.83313235183448" lon="10.859935444222488"><ele>95.33333333333333</ele><time>2026-04-06T15:09:01.941Z</time></trkpt><trkpt lat="45.832983091362806" lon="10.859865898166746"><ele>85.0</ele><time>2026-04-06T15:09:02.941Z</time></trkpt><trkpt lat="45.832835776016225" lon="10.859813149244792"><ele>85.0</ele><time>2026-04-06T15:09:03.941Z</time></trkpt><trkpt lat="45.8326778698084" lon="10.859776375878829"><ele>85.0</ele><time>2026-04-06T15:09:04.941Z</time></trkpt><trkpt lat="45.8325155239017" lon="10.859746827949907"><ele>85.0</ele><time>2026-04-06T15:09:05.941Z</time></trkpt><trkpt lat="45.83235589061419" lon="10.85970684978373"><ele>90.66666666666666</ele><time>2026-04-06T15:09:06.941Z</time></trkpt><trkpt lat="45.832194103323246" lon="10.859671962774181"><ele>96.33333333333333</ele><time>2026-04-06T15:09:07.941Z</time></trkpt><trkpt lat="45.832046013789096" lon="10.859628342917889"><ele>102.0</ele><time>2026-04-06T15:09:08.941Z</time></trkpt><trkpt lat="45.831894708994135" lon="10.859570335326246"><ele>108.0</ele><time>2026-04-06T15:09:09.941Z</time></trkpt><trkpt lat="45.83174298930973" lon="10.859491302202535"><ele>114.0</ele><time>2026-04-06T15:09:10.941Z</time></trkpt><trkpt lat="45.83160949962327" lon="10.859388977974955"><ele>120.0</ele><time>2026-04-06T15:09:11.941Z</time></trkpt><trkpt lat="45.83147692115273" lon="10.859273649000404"><ele>109.0</ele><time>2026-04-06T15:09:12.941Z</time></trkpt><trkpt lat="45.83135650629144" lon="10.85915509163"><ele>98.0</ele><time>2026-04-06T15:09:13.941Z</time></trkpt><trkpt lat="45.83125899261442" lon="10.859023098842464"><ele>87.0</ele><time>2026-04-06T15:09:14.941Z</time></trkpt><trkpt lat="45.83114849977078" lon="10.858893105538181"><ele>76.0</ele><time>2026-04-06T15:09:15.941Z</time></trkpt><trkpt lat="45.83099362062049" lon="10.858793386786056"><ele>86.0</ele><time>2026-04-06T15:09:16.941Z</time></trkpt><trkpt lat="45.830828874593024" lon="10.858688269965956"><ele>96.0</ele><time>2026-04-06T15:09:17.941Z</time></trkpt><trkpt lat="45.83066547435529" lon="10.858589485180108"><ele>106.0</ele><time>2026-04-06T15:09:18.941Z</time></trkpt><trkpt lat="45.830512685914854" lon="10.858501321809202"><ele>102.66666666666667</ele><time>2026-04-06T15:09:19.941Z</time></trkpt><trkpt lat="45.830374591063574" lon="10.858413132533109"><ele>99.33333333333334</ele><time>2026-04-06T15:09:20.941Z</time></trkpt><trkpt lat="45.830235900494415" lon="10.858321818605573"><ele>96.0</ele><time>2026-04-06T15:09:21.941Z</time></trkpt><trkpt lat="45.830089058430914" lon="10.858235035325631"><ele>96.0</ele><time>2026-04-06T15:09:22.941Z</time></trkpt><trkpt lat="45.829946621832796" lon="10.858147804333173"><ele>96.0</ele><time>2026-04-06T15:09:23.941Z</time></trkpt><trkpt lat="45.82980338528049" lon="10.858060970333796"><ele>96.0</ele><time>2026-04-06T15:09:24.941Z</time></trkpt><trkpt lat="45.829667243390475" lon="10.857983843316319"><ele>96.0</ele><time>2026-04-06T15:09:25.941Z</time></trkpt><trkpt lat="45.829542411406074" lon="10.857919720055039"><ele>96.0</ele><time>2026-04-06T15:09:26.941Z</time></trkpt><trkpt lat="45.8294122427288" lon="10.857842644323235"><ele>96.0</ele><time>2026-04-06T15:09:27.941Z</time></trkpt><trkpt lat="45.82928047835488" lon="10.857762544185722"><ele>96.0</ele><time>2026-04-06T15:09:28.941Z</time></trkpt><trkpt lat="45.82915741890089" lon="10.857692311783731"><ele>91.0</ele><time>2026-04-06T15:09:29.941Z</time></trkpt><trkpt lat="45.82904134710784" lon="10.857626900409587"><ele>86.0</ele><time>2026-04-06T15:09:30.941Z</time></trkpt><trkpt lat="45.828926979562496" lon="10.857567981270321"><ele>81.0</ele><time>2026-04-06T15:09:31.941Z</time></trkpt><trkpt lat="45.82881785278354" lon="10.8575120194199"><ele>76.0</ele><time>2026-04-06T15:09:32.941Z</time></trkpt><trkpt lat="45.82870948164485" lon="10.857451926463257"><ele>76.0</ele><time>2026-04-06T15:09:33.941Z</time></trkpt><trkpt lat="45.828598125266474" lon="10.857388380647548"><ele>76.0</ele><time>2026-04-06T15:09:34.941Z</time></trkpt><trkpt lat="45.82848829633182" lon="10.857318202891166"><ele>76.0</ele><time>2026-04-06T15:09:35.941Z</time></trkpt><trkpt lat="45.828383119267514" lon="10.857263005259458"><ele>76.0</ele><time>2026-04-06T15:09:36.941Z</time></trkpt><trkpt lat="45.82828861750835" lon="10.85723082613871"><ele>76.0</ele><time>2026-04-06T15:09:37.941Z</time></trkpt><trkpt lat="45.82820803847734" lon="10.857208118806565"><ele>79.5</ele><time>2026-04-06T15:09:38.941Z</time></trkpt><trkpt lat="45.82809917526845" lon="10.857192240010953"><ele>83.0</ele><time>2026-04-06T15:09:40.941Z</time></trkpt><trkpt lat="45.82803809311562" lon="10.8571395852362"><ele>86.5</ele><time>2026-04-06T15:09:43.941Z</time></trkpt><trkpt lat="45.82797370590963" lon="10.857191117537738"><ele>90.0</ele><time>2026-04-06T15:10:37.94Z</time></trkpt><trkpt lat="45.82793149827841" lon="10.857121787272195"><ele>93.50000000000001</ele><time>2026-04-06T15:10:43.94Z</time></trkpt><trkpt lat="45.82798685725594" lon="10.85716554633094"><ele>97.0</ele><time>2026-04-06T15:18:31.932Z</time></trkpt><trkpt lat="45.82783163556986" lon="10.857205463954838"><ele>97.0</ele><time>2026-04-06T15:22:11.926Z</time></trkpt><trkpt lat="45.827733709012485" lon="10.857214040051403"><ele>97.0</ele><time>2026-04-06T15:22:12.926Z</time></trkpt><trkpt lat="45.827666626412835" lon="10.857250285110943"><ele>97.0</ele><time>2026-04-06T15:22:13.926Z</time></trkpt><trkpt lat="45.827603276665045" lon="10.857275762854654"><ele>97.0</ele><time>2026-04-06T15:22:14.926Z</time></trkpt><trkpt lat="45.82753939212953" lon="10.85730586314429"><ele>97.0</ele><time>2026-04-06T15:22:15.939Z</time></trkpt><trkpt lat="45.82747791605344" lon="10.85733612274408"><ele>97.0</ele><time>2026-04-06T15:22:16.94Z</time></trkpt><trkpt lat="45.82741772633747" lon="10.857369412511735"><ele>97.0</ele><time>2026-04-06T15:22:17.941Z</time></trkpt><trkpt lat="45.82729569068883" lon="10.857433817282235"><ele>94.0</ele><time>2026-04-06T15:22:19.941Z</time></trkpt><trkpt lat="45.82721799536582" lon="10.857475130886307"><ele>91.0</ele><time>2026-04-06T15:22:20.94Z</time></trkpt><trkpt lat="45.82659516894912" lon="10.857603789647575"><ele>109.33333333333333</ele><time>2026-04-06T15:22:22.926Z</time></trkpt><trkpt lat="45.82640019759753" lon="10.857747627152584"><ele>127.66666666666666</ele><time>2026-04-06T15:22:23.926Z</time></trkpt><trkpt lat="45.82621121272281" lon="10.857701562685468"><ele>146.0</ele><time>2026-04-06T15:22:24.926Z</time></trkpt><trkpt lat="45.82602444003705" lon="10.857678262204763"><ele>141.25</ele><time>2026-04-06T15:22:25.926Z</time></trkpt><trkpt lat="45.82584554176161" lon="10.857650369186937"><ele>136.5</ele><time>2026-04-06T15:22:26.926Z</time></trkpt><trkpt lat="45.825691461436286" lon="10.85767138248404"><ele>131.75</ele><time>2026-04-06T15:22:27.944Z</time></trkpt><trkpt lat="45.82560274986444" lon="10.857657677558606"><ele>127.0</ele><time>2026-04-06T15:22:28.941Z</time></trkpt><trkpt lat="45.82545920625351" lon="10.857691707326511"><ele>121.5</ele><time>2026-04-06T15:22:30.942Z</time></trkpt><trkpt lat="45.825089594561035" lon="10.857747738196531"><ele>116.0</ele><time>2026-04-06T15:22:31.926Z</time></trkpt><trkpt lat="45.82472050844407" lon="10.857743091879666"><ele>116.0</ele><time>2026-04-06T15:22:32.926Z</time></trkpt><trkpt lat="45.82451082251563" lon="10.857743692742105"><ele>116.0</ele><time>2026-04-06T15:22:33.926Z</time></trkpt><trkpt lat="45.82432044620979" lon="10.857696411656105"><ele>116.0</ele><time>2026-04-06T15:22:34.926Z</time></trkpt><trkpt lat="45.82412750994456" lon="10.857662580951452"><ele>103.0</ele><time>2026-04-06T15:22:35.926Z</time></trkpt><trkpt lat="45.82394005178861" lon="10.857616483251638"><ele>90.0</ele><time>2026-04-06T15:22:36.926Z</time></trkpt><trkpt lat="45.823761497857156" lon="10.857551555011273"><ele>77.0</ele><time>2026-04-06T15:22:37.926Z</time></trkpt><trkpt lat="45.82358766946183" lon="10.857488011319363"><ele>80.33333333333334</ele><time>2026-04-06T15:22:38.926Z</time></trkpt><trkpt lat="45.82341929299458" lon="10.857414126652436"><ele>83.66666666666667</ele><time>2026-04-06T15:22:39.926Z</time></trkpt><trkpt lat="45.82325466716134" lon="10.857405264731788"><ele>87.0</ele><time>2026-04-06T15:22:40.926Z</time></trkpt><trkpt lat="45.82308903118523" lon="10.857357548364504"><ele>87.0</ele><time>2026-04-06T15:22:41.926Z</time></trkpt><trkpt lat="45.822910751145855" lon="10.85731293740519"><ele>87.0</ele><time>2026-04-06T15:22:42.926Z</time></trkpt><trkpt lat="45.82272484431948" lon="10.857266866422993"><ele>87.0</ele><time>2026-04-06T15:22:43.926Z</time></trkpt><trkpt lat="45.822528293396466" lon="10.857198963106907"><ele>92.33333333333334</ele><time>2026-04-06T15:22:44.926Z</time></trkpt><trkpt lat="45.82234145842254" lon="10.857136297504502"><ele>97.66666666666667</ele><time>2026-04-06T15:22:45.926Z</time></trkpt><trkpt lat="45.822161118902805" lon="10.85707580855703"><ele>103.0</ele><time>2026-04-06T15:22:46.926Z</time></trkpt><trkpt lat="45.82198674917704" lon="10.857012186015794"><ele>103.0</ele><time>2026-04-06T15:22:47.926Z</time></trkpt><trkpt lat="45.821819701911856" lon="10.856978098387097"><ele>103.0</ele><time>2026-04-06T15:22:48.926Z</time></trkpt><trkpt lat="45.82165424598045" lon="10.85692436490299"><ele>103.0</ele><time>2026-04-06T15:22:49.926Z</time></trkpt><trkpt lat="45.82146891622138" lon="10.856834211415544"><ele>94.33333333333334</ele><time>2026-04-06T15:22:50.926Z</time></trkpt><trkpt lat="45.82130583267071" lon="10.85678114996218"><ele>85.66666666666667</ele><time>2026-04-06T15:22:51.926Z</time></trkpt><trkpt lat="45.82116150978651" lon="10.856689445877363"><ele>77.0</ele><time>2026-04-06T15:22:52.926Z</time></trkpt><trkpt lat="45.821015446706234" lon="10.856613620988238"><ele>81.33333333333334</ele><time>2026-04-06T15:22:53.926Z</time></trkpt><trkpt lat="45.8208704806002" lon="10.856537836521767"><ele>85.66666666666667</ele><time>2026-04-06T15:22:54.926Z</time></trkpt><trkpt lat="45.82072032493758" lon="10.85648634929964"><ele>90.0</ele><time>2026-04-06T15:22:55.926Z</time></trkpt><trkpt lat="45.82054793772721" lon="10.856421131167783"><ele>90.0</ele><time>2026-04-06T15:22:56.926Z</time></trkpt><trkpt lat="45.82032660060046" lon="10.856345458192386"><ele>90.0</ele><time>2026-04-06T15:22:57.926Z</time></trkpt><trkpt lat="45.82015382353112" lon="10.856256946987669"><ele>90.0</ele><time>2026-04-06T15:22:58.926Z</time></trkpt><trkpt lat="45.81996429801178" lon="10.856147691720857"><ele>94.66666666666666</ele><time>2026-04-06T15:22:59.926Z</time></trkpt><trkpt lat="45.819790296272465" lon="10.856068927315723"><ele>99.33333333333333</ele><time>2026-04-06T15:23:00.926Z</time></trkpt><trkpt lat="45.819616186088545" lon="10.85600214503204"><ele>104.0</ele><time>2026-04-06T15:23:01.926Z</time></trkpt><trkpt lat="45.81946704754174" lon="10.8559261642704"><ele>95.66666666666666</ele><time>2026-04-06T15:23:02.926Z</time></trkpt><trkpt lat="45.819301657091756" lon="10.855846248153256"><ele>87.33333333333333</ele><time>2026-04-06T15:23:03.926Z</time></trkpt><trkpt lat="45.81914022452805" lon="10.855776312813928"><ele>79.0</ele><time>2026-04-06T15:23:04.926Z</time></trkpt><trkpt lat="45.81897766140776" lon="10.855714621952407"><ele>79.0</ele><time>2026-04-06T15:23:05.926Z</time></trkpt><trkpt lat="45.81882442401077" lon="10.855662457734109"><ele>79.0</ele><time>2026-04-06T15:23:06.926Z</time></trkpt><trkpt lat="45.81866856610385" lon="10.855611891114997"><ele>79.0</ele><time>2026-04-06T15:23:07.926Z</time></trkpt><trkpt lat="45.81852523691697" lon="10.855565619042206"><ele>86.0</ele><time>2026-04-06T15:23:08.926Z</time></trkpt><trkpt lat="45.81837526183502" lon="10.855517201560588"><ele>93.0</ele><time>2026-04-06T15:23:09.926Z</time></trkpt><trkpt lat="45.81821397051939" lon="10.855465130711133"><ele>100.0</ele><time>2026-04-06T15:23:10.926Z</time></trkpt><trkpt lat="45.818012185984344" lon="10.855399987141457"><ele>100.0</ele><time>2026-04-06T15:23:11.926Z</time></trkpt><trkpt lat="45.8178203044446" lon="10.855338520238957"><ele>100.0</ele><time>2026-04-06T15:23:12.926Z</time></trkpt><trkpt lat="45.81765270136231" lon="10.855287177694054"><ele>100.0</ele><time>2026-04-06T15:23:13.924Z</time></trkpt><trkpt lat="45.81750861922833" lon="10.855242838017373"><ele>107.0</ele><time>2026-04-06T15:23:14.924Z</time></trkpt><trkpt lat="45.817334986277444" lon="10.855188928382978"><ele>114.0</ele><time>2026-04-06T15:23:15.924Z</time></trkpt><trkpt lat="45.81719270884253" lon="10.855142667955414"><ele>121.0</ele><time>2026-04-06T15:23:16.924Z</time></trkpt><trkpt lat="45.8170242325756" lon="10.855084330369332"><ele>113.0</ele><time>2026-04-06T15:23:17.924Z</time></trkpt><trkpt lat="45.81686071821645" lon="10.855007257305813"><ele>105.0</ele><time>2026-04-06T15:23:18.924Z</time></trkpt><trkpt lat="45.81669887303327" lon="10.854894534398243"><ele>97.0</ele><time>2026-04-06T15:23:19.924Z</time></trkpt><trkpt lat="45.816534741345336" lon="10.85476581412276"><ele>97.0</ele><time>2026-04-06T15:23:20.924Z</time></trkpt><trkpt lat="45.81637748539114" lon="10.854649707694227"><ele>97.0</ele><time>2026-04-06T15:23:21.924Z</time></trkpt><trkpt lat="45.816229664044094" lon="10.854540050442546"><ele>97.0</ele><time>2026-04-06T15:23:22.924Z</time></trkpt><trkpt lat="45.816084581158066" lon="10.854430267997463"><ele>90.33333333333334</ele><time>2026-04-06T15:23:23.924Z</time></trkpt><trkpt lat="45.8159352898216" lon="10.85431701518355"><ele>83.66666666666667</ele><time>2026-04-06T15:23:24.924Z</time></trkpt><trkpt lat="45.8158063311791" lon="10.854218606468601"><ele>77.0</ele><time>2026-04-06T15:23:25.924Z</time></trkpt><trkpt lat="45.81564669893183" lon="10.85409679115764"><ele>77.0</ele><time>2026-04-06T15:23:26.924Z</time></trkpt><trkpt lat="45.81551069328218" lon="10.853993005008386"><ele>77.0</ele><time>2026-04-06T15:23:27.924Z</time></trkpt><trkpt lat="45.815381573427445" lon="10.853895839743315"><ele>77.0</ele><time>2026-04-06T15:23:28.924Z</time></trkpt><trkpt lat="45.8152533549608" lon="10.853807600580526"><ele>77.0</ele><time>2026-04-06T15:23:29.924Z</time></trkpt><trkpt lat="45.81512688383677" lon="10.853730178458123"><ele>85.66666666666667</ele><time>2026-04-06T15:23:30.924Z</time></trkpt><trkpt lat="45.815000987470945" lon="10.853666067602823"><ele>94.33333333333334</ele><time>2026-04-06T15:23:31.924Z</time></trkpt><trkpt lat="45.814834867018604" lon="10.853592703853694"><ele>103.0</ele><time>2026-04-06T15:23:32.924Z</time></trkpt><trkpt lat="45.81464059341118" lon="10.853516767793538"><ele>102.33333333333334</ele><time>2026-04-06T15:23:33.924Z</time></trkpt><trkpt lat="45.814455719026014" lon="10.853447950815115"><ele>101.66666666666666</ele><time>2026-04-06T15:23:34.924Z</time></trkpt><trkpt lat="45.814258666909915" lon="10.853376551560618"><ele>101.0</ele><time>2026-04-06T15:23:35.924Z</time></trkpt><trkpt lat="45.81407542433376" lon="10.853310155939784"><ele>101.0</ele><time>2026-04-06T15:23:36.924Z</time></trkpt><trkpt lat="45.81387834513283" lon="10.853238340113693"><ele>101.0</ele><time>2026-04-06T15:23:37.939Z</time></trkpt><trkpt lat="45.81368762874612" lon="10.853167832531886"><ele>101.0</ele><time>2026-04-06T15:23:38.939Z</time></trkpt><trkpt lat="45.81349936674922" lon="10.853098207718142"><ele>94.33333333333333</ele><time>2026-04-06T15:23:39.938Z</time></trkpt><trkpt lat="45.81330223547961" lon="10.853024846445837"><ele>87.66666666666666</ele><time>2026-04-06T15:23:40.939Z</time></trkpt><trkpt lat="45.81311261800899" lon="10.852954281567262"><ele>81.0</ele><time>2026-04-06T15:23:41.939Z</time></trkpt><trkpt lat="45.811951607508405" lon="10.852614557380651"><ele>78.5</ele><time>2026-04-06T15:23:47.924Z</time></trkpt><trkpt lat="45.811768950972464" lon="10.852562601651147"><ele>76.0</ele><time>2026-04-06T15:23:48.924Z</time></trkpt><trkpt lat="45.81169388212766" lon="10.852561498730164"><ele>73.5</ele><time>2026-04-06T15:23:49.924Z</time></trkpt><trkpt lat="45.81158883609905" lon="10.852524780273919"><ele>71.0</ele><time>2026-04-06T15:23:50.924Z</time></trkpt><trkpt lat="45.81144988396193" lon="10.85247911618572"><ele>71.0</ele><time>2026-04-06T15:23:51.924Z</time></trkpt><trkpt lat="45.811334435625774" lon="10.852413764469942"><ele>71.0</ele><time>2026-04-06T15:23:52.924Z</time></trkpt><trkpt lat="45.811207785571845" lon="10.852367747262573"><ele>71.0</ele><time>2026-04-06T15:23:53.924Z</time></trkpt><trkpt lat="45.811084669795065" lon="10.852323014213367"><ele>71.0</ele><time>2026-04-06T15:23:54.924Z</time></trkpt><trkpt lat="45.8109720676182" lon="10.852281739603496"><ele>74.75</ele><time>2026-04-06T15:23:55.924Z</time></trkpt><trkpt lat="45.81084760989006" lon="10.852236436028655"><ele>78.5</ele><time>2026-04-06T15:23:56.924Z</time></trkpt><trkpt lat="45.81073826868048" lon="10.852196750113976"><ele>82.25</ele><time>2026-04-06T15:23:57.924Z</time></trkpt><trkpt lat="45.81061630420495" lon="10.85215248252457"><ele>86.0</ele><time>2026-04-06T15:23:58.924Z</time></trkpt><trkpt lat="45.8104668993506" lon="10.852098255326075"><ele>86.0</ele><time>2026-04-06T15:23:59.924Z</time></trkpt><trkpt lat="45.81034023578202" lon="10.852051538737467"><ele>86.0</ele><time>2026-04-06T15:24:00.924Z</time></trkpt><trkpt lat="45.810218719435426" lon="10.851991920401902"><ele>86.0</ele><time>2026-04-06T15:24:01.924Z</time></trkpt><trkpt lat="45.8101085837677" lon="10.851926866121145"><ele>86.0</ele><time>2026-04-06T15:24:02.924Z</time></trkpt><trkpt lat="45.809993953493716" lon="10.851849674663097"><ele>83.5</ele><time>2026-04-06T15:24:03.924Z</time></trkpt><trkpt lat="45.80987178890682" lon="10.851759908418996"><ele>81.0</ele><time>2026-04-06T15:24:04.924Z</time></trkpt><trkpt lat="45.80976195822913" lon="10.851636450245113"><ele>78.5</ele><time>2026-04-06T15:24:05.924Z</time></trkpt><trkpt lat="45.80964852097835" lon="10.85150880295436"><ele>76.0</ele><time>2026-04-06T15:24:06.924Z</time></trkpt><trkpt lat="45.80954498608688" lon="10.851371954529244"><ele>76.0</ele><time>2026-04-06T15:24:07.924Z</time></trkpt><trkpt lat="45.80945910191626" lon="10.851236440085515"><ele>76.0</ele><time>2026-04-06T15:24:08.924Z</time></trkpt><trkpt lat="45.80938022444611" lon="10.851092948841048"><ele>76.0</ele><time>2026-04-06T15:24:09.924Z</time></trkpt><trkpt lat="45.80931191718139" lon="10.850947560649711"><ele>76.0</ele><time>2026-04-06T15:24:10.924Z</time></trkpt><trkpt lat="45.809250158770666" lon="10.850787637915314"><ele>77.33333333333333</ele><time>2026-04-06T15:24:11.924Z</time></trkpt><trkpt lat="45.80918929956579" lon="10.850601224739735"><ele>78.66666666666667</ele><time>2026-04-06T15:24:12.924Z</time></trkpt><trkpt lat="45.80912549678097" lon="10.850396312214396"><ele>80.0</ele><time>2026-04-06T15:24:13.924Z</time></trkpt><trkpt lat="45.80905759603281" lon="10.850174200944258"><ele>79.0</ele><time>2026-04-06T15:24:14.924Z</time></trkpt><trkpt lat="45.80899938151014" lon="10.84998377434386"><ele>78.0</ele><time>2026-04-06T15:24:15.924Z</time></trkpt><trkpt lat="45.80893947669648" lon="10.849789512810007"><ele>77.0</ele><time>2026-04-06T15:24:16.924Z</time></trkpt><trkpt lat="45.80888573347101" lon="10.849615622689283"><ele>76.0</ele><time>2026-04-06T15:24:17.924Z</time></trkpt><trkpt lat="45.808829058817636" lon="10.84943832675048"><ele>73.75</ele><time>2026-04-06T15:24:18.924Z</time></trkpt><trkpt lat="45.80877326244016" lon="10.849267946094498"><ele>71.5</ele><time>2026-04-06T15:24:19.924Z</time></trkpt><trkpt lat="45.80871032715917" lon="10.849087344142283"><ele>69.25</ele><time>2026-04-06T15:24:20.924Z</time></trkpt><trkpt lat="45.80864525702105" lon="10.848934787822257"><ele>67.0</ele><time>2026-04-06T15:24:21.924Z</time></trkpt><trkpt lat="45.80856976436992" lon="10.848783251554073"><ele>69.25</ele><time>2026-04-06T15:24:22.924Z</time></trkpt><trkpt lat="45.80848134668026" lon="10.848641327214366"><ele>71.5</ele><time>2026-04-06T15:24:23.924Z</time></trkpt><trkpt lat="45.80838470434248" lon="10.848506265539331"><ele>73.75</ele><time>2026-04-06T15:24:24.924Z</time></trkpt><trkpt lat="45.808275203841326" lon="10.84837676639218"><ele>76.0</ele><time>2026-04-06T15:24:25.924Z</time></trkpt><trkpt lat="45.80815003202085" lon="10.848254969745195"><ele>76.0</ele><time>2026-04-06T15:24:26.924Z</time></trkpt><trkpt lat="45.807993441826184" lon="10.84811939549629"><ele>76.0</ele><time>2026-04-06T15:24:27.924Z</time></trkpt><trkpt lat="45.807877402888096" lon="10.848023137566614"><ele>76.0</ele><time>2026-04-06T15:24:28.924Z</time></trkpt><trkpt lat="45.80776233591448" lon="10.847930313348908"><ele>76.0</ele><time>2026-04-06T15:24:29.924Z</time></trkpt><trkpt lat="45.80767749395062" lon="10.847862373380414"><ele>75.66666666666666</ele><time>2026-04-06T15:24:30.924Z</time></trkpt><trkpt lat="45.80761624352265" lon="10.847813325049383"><ele>75.33333333333333</ele><time>2026-04-06T15:24:31.924Z</time></trkpt><trkpt lat="45.807557037447765" lon="10.847765913850692"><ele>75.0</ele><time>2026-04-06T15:24:32.924Z</time></trkpt><trkpt lat="45.807494640586455" lon="10.84771594733864"><ele>74.66666666666667</ele><time>2026-04-06T15:24:35.924Z</time></trkpt><trkpt lat="45.80742640390696" lon="10.847661305324657"><ele>74.33333333333334</ele><time>2026-04-06T15:24:41.924Z</time></trkpt><trkpt lat="45.807305140775206" lon="10.847587807865176"><ele>74.0</ele><time>2026-04-06T15:24:43.924Z</time></trkpt><trkpt lat="45.80722378086634" lon="10.84749857576504"><ele>74.0</ele><time>2026-04-06T15:24:44.924Z</time></trkpt><trkpt lat="45.80713560534552" lon="10.84742808065629"><ele>74.0</ele><time>2026-04-06T15:24:45.924Z</time></trkpt><trkpt lat="45.80700292957586" lon="10.847322548308764"><ele>74.0</ele><time>2026-04-06T15:24:46.924Z</time></trkpt><trkpt lat="45.806831468797114" lon="10.847186166079968"><ele>74.0</ele><time>2026-04-06T15:24:47.924Z</time></trkpt><trkpt lat="45.80663484132706" lon="10.847029765853426"><ele>72.33333333333334</ele><time>2026-04-06T15:24:48.924Z</time></trkpt><trkpt lat="45.80646249237578" lon="10.846890010031569"><ele>70.66666666666667</ele><time>2026-04-06T15:24:49.924Z</time></trkpt><trkpt lat="45.80631312652428" lon="10.846779402919058"><ele>69.0</ele><time>2026-04-06T15:24:50.924Z</time></trkpt><trkpt lat="45.80618177950487" lon="10.846660436873776"><ele>69.0</ele><time>2026-04-06T15:24:51.924Z</time></trkpt><trkpt lat="45.806059073577515" lon="10.84652947183599"><ele>69.0</ele><time>2026-04-06T15:24:52.924Z</time></trkpt><trkpt lat="45.80593501394892" lon="10.846395521186297"><ele>69.0</ele><time>2026-04-06T15:24:53.924Z</time></trkpt><trkpt lat="45.80580458962542" lon="10.846239585526318"><ele>68.66666666666667</ele><time>2026-04-06T15:24:54.924Z</time></trkpt><trkpt lat="45.80566893600967" lon="10.846067262709425"><ele>68.33333333333334</ele><time>2026-04-06T15:24:55.924Z</time></trkpt><trkpt lat="45.80553814875788" lon="10.845888580800903"><ele>68.0</ele><time>2026-04-06T15:24:56.924Z</time></trkpt><trkpt lat="45.805432650041446" lon="10.845711722500178"><ele>68.0</ele><time>2026-04-06T15:24:57.924Z</time></trkpt><trkpt lat="45.80533877782054" lon="10.845536274714533"><ele>68.0</ele><time>2026-04-06T15:24:58.924Z</time></trkpt><trkpt lat="45.80524095794803" lon="10.84534626194167"><ele>68.0</ele><time>2026-04-06T15:24:59.924Z</time></trkpt><trkpt lat="45.80513626167184" lon="10.845121092425694"><ele>70.66666666666667</ele><time>2026-04-06T15:25:00.924Z</time></trkpt><trkpt lat="45.80504206071225" lon="10.844866927376936"><ele>73.33333333333333</ele><time>2026-04-06T15:25:01.924Z</time></trkpt><trkpt lat="45.8049442543287" lon="10.84465097364739"><ele>76.0</ele><time>2026-04-06T15:25:02.924Z</time></trkpt><trkpt lat="45.80485076565448" lon="10.844446593709423"><ele>72.33333333333333</ele><time>2026-04-06T15:25:03.924Z</time></trkpt><trkpt lat="45.80475921458569" lon="10.844248354969148"><ele>68.66666666666667</ele><time>2026-04-06T15:25:04.924Z</time></trkpt><trkpt lat="45.804666666539724" lon="10.844052755693367"><ele>65.0</ele><time>2026-04-06T15:25:05.924Z</time></trkpt><trkpt lat="45.804572148894806" lon="10.84385657879943"><ele>65.0</ele><time>2026-04-06T15:25:06.924Z</time></trkpt><trkpt lat="45.80447849232022" lon="10.843668759449761"><ele>65.0</ele><time>2026-04-06T15:25:07.924Z</time></trkpt><trkpt lat="45.80438258341575" lon="10.843480539066148"><ele>65.0</ele><time>2026-04-06T15:25:08.924Z</time></trkpt><trkpt lat="45.804286043992896" lon="10.84330203269381"><ele>69.33333333333334</ele><time>2026-04-06T15:25:09.924Z</time></trkpt><trkpt lat="45.80418823936382" lon="10.84312383129496"><ele>73.66666666666667</ele><time>2026-04-06T15:25:10.924Z</time></trkpt><trkpt lat="45.804093157772144" lon="10.842955737653266"><ele>78.0</ele><time>2026-04-06T15:25:11.924Z</time></trkpt><trkpt lat="45.80397852294419" lon="10.842821538904637"><ele>78.0</ele><time>2026-04-06T15:25:12.924Z</time></trkpt><trkpt lat="45.8038810121169" lon="10.842661123676471"><ele>78.0</ele><time>2026-04-06T15:25:13.924Z</time></trkpt><trkpt lat="45.80379706221197" lon="10.842515207699178"><ele>78.0</ele><time>2026-04-06T15:25:14.924Z</time></trkpt><trkpt lat="45.80370832003425" lon="10.842373982575479"><ele>78.0</ele><time>2026-04-06T15:25:15.924Z</time></trkpt><trkpt lat="45.8036408743644" lon="10.842204010436483"><ele>78.25</ele><time>2026-04-06T15:25:16.924Z</time></trkpt><trkpt lat="45.80355548044407" lon="10.842073156194486"><ele>78.5</ele><time>2026-04-06T15:25:17.924Z</time></trkpt><trkpt lat="45.80346566702995" lon="10.84193848273137"><ele>78.75</ele><time>2026-04-06T15:25:18.924Z</time></trkpt><trkpt lat="45.803375145055284" lon="10.841808368709508"><ele>79.0</ele><time>2026-04-06T15:25:19.923Z</time></trkpt><trkpt lat="45.803272565156036" lon="10.841666343769793"><ele>76.75</ele><time>2026-04-06T15:25:20.923Z</time></trkpt><trkpt lat="45.803168881177236" lon="10.841524950907955"><ele>74.5</ele><time>2026-04-06T15:25:21.923Z</time></trkpt><trkpt lat="45.803064373967196" lon="10.841383860111304"><ele>72.25</ele><time>2026-04-06T15:25:22.923Z</time></trkpt><trkpt lat="45.80295063831801" lon="10.841233110392475"><ele>70.0</ele><time>2026-04-06T15:25:23.923Z</time></trkpt><trkpt lat="45.802879371276916" lon="10.841143270164974"><ele>70.0</ele><time>2026-04-06T15:25:24.923Z</time></trkpt><trkpt lat="45.80278478701365" lon="10.841027467101961"><ele>70.0</ele><time>2026-04-06T15:25:25.923Z</time></trkpt><trkpt lat="45.80268921437154" lon="10.840912645077431"><ele>70.0</ele><time>2026-04-06T15:25:26.923Z</time></trkpt><trkpt lat="45.802589517146586" lon="10.840793849539331"><ele>70.0</ele><time>2026-04-06T15:25:27.923Z</time></trkpt><trkpt lat="45.80247895995011" lon="10.840664492037273"><ele>71.66666666666666</ele><time>2026-04-06T15:25:28.923Z</time></trkpt><trkpt lat="45.80236064460034" lon="10.840530427348394"><ele>73.33333333333333</ele><time>2026-04-06T15:25:29.923Z</time></trkpt><trkpt lat="45.80223644650453" lon="10.840392717951723"><ele>75.0</ele><time>2026-04-06T15:25:30.923Z</time></trkpt><trkpt lat="45.80208845213457" lon="10.840261326619144"><ele>77.0</ele><time>2026-04-06T15:25:31.923Z</time></trkpt><trkpt lat="45.80194178049216" lon="10.84008910599539"><ele>79.0</ele><time>2026-04-06T15:25:32.923Z</time></trkpt><trkpt lat="45.80179946055706" lon="10.839895566591359"><ele>81.0</ele><time>2026-04-06T15:25:33.923Z</time></trkpt><trkpt lat="45.801660131851534" lon="10.839676233586927"><ele>81.0</ele><time>2026-04-06T15:25:34.923Z</time></trkpt><trkpt lat="45.8015211898422" lon="10.839435217142102"><ele>81.0</ele><time>2026-04-06T15:25:35.923Z</time></trkpt><trkpt lat="45.80140572838607" lon="10.83914303934325"><ele>75.0</ele><time>2026-04-06T15:25:36.923Z</time></trkpt><trkpt lat="45.801266202424074" lon="10.838847308429303"><ele>69.0</ele><time>2026-04-06T15:25:37.923Z</time></trkpt><trkpt lat="45.801129133176126" lon="10.838597075600937"><ele>67.0</ele><time>2026-04-06T15:25:38.923Z</time></trkpt><trkpt lat="45.80103177294876" lon="10.83836388025089"><ele>65.0</ele><time>2026-04-06T15:25:39.923Z</time></trkpt><trkpt lat="45.800911422392545" lon="10.838188767444162"><ele>63.0</ele><time>2026-04-06T15:25:40.923Z</time></trkpt><trkpt lat="45.800816192104804" lon="10.838025768455628"><ele>67.0</ele><time>2026-04-06T15:25:41.923Z</time></trkpt><trkpt lat="45.80070321828079" lon="10.83788999424495"><ele>71.0</ele><time>2026-04-06T15:25:42.923Z</time></trkpt><trkpt lat="45.80057665739254" lon="10.837760252241855"><ele>75.0</ele><time>2026-04-06T15:25:43.923Z</time></trkpt><trkpt lat="45.8004370928575" lon="10.837639278274303"><ele>72.33333333333333</ele><time>2026-04-06T15:25:44.923Z</time></trkpt><trkpt lat="45.800303298152194" lon="10.83754932871245"><ele>69.66666666666666</ele><time>2026-04-06T15:25:45.923Z</time></trkpt><trkpt lat="45.800138623414085" lon="10.837465905440355"><ele>67.0</ele><time>2026-04-06T15:25:46.923Z</time></trkpt><trkpt lat="45.7999973542157" lon="10.837411686849828"><ele>67.0</ele><time>2026-04-06T15:25:47.923Z</time></trkpt><trkpt lat="45.79984536067003" lon="10.837384338642963"><ele>67.0</ele><time>2026-04-06T15:25:48.923Z</time></trkpt><trkpt lat="45.79970240617421" lon="10.83735395521002"><ele>67.0</ele><time>2026-04-06T15:25:49.923Z</time></trkpt><trkpt lat="45.79957541831352" lon="10.837347165827719"><ele>67.0</ele><time>2026-04-06T15:25:50.923Z</time></trkpt><trkpt lat="45.79941382639786" lon="10.837353011815539"><ele>68.33333333333333</ele><time>2026-04-06T15:25:51.923Z</time></trkpt><trkpt lat="45.799256714062096" lon="10.837406825204003"><ele>69.66666666666667</ele><time>2026-04-06T15:25:52.923Z</time></trkpt><trkpt lat="45.79907655989259" lon="10.837451844583967"><ele>71.0</ele><time>2026-04-06T15:25:53.923Z</time></trkpt><trkpt lat="45.7988713456358" lon="10.837502889965586"><ele>71.0</ele><time>2026-04-06T15:25:54.923Z</time></trkpt><trkpt lat="45.79867460410885" lon="10.83754878293755"><ele>71.0</ele><time>2026-04-06T15:25:55.923Z</time></trkpt><trkpt lat="45.7984919630053" lon="10.837590360022974"><ele>71.0</ele><time>2026-04-06T15:25:56.923Z</time></trkpt><trkpt lat="45.79831460952769" lon="10.837618225601332"><ele>70.0</ele><time>2026-04-06T15:25:57.923Z</time></trkpt><trkpt lat="45.79813924589174" lon="10.837625582445149"><ele>69.0</ele><time>2026-04-06T15:25:58.923Z</time></trkpt><trkpt lat="45.797964875281835" lon="10.837610753905201"><ele>68.0</ele><time>2026-04-06T15:25:59.923Z</time></trkpt><trkpt lat="45.79778793843147" lon="10.837575251217702"><ele>71.66666666666667</ele><time>2026-04-06T15:26:00.923Z</time></trkpt><trkpt lat="45.79762999257113" lon="10.837503177809179"><ele>75.33333333333333</ele><time>2026-04-06T15:26:01.923Z</time></trkpt><trkpt lat="45.7974749503351" lon="10.837416723101933"><ele>79.0</ele><time>2026-04-06T15:26:02.923Z</time></trkpt><trkpt lat="45.797329725344795" lon="10.83732100742189"><ele>79.0</ele><time>2026-04-06T15:26:03.923Z</time></trkpt><trkpt lat="45.797193957074924" lon="10.837227381482265"><ele>79.0</ele><time>2026-04-06T15:26:04.923Z</time></trkpt><trkpt lat="45.797069311876534" lon="10.837111520498832"><ele>79.0</ele><time>2026-04-06T15:26:05.923Z</time></trkpt><trkpt lat="45.79695166594108" lon="10.836991170692094"><ele>79.0</ele><time>2026-04-06T15:26:06.923Z</time></trkpt><trkpt lat="45.79683199028639" lon="10.836883887138159"><ele>78.0</ele><time>2026-04-06T15:26:07.923Z</time></trkpt><trkpt lat="45.796711702747494" lon="10.836735152707721"><ele>77.0</ele><time>2026-04-06T15:26:08.923Z</time></trkpt><trkpt lat="45.79658710760358" lon="10.836604080663042"><ele>76.0</ele><time>2026-04-06T15:26:09.923Z</time></trkpt><trkpt lat="45.796460018295946" lon="10.836468617936678"><ele>76.0</ele><time>2026-04-06T15:26:10.923Z</time></trkpt><trkpt lat="45.79632982473338" lon="10.836329759961453"><ele>76.0</ele><time>2026-04-06T15:26:11.923Z</time></trkpt><trkpt lat="45.79619500652085" lon="10.836185969543877"><ele>76.0</ele><time>2026-04-06T15:26:12.923Z</time></trkpt><trkpt lat="45.79626340758927" lon="10.83625892283176"><ele>76.0</ele><time>2026-04-06T15:26:13.923Z</time></trkpt><trkpt lat="45.79616870582512" lon="10.836157753337876"><ele>76.0</ele><time>2026-04-06T15:26:14.923Z</time></trkpt><trkpt lat="45.79606910244991" lon="10.836070850800843"><ele>76.0</ele><time>2026-04-06T15:26:15.923Z</time></trkpt><trkpt lat="45.795962336054636" lon="10.835962830378318"><ele>76.0</ele><time>2026-04-06T15:26:16.923Z</time></trkpt><trkpt lat="45.795858597344484" lon="10.835847115782087"><ele>76.0</ele><time>2026-04-06T15:26:17.923Z</time></trkpt><trkpt lat="45.79574811167965" lon="10.835724929937369"><ele>75.33333333333333</ele><time>2026-04-06T15:26:18.923Z</time></trkpt><trkpt lat="45.79563016834456" lon="10.835593424853014"><ele>74.66666666666667</ele><time>2026-04-06T15:26:19.923Z</time></trkpt><trkpt lat="45.7954923234374" lon="10.835448095034993"><ele>74.0</ele><time>2026-04-06T15:26:20.923Z</time></trkpt><trkpt lat="45.79534258649326" lon="10.835298281013786"><ele>74.66666666666667</ele><time>2026-04-06T15:26:21.923Z</time></trkpt><trkpt lat="45.795175038833456" lon="10.835118656551716"><ele>75.33333333333333</ele><time>2026-04-06T15:26:22.923Z</time></trkpt><trkpt lat="45.79499975025384" lon="10.834927645597217"><ele>76.0</ele><time>2026-04-06T15:26:23.923Z</time></trkpt><trkpt lat="45.794841931544234" lon="10.834762855181033"><ele>76.0</ele><time>2026-04-06T15:26:24.923Z</time></trkpt><trkpt lat="45.79468625853579" lon="10.834605415784933"><ele>76.0</ele><time>2026-04-06T15:26:25.923Z</time></trkpt><trkpt lat="45.79452676022166" lon="10.834448760698649"><ele>76.0</ele><time>2026-04-06T15:26:26.923Z</time></trkpt><trkpt lat="45.79436214705277" lon="10.83428551800238"><ele>78.33333333333333</ele><time>2026-04-06T15:26:27.923Z</time></trkpt><trkpt lat="45.79421336965203" lon="10.834107249078345"><ele>80.66666666666667</ele><time>2026-04-06T15:26:28.923Z</time></trkpt><trkpt lat="45.79407956416507" lon="10.83396734735923"><ele>83.0</ele><time>2026-04-06T15:26:29.923Z</time></trkpt><trkpt lat="45.79393712490428" lon="10.833816023281292"><ele>83.0</ele><time>2026-04-06T15:26:30.923Z</time></trkpt><trkpt lat="45.793810056209594" lon="10.833679979165009"><ele>83.0</ele><time>2026-04-06T15:26:31.923Z</time></trkpt><trkpt lat="45.79369300479606" lon="10.833552787572602"><ele>83.0</ele><time>2026-04-06T15:26:32.923Z</time></trkpt><trkpt lat="45.793586602829876" lon="10.833433887520643"><ele>83.0</ele><time>2026-04-06T15:26:33.923Z</time></trkpt><trkpt lat="45.79349193753631" lon="10.833323339769123"><ele>84.0</ele><time>2026-04-06T15:26:34.923Z</time></trkpt><trkpt lat="45.79338286280187" lon="10.8332186396462"><ele>85.0</ele><time>2026-04-06T15:26:35.923Z</time></trkpt><trkpt lat="45.79329053941271" lon="10.833094973248032"><ele>86.0</ele><time>2026-04-06T15:26:36.923Z</time></trkpt><trkpt lat="45.793195453328195" lon="10.83297817215421"><ele>87.0</ele><time>2026-04-06T15:26:37.923Z</time></trkpt><trkpt lat="45.793109165604854" lon="10.832862644453488"><ele>87.0</ele><time>2026-04-06T15:26:38.923Z</time></trkpt><trkpt lat="45.793028050305836" lon="10.832753088853208"><ele>87.0</ele><time>2026-04-06T15:26:39.923Z</time></trkpt><trkpt lat="45.792935979291116" lon="10.832611875800225"><ele>87.0</ele><time>2026-04-06T15:26:40.923Z</time></trkpt><trkpt lat="45.792824272279304" lon="10.832451970046469"><ele>87.0</ele><time>2026-04-06T15:26:41.923Z</time></trkpt><trkpt lat="45.792702686356364" lon="10.83227340397127"><ele>83.0</ele><time>2026-04-06T15:26:42.923Z</time></trkpt><trkpt lat="45.79257828636347" lon="10.832076454075802"><ele>79.0</ele><time>2026-04-06T15:26:43.923Z</time></trkpt><trkpt lat="45.7924730959442" lon="10.831901436204204"><ele>75.0</ele><time>2026-04-06T15:26:44.923Z</time></trkpt><trkpt lat="45.79236956936027" lon="10.831751604918557"><ele>75.0</ele><time>2026-04-06T15:26:45.923Z</time></trkpt><trkpt lat="45.79228670504497" lon="10.831598062806197"><ele>75.0</ele><time>2026-04-06T15:26:46.923Z</time></trkpt><trkpt lat="45.792203695475614" lon="10.831441743194226"><ele>75.0</ele><time>2026-04-06T15:26:47.923Z</time></trkpt><trkpt lat="45.79213482383318" lon="10.831265898189834"><ele>75.0</ele><time>2026-04-06T15:26:48.923Z</time></trkpt><trkpt lat="45.79205780655822" lon="10.831111591207641"><ele>72.6</ele><time>2026-04-06T15:26:49.923Z</time></trkpt><trkpt lat="45.791986600058614" lon="10.830965180784933"><ele>70.2</ele><time>2026-04-06T15:26:50.923Z</time></trkpt><trkpt lat="45.791923698566684" lon="10.830830706911673"><ele>67.8</ele><time>2026-04-06T15:26:51.923Z</time></trkpt><trkpt lat="45.79187044780994" lon="10.830712029268188"><ele>65.4</ele><time>2026-04-06T15:26:52.923Z</time></trkpt><trkpt lat="45.791808510702566" lon="10.830615604946248"><ele>63.0</ele><time>2026-04-06T15:26:53.923Z</time></trkpt><trkpt lat="45.79175697032968" lon="10.83049112849021"><ele>66.33333333333333</ele><time>2026-04-06T15:26:54.923Z</time></trkpt><trkpt lat="45.791700828170555" lon="10.83031984081204"><ele>69.66666666666666</ele><time>2026-04-06T15:26:55.923Z</time></trkpt><trkpt lat="45.79161506753744" lon="10.830119922550248"><ele>73.0</ele><time>2026-04-06T15:26:56.923Z</time></trkpt><trkpt lat="45.79153095070247" lon="10.82992333160661"><ele>73.0</ele><time>2026-04-06T15:26:57.923Z</time></trkpt><trkpt lat="45.79145910152404" lon="10.829755411183458"><ele>73.0</ele><time>2026-04-06T15:26:58.923Z</time></trkpt><trkpt lat="45.791390485589126" lon="10.829595046603565"><ele>73.0</ele><time>2026-04-06T15:26:59.923Z</time></trkpt><trkpt lat="45.79129811117624" lon="10.829445762622754"><ele>73.0</ele><time>2026-04-06T15:27:00.923Z</time></trkpt><trkpt lat="45.79121847356625" lon="10.829284229759189"><ele>71.5</ele><time>2026-04-06T15:27:01.923Z</time></trkpt><trkpt lat="45.79116235149957" lon="10.829122154757936"><ele>70.0</ele><time>2026-04-06T15:27:02.923Z</time></trkpt><trkpt lat="45.7910962252286" lon="10.82896982582237"><ele>68.5</ele><time>2026-04-06T15:27:03.923Z</time></trkpt><trkpt lat="45.791052942775146" lon="10.82878205112382"><ele>67.0</ele><time>2026-04-06T15:27:04.923Z</time></trkpt><trkpt lat="45.790996351537075" lon="10.828608480985721"><ele>69.0</ele><time>2026-04-06T15:27:05.923Z</time></trkpt><trkpt lat="45.79094707373019" lon="10.828427670240844"><ele>71.0</ele><time>2026-04-06T15:27:06.923Z</time></trkpt><trkpt lat="45.790908793548674" lon="10.82826157794885"><ele>73.0</ele><time>2026-04-06T15:27:07.923Z</time></trkpt><trkpt lat="45.79086994760841" lon="10.828085121972185"><ele>75.0</ele><time>2026-04-06T15:27:08.923Z</time></trkpt><trkpt lat="45.790831283441925" lon="10.827909491612095"><ele>75.0</ele><time>2026-04-06T15:27:09.923Z</time></trkpt><trkpt lat="45.790789746241984" lon="10.82774001252311"><ele>75.0</ele><time>2026-04-06T15:27:10.923Z</time></trkpt><trkpt lat="45.790740949905405" lon="10.827578151531636"><ele>75.0</ele><time>2026-04-06T15:27:11.923Z</time></trkpt><trkpt lat="45.790693594465715" lon="10.82743765586654"><ele>75.0</ele><time>2026-04-06T15:27:12.923Z</time></trkpt><trkpt lat="45.790640446671674" lon="10.827294169453962"><ele>72.75</ele><time>2026-04-06T15:27:13.923Z</time></trkpt><trkpt lat="45.79058505467008" lon="10.827151278177183"><ele>70.5</ele><time>2026-04-06T15:27:14.923Z</time></trkpt><trkpt lat="45.79052192058135" lon="10.826988372559583"><ele>68.25</ele><time>2026-04-06T15:27:15.923Z</time></trkpt><trkpt lat="45.79043912126616" lon="10.826781703269777"><ele>66.0</ele><time>2026-04-06T15:27:16.923Z</time></trkpt><trkpt lat="45.79033625857011" lon="10.826560726001057"><ele>65.66666666666667</ele><time>2026-04-06T15:27:17.923Z</time></trkpt><trkpt lat="45.79020708024003" lon="10.826317374952515"><ele>65.33333333333334</ele><time>2026-04-06T15:27:18.923Z</time></trkpt><trkpt lat="45.7900671731829" lon="10.826066856453995"><ele>65.0</ele><time>2026-04-06T15:27:19.923Z</time></trkpt><trkpt lat="45.789944799612094" lon="10.825847733200773"><ele>65.0</ele><time>2026-04-06T15:27:20.923Z</time></trkpt><trkpt lat="45.78984034532144" lon="10.825660920259253"><ele>65.0</ele><time>2026-04-06T15:27:21.923Z</time></trkpt><trkpt lat="45.789745369116865" lon="10.825491315924223"><ele>65.0</ele><time>2026-04-06T15:27:22.923Z</time></trkpt><trkpt lat="45.78965171321276" lon="10.825324069251161"><ele>65.0</ele><time>2026-04-06T15:27:23.923Z</time></trkpt><trkpt lat="45.789558395774804" lon="10.825157427099413"><ele>65.0</ele><time>2026-04-06T15:27:24.923Z</time></trkpt><trkpt lat="45.78945813363912" lon="10.824978382976616"><ele>65.0</ele><time>2026-04-06T15:27:25.923Z</time></trkpt><trkpt lat="45.789354641079" lon="10.824792167997176"><ele>65.0</ele><time>2026-04-06T15:27:26.923Z</time></trkpt><trkpt lat="45.78924063803972" lon="10.824585628387515"><ele>65.0</ele><time>2026-04-06T15:27:27.923Z</time></trkpt><trkpt lat="45.78912002313596" lon="10.8243658727517"><ele>65.0</ele><time>2026-04-06T15:27:28.923Z</time></trkpt><trkpt lat="45.78899755162828" lon="10.82416670842789"><ele>65.0</ele><time>2026-04-06T15:27:29.923Z</time></trkpt><trkpt lat="45.788904312186176" lon="10.823957752963434"><ele>65.0</ele><time>2026-04-06T15:27:30.923Z</time></trkpt><trkpt lat="45.78879808444763" lon="10.823752775549503"><ele>65.0</ele><time>2026-04-06T15:27:31.923Z</time></trkpt><trkpt lat="45.78869998714076" lon="10.823558535669198"><ele>64.66666666666667</ele><time>2026-04-06T15:27:32.923Z</time></trkpt><trkpt lat="45.78859281434358" lon="10.823387566005698"><ele>64.33333333333333</ele><time>2026-04-06T15:27:33.923Z</time></trkpt><trkpt lat="45.78850294962589" lon="10.82321028676336"><ele>64.0</ele><time>2026-04-06T15:27:34.923Z</time></trkpt><trkpt lat="45.78840930711309" lon="10.82303791926877"><ele>65.66666666666666</ele><time>2026-04-06T15:27:35.923Z</time></trkpt><trkpt lat="45.788315346988185" lon="10.82288570670652"><ele>67.33333333333333</ele><time>2026-04-06T15:27:36.923Z</time></trkpt><trkpt lat="45.7882029563456" lon="10.822733317315926"><ele>69.0</ele><time>2026-04-06T15:27:37.923Z</time></trkpt><trkpt lat="45.78807645276231" lon="10.822587215738645"><ele>69.0</ele><time>2026-04-06T15:27:38.923Z</time></trkpt><trkpt lat="45.78793505567298" lon="10.822454332472965"><ele>69.0</ele><time>2026-04-06T15:27:39.923Z</time></trkpt><trkpt lat="45.787792440325426" lon="10.822327400232442"><ele>69.0</ele><time>2026-04-06T15:27:40.923Z</time></trkpt><trkpt lat="45.78766025512757" lon="10.82221582891607"><ele>69.25</ele><time>2026-04-06T15:27:41.923Z</time></trkpt><trkpt lat="45.7875367174693" lon="10.82211247182491"><ele>69.5</ele><time>2026-04-06T15:27:42.923Z</time></trkpt><trkpt lat="45.787411821676386" lon="10.822004697214979"><ele>69.75</ele><time>2026-04-06T15:27:43.923Z</time></trkpt><trkpt lat="45.78728397382325" lon="10.82188894035792"><ele>70.0</ele><time>2026-04-06T15:27:44.923Z</time></trkpt><trkpt lat="45.78714238457073" lon="10.821770107705989"><ele>69.33333333333333</ele><time>2026-04-06T15:27:45.923Z</time></trkpt><trkpt lat="45.786990969056376" lon="10.821644819396262"><ele>68.66666666666667</ele><time>2026-04-06T15:27:46.923Z</time></trkpt><trkpt lat="45.78683785004427" lon="10.821514193869698"><ele>68.0</ele><time>2026-04-06T15:27:47.923Z</time></trkpt><trkpt lat="45.7866758281793" lon="10.821371369224561"><ele>68.0</ele><time>2026-04-06T15:27:48.923Z</time></trkpt><trkpt lat="45.786499283888546" lon="10.82121571458917"><ele>68.0</ele><time>2026-04-06T15:27:49.923Z</time></trkpt><trkpt lat="45.78631324827161" lon="10.8210485761154"><ele>68.0</ele><time>2026-04-06T15:27:50.923Z</time></trkpt><trkpt lat="45.7861192163619" lon="10.820842984715156"><ele>73.0</ele><time>2026-04-06T15:27:51.923Z</time></trkpt><trkpt lat="45.785918185882245" lon="10.820613847194037"><ele>78.0</ele><time>2026-04-06T15:27:52.923Z</time></trkpt><trkpt lat="45.785716607975374" lon="10.820368197848081"><ele>72.5</ele><time>2026-04-06T15:27:53.923Z</time></trkpt><trkpt lat="45.785559760773204" lon="10.820123850056321"><ele>67.0</ele><time>2026-04-06T15:27:54.923Z</time></trkpt><trkpt lat="45.78539270839228" lon="10.819918861654397"><ele>67.0</ele><time>2026-04-06T15:27:55.923Z</time></trkpt><trkpt lat="45.785230056760746" lon="10.819745357717569"><ele>67.0</ele><time>2026-04-06T15:27:56.923Z</time></trkpt><trkpt lat="45.785094449810515" lon="10.819575023889874"><ele>67.0</ele><time>2026-04-06T15:27:57.923Z</time></trkpt><trkpt lat="45.78497393304604" lon="10.819424233775774"><ele>67.0</ele><time>2026-04-06T15:27:58.923Z</time></trkpt><trkpt lat="45.78485058813954" lon="10.819299024074777"><ele>67.0</ele><time>2026-04-06T15:27:59.923Z</time></trkpt><trkpt lat="45.78472139114773" lon="10.819186180282145"><ele>67.0</ele><time>2026-04-06T15:28:00.923Z</time></trkpt><trkpt lat="45.78458468254068" lon="10.819096219706692"><ele>67.0</ele><time>2026-04-06T15:28:01.923Z</time></trkpt><trkpt lat="45.784436521395676" lon="10.81902039842178"><ele>67.0</ele><time>2026-04-06T15:28:02.923Z</time></trkpt><trkpt lat="45.78428282764268" lon="10.81894755319792"><ele>67.0</ele><time>2026-04-06T15:28:03.923Z</time></trkpt><trkpt lat="45.784121653125275" lon="10.818879102868605"><ele>70.0</ele><time>2026-04-06T15:28:04.923Z</time></trkpt><trkpt lat="45.78396197513769" lon="10.818811407022993"><ele>73.0</ele><time>2026-04-06T15:28:05.923Z</time></trkpt><trkpt lat="45.78379879860977" lon="10.818752152734588"><ele>76.0</ele><time>2026-04-06T15:28:06.923Z</time></trkpt><trkpt lat="45.783639629494004" lon="10.81870011426932"><ele>78.33333333333333</ele><time>2026-04-06T15:28:07.923Z</time></trkpt><trkpt lat="45.78346298140175" lon="10.818652141064273"><ele>80.66666666666667</ele><time>2026-04-06T15:28:08.923Z</time></trkpt><trkpt lat="45.78328974452638" lon="10.818606917081201"><ele>83.0</ele><time>2026-04-06T15:28:09.923Z</time></trkpt><trkpt lat="45.783123591121694" lon="10.818542891378572"><ele>80.0</ele><time>2026-04-06T15:28:10.923Z</time></trkpt><trkpt lat="45.78295802921727" lon="10.81846348220766"><ele>77.0</ele><time>2026-04-06T15:28:11.923Z</time></trkpt><trkpt lat="45.782790085992815" lon="10.818375360947321"><ele>74.0</ele><time>2026-04-06T15:28:12.923Z</time></trkpt><trkpt lat="45.78261728658699" lon="10.818294061786546"><ele>74.0</ele><time>2026-04-06T15:28:13.923Z</time></trkpt><trkpt lat="45.78243844072107" lon="10.818213832821321"><ele>74.0</ele><time>2026-04-06T15:28:14.923Z</time></trkpt><trkpt lat="45.782264140161836" lon="10.818131435473104"><ele>74.0</ele><time>2026-04-06T15:28:15.923Z</time></trkpt><trkpt lat="45.78208792820916" lon="10.81804546370368"><ele>74.0</ele><time>2026-04-06T15:28:16.923Z</time></trkpt><trkpt lat="45.781912685797344" lon="10.817959647191348"><ele>74.0</ele><time>2026-04-06T15:28:17.923Z</time></trkpt><trkpt lat="45.78172704678327" lon="10.817879154026349"><ele>74.0</ele><time>2026-04-06T15:28:18.923Z</time></trkpt><trkpt lat="45.781553167528735" lon="10.817793283059231"><ele>74.0</ele><time>2026-04-06T15:28:19.923Z</time></trkpt><trkpt lat="45.78137164661287" lon="10.81771193406747"><ele>74.0</ele><time>2026-04-06T15:28:20.923Z</time></trkpt><trkpt lat="45.781195237193245" lon="10.817631120450399"><ele>74.0</ele><time>2026-04-06T15:28:21.923Z</time></trkpt><trkpt lat="45.78101293186151" lon="10.817549002964057"><ele>74.0</ele><time>2026-04-06T15:28:22.923Z</time></trkpt><trkpt lat="45.780828287077306" lon="10.817457468875967"><ele>74.0</ele><time>2026-04-06T15:28:23.923Z</time></trkpt><trkpt lat="45.78064582699522" lon="10.817370276618222"><ele>74.0</ele><time>2026-04-06T15:28:24.923Z</time></trkpt><trkpt lat="45.78046145226565" lon="10.81728411391028"><ele>74.0</ele><time>2026-04-06T15:28:25.923Z</time></trkpt><trkpt lat="45.78027083939432" lon="10.817202890439063"><ele>74.0</ele><time>2026-04-06T15:28:26.923Z</time></trkpt><trkpt lat="45.78007728366531" lon="10.817112592724744"><ele>74.0</ele><time>2026-04-06T15:28:27.923Z</time></trkpt><trkpt lat="45.779903481802364" lon="10.81703150724413"><ele>71.0</ele><time>2026-04-06T15:28:28.923Z</time></trkpt><trkpt lat="45.77973569012826" lon="10.816952849004496"><ele>68.0</ele><time>2026-04-06T15:28:29.923Z</time></trkpt><trkpt lat="45.77956503065702" lon="10.816874377223519"><ele>65.0</ele><time>2026-04-06T15:28:30.923Z</time></trkpt><trkpt lat="45.77940215018943" lon="10.816796602872135"><ele>67.66666666666667</ele><time>2026-04-06T15:28:31.923Z</time></trkpt><trkpt lat="45.779227696312645" lon="10.81671368183146"><ele>70.33333333333333</ele><time>2026-04-06T15:28:32.923Z</time></trkpt><trkpt lat="45.77906159793289" lon="10.81663642315648"><ele>73.0</ele><time>2026-04-06T15:28:33.923Z</time></trkpt><trkpt lat="45.77888661523614" lon="10.816566172482942"><ele>73.0</ele><time>2026-04-06T15:28:34.923Z</time></trkpt><trkpt lat="45.778710424426734" lon="10.816482064751254"><ele>73.0</ele><time>2026-04-06T15:28:35.923Z</time></trkpt><trkpt lat="45.77852947231051" lon="10.8163903538434"><ele>73.0</ele><time>2026-04-06T15:28:36.923Z</time></trkpt><trkpt lat="45.77835599832177" lon="10.816273473337763"><ele>75.0</ele><time>2026-04-06T15:28:37.923Z</time></trkpt><trkpt lat="45.77817274582592" lon="10.816192994155902"><ele>77.0</ele><time>2026-04-06T15:28:38.923Z</time></trkpt><trkpt lat="45.77798225637631" lon="10.816073963574853"><ele>79.0</ele><time>2026-04-06T15:28:39.923Z</time></trkpt><trkpt lat="45.77777287907978" lon="10.815944717586447"><ele>77.0</ele><time>2026-04-06T15:28:40.923Z</time></trkpt><trkpt lat="45.7775526043246" lon="10.815811444095171"><ele>75.0</ele><time>2026-04-06T15:28:41.923Z</time></trkpt><trkpt lat="45.7773418622019" lon="10.815685306718905"><ele>75.0</ele><time>2026-04-06T15:28:42.923Z</time></trkpt><trkpt lat="45.777148515411845" lon="10.815573202583012"><ele>75.0</ele><time>2026-04-06T15:28:43.923Z</time></trkpt><trkpt lat="45.77696476371555" lon="10.815472575944721"><ele>75.0</ele><time>2026-04-06T15:28:44.923Z</time></trkpt><trkpt lat="45.77678347381" lon="10.815381131103026"><ele>72.0</ele><time>2026-04-06T15:28:45.923Z</time></trkpt><trkpt lat="45.77660242765578" lon="10.81530755807621"><ele>69.0</ele><time>2026-04-06T15:28:46.923Z</time></trkpt><trkpt lat="45.776444612545845" lon="10.815218183472433"><ele>66.0</ele><time>2026-04-06T15:28:47.923Z</time></trkpt><trkpt lat="45.776250400299965" lon="10.815150455328395"><ele>66.0</ele><time>2026-04-06T15:28:48.923Z</time></trkpt><trkpt lat="45.77606461722462" lon="10.815045420066536"><ele>66.0</ele><time>2026-04-06T15:28:49.923Z</time></trkpt><trkpt lat="45.775888257362325" lon="10.81498103513075"><ele>66.0</ele><time>2026-04-06T15:28:50.923Z</time></trkpt><trkpt lat="45.7757129390258" lon="10.814879438439446"><ele>68.33333333333333</ele><time>2026-04-06T15:28:51.923Z</time></trkpt><trkpt lat="45.77554344883684" lon="10.814764780048336"><ele>70.66666666666666</ele><time>2026-04-06T15:28:52.923Z</time></trkpt><trkpt lat="45.77538015052441" lon="10.814639881456678"><ele>73.0</ele><time>2026-04-06T15:28:53.923Z</time></trkpt><trkpt lat="45.77521635687695" lon="10.814517876674204"><ele>72.66666666666666</ele><time>2026-04-06T15:28:54.923Z</time></trkpt><trkpt lat="45.77505196155513" lon="10.814392909575337"><ele>72.33333333333333</ele><time>2026-04-06T15:28:55.923Z</time></trkpt><trkpt lat="45.77489717246512" lon="10.814270284858557"><ele>72.0</ele><time>2026-04-06T15:28:56.923Z</time></trkpt><trkpt lat="45.774744167867134" lon="10.81416033275747"><ele>72.0</ele><time>2026-04-06T15:28:57.923Z</time></trkpt><trkpt lat="45.77459047074569" lon="10.814049308971102"><ele>72.0</ele><time>2026-04-06T15:28:58.923Z</time></trkpt><trkpt lat="45.774438642332434" lon="10.813939670572797"><ele>72.0</ele><time>2026-04-06T15:28:59.923Z</time></trkpt><trkpt lat="45.774286744244144" lon="10.813841367719293"><ele>75.33333333333333</ele><time>2026-04-06T15:29:00.923Z</time></trkpt><trkpt lat="45.774128993536245" lon="10.813755508877337"><ele>78.66666666666666</ele><time>2026-04-06T15:29:01.923Z</time></trkpt><trkpt lat="45.77397597953497" lon="10.813678625699938"><ele>82.0</ele><time>2026-04-06T15:29:02.923Z</time></trkpt><trkpt lat="45.77382107773543" lon="10.813603134573755"><ele>82.0</ele><time>2026-04-06T15:29:03.923Z</time></trkpt><trkpt lat="45.77367277984997" lon="10.813519211408105"><ele>82.0</ele><time>2026-04-06T15:29:04.923Z</time></trkpt><trkpt lat="45.77351086626233" lon="10.813447396138546"><ele>82.0</ele><time>2026-04-06T15:29:05.923Z</time></trkpt><trkpt lat="45.77333515951743" lon="10.813346402521725"><ele>80.33333333333333</ele><time>2026-04-06T15:29:06.923Z</time></trkpt><trkpt lat="45.77314288871342" lon="10.813252365656403"><ele>78.66666666666667</ele><time>2026-04-06T15:29:07.923Z</time></trkpt><trkpt lat="45.77293235429162" lon="10.81314939627395"><ele>77.0</ele><time>2026-04-06T15:29:08.923Z</time></trkpt><trkpt lat="45.77270991461717" lon="10.81304060428928"><ele>77.0</ele><time>2026-04-06T15:29:09.923Z</time></trkpt><trkpt lat="45.77278529760925" lon="10.813077473169601"><ele>77.0</ele><time>2026-04-06T15:29:10.923Z</time></trkpt><trkpt lat="45.77266048879747" lon="10.813016430911489"><ele>77.0</ele><time>2026-04-06T15:29:11.923Z</time></trkpt><trkpt lat="45.772546618984975" lon="10.81296073888968"><ele>77.0</ele><time>2026-04-06T15:29:12.923Z</time></trkpt><trkpt lat="45.77243137808152" lon="10.812904376144367"><ele>78.0</ele><time>2026-04-06T15:29:13.923Z</time></trkpt><trkpt lat="45.77232505820831" lon="10.812852376679004"><ele>79.0</ele><time>2026-04-06T15:29:14.923Z</time></trkpt><trkpt lat="45.77219566458705" lon="10.81278909219107"><ele>80.0</ele><time>2026-04-06T15:29:15.923Z</time></trkpt><trkpt lat="45.77205529041965" lon="10.812720437159003"><ele>81.0</ele><time>2026-04-06T15:29:16.923Z</time></trkpt><trkpt lat="45.77189490759116" lon="10.812642017696596"><ele>80.0</ele><time>2026-04-06T15:29:17.923Z</time></trkpt><trkpt lat="45.77171932257971" lon="10.812556287664332"><ele>79.0</ele><time>2026-04-06T15:29:18.923Z</time></trkpt><trkpt lat="45.77154482238335" lon="10.812471087269465"><ele>78.0</ele><time>2026-04-06T15:29:19.923Z</time></trkpt><trkpt lat="45.771376123431466" lon="10.81238935658158"><ele>78.0</ele><time>2026-04-06T15:29:20.923Z</time></trkpt><trkpt lat="45.77122841019314" lon="10.812318050438803"><ele>78.0</ele><time>2026-04-06T15:29:21.923Z</time></trkpt><trkpt lat="45.77109085226966" lon="10.812253120306856"><ele>78.0</ele><time>2026-04-06T15:29:22.923Z</time></trkpt><trkpt lat="45.77096418240523" lon="10.812193459797635"><ele>78.0</ele><time>2026-04-06T15:29:23.923Z</time></trkpt><trkpt lat="45.77084318516668" lon="10.812161902289192"><ele>81.25</ele><time>2026-04-06T15:29:24.923Z</time></trkpt><trkpt lat="45.77072900133567" lon="10.812113017029064"><ele>84.5</ele><time>2026-04-06T15:29:25.923Z</time></trkpt><trkpt lat="45.77061039519366" lon="10.812066016653192"><ele>87.75</ele><time>2026-04-06T15:29:26.923Z</time></trkpt><trkpt lat="45.770486342403906" lon="10.812024399046404"><ele>91.0</ele><time>2026-04-06T15:29:27.923Z</time></trkpt><trkpt lat="45.770354991930084" lon="10.811975307121628"><ele>91.0</ele><time>2026-04-06T15:29:28.923Z</time></trkpt><trkpt lat="45.770230989301496" lon="10.811955169757471"><ele>91.0</ele><time>2026-04-06T15:29:29.923Z</time></trkpt><trkpt lat="45.770121090997804" lon="10.811948422698961"><ele>91.0</ele><time>2026-04-06T15:29:30.923Z</time></trkpt><trkpt lat="45.770006697437225" lon="10.811954226897678"><ele>91.0</ele><time>2026-04-06T15:29:31.923Z</time></trkpt><trkpt lat="45.76989248031141" lon="10.811985764719442"><ele>90.75</ele><time>2026-04-06T15:29:32.923Z</time></trkpt><trkpt lat="45.76977589078499" lon="10.812011501664365"><ele>90.5</ele><time>2026-04-06T15:29:33.923Z</time></trkpt><trkpt lat="45.76964424865273" lon="10.812019150894"><ele>90.25</ele><time>2026-04-06T15:29:34.923Z</time></trkpt><trkpt lat="45.769480788207325" lon="10.812048744024464"><ele>90.0</ele><time>2026-04-06T15:29:35.923Z</time></trkpt><trkpt lat="45.76933093625473" lon="10.812060512142645"><ele>89.2</ele><time>2026-04-06T15:29:36.923Z</time></trkpt><trkpt lat="45.769240512597186" lon="10.812058281271739"><ele>88.4</ele><time>2026-04-06T15:29:37.923Z</time></trkpt><trkpt lat="45.76910358118833" lon="10.812038754177555"><ele>87.6</ele><time>2026-04-06T15:29:39.923Z</time></trkpt><trkpt lat="45.76899454361038" lon="10.812012433839282"><ele>86.8</ele><time>2026-04-06T15:29:40.923Z</time></trkpt><trkpt lat="45.768886404396824" lon="10.811980445261378"><ele>86.0</ele><time>2026-04-06T15:29:41.923Z</time></trkpt><trkpt lat="45.768774919575925" lon="10.811946064592135"><ele>86.0</ele><time>2026-04-06T15:29:42.923Z</time></trkpt><trkpt lat="45.768658739635654" lon="10.811910117686915"><ele>86.0</ele><time>2026-04-06T15:29:43.923Z</time></trkpt><trkpt lat="45.768520893096934" lon="10.811867252786563"><ele>86.0</ele><time>2026-04-06T15:29:44.923Z</time></trkpt><trkpt lat="45.76837593068756" lon="10.8118220757268"><ele>86.0</ele><time>2026-04-06T15:29:45.923Z</time></trkpt><trkpt lat="45.76824166334477" lon="10.811780301213108"><ele>84.75</ele><time>2026-04-06T15:29:46.923Z</time></trkpt><trkpt lat="45.76810929500459" lon="10.811739349936309"><ele>83.5</ele><time>2026-04-06T15:29:47.923Z</time></trkpt><trkpt lat="45.767967426184974" lon="10.811695459448352"><ele>82.25</ele><time>2026-04-06T15:29:48.923Z</time></trkpt><trkpt lat="45.767814579721666" lon="10.811669475019771"><ele>81.0</ele><time>2026-04-06T15:29:49.923Z</time></trkpt><trkpt lat="45.767670236178695" lon="10.811603516659513"><ele>81.0</ele><time>2026-04-06T15:29:50.923Z</time></trkpt><trkpt lat="45.76753439924202" lon="10.811585154600438"><ele>81.0</ele><time>2026-04-06T15:29:51.923Z</time></trkpt><trkpt lat="45.76741280278966" lon="10.811546362098587"><ele>81.0</ele><time>2026-04-06T15:29:52.923Z</time></trkpt><trkpt lat="45.7672981964771" lon="10.81148867871182"><ele>81.0</ele><time>2026-04-06T15:29:53.923Z</time></trkpt><trkpt lat="45.76717782096058" lon="10.811451575500062"><ele>81.0</ele><time>2026-04-06T15:29:54.923Z</time></trkpt><trkpt lat="45.76705555512771" lon="10.81141388963398"><ele>81.0</ele><time>2026-04-06T15:29:55.923Z</time></trkpt><trkpt lat="45.766932510993186" lon="10.811392931082134"><ele>81.0</ele><time>2026-04-06T15:29:56.923Z</time></trkpt><trkpt lat="45.76681024315413" lon="10.811356286324544"><ele>81.0</ele><time>2026-04-06T15:29:57.923Z</time></trkpt><trkpt lat="45.76669595611749" lon="10.811324467349028"><ele>81.33333333333333</ele><time>2026-04-06T15:29:58.923Z</time></trkpt><trkpt lat="45.76659994545396" lon="10.811293624038608"><ele>81.66666666666667</ele><time>2026-04-06T15:29:59.923Z</time></trkpt><trkpt lat="45.766512547014216" lon="10.811260953780367"><ele>82.0</ele><time>2026-04-06T15:30:00.923Z</time></trkpt><trkpt lat="45.766429754073975" lon="10.811234322156027"><ele>82.33333333333334</ele><time>2026-04-06T15:30:01.923Z</time></trkpt><trkpt lat="45.76634763834186" lon="10.811211659222202"><ele>82.66666666666667</ele><time>2026-04-06T15:30:02.923Z</time></trkpt><trkpt lat="45.76627506678717" lon="10.811190016743959"><ele>83.0</ele><time>2026-04-06T15:30:03.923Z</time></trkpt><trkpt lat="45.76620918998988" lon="10.811174750397443"><ele>83.0</ele><time>2026-04-06T15:30:04.923Z</time></trkpt><trkpt lat="45.766143567324676" lon="10.811151221879445"><ele>83.0</ele><time>2026-04-06T15:30:05.923Z</time></trkpt><trkpt lat="45.76608241754472" lon="10.811124549494311"><ele>83.0</ele><time>2026-04-06T15:30:06.923Z</time></trkpt><trkpt lat="45.76597563170843" lon="10.811091329211846"><ele>83.0</ele><time>2026-04-06T15:30:08.923Z</time></trkpt><trkpt lat="45.76589144665027" lon="10.811046875603063"><ele>83.0</ele><time>2026-04-06T15:30:10.923Z</time></trkpt><trkpt lat="45.76582879034976" lon="10.811019979582523"><ele>83.0</ele><time>2026-04-06T15:30:12.923Z</time></trkpt><trkpt lat="45.7657588223372" lon="10.810977297347522"><ele>83.0</ele><time>2026-04-06T15:30:14.923Z</time></trkpt><trkpt lat="45.76567175857435" lon="10.810940158911501"><ele>83.0</ele><time>2026-04-06T15:30:16.923Z</time></trkpt><trkpt lat="45.76555079138984" lon="10.810895447992317"><ele>83.0</ele><time>2026-04-06T15:30:18.923Z</time></trkpt><trkpt lat="45.76545442171417" lon="10.81084734119301"><ele>83.0</ele><time>2026-04-06T15:30:20.923Z</time></trkpt><trkpt lat="45.7653296019675" lon="10.81078802267455"><ele>83.0</ele><time>2026-04-06T15:30:22.923Z</time></trkpt><trkpt lat="45.765255779510255" lon="10.810760377912887"><ele>83.83333333333334</ele><time>2026-04-06T15:30:23.923Z</time></trkpt><trkpt lat="45.76518215021578" lon="10.810720541332703"><ele>84.66666666666667</ele><time>2026-04-06T15:30:24.923Z</time></trkpt><trkpt lat="45.765109939944956" lon="10.810674494988659"><ele>85.5</ele><time>2026-04-06T15:30:25.923Z</time></trkpt><trkpt lat="45.765031768153364" lon="10.81062854682192"><ele>86.33333333333333</ele><time>2026-04-06T15:30:26.923Z</time></trkpt><trkpt lat="45.76494878369061" lon="10.81058581436667"><ele>87.16666666666666</ele><time>2026-04-06T15:30:27.923Z</time></trkpt><trkpt lat="45.764867737719385" lon="10.810531383099551"><ele>88.0</ele><time>2026-04-06T15:30:28.923Z</time></trkpt><trkpt lat="45.764811959850064" lon="10.810487132596165"><ele>88.0</ele><time>2026-04-06T15:30:29.923Z</time></trkpt><trkpt lat="45.764706041989534" lon="10.810408375201348"><ele>88.0</ele><time>2026-04-06T15:30:31.923Z</time></trkpt><trkpt lat="45.76463958176525" lon="10.81036430618159"><ele>88.0</ele><time>2026-04-06T15:30:32.923Z</time></trkpt><trkpt lat="45.76452117420832" lon="10.810297540286708"><ele>88.0</ele><time>2026-04-06T15:30:34.923Z</time></trkpt><trkpt lat="45.764429169185554" lon="10.810223487426628"><ele>88.0</ele><time>2026-04-06T15:30:36.923Z</time></trkpt><trkpt lat="45.76436514938231" lon="10.810173269746395"><ele>87.83333333333333</ele><time>2026-04-06T15:30:38.923Z</time></trkpt><trkpt lat="45.76428619239318" lon="10.810067139675413"><ele>87.66666666666666</ele><time>2026-04-06T15:30:40.923Z</time></trkpt><trkpt lat="45.76423795771723" lon="10.809996524905989"><ele>87.5</ele><time>2026-04-06T15:30:41.923Z</time></trkpt><trkpt lat="45.76416598265458" lon="10.809884973455247"><ele>87.33333333333333</ele><time>2026-04-06T15:30:43.923Z</time></trkpt><trkpt lat="45.76410338921031" lon="10.809862372207046"><ele>87.16666666666667</ele><time>2026-04-06T15:30:44.923Z</time></trkpt><trkpt lat="45.764028016603866" lon="10.80986929445798"><ele>87.0</ele><time>2026-04-06T15:30:45.923Z</time></trkpt><trkpt lat="45.763960965731734" lon="10.809890943489284"><ele>87.0</ele><time>2026-04-06T15:30:46.923Z</time></trkpt><trkpt lat="45.76389055993542" lon="10.809879838615005"><ele>87.0</ele><time>2026-04-06T15:30:47.923Z</time></trkpt><trkpt lat="45.76381720627781" lon="10.809845716541068"><ele>87.0</ele><time>2026-04-06T15:30:48.923Z</time></trkpt><trkpt lat="45.76373948205551" lon="10.809794951846888"><ele>87.0</ele><time>2026-04-06T15:30:49.923Z</time></trkpt><trkpt lat="45.763661685630304" lon="10.80974828134351"><ele>87.0</ele><time>2026-04-06T15:30:50.923Z</time></trkpt><trkpt lat="45.763597104622654" lon="10.809703182532404"><ele>87.0</ele><time>2026-04-06T15:30:51.923Z</time></trkpt><trkpt lat="45.763539513802" lon="10.809660752454853"><ele>87.8</ele><time>2026-04-06T15:30:52.923Z</time></trkpt><trkpt lat="45.76347023368399" lon="10.809628283231232"><ele>88.6</ele><time>2026-04-06T15:30:53.923Z</time></trkpt><trkpt lat="45.76338965751145" lon="10.809585888942614"><ele>89.39999999999999</ele><time>2026-04-06T15:30:54.923Z</time></trkpt><trkpt lat="45.76330643540537" lon="10.809526908622558"><ele>90.19999999999999</ele><time>2026-04-06T15:30:55.923Z</time></trkpt><trkpt lat="45.7632154114752" lon="10.809468938547031"><ele>91.0</ele><time>2026-04-06T15:30:56.923Z</time></trkpt><trkpt lat="45.76311853586537" lon="10.809420449325799"><ele>91.0</ele><time>2026-04-06T15:30:57.923Z</time></trkpt><trkpt lat="45.7630116260656" lon="10.809372862672213"><ele>91.0</ele><time>2026-04-06T15:30:58.923Z</time></trkpt><trkpt lat="45.762910790550606" lon="10.80931895563588"><ele>91.0</ele><time>2026-04-06T15:30:59.923Z</time></trkpt><trkpt lat="45.76281228115095" lon="10.809269246261646"><ele>91.0</ele><time>2026-04-06T15:31:00.923Z</time></trkpt><trkpt lat="45.762705387016865" lon="10.809244210551054"><ele>91.0</ele><time>2026-04-06T15:31:01.923Z</time></trkpt><trkpt lat="45.76259625671037" lon="10.809203473604697"><ele>91.6</ele><time>2026-04-06T15:31:02.923Z</time></trkpt><trkpt lat="45.76249636687398" lon="10.809169670540232"><ele>92.19999999999999</ele><time>2026-04-06T15:31:03.923Z</time></trkpt><trkpt lat="45.76239103508524" lon="10.809130588120263"><ele>92.80000000000001</ele><time>2026-04-06T15:31:04.923Z</time></trkpt><trkpt lat="45.762280596561396" lon="10.809086653913862"><ele>93.4</ele><time>2026-04-06T15:31:05.923Z</time></trkpt><trkpt lat="45.762161504344355" lon="10.809047092558167"><ele>94.0</ele><time>2026-04-06T15:31:06.923Z</time></trkpt><trkpt lat="45.76204385243397" lon="10.809002029377242"><ele>94.0</ele><time>2026-04-06T15:31:07.923Z</time></trkpt><trkpt lat="45.76193375748755" lon="10.80894271922557"><ele>94.0</ele><time>2026-04-06T15:31:08.923Z</time></trkpt><trkpt lat="45.761792985481236" lon="10.808914965097912"><ele>94.0</ele><time>2026-04-06T15:31:09.923Z</time></trkpt><trkpt lat="45.7616656235657" lon="10.808872905301321"><ele>94.0</ele><time>2026-04-06T15:31:10.923Z</time></trkpt><trkpt lat="45.76154002660571" lon="10.808831039921472"><ele>94.25</ele><time>2026-04-06T15:31:11.923Z</time></trkpt><trkpt lat="45.76141475120198" lon="10.80878636836964"><ele>94.5</ele><time>2026-04-06T15:31:12.923Z</time></trkpt><trkpt lat="45.761273496927856" lon="10.808752369180448"><ele>94.75</ele><time>2026-04-06T15:31:13.923Z</time></trkpt><trkpt lat="45.761122976893745" lon="10.808680079355552"><ele>95.0</ele><time>2026-04-06T15:31:14.923Z</time></trkpt><trkpt lat="45.76096493706103" lon="10.808608130479922"><ele>96.0</ele><time>2026-04-06T15:31:15.923Z</time></trkpt><trkpt lat="45.7608195883108" lon="10.808521458329297"><ele>97.0</ele><time>2026-04-06T15:31:16.923Z</time></trkpt><trkpt lat="45.76066203000645" lon="10.808462209575623"><ele>98.0</ele><time>2026-04-06T15:31:17.923Z</time></trkpt><trkpt lat="45.760481554301144" lon="10.808403209770209"><ele>94.0</ele><time>2026-04-06T15:31:18.923Z</time></trkpt><trkpt lat="45.760262848253824" lon="10.808351102675566"><ele>90.0</ele><time>2026-04-06T15:31:19.923Z</time></trkpt><trkpt lat="45.760034053712886" lon="10.808312338742802"><ele>88.66666666666667</ele><time>2026-04-06T15:31:20.923Z</time></trkpt><trkpt lat="45.7598248639872" lon="10.808279526220634"><ele>87.33333333333334</ele><time>2026-04-06T15:31:21.923Z</time></trkpt><trkpt lat="45.75964170585026" lon="10.808254288291272"><ele>86.0</ele><time>2026-04-06T15:31:22.923Z</time></trkpt><trkpt lat="45.7594632112265" lon="10.808231056409902"><ele>86.33333333333334</ele><time>2026-04-06T15:31:23.923Z</time></trkpt><trkpt lat="45.759292123408" lon="10.80820482493121"><ele>86.66666666666667</ele><time>2026-04-06T15:31:24.923Z</time></trkpt><trkpt lat="45.75913088123426" lon="10.808184433593752"><ele>87.0</ele><time>2026-04-06T15:31:25.923Z</time></trkpt><trkpt lat="45.75897710344645" lon="10.808162126037159"><ele>87.0</ele><time>2026-04-06T15:31:26.923Z</time></trkpt><trkpt lat="45.7588319866802" lon="10.808140820424882"><ele>87.0</ele><time>2026-04-06T15:31:27.923Z</time></trkpt><trkpt lat="45.75869342226672" lon="10.808121799009335"><ele>87.0</ele><time>2026-04-06T15:31:28.923Z</time></trkpt><trkpt lat="45.75854893475807" lon="10.808097031995882"><ele>87.0</ele><time>2026-04-06T15:31:29.923Z</time></trkpt><trkpt lat="45.758415053049326" lon="10.808062924620707"><ele>87.75</ele><time>2026-04-06T15:31:30.923Z</time></trkpt><trkpt lat="45.75827404823616" lon="10.808011229146274"><ele>88.5</ele><time>2026-04-06T15:31:31.923Z</time></trkpt><trkpt lat="45.75814047902404" lon="10.80795297125854"><ele>89.25</ele><time>2026-04-06T15:31:32.923Z</time></trkpt><trkpt lat="45.75803080672488" lon="10.807898485230709"><ele>90.0</ele><time>2026-04-06T15:31:33.923Z</time></trkpt><trkpt lat="45.757922390218944" lon="10.807832232981248"><ele>90.0</ele><time>2026-04-06T15:31:34.923Z</time></trkpt><trkpt lat="45.757830192901196" lon="10.807764999317243"><ele>90.0</ele><time>2026-04-06T15:31:35.923Z</time></trkpt><trkpt lat="45.75773792426674" lon="10.80769561149494"><ele>90.0</ele><time>2026-04-06T15:31:36.923Z</time></trkpt><trkpt lat="45.7576388662881" lon="10.807625195597948"><ele>90.0</ele><time>2026-04-06T15:31:37.923Z</time></trkpt><trkpt lat="45.75754033608817" lon="10.807549765696212"><ele>90.0</ele><time>2026-04-06T15:31:38.923Z</time></trkpt><trkpt lat="45.75743905005809" lon="10.807457329810546"><ele>87.0</ele><time>2026-04-06T15:31:39.923Z</time></trkpt><trkpt lat="45.75732088249232" lon="10.807335211068581"><ele>84.0</ele><time>2026-04-06T15:31:40.923Z</time></trkpt><trkpt lat="45.75720153096806" lon="10.807143837002975"><ele>81.0</ele><time>2026-04-06T15:31:41.923Z</time></trkpt><trkpt lat="45.75708541717485" lon="10.806970453140051"><ele>81.25</ele><time>2026-04-06T15:31:42.923Z</time></trkpt><trkpt lat="45.756992117443104" lon="10.806811682026755"><ele>81.5</ele><time>2026-04-06T15:31:43.923Z</time></trkpt><trkpt lat="45.75690301118342" lon="10.806698592438279"><ele>81.75</ele><time>2026-04-06T15:31:44.923Z</time></trkpt><trkpt lat="45.75681933413551" lon="10.806573276436579"><ele>82.0</ele><time>2026-04-06T15:31:45.923Z</time></trkpt><trkpt lat="45.75672821591822" lon="10.806442869659131"><ele>82.0</ele><time>2026-04-06T15:31:46.923Z</time></trkpt><trkpt lat="45.7566518159027" lon="10.806305166139374"><ele>82.0</ele><time>2026-04-06T15:31:47.923Z</time></trkpt><trkpt lat="45.756572375933516" lon="10.806203927470671"><ele>82.0</ele><time>2026-04-06T15:31:48.923Z</time></trkpt><trkpt lat="45.75648042740151" lon="10.80610205561754"><ele>82.0</ele><time>2026-04-06T15:31:49.923Z</time></trkpt><trkpt lat="45.75637023940895" lon="10.805984071066478"><ele>83.33333333333333</ele><time>2026-04-06T15:31:50.923Z</time></trkpt><trkpt lat="45.75623486322443" lon="10.805840032327666"><ele>84.66666666666667</ele><time>2026-04-06T15:31:51.923Z</time></trkpt><trkpt lat="45.75606103775225" lon="10.805684772805977"><ele>86.0</ele><time>2026-04-06T15:31:52.923Z</time></trkpt><trkpt lat="45.75587761391261" lon="10.805479837487347"><ele>86.0</ele><time>2026-04-06T15:31:53.923Z</time></trkpt><trkpt lat="45.75570821179268" lon="10.805300355694964"><ele>86.0</ele><time>2026-04-06T15:31:54.923Z</time></trkpt><trkpt lat="45.75556744808576" lon="10.805144732790941"><ele>86.0</ele><time>2026-04-06T15:31:55.923Z</time></trkpt><trkpt lat="45.75543101409951" lon="10.804984755089064"><ele>86.0</ele><time>2026-04-06T15:31:56.923Z</time></trkpt><trkpt lat="45.75527118372562" lon="10.804836858794035"><ele>86.0</ele><time>2026-04-06T15:31:57.923Z</time></trkpt><trkpt lat="45.75510666802157" lon="10.804682319480202"><ele>86.0</ele><time>2026-04-06T15:31:58.923Z</time></trkpt><trkpt lat="45.75493627385933" lon="10.804549292064234"><ele>86.0</ele><time>2026-04-06T15:31:59.923Z</time></trkpt><trkpt lat="45.75476539285582" lon="10.804432420495814"><ele>86.0</ele><time>2026-04-06T15:32:00.923Z</time></trkpt><trkpt lat="45.75461558303519" lon="10.804325129615432"><ele>86.0</ele><time>2026-04-06T15:32:01.923Z</time></trkpt><trkpt lat="45.75450060667249" lon="10.804178174241047"><ele>86.0</ele><time>2026-04-06T15:32:02.923Z</time></trkpt><trkpt lat="45.75437264174132" lon="10.804068314610157"><ele>86.0</ele><time>2026-04-06T15:32:03.923Z</time></trkpt><trkpt lat="45.75427871172761" lon="10.803885718991994"><ele>86.0</ele><time>2026-04-06T15:32:04.923Z</time></trkpt><trkpt lat="45.754177789279936" lon="10.803697380443394"><ele>85.0</ele><time>2026-04-06T15:32:05.923Z</time></trkpt><trkpt lat="45.75411824579741" lon="10.803441961961914"><ele>84.0</ele><time>2026-04-06T15:32:06.923Z</time></trkpt><trkpt lat="45.754067611496716" lon="10.803154262548581"><ele>83.0</ele><time>2026-04-06T15:32:07.923Z</time></trkpt><trkpt lat="45.75402740914119" lon="10.802838014844951"><ele>83.0</ele><time>2026-04-06T15:32:08.923Z</time></trkpt><trkpt lat="45.75405122999558" lon="10.802484806114242"><ele>83.0</ele><time>2026-04-06T15:32:09.923Z</time></trkpt><trkpt lat="45.75401564796888" lon="10.802198749321219"><ele>83.0</ele><time>2026-04-06T15:32:10.923Z</time></trkpt><trkpt lat="45.75398899202213" lon="10.801955480056456"><ele>83.0</ele><time>2026-04-06T15:32:11.923Z</time></trkpt><trkpt lat="45.75391368302809" lon="10.801741488253501"><ele>83.0</ele><time>2026-04-06T15:32:12.923Z</time></trkpt><trkpt lat="45.753917186206095" lon="10.801522417319589"><ele>83.33333333333334</ele><time>2026-04-06T15:32:13.923Z</time></trkpt><trkpt lat="45.75394911399079" lon="10.801305879946158"><ele>83.66666666666667</ele><time>2026-04-06T15:32:14.923Z</time></trkpt><trkpt lat="45.7539922384108" lon="10.801083804433961"><ele>84.0</ele><time>2026-04-06T15:32:15.923Z</time></trkpt><trkpt lat="45.75405867615829" lon="10.80087723345387"><ele>83.75</ele><time>2026-04-06T15:32:16.923Z</time></trkpt><trkpt lat="45.754121750218616" lon="10.80067100070568"><ele>83.5</ele><time>2026-04-06T15:32:17.923Z</time></trkpt><trkpt lat="45.75414959880271" lon="10.800480114057057"><ele>83.25</ele><time>2026-04-06T15:32:18.923Z</time></trkpt><trkpt lat="45.754169868170564" lon="10.800305074576523"><ele>83.0</ele><time>2026-04-06T15:32:19.923Z</time></trkpt><trkpt lat="45.754137972168856" lon="10.800135481424645"><ele>83.0</ele><time>2026-04-06T15:32:20.923Z</time></trkpt><trkpt lat="45.754089680409535" lon="10.799961047427253"><ele>83.0</ele><time>2026-04-06T15:32:21.923Z</time></trkpt><trkpt lat="45.754015400894694" lon="10.799789076013527"><ele>83.0</ele><time>2026-04-06T15:32:22.923Z</time></trkpt><trkpt lat="45.75391816487045" lon="10.799614299604778"><ele>83.0</ele><time>2026-04-06T15:32:23.923Z</time></trkpt><trkpt lat="45.753828699634965" lon="10.79944826291101"><ele>79.75</ele><time>2026-04-06T15:32:24.923Z</time></trkpt><trkpt lat="45.753747367451034" lon="10.799310177837704"><ele>76.5</ele><time>2026-04-06T15:32:25.923Z</time></trkpt><trkpt lat="45.75367238404227" lon="10.79917538789595"><ele>73.25</ele><time>2026-04-06T15:32:26.923Z</time></trkpt><trkpt lat="45.753597185940244" lon="10.799045712891143"><ele>70.0</ele><time>2026-04-06T15:32:27.923Z</time></trkpt><trkpt lat="45.75351326493193" lon="10.798930450274149"><ele>76.75</ele><time>2026-04-06T15:32:28.923Z</time></trkpt><trkpt lat="45.75340549484715" lon="10.798824139181498"><ele>83.5</ele><time>2026-04-06T15:32:29.923Z</time></trkpt><trkpt lat="45.75328483546169" lon="10.798734121629593"><ele>90.25</ele><time>2026-04-06T15:32:30.923Z</time></trkpt><trkpt lat="45.75314470225686" lon="10.7986734862426"><ele>97.0</ele><time>2026-04-06T15:32:31.923Z</time></trkpt><trkpt lat="45.75302513185946" lon="10.798651032481821"><ele>97.0</ele><time>2026-04-06T15:32:32.923Z</time></trkpt><trkpt lat="45.752854068108036" lon="10.798663934020302"><ele>97.0</ele><time>2026-04-06T15:32:33.923Z</time></trkpt><trkpt lat="45.75265283984981" lon="10.798643575020927"><ele>97.0</ele><time>2026-04-06T15:32:34.923Z</time></trkpt><trkpt lat="45.75243287941476" lon="10.79866299711781"><ele>97.0</ele><time>2026-04-06T15:32:35.923Z</time></trkpt><trkpt lat="45.75219151811663" lon="10.798631339071733"><ele>97.0</ele><time>2026-04-06T15:32:36.923Z</time></trkpt><trkpt lat="45.75195771792793" lon="10.798621400240116"><ele>95.0</ele><time>2026-04-06T15:32:37.923Z</time></trkpt><trkpt lat="45.75175456496639" lon="10.798609168268904"><ele>93.0</ele><time>2026-04-06T15:32:38.923Z</time></trkpt><trkpt lat="45.75155885294467" lon="10.798612427078737"><ele>91.0</ele><time>2026-04-06T15:32:39.923Z</time></trkpt><trkpt lat="45.751384833287034" lon="10.798593088547603"><ele>91.0</ele><time>2026-04-06T15:32:40.923Z</time></trkpt><trkpt lat="45.75123230222375" lon="10.798583751691696"><ele>91.0</ele><time>2026-04-06T15:32:41.923Z</time></trkpt><trkpt lat="45.75111175759128" lon="10.798546875494987"><ele>91.0</ele><time>2026-04-06T15:32:42.923Z</time></trkpt><trkpt lat="45.751006669648504" lon="10.798524788957375"><ele>91.0</ele><time>2026-04-06T15:32:43.923Z</time></trkpt><trkpt lat="45.75091470747831" lon="10.798494270728877"><ele>90.33333333333333</ele><time>2026-04-06T15:32:44.923Z</time></trkpt><trkpt lat="45.75082836739033" lon="10.798437865350477"><ele>89.66666666666666</ele><time>2026-04-06T15:32:45.923Z</time></trkpt><trkpt lat="45.750755815620245" lon="10.798363096997493"><ele>89.0</ele><time>2026-04-06T15:32:46.923Z</time></trkpt><trkpt lat="45.750673005281634" lon="10.798357071402531"><ele>88.33333333333333</ele><time>2026-04-06T15:32:47.923Z</time></trkpt><trkpt lat="45.750607559972984" lon="10.7983656865938"><ele>87.66666666666667</ele><time>2026-04-06T15:32:48.923Z</time></trkpt><trkpt lat="45.75053087272063" lon="10.798383687329972"><ele>87.0</ele><time>2026-04-06T15:32:49.923Z</time></trkpt><trkpt lat="45.75042751158429" lon="10.798428794172759"><ele>87.0</ele><time>2026-04-06T15:32:50.923Z</time></trkpt><trkpt lat="45.750303267684544" lon="10.798484887443278"><ele>87.0</ele><time>2026-04-06T15:32:51.923Z</time></trkpt><trkpt lat="45.750158231890154" lon="10.798500353014433"><ele>87.0</ele><time>2026-04-06T15:32:52.923Z</time></trkpt><trkpt lat="45.75002664199899" lon="10.798511855949021"><ele>87.0</ele><time>2026-04-06T15:32:53.923Z</time></trkpt><trkpt lat="45.74990929341143" lon="10.798563910048548"><ele>86.5</ele><time>2026-04-06T15:32:54.923Z</time></trkpt><trkpt lat="45.749801610930916" lon="10.798618933321421"><ele>86.0</ele><time>2026-04-06T15:32:55.923Z</time></trkpt><trkpt lat="45.74969627569231" lon="10.798679206333897"><ele>85.5</ele><time>2026-04-06T15:32:56.923Z</time></trkpt><trkpt lat="45.74958751230509" lon="10.798748049167587"><ele>85.0</ele><time>2026-04-06T15:32:57.923Z</time></trkpt><trkpt lat="45.74948704905187" lon="10.798816314562742"><ele>85.0</ele><time>2026-04-06T15:32:58.923Z</time></trkpt><trkpt lat="45.749386099180235" lon="10.798883909591986"><ele>85.0</ele><time>2026-04-06T15:32:59.923Z</time></trkpt><trkpt lat="45.74928918399114" lon="10.798953768224454"><ele>85.0</ele><time>2026-04-06T15:33:00.923Z</time></trkpt><trkpt lat="45.749188950873304" lon="10.79902056189141"><ele>85.0</ele><time>2026-04-06T15:33:01.923Z</time></trkpt><trkpt lat="45.74908816667223" lon="10.799091694521278"><ele>85.0</ele><time>2026-04-06T15:33:02.923Z</time></trkpt><trkpt lat="45.74897481049012" lon="10.799148188569983"><ele>84.75</ele><time>2026-04-06T15:33:03.923Z</time></trkpt><trkpt lat="45.74886201397619" lon="10.799216043803852"><ele>84.5</ele><time>2026-04-06T15:33:04.923Z</time></trkpt><trkpt lat="45.748746414458104" lon="10.799301456152648"><ele>84.25</ele><time>2026-04-06T15:33:05.923Z</time></trkpt><trkpt lat="45.7486338129716" lon="10.799374516200102"><ele>84.0</ele><time>2026-04-06T15:33:06.923Z</time></trkpt><trkpt lat="45.748529648991756" lon="10.799443899268793"><ele>83.6</ele><time>2026-04-06T15:33:07.923Z</time></trkpt><trkpt lat="45.74843177401421" lon="10.799508594471371"><ele>83.2</ele><time>2026-04-06T15:33:08.923Z</time></trkpt><trkpt lat="45.74833304554903" lon="10.79958229745745"><ele>82.8</ele><time>2026-04-06T15:33:09.923Z</time></trkpt><trkpt lat="45.74822914673929" lon="10.799643430343217"><ele>82.39999999999999</ele><time>2026-04-06T15:33:10.923Z</time></trkpt><trkpt lat="45.748123312361514" lon="10.799712457554726"><ele>82.0</ele><time>2026-04-06T15:33:11.923Z</time></trkpt><trkpt lat="45.74801069599306" lon="10.799778934832943"><ele>82.0</ele><time>2026-04-06T15:33:12.923Z</time></trkpt><trkpt lat="45.74789202583267" lon="10.799810063120312"><ele>82.0</ele><time>2026-04-06T15:33:13.923Z</time></trkpt><trkpt lat="45.74773971250834" lon="10.799931692196184"><ele>82.0</ele><time>2026-04-06T15:33:14.923Z</time></trkpt><trkpt lat="45.74759142745114" lon="10.800009238033573"><ele>83.25</ele><time>2026-04-06T15:33:15.923Z</time></trkpt><trkpt lat="45.74745166991794" lon="10.800076153392272"><ele>84.5</ele><time>2026-04-06T15:33:16.923Z</time></trkpt><trkpt lat="45.74730771280095" lon="10.800130390644814"><ele>85.75</ele><time>2026-04-06T15:33:17.923Z</time></trkpt><trkpt lat="45.74716681184906" lon="10.800186737695945"><ele>87.0</ele><time>2026-04-06T15:33:18.923Z</time></trkpt><trkpt lat="45.747034742874185" lon="10.800243488044888"><ele>87.0</ele><time>2026-04-06T15:33:19.923Z</time></trkpt><trkpt lat="45.74691950758076" lon="10.800272398125305"><ele>87.0</ele><time>2026-04-06T15:33:20.923Z</time></trkpt><trkpt lat="45.74681610132102" lon="10.800327220754168"><ele>87.0</ele><time>2026-04-06T15:33:21.923Z</time></trkpt><trkpt lat="45.746706633392535" lon="10.800360870652835"><ele>87.0</ele><time>2026-04-06T15:33:22.923Z</time></trkpt><trkpt lat="45.74659630839615" lon="10.800374102057367"><ele>87.0</ele><time>2026-04-06T15:33:23.923Z</time></trkpt><trkpt lat="45.746484428555206" lon="10.800380199652558"><ele>87.0</ele><time>2026-04-06T15:33:24.923Z</time></trkpt><trkpt lat="45.74635827322518" lon="10.800348375233169"><ele>87.0</ele><time>2026-04-06T15:33:25.923Z</time></trkpt><trkpt lat="45.74622240404333" lon="10.800318197799706"><ele>87.0</ele><time>2026-04-06T15:33:26.923Z</time></trkpt><trkpt lat="45.746079332937754" lon="10.800284247980022"><ele>89.5</ele><time>2026-04-06T15:33:27.923Z</time></trkpt><trkpt lat="45.745959337108516" lon="10.800193601557668"><ele>92.0</ele><time>2026-04-06T15:33:28.923Z</time></trkpt><trkpt lat="45.74583485916671" lon="10.800132292145909"><ele>94.5</ele><time>2026-04-06T15:33:29.923Z</time></trkpt><trkpt lat="45.74572891467429" lon="10.80000198989702"><ele>97.0</ele><time>2026-04-06T15:33:30.923Z</time></trkpt><trkpt lat="45.74560082478153" lon="10.799866006209422"><ele>90.0</ele><time>2026-04-06T15:33:31.923Z</time></trkpt><trkpt lat="45.74542483874743" lon="10.799721408721021"><ele>83.0</ele><time>2026-04-06T15:33:32.923Z</time></trkpt><trkpt lat="45.74526232404253" lon="10.799509616784412"><ele>76.0</ele><time>2026-04-06T15:33:33.923Z</time></trkpt><trkpt lat="45.74509360495716" lon="10.799321443833845"><ele>76.0</ele><time>2026-04-06T15:33:34.923Z</time></trkpt><trkpt lat="45.74495224348052" lon="10.799155607100557"><ele>76.0</ele><time>2026-04-06T15:33:35.923Z</time></trkpt><trkpt lat="45.744825932609764" lon="10.799014214880199"><ele>76.0</ele><time>2026-04-06T15:33:36.923Z</time></trkpt><trkpt lat="45.74471306649337" lon="10.798888377523784"><ele>76.0</ele><time>2026-04-06T15:33:37.923Z</time></trkpt><trkpt lat="45.744604770169495" lon="10.798764684788532"><ele>76.0</ele><time>2026-04-06T15:33:38.923Z</time></trkpt><trkpt lat="45.74450556487526" lon="10.79865527198438"><ele>76.0</ele><time>2026-04-06T15:33:39.923Z</time></trkpt><trkpt lat="45.744408827695906" lon="10.798552954404009"><ele>76.0</ele><time>2026-04-06T15:33:40.923Z</time></trkpt><trkpt lat="45.744325300746226" lon="10.798454366287096"><ele>75.25</ele><time>2026-04-06T15:33:41.923Z</time></trkpt><trkpt lat="45.74423470006514" lon="10.798354206415961"><ele>74.5</ele><time>2026-04-06T15:33:42.923Z</time></trkpt><trkpt lat="45.74412156844181" lon="10.798279709889732"><ele>73.75</ele><time>2026-04-06T15:33:43.923Z</time></trkpt><trkpt lat="45.74401580184519" lon="10.798227760747203"><ele>73.0</ele><time>2026-04-06T15:33:44.923Z</time></trkpt><trkpt lat="45.74390901007769" lon="10.798171930836453"><ele>73.0</ele><time>2026-04-06T15:33:45.923Z</time></trkpt><trkpt lat="45.74381330503084" lon="10.798122436575442"><ele>73.0</ele><time>2026-04-06T15:33:46.923Z</time></trkpt><trkpt lat="45.74372005387174" lon="10.79807704803317"><ele>73.0</ele><time>2026-04-06T15:33:47.923Z</time></trkpt><trkpt lat="45.743624248179856" lon="10.798033736600745"><ele>73.0</ele><time>2026-04-06T15:33:48.923Z</time></trkpt><trkpt lat="45.74351894783866" lon="10.797991966811225"><ele>73.0</ele><time>2026-04-06T15:33:49.923Z</time></trkpt><trkpt lat="45.743414384116754" lon="10.797938478965065"><ele>71.5</ele><time>2026-04-06T15:33:50.923Z</time></trkpt><trkpt lat="45.743303801839865" lon="10.79787795482788"><ele>70.0</ele><time>2026-04-06T15:33:51.923Z</time></trkpt><trkpt lat="45.74319071422314" lon="10.797805450901814"><ele>68.5</ele><time>2026-04-06T15:33:52.923Z</time></trkpt><trkpt lat="45.74308413874448" lon="10.797728854999876"><ele>67.0</ele><time>2026-04-06T15:33:53.923Z</time></trkpt><trkpt lat="45.74297967241484" lon="10.797645215315075"><ele>67.0</ele><time>2026-04-06T15:33:54.923Z</time></trkpt><trkpt lat="45.74285798647027" lon="10.79755918942081"><ele>67.0</ele><time>2026-04-06T15:33:55.923Z</time></trkpt><trkpt lat="45.742745230147136" lon="10.797474015844731"><ele>67.0</ele><time>2026-04-06T15:33:56.923Z</time></trkpt><trkpt lat="45.742636266249654" lon="10.7973925764846"><ele>67.0</ele><time>2026-04-06T15:33:57.923Z</time></trkpt><trkpt lat="45.74251179884643" lon="10.797307498677643"><ele>70.66666666666666</ele><time>2026-04-06T15:33:58.923Z</time></trkpt><trkpt lat="45.74237743400674" lon="10.797221247188416"><ele>74.33333333333333</ele><time>2026-04-06T15:33:59.923Z</time></trkpt><trkpt lat="45.74223115656303" lon="10.797097617563598"><ele>78.0</ele><time>2026-04-06T15:34:00.923Z</time></trkpt><trkpt lat="45.74205568446037" lon="10.796969211568207"><ele>78.0</ele><time>2026-04-06T15:34:01.923Z</time></trkpt><trkpt lat="45.741888772947185" lon="10.796846453931362"><ele>78.0</ele><time>2026-04-06T15:34:02.923Z</time></trkpt><trkpt lat="45.74173874552514" lon="10.796756708381862"><ele>78.0</ele><time>2026-04-06T15:34:03.923Z</time></trkpt><trkpt lat="45.741608106402154" lon="10.796658836838311"><ele>76.25</ele><time>2026-04-06T15:34:04.923Z</time></trkpt><trkpt lat="45.74148664322478" lon="10.796564182163053"><ele>74.5</ele><time>2026-04-06T15:34:05.923Z</time></trkpt><trkpt lat="45.74137693507171" lon="10.796476706398376"><ele>72.75</ele><time>2026-04-06T15:34:06.923Z</time></trkpt><trkpt lat="45.74127284129798" lon="10.796393692583925"><ele>71.0</ele><time>2026-04-06T15:34:07.923Z</time></trkpt><trkpt lat="45.74117504550884" lon="10.796313184145465"><ele>71.0</ele><time>2026-04-06T15:34:08.923Z</time></trkpt><trkpt lat="45.74108598190299" lon="10.796239590821148"><ele>71.0</ele><time>2026-04-06T15:34:09.923Z</time></trkpt><trkpt lat="45.740993839207476" lon="10.796166856953045"><ele>71.0</ele><time>2026-04-06T15:34:10.923Z</time></trkpt><trkpt lat="45.74088991669027" lon="10.796077679672003"><ele>71.0</ele><time>2026-04-06T15:34:11.923Z</time></trkpt><trkpt lat="45.740782494761206" lon="10.795983887753241"><ele>70.5</ele><time>2026-04-06T15:34:12.923Z</time></trkpt><trkpt lat="45.740656450611105" lon="10.795895851320537"><ele>70.0</ele><time>2026-04-06T15:34:13.923Z</time></trkpt><trkpt lat="45.74052877454356" lon="10.795819702966678"><ele>69.5</ele><time>2026-04-06T15:34:14.923Z</time></trkpt><trkpt lat="45.74039444501106" lon="10.795750614699909"><ele>69.0</ele><time>2026-04-06T15:34:15.923Z</time></trkpt><trkpt lat="45.74026509020733" lon="10.795709979790908"><ele>72.33333333333333</ele><time>2026-04-06T15:34:16.923Z</time></trkpt><trkpt lat="45.74010137322997" lon="10.795683867292553"><ele>75.66666666666666</ele><time>2026-04-06T15:34:17.923Z</time></trkpt><trkpt lat="45.739921522905455" lon="10.79563839837434"><ele>79.0</ele><time>2026-04-06T15:34:18.923Z</time></trkpt><trkpt lat="45.73974841158153" lon="10.795585508974337"><ele>79.0</ele><time>2026-04-06T15:34:19.923Z</time></trkpt><trkpt lat="45.73959431377201" lon="10.795517169446368"><ele>79.0</ele><time>2026-04-06T15:34:20.923Z</time></trkpt><trkpt lat="45.73945050882753" lon="10.795428513790185"><ele>79.0</ele><time>2026-04-06T15:34:21.923Z</time></trkpt><trkpt lat="45.73931065704892" lon="10.795329794795975"><ele>77.33333333333333</ele><time>2026-04-06T15:34:22.923Z</time></trkpt><trkpt lat="45.73919672551334" lon="10.795180198082225"><ele>75.66666666666667</ele><time>2026-04-06T15:34:23.923Z</time></trkpt><trkpt lat="45.73907502464959" lon="10.795004062347154"><ele>74.0</ele><time>2026-04-06T15:34:24.923Z</time></trkpt><trkpt lat="45.73895412562357" lon="10.794776662576401"><ele>74.0</ele><time>2026-04-06T15:34:25.923Z</time></trkpt><trkpt lat="45.7388260224533" lon="10.79450194846929"><ele>74.0</ele><time>2026-04-06T15:34:26.923Z</time></trkpt><trkpt lat="45.73868673517275" lon="10.794230136345496"><ele>72.0</ele><time>2026-04-06T15:34:27.923Z</time></trkpt><trkpt lat="45.73859247081541" lon="10.793977456002814"><ele>70.0</ele><time>2026-04-06T15:34:28.923Z</time></trkpt><trkpt lat="45.73848905084972" lon="10.79378212319082"><ele>68.0</ele><time>2026-04-06T15:34:29.923Z</time></trkpt><trkpt lat="45.738373999482015" lon="10.793609685219199"><ele>68.66666666666667</ele><time>2026-04-06T15:34:30.923Z</time></trkpt><trkpt lat="45.738243081867374" lon="10.79344330306279"><ele>69.33333333333333</ele><time>2026-04-06T15:34:31.923Z</time></trkpt><trkpt lat="45.73809718210551" lon="10.793298289583614"><ele>70.0</ele><time>2026-04-06T15:34:32.923Z</time></trkpt><trkpt lat="45.737952865125145" lon="10.793187914311956"><ele>70.0</ele><time>2026-04-06T15:34:33.923Z</time></trkpt><trkpt lat="45.73776537866293" lon="10.793079443111479"><ele>70.0</ele><time>2026-04-06T15:34:34.923Z</time></trkpt><trkpt lat="45.73757975732395" lon="10.793019680803527"><ele>70.0</ele><time>2026-04-06T15:34:35.923Z</time></trkpt><trkpt lat="45.73742416958387" lon="10.792964196835744"><ele>74.33333333333333</ele><time>2026-04-06T15:34:36.923Z</time></trkpt><trkpt lat="45.73726295799659" lon="10.792914674824575"><ele>78.66666666666667</ele><time>2026-04-06T15:34:37.923Z</time></trkpt><trkpt lat="45.737111489872454" lon="10.792833829697255"><ele>83.0</ele><time>2026-04-06T15:34:38.923Z</time></trkpt><trkpt lat="45.736981376886725" lon="10.792719783527788"><ele>79.66666666666667</ele><time>2026-04-06T15:34:39.923Z</time></trkpt><trkpt lat="45.73684756807701" lon="10.792585135252192"><ele>76.33333333333333</ele><time>2026-04-06T15:34:40.923Z</time></trkpt><trkpt lat="45.73670924464039" lon="10.792442860461605"><ele>73.0</ele><time>2026-04-06T15:34:41.923Z</time></trkpt><trkpt lat="45.7365850458262" lon="10.792314868366692"><ele>73.0</ele><time>2026-04-06T15:34:42.923Z</time></trkpt><trkpt lat="45.736468250582526" lon="10.79218796782634"><ele>73.0</ele><time>2026-04-06T15:34:43.923Z</time></trkpt><trkpt lat="45.73635957514725" lon="10.79206798455535"><ele>73.0</ele><time>2026-04-06T15:34:44.923Z</time></trkpt><trkpt lat="45.73624081244055" lon="10.79196086333879"><ele>73.0</ele><time>2026-04-06T15:34:45.923Z</time></trkpt><trkpt lat="45.7361346857195" lon="10.79183087511402"><ele>73.2</ele><time>2026-04-06T15:34:46.923Z</time></trkpt><trkpt lat="45.7360101401379" lon="10.791710697055214"><ele>73.4</ele><time>2026-04-06T15:34:47.923Z</time></trkpt><trkpt lat="45.73594534781218" lon="10.791648228046606"><ele>73.60000000000001</ele><time>2026-04-06T15:34:48.923Z</time></trkpt><trkpt lat="45.73584783226653" lon="10.79156973645241"><ele>73.8</ele><time>2026-04-06T15:34:49.923Z</time></trkpt><trkpt lat="45.73575291376738" lon="10.791494280569376"><ele>74.0</ele><time>2026-04-06T15:34:50.923Z</time></trkpt><trkpt lat="45.73566833501812" lon="10.791422241351135"><ele>74.0</ele><time>2026-04-06T15:34:51.923Z</time></trkpt><trkpt lat="45.735585988325006" lon="10.791355034108753"><ele>74.0</ele><time>2026-04-06T15:34:52.923Z</time></trkpt><trkpt lat="45.73550536843039" lon="10.791296615996723"><ele>74.0</ele><time>2026-04-06T15:34:53.923Z</time></trkpt><trkpt lat="45.73543363010538" lon="10.791230651789693"><ele>74.0</ele><time>2026-04-06T15:34:54.923Z</time></trkpt><trkpt lat="45.73534966196954" lon="10.791155403205968"><ele>74.0</ele><time>2026-04-06T15:34:55.923Z</time></trkpt><trkpt lat="45.73526112741279" lon="10.791072266786703"><ele>74.0</ele><time>2026-04-06T15:34:56.923Z</time></trkpt><trkpt lat="45.73517282444297" lon="10.790975909015973"><ele>74.0</ele><time>2026-04-06T15:34:57.923Z</time></trkpt><trkpt lat="45.735072152021736" lon="10.790880154028953"><ele>74.0</ele><time>2026-04-06T15:34:58.923Z</time></trkpt><trkpt lat="45.73497256837568" lon="10.790770412507644"><ele>74.0</ele><time>2026-04-06T15:34:59.923Z</time></trkpt><trkpt lat="45.73488336180042" lon="10.790658760717605"><ele>74.0</ele><time>2026-04-06T15:35:00.923Z</time></trkpt><trkpt lat="45.7348073933787" lon="10.790545842352454"><ele>74.0</ele><time>2026-04-06T15:35:01.923Z</time></trkpt><trkpt lat="45.73472438494092" lon="10.790444251031564"><ele>74.0</ele><time>2026-04-06T15:35:02.923Z</time></trkpt><trkpt lat="45.73465034825527" lon="10.790336889696151"><ele>74.0</ele><time>2026-04-06T15:35:03.923Z</time></trkpt><trkpt lat="45.73458013929672" lon="10.790221101978789"><ele>74.0</ele><time>2026-04-06T15:35:04.923Z</time></trkpt><trkpt lat="45.73451340275964" lon="10.79011033167886"><ele>74.16666666666667</ele><time>2026-04-06T15:35:05.923Z</time></trkpt><trkpt lat="45.73446011640381" lon="10.790009249019228"><ele>74.33333333333334</ele><time>2026-04-06T15:35:06.923Z</time></trkpt><trkpt lat="45.734399143045295" lon="10.789916458944292"><ele>74.5</ele><time>2026-04-06T15:35:07.923Z</time></trkpt><trkpt lat="45.73434301206287" lon="10.789829010432786"><ele>74.66666666666667</ele><time>2026-04-06T15:35:08.923Z</time></trkpt><trkpt lat="45.73429319184953" lon="10.789728403754516"><ele>74.83333333333333</ele><time>2026-04-06T15:35:09.923Z</time></trkpt><trkpt lat="45.73424389613227" lon="10.789632124003855"><ele>75.0</ele><time>2026-04-06T15:35:10.923Z</time></trkpt><trkpt lat="45.73418271081713" lon="10.789547281397248"><ele>75.0</ele><time>2026-04-06T15:35:11.923Z</time></trkpt><trkpt lat="45.73412625031905" lon="10.789457135542388"><ele>75.0</ele><time>2026-04-06T15:35:12.923Z</time></trkpt><trkpt lat="45.73405821541072" lon="10.789356354137329"><ele>75.0</ele><time>2026-04-06T15:35:13.923Z</time></trkpt><trkpt lat="45.733982461514074" lon="10.78924166071327"><ele>75.0</ele><time>2026-04-06T15:35:14.923Z</time></trkpt><trkpt lat="45.73391010703" lon="10.78909211293289"><ele>75.0</ele><time>2026-04-06T15:35:15.923Z</time></trkpt><trkpt lat="45.73384408643088" lon="10.788929720383209"><ele>74.5</ele><time>2026-04-06T15:35:16.923Z</time></trkpt><trkpt lat="45.73378543217391" lon="10.788794477802117"><ele>74.0</ele><time>2026-04-06T15:35:17.923Z</time></trkpt><trkpt lat="45.73370424121658" lon="10.78863835653223"><ele>73.5</ele><time>2026-04-06T15:35:18.923Z</time></trkpt><trkpt lat="45.733615597130985" lon="10.788500995957547"><ele>73.0</ele><time>2026-04-06T15:35:19.923Z</time></trkpt><trkpt lat="45.73353089568817" lon="10.788347734395007"><ele>73.0</ele><time>2026-04-06T15:35:20.923Z</time></trkpt><trkpt lat="45.73342983118102" lon="10.788202927317808"><ele>73.0</ele><time>2026-04-06T15:35:21.923Z</time></trkpt><trkpt lat="45.733312005370394" lon="10.788062927603969"><ele>73.0</ele><time>2026-04-06T15:35:22.923Z</time></trkpt><trkpt lat="45.73319320681847" lon="10.787941468637296"><ele>73.0</ele><time>2026-04-06T15:35:23.923Z</time></trkpt><trkpt lat="45.733053077206584" lon="10.787829736961859"><ele>73.0</ele><time>2026-04-06T15:35:24.923Z</time></trkpt><trkpt lat="45.732884890467524" lon="10.78769893553239"><ele>73.0</ele><time>2026-04-06T15:35:25.923Z</time></trkpt><trkpt lat="45.73268072062316" lon="10.787590695297032"><ele>73.0</ele><time>2026-04-06T15:35:26.923Z</time></trkpt><trkpt lat="45.732499903334364" lon="10.787468627565246"><ele>73.0</ele><time>2026-04-06T15:35:27.923Z</time></trkpt><trkpt lat="45.73234440221791" lon="10.787377660352767"><ele>73.0</ele><time>2026-04-06T15:35:28.923Z</time></trkpt><trkpt lat="45.73222433088319" lon="10.787294429960689"><ele>73.0</ele><time>2026-04-06T15:35:29.923Z</time></trkpt><trkpt lat="45.732120456850616" lon="10.787210100635848"><ele>73.0</ele><time>2026-04-06T15:35:30.923Z</time></trkpt><trkpt lat="45.73201678571531" lon="10.787145188814016"><ele>73.0</ele><time>2026-04-06T15:35:31.923Z</time></trkpt><trkpt lat="45.73191976339762" lon="10.787076833816258"><ele>73.0</ele><time>2026-04-06T15:35:32.923Z</time></trkpt><trkpt lat="45.73181248731454" lon="10.786985135613781"><ele>73.0</ele><time>2026-04-06T15:35:33.923Z</time></trkpt><trkpt lat="45.731733160117614" lon="10.786867569917712"><ele>73.0</ele><time>2026-04-06T15:35:34.923Z</time></trkpt><trkpt lat="45.7316729057058" lon="10.786754886606609"><ele>73.0</ele><time>2026-04-06T15:35:35.923Z</time></trkpt><trkpt lat="45.73157742945364" lon="10.786626877672449"><ele>72.5</ele><time>2026-04-06T15:35:36.923Z</time></trkpt><trkpt lat="45.73148604334573" lon="10.786491923193568"><ele>72.0</ele><time>2026-04-06T15:35:37.923Z</time></trkpt><trkpt lat="45.73142329772203" lon="10.786357791964098"><ele>71.5</ele><time>2026-04-06T15:35:38.923Z</time></trkpt><trkpt lat="45.7313687546366" lon="10.786202309057805"><ele>71.0</ele><time>2026-04-06T15:35:39.923Z</time></trkpt><trkpt lat="45.73132369452573" lon="10.786041001012379"><ele>69.0</ele><time>2026-04-06T15:35:40.923Z</time></trkpt><trkpt lat="45.73128830639069" lon="10.785877673435705"><ele>67.0</ele><time>2026-04-06T15:35:41.923Z</time></trkpt><trkpt lat="45.7312620672988" lon="10.78571296599958"><ele>65.0</ele><time>2026-04-06T15:35:42.923Z</time></trkpt><trkpt lat="45.73122717125264" lon="10.785539782094865"><ele>63.0</ele><time>2026-04-06T15:35:43.923Z</time></trkpt><trkpt lat="45.731188764155036" lon="10.78537054305036"><ele>63.0</ele><time>2026-04-06T15:35:44.923Z</time></trkpt><trkpt lat="45.73115767769376" lon="10.785212282349569"><ele>63.0</ele><time>2026-04-06T15:35:45.923Z</time></trkpt><trkpt lat="45.731114509612425" lon="10.785067982997756"><ele>63.0</ele><time>2026-04-06T15:35:46.923Z</time></trkpt><trkpt lat="45.731089048031116" lon="10.784919643321961"><ele>63.0</ele><time>2026-04-06T15:35:47.923Z</time></trkpt><trkpt lat="45.73104171610558" lon="10.784765811232777"><ele>63.0</ele><time>2026-04-06T15:35:48.923Z</time></trkpt><trkpt lat="45.7309997913916" lon="10.784610505781208"><ele>65.25</ele><time>2026-04-06T15:35:49.923Z</time></trkpt><trkpt lat="45.73093794155183" lon="10.784437692380104"><ele>67.5</ele><time>2026-04-06T15:35:50.923Z</time></trkpt><trkpt lat="45.73087080262508" lon="10.784265930029472"><ele>69.75</ele><time>2026-04-06T15:35:51.923Z</time></trkpt><trkpt lat="45.73081624761754" lon="10.784102152380138"><ele>72.0</ele><time>2026-04-06T15:35:52.923Z</time></trkpt><trkpt lat="45.730746719009" lon="10.783943804678819"><ele>72.0</ele><time>2026-04-06T15:35:53.923Z</time></trkpt><trkpt lat="45.73068350139309" lon="10.783799822846387"><ele>72.0</ele><time>2026-04-06T15:35:54.923Z</time></trkpt><trkpt lat="45.73062502751576" lon="10.783666633236866"><ele>72.0</ele><time>2026-04-06T15:35:55.923Z</time></trkpt><trkpt lat="45.730556786014446" lon="10.783511195336978"><ele>72.0</ele><time>2026-04-06T15:35:56.923Z</time></trkpt><trkpt lat="45.73047432145036" lon="10.783323361449124"><ele>73.66666666666667</ele><time>2026-04-06T15:35:57.923Z</time></trkpt><trkpt lat="45.7303792049545" lon="10.78310670902192"><ele>75.33333333333334</ele><time>2026-04-06T15:35:58.923Z</time></trkpt><trkpt lat="45.73028434302102" lon="10.782892773361471"><ele>77.0</ele><time>2026-04-06T15:35:59.923Z</time></trkpt><trkpt lat="45.73019624239986" lon="10.782694881067885"><ele>75.5</ele><time>2026-04-06T15:36:00.923Z</time></trkpt><trkpt lat="45.73010969023941" lon="10.78252876622981"><ele>74.0</ele><time>2026-04-06T15:36:01.923Z</time></trkpt><trkpt lat="45.73003597168646" lon="10.782358374881829"><ele>72.5</ele><time>2026-04-06T15:36:02.923Z</time></trkpt><trkpt lat="45.72996350809289" lon="10.782199078786183"><ele>71.0</ele><time>2026-04-06T15:36:03.923Z</time></trkpt><trkpt lat="45.729893988937576" lon="10.782044428251215"><ele>71.0</ele><time>2026-04-06T15:36:04.923Z</time></trkpt><trkpt lat="45.72982021626928" lon="10.781903532694649"><ele>71.0</ele><time>2026-04-06T15:36:05.923Z</time></trkpt><trkpt lat="45.72974278570986" lon="10.781771206412191"><ele>71.0</ele><time>2026-04-06T15:36:06.923Z</time></trkpt><trkpt lat="45.729648737168894" lon="10.781652845656225"><ele>71.0</ele><time>2026-04-06T15:36:07.923Z</time></trkpt><trkpt lat="45.72953704769938" lon="10.781546984865416"><ele>71.25</ele><time>2026-04-06T15:36:08.923Z</time></trkpt><trkpt lat="45.729412758287154" lon="10.78144384884462"><ele>71.5</ele><time>2026-04-06T15:36:09.923Z</time></trkpt><trkpt lat="45.729291323733" lon="10.781362880736124"><ele>71.75</ele><time>2026-04-06T15:36:10.923Z</time></trkpt><trkpt lat="45.72916849118778" lon="10.78129768449582"><ele>72.0</ele><time>2026-04-06T15:36:11.923Z</time></trkpt><trkpt lat="45.72905745436684" lon="10.781256907604702"><ele>72.0</ele><time>2026-04-06T15:36:12.923Z</time></trkpt><trkpt lat="45.7289472998441" lon="10.78123642909478"><ele>72.0</ele><time>2026-04-06T15:36:13.923Z</time></trkpt><trkpt lat="45.72884621104823" lon="10.781223300565502"><ele>72.0</ele><time>2026-04-06T15:36:14.923Z</time></trkpt><trkpt lat="45.72875445448021" lon="10.781214921455664"><ele>72.0</ele><time>2026-04-06T15:36:15.923Z</time></trkpt><trkpt lat="45.72867678039859" lon="10.781196987241367"><ele>72.0</ele><time>2026-04-06T15:36:16.923Z</time></trkpt><trkpt lat="45.72856429005203" lon="10.781131740735315"><ele>72.28571428571429</ele><time>2026-04-06T15:36:18.923Z</time></trkpt><trkpt lat="45.72849540107043" lon="10.78110950095943"><ele>72.57142857142857</ele><time>2026-04-06T15:36:19.923Z</time></trkpt><trkpt lat="45.72841818336246" lon="10.781137737729901"><ele>72.85714285714286</ele><time>2026-04-06T15:36:20.923Z</time></trkpt><trkpt lat="45.72834483191074" lon="10.781148231080504"><ele>73.14285714285714</ele><time>2026-04-06T15:36:21.923Z</time></trkpt><trkpt lat="45.728275454953504" lon="10.781145242379072"><ele>73.42857142857143</ele><time>2026-04-06T15:36:22.923Z</time></trkpt><trkpt lat="45.728208188945615" lon="10.781144976975272"><ele>73.71428571428572</ele><time>2026-04-06T15:36:23.923Z</time></trkpt><trkpt lat="45.728145609472065" lon="10.781130005298717"><ele>74.0</ele><time>2026-04-06T15:36:24.923Z</time></trkpt><trkpt lat="45.72806748551026" lon="10.781124555470305"><ele>74.0</ele><time>2026-04-06T15:36:25.923Z</time></trkpt><trkpt lat="45.72798340875518" lon="10.781100742666377"><ele>74.0</ele><time>2026-04-06T15:36:26.923Z</time></trkpt><trkpt lat="45.72791000355861" lon="10.781090495491123"><ele>74.0</ele><time>2026-04-06T15:36:27.923Z</time></trkpt><trkpt lat="45.72783624182243" lon="10.78108862631228"><ele>74.0</ele><time>2026-04-06T15:36:28.923Z</time></trkpt><trkpt lat="45.72775275957352" lon="10.781072632897207"><ele>74.0</ele><time>2026-04-06T15:36:29.923Z</time></trkpt><trkpt lat="45.72763739212692" lon="10.781056300365918"><ele>74.0</ele><time>2026-04-06T15:36:30.923Z</time></trkpt><trkpt lat="45.72750086248739" lon="10.781040311122302"><ele>73.5</ele><time>2026-04-06T15:36:31.923Z</time></trkpt><trkpt lat="45.727343182199725" lon="10.781025892679835"><ele>73.0</ele><time>2026-04-06T15:36:32.923Z</time></trkpt><trkpt lat="45.727204128764924" lon="10.781013361899786"><ele>72.5</ele><time>2026-04-06T15:36:33.923Z</time></trkpt><trkpt lat="45.72708401838473" lon="10.781001769912052"><ele>72.0</ele><time>2026-04-06T15:36:34.923Z</time></trkpt><trkpt lat="45.72696626865084" lon="10.781000691062776"><ele>71.0</ele><time>2026-04-06T15:36:35.923Z</time></trkpt><trkpt lat="45.72684429111186" lon="10.781005708960722"><ele>70.0</ele><time>2026-04-06T15:36:36.923Z</time></trkpt><trkpt lat="45.72672951231789" lon="10.78100131427176"><ele>69.0</ele><time>2026-04-06T15:36:37.923Z</time></trkpt><trkpt lat="45.72660070600287" lon="10.780998955114937"><ele>68.0</ele><time>2026-04-06T15:36:38.923Z</time></trkpt><trkpt lat="45.72647008268826" lon="10.78100289211057"><ele>68.0</ele><time>2026-04-06T15:36:39.923Z</time></trkpt><trkpt lat="45.72634451419546" lon="10.781012630042428"><ele>68.0</ele><time>2026-04-06T15:36:40.923Z</time></trkpt><trkpt lat="45.72621246700571" lon="10.781024270662115"><ele>68.0</ele><time>2026-04-06T15:36:41.923Z</time></trkpt><trkpt lat="45.726079119836704" lon="10.781030311992726"><ele>68.0</ele><time>2026-04-06T15:36:42.923Z</time></trkpt><trkpt lat="45.72594625943425" lon="10.781041382064583"><ele>69.25</ele><time>2026-04-06T15:36:43.923Z</time></trkpt><trkpt lat="45.725823863833156" lon="10.781049673982722"><ele>70.5</ele><time>2026-04-06T15:36:44.923Z</time></trkpt><trkpt lat="45.725694294254055" lon="10.781060645304986"><ele>71.75</ele><time>2026-04-06T15:36:45.923Z</time></trkpt><trkpt lat="45.725558137497416" lon="10.781065762418779"><ele>73.0</ele><time>2026-04-06T15:36:46.923Z</time></trkpt><trkpt lat="45.72541965486968" lon="10.781072116153728"><ele>73.0</ele><time>2026-04-06T15:36:47.923Z</time></trkpt><trkpt lat="45.72528603698581" lon="10.781086356285298"><ele>73.0</ele><time>2026-04-06T15:36:48.923Z</time></trkpt><trkpt lat="45.72515376582754" lon="10.781101531511636"><ele>73.0</ele><time>2026-04-06T15:36:49.923Z</time></trkpt><trkpt lat="45.72502220349826" lon="10.781107437106986"><ele>73.0</ele><time>2026-04-06T15:36:50.923Z</time></trkpt><trkpt lat="45.72489340698396" lon="10.781117000992529"><ele>73.5</ele><time>2026-04-06T15:36:51.923Z</time></trkpt><trkpt lat="45.72476327222974" lon="10.781128273326805"><ele>74.0</ele><time>2026-04-06T15:36:52.923Z</time></trkpt><trkpt lat="45.72463403469032" lon="10.781144168149053"><ele>74.5</ele><time>2026-04-06T15:36:53.923Z</time></trkpt><trkpt lat="45.72450706754353" lon="10.781174977955754"><ele>75.0</ele><time>2026-04-06T15:36:54.923Z</time></trkpt><trkpt lat="45.724380237980945" lon="10.781212532382959"><ele>75.5</ele><time>2026-04-06T15:36:55.923Z</time></trkpt><trkpt lat="45.72425111082033" lon="10.781248766931753"><ele>76.0</ele><time>2026-04-06T15:36:56.923Z</time></trkpt><trkpt lat="45.724120287792594" lon="10.781278083992273"><ele>76.5</ele><time>2026-04-06T15:36:57.923Z</time></trkpt><trkpt lat="45.72399188236262" lon="10.781303838713164"><ele>77.0</ele><time>2026-04-06T15:36:58.923Z</time></trkpt><trkpt lat="45.723867831806885" lon="10.78131902883453"><ele>77.0</ele><time>2026-04-06T15:36:59.923Z</time></trkpt><trkpt lat="45.72374774711727" lon="10.78131811755086"><ele>77.0</ele><time>2026-04-06T15:37:00.923Z</time></trkpt><trkpt lat="45.72363346109206" lon="10.781299958442306"><ele>77.0</ele><time>2026-04-06T15:37:01.923Z</time></trkpt><trkpt lat="45.7235213381506" lon="10.78127016592505"><ele>77.0</ele><time>2026-04-06T15:37:02.923Z</time></trkpt><trkpt lat="45.72340578446283" lon="10.781219776905129"><ele>77.8</ele><time>2026-04-06T15:37:03.923Z</time></trkpt><trkpt lat="45.72330101247504" lon="10.781160865817322"><ele>78.6</ele><time>2026-04-06T15:37:04.923Z</time></trkpt><trkpt lat="45.7232076111931" lon="10.781091563991023"><ele>79.39999999999999</ele><time>2026-04-06T15:37:05.923Z</time></trkpt><trkpt lat="45.723118594702356" lon="10.781016114342789"><ele>80.2</ele><time>2026-04-06T15:37:06.923Z</time></trkpt><trkpt lat="45.72302254678815" lon="10.780923182297803"><ele>81.0</ele><time>2026-04-06T15:37:07.923Z</time></trkpt><trkpt lat="45.72291637085133" lon="10.780823265438773"><ele>80.39999999999999</ele><time>2026-04-06T15:37:08.923Z</time></trkpt><trkpt lat="45.7228193352177" lon="10.780733638056201"><ele>79.8</ele><time>2026-04-06T15:37:09.923Z</time></trkpt><trkpt lat="45.72273151666241" lon="10.780657657518505"><ele>79.19999999999999</ele><time>2026-04-06T15:37:10.923Z</time></trkpt><trkpt lat="45.72264174813448" lon="10.780583239202947"><ele>78.6</ele><time>2026-04-06T15:37:11.923Z</time></trkpt><trkpt lat="45.72255386936719" lon="10.780501358671641"><ele>78.0</ele><time>2026-04-06T15:37:12.923Z</time></trkpt><trkpt lat="45.722461885352686" lon="10.780413125469211"><ele>78.0</ele><time>2026-04-06T15:37:13.923Z</time></trkpt><trkpt lat="45.722371582471" lon="10.78032765798705"><ele>78.0</ele><time>2026-04-06T15:37:14.923Z</time></trkpt><trkpt lat="45.72227964370184" lon="10.780244569667316"><ele>78.0</ele><time>2026-04-06T15:37:15.923Z</time></trkpt><trkpt lat="45.722176598919" lon="10.78015433108828"><ele>78.0</ele><time>2026-04-06T15:37:16.923Z</time></trkpt><trkpt lat="45.72208924468765" lon="10.780068255734834"><ele>78.0</ele><time>2026-04-06T15:37:17.923Z</time></trkpt><trkpt lat="45.72200008066046" lon="10.779984597815579"><ele>78.5</ele><time>2026-04-06T15:37:18.923Z</time></trkpt><trkpt lat="45.72190858806096" lon="10.779898525020798"><ele>79.0</ele><time>2026-04-06T15:37:19.923Z</time></trkpt><trkpt lat="45.7218119704179" lon="10.779807075489195"><ele>79.5</ele><time>2026-04-06T15:37:20.923Z</time></trkpt><trkpt lat="45.721714187069665" lon="10.779712097291453"><ele>80.0</ele><time>2026-04-06T15:37:21.923Z</time></trkpt><trkpt lat="45.72161823979417" lon="10.779618986718836"><ele>80.0</ele><time>2026-04-06T15:37:22.923Z</time></trkpt><trkpt lat="45.72152419691816" lon="10.779525279872344"><ele>80.0</ele><time>2026-04-06T15:37:23.923Z</time></trkpt><trkpt lat="45.721436376818886" lon="10.77945074956459"><ele>80.0</ele><time>2026-04-06T15:37:24.923Z</time></trkpt><trkpt lat="45.721343468961116" lon="10.779367863928167"><ele>80.0</ele><time>2026-04-06T15:37:25.923Z</time></trkpt><trkpt lat="45.72125451193329" lon="10.779271571894414"><ele>80.0</ele><time>2026-04-06T15:37:26.923Z</time></trkpt><trkpt lat="45.72116892691601" lon="10.779172054021299"><ele>79.8</ele><time>2026-04-06T15:37:27.923Z</time></trkpt><trkpt lat="45.72108185779855" lon="10.779076248328355"><ele>79.6</ele><time>2026-04-06T15:37:28.923Z</time></trkpt><trkpt lat="45.7210031618797" lon="10.778990269622305"><ele>79.4</ele><time>2026-04-06T15:37:29.923Z</time></trkpt><trkpt lat="45.72092891298205" lon="10.778899574964615"><ele>79.2</ele><time>2026-04-06T15:37:30.923Z</time></trkpt><trkpt lat="45.720857821804955" lon="10.77881336128059"><ele>79.0</ele><time>2026-04-06T15:37:31.923Z</time></trkpt><trkpt lat="45.720786414565545" lon="10.778734436807149"><ele>79.0</ele><time>2026-04-06T15:37:32.923Z</time></trkpt><trkpt lat="45.720710278964404" lon="10.77865038480449"><ele>79.0</ele><time>2026-04-06T15:37:33.923Z</time></trkpt><trkpt lat="45.72063968907876" lon="10.778551339658275"><ele>79.0</ele><time>2026-04-06T15:37:34.923Z</time></trkpt><trkpt lat="45.72056823493898" lon="10.778432069241646"><ele>79.0</ele><time>2026-04-06T15:37:35.923Z</time></trkpt><trkpt lat="45.72049229225024" lon="10.77830938168846"><ele>79.0</ele><time>2026-04-06T15:37:36.923Z</time></trkpt><trkpt lat="45.72041542884005" lon="10.778186613610817"><ele>79.4</ele><time>2026-04-06T15:37:37.923Z</time></trkpt><trkpt lat="45.72033493230086" lon="10.778069076505426"><ele>79.80000000000001</ele><time>2026-04-06T15:37:38.923Z</time></trkpt><trkpt lat="45.720271186714236" lon="10.77795453747116"><ele>80.19999999999999</ele><time>2026-04-06T15:37:39.923Z</time></trkpt><trkpt lat="45.72020466630418" lon="10.77783965999499"><ele>80.6</ele><time>2026-04-06T15:37:40.923Z</time></trkpt><trkpt lat="45.72012916679178" lon="10.777723989947807"><ele>81.0</ele><time>2026-04-06T15:37:41.923Z</time></trkpt><trkpt lat="45.720058238246786" lon="10.777596541804423"><ele>78.5</ele><time>2026-04-06T15:37:42.923Z</time></trkpt><trkpt lat="45.71998923296652" lon="10.777480672183456"><ele>76.0</ele><time>2026-04-06T15:37:43.923Z</time></trkpt><trkpt lat="45.71991704374407" lon="10.77735587496915"><ele>73.5</ele><time>2026-04-06T15:37:44.923Z</time></trkpt><trkpt lat="45.71984091712071" lon="10.777229297509958"><ele>71.0</ele><time>2026-04-06T15:37:45.923Z</time></trkpt><trkpt lat="45.719762902139564" lon="10.777100061322994"><ele>71.0</ele><time>2026-04-06T15:37:46.923Z</time></trkpt><trkpt lat="45.71967926711688" lon="10.776964642712192"><ele>71.0</ele><time>2026-04-06T15:37:47.923Z</time></trkpt><trkpt lat="45.71959714880008" lon="10.776837966214911"><ele>71.0</ele><time>2026-04-06T15:37:48.923Z</time></trkpt><trkpt lat="45.71951886284667" lon="10.776718246419746"><ele>71.0</ele><time>2026-04-06T15:37:49.923Z</time></trkpt><trkpt lat="45.719439948060135" lon="10.776604922425879"><ele>71.8</ele><time>2026-04-06T15:37:50.923Z</time></trkpt><trkpt lat="45.7193589262894" lon="10.776481319445189"><ele>72.6</ele><time>2026-04-06T15:37:51.923Z</time></trkpt><trkpt lat="45.71927556209137" lon="10.776372830676891"><ele>73.4</ele><time>2026-04-06T15:37:52.923Z</time></trkpt><trkpt lat="45.719204111753264" lon="10.776272712203742"><ele>74.2</ele><time>2026-04-06T15:37:53.923Z</time></trkpt><trkpt lat="45.71912529299936" lon="10.776165489989179"><ele>75.0</ele><time>2026-04-06T15:37:54.923Z</time></trkpt><trkpt lat="45.7190408157991" lon="10.776040288584735"><ele>73.4</ele><time>2026-04-06T15:37:55.923Z</time></trkpt><trkpt lat="45.71895759754832" lon="10.775913313632104"><ele>71.8</ele><time>2026-04-06T15:37:56.923Z</time></trkpt><trkpt lat="45.71887811770228" lon="10.775796174879252"><ele>70.2</ele><time>2026-04-06T15:37:57.923Z</time></trkpt><trkpt lat="45.71880790795102" lon="10.775686501967062"><ele>68.6</ele><time>2026-04-06T15:37:58.923Z</time></trkpt><trkpt lat="45.718735867092455" lon="10.7755717312755"><ele>67.0</ele><time>2026-04-06T15:37:59.923Z</time></trkpt><trkpt lat="45.718648005316545" lon="10.775449537160304"><ele>68.0</ele><time>2026-04-06T15:38:00.923Z</time></trkpt><trkpt lat="45.7185635950226" lon="10.775324403802324"><ele>69.0</ele><time>2026-04-06T15:38:01.923Z</time></trkpt><trkpt lat="45.71846870187745" lon="10.775192084771254"><ele>70.0</ele><time>2026-04-06T15:38:02.923Z</time></trkpt><trkpt lat="45.71838111452453" lon="10.775067407461604"><ele>71.0</ele><time>2026-04-06T15:38:03.923Z</time></trkpt><trkpt lat="45.71831225790418" lon="10.774962034085018"><ele>71.0</ele><time>2026-04-06T15:38:04.923Z</time></trkpt><trkpt lat="45.71826464807317" lon="10.774885400701413"><ele>71.0</ele><time>2026-04-06T15:38:05.923Z</time></trkpt><trkpt lat="45.71821323842055" lon="10.774822832757481"><ele>71.0</ele><time>2026-04-06T15:38:08.923Z</time></trkpt><trkpt lat="45.71810074890881" lon="10.774707291748944"><ele>71.0</ele><time>2026-04-06T15:38:41.923Z</time></trkpt><trkpt lat="45.7180166374411" lon="10.774617997910674"><ele>71.0</ele><time>2026-04-06T15:38:42.923Z</time></trkpt><trkpt lat="45.71794799262331" lon="10.77454180604626"><ele>71.0</ele><time>2026-04-06T15:38:43.923Z</time></trkpt><trkpt lat="45.717873856464806" lon="10.774475499916038"><ele>71.0</ele><time>2026-04-06T15:38:44.923Z</time></trkpt><trkpt lat="45.717789005673254" lon="10.774395601091548"><ele>71.0</ele><time>2026-04-06T15:38:45.923Z</time></trkpt><trkpt lat="45.71770337735444" lon="10.774278525772036"><ele>71.0</ele><time>2026-04-06T15:38:46.923Z</time></trkpt><trkpt lat="45.717595528196306" lon="10.774155096340165"><ele>71.0</ele><time>2026-04-06T15:38:47.923Z</time></trkpt><trkpt lat="45.71751785554022" lon="10.774023363553514"><ele>71.75</ele><time>2026-04-06T15:38:48.923Z</time></trkpt><trkpt lat="45.71745311215549" lon="10.773902906536673"><ele>72.5</ele><time>2026-04-06T15:38:49.923Z</time></trkpt><trkpt lat="45.71735891483631" lon="10.773804720639399"><ele>73.25</ele><time>2026-04-06T15:38:50.923Z</time></trkpt><trkpt lat="45.717262826983415" lon="10.773702533280204"><ele>74.0</ele><time>2026-04-06T15:38:51.923Z</time></trkpt><trkpt lat="45.71717981199745" lon="10.773578066834"><ele>75.25</ele><time>2026-04-06T15:38:52.923Z</time></trkpt><trkpt lat="45.71708344756025" lon="10.773489634612844"><ele>76.5</ele><time>2026-04-06T15:38:53.923Z</time></trkpt><trkpt lat="45.71700065427939" lon="10.773388776320266"><ele>77.75</ele><time>2026-04-06T15:38:54.923Z</time></trkpt><trkpt lat="45.71691073373518" lon="10.773290682774256"><ele>79.0</ele><time>2026-04-06T15:38:55.923Z</time></trkpt><trkpt lat="45.71681217968337" lon="10.773188084839928"><ele>79.0</ele><time>2026-04-06T15:38:56.923Z</time></trkpt><trkpt lat="45.71670877837468" lon="10.773087932412063"><ele>79.0</ele><time>2026-04-06T15:38:57.923Z</time></trkpt><trkpt lat="45.716603356265026" lon="10.77299235030984"><ele>79.0</ele><time>2026-04-06T15:38:58.923Z</time></trkpt><trkpt lat="45.71651280908343" lon="10.77289452307891"><ele>79.0</ele><time>2026-04-06T15:38:59.923Z</time></trkpt><trkpt lat="45.7164268164267" lon="10.77281794291454"><ele>79.0</ele><time>2026-04-06T15:39:00.923Z</time></trkpt><trkpt lat="45.71635414284688" lon="10.772753546366642"><ele>79.0</ele><time>2026-04-06T15:39:01.923Z</time></trkpt><trkpt lat="45.716285128610814" lon="10.772692281597292"><ele>79.0</ele><time>2026-04-06T15:39:02.923Z</time></trkpt><trkpt lat="45.7162096350546" lon="10.772636393039226"><ele>79.0</ele><time>2026-04-06T15:39:04.923Z</time></trkpt><trkpt lat="45.716119605998045" lon="10.772563652286113"><ele>79.0</ele><time>2026-04-06T15:39:06.923Z</time></trkpt><trkpt lat="45.71601793028659" lon="10.7724878637546"><ele>79.0</ele><time>2026-04-06T15:39:08.923Z</time></trkpt><trkpt lat="45.71590322253535" lon="10.772374708567735"><ele>79.0</ele><time>2026-04-06T15:39:10.923Z</time></trkpt><trkpt lat="45.71582431848731" lon="10.772300680281495"><ele>79.0</ele><time>2026-04-06T15:39:11.923Z</time></trkpt><trkpt lat="45.715765417584535" lon="10.772250608087786"><ele>79.0</ele><time>2026-04-06T15:39:12.923Z</time></trkpt><trkpt lat="45.71570854437355" lon="10.772206354805554"><ele>79.0</ele><time>2026-04-06T15:39:13.923Z</time></trkpt><trkpt lat="45.71566146403463" lon="10.772136895474802"><ele>79.0</ele><time>2026-04-06T15:39:14.923Z</time></trkpt><trkpt lat="45.715598444817466" lon="10.772080639669584"><ele>79.0</ele><time>2026-04-06T15:39:15.923Z</time></trkpt><trkpt lat="45.71552886625897" lon="10.772018528472815"><ele>79.0</ele><time>2026-04-06T15:39:16.923Z</time></trkpt><trkpt lat="45.715459634783414" lon="10.771956727279946"><ele>79.0</ele><time>2026-04-06T15:39:17.923Z</time></trkpt><trkpt lat="45.715399001214834" lon="10.771903374255782"><ele>79.0</ele><time>2026-04-06T15:39:18.923Z</time></trkpt><trkpt lat="45.71531773401579" lon="10.771852398551388"><ele>79.0</ele><time>2026-04-06T15:39:19.923Z</time></trkpt><trkpt lat="45.71524218404671" lon="10.7717811168051"><ele>79.0</ele><time>2026-04-06T15:39:20.923Z</time></trkpt><trkpt lat="45.7151712792517" lon="10.771716652323715"><ele>78.8</ele><time>2026-04-06T15:39:21.923Z</time></trkpt><trkpt lat="45.71509467561025" lon="10.771652009982253"><ele>78.60000000000001</ele><time>2026-04-06T15:39:22.923Z</time></trkpt><trkpt lat="45.71501972850574" lon="10.771580818953819"><ele>78.4</ele><time>2026-04-06T15:39:23.923Z</time></trkpt><trkpt lat="45.714937003532555" lon="10.771514308625196"><ele>78.2</ele><time>2026-04-06T15:39:24.923Z</time></trkpt><trkpt lat="45.714856384573366" lon="10.77144746163219"><ele>78.0</ele><time>2026-04-06T15:39:25.923Z</time></trkpt><trkpt lat="45.714777400620726" lon="10.771362799067873"><ele>78.0</ele><time>2026-04-06T15:39:26.923Z</time></trkpt><trkpt lat="45.714700473182496" lon="10.771307725434744"><ele>78.0</ele><time>2026-04-06T15:39:27.923Z</time></trkpt><trkpt lat="45.71462200023332" lon="10.771234758157233"><ele>78.0</ele><time>2026-04-06T15:39:28.923Z</time></trkpt><trkpt lat="45.714558246469785" lon="10.77115529703611"><ele>78.0</ele><time>2026-04-06T15:39:29.923Z</time></trkpt><trkpt lat="45.71448915795811" lon="10.771094317387616"><ele>78.0</ele><time>2026-04-06T15:39:30.923Z</time></trkpt><trkpt lat="45.71440837854984" lon="10.77102301880083"><ele>78.0</ele><time>2026-04-06T15:39:31.923Z</time></trkpt><trkpt lat="45.71432076251892" lon="10.77096684500875"><ele>78.0</ele><time>2026-04-06T15:39:32.923Z</time></trkpt><trkpt lat="45.71424477471168" lon="10.770901793259787"><ele>78.0</ele><time>2026-04-06T15:39:33.923Z</time></trkpt><trkpt lat="45.71416437400767" lon="10.770830722866037"><ele>78.0</ele><time>2026-04-06T15:39:34.923Z</time></trkpt><trkpt lat="45.71407562122121" lon="10.770722455364375"><ele>78.0</ele><time>2026-04-06T15:39:35.923Z</time></trkpt><trkpt lat="45.713972561321796" lon="10.770629897125673"><ele>78.0</ele><time>2026-04-06T15:39:36.923Z</time></trkpt><trkpt lat="45.71382659147112" lon="10.770537834758688"><ele>78.0</ele><time>2026-04-06T15:39:37.923Z</time></trkpt><trkpt lat="45.71366736037459" lon="10.770387512091334"><ele>78.0</ele><time>2026-04-06T15:39:38.923Z</time></trkpt><trkpt lat="45.713521094601084" lon="10.770244180447845"><ele>78.0</ele><time>2026-04-06T15:39:39.923Z</time></trkpt><trkpt lat="45.71339124269159" lon="10.770134404676218"><ele>76.75</ele><time>2026-04-06T15:39:40.923Z</time></trkpt><trkpt lat="45.713269773424095" lon="10.770033179016753"><ele>75.5</ele><time>2026-04-06T15:39:41.923Z</time></trkpt><trkpt lat="45.71314386348701" lon="10.769916785847814"><ele>74.25</ele><time>2026-04-06T15:39:42.923Z</time></trkpt><trkpt lat="45.713013014124385" lon="10.769801015040462"><ele>73.0</ele><time>2026-04-06T15:39:43.923Z</time></trkpt><trkpt lat="45.71287612506101" lon="10.769679959298285"><ele>73.0</ele><time>2026-04-06T15:39:44.923Z</time></trkpt><trkpt lat="45.7127451150082" lon="10.769556964491123"><ele>73.0</ele><time>2026-04-06T15:39:45.923Z</time></trkpt><trkpt lat="45.71261478838449" lon="10.769440195473956"><ele>73.0</ele><time>2026-04-06T15:39:46.923Z</time></trkpt><trkpt lat="45.712496000764325" lon="10.769337401567947"><ele>73.0</ele><time>2026-04-06T15:39:47.923Z</time></trkpt><trkpt lat="45.712374307302525" lon="10.769228245582628"><ele>73.5</ele><time>2026-04-06T15:39:48.923Z</time></trkpt><trkpt lat="45.71225546388704" lon="10.769122453415536"><ele>74.0</ele><time>2026-04-06T15:39:49.923Z</time></trkpt><trkpt lat="45.71214513577436" lon="10.769037418608727"><ele>74.5</ele><time>2026-04-06T15:39:50.923Z</time></trkpt><trkpt lat="45.712037320648534" lon="10.768943571002051"><ele>75.0</ele><time>2026-04-06T15:39:51.923Z</time></trkpt><trkpt lat="45.711933233710816" lon="10.768853888329021"><ele>77.75</ele><time>2026-04-06T15:39:52.923Z</time></trkpt><trkpt lat="45.71182138259366" lon="10.768778849437172"><ele>80.5</ele><time>2026-04-06T15:39:53.923Z</time></trkpt><trkpt lat="45.711723738112944" lon="10.768719749931346"><ele>83.25</ele><time>2026-04-06T15:39:54.923Z</time></trkpt><trkpt lat="45.71161362568878" lon="10.76866243361668"><ele>86.0</ele><time>2026-04-06T15:39:55.923Z</time></trkpt><trkpt lat="45.71149123106377" lon="10.768599699851395"><ele>86.0</ele><time>2026-04-06T15:39:56.923Z</time></trkpt><trkpt lat="45.71137040902111" lon="10.76853419416089"><ele>86.0</ele><time>2026-04-06T15:39:57.923Z</time></trkpt><trkpt lat="45.71123525206751" lon="10.768474596410073"><ele>86.0</ele><time>2026-04-06T15:39:58.923Z</time></trkpt><trkpt lat="45.711098375221404" lon="10.76842606629052"><ele>86.0</ele><time>2026-04-06T15:39:59.923Z</time></trkpt><trkpt lat="45.71096626967521" lon="10.768384872879167"><ele>84.25</ele><time>2026-04-06T15:40:00.923Z</time></trkpt><trkpt lat="45.710841677212414" lon="10.768355943511928"><ele>82.5</ele><time>2026-04-06T15:40:01.923Z</time></trkpt><trkpt lat="45.71071002318042" lon="10.768304578499315"><ele>80.75</ele><time>2026-04-06T15:40:02.923Z</time></trkpt><trkpt lat="45.71056613195065" lon="10.76825675595948"><ele>79.0</ele><time>2026-04-06T15:40:03.923Z</time></trkpt><trkpt lat="45.71040949279412" lon="10.768203556119346"><ele>79.0</ele><time>2026-04-06T15:40:04.923Z</time></trkpt><trkpt lat="45.710268536711204" lon="10.768154686061287"><ele>79.0</ele><time>2026-04-06T15:40:05.923Z</time></trkpt><trkpt lat="45.71013953406775" lon="10.768104481757884"><ele>79.0</ele><time>2026-04-06T15:40:06.923Z</time></trkpt><trkpt lat="45.71001211542517" lon="10.768056859371843"><ele>79.0</ele><time>2026-04-06T15:40:07.923Z</time></trkpt><trkpt lat="45.70991387603346" lon="10.768014120156721"><ele>80.5</ele><time>2026-04-06T15:40:08.923Z</time></trkpt><trkpt lat="45.709829851633906" lon="10.767967174604268"><ele>82.0</ele><time>2026-04-06T15:40:09.923Z</time></trkpt><trkpt lat="45.709617626895394" lon="10.76791270235371"><ele>83.5</ele><time>2026-04-06T15:40:10.923Z</time></trkpt><trkpt lat="45.70950203777023" lon="10.767880075932064"><ele>85.0</ele><time>2026-04-06T15:40:11.923Z</time></trkpt><trkpt lat="45.70941815804395" lon="10.767849980070293"><ele>86.4</ele><time>2026-04-06T15:40:12.923Z</time></trkpt><trkpt lat="45.709321553131694" lon="10.767821987162796"><ele>87.8</ele><time>2026-04-06T15:40:14.923Z</time></trkpt><trkpt lat="45.70923200099992" lon="10.767766760999455"><ele>89.19999999999999</ele><time>2026-04-06T15:40:22.923Z</time></trkpt><trkpt lat="45.709158438343344" lon="10.767737125500876"><ele>90.6</ele><time>2026-04-06T15:40:23.923Z</time></trkpt><trkpt lat="45.70905125168607" lon="10.767706978894772"><ele>92.0</ele><time>2026-04-06T15:40:24.923Z</time></trkpt><trkpt lat="45.70894824169319" lon="10.767680110801654"><ele>89.5</ele><time>2026-04-06T15:40:25.923Z</time></trkpt><trkpt lat="45.70885158355932" lon="10.76766063884865"><ele>87.0</ele><time>2026-04-06T15:40:26.923Z</time></trkpt><trkpt lat="45.70873692451563" lon="10.767624496826244"><ele>84.5</ele><time>2026-04-06T15:40:27.923Z</time></trkpt><trkpt lat="45.70859361261445" lon="10.767582306033807"><ele>82.0</ele><time>2026-04-06T15:40:28.923Z</time></trkpt><trkpt lat="45.70841781900146" lon="10.767518657119313"><ele>82.0</ele><time>2026-04-06T15:40:29.923Z</time></trkpt><trkpt lat="45.70825862579632" lon="10.76745804767858"><ele>82.0</ele><time>2026-04-06T15:40:30.923Z</time></trkpt><trkpt lat="45.70811314510107" lon="10.767400102722291"><ele>82.0</ele><time>2026-04-06T15:40:31.923Z</time></trkpt><trkpt lat="45.7079662574647" lon="10.767308429716087"><ele>82.0</ele><time>2026-04-06T15:40:32.923Z</time></trkpt><trkpt lat="45.70780868964941" lon="10.76720322762544"><ele>82.0</ele><time>2026-04-06T15:40:33.923Z</time></trkpt><trkpt lat="45.70763906950616" lon="10.767065578044717"><ele>82.0</ele><time>2026-04-06T15:40:34.923Z</time></trkpt><trkpt lat="45.70746313440478" lon="10.766906300745182"><ele>80.66666666666666</ele><time>2026-04-06T15:40:35.923Z</time></trkpt><trkpt lat="45.707315350629166" lon="10.766758295136558"><ele>79.33333333333333</ele><time>2026-04-06T15:40:36.923Z</time></trkpt><trkpt lat="45.70718034955566" lon="10.766616144251971"><ele>78.0</ele><time>2026-04-06T15:40:37.923Z</time></trkpt><trkpt lat="45.707054233285355" lon="10.76649326349187"><ele>78.0</ele><time>2026-04-06T15:40:38.923Z</time></trkpt><trkpt lat="45.70694326923146" lon="10.7663838974596"><ele>78.0</ele><time>2026-04-06T15:40:39.923Z</time></trkpt><trkpt lat="45.70684579754103" lon="10.766285988191303"><ele>78.0</ele><time>2026-04-06T15:40:40.923Z</time></trkpt><trkpt lat="45.70674832473262" lon="10.766193309311712"><ele>78.0</ele><time>2026-04-06T15:40:41.923Z</time></trkpt><trkpt lat="45.70665226923716" lon="10.766103877099454"><ele>76.25</ele><time>2026-04-06T15:40:42.923Z</time></trkpt><trkpt lat="45.70656128450857" lon="10.766011348646908"><ele>74.5</ele><time>2026-04-06T15:40:43.923Z</time></trkpt><trkpt lat="45.70646622490757" lon="10.765919856900092"><ele>72.75</ele><time>2026-04-06T15:40:44.923Z</time></trkpt><trkpt lat="45.7063666736612" lon="10.765826484355177"><ele>71.0</ele><time>2026-04-06T15:40:45.923Z</time></trkpt><trkpt lat="45.70626759182063" lon="10.76572999777023"><ele>71.0</ele><time>2026-04-06T15:40:46.923Z</time></trkpt><trkpt lat="45.70617202627095" lon="10.765622069797848"><ele>71.0</ele><time>2026-04-06T15:40:47.923Z</time></trkpt><trkpt lat="45.70608121415196" lon="10.765502690022156"><ele>71.0</ele><time>2026-04-06T15:40:48.923Z</time></trkpt><trkpt lat="45.7060064096225" lon="10.765364957179317"><ele>71.0</ele><time>2026-04-06T15:40:49.923Z</time></trkpt><trkpt lat="45.705920222564465" lon="10.765231799838281"><ele>71.5</ele><time>2026-04-06T15:40:50.923Z</time></trkpt><trkpt lat="45.70582262535324" lon="10.765097695099142"><ele>72.0</ele><time>2026-04-06T15:40:51.923Z</time></trkpt><trkpt lat="45.70572974993606" lon="10.764939595582463"><ele>72.5</ele><time>2026-04-06T15:40:52.923Z</time></trkpt><trkpt lat="45.70564104436461" lon="10.764797425135132"><ele>73.0</ele><time>2026-04-06T15:40:53.923Z</time></trkpt><trkpt lat="45.70553823949026" lon="10.764626201182029"><ele>73.0</ele><time>2026-04-06T15:40:54.923Z</time></trkpt><trkpt lat="45.70542910930105" lon="10.764438052085216"><ele>73.0</ele><time>2026-04-06T15:40:55.923Z</time></trkpt><trkpt lat="45.70532066295232" lon="10.764276789108997"><ele>73.0</ele><time>2026-04-06T15:40:56.923Z</time></trkpt><trkpt lat="45.70521127755463" lon="10.764125649872451"><ele>74.66666666666666</ele><time>2026-04-06T15:40:57.923Z</time></trkpt><trkpt lat="45.70508243746394" lon="10.76397763502685"><ele>76.33333333333333</ele><time>2026-04-06T15:40:58.923Z</time></trkpt><trkpt lat="45.70493367219573" lon="10.763844420814477"><ele>78.0</ele><time>2026-04-06T15:40:59.923Z</time></trkpt><trkpt lat="45.70476449825008" lon="10.763715687343188"><ele>78.0</ele><time>2026-04-06T15:41:00.923Z</time></trkpt><trkpt lat="45.704580996843816" lon="10.763608343350523"><ele>78.0</ele><time>2026-04-06T15:41:01.923Z</time></trkpt><trkpt lat="45.70440101567003" lon="10.763533490215766"><ele>78.0</ele><time>2026-04-06T15:41:02.923Z</time></trkpt><trkpt lat="45.70422590093587" lon="10.763464978854469"><ele>74.66666666666667</ele><time>2026-04-06T15:41:03.923Z</time></trkpt><trkpt lat="45.70402588229209" lon="10.763371616603237"><ele>71.33333333333334</ele><time>2026-04-06T15:41:04.923Z</time></trkpt><trkpt lat="45.70381880013226" lon="10.763278601479538"><ele>68.0</ele><time>2026-04-06T15:41:05.923Z</time></trkpt><trkpt lat="45.70363666453258" lon="10.763184303801253"><ele>70.66666666666667</ele><time>2026-04-06T15:41:06.923Z</time></trkpt><trkpt lat="45.703453095582276" lon="10.763067007742318"><ele>73.33333333333333</ele><time>2026-04-06T15:41:07.923Z</time></trkpt><trkpt lat="45.703268655976835" lon="10.76292966847655"><ele>76.0</ele><time>2026-04-06T15:41:08.923Z</time></trkpt><trkpt lat="45.703060625769396" lon="10.76277355272423"><ele>76.5</ele><time>2026-04-06T15:41:09.923Z</time></trkpt><trkpt lat="45.702833899216955" lon="10.76260373159087"><ele>77.0</ele><time>2026-04-06T15:41:10.923Z</time></trkpt><trkpt lat="45.70258978870817" lon="10.76244486598538"><ele>77.0</ele><time>2026-04-06T15:41:11.923Z</time></trkpt><trkpt lat="45.70236697567518" lon="10.76227377612369"><ele>77.0</ele><time>2026-04-06T15:41:12.923Z</time></trkpt><trkpt lat="45.70215253733145" lon="10.762112206134743"><ele>77.0</ele><time>2026-04-06T15:41:13.923Z</time></trkpt><trkpt lat="45.70193574289768" lon="10.761949402694952"><ele>77.0</ele><time>2026-04-06T15:41:14.923Z</time></trkpt><trkpt lat="45.70171760495806" lon="10.761782244629414"><ele>74.5</ele><time>2026-04-06T15:41:15.923Z</time></trkpt><trkpt lat="45.70150515132466" lon="10.761622598989108"><ele>72.0</ele><time>2026-04-06T15:41:16.923Z</time></trkpt><trkpt lat="45.70131428946424" lon="10.761476024086322"><ele>72.0</ele><time>2026-04-06T15:41:17.923Z</time></trkpt><trkpt lat="45.701132195381604" lon="10.761340144777503"><ele>72.0</ele><time>2026-04-06T15:41:18.923Z</time></trkpt><trkpt lat="45.70095148972472" lon="10.76120844582178"><ele>72.0</ele><time>2026-04-06T15:41:19.923Z</time></trkpt><trkpt lat="45.70077724530548" lon="10.761072498416272"><ele>70.33333333333333</ele><time>2026-04-06T15:41:20.923Z</time></trkpt><trkpt lat="45.700606914890265" lon="10.760933920030254"><ele>68.66666666666666</ele><time>2026-04-06T15:41:21.923Z</time></trkpt><trkpt lat="45.70043482516173" lon="10.760800172667793"><ele>67.0</ele><time>2026-04-06T15:41:22.923Z</time></trkpt><trkpt lat="45.70026795131743" lon="10.76066226630201"><ele>71.66666666666666</ele><time>2026-04-06T15:41:23.923Z</time></trkpt><trkpt lat="45.70010462720622" lon="10.760520072007493"><ele>76.33333333333333</ele><time>2026-04-06T15:41:24.923Z</time></trkpt><trkpt lat="45.69994176418877" lon="10.760373664281886"><ele>81.0</ele><time>2026-04-06T15:41:25.923Z</time></trkpt><trkpt lat="45.69977921863365" lon="10.760226848619483"><ele>80.0</ele><time>2026-04-06T15:41:26.923Z</time></trkpt><trkpt lat="45.69961567273197" lon="10.760080738698345"><ele>79.0</ele><time>2026-04-06T15:41:27.923Z</time></trkpt><trkpt lat="45.69945662664369" lon="10.759942266034072"><ele>78.0</ele><time>2026-04-06T15:41:28.923Z</time></trkpt><trkpt lat="45.69929355079899" lon="10.759802754155768"><ele>78.0</ele><time>2026-04-06T15:41:29.923Z</time></trkpt><trkpt lat="45.699140086709754" lon="10.759665899479877"><ele>78.0</ele><time>2026-04-06T15:41:30.923Z</time></trkpt><trkpt lat="45.69899718117395" lon="10.759535040908936"><ele>78.0</ele><time>2026-04-06T15:41:31.923Z</time></trkpt><trkpt lat="45.698863733634724" lon="10.759410770528334"><ele>78.5</ele><time>2026-04-06T15:41:32.923Z</time></trkpt><trkpt lat="45.69873722724317" lon="10.759295166621621"><ele>79.0</ele><time>2026-04-06T15:41:33.923Z</time></trkpt><trkpt lat="45.69862077158226" lon="10.759179443691888"><ele>79.5</ele><time>2026-04-06T15:41:34.923Z</time></trkpt><trkpt lat="45.69849767342629" lon="10.759077971818035"><ele>80.0</ele><time>2026-04-06T15:41:35.923Z</time></trkpt><trkpt lat="45.698378336486016" lon="10.758975343098733"><ele>80.0</ele><time>2026-04-06T15:41:36.923Z</time></trkpt><trkpt lat="45.69825641413021" lon="10.758847691790384"><ele>80.0</ele><time>2026-04-06T15:41:37.923Z</time></trkpt><trkpt lat="45.698143905097396" lon="10.758748059594645"><ele>80.0</ele><time>2026-04-06T15:41:38.923Z</time></trkpt><trkpt lat="45.698033779015084" lon="10.758650537175635"><ele>80.0</ele><time>2026-04-06T15:41:39.923Z</time></trkpt><trkpt lat="45.697935691444385" lon="10.758562040576876"><ele>79.5</ele><time>2026-04-06T15:41:40.923Z</time></trkpt><trkpt lat="45.697826465398244" lon="10.758486321652546"><ele>79.0</ele><time>2026-04-06T15:41:41.923Z</time></trkpt><trkpt lat="45.697730913014254" lon="10.758390251263648"><ele>78.5</ele><time>2026-04-06T15:41:42.923Z</time></trkpt><trkpt lat="45.69761046231768" lon="10.758287936559428"><ele>78.0</ele><time>2026-04-06T15:41:43.923Z</time></trkpt><trkpt lat="45.69749753274687" lon="10.7581654028182"><ele>78.0</ele><time>2026-04-06T15:41:44.923Z</time></trkpt><trkpt lat="45.6973832795305" lon="10.75808268736934"><ele>78.0</ele><time>2026-04-06T15:41:45.923Z</time></trkpt><trkpt lat="45.69728697137743" lon="10.757988615452426"><ele>78.0</ele><time>2026-04-06T15:41:46.923Z</time></trkpt><trkpt lat="45.69719282861847" lon="10.757908294163075"><ele>78.0</ele><time>2026-04-06T15:41:47.923Z</time></trkpt><trkpt lat="45.69709236502833" lon="10.75781703020678"><ele>78.0</ele><time>2026-04-06T15:41:48.923Z</time></trkpt><trkpt lat="45.696979178516486" lon="10.757713671840682"><ele>78.0</ele><time>2026-04-06T15:41:49.923Z</time></trkpt><trkpt lat="45.69686928618778" lon="10.757565188052324"><ele>78.0</ele><time>2026-04-06T15:41:50.923Z</time></trkpt><trkpt lat="45.69676765548437" lon="10.757437901570244"><ele>78.0</ele><time>2026-04-06T15:41:51.923Z</time></trkpt><trkpt lat="45.696655709223734" lon="10.757314335739665"><ele>77.0</ele><time>2026-04-06T15:41:52.923Z</time></trkpt><trkpt lat="45.696564806769956" lon="10.757185621646865"><ele>76.0</ele><time>2026-04-06T15:41:53.923Z</time></trkpt><trkpt lat="45.69647376168519" lon="10.757055934524226"><ele>75.0</ele><time>2026-04-06T15:41:54.923Z</time></trkpt><trkpt lat="45.696385506094806" lon="10.756919344307203"><ele>74.0</ele><time>2026-04-06T15:41:55.923Z</time></trkpt><trkpt lat="45.696275690867026" lon="10.756781505327417"><ele>73.0</ele><time>2026-04-06T15:41:56.923Z</time></trkpt><trkpt lat="45.69616959157239" lon="10.756637924269493"><ele>72.0</ele><time>2026-04-06T15:41:57.923Z</time></trkpt><trkpt lat="45.69606797024799" lon="10.756500810918537"><ele>71.0</ele><time>2026-04-06T15:41:58.923Z</time></trkpt><trkpt lat="45.695969973471996" lon="10.756383473578301"><ele>70.0</ele><time>2026-04-06T15:41:59.923Z</time></trkpt><trkpt lat="45.69586329625383" lon="10.756273447019355"><ele>70.0</ele><time>2026-04-06T15:42:00.923Z</time></trkpt><trkpt lat="45.695742408718985" lon="10.756169297715939"><ele>70.0</ele><time>2026-04-06T15:42:01.923Z</time></trkpt><trkpt lat="45.69561698405924" lon="10.756079944464643"><ele>70.0</ele><time>2026-04-06T15:42:02.923Z</time></trkpt><trkpt lat="45.695495119941874" lon="10.756002541054135"><ele>70.0</ele><time>2026-04-06T15:42:03.923Z</time></trkpt><trkpt lat="45.69536298857455" lon="10.755927309766934"><ele>70.0</ele><time>2026-04-06T15:42:04.923Z</time></trkpt><trkpt lat="45.69522706656031" lon="10.755860223469687"><ele>70.0</ele><time>2026-04-06T15:42:05.923Z</time></trkpt><trkpt lat="45.69509113418146" lon="10.75579565702817"><ele>70.0</ele><time>2026-04-06T15:42:06.923Z</time></trkpt><trkpt lat="45.6949602055137" lon="10.755733422555034"><ele>70.0</ele><time>2026-04-06T15:42:07.923Z</time></trkpt><trkpt lat="45.69483673447396" lon="10.75566885902744"><ele>70.0</ele><time>2026-04-06T15:42:08.923Z</time></trkpt><trkpt lat="45.694710845479825" lon="10.755602187865897"><ele>70.0</ele><time>2026-04-06T15:42:09.923Z</time></trkpt><trkpt lat="45.69458614249788" lon="10.755548815537654"><ele>70.0</ele><time>2026-04-06T15:42:10.923Z</time></trkpt><trkpt lat="45.69446314961353" lon="10.75549286890832"><ele>70.0</ele><time>2026-04-06T15:42:11.923Z</time></trkpt><trkpt lat="45.69434113385169" lon="10.755431140247971"><ele>68.75</ele><time>2026-04-06T15:42:12.923Z</time></trkpt><trkpt lat="45.69421690253077" lon="10.755364220012856"><ele>67.5</ele><time>2026-04-06T15:42:13.923Z</time></trkpt><trkpt lat="45.694091010307034" lon="10.755296061102678"><ele>66.25</ele><time>2026-04-06T15:42:14.923Z</time></trkpt><trkpt lat="45.69396173087186" lon="10.75521392719083"><ele>65.0</ele><time>2026-04-06T15:42:15.923Z</time></trkpt><trkpt lat="45.693830602808774" lon="10.755128011278016"><ele>65.0</ele><time>2026-04-06T15:42:16.923Z</time></trkpt><trkpt lat="45.69368609012072" lon="10.755022444383016"><ele>65.0</ele><time>2026-04-06T15:42:17.923Z</time></trkpt><trkpt lat="45.69353047576424" lon="10.754908560995595"><ele>65.0</ele><time>2026-04-06T15:42:18.923Z</time></trkpt><trkpt lat="45.69336894204739" lon="10.754777897400325"><ele>65.0</ele><time>2026-04-06T15:42:19.923Z</time></trkpt><trkpt lat="45.693187456944294" lon="10.754627650274166"><ele>65.0</ele><time>2026-04-06T15:42:20.923Z</time></trkpt><trkpt lat="45.693015669787" lon="10.754455914368794"><ele>65.0</ele><time>2026-04-06T15:42:21.923Z</time></trkpt><trkpt lat="45.69281747753938" lon="10.754310880397618"><ele>69.0</ele><time>2026-04-06T15:42:22.923Z</time></trkpt><trkpt lat="45.692614195284285" lon="10.7541128232841"><ele>73.0</ele><time>2026-04-06T15:42:23.923Z</time></trkpt><trkpt lat="45.692387397937146" lon="10.75393692094597"><ele>73.0</ele><time>2026-04-06T15:42:24.923Z</time></trkpt><trkpt lat="45.692178844228934" lon="10.753754097653308"><ele>73.0</ele><time>2026-04-06T15:42:25.923Z</time></trkpt><trkpt lat="45.691996721334405" lon="10.753589214510889"><ele>73.0</ele><time>2026-04-06T15:42:26.923Z</time></trkpt><trkpt lat="45.69180955090334" lon="10.753434920473849"><ele>73.0</ele><time>2026-04-06T15:42:27.923Z</time></trkpt><trkpt lat="45.69163168527942" lon="10.753276871060606"><ele>73.0</ele><time>2026-04-06T15:42:28.923Z</time></trkpt><trkpt lat="45.69145240483231" lon="10.753124267921178"><ele>73.0</ele><time>2026-04-06T15:42:29.923Z</time></trkpt><trkpt lat="45.691289937350795" lon="10.752983355078682"><ele>73.0</ele><time>2026-04-06T15:42:30.923Z</time></trkpt><trkpt lat="45.69114071007148" lon="10.75285211038188"><ele>73.0</ele><time>2026-04-06T15:42:31.923Z</time></trkpt><trkpt lat="45.69099183125743" lon="10.752734133616366"><ele>72.0</ele><time>2026-04-06T15:42:32.923Z</time></trkpt><trkpt lat="45.690841482002305" lon="10.752612373494074"><ele>71.0</ele><time>2026-04-06T15:42:33.923Z</time></trkpt><trkpt lat="45.69069375797907" lon="10.752491748497663"><ele>70.0</ele><time>2026-04-06T15:42:34.923Z</time></trkpt><trkpt lat="45.69054755089606" lon="10.752396557344237"><ele>70.0</ele><time>2026-04-06T15:42:35.923Z</time></trkpt><trkpt lat="45.69040956628134" lon="10.752309178282811"><ele>70.0</ele><time>2026-04-06T15:42:36.923Z</time></trkpt><trkpt lat="45.690270200566474" lon="10.752203620371034"><ele>70.0</ele><time>2026-04-06T15:42:37.923Z</time></trkpt><trkpt lat="45.69013661035363" lon="10.75210360643375"><ele>69.0</ele><time>2026-04-06T15:42:38.923Z</time></trkpt><trkpt lat="45.689998279690826" lon="10.752002355902052"><ele>68.0</ele><time>2026-04-06T15:42:39.923Z</time></trkpt><trkpt lat="45.689858535630506" lon="10.75190514570482"><ele>67.0</ele><time>2026-04-06T15:42:40.923Z</time></trkpt><trkpt lat="45.689718034849285" lon="10.751819614642873"><ele>67.0</ele><time>2026-04-06T15:42:41.923Z</time></trkpt><trkpt lat="45.68958841820428" lon="10.751736752790091"><ele>67.0</ele><time>2026-04-06T15:42:42.923Z</time></trkpt><trkpt lat="45.68946984799779" lon="10.751642029098859"><ele>67.0</ele><time>2026-04-06T15:42:43.923Z</time></trkpt><trkpt lat="45.689355566260694" lon="10.75155957883501"><ele>67.0</ele><time>2026-04-06T15:42:44.923Z</time></trkpt><trkpt lat="45.689248792913276" lon="10.75149477370982"><ele>67.8</ele><time>2026-04-06T15:42:45.923Z</time></trkpt><trkpt lat="45.68914146156105" lon="10.751429845923731"><ele>68.6</ele><time>2026-04-06T15:42:46.923Z</time></trkpt><trkpt lat="45.68904806625636" lon="10.751377202473389"><ele>69.39999999999999</ele><time>2026-04-06T15:42:47.923Z</time></trkpt><trkpt lat="45.688953132016096" lon="10.751311360003868"><ele>70.2</ele><time>2026-04-06T15:42:48.923Z</time></trkpt><trkpt lat="45.68886967685751" lon="10.751255809594804"><ele>71.0</ele><time>2026-04-06T15:42:49.923Z</time></trkpt><trkpt lat="45.688784550319255" lon="10.751200899147292"><ele>71.0</ele><time>2026-04-06T15:42:50.923Z</time></trkpt><trkpt lat="45.68870262507894" lon="10.75115468783459"><ele>71.0</ele><time>2026-04-06T15:42:51.923Z</time></trkpt><trkpt lat="45.688626684662985" lon="10.751106832845462"><ele>71.0</ele><time>2026-04-06T15:42:52.923Z</time></trkpt><trkpt lat="45.688536721016554" lon="10.751061329429259"><ele>71.0</ele><time>2026-04-06T15:42:53.923Z</time></trkpt><trkpt lat="45.68844440238295" lon="10.751003243483975"><ele>71.0</ele><time>2026-04-06T15:42:54.923Z</time></trkpt><trkpt lat="45.68834699048013" lon="10.75093686466288"><ele>70.8</ele><time>2026-04-06T15:42:55.923Z</time></trkpt><trkpt lat="45.68825477240956" lon="10.750875488734929"><ele>70.6</ele><time>2026-04-06T15:42:56.923Z</time></trkpt><trkpt lat="45.688174434264106" lon="10.750809942460869"><ele>70.4</ele><time>2026-04-06T15:42:57.923Z</time></trkpt><trkpt lat="45.688084174571465" lon="10.750753141418462"><ele>70.2</ele><time>2026-04-06T15:42:58.923Z</time></trkpt><trkpt lat="45.68801354461431" lon="10.750710238533436"><ele>70.0</ele><time>2026-04-06T15:42:59.923Z</time></trkpt><trkpt lat="45.687932101829674" lon="10.750668525636318"><ele>70.0</ele><time>2026-04-06T15:43:00.923Z</time></trkpt><trkpt lat="45.68785028632903" lon="10.750613343396159"><ele>70.0</ele><time>2026-04-06T15:43:01.923Z</time></trkpt><trkpt lat="45.687755832119656" lon="10.75056392313966"><ele>70.0</ele><time>2026-04-06T15:43:02.923Z</time></trkpt><trkpt lat="45.68766285742149" lon="10.75051631332759"><ele>70.0</ele><time>2026-04-06T15:43:03.923Z</time></trkpt><trkpt lat="45.68758116179662" lon="10.750462100887493"><ele>70.0</ele><time>2026-04-06T15:43:04.923Z</time></trkpt><trkpt lat="45.687497700202655" lon="10.75039332702312"><ele>69.6</ele><time>2026-04-06T15:43:05.923Z</time></trkpt><trkpt lat="45.68743067142443" lon="10.750288776077122"><ele>69.2</ele><time>2026-04-06T15:43:06.923Z</time></trkpt><trkpt lat="45.68734210849029" lon="10.750223862971161"><ele>68.8</ele><time>2026-04-06T15:43:07.923Z</time></trkpt><trkpt lat="45.68727607215163" lon="10.750104621416215"><ele>68.4</ele><time>2026-04-06T15:43:08.923Z</time></trkpt><trkpt lat="45.68717043868468" lon="10.750046316771732"><ele>68.0</ele><time>2026-04-06T15:43:09.923Z</time></trkpt><trkpt lat="45.687073411987676" lon="10.749974825088085"><ele>68.0</ele><time>2026-04-06T15:43:10.923Z</time></trkpt><trkpt lat="45.68697896927953" lon="10.749923672147263"><ele>68.0</ele><time>2026-04-06T15:43:11.923Z</time></trkpt><trkpt lat="45.68692152552341" lon="10.749883171582859"><ele>68.0</ele><time>2026-04-06T15:43:12.923Z</time></trkpt><trkpt lat="45.6868578094918" lon="10.749819164750548"><ele>68.0</ele><time>2026-04-06T15:43:13.923Z</time></trkpt><trkpt lat="45.68679334737576" lon="10.7497387289456"><ele>68.0</ele><time>2026-04-06T15:43:14.923Z</time></trkpt><trkpt lat="45.68672422992643" lon="10.749636121372012"><ele>68.0</ele><time>2026-04-06T15:43:15.923Z</time></trkpt><trkpt lat="45.68664339276504" lon="10.749542385620313"><ele>67.8</ele><time>2026-04-06T15:43:16.923Z</time></trkpt><trkpt lat="45.686554587496815" lon="10.749463814982795"><ele>67.6</ele><time>2026-04-06T15:43:17.923Z</time></trkpt><trkpt lat="45.6864677231086" lon="10.749395502556789"><ele>67.4</ele><time>2026-04-06T15:43:18.923Z</time></trkpt><trkpt lat="45.68637428827862" lon="10.749318295206507"><ele>67.2</ele><time>2026-04-06T15:43:19.923Z</time></trkpt><trkpt lat="45.68628976032976" lon="10.7492461886373"><ele>67.0</ele><time>2026-04-06T15:43:20.923Z</time></trkpt><trkpt lat="45.68619384672351" lon="10.749186989733973"><ele>68.25</ele><time>2026-04-06T15:43:21.923Z</time></trkpt><trkpt lat="45.68608983026177" lon="10.749163464186624"><ele>69.5</ele><time>2026-04-06T15:43:22.923Z</time></trkpt><trkpt lat="45.685993547512915" lon="10.749093767118028"><ele>70.75</ele><time>2026-04-06T15:43:23.923Z</time></trkpt><trkpt lat="45.68588195356573" lon="10.749018583310484"><ele>72.0</ele><time>2026-04-06T15:43:24.923Z</time></trkpt><trkpt lat="45.68577408746258" lon="10.748939138126554"><ele>72.0</ele><time>2026-04-06T15:43:25.923Z</time></trkpt><trkpt lat="45.68565882086656" lon="10.748884958631653"><ele>72.0</ele><time>2026-04-06T15:43:26.923Z</time></trkpt><trkpt lat="45.68554872566761" lon="10.7488254228328"><ele>72.0</ele><time>2026-04-06T15:43:27.923Z</time></trkpt><trkpt lat="45.68543550577539" lon="10.748756192483844"><ele>72.0</ele><time>2026-04-06T15:43:28.923Z</time></trkpt><trkpt lat="45.68532213155397" lon="10.748692148916987"><ele>71.4</ele><time>2026-04-06T15:43:29.923Z</time></trkpt><trkpt lat="45.68522253981999" lon="10.748629109323812"><ele>70.80000000000001</ele><time>2026-04-06T15:43:30.923Z</time></trkpt><trkpt lat="45.685134615626936" lon="10.748573182264582"><ele>70.2</ele><time>2026-04-06T15:43:31.923Z</time></trkpt><trkpt lat="45.68504571227365" lon="10.748519928122544"><ele>69.60000000000001</ele><time>2026-04-06T15:43:32.923Z</time></trkpt><trkpt lat="45.68495997023799" lon="10.748470596093485"><ele>69.0</ele><time>2026-04-06T15:43:33.923Z</time></trkpt><trkpt lat="45.68486220298799" lon="10.748415501160741"><ele>69.0</ele><time>2026-04-06T15:43:34.923Z</time></trkpt><trkpt lat="45.68475556479485" lon="10.74834581430117"><ele>69.0</ele><time>2026-04-06T15:43:35.923Z</time></trkpt><trkpt lat="45.684651066120885" lon="10.74825951084366"><ele>69.0</ele><time>2026-04-06T15:43:36.923Z</time></trkpt><trkpt lat="45.684557621934054" lon="10.748180259514468"><ele>69.0</ele><time>2026-04-06T15:43:37.923Z</time></trkpt><trkpt lat="45.6844578779823" lon="10.748103767541224"><ele>74.33333333333333</ele><time>2026-04-06T15:43:38.923Z</time></trkpt><trkpt lat="45.68434763829418" lon="10.7480069011047"><ele>79.66666666666666</ele><time>2026-04-06T15:43:39.923Z</time></trkpt><trkpt lat="45.684219092119825" lon="10.747896200032386"><ele>85.0</ele><time>2026-04-06T15:43:40.923Z</time></trkpt><trkpt lat="45.68407284612355" lon="10.747756584638859"><ele>85.0</ele><time>2026-04-06T15:43:41.923Z</time></trkpt><trkpt lat="45.68391058565852" lon="10.747570607929564"><ele>85.0</ele><time>2026-04-06T15:43:42.923Z</time></trkpt><trkpt lat="45.68373793527988" lon="10.747400949439575"><ele>85.0</ele><time>2026-04-06T15:43:43.923Z</time></trkpt><trkpt lat="45.683571856543104" lon="10.74726015048421"><ele>85.0</ele><time>2026-04-06T15:43:44.923Z</time></trkpt><trkpt lat="45.68343368751946" lon="10.747119400199383"><ele>85.0</ele><time>2026-04-06T15:43:45.923Z</time></trkpt><trkpt lat="45.68330302767728" lon="10.74698657638189"><ele>85.0</ele><time>2026-04-06T15:43:46.923Z</time></trkpt><trkpt lat="45.68317893979992" lon="10.746862086274266"><ele>85.75</ele><time>2026-04-06T15:43:47.923Z</time></trkpt><trkpt lat="45.683071157927955" lon="10.746751085208167"><ele>86.5</ele><time>2026-04-06T15:43:48.923Z</time></trkpt><trkpt lat="45.68295409351347" lon="10.746648216678789"><ele>87.25</ele><time>2026-04-06T15:43:49.923Z</time></trkpt><trkpt lat="45.682825760834056" lon="10.746523236777701"><ele>88.0</ele><time>2026-04-06T15:43:50.923Z</time></trkpt><trkpt lat="45.682706620951585" lon="10.746402418617711"><ele>88.0</ele><time>2026-04-06T15:43:51.923Z</time></trkpt><trkpt lat="45.682600221600886" lon="10.74629322017879"><ele>88.0</ele><time>2026-04-06T15:43:52.923Z</time></trkpt><trkpt lat="45.68249751387426" lon="10.746193778373467"><ele>88.0</ele><time>2026-04-06T15:43:53.923Z</time></trkpt><trkpt lat="45.68239486398617" lon="10.746100277423336"><ele>88.0</ele><time>2026-04-06T15:43:54.923Z</time></trkpt><trkpt lat="45.68229024604789" lon="10.745999066780426"><ele>87.25</ele><time>2026-04-06T15:43:55.923Z</time></trkpt><trkpt lat="45.68219212302385" lon="10.745896987064285"><ele>86.5</ele><time>2026-04-06T15:43:56.923Z</time></trkpt><trkpt lat="45.682091746553894" lon="10.745800950700014"><ele>85.75</ele><time>2026-04-06T15:43:57.923Z</time></trkpt><trkpt lat="45.68200191325482" lon="10.7457026560312"><ele>85.0</ele><time>2026-04-06T15:43:58.923Z</time></trkpt><trkpt lat="45.681878773839756" lon="10.745593583147459"><ele>85.0</ele><time>2026-04-06T15:43:59.923Z</time></trkpt><trkpt lat="45.681749186984696" lon="10.745440742991194"><ele>85.0</ele><time>2026-04-06T15:44:00.923Z</time></trkpt><trkpt lat="45.681593424278766" lon="10.745287830217054"><ele>85.0</ele><time>2026-04-06T15:44:01.923Z</time></trkpt><trkpt lat="45.68141070867843" lon="10.74510774126531"><ele>83.33333333333333</ele><time>2026-04-06T15:44:02.923Z</time></trkpt><trkpt lat="45.681223269305875" lon="10.744922924823028"><ele>81.66666666666667</ele><time>2026-04-06T15:44:03.923Z</time></trkpt><trkpt lat="45.681057729828105" lon="10.744759701972253"><ele>80.0</ele><time>2026-04-06T15:44:04.923Z</time></trkpt><trkpt lat="45.68089952349221" lon="10.74462765650998"><ele>80.0</ele><time>2026-04-06T15:44:05.923Z</time></trkpt><trkpt lat="45.680759983726055" lon="10.744478629116507"><ele>80.0</ele><time>2026-04-06T15:44:06.923Z</time></trkpt><trkpt lat="45.680619256294456" lon="10.74433773892075"><ele>80.0</ele><time>2026-04-06T15:44:07.923Z</time></trkpt><trkpt lat="45.68048698127893" lon="10.744178017916143"><ele>81.0</ele><time>2026-04-06T15:44:08.923Z</time></trkpt><trkpt lat="45.680347150017234" lon="10.743994542132182"><ele>82.0</ele><time>2026-04-06T15:44:09.923Z</time></trkpt><trkpt lat="45.68021221008676" lon="10.743772655888204"><ele>83.0</ele><time>2026-04-06T15:44:10.923Z</time></trkpt><trkpt lat="45.680081449286604" lon="10.743539944821123"><ele>79.33333333333334</ele><time>2026-04-06T15:44:11.923Z</time></trkpt><trkpt lat="45.679952225093224" lon="10.743306245405966"><ele>75.66666666666667</ele><time>2026-04-06T15:44:12.923Z</time></trkpt><trkpt lat="45.67982432046881" lon="10.743076390580772"><ele>72.0</ele><time>2026-04-06T15:44:13.923Z</time></trkpt><trkpt lat="45.67970300378434" lon="10.742852769205525"><ele>73.0</ele><time>2026-04-06T15:44:14.923Z</time></trkpt><trkpt lat="45.67960032212853" lon="10.742627220773189"><ele>74.0</ele><time>2026-04-06T15:44:15.923Z</time></trkpt><trkpt lat="45.679480889220976" lon="10.74240482108215"><ele>75.0</ele><time>2026-04-06T15:44:16.923Z</time></trkpt><trkpt lat="45.67936570206637" lon="10.742189880600934"><ele>75.0</ele><time>2026-04-06T15:44:17.923Z</time></trkpt><trkpt lat="45.67925580094952" lon="10.741998266775635"><ele>75.0</ele><time>2026-04-06T15:44:18.923Z</time></trkpt><trkpt lat="45.67913619522243" lon="10.741831375209431"><ele>75.0</ele><time>2026-04-06T15:44:19.923Z</time></trkpt><trkpt lat="45.67901954459787" lon="10.741653398352641"><ele>72.66666666666667</ele><time>2026-04-06T15:44:20.923Z</time></trkpt><trkpt lat="45.67888960303075" lon="10.74148764653767"><ele>70.33333333333334</ele><time>2026-04-06T15:44:21.923Z</time></trkpt><trkpt lat="45.678755517083054" lon="10.741327362451553"><ele>68.0</ele><time>2026-04-06T15:44:22.923Z</time></trkpt><trkpt lat="45.678615923441356" lon="10.741164933299139"><ele>67.66666666666667</ele><time>2026-04-06T15:44:23.923Z</time></trkpt><trkpt lat="45.67846276833737" lon="10.74101366944639"><ele>67.33333333333333</ele><time>2026-04-06T15:44:24.923Z</time></trkpt><trkpt lat="45.678298547672675" lon="10.7408671077214"><ele>67.0</ele><time>2026-04-06T15:44:25.923Z</time></trkpt><trkpt lat="45.6781247337316" lon="10.740729158457961"><ele>67.0</ele><time>2026-04-06T15:44:26.923Z</time></trkpt><trkpt lat="45.67794304718488" lon="10.740600646042008"><ele>67.0</ele><time>2026-04-06T15:44:27.923Z</time></trkpt><trkpt lat="45.677778324199444" lon="10.740478285323654"><ele>67.0</ele><time>2026-04-06T15:44:28.923Z</time></trkpt><trkpt lat="45.67759463405917" lon="10.740372702169504"><ele>67.0</ele><time>2026-04-06T15:44:29.923Z</time></trkpt><trkpt lat="45.677414720668466" lon="10.740262666934187"><ele>67.0</ele><time>2026-04-06T15:44:30.923Z</time></trkpt><trkpt lat="45.6772376200481" lon="10.740154954353374"><ele>67.0</ele><time>2026-04-06T15:44:31.923Z</time></trkpt><trkpt lat="45.677069684281314" lon="10.740049752078562"><ele>69.33333333333333</ele><time>2026-04-06T15:44:32.923Z</time></trkpt><trkpt lat="45.67690214034775" lon="10.739920192181895"><ele>71.66666666666667</ele><time>2026-04-06T15:44:33.923Z</time></trkpt><trkpt lat="45.676719789660076" lon="10.739847495228448"><ele>74.0</ele><time>2026-04-06T15:44:34.923Z</time></trkpt><trkpt lat="45.67655542987543" lon="10.739740775112962"><ele>74.0</ele><time>2026-04-06T15:44:35.923Z</time></trkpt><trkpt lat="45.67636647608876" lon="10.739642627621539"><ele>74.0</ele><time>2026-04-06T15:44:36.923Z</time></trkpt><trkpt lat="45.67616573857765" lon="10.7395466190836"><ele>74.0</ele><time>2026-04-06T15:44:37.923Z</time></trkpt><trkpt lat="45.676131122945705" lon="10.73944305505032"><ele>71.66666666666667</ele><time>2026-04-06T15:44:38.923Z</time></trkpt><trkpt lat="45.67598023234842" lon="10.739345828025765"><ele>69.33333333333333</ele><time>2026-04-06T15:44:39.923Z</time></trkpt><trkpt lat="45.67584194619269" lon="10.739256685392284"><ele>67.0</ele><time>2026-04-06T15:44:40.923Z</time></trkpt><trkpt lat="45.67570767185646" lon="10.739166470836935"><ele>67.0</ele><time>2026-04-06T15:44:41.923Z</time></trkpt><trkpt lat="45.67557721929337" lon="10.739086142914909"><ele>67.0</ele><time>2026-04-06T15:44:42.923Z</time></trkpt><trkpt lat="45.675458835256485" lon="10.739005162823668"><ele>67.0</ele><time>2026-04-06T15:44:43.923Z</time></trkpt><trkpt lat="45.6753308690486" lon="10.738923716936476"><ele>67.0</ele><time>2026-04-06T15:44:44.923Z</time></trkpt><trkpt lat="45.67521669865214" lon="10.738847507517818"><ele>67.0</ele><time>2026-04-06T15:44:45.923Z</time></trkpt><trkpt lat="45.67509145477351" lon="10.738776806489293"><ele>67.0</ele><time>2026-04-06T15:44:46.923Z</time></trkpt><trkpt lat="45.67497676648351" lon="10.73869554983925"><ele>67.0</ele><time>2026-04-06T15:44:47.923Z</time></trkpt><trkpt lat="45.67486476636977" lon="10.738619719141997"><ele>67.0</ele><time>2026-04-06T15:44:48.923Z</time></trkpt><trkpt lat="45.67474725475787" lon="10.7385465670443"><ele>67.0</ele><time>2026-04-06T15:44:49.923Z</time></trkpt><trkpt lat="45.674628127307386" lon="10.738464621536318"><ele>67.0</ele><time>2026-04-06T15:44:50.923Z</time></trkpt><trkpt lat="45.6745069147943" lon="10.738389696483651"><ele>67.0</ele><time>2026-04-06T15:44:51.923Z</time></trkpt><trkpt lat="45.67438632726288" lon="10.738302536241585"><ele>67.0</ele><time>2026-04-06T15:44:52.923Z</time></trkpt><trkpt lat="45.674265366101125" lon="10.738215914495587"><ele>69.75</ele><time>2026-04-06T15:44:53.923Z</time></trkpt><trkpt lat="45.6741362226753" lon="10.738137201791554"><ele>72.5</ele><time>2026-04-06T15:44:54.923Z</time></trkpt><trkpt lat="45.67401732394821" lon="10.738057471928984"><ele>75.25</ele><time>2026-04-06T15:44:55.923Z</time></trkpt><trkpt lat="45.673900102737825" lon="10.73797215429433"><ele>78.0</ele><time>2026-04-06T15:44:56.923Z</time></trkpt><trkpt lat="45.67378769051412" lon="10.737882246415577"><ele>78.0</ele><time>2026-04-06T15:44:57.923Z</time></trkpt><trkpt lat="45.67367703049007" lon="10.737764606440857"><ele>78.0</ele><time>2026-04-06T15:44:58.923Z</time></trkpt><trkpt lat="45.67356597412777" lon="10.737667287794874"><ele>78.0</ele><time>2026-04-06T15:44:59.923Z</time></trkpt><trkpt lat="45.6734649063464" lon="10.737562179739003"><ele>78.0</ele><time>2026-04-06T15:45:00.923Z</time></trkpt><trkpt lat="45.67337707808703" lon="10.737483087152796"><ele>76.4</ele><time>2026-04-06T15:45:01.923Z</time></trkpt><trkpt lat="45.673284795918036" lon="10.737401931024362"><ele>74.8</ele><time>2026-04-06T15:45:02.923Z</time></trkpt><trkpt lat="45.673198429973695" lon="10.73731476829034"><ele>73.2</ele><time>2026-04-06T15:45:03.923Z</time></trkpt><trkpt lat="45.673119913049824" lon="10.737236500079604"><ele>71.6</ele><time>2026-04-06T15:45:04.923Z</time></trkpt><trkpt lat="45.67300655045082" lon="10.737135229102694"><ele>70.0</ele><time>2026-04-06T15:45:05.923Z</time></trkpt><trkpt lat="45.672922581282634" lon="10.737057705453863"><ele>70.0</ele><time>2026-04-06T15:45:06.923Z</time></trkpt><trkpt lat="45.67284500052056" lon="10.736978450918773"><ele>70.0</ele><time>2026-04-06T15:45:07.923Z</time></trkpt><trkpt lat="45.67277992515935" lon="10.736895887123124"><ele>70.0</ele><time>2026-04-06T15:45:08.923Z</time></trkpt><trkpt lat="45.67268763301966" lon="10.736832519472458"><ele>70.0</ele><time>2026-04-06T15:45:09.923Z</time></trkpt><trkpt lat="45.67258566471923" lon="10.736719269779565"><ele>70.0</ele><time>2026-04-06T15:45:10.923Z</time></trkpt><trkpt lat="45.67247211964453" lon="10.736589578454257"><ele>71.0</ele><time>2026-04-06T15:45:11.923Z</time></trkpt><trkpt lat="45.67235777085835" lon="10.73647978449219"><ele>72.0</ele><time>2026-04-06T15:45:12.923Z</time></trkpt><trkpt lat="45.67223722897453" lon="10.736381967124148"><ele>73.0</ele><time>2026-04-06T15:45:13.923Z</time></trkpt><trkpt lat="45.672111406261" lon="10.736286797187187"><ele>74.0</ele><time>2026-04-06T15:45:14.923Z</time></trkpt><trkpt lat="45.67200081264997" lon="10.736159816498814"><ele>74.0</ele><time>2026-04-06T15:45:15.923Z</time></trkpt><trkpt lat="45.67188001495599" lon="10.736048330342394"><ele>74.0</ele><time>2026-04-06T15:45:16.923Z</time></trkpt><trkpt lat="45.67175024342721" lon="10.735947993392273"><ele>74.0</ele><time>2026-04-06T15:45:17.923Z</time></trkpt><trkpt lat="45.671625454968456" lon="10.735821668968097"><ele>74.0</ele><time>2026-04-06T15:45:18.923Z</time></trkpt><trkpt lat="45.67150877858357" lon="10.735703771980644"><ele>74.0</ele><time>2026-04-06T15:45:19.923Z</time></trkpt><trkpt lat="45.67139919156817" lon="10.735591383206376"><ele>74.0</ele><time>2026-04-06T15:45:20.923Z</time></trkpt><trkpt lat="45.67128819105014" lon="10.735484380672988"><ele>74.0</ele><time>2026-04-06T15:45:21.923Z</time></trkpt><trkpt lat="45.67117207025645" lon="10.735373835985342"><ele>74.0</ele><time>2026-04-06T15:45:22.923Z</time></trkpt><trkpt lat="45.67105567859362" lon="10.735271577237995"><ele>74.5</ele><time>2026-04-06T15:45:23.923Z</time></trkpt><trkpt lat="45.67093687365589" lon="10.735165057482474"><ele>75.0</ele><time>2026-04-06T15:45:24.923Z</time></trkpt><trkpt lat="45.6708220997446" lon="10.735057319306831"><ele>75.5</ele><time>2026-04-06T15:45:25.923Z</time></trkpt><trkpt lat="45.67070760169406" lon="10.734948807571337"><ele>76.0</ele><time>2026-04-06T15:45:26.923Z</time></trkpt><trkpt lat="45.67060082888228" lon="10.734840124721385"><ele>76.0</ele><time>2026-04-06T15:45:27.923Z</time></trkpt><trkpt lat="45.67048724644989" lon="10.734742792149913"><ele>76.0</ele><time>2026-04-06T15:45:28.923Z</time></trkpt><trkpt lat="45.67037803137082" lon="10.734611550616012"><ele>76.0</ele><time>2026-04-06T15:45:29.923Z</time></trkpt><trkpt lat="45.67026326704141" lon="10.734525493673617"><ele>76.0</ele><time>2026-04-06T15:45:30.923Z</time></trkpt><trkpt lat="45.67014444853044" lon="10.734386243161532"><ele>75.0</ele><time>2026-04-06T15:45:31.923Z</time></trkpt><trkpt lat="45.67000609536548" lon="10.734253754017105"><ele>74.0</ele><time>2026-04-06T15:45:32.923Z</time></trkpt><trkpt lat="45.66984273641179" lon="10.73412353490624"><ele>73.0</ele><time>2026-04-06T15:45:33.923Z</time></trkpt><trkpt lat="45.669678534205104" lon="10.733961032326613"><ele>73.0</ele><time>2026-04-06T15:45:34.923Z</time></trkpt><trkpt lat="45.66948793425276" lon="10.733788153592657"><ele>73.0</ele><time>2026-04-06T15:45:35.923Z</time></trkpt><trkpt lat="45.669297464388016" lon="10.73361462180579"><ele>71.0</ele><time>2026-04-06T15:45:36.923Z</time></trkpt><trkpt lat="45.6691219649859" lon="10.733453187929026"><ele>69.0</ele><time>2026-04-06T15:45:37.923Z</time></trkpt><trkpt lat="45.66895227028431" lon="10.733293961663042"><ele>67.0</ele><time>2026-04-06T15:45:38.923Z</time></trkpt><trkpt lat="45.668787607781795" lon="10.733140372466545"><ele>67.0</ele><time>2026-04-06T15:45:39.923Z</time></trkpt><trkpt lat="45.668639404861494" lon="10.73299311571747"><ele>67.0</ele><time>2026-04-06T15:45:40.923Z</time></trkpt><trkpt lat="45.66848800541528" lon="10.73285336420769"><ele>67.0</ele><time>2026-04-06T15:45:41.923Z</time></trkpt><trkpt lat="45.66833477383363" lon="10.732657706758339"><ele>67.33333333333333</ele><time>2026-04-06T15:45:42.923Z</time></trkpt><trkpt lat="45.66818000610211" lon="10.732526339206524"><ele>67.66666666666667</ele><time>2026-04-06T15:45:43.923Z</time></trkpt><trkpt lat="45.668012386608645" lon="10.732399609418282"><ele>68.0</ele><time>2026-04-06T15:45:44.923Z</time></trkpt><trkpt lat="45.66782858631772" lon="10.732275948804478"><ele>76.0</ele><time>2026-04-06T15:45:45.923Z</time></trkpt><trkpt lat="45.66762606623422" lon="10.732144351871037"><ele>84.0</ele><time>2026-04-06T15:45:46.923Z</time></trkpt><trkpt lat="45.66740594700592" lon="10.732001101313033"><ele>75.0</ele><time>2026-04-06T15:45:47.923Z</time></trkpt><trkpt lat="45.667184249500494" lon="10.731856823510794"><ele>66.0</ele><time>2026-04-06T15:45:48.923Z</time></trkpt><trkpt lat="45.666987578391236" lon="10.73172883263418"><ele>69.0</ele><time>2026-04-06T15:45:49.923Z</time></trkpt><trkpt lat="45.666805558567596" lon="10.731610376517834"><ele>72.0</ele><time>2026-04-06T15:45:50.923Z</time></trkpt><trkpt lat="45.666619952733456" lon="10.731525513210576"><ele>75.0</ele><time>2026-04-06T15:45:51.923Z</time></trkpt><trkpt lat="45.66645680727098" lon="10.73141581316921"><ele>75.0</ele><time>2026-04-06T15:45:52.923Z</time></trkpt><trkpt lat="45.666292743591434" lon="10.731304048807775"><ele>75.0</ele><time>2026-04-06T15:45:53.923Z</time></trkpt><trkpt lat="45.66614317627318" lon="10.731185027015696"><ele>75.0</ele><time>2026-04-06T15:45:54.923Z</time></trkpt><trkpt lat="45.665992912197396" lon="10.731066967523022"><ele>74.33333333333333</ele><time>2026-04-06T15:45:55.923Z</time></trkpt><trkpt lat="45.66585765252693" lon="10.730941396009918"><ele>73.66666666666666</ele><time>2026-04-06T15:45:56.923Z</time></trkpt><trkpt lat="45.66571750132635" lon="10.7308176495164"><ele>73.0</ele><time>2026-04-06T15:45:57.923Z</time></trkpt><trkpt lat="45.66558149338289" lon="10.730694131057906"><ele>73.0</ele><time>2026-04-06T15:45:58.923Z</time></trkpt><trkpt lat="45.66544534364413" lon="10.73056657479733"><ele>73.0</ele><time>2026-04-06T15:45:59.923Z</time></trkpt><trkpt lat="45.665316007409494" lon="10.730446163640488"><ele>73.0</ele><time>2026-04-06T15:46:00.923Z</time></trkpt><trkpt lat="45.665184486267215" lon="10.730336319356788"><ele>71.66666666666666</ele><time>2026-04-06T15:46:01.923Z</time></trkpt><trkpt lat="45.66504906259921" lon="10.730219680962863"><ele>70.33333333333333</ele><time>2026-04-06T15:46:02.923Z</time></trkpt><trkpt lat="45.664923022731784" lon="10.730113655401157"><ele>69.0</ele><time>2026-04-06T15:46:03.923Z</time></trkpt><trkpt lat="45.66479972835535" lon="10.730000008748371"><ele>69.0</ele><time>2026-04-06T15:46:04.923Z</time></trkpt><trkpt lat="45.664666338358856" lon="10.72988474643248"><ele>69.0</ele><time>2026-04-06T15:46:05.923Z</time></trkpt><trkpt lat="45.66453154037682" lon="10.729768766127389"><ele>69.0</ele><time>2026-04-06T15:46:06.923Z</time></trkpt><trkpt lat="45.66439405689542" lon="10.729651034122687"><ele>68.33333333333333</ele><time>2026-04-06T15:46:07.923Z</time></trkpt><trkpt lat="45.66424794068272" lon="10.729504983638309"><ele>67.66666666666666</ele><time>2026-04-06T15:46:08.923Z</time></trkpt><trkpt lat="45.66409725518054" lon="10.729399365277212"><ele>67.0</ele><time>2026-04-06T15:46:09.923Z</time></trkpt><trkpt lat="45.66395735175135" lon="10.729267160451172"><ele>67.0</ele><time>2026-04-06T15:46:10.923Z</time></trkpt><trkpt lat="45.66381570632869" lon="10.729140228319872"><ele>67.0</ele><time>2026-04-06T15:46:11.923Z</time></trkpt><trkpt lat="45.66368007580676" lon="10.729015556996552"><ele>67.0</ele><time>2026-04-06T15:46:12.923Z</time></trkpt><trkpt lat="45.66353782345393" lon="10.728890471033202"><ele>66.33333333333333</ele><time>2026-04-06T15:46:13.923Z</time></trkpt><trkpt lat="45.66338769451869" lon="10.728761328934283"><ele>65.66666666666667</ele><time>2026-04-06T15:46:14.923Z</time></trkpt><trkpt lat="45.6632478306927" lon="10.72864086911824"><ele>65.0</ele><time>2026-04-06T15:46:15.923Z</time></trkpt><trkpt lat="45.663117020176855" lon="10.728527109175507"><ele>65.0</ele><time>2026-04-06T15:46:16.923Z</time></trkpt><trkpt lat="45.66298666373154" lon="10.72842399641949"><ele>65.0</ele><time>2026-04-06T15:46:17.923Z</time></trkpt><trkpt lat="45.66286695861317" lon="10.728327895166952"><ele>65.0</ele><time>2026-04-06T15:46:18.923Z</time></trkpt><trkpt lat="45.66274275054654" lon="10.728244822829613"><ele>65.0</ele><time>2026-04-06T15:46:19.923Z</time></trkpt><trkpt lat="45.662623646421565" lon="10.72814500050068"><ele>70.0</ele><time>2026-04-06T15:46:20.923Z</time></trkpt><trkpt lat="45.662468557911644" lon="10.728053300309853"><ele>75.0</ele><time>2026-04-06T15:46:21.923Z</time></trkpt><trkpt lat="45.66228461350682" lon="10.727949938998321"><ele>80.0</ele><time>2026-04-06T15:46:22.923Z</time></trkpt><trkpt lat="45.662103109789044" lon="10.72784990426293"><ele>83.33333333333334</ele><time>2026-04-06T15:46:23.923Z</time></trkpt><trkpt lat="45.6619434891192" lon="10.727780178327361"><ele>86.66666666666667</ele><time>2026-04-06T15:46:24.923Z</time></trkpt><trkpt lat="45.661798806030724" lon="10.727689531390794"><ele>90.0</ele><time>2026-04-06T15:46:25.923Z</time></trkpt><trkpt lat="45.66168106129347" lon="10.727570682639419"><ele>84.75</ele><time>2026-04-06T15:46:26.923Z</time></trkpt><trkpt lat="45.6615724715909" lon="10.7274444072676"><ele>79.5</ele><time>2026-04-06T15:46:27.923Z</time></trkpt><trkpt lat="45.66147553274529" lon="10.727310189906628"><ele>74.25</ele><time>2026-04-06T15:46:28.923Z</time></trkpt><trkpt lat="45.66139002592608" lon="10.727192831154474"><ele>69.0</ele><time>2026-04-06T15:46:29.923Z</time></trkpt><trkpt lat="45.66130067811593" lon="10.72710299269191"><ele>69.0</ele><time>2026-04-06T15:46:30.923Z</time></trkpt><trkpt lat="45.66123638292131" lon="10.726997726094188"><ele>69.0</ele><time>2026-04-06T15:46:31.923Z</time></trkpt><trkpt lat="45.6611614095935" lon="10.726895896018133"><ele>69.0</ele><time>2026-04-06T15:46:32.923Z</time></trkpt><trkpt lat="45.66108982172676" lon="10.726802528634552"><ele>69.0</ele><time>2026-04-06T15:46:33.923Z</time></trkpt><trkpt lat="45.661007971947946" lon="10.7267245009641"><ele>69.0</ele><time>2026-04-06T15:46:34.923Z</time></trkpt><trkpt lat="45.66091439629942" lon="10.726651522396924"><ele>70.2</ele><time>2026-04-06T15:46:35.923Z</time></trkpt><trkpt lat="45.66083205711963" lon="10.726595570492542"><ele>71.4</ele><time>2026-04-06T15:46:36.923Z</time></trkpt><trkpt lat="45.66073392576178" lon="10.726539678824942"><ele>72.6</ele><time>2026-04-06T15:46:37.923Z</time></trkpt><trkpt lat="45.66062429292466" lon="10.72648083255639"><ele>73.8</ele><time>2026-04-06T15:46:38.923Z</time></trkpt><trkpt lat="45.66052295849075" lon="10.726427174372548"><ele>75.0</ele><time>2026-04-06T15:46:39.923Z</time></trkpt><trkpt lat="45.66042074943989" lon="10.726366933312669"><ele>75.0</ele><time>2026-04-06T15:46:40.923Z</time></trkpt><trkpt lat="45.66029967248603" lon="10.726304556739922"><ele>75.0</ele><time>2026-04-06T15:46:41.923Z</time></trkpt><trkpt lat="45.66017449478653" lon="10.72623042946337"><ele>75.0</ele><time>2026-04-06T15:46:42.923Z</time></trkpt><trkpt lat="45.6600577031814" lon="10.726167701152615"><ele>75.0</ele><time>2026-04-06T15:46:43.923Z</time></trkpt><trkpt lat="45.659936692167285" lon="10.726100523048288"><ele>75.0</ele><time>2026-04-06T15:46:44.923Z</time></trkpt><trkpt lat="45.65980802532095" lon="10.726027740375416"><ele>75.0</ele><time>2026-04-06T15:46:45.923Z</time></trkpt><trkpt lat="45.65968210530171" lon="10.725951476466467"><ele>75.0</ele><time>2026-04-06T15:46:46.923Z</time></trkpt><trkpt lat="45.659541440199185" lon="10.725871223290772"><ele>75.0</ele><time>2026-04-06T15:46:47.923Z</time></trkpt><trkpt lat="45.65940397058422" lon="10.725790143901976"><ele>75.0</ele><time>2026-04-06T15:46:48.923Z</time></trkpt><trkpt lat="45.65927986709715" lon="10.725717744650407"><ele>75.0</ele><time>2026-04-06T15:46:49.923Z</time></trkpt><trkpt lat="45.659155047419645" lon="10.725645069674245"><ele>75.0</ele><time>2026-04-06T15:46:50.923Z</time></trkpt><trkpt lat="45.65902046026327" lon="10.725572860478927"><ele>75.0</ele><time>2026-04-06T15:46:51.923Z</time></trkpt><trkpt lat="45.65889899160059" lon="10.725505092509168"><ele>75.0</ele><time>2026-04-06T15:46:52.923Z</time></trkpt><trkpt lat="45.65879031366545" lon="10.725440044599397"><ele>75.0</ele><time>2026-04-06T15:46:53.923Z</time></trkpt><trkpt lat="45.658693343375276" lon="10.725375436051284"><ele>75.0</ele><time>2026-04-06T15:46:54.923Z</time></trkpt><trkpt lat="45.658590586609805" lon="10.725308144684485"><ele>75.0</ele><time>2026-04-06T15:46:55.923Z</time></trkpt><trkpt lat="45.65849321963991" lon="10.725228702958796"><ele>72.75</ele><time>2026-04-06T15:46:56.923Z</time></trkpt><trkpt lat="45.65838754365623" lon="10.725139626428572"><ele>70.5</ele><time>2026-04-06T15:46:57.923Z</time></trkpt><trkpt lat="45.658294189282564" lon="10.725043435658977"><ele>68.25</ele><time>2026-04-06T15:46:58.923Z</time></trkpt><trkpt lat="45.65819980763756" lon="10.724941401443939"><ele>66.0</ele><time>2026-04-06T15:46:59.923Z</time></trkpt><trkpt lat="45.65810881791318" lon="10.724832246220704"><ele>66.0</ele><time>2026-04-06T15:47:00.923Z</time></trkpt><trkpt lat="45.65798769883914" lon="10.72469715898152"><ele>66.0</ele><time>2026-04-06T15:47:01.923Z</time></trkpt><trkpt lat="45.657845896891736" lon="10.724542082993132"><ele>66.0</ele><time>2026-04-06T15:47:02.923Z</time></trkpt><trkpt lat="45.65771876707582" lon="10.724407936667784"><ele>66.0</ele><time>2026-04-06T15:47:03.923Z</time></trkpt><trkpt lat="45.65761030569352" lon="10.724283894167993"><ele>66.0</ele><time>2026-04-06T15:47:04.923Z</time></trkpt><trkpt lat="45.65750823020861" lon="10.724170404791348"><ele>66.0</ele><time>2026-04-06T15:47:05.923Z</time></trkpt><trkpt lat="45.65740696474993" lon="10.7240648775486"><ele>66.0</ele><time>2026-04-06T15:47:06.923Z</time></trkpt><trkpt lat="45.657294645740144" lon="10.723962096041685"><ele>66.0</ele><time>2026-04-06T15:47:07.923Z</time></trkpt><trkpt lat="45.657170045307126" lon="10.723862465854479"><ele>66.0</ele><time>2026-04-06T15:47:08.923Z</time></trkpt><trkpt lat="45.65702505685678" lon="10.723755772545415"><ele>66.0</ele><time>2026-04-06T15:47:09.923Z</time></trkpt><trkpt lat="45.65686964530277" lon="10.723644126516284"><ele>65.33333333333333</ele><time>2026-04-06T15:47:10.923Z</time></trkpt><trkpt lat="45.65672116800214" lon="10.723544613748912"><ele>64.66666666666666</ele><time>2026-04-06T15:47:11.923Z</time></trkpt><trkpt lat="45.6565528525721" lon="10.723442414424795"><ele>64.0</ele><time>2026-04-06T15:47:12.923Z</time></trkpt><trkpt lat="45.656393892424184" lon="10.723351039619612"><ele>64.0</ele><time>2026-04-06T15:47:13.923Z</time></trkpt><trkpt lat="45.656227338985175" lon="10.723260750924004"><ele>64.0</ele><time>2026-04-06T15:47:14.923Z</time></trkpt><trkpt lat="45.6560604724434" lon="10.723176603584779"><ele>64.0</ele><time>2026-04-06T15:47:15.923Z</time></trkpt><trkpt lat="45.65592777085565" lon="10.72308470709912"><ele>65.25</ele><time>2026-04-06T15:47:16.923Z</time></trkpt><trkpt lat="45.65581484518449" lon="10.723043343921471"><ele>66.5</ele><time>2026-04-06T15:47:17.923Z</time></trkpt><trkpt lat="45.65571833325815" lon="10.722986425337483"><ele>67.75</ele><time>2026-04-06T15:47:18.923Z</time></trkpt><trkpt lat="45.65561231505042" lon="10.722928063347346"><ele>69.0</ele><time>2026-04-06T15:47:19.923Z</time></trkpt><trkpt lat="45.65549866606651" lon="10.722873773169038"><ele>69.0</ele><time>2026-04-06T15:47:20.923Z</time></trkpt><trkpt lat="45.65537911101403" lon="10.72282966570392"><ele>69.0</ele><time>2026-04-06T15:47:21.923Z</time></trkpt><trkpt lat="45.655263497812854" lon="10.722791243018014"><ele>69.0</ele><time>2026-04-06T15:47:22.923Z</time></trkpt><trkpt lat="45.65515004543035" lon="10.722753208143445"><ele>69.0</ele><time>2026-04-06T15:47:23.923Z</time></trkpt><trkpt lat="45.655038030797265" lon="10.722717352046308"><ele>68.5</ele><time>2026-04-06T15:47:24.923Z</time></trkpt><trkpt lat="45.65491804781933" lon="10.722686448923735"><ele>68.0</ele><time>2026-04-06T15:47:25.923Z</time></trkpt><trkpt lat="45.65480218967357" lon="10.722661837389026"><ele>67.5</ele><time>2026-04-06T15:47:26.923Z</time></trkpt><trkpt lat="45.654692326926885" lon="10.722637559599532"><ele>67.0</ele><time>2026-04-06T15:47:27.923Z</time></trkpt><trkpt lat="45.65458685397656" lon="10.722610463405434"><ele>67.0</ele><time>2026-04-06T15:47:28.923Z</time></trkpt><trkpt lat="45.65448694974322" lon="10.722586413887468"><ele>67.0</ele><time>2026-04-06T15:47:29.923Z</time></trkpt><trkpt lat="45.654387114855574" lon="10.722569797389918"><ele>67.0</ele><time>2026-04-06T15:47:30.923Z</time></trkpt><trkpt lat="45.65430927954333" lon="10.722545802038859"><ele>67.0</ele><time>2026-04-06T15:47:31.923Z</time></trkpt><trkpt lat="45.65422612289999" lon="10.722532863238207"><ele>67.0</ele><time>2026-04-06T15:47:32.923Z</time></trkpt><trkpt lat="45.65413656232637" lon="10.722510669001508"><ele>68.0</ele><time>2026-04-06T15:47:33.923Z</time></trkpt><trkpt lat="45.6540494386425" lon="10.722496743086644"><ele>69.0</ele><time>2026-04-06T15:47:34.923Z</time></trkpt><trkpt lat="45.653949449654" lon="10.722479470182414"><ele>70.0</ele><time>2026-04-06T15:47:35.923Z</time></trkpt><trkpt lat="45.653838550683375" lon="10.722453751290567"><ele>71.0</ele><time>2026-04-06T15:47:36.923Z</time></trkpt><trkpt lat="45.653713384756735" lon="10.722413726023623"><ele>72.0</ele><time>2026-04-06T15:47:37.923Z</time></trkpt><trkpt lat="45.653591004364245" lon="10.722343600758835"><ele>72.5</ele><time>2026-04-06T15:47:38.923Z</time></trkpt><trkpt lat="45.65347799447636" lon="10.722280457084986"><ele>73.0</ele><time>2026-04-06T15:47:39.923Z</time></trkpt><trkpt lat="45.653369178121984" lon="10.722213170148928"><ele>73.5</ele><time>2026-04-06T15:47:40.923Z</time></trkpt><trkpt lat="45.65326709812584" lon="10.722143542782293"><ele>74.0</ele><time>2026-04-06T15:47:41.923Z</time></trkpt><trkpt lat="45.65316370301424" lon="10.722101313662362"><ele>74.0</ele><time>2026-04-06T15:47:42.923Z</time></trkpt><trkpt lat="45.65307238366444" lon="10.722027869621082"><ele>74.0</ele><time>2026-04-06T15:47:43.923Z</time></trkpt><trkpt lat="45.652983916809625" lon="10.721963759132588"><ele>74.0</ele><time>2026-04-06T15:47:44.923Z</time></trkpt><trkpt lat="45.65288880966167" lon="10.721897061231303"><ele>74.0</ele><time>2026-04-06T15:47:45.923Z</time></trkpt><trkpt lat="45.65278123462145" lon="10.721831393164953"><ele>74.0</ele><time>2026-04-06T15:47:46.923Z</time></trkpt><trkpt lat="45.652660708214185" lon="10.721770010755547"><ele>72.0</ele><time>2026-04-06T15:47:47.923Z</time></trkpt><trkpt lat="45.65251724041968" lon="10.721683256870831"><ele>70.0</ele><time>2026-04-06T15:47:48.923Z</time></trkpt><trkpt lat="45.65233759967183" lon="10.721594629185985"><ele>68.0</ele><time>2026-04-06T15:47:49.923Z</time></trkpt><trkpt lat="45.65211034288383" lon="10.721484974212762"><ele>72.5</ele><time>2026-04-06T15:47:50.923Z</time></trkpt><trkpt lat="45.651868025080816" lon="10.721366066073998"><ele>77.0</ele><time>2026-04-06T15:47:51.923Z</time></trkpt><trkpt lat="45.65163542675197" lon="10.721242126417106"><ele>77.0</ele><time>2026-04-06T15:47:52.923Z</time></trkpt><trkpt lat="45.651425114727076" lon="10.721114173205457"><ele>77.0</ele><time>2026-04-06T15:47:53.923Z</time></trkpt><trkpt lat="45.65149933040345" lon="10.72116047364164"><ele>77.0</ele><time>2026-04-06T15:47:54.923Z</time></trkpt><trkpt lat="45.651344712957595" lon="10.721064845124241"><ele>76.25</ele><time>2026-04-06T15:47:55.923Z</time></trkpt><trkpt lat="45.65119847327717" lon="10.720997961902274"><ele>75.5</ele><time>2026-04-06T15:47:56.923Z</time></trkpt><trkpt lat="45.65106776424109" lon="10.720908627159647"><ele>74.75</ele><time>2026-04-06T15:47:57.923Z</time></trkpt><trkpt lat="45.65094590037797" lon="10.72082906934617"><ele>74.0</ele><time>2026-04-06T15:47:58.923Z</time></trkpt><trkpt lat="45.65083477032429" lon="10.720716262445755"><ele>74.0</ele><time>2026-04-06T15:47:59.923Z</time></trkpt><trkpt lat="45.65073334036981" lon="10.72063359935152"><ele>74.0</ele><time>2026-04-06T15:48:00.923Z</time></trkpt><trkpt lat="45.65064109525268" lon="10.720577618766924"><ele>74.0</ele><time>2026-04-06T15:48:01.923Z</time></trkpt><trkpt lat="45.65056797742377" lon="10.720504866418446"><ele>74.0</ele><time>2026-04-06T15:48:02.923Z</time></trkpt><trkpt lat="45.65050200986132" lon="10.720410951361806"><ele>74.0</ele><time>2026-04-06T15:48:03.923Z</time></trkpt><trkpt lat="45.6504330640088" lon="10.720337645540212"><ele>74.0</ele><time>2026-04-06T15:48:04.923Z</time></trkpt><trkpt lat="45.65036386397601" lon="10.720264069456515"><ele>74.0</ele><time>2026-04-06T15:48:05.923Z</time></trkpt><trkpt lat="45.650302858516795" lon="10.720199206138213"><ele>74.0</ele><time>2026-04-06T15:48:06.923Z</time></trkpt><trkpt lat="45.650227369360735" lon="10.720118329483187"><ele>74.0</ele><time>2026-04-06T15:48:08.923Z</time></trkpt><trkpt lat="45.650146363864174" lon="10.720031478832423"><ele>74.0</ele><time>2026-04-06T15:48:10.923Z</time></trkpt><trkpt lat="45.65006754411205" lon="10.719946971662598"><ele>73.66666666666667</ele><time>2026-04-06T15:48:11.923Z</time></trkpt><trkpt lat="45.649986635121884" lon="10.71986022449596"><ele>73.33333333333334</ele><time>2026-04-06T15:48:12.923Z</time></trkpt><trkpt lat="45.64992316643808" lon="10.719792176063253"><ele>73.0</ele><time>2026-04-06T15:48:13.923Z</time></trkpt><trkpt lat="45.64986474089033" lon="10.719729273694039"><ele>72.66666666666667</ele><time>2026-04-06T15:48:14.923Z</time></trkpt><trkpt lat="45.649791463717456" lon="10.719649748077574"><ele>72.33333333333333</ele><time>2026-04-06T15:48:16.923Z</time></trkpt><trkpt lat="45.649719483099666" lon="10.719571629566769"><ele>72.0</ele><time>2026-04-06T15:48:19.923Z</time></trkpt><trkpt lat="45.64965406486218" lon="10.71950063302678"><ele>72.0</ele><time>2026-04-06T15:48:20.923Z</time></trkpt><trkpt lat="45.649571210170336" lon="10.719410713234144"><ele>72.0</ele><time>2026-04-06T15:48:21.923Z</time></trkpt><trkpt lat="45.6495012135243" lon="10.719334551897962"><ele>72.0</ele><time>2026-04-06T15:48:22.923Z</time></trkpt><trkpt lat="45.64942329030947" lon="10.719249733609615"><ele>72.0</ele><time>2026-04-06T15:48:23.923Z</time></trkpt><trkpt lat="45.64933386585926" lon="10.719152396425498"><ele>72.0</ele><time>2026-04-06T15:48:24.923Z</time></trkpt><trkpt lat="45.64924586837032" lon="10.719056697421143"><ele>72.4</ele><time>2026-04-06T15:48:25.923Z</time></trkpt><trkpt lat="45.649159438855165" lon="10.718962747826172"><ele>72.80000000000001</ele><time>2026-04-06T15:48:26.923Z</time></trkpt><trkpt lat="45.6490849403108" lon="10.718879990036905"><ele>73.2</ele><time>2026-04-06T15:48:27.923Z</time></trkpt><trkpt lat="45.64901956959446" lon="10.718806642380693"><ele>73.60000000000001</ele><time>2026-04-06T15:48:28.923Z</time></trkpt><trkpt lat="45.648956559124436" lon="10.718732942121626"><ele>74.0</ele><time>2026-04-06T15:48:29.923Z</time></trkpt><trkpt lat="45.64889089063032" lon="10.718654248385288"><ele>74.0</ele><time>2026-04-06T15:48:30.923Z</time></trkpt><trkpt lat="45.64882444034561" lon="10.718570078304307"><ele>74.0</ele><time>2026-04-06T15:48:31.923Z</time></trkpt><trkpt lat="45.64876916814186" lon="10.718492807503749"><ele>74.0</ele><time>2026-04-06T15:48:32.923Z</time></trkpt><trkpt lat="45.64870072349939" lon="10.718390380747019"><ele>74.0</ele><time>2026-04-06T15:48:34.923Z</time></trkpt><trkpt lat="45.64865460528707" lon="10.71831802459247"><ele>74.0</ele><time>2026-04-06T15:48:36.923Z</time></trkpt><trkpt lat="45.64859768647695" lon="10.718216023286596"><ele>74.0</ele><time>2026-04-06T15:48:50.923Z</time></trkpt><trkpt lat="45.64854264400202" lon="10.718121140465241"><ele>75.33333333333334</ele><time>2026-04-06T15:48:51.923Z</time></trkpt><trkpt lat="45.64846022755174" lon="10.717955197282802"><ele>76.66666666666667</ele><time>2026-04-06T15:48:52.923Z</time></trkpt><trkpt lat="45.64836954993764" lon="10.717703747940307"><ele>78.0</ele><time>2026-04-06T15:48:53.923Z</time></trkpt><trkpt lat="45.648284502306936" lon="10.717492581970092"><ele>75.0</ele><time>2026-04-06T15:48:54.923Z</time></trkpt><trkpt lat="45.64820540212337" lon="10.717296183028074"><ele>72.0</ele><time>2026-04-06T15:48:55.923Z</time></trkpt><trkpt lat="45.64809956733559" lon="10.717039782692948"><ele>69.0</ele><time>2026-04-06T15:48:56.923Z</time></trkpt><trkpt lat="45.6479910478079" lon="10.716783282478755"><ele>68.0</ele><time>2026-04-06T15:48:57.923Z</time></trkpt><trkpt lat="45.64790203559747" lon="10.716559204070553"><ele>67.0</ele><time>2026-04-06T15:48:58.923Z</time></trkpt><trkpt lat="45.647818381518135" lon="10.716366370926893"><ele>66.0</ele><time>2026-04-06T15:48:59.923Z</time></trkpt><trkpt lat="45.6477281078882" lon="10.716172985520345"><ele>67.66666666666667</ele><time>2026-04-06T15:49:00.923Z</time></trkpt><trkpt lat="45.64761393086222" lon="10.715985335291343"><ele>69.33333333333334</ele><time>2026-04-06T15:49:01.923Z</time></trkpt><trkpt lat="45.647484708780475" lon="10.715814253579026"><ele>71.0</ele><time>2026-04-06T15:49:02.923Z</time></trkpt><trkpt lat="45.64733859716099" lon="10.715668151778381"><ele>71.0</ele><time>2026-04-06T15:49:03.923Z</time></trkpt><trkpt lat="45.64717126840065" lon="10.715519210524263"><ele>71.0</ele><time>2026-04-06T15:49:04.923Z</time></trkpt><trkpt lat="45.6469642154256" lon="10.715376487966266"><ele>71.0</ele><time>2026-04-06T15:49:05.923Z</time></trkpt><trkpt lat="45.646708145195184" lon="10.71523381662812"><ele>68.0</ele><time>2026-04-06T15:49:06.923Z</time></trkpt><trkpt lat="45.64645447257969" lon="10.715096635196058"><ele>65.0</ele><time>2026-04-06T15:49:07.923Z</time></trkpt><trkpt lat="45.64623585872907" lon="10.714971404474928"><ele>67.0</ele><time>2026-04-06T15:49:08.923Z</time></trkpt><trkpt lat="45.64604560327658" lon="10.71485955909744"><ele>69.0</ele><time>2026-04-06T15:49:09.923Z</time></trkpt><trkpt lat="45.64586649429774" lon="10.714752267818895"><ele>71.0</ele><time>2026-04-06T15:49:10.923Z</time></trkpt><trkpt lat="45.645702165189384" lon="10.714645590043304"><ele>71.0</ele><time>2026-04-06T15:49:11.923Z</time></trkpt><trkpt lat="45.64555120975829" lon="10.714543506566702"><ele>71.0</ele><time>2026-04-06T15:49:12.923Z</time></trkpt><trkpt lat="45.645435880280196" lon="10.714415860438226"><ele>71.0</ele><time>2026-04-06T15:49:13.923Z</time></trkpt><trkpt lat="45.645322969563104" lon="10.714330864596285"><ele>71.0</ele><time>2026-04-06T15:49:14.923Z</time></trkpt><trkpt lat="45.645231196791244" lon="10.714233769099273"><ele>71.39999999999999</ele><time>2026-04-06T15:49:15.923Z</time></trkpt><trkpt lat="45.6451495464734" lon="10.714158029260433"><ele>71.8</ele><time>2026-04-06T15:49:16.923Z</time></trkpt><trkpt lat="45.64506677861473" lon="10.714081204707693"><ele>72.19999999999999</ele><time>2026-04-06T15:49:17.923Z</time></trkpt><trkpt lat="45.644975375325096" lon="10.714003186058205"><ele>72.6</ele><time>2026-04-06T15:49:18.923Z</time></trkpt><trkpt lat="45.644875847701975" lon="10.713902166493952"><ele>73.0</ele><time>2026-04-06T15:49:19.923Z</time></trkpt><trkpt lat="45.644765740900574" lon="10.713788468255274"><ele>73.0</ele><time>2026-04-06T15:49:20.923Z</time></trkpt><trkpt lat="45.64463747917526" lon="10.713679589698815"><ele>73.0</ele><time>2026-04-06T15:49:21.923Z</time></trkpt><trkpt lat="45.64452326560784" lon="10.713550351473275"><ele>73.0</ele><time>2026-04-06T15:49:22.923Z</time></trkpt><trkpt lat="45.644414068401275" lon="10.713440923766244"><ele>73.0</ele><time>2026-04-06T15:49:23.923Z</time></trkpt><trkpt lat="45.64430334492352" lon="10.71332312681182"><ele>74.25</ele><time>2026-04-06T15:49:24.923Z</time></trkpt><trkpt lat="45.64419731345856" lon="10.713180246435307"><ele>75.5</ele><time>2026-04-06T15:49:25.923Z</time></trkpt><trkpt lat="45.64410866505983" lon="10.713026273057482"><ele>76.75</ele><time>2026-04-06T15:49:26.923Z</time></trkpt><trkpt lat="45.64403433044628" lon="10.712865302269487"><ele>78.0</ele><time>2026-04-06T15:49:27.923Z</time></trkpt><trkpt lat="45.643969625520576" lon="10.712701941426054"><ele>74.75</ele><time>2026-04-06T15:49:28.923Z</time></trkpt><trkpt lat="45.643900076783225" lon="10.712556820936395"><ele>71.5</ele><time>2026-04-06T15:49:29.923Z</time></trkpt><trkpt lat="45.64384600135892" lon="10.71240517138925"><ele>68.25</ele><time>2026-04-06T15:49:30.923Z</time></trkpt><trkpt lat="45.64377796209576" lon="10.712257532723847"><ele>65.0</ele><time>2026-04-06T15:49:31.923Z</time></trkpt><trkpt lat="45.64369922285865" lon="10.712087037330644"><ele>70.66666666666667</ele><time>2026-04-06T15:49:32.923Z</time></trkpt><trkpt lat="45.64359123136508" lon="10.71190414305415"><ele>76.33333333333333</ele><time>2026-04-06T15:49:33.923Z</time></trkpt><trkpt lat="45.643463173083916" lon="10.71169136736003"><ele>82.0</ele><time>2026-04-06T15:49:34.923Z</time></trkpt><trkpt lat="45.64332086024126" lon="10.711452658234068"><ele>82.0</ele><time>2026-04-06T15:49:35.923Z</time></trkpt><trkpt lat="45.643171745481276" lon="10.711240462423635"><ele>82.0</ele><time>2026-04-06T15:49:36.923Z</time></trkpt><trkpt lat="45.6430562617471" lon="10.711041190140431"><ele>82.0</ele><time>2026-04-06T15:49:37.923Z</time></trkpt><trkpt lat="45.64295039686305" lon="10.710854259353882"><ele>82.0</ele><time>2026-04-06T15:49:38.923Z</time></trkpt><trkpt lat="45.64283414293534" lon="10.71067538327938"><ele>82.0</ele><time>2026-04-06T15:49:39.923Z</time></trkpt><trkpt lat="45.64268713245554" lon="10.710508478405066"><ele>82.0</ele><time>2026-04-06T15:49:40.923Z</time></trkpt><trkpt lat="45.64252180418192" lon="10.710350931909385"><ele>77.0</ele><time>2026-04-06T15:49:41.923Z</time></trkpt><trkpt lat="45.642364397914626" lon="10.710233203269102"><ele>72.0</ele><time>2026-04-06T15:49:42.923Z</time></trkpt><trkpt lat="45.64222671628647" lon="10.710110203130196"><ele>67.0</ele><time>2026-04-06T15:49:43.923Z</time></trkpt><trkpt lat="45.64210816371714" lon="10.709972279187248"><ele>67.0</ele><time>2026-04-06T15:49:44.923Z</time></trkpt><trkpt lat="45.641999304935126" lon="10.709814724764032"><ele>67.0</ele><time>2026-04-06T15:49:45.923Z</time></trkpt><trkpt lat="45.641917859160415" lon="10.709629076128317"><ele>67.0</ele><time>2026-04-06T15:49:46.923Z</time></trkpt><trkpt lat="45.641827726856356" lon="10.70940536466968"><ele>70.0</ele><time>2026-04-06T15:49:47.923Z</time></trkpt><trkpt lat="45.64173271901881" lon="10.70915678643447"><ele>73.0</ele><time>2026-04-06T15:49:48.923Z</time></trkpt><trkpt lat="45.641645855550536" lon="10.708944831744098"><ele>76.0</ele><time>2026-04-06T15:49:49.923Z</time></trkpt><trkpt lat="45.64155933321287" lon="10.708760338173109"><ele>76.0</ele><time>2026-04-06T15:49:50.923Z</time></trkpt><trkpt lat="45.64145276217682" lon="10.708585318045102"><ele>76.0</ele><time>2026-04-06T15:49:51.923Z</time></trkpt><trkpt lat="45.64133396435755" lon="10.70843486379017"><ele>76.0</ele><time>2026-04-06T15:49:52.923Z</time></trkpt><trkpt lat="45.641195934352346" lon="10.708302970753657"><ele>78.33333333333333</ele><time>2026-04-06T15:49:53.923Z</time></trkpt><trkpt lat="45.64104447321589" lon="10.708191707855704"><ele>80.66666666666667</ele><time>2026-04-06T15:49:54.923Z</time></trkpt><trkpt lat="45.64090261146012" lon="10.70810337383769"><ele>83.0</ele><time>2026-04-06T15:49:55.923Z</time></trkpt><trkpt lat="45.64076753979185" lon="10.708022781492431"><ele>83.0</ele><time>2026-04-06T15:49:56.923Z</time></trkpt><trkpt lat="45.64063071128525" lon="10.707948019932516"><ele>83.0</ele><time>2026-04-06T15:49:57.923Z</time></trkpt><trkpt lat="45.640484732401504" lon="10.70786036406003"><ele>83.0</ele><time>2026-04-06T15:49:58.923Z</time></trkpt><trkpt lat="45.64032883272725" lon="10.70774128302019"><ele>79.66666666666667</ele><time>2026-04-06T15:49:59.923Z</time></trkpt><trkpt lat="45.640162816848694" lon="10.707636852955341"><ele>76.33333333333333</ele><time>2026-04-06T15:50:00.923Z</time></trkpt><trkpt lat="45.64001422313579" lon="10.707541772085387"><ele>73.0</ele><time>2026-04-06T15:50:01.923Z</time></trkpt><trkpt lat="45.63988456055805" lon="10.707453644255642"><ele>73.0</ele><time>2026-04-06T15:50:02.923Z</time></trkpt><trkpt lat="45.63976183700585" lon="10.707365826860935"><ele>73.0</ele><time>2026-04-06T15:50:03.923Z</time></trkpt><trkpt lat="45.639630807956486" lon="10.707270068000433"><ele>73.0</ele><time>2026-04-06T15:50:04.923Z</time></trkpt><trkpt lat="45.63948146472924" lon="10.707160696452435"><ele>70.33333333333333</ele><time>2026-04-06T15:50:05.923Z</time></trkpt><trkpt lat="45.63930234573506" lon="10.707028597367099"><ele>67.66666666666667</ele><time>2026-04-06T15:50:06.923Z</time></trkpt><trkpt lat="45.63913112534896" lon="10.706901299286804"><ele>65.0</ele><time>2026-04-06T15:50:07.923Z</time></trkpt><trkpt lat="45.63898253459671" lon="10.706790852356237"><ele>65.0</ele><time>2026-04-06T15:50:08.923Z</time></trkpt><trkpt lat="45.638846743499684" lon="10.706685057775156"><ele>65.0</ele><time>2026-04-06T15:50:09.923Z</time></trkpt><trkpt lat="45.638724976541646" lon="10.706573288389244"><ele>65.0</ele><time>2026-04-06T15:50:10.923Z</time></trkpt><trkpt lat="45.63861737232633" lon="10.706450687870344"><ele>65.0</ele><time>2026-04-06T15:50:11.923Z</time></trkpt><trkpt lat="45.63850802801477" lon="10.706310718413226"><ele>65.66666666666667</ele><time>2026-04-06T15:50:12.923Z</time></trkpt><trkpt lat="45.6383917406758" lon="10.706148082754714"><ele>66.33333333333333</ele><time>2026-04-06T15:50:13.923Z</time></trkpt><trkpt lat="45.63828587127612" lon="10.705996633610495"><ele>67.0</ele><time>2026-04-06T15:50:14.923Z</time></trkpt><trkpt lat="45.63818830054867" lon="10.705855997788372"><ele>67.0</ele><time>2026-04-06T15:50:15.923Z</time></trkpt><trkpt lat="45.63809205135688" lon="10.705715864857062"><ele>67.0</ele><time>2026-04-06T15:50:16.923Z</time></trkpt><trkpt lat="45.63797134834694" lon="10.705585748419615"><ele>67.0</ele><time>2026-04-06T15:50:17.923Z</time></trkpt><trkpt lat="45.63786132727579" lon="10.70544534683422"><ele>67.0</ele><time>2026-04-06T15:50:18.923Z</time></trkpt><trkpt lat="45.63774429515208" lon="10.705312128022054"><ele>68.0</ele><time>2026-04-06T15:50:19.923Z</time></trkpt><trkpt lat="45.6376080810863" lon="10.705161907459525"><ele>69.0</ele><time>2026-04-06T15:50:20.923Z</time></trkpt><trkpt lat="45.63744192956781" lon="10.705014779906373"><ele>70.0</ele><time>2026-04-06T15:50:21.923Z</time></trkpt><trkpt lat="45.637266234480784" lon="10.704886002157272"><ele>70.0</ele><time>2026-04-06T15:50:22.923Z</time></trkpt><trkpt lat="45.63711709186851" lon="10.704755648375501"><ele>70.0</ele><time>2026-04-06T15:50:23.923Z</time></trkpt><trkpt lat="45.63698244962202" lon="10.704637684127492"><ele>70.0</ele><time>2026-04-06T15:50:24.923Z</time></trkpt><trkpt lat="45.63685300856649" lon="10.704530791392337"><ele>69.5</ele><time>2026-04-06T15:50:25.923Z</time></trkpt><trkpt lat="45.6367326821264" lon="10.704425371505769"><ele>69.0</ele><time>2026-04-06T15:50:26.923Z</time></trkpt><trkpt lat="45.636616808700786" lon="10.704320064624333"><ele>68.5</ele><time>2026-04-06T15:50:27.923Z</time></trkpt><trkpt lat="45.63648306175244" lon="10.704216039227354"><ele>68.0</ele><time>2026-04-06T15:50:28.923Z</time></trkpt><trkpt lat="45.636330720602686" lon="10.704105807529894"><ele>68.0</ele><time>2026-04-06T15:50:29.923Z</time></trkpt><trkpt lat="45.63614633528848" lon="10.703988522676498"><ele>68.0</ele><time>2026-04-06T15:50:30.923Z</time></trkpt><trkpt lat="45.63594504590017" lon="10.703838054740366"><ele>68.0</ele><time>2026-04-06T15:50:31.923Z</time></trkpt><trkpt lat="45.63571742720201" lon="10.703698185034591"><ele>68.33333333333334</ele><time>2026-04-06T15:50:32.923Z</time></trkpt><trkpt lat="45.635520145801785" lon="10.703580207607931"><ele>68.66666666666667</ele><time>2026-04-06T15:50:33.923Z</time></trkpt><trkpt lat="45.63532919687772" lon="10.703462462752691"><ele>69.0</ele><time>2026-04-06T15:50:34.923Z</time></trkpt><trkpt lat="45.6351628368359" lon="10.703354478037054"><ele>69.0</ele><time>2026-04-06T15:50:35.923Z</time></trkpt><trkpt lat="45.63500733504268" lon="10.703274680091472"><ele>69.0</ele><time>2026-04-06T15:50:36.923Z</time></trkpt><trkpt lat="45.63486600143294" lon="10.703178824618945"><ele>69.0</ele><time>2026-04-06T15:50:37.923Z</time></trkpt><trkpt lat="45.634729339939284" lon="10.70306323383916"><ele>69.0</ele><time>2026-04-06T15:50:38.923Z</time></trkpt><trkpt lat="45.6345629342936" lon="10.702948306572313"><ele>69.0</ele><time>2026-04-06T15:50:39.923Z</time></trkpt><trkpt lat="45.634383368088756" lon="10.702824172170757"><ele>69.0</ele><time>2026-04-06T15:50:40.923Z</time></trkpt><trkpt lat="45.63419129357165" lon="10.702691819754888"><ele>67.66666666666667</ele><time>2026-04-06T15:50:41.923Z</time></trkpt><trkpt lat="45.63401337102675" lon="10.702591705580964"><ele>66.33333333333334</ele><time>2026-04-06T15:50:42.923Z</time></trkpt><trkpt lat="45.6338438632076" lon="10.702482168827357"><ele>65.0</ele><time>2026-04-06T15:50:43.923Z</time></trkpt><trkpt lat="45.63367869966664" lon="10.702376773451226"><ele>66.0</ele><time>2026-04-06T15:50:44.923Z</time></trkpt><trkpt lat="45.633523527619126" lon="10.702284330368595"><ele>67.0</ele><time>2026-04-06T15:50:45.923Z</time></trkpt><trkpt lat="45.63337934545432" lon="10.702201658618906"><ele>68.0</ele><time>2026-04-06T15:50:46.923Z</time></trkpt><trkpt lat="45.63324810082545" lon="10.702100042367535"><ele>68.0</ele><time>2026-04-06T15:50:47.923Z</time></trkpt><trkpt lat="45.63311388031133" lon="10.70202103195484"><ele>68.0</ele><time>2026-04-06T15:50:48.923Z</time></trkpt><trkpt lat="45.632984256374186" lon="10.701944727432544"><ele>68.0</ele><time>2026-04-06T15:50:49.923Z</time></trkpt><trkpt lat="45.63283839653225" lon="10.701858865372838"><ele>68.0</ele><time>2026-04-06T15:50:50.923Z</time></trkpt><trkpt lat="45.63268258528771" lon="10.701767145351164"><ele>68.33333333333334</ele><time>2026-04-06T15:50:51.923Z</time></trkpt><trkpt lat="45.63252994839974" lon="10.701677293947885"><ele>68.66666666666667</ele><time>2026-04-06T15:50:52.923Z</time></trkpt><trkpt lat="45.63236663632868" lon="10.701581158502584"><ele>69.0</ele><time>2026-04-06T15:50:53.923Z</time></trkpt><trkpt lat="45.63214796253129" lon="10.701696940791015"><ele>69.0</ele><time>2026-04-06T15:50:54.923Z</time></trkpt><trkpt lat="45.6321993168566" lon="10.701505291009878"><ele>69.0</ele><time>2026-04-06T15:50:55.923Z</time></trkpt><trkpt lat="45.63208282793119" lon="10.70143242314501"><ele>69.0</ele><time>2026-04-06T15:50:56.923Z</time></trkpt><trkpt lat="45.63196197817575" lon="10.701361669581244"><ele>69.0</ele><time>2026-04-06T15:50:57.923Z</time></trkpt><trkpt lat="45.63184395290408" lon="10.701283674319443"><ele>70.25</ele><time>2026-04-06T15:50:58.923Z</time></trkpt><trkpt lat="45.63172001620834" lon="10.701208304403309"><ele>71.5</ele><time>2026-04-06T15:50:59.923Z</time></trkpt><trkpt lat="45.63159535684495" lon="10.701137647082549"><ele>72.75</ele><time>2026-04-06T15:51:00.923Z</time></trkpt><trkpt lat="45.631463499903376" lon="10.701065443236795"><ele>74.0</ele><time>2026-04-06T15:51:01.923Z</time></trkpt><trkpt lat="45.63133542711829" lon="10.70099649345082"><ele>72.75</ele><time>2026-04-06T15:51:02.923Z</time></trkpt><trkpt lat="45.63119898890332" lon="10.700934473240084"><ele>71.5</ele><time>2026-04-06T15:51:03.923Z</time></trkpt><trkpt lat="45.63106249403051" lon="10.700870860243413"><ele>70.25</ele><time>2026-04-06T15:51:04.923Z</time></trkpt><trkpt lat="45.63091784010439" lon="10.70082440618236"><ele>69.0</ele><time>2026-04-06T15:51:05.923Z</time></trkpt><trkpt lat="45.63076646253752" lon="10.700784847576756"><ele>69.0</ele><time>2026-04-06T15:51:06.923Z</time></trkpt><trkpt lat="45.6306173891029" lon="10.700738949658003"><ele>69.0</ele><time>2026-04-06T15:51:07.923Z</time></trkpt><trkpt lat="45.63048124314617" lon="10.70069688435421"><ele>69.0</ele><time>2026-04-06T15:51:08.923Z</time></trkpt><trkpt lat="45.63035066896269" lon="10.700653828601451"><ele>69.0</ele><time>2026-04-06T15:51:09.923Z</time></trkpt><trkpt lat="45.63022934892464" lon="10.70061794831605"><ele>70.0</ele><time>2026-04-06T15:51:10.923Z</time></trkpt><trkpt lat="45.63010655530352" lon="10.700583784020143"><ele>71.0</ele><time>2026-04-06T15:51:11.923Z</time></trkpt><trkpt lat="45.62999120081069" lon="10.700502522344532"><ele>72.0</ele><time>2026-04-06T15:51:12.923Z</time></trkpt><trkpt lat="45.629871772057314" lon="10.700433778118642"><ele>73.0</ele><time>2026-04-06T15:51:13.923Z</time></trkpt><trkpt lat="45.62974931414929" lon="10.700360385966007"><ele>73.0</ele><time>2026-04-06T15:51:14.923Z</time></trkpt><trkpt lat="45.62962110931117" lon="10.700278933742485"><ele>73.0</ele><time>2026-04-06T15:51:15.923Z</time></trkpt><trkpt lat="45.629486817579085" lon="10.700216806018812"><ele>73.0</ele><time>2026-04-06T15:51:16.923Z</time></trkpt><trkpt lat="45.6293636142481" lon="10.700131980276439"><ele>73.0</ele><time>2026-04-06T15:51:17.923Z</time></trkpt><trkpt lat="45.62923910070724" lon="10.70005808168705"><ele>71.5</ele><time>2026-04-06T15:51:18.923Z</time></trkpt><trkpt lat="45.62914402401902" lon="10.699972124175185"><ele>70.0</ele><time>2026-04-06T15:51:19.923Z</time></trkpt><trkpt lat="45.629019586309084" lon="10.699914284891193"><ele>68.5</ele><time>2026-04-06T15:51:20.923Z</time></trkpt><trkpt lat="45.62888835573679" lon="10.699822416071756"><ele>67.0</ele><time>2026-04-06T15:51:21.923Z</time></trkpt><trkpt lat="45.628765390531555" lon="10.699745494093694"><ele>69.25</ele><time>2026-04-06T15:51:22.923Z</time></trkpt><trkpt lat="45.62864029274513" lon="10.699660128118282"><ele>71.5</ele><time>2026-04-06T15:51:23.923Z</time></trkpt><trkpt lat="45.628518630332785" lon="10.699576250173319"><ele>73.75</ele><time>2026-04-06T15:51:24.923Z</time></trkpt><trkpt lat="45.62839627762107" lon="10.699515158444681"><ele>76.0</ele><time>2026-04-06T15:51:25.923Z</time></trkpt><trkpt lat="45.62829436765368" lon="10.699437063298602"><ele>75.0</ele><time>2026-04-06T15:51:26.923Z</time></trkpt><trkpt lat="45.62819301524145" lon="10.699358641129812"><ele>74.0</ele><time>2026-04-06T15:51:27.923Z</time></trkpt><trkpt lat="45.62810004637922" lon="10.699308722530224"><ele>73.0</ele><time>2026-04-06T15:51:28.923Z</time></trkpt><trkpt lat="45.628035451006056" lon="10.69925380891708"><ele>72.0</ele><time>2026-04-06T15:51:29.923Z</time></trkpt><trkpt lat="45.62796025600899" lon="10.699247873361944"><ele>71.0</ele><time>2026-04-06T15:51:30.923Z</time></trkpt><trkpt lat="45.62788265943106" lon="10.699226039939468"><ele>70.0</ele><time>2026-04-06T15:51:31.923Z</time></trkpt><trkpt lat="45.62778685238929" lon="10.699180208818957"><ele>70.0</ele><time>2026-04-06T15:51:32.923Z</time></trkpt><trkpt lat="45.62764775980607" lon="10.699110945603795"><ele>70.0</ele><time>2026-04-06T15:51:33.923Z</time></trkpt><trkpt lat="45.62747534795467" lon="10.699065226535916"><ele>70.0</ele><time>2026-04-06T15:51:34.923Z</time></trkpt><trkpt lat="45.62728410518889" lon="10.698978011902085"><ele>70.0</ele><time>2026-04-06T15:51:35.923Z</time></trkpt><trkpt lat="45.62709359092821" lon="10.698915655961187"><ele>70.0</ele><time>2026-04-06T15:51:36.923Z</time></trkpt><trkpt lat="45.626943809519865" lon="10.69886671276947"><ele>70.0</ele><time>2026-04-06T15:51:37.923Z</time></trkpt><trkpt lat="45.626830403536836" lon="10.698829680412794"><ele>71.25</ele><time>2026-04-06T15:51:38.923Z</time></trkpt><trkpt lat="45.62670516302826" lon="10.698788457024882"><ele>72.5</ele><time>2026-04-06T15:51:40.923Z</time></trkpt><trkpt lat="45.626584630552465" lon="10.698749502565512"><ele>73.75</ele><time>2026-04-06T15:51:41.923Z</time></trkpt><trkpt lat="45.62645483486588" lon="10.698698676537154"><ele>75.0</ele><time>2026-04-06T15:51:42.923Z</time></trkpt><trkpt lat="45.62633870600578" lon="10.698647685842703"><ele>75.0</ele><time>2026-04-06T15:51:43.923Z</time></trkpt><trkpt lat="45.626234616878754" lon="10.698588493723593"><ele>75.0</ele><time>2026-04-06T15:51:44.923Z</time></trkpt><trkpt lat="45.626135730690116" lon="10.698518673270401"><ele>75.0</ele><time>2026-04-06T15:51:45.923Z</time></trkpt><trkpt lat="45.626041037460645" lon="10.69841127865412"><ele>75.0</ele><time>2026-04-06T15:51:46.923Z</time></trkpt><trkpt lat="45.62593648632434" lon="10.698313252963748"><ele>73.75</ele><time>2026-04-06T15:51:47.923Z</time></trkpt><trkpt lat="45.62582407274433" lon="10.698209712107005"><ele>72.5</ele><time>2026-04-06T15:51:48.923Z</time></trkpt><trkpt lat="45.62571177429406" lon="10.698140008497225"><ele>71.25</ele><time>2026-04-06T15:51:49.923Z</time></trkpt><trkpt lat="45.62560487122384" lon="10.698044995074703"><ele>70.0</ele><time>2026-04-06T15:51:50.923Z</time></trkpt><trkpt lat="45.62548438936463" lon="10.697964119710027"><ele>70.0</ele><time>2026-04-06T15:51:51.923Z</time></trkpt><trkpt lat="45.62534274872967" lon="10.69787878001399"><ele>70.0</ele><time>2026-04-06T15:51:52.923Z</time></trkpt><trkpt lat="45.625187686204555" lon="10.697787341173612"><ele>70.0</ele><time>2026-04-06T15:51:53.923Z</time></trkpt><trkpt lat="45.6249869349784" lon="10.697727180044994"><ele>67.0</ele><time>2026-04-06T15:51:54.923Z</time></trkpt><trkpt lat="45.62477147491204" lon="10.697645128605588"><ele>64.0</ele><time>2026-04-06T15:51:55.923Z</time></trkpt><trkpt lat="45.624529189401024" lon="10.697543661644675"><ele>67.0</ele><time>2026-04-06T15:51:56.923Z</time></trkpt><trkpt lat="45.62428784323768" lon="10.697460555817846"><ele>70.0</ele><time>2026-04-06T15:51:57.923Z</time></trkpt><trkpt lat="45.62407924853035" lon="10.69738950347891"><ele>70.0</ele><time>2026-04-06T15:51:58.923Z</time></trkpt><trkpt lat="45.623906532156525" lon="10.69733056828433"><ele>70.0</ele><time>2026-04-06T15:51:59.923Z</time></trkpt><trkpt lat="45.623752532612585" lon="10.697294355710717"><ele>70.0</ele><time>2026-04-06T15:52:00.923Z</time></trkpt><trkpt lat="45.62362699703348" lon="10.697244333619455"><ele>70.75</ele><time>2026-04-06T15:52:01.923Z</time></trkpt><trkpt lat="45.62349785832365" lon="10.697197631726072"><ele>71.5</ele><time>2026-04-06T15:52:02.923Z</time></trkpt><trkpt lat="45.62337220631293" lon="10.697159880970258"><ele>72.25</ele><time>2026-04-06T15:52:03.923Z</time></trkpt><trkpt lat="45.62325544043605" lon="10.697120143622858"><ele>73.0</ele><time>2026-04-06T15:52:04.923Z</time></trkpt><trkpt lat="45.62312690669568" lon="10.69707476670663"><ele>73.0</ele><time>2026-04-06T15:52:05.923Z</time></trkpt><trkpt lat="45.62297966258777" lon="10.69702984365625"><ele>73.0</ele><time>2026-04-06T15:52:06.923Z</time></trkpt><trkpt lat="45.62281271329398" lon="10.696979234082876"><ele>73.0</ele><time>2026-04-06T15:52:07.923Z</time></trkpt><trkpt lat="45.6226364238851" lon="10.696910458484094"><ele>70.66666666666666</ele><time>2026-04-06T15:52:08.923Z</time></trkpt><trkpt lat="45.62248078872148" lon="10.696845575429686"><ele>68.33333333333333</ele><time>2026-04-06T15:52:09.923Z</time></trkpt><trkpt lat="45.622341034270214" lon="10.696747819119983"><ele>66.0</ele><time>2026-04-06T15:52:10.923Z</time></trkpt><trkpt lat="45.62220818411909" lon="10.69666283158418"><ele>66.0</ele><time>2026-04-06T15:52:11.923Z</time></trkpt><trkpt lat="45.62207195459741" lon="10.696559754209114"><ele>66.0</ele><time>2026-04-06T15:52:12.923Z</time></trkpt><trkpt lat="45.62193443714784" lon="10.696445459575624"><ele>66.0</ele><time>2026-04-06T15:52:13.923Z</time></trkpt><trkpt lat="45.621784074682225" lon="10.696310844540756"><ele>66.0</ele><time>2026-04-06T15:52:14.923Z</time></trkpt><trkpt lat="45.621634064644574" lon="10.696171650690104"><ele>66.0</ele><time>2026-04-06T15:52:15.923Z</time></trkpt><trkpt lat="45.62149730053082" lon="10.696042849902964"><ele>66.0</ele><time>2026-04-06T15:52:16.923Z</time></trkpt><trkpt lat="45.62137341062955" lon="10.695929339655232"><ele>66.0</ele><time>2026-04-06T15:52:17.923Z</time></trkpt><trkpt lat="45.62125767381235" lon="10.695827558333965"><ele>66.0</ele><time>2026-04-06T15:52:18.923Z</time></trkpt><trkpt lat="45.62114705246963" lon="10.69575530544649"><ele>66.0</ele><time>2026-04-06T15:52:19.923Z</time></trkpt><trkpt lat="45.62104685072035" lon="10.695675296686742"><ele>66.0</ele><time>2026-04-06T15:52:20.923Z</time></trkpt><trkpt lat="45.620939832636545" lon="10.695600666973304"><ele>68.5</ele><time>2026-04-06T15:52:21.923Z</time></trkpt><trkpt lat="45.62083098483438" lon="10.695541557774323"><ele>71.0</ele><time>2026-04-06T15:52:22.923Z</time></trkpt><trkpt lat="45.62071384519317" lon="10.695477940500433"><ele>73.5</ele><time>2026-04-06T15:52:23.923Z</time></trkpt><trkpt lat="45.62058251228454" lon="10.695397054618486"><ele>76.0</ele><time>2026-04-06T15:52:24.923Z</time></trkpt><trkpt lat="45.62041501537071" lon="10.695343974680199"><ele>78.66666666666666</ele><time>2026-04-06T15:52:25.923Z</time></trkpt><trkpt lat="45.620237261649606" lon="10.695260063466264"><ele>81.33333333333333</ele><time>2026-04-06T15:52:26.923Z</time></trkpt><trkpt lat="45.62005575011468" lon="10.695179445000308"><ele>84.0</ele><time>2026-04-06T15:52:27.923Z</time></trkpt><trkpt lat="45.619906342304375" lon="10.695105742383655"><ele>82.25</ele><time>2026-04-06T15:52:28.923Z</time></trkpt><trkpt lat="45.61978044471177" lon="10.69501393949978"><ele>80.5</ele><time>2026-04-06T15:52:29.923Z</time></trkpt><trkpt lat="45.61965190676122" lon="10.69496127561713"><ele>78.75</ele><time>2026-04-06T15:52:30.923Z</time></trkpt><trkpt lat="45.61953995161116" lon="10.694883407962653"><ele>77.0</ele><time>2026-04-06T15:52:31.923Z</time></trkpt><trkpt lat="45.61943074935691" lon="10.694795632960858"><ele>77.0</ele><time>2026-04-06T15:52:32.923Z</time></trkpt><trkpt lat="45.61932911578397" lon="10.694718139248222"><ele>77.0</ele><time>2026-04-06T15:52:33.923Z</time></trkpt><trkpt lat="45.619219023225476" lon="10.694620711254174"><ele>77.0</ele><time>2026-04-06T15:52:34.923Z</time></trkpt><trkpt lat="45.619108729997954" lon="10.694522963788264"><ele>77.0</ele><time>2026-04-06T15:52:35.923Z</time></trkpt><trkpt lat="45.618998754425476" lon="10.694430995289169"><ele>75.75</ele><time>2026-04-06T15:52:36.923Z</time></trkpt><trkpt lat="45.61890216743489" lon="10.694346575028819"><ele>74.5</ele><time>2026-04-06T15:52:37.923Z</time></trkpt><trkpt lat="45.61879677951465" lon="10.694281733349856"><ele>73.25</ele><time>2026-04-06T15:52:38.923Z</time></trkpt><trkpt lat="45.61868581006337" lon="10.694211854819327"><ele>72.0</ele><time>2026-04-06T15:52:39.923Z</time></trkpt><trkpt lat="45.618574990588726" lon="10.694158575050833"><ele>72.0</ele><time>2026-04-06T15:52:40.923Z</time></trkpt><trkpt lat="45.61846072115689" lon="10.694097848219988"><ele>72.0</ele><time>2026-04-06T15:52:41.923Z</time></trkpt><trkpt lat="45.61832384709485" lon="10.694040435051422"><ele>72.0</ele><time>2026-04-06T15:52:42.923Z</time></trkpt><trkpt lat="45.61816160235591" lon="10.69396953578332"><ele>72.0</ele><time>2026-04-06T15:52:43.923Z</time></trkpt><trkpt lat="45.617990465265464" lon="10.693871217210155"><ele>74.33333333333333</ele><time>2026-04-06T15:52:44.923Z</time></trkpt><trkpt lat="45.61778284596046" lon="10.693775507852175"><ele>76.66666666666666</ele><time>2026-04-06T15:52:45.923Z</time></trkpt><trkpt lat="45.61757627431427" lon="10.693700622599538"><ele>79.0</ele><time>2026-04-06T15:52:46.923Z</time></trkpt><trkpt lat="45.617393297434475" lon="10.693609512161418"><ele>77.33333333333333</ele><time>2026-04-06T15:52:47.923Z</time></trkpt><trkpt lat="45.61722537195129" lon="10.693513706378338"><ele>75.66666666666667</ele><time>2026-04-06T15:52:48.923Z</time></trkpt><trkpt lat="45.617067888271485" lon="10.693455295221597"><ele>74.0</ele><time>2026-04-06T15:52:49.923Z</time></trkpt><trkpt lat="45.61692350785653" lon="10.693356712442649"><ele>74.0</ele><time>2026-04-06T15:52:50.923Z</time></trkpt><trkpt lat="45.616782070189515" lon="10.693279917401457"><ele>74.0</ele><time>2026-04-06T15:52:51.923Z</time></trkpt><trkpt lat="45.61664885101042" lon="10.693214792638797"><ele>74.0</ele><time>2026-04-06T15:52:52.923Z</time></trkpt><trkpt lat="45.61651772391902" lon="10.693140102736255"><ele>74.0</ele><time>2026-04-06T15:52:53.923Z</time></trkpt><trkpt lat="45.61638432401625" lon="10.69306856510765"><ele>74.0</ele><time>2026-04-06T15:52:54.923Z</time></trkpt><trkpt lat="45.616247638080154" lon="10.692998569251955"><ele>74.0</ele><time>2026-04-06T15:52:55.923Z</time></trkpt><trkpt lat="45.61611001043106" lon="10.692894017709094"><ele>74.0</ele><time>2026-04-06T15:52:56.923Z</time></trkpt><trkpt lat="45.615958081382445" lon="10.69280577426004"><ele>72.0</ele><time>2026-04-06T15:52:57.923Z</time></trkpt><trkpt lat="45.61580309306519" lon="10.692715885514735"><ele>70.0</ele><time>2026-04-06T15:52:58.923Z</time></trkpt><trkpt lat="45.615651370927544" lon="10.692627517505086"><ele>68.0</ele><time>2026-04-06T15:52:59.923Z</time></trkpt><trkpt lat="45.61550016285297" lon="10.692560035890304"><ele>68.0</ele><time>2026-04-06T15:53:00.923Z</time></trkpt><trkpt lat="45.61536343073416" lon="10.692476795119173"><ele>68.0</ele><time>2026-04-06T15:53:01.923Z</time></trkpt><trkpt lat="45.61523243996869" lon="10.692403838123665"><ele>68.0</ele><time>2026-04-06T15:53:02.923Z</time></trkpt><trkpt lat="45.615104012270415" lon="10.692326929781006"><ele>68.0</ele><time>2026-04-06T15:53:03.923Z</time></trkpt><trkpt lat="45.61496595453186" lon="10.692245374436776"><ele>69.25</ele><time>2026-04-06T15:53:04.923Z</time></trkpt><trkpt lat="45.61483277059326" lon="10.692168573883796"><ele>70.5</ele><time>2026-04-06T15:53:05.923Z</time></trkpt><trkpt lat="45.6147076576401" lon="10.692096920960548"><ele>71.75</ele><time>2026-04-06T15:53:06.923Z</time></trkpt><trkpt lat="45.61459457726058" lon="10.69203190260398"><ele>73.0</ele><time>2026-04-06T15:53:07.923Z</time></trkpt><trkpt lat="45.61449347625012" lon="10.691972914774066"><ele>72.0</ele><time>2026-04-06T15:53:08.923Z</time></trkpt><trkpt lat="45.61438548500642" lon="10.691908534773479"><ele>71.0</ele><time>2026-04-06T15:53:09.923Z</time></trkpt><trkpt lat="45.614283653450066" lon="10.691849990810212"><ele>70.0</ele><time>2026-04-06T15:53:10.923Z</time></trkpt><trkpt lat="45.61419414205523" lon="10.691786856734977"><ele>69.0</ele><time>2026-04-06T15:53:11.923Z</time></trkpt><trkpt lat="45.61411665794599" lon="10.691736147129859"><ele>68.0</ele><time>2026-04-06T15:53:12.923Z</time></trkpt><trkpt lat="45.61404137347881" lon="10.691673262918908"><ele>68.0</ele><time>2026-04-06T15:53:13.923Z</time></trkpt><trkpt lat="45.61398439871278" lon="10.691586697238318"><ele>68.0</ele><time>2026-04-06T15:53:14.923Z</time></trkpt><trkpt lat="45.613927921328596" lon="10.691523972854325"><ele>68.0</ele><time>2026-04-06T15:53:15.923Z</time></trkpt><trkpt lat="45.61383885170994" lon="10.691411923599162"><ele>68.0</ele><time>2026-04-06T15:53:17.923Z</time></trkpt><trkpt lat="45.613753445042654" lon="10.691273814722233"><ele>68.0</ele><time>2026-04-06T15:53:19.923Z</time></trkpt><trkpt lat="45.61371170587379" lon="10.691192135153322"><ele>68.0</ele><time>2026-04-06T15:53:20.923Z</time></trkpt><trkpt lat="45.61367183306233" lon="10.691106851882283"><ele>68.0</ele><time>2026-04-06T15:53:21.923Z</time></trkpt><trkpt lat="45.61363662614434" lon="10.691027200264102"><ele>68.0</ele><time>2026-04-06T15:53:22.923Z</time></trkpt><trkpt lat="45.61357980694342" lon="10.690876856111636"><ele>68.0</ele><time>2026-04-06T15:53:24.923Z</time></trkpt><trkpt lat="45.61354258257956" lon="10.690745515239216"><ele>68.0</ele><time>2026-04-06T15:53:26.923Z</time></trkpt><trkpt lat="45.61351775508151" lon="10.690650915782632"><ele>68.0</ele><time>2026-04-06T15:53:27.923Z</time></trkpt><trkpt lat="45.61349014654106" lon="10.690544152281685"><ele>68.5</ele><time>2026-04-06T15:53:28.923Z</time></trkpt><trkpt lat="45.6134642129511" lon="10.690440983444143"><ele>69.0</ele><time>2026-04-06T15:53:29.923Z</time></trkpt><trkpt lat="45.61343847323037" lon="10.69033858586587"><ele>69.5</ele><time>2026-04-06T15:53:30.923Z</time></trkpt><trkpt lat="45.613412190246564" lon="10.690234027072153"><ele>70.0</ele><time>2026-04-06T15:53:31.923Z</time></trkpt><trkpt lat="45.61338364730619" lon="10.69012047775185"><ele>70.5</ele><time>2026-04-06T15:53:32.923Z</time></trkpt><trkpt lat="45.61335334652996" lon="10.689999935432157"><ele>71.0</ele><time>2026-04-06T15:53:33.923Z</time></trkpt><trkpt lat="45.61332349453626" lon="10.689881172184716"><ele>71.0</ele><time>2026-04-06T15:53:34.923Z</time></trkpt><trkpt lat="45.61329263630152" lon="10.689758396746873"><ele>71.0</ele><time>2026-04-06T15:53:35.923Z</time></trkpt><trkpt lat="45.61326075235215" lon="10.689630442451763"><ele>71.0</ele><time>2026-04-06T15:53:36.923Z</time></trkpt><trkpt lat="45.613227213137094" lon="10.689494467087"><ele>71.0</ele><time>2026-04-06T15:53:37.923Z</time></trkpt><trkpt lat="45.61319544885488" lon="10.689365687586701"><ele>71.0</ele><time>2026-04-06T15:53:38.923Z</time></trkpt><trkpt lat="45.6131634902166" lon="10.689236120341318"><ele>71.39999999999999</ele><time>2026-04-06T15:53:39.923Z</time></trkpt><trkpt lat="45.61313291502302" lon="10.689121710844798"><ele>71.8</ele><time>2026-04-06T15:53:40.923Z</time></trkpt><trkpt lat="45.6131056556301" lon="10.68902798508721"><ele>72.19999999999999</ele><time>2026-04-06T15:53:41.923Z</time></trkpt><trkpt lat="45.613069874740994" lon="10.688917307103377"><ele>72.6</ele><time>2026-04-06T15:53:43.923Z</time></trkpt><trkpt lat="45.6130082504224" lon="10.688753816430783"><ele>73.0</ele><time>2026-04-06T15:53:45.923Z</time></trkpt><trkpt lat="45.61294936353654" lon="10.68863235321966"><ele>72.6</ele><time>2026-04-06T15:53:46.923Z</time></trkpt><trkpt lat="45.61288204700758" lon="10.68851729026164"><ele>72.19999999999999</ele><time>2026-04-06T15:53:47.923Z</time></trkpt><trkpt lat="45.6128231476493" lon="10.688433580530601"><ele>71.8</ele><time>2026-04-06T15:53:48.923Z</time></trkpt><trkpt lat="45.61277862342063" lon="10.68835235809447"><ele>71.39999999999999</ele><time>2026-04-06T15:53:49.923Z</time></trkpt><trkpt lat="45.61271831830634" lon="10.688283699517706"><ele>71.0</ele><time>2026-04-06T15:53:50.923Z</time></trkpt><trkpt lat="45.61261344701273" lon="10.688164555687207"><ele>70.83333333333334</ele><time>2026-04-06T15:53:52.923Z</time></trkpt><trkpt lat="45.6125306446643" lon="10.688100265246916"><ele>70.66666666666667</ele><time>2026-04-06T15:53:53.923Z</time></trkpt><trkpt lat="45.61244532747927" lon="10.688027441963728"><ele>70.5</ele><time>2026-04-06T15:53:54.923Z</time></trkpt><trkpt lat="45.61237138151192" lon="10.687969374393424"><ele>70.33333333333333</ele><time>2026-04-06T15:53:55.923Z</time></trkpt><trkpt lat="45.612300686100355" lon="10.687915436331565"><ele>70.16666666666666</ele><time>2026-04-06T15:53:56.923Z</time></trkpt><trkpt lat="45.61223643310084" lon="10.687862381337709"><ele>70.0</ele><time>2026-04-06T15:53:57.923Z</time></trkpt><trkpt lat="45.612169209707915" lon="10.687789793655195"><ele>70.0</ele><time>2026-04-06T15:53:58.923Z</time></trkpt><trkpt lat="45.612110284357165" lon="10.687736526641292"><ele>70.0</ele><time>2026-04-06T15:53:59.923Z</time></trkpt><trkpt lat="45.612053495772585" lon="10.687693989683575"><ele>70.0</ele><time>2026-04-06T15:54:00.923Z</time></trkpt><trkpt lat="45.61198902906397" lon="10.687651883785826"><ele>70.0</ele><time>2026-04-06T15:54:01.923Z</time></trkpt><trkpt lat="45.61193411945339" lon="10.687599955782405"><ele>70.0</ele><time>2026-04-06T15:54:02.923Z</time></trkpt><trkpt lat="45.611847025980644" lon="10.687535838264228"><ele>70.0</ele><time>2026-04-06T15:54:04.923Z</time></trkpt><trkpt lat="45.611786977624" lon="10.68748640748287"><ele>70.0</ele><time>2026-04-06T15:54:06.923Z</time></trkpt><trkpt lat="45.611714604269736" lon="10.687441748892676"><ele>70.0</ele><time>2026-04-06T15:54:09.923Z</time></trkpt><trkpt lat="45.61165102681951" lon="10.687420036243765"><ele>70.0</ele><time>2026-04-06T15:54:11.923Z</time></trkpt><trkpt lat="45.61155834323185" lon="10.687370275620554"><ele>70.0</ele><time>2026-04-06T15:54:13.923Z</time></trkpt><trkpt lat="45.61145930123013" lon="10.687316719346484"><ele>70.0</ele><time>2026-04-06T15:54:15.923Z</time></trkpt><trkpt lat="45.61138883890609" lon="10.687289176993282"><ele>70.0</ele><time>2026-04-06T15:54:17.923Z</time></trkpt><trkpt lat="45.61131046955766" lon="10.687255180127284"><ele>70.0</ele><time>2026-04-06T15:54:19.923Z</time></trkpt><trkpt lat="45.61123096277797" lon="10.687227001107509"><ele>70.0</ele><time>2026-04-06T15:54:21.923Z</time></trkpt><trkpt lat="45.61116618495936" lon="10.687205436253219"><ele>70.0</ele><time>2026-04-06T15:54:23.923Z</time></trkpt><trkpt lat="45.61110298816657" lon="10.687180623130388"><ele>70.0</ele><time>2026-04-06T15:54:25.923Z</time></trkpt><trkpt lat="45.61102547923107" lon="10.687160242562573"><ele>70.0</ele><time>2026-04-06T15:54:27.923Z</time></trkpt><trkpt lat="45.61095171803141" lon="10.687144194480291"><ele>70.0</ele><time>2026-04-06T15:54:29.923Z</time></trkpt><trkpt lat="45.610876997922986" lon="10.687124691974168"><ele>70.0</ele><time>2026-04-06T15:54:31.923Z</time></trkpt><trkpt lat="45.610793032194664" lon="10.687101036009395"><ele>70.0</ele><time>2026-04-06T15:54:34.923Z</time></trkpt><trkpt lat="45.61072536359904" lon="10.687083804662459"><ele>69.83333333333333</ele><time>2026-04-06T15:54:36.923Z</time></trkpt><trkpt lat="45.61066104164033" lon="10.687068694078343"><ele>69.66666666666666</ele><time>2026-04-06T15:54:38.923Z</time></trkpt><trkpt lat="45.61059210002109" lon="10.68707257531116"><ele>69.5</ele><time>2026-04-06T15:54:40.923Z</time></trkpt><trkpt lat="45.61052048858601" lon="10.687061056018509"><ele>69.33333333333333</ele><time>2026-04-06T15:54:42.923Z</time></trkpt><trkpt lat="45.6104349523316" lon="10.687044205320682"><ele>69.16666666666667</ele><time>2026-04-06T15:54:44.923Z</time></trkpt><trkpt lat="45.61035401163734" lon="10.687030340695495"><ele>69.0</ele><time>2026-04-06T15:54:46.923Z</time></trkpt><trkpt lat="45.61027066467381" lon="10.687019113901362"><ele>69.4</ele><time>2026-04-06T15:55:04.923Z</time></trkpt><trkpt lat="45.61019785837552" lon="10.687002766955146"><ele>69.80000000000001</ele><time>2026-04-06T15:55:06.923Z</time></trkpt><trkpt lat="45.610102892841425" lon="10.686965287614454"><ele>70.19999999999999</ele><time>2026-04-06T15:55:08.923Z</time></trkpt><trkpt lat="45.61004855588402" lon="10.687187824864287"><ele>70.6</ele><time>2026-04-06T15:55:10.923Z</time></trkpt><trkpt lat="45.61005660772025" lon="10.687333287819685"><ele>71.0</ele><time>2026-04-06T15:55:12.923Z</time></trkpt><trkpt lat="45.61004995066247" lon="10.687430878737027"><ele>71.0</ele><time>2026-04-06T15:55:13.923Z</time></trkpt><trkpt lat="45.6100422769091" lon="10.687539314528879"><ele>71.0</ele><time>2026-04-06T15:55:14.923Z</time></trkpt><trkpt lat="45.610036807169294" lon="10.68763291117788"><ele>71.0</ele><time>2026-04-06T15:55:15.923Z</time></trkpt><trkpt lat="45.61001569364544" lon="10.687803762300778"><ele>71.0</ele><time>2026-04-06T15:55:17.923Z</time></trkpt><trkpt lat="45.61000330314238" lon="10.687996931347072"><ele>71.0</ele><time>2026-04-06T15:55:19.923Z</time></trkpt><trkpt lat="45.609994302558896" lon="10.68809900293005"><ele>71.33333333333334</ele><time>2026-04-06T15:55:20.923Z</time></trkpt><trkpt lat="45.609987770538" lon="10.688200452731092"><ele>71.66666666666667</ele><time>2026-04-06T15:55:21.923Z</time></trkpt><trkpt lat="45.609975869561836" lon="10.688385885040793"><ele>72.0</ele><time>2026-04-06T15:55:23.923Z</time></trkpt><trkpt lat="45.60995338357704" lon="10.688499743789608"><ele>72.33333333333333</ele><time>2026-04-06T15:55:24.923Z</time></trkpt><trkpt lat="45.60994343823144" lon="10.688605208015986"><ele>72.66666666666666</ele><time>2026-04-06T15:55:25.923Z</time></trkpt><trkpt lat="45.60993594844327" lon="10.688708336741287"><ele>73.0</ele><time>2026-04-06T15:55:26.923Z</time></trkpt><trkpt lat="45.60991234624007" lon="10.688811868746356"><ele>73.57142857142857</ele><time>2026-04-06T15:55:27.923Z</time></trkpt><trkpt lat="45.60989448031962" lon="10.68891105143453"><ele>74.14285714285714</ele><time>2026-04-06T15:55:28.923Z</time></trkpt><trkpt lat="45.609880221278594" lon="10.68901296099483"><ele>74.71428571428572</ele><time>2026-04-06T15:55:29.923Z</time></trkpt><trkpt lat="45.60986073868562" lon="10.689112629866424"><ele>75.28571428571428</ele><time>2026-04-06T15:55:30.923Z</time></trkpt><trkpt lat="45.60984016106272" lon="10.689207464589977"><ele>75.85714285714286</ele><time>2026-04-06T15:55:31.923Z</time></trkpt><trkpt lat="45.60982168268908" lon="10.689316385575118"><ele>76.42857142857143</ele><time>2026-04-06T15:55:32.923Z</time></trkpt><trkpt lat="45.60980632860184" lon="10.689424945570911"><ele>77.0</ele><time>2026-04-06T15:55:33.923Z</time></trkpt><trkpt lat="45.60979606304094" lon="10.689520169616516"><ele>78.0</ele><time>2026-04-06T15:55:34.923Z</time></trkpt><trkpt lat="45.60979523739396" lon="10.689614230908525"><ele>79.0</ele><time>2026-04-06T15:55:35.923Z</time></trkpt><trkpt lat="45.60979927150784" lon="10.68977755974386"><ele>80.0</ele><time>2026-04-06T15:55:37.923Z</time></trkpt><trkpt lat="45.60981177887935" lon="10.689866198176246"><ele>81.0</ele><time>2026-04-06T15:55:38.923Z</time></trkpt><trkpt lat="45.60981541000446" lon="10.689956404045516"><ele>82.0</ele><time>2026-04-06T15:55:39.923Z</time></trkpt><trkpt lat="45.60982634443239" lon="10.690109415607784"><ele>83.0</ele><time>2026-04-06T15:55:41.923Z</time></trkpt><trkpt lat="45.60983305548876" lon="10.690219461307606"><ele>84.0</ele><time>2026-04-06T15:55:43.923Z</time></trkpt><trkpt lat="45.60984059548371" lon="10.690344542483084"><ele>85.0</ele><time>2026-04-06T15:55:45.923Z</time></trkpt><trkpt lat="45.609836275537276" lon="10.69046028711842"><ele>86.0</ele><time>2026-04-06T15:55:47.923Z</time></trkpt><trkpt lat="45.60982911603761" lon="10.690563197486208"><ele>87.0</ele><time>2026-04-06T15:55:49.923Z</time></trkpt><trkpt lat="45.60982538648434" lon="10.690679147108192"><ele>88.0</ele><time>2026-04-06T15:55:51.923Z</time></trkpt><trkpt lat="45.609807602805205" lon="10.690824049813452"><ele>89.0</ele><time>2026-04-06T15:55:53.923Z</time></trkpt><trkpt lat="45.60977509801877" lon="10.690965267869462"><ele>89.0</ele><time>2026-04-06T15:55:55.923Z</time></trkpt><trkpt lat="45.60973430854019" lon="10.691047920679756"><ele>89.0</ele><time>2026-04-06T15:55:56.923Z</time></trkpt><trkpt lat="45.609668687697344" lon="10.691114473902214"><ele>89.0</ele><time>2026-04-06T15:55:57.923Z</time></trkpt><trkpt lat="45.60956224085072" lon="10.691141283695819"><ele>89.0</ele><time>2026-04-06T15:55:58.923Z</time></trkpt><trkpt lat="45.609440835708384" lon="10.691157442319152"><ele>89.0</ele><time>2026-04-06T15:55:59.923Z</time></trkpt><trkpt lat="45.60929924463429" lon="10.691155349887547"><ele>91.5</ele><time>2026-04-06T15:56:00.923Z</time></trkpt><trkpt lat="45.609145084325746" lon="10.69114608983357"><ele>94.0</ele><time>2026-04-06T15:56:01.923Z</time></trkpt><trkpt lat="45.6090226217203" lon="10.691133352899053"><ele>96.5</ele><time>2026-04-06T15:56:02.923Z</time></trkpt><trkpt lat="45.60891782930182" lon="10.691132750041065"><ele>99.0</ele><time>2026-04-06T15:56:03.923Z</time></trkpt><trkpt lat="45.60883031812952" lon="10.691139336274578"><ele>99.0</ele><time>2026-04-06T15:56:04.923Z</time></trkpt><trkpt lat="45.6087527006175" lon="10.691148224331627"><ele>99.0</ele><time>2026-04-06T15:56:05.923Z</time></trkpt><trkpt lat="45.60866719627936" lon="10.691147708632101"><ele>99.0</ele><time>2026-04-06T15:56:06.923Z</time></trkpt><trkpt lat="45.60858415212108" lon="10.691157498764955"><ele>99.0</ele><time>2026-04-06T15:56:07.923Z</time></trkpt><trkpt lat="45.60850069226853" lon="10.691160154864406"><ele>99.0</ele><time>2026-04-06T15:56:08.923Z</time></trkpt><trkpt lat="45.60840979898667" lon="10.691159657188567"><ele>99.0</ele><time>2026-04-06T15:56:09.923Z</time></trkpt><trkpt lat="45.60833044175468" lon="10.691169824013635"><ele>98.16666666666667</ele><time>2026-04-06T15:56:10.923Z</time></trkpt><trkpt lat="45.608246165289046" lon="10.691164023308952"><ele>97.33333333333333</ele><time>2026-04-06T15:56:11.923Z</time></trkpt><trkpt lat="45.60816076179444" lon="10.691154963450428"><ele>96.5</ele><time>2026-04-06T15:56:12.923Z</time></trkpt><trkpt lat="45.60809068462479" lon="10.69114449319247"><ele>95.66666666666666</ele><time>2026-04-06T15:56:13.923Z</time></trkpt><trkpt lat="45.60797039456772" lon="10.69110365548397"><ele>94.83333333333333</ele><time>2026-04-06T15:56:15.923Z</time></trkpt><trkpt lat="45.60791156310618" lon="10.691041709917695"><ele>94.0</ele><time>2026-04-06T15:56:16.923Z</time></trkpt><trkpt lat="45.607724826981986" lon="10.690984047204031"><ele>96.0</ele><time>2026-04-06T15:56:18.923Z</time></trkpt><trkpt lat="45.60764735034315" lon="10.690928218992257"><ele>98.0</ele><time>2026-04-06T15:56:19.923Z</time></trkpt><trkpt lat="45.607560526052985" lon="10.690888119917823"><ele>100.0</ele><time>2026-04-06T15:56:20.923Z</time></trkpt><trkpt lat="45.60746860131095" lon="10.69085593879938"><ele>102.0</ele><time>2026-04-06T15:56:21.923Z</time></trkpt><trkpt lat="45.607354996864174" lon="10.69081743966862"><ele>104.0</ele><time>2026-04-06T15:56:22.923Z</time></trkpt><trkpt lat="45.6072072166427" lon="10.690762729409022"><ele>104.0</ele><time>2026-04-06T15:56:23.923Z</time></trkpt><trkpt lat="45.60704165214271" lon="10.69068655178199"><ele>104.0</ele><time>2026-04-06T15:56:24.923Z</time></trkpt><trkpt lat="45.60690055567641" lon="10.690624055881118"><ele>104.0</ele><time>2026-04-06T15:56:25.923Z</time></trkpt><trkpt lat="45.606788823863226" lon="10.6905529506148"><ele>104.0</ele><time>2026-04-06T15:56:26.923Z</time></trkpt><trkpt lat="45.606689710313326" lon="10.69048655479966"><ele>103.80000000000001</ele><time>2026-04-06T15:56:27.923Z</time></trkpt><trkpt lat="45.60661011042318" lon="10.690420092063526"><ele>103.60000000000001</ele><time>2026-04-06T15:56:28.923Z</time></trkpt><trkpt lat="45.606538853227505" lon="10.69036978547839"><ele>103.4</ele><time>2026-04-06T15:56:29.923Z</time></trkpt><trkpt lat="45.606437573418404" lon="10.690263656279074"><ele>103.2</ele><time>2026-04-06T15:56:31.923Z</time></trkpt><trkpt lat="45.60637444612547" lon="10.690193600580873"><ele>103.0</ele><time>2026-04-06T15:56:32.923Z</time></trkpt><trkpt lat="45.60629105661779" lon="10.690115605135988"><ele>103.0</ele><time>2026-04-06T15:56:33.923Z</time></trkpt><trkpt lat="45.606211315137266" lon="10.690004229824929"><ele>103.0</ele><time>2026-04-06T15:56:34.923Z</time></trkpt><trkpt lat="45.60613396064982" lon="10.689898921982897"><ele>103.0</ele><time>2026-04-06T15:56:35.923Z</time></trkpt><trkpt lat="45.60605980177902" lon="10.689822277788238"><ele>103.0</ele><time>2026-04-06T15:56:36.923Z</time></trkpt><trkpt lat="45.60598302313099" lon="10.689752798076126"><ele>103.0</ele><time>2026-04-06T15:56:37.923Z</time></trkpt><trkpt lat="45.60588540342831" lon="10.689693212296504"><ele>107.5</ele><time>2026-04-06T15:56:38.923Z</time></trkpt><trkpt lat="45.60576574217719" lon="10.689633306070556"><ele>112.0</ele><time>2026-04-06T15:56:39.923Z</time></trkpt><trkpt lat="45.60564698370098" lon="10.689577947687715"><ele>116.5</ele><time>2026-04-06T15:56:40.923Z</time></trkpt><trkpt lat="45.605546645085695" lon="10.6895291701183"><ele>121.0</ele><time>2026-04-06T15:56:41.923Z</time></trkpt><trkpt lat="45.60545969675549" lon="10.6894868416441"><ele>121.0</ele><time>2026-04-06T15:56:42.923Z</time></trkpt><trkpt lat="45.605382399600266" lon="10.68944641431225"><ele>121.0</ele><time>2026-04-06T15:56:43.923Z</time></trkpt><trkpt lat="45.605305927004" lon="10.689394396707165"><ele>121.0</ele><time>2026-04-06T15:56:44.923Z</time></trkpt><trkpt lat="45.605216653348904" lon="10.689335120051975"><ele>121.0</ele><time>2026-04-06T15:56:45.923Z</time></trkpt><trkpt lat="45.605090716683414" lon="10.689289412113823"><ele>121.0</ele><time>2026-04-06T15:56:46.923Z</time></trkpt><trkpt lat="45.60495326232026" lon="10.689276660651444"><ele>120.83333333333334</ele><time>2026-04-06T15:56:47.923Z</time></trkpt><trkpt lat="45.604848326951995" lon="10.68926790278119"><ele>120.66666666666667</ele><time>2026-04-06T15:56:48.923Z</time></trkpt><trkpt lat="45.604752687539325" lon="10.689250496753305"><ele>120.5</ele><time>2026-04-06T15:56:49.924Z</time></trkpt><trkpt lat="45.604674864536825" lon="10.689218656203904"><ele>120.33333333333334</ele><time>2026-04-06T15:56:50.924Z</time></trkpt><trkpt lat="45.60459353580169" lon="10.689187699061218"><ele>120.16666666666667</ele><time>2026-04-06T15:56:51.924Z</time></trkpt><trkpt lat="45.60452870276202" lon="10.689181849724399"><ele>120.0</ele><time>2026-04-06T15:56:52.924Z</time></trkpt><trkpt lat="45.604466511461816" lon="10.689154665217186"><ele>121.4</ele><time>2026-04-06T15:56:54.924Z</time></trkpt><trkpt lat="45.60439203555079" lon="10.689145172504924"><ele>122.8</ele><time>2026-04-06T15:56:57.924Z</time></trkpt><trkpt lat="45.60432400127646" lon="10.68919588423856"><ele>124.19999999999999</ele><time>2026-04-06T15:56:59.924Z</time></trkpt><trkpt lat="45.60441866618899" lon="10.689402246085079"><ele>125.6</ele><time>2026-04-06T15:57:02.924Z</time></trkpt><trkpt lat="45.60451403609289" lon="10.689485576605513"><ele>127.0</ele><time>2026-04-06T15:57:03.924Z</time></trkpt><trkpt lat="45.604593151110784" lon="10.68955010309173"><ele>128.4</ele><time>2026-04-06T15:57:04.924Z</time></trkpt><trkpt lat="45.604685429534534" lon="10.689623521433964"><ele>129.79999999999998</ele><time>2026-04-06T15:57:05.924Z</time></trkpt><trkpt lat="45.60478241019649" lon="10.68967497828851"><ele>131.2</ele><time>2026-04-06T15:57:06.924Z</time></trkpt><trkpt lat="45.604868723582584" lon="10.689772631982445"><ele>132.6</ele><time>2026-04-06T15:57:07.924Z</time></trkpt><trkpt lat="45.604962577573026" lon="10.68985318585241"><ele>134.0</ele><time>2026-04-06T15:57:08.924Z</time></trkpt><trkpt lat="45.60503721450828" lon="10.689920345372599"><ele>134.0</ele><time>2026-04-06T15:57:09.924Z</time></trkpt><trkpt lat="45.60511167826973" lon="10.68999041695089"><ele>134.0</ele><time>2026-04-06T15:57:10.924Z</time></trkpt><trkpt lat="45.60518631983685" lon="10.69006128966888"><ele>134.0</ele><time>2026-04-06T15:57:11.924Z</time></trkpt><trkpt lat="45.60527173619488" lon="10.690121377302747"><ele>134.0</ele><time>2026-04-06T15:57:12.924Z</time></trkpt><trkpt lat="45.60535491528744" lon="10.690198208406535"><ele>134.0</ele><time>2026-04-06T15:57:13.924Z</time></trkpt><trkpt lat="45.605417593012916" lon="10.690294762276487"><ele>134.5</ele><time>2026-04-06T15:57:14.924Z</time></trkpt><trkpt lat="45.6054884289354" lon="10.69037678507289"><ele>135.0</ele><time>2026-04-06T15:57:15.924Z</time></trkpt><trkpt lat="45.60555774398928" lon="10.690458196237017"><ele>135.5</ele><time>2026-04-06T15:57:16.924Z</time></trkpt><trkpt lat="45.60562097468413" lon="10.690532461263555"><ele>136.0</ele><time>2026-04-06T15:57:17.924Z</time></trkpt><trkpt lat="45.60567855910527" lon="10.69060009347616"><ele>136.5</ele><time>2026-04-06T15:57:18.924Z</time></trkpt><trkpt lat="45.605727656650885" lon="10.690657758961908"><ele>137.0</ele><time>2026-04-06T15:57:19.924Z</time></trkpt><trkpt lat="45.60581098123564" lon="10.69075816960033"><ele>137.0</ele><time>2026-04-06T15:57:21.924Z</time></trkpt><trkpt lat="45.6058739719216" lon="10.690838443815814"><ele>137.0</ele><time>2026-04-06T15:57:23.924Z</time></trkpt><trkpt lat="45.60592026794441" lon="10.690925238154323"><ele>137.0</ele><time>2026-04-06T15:57:25.924Z</time></trkpt><trkpt lat="45.60585560639496" lon="10.69098419998439"><ele>137.0</ele><time>2026-04-06T15:57:27.924Z</time></trkpt><trkpt lat="45.605797943419425" lon="10.690913350602381"><ele>137.0</ele><time>2026-04-06T15:57:28.924Z</time></trkpt><trkpt lat="45.60572955331075" lon="10.690847398185605"><ele>137.0</ele><time>2026-04-06T15:57:29.924Z</time></trkpt><trkpt lat="45.6056552579303" lon="10.690755872259157"><ele>137.0</ele><time>2026-04-06T15:57:30.924Z</time></trkpt><trkpt lat="45.6055661614699" lon="10.690679937101844"><ele>137.0</ele><time>2026-04-06T15:57:31.924Z</time></trkpt><trkpt lat="45.605467831584605" lon="10.690598272891492"><ele>137.0</ele><time>2026-04-06T15:57:32.924Z</time></trkpt><trkpt lat="45.60534407355421" lon="10.690529264653508"><ele>137.0</ele><time>2026-04-06T15:57:33.924Z</time></trkpt><trkpt lat="45.605237681454035" lon="10.690491533028311"><ele>140.2</ele><time>2026-04-06T15:57:34.924Z</time></trkpt><trkpt lat="45.60515437514499" lon="10.690476917966318"><ele>143.39999999999998</ele><time>2026-04-06T15:57:35.924Z</time></trkpt><trkpt lat="45.605064451227534" lon="10.690482176409562"><ele>146.60000000000002</ele><time>2026-04-06T15:57:36.924Z</time></trkpt><trkpt lat="45.60496096452794" lon="10.690487702149115"><ele>149.8</ele><time>2026-04-06T15:57:37.924Z</time></trkpt><trkpt lat="45.60484262830114" lon="10.69046494054404"><ele>153.0</ele><time>2026-04-06T15:57:38.924Z</time></trkpt><trkpt lat="45.60472789935334" lon="10.690426151931652"><ele>153.0</ele><time>2026-04-06T15:57:39.924Z</time></trkpt><trkpt lat="45.604637015292006" lon="10.690378690421284"><ele>153.0</ele><time>2026-04-06T15:57:40.924Z</time></trkpt><trkpt lat="45.6045640338673" lon="10.69034358482037"><ele>153.0</ele><time>2026-04-06T15:57:41.924Z</time></trkpt><trkpt lat="45.60449662995212" lon="10.69032888529455"><ele>153.0</ele><time>2026-04-06T15:57:42.924Z</time></trkpt><trkpt lat="45.60443171063076" lon="10.690302587096664"><ele>153.0</ele><time>2026-04-06T15:57:43.924Z</time></trkpt><trkpt lat="45.60433732491317" lon="10.690268626127507"><ele>153.0</ele><time>2026-04-06T15:57:44.924Z</time></trkpt><trkpt lat="45.604199647270434" lon="10.69024962037182"><ele>157.0</ele><time>2026-04-06T15:57:45.924Z</time></trkpt><trkpt lat="45.60402883511516" lon="10.69025839616584"><ele>161.0</ele><time>2026-04-06T15:57:46.924Z</time></trkpt><trkpt lat="45.603862475935784" lon="10.6902686763978"><ele>165.0</ele><time>2026-04-06T15:57:47.924Z</time></trkpt><trkpt lat="45.60370159997944" lon="10.690275599576093"><ele>167.33333333333334</ele><time>2026-04-06T15:57:48.924Z</time></trkpt><trkpt lat="45.60352645051015" lon="10.690259107006234"><ele>169.66666666666669</ele><time>2026-04-06T15:57:49.924Z</time></trkpt><trkpt lat="45.60335183383949" lon="10.69025856008928"><ele>172.0</ele><time>2026-04-06T15:57:50.924Z</time></trkpt><trkpt lat="45.603193944868345" lon="10.690285963028964"><ele>172.0</ele><time>2026-04-06T15:57:51.924Z</time></trkpt><trkpt lat="45.60305395928605" lon="10.690294075384678"><ele>172.0</ele><time>2026-04-06T15:57:52.924Z</time></trkpt><trkpt lat="45.602922779284555" lon="10.690307006125177"><ele>172.0</ele><time>2026-04-06T15:57:53.924Z</time></trkpt><trkpt lat="45.60281243396114" lon="10.69029188685018"><ele>172.0</ele><time>2026-04-06T15:57:54.924Z</time></trkpt><trkpt lat="45.60270970828859" lon="10.690302308171702"><ele>174.25</ele><time>2026-04-06T15:57:55.924Z</time></trkpt><trkpt lat="45.602591944422045" lon="10.690287406238587"><ele>176.5</ele><time>2026-04-06T15:57:56.924Z</time></trkpt><trkpt lat="45.60247292960382" lon="10.690264095467349"><ele>178.75</ele><time>2026-04-06T15:57:57.924Z</time></trkpt><trkpt lat="45.60234921606704" lon="10.690254155321432"><ele>181.0</ele><time>2026-04-06T15:57:58.924Z</time></trkpt><trkpt lat="45.60220069268328" lon="10.690225748838076"><ele>175.33333333333334</ele><time>2026-04-06T15:57:59.924Z</time></trkpt><trkpt lat="45.602021823955965" lon="10.690228826502121"><ele>169.66666666666666</ele><time>2026-04-06T15:58:00.924Z</time></trkpt><trkpt lat="45.60182163837167" lon="10.690232225011739"><ele>164.0</ele><time>2026-04-06T15:58:01.924Z</time></trkpt><trkpt lat="45.601602581976515" lon="10.690202387939681"><ele>164.0</ele><time>2026-04-06T15:58:02.924Z</time></trkpt><trkpt lat="45.6013833489589" lon="10.690194070748115"><ele>164.0</ele><time>2026-04-06T15:58:03.924Z</time></trkpt><trkpt lat="45.60120124122574" lon="10.690190246284619"><ele>164.0</ele><time>2026-04-06T15:58:04.924Z</time></trkpt><trkpt lat="45.6010465672292" lon="10.690188724927143"><ele>165.2</ele><time>2026-04-06T15:58:05.924Z</time></trkpt><trkpt lat="45.60091369618652" lon="10.690172946498262"><ele>166.39999999999998</ele><time>2026-04-06T15:58:06.924Z</time></trkpt><trkpt lat="45.60080030092997" lon="10.690152523235572"><ele>167.6</ele><time>2026-04-06T15:58:07.924Z</time></trkpt><trkpt lat="45.6007215605778" lon="10.690136881444573"><ele>168.8</ele><time>2026-04-06T15:58:08.924Z</time></trkpt><trkpt lat="45.600665541826395" lon="10.690214732429187"><ele>170.0</ele><time>2026-04-06T15:58:10.924Z</time></trkpt><trkpt lat="45.60067971305122" lon="10.690322494780315"><ele>174.5</ele><time>2026-04-06T15:58:11.924Z</time></trkpt><trkpt lat="45.60081341090229" lon="10.690369110892137"><ele>179.0</ele><time>2026-04-06T15:58:12.924Z</time></trkpt><trkpt lat="45.60093210803589" lon="10.690395451574794"><ele>183.5</ele><time>2026-04-06T15:58:13.924Z</time></trkpt><trkpt lat="45.60108181361102" lon="10.690491749370272"><ele>188.0</ele><time>2026-04-06T15:58:14.924Z</time></trkpt><trkpt lat="45.60124383452711" lon="10.690609623912636"><ele>188.0</ele><time>2026-04-06T15:58:15.924Z</time></trkpt><trkpt lat="45.601461743524474" lon="10.69070052591487"><ele>188.0</ele><time>2026-04-06T15:58:16.924Z</time></trkpt><trkpt lat="45.60166037695444" lon="10.690774769516684"><ele>188.0</ele><time>2026-04-06T15:58:17.924Z</time></trkpt><trkpt lat="45.60182177972808" lon="10.690845657337665"><ele>188.0</ele><time>2026-04-06T15:58:18.924Z</time></trkpt><trkpt lat="45.60196547838178" lon="10.690913241556814"><ele>188.0</ele><time>2026-04-06T15:58:19.924Z</time></trkpt><trkpt lat="45.60209092563021" lon="10.690977220465962"><ele>188.0</ele><time>2026-04-06T15:58:20.924Z</time></trkpt><trkpt lat="45.60219679516888" lon="10.69104835473525"><ele>188.0</ele><time>2026-04-06T15:58:21.924Z</time></trkpt><trkpt lat="45.602293623093956" lon="10.691086231890045"><ele>191.2</ele><time>2026-04-06T15:58:22.924Z</time></trkpt><trkpt lat="45.60238250478021" lon="10.691139159949392"><ele>194.4</ele><time>2026-04-06T15:58:23.924Z</time></trkpt><trkpt lat="45.602466191136955" lon="10.691213885957481"><ele>197.6</ele><time>2026-04-06T15:58:24.924Z</time></trkpt><trkpt lat="45.602536148861994" lon="10.69132865493333"><ele>200.79999999999998</ele><time>2026-04-06T15:58:25.924Z</time></trkpt><trkpt lat="45.60262317869343" lon="10.691445002301025"><ele>204.0</ele><time>2026-04-06T15:58:26.924Z</time></trkpt><trkpt lat="45.60272766839198" lon="10.691547224823466"><ele>201.0</ele><time>2026-04-06T15:58:27.924Z</time></trkpt><trkpt lat="45.60284168403234" lon="10.691672378826826"><ele>198.0</ele><time>2026-04-06T15:58:28.924Z</time></trkpt><trkpt lat="45.60297761837608" lon="10.691794319158126"><ele>195.0</ele><time>2026-04-06T15:58:29.924Z</time></trkpt><trkpt lat="45.60313822501878" lon="10.69191542809688"><ele>202.0</ele><time>2026-04-06T15:58:30.924Z</time></trkpt><trkpt lat="45.60330236221786" lon="10.692029774148146"><ele>209.0</ele><time>2026-04-06T15:58:31.924Z</time></trkpt><trkpt lat="45.603436329463385" lon="10.692121071391464"><ele>216.0</ele><time>2026-04-06T15:58:32.924Z</time></trkpt><trkpt lat="45.60354994916826" lon="10.692205215490674"><ele>216.0</ele><time>2026-04-06T15:58:33.924Z</time></trkpt><trkpt lat="45.60364846111077" lon="10.692275175601669"><ele>216.00000000000003</ele><time>2026-04-06T15:58:34.924Z</time></trkpt><trkpt lat="45.60373729708382" lon="10.692356546357498"><ele>216.00000000000003</ele><time>2026-04-06T15:58:35.924Z</time></trkpt><trkpt lat="45.6038185130754" lon="10.692427356174655"><ele>216.0</ele><time>2026-04-06T15:58:36.924Z</time></trkpt><trkpt lat="45.60390541127742" lon="10.692514834770092"><ele>216.0</ele><time>2026-04-06T15:58:37.924Z</time></trkpt><trkpt lat="45.60398473075113" lon="10.692617263955443"><ele>216.0</ele><time>2026-04-06T15:58:38.924Z</time></trkpt><trkpt lat="45.60408064997675" lon="10.692735392259276"><ele>216.00000000000003</ele><time>2026-04-06T15:58:39.924Z</time></trkpt><trkpt lat="45.60415211199609" lon="10.692818164988523"><ele>216.00000000000003</ele><time>2026-04-06T15:58:40.924Z</time></trkpt><trkpt lat="45.60424408446143" lon="10.692891240055928"><ele>216.0</ele><time>2026-04-06T15:58:41.924Z</time></trkpt><trkpt lat="45.60433646429455" lon="10.692979767448476"><ele>216.0</ele><time>2026-04-06T15:58:42.924Z</time></trkpt><trkpt lat="45.604415455643995" lon="10.693088777952646"><ele>214.0</ele><time>2026-04-06T15:58:43.924Z</time></trkpt><trkpt lat="45.60451430166731" lon="10.693181641369515"><ele>212.00000000000003</ele><time>2026-04-06T15:58:44.924Z</time></trkpt><trkpt lat="45.604612867702876" lon="10.693264425010677"><ele>210.0</ele><time>2026-04-06T15:58:45.924Z</time></trkpt><trkpt lat="45.60470990271566" lon="10.693319629080168"><ele>208.0</ele><time>2026-04-06T15:58:46.924Z</time></trkpt><trkpt lat="45.60479609687189" lon="10.693392115324203"><ele>206.0</ele><time>2026-04-06T15:58:47.924Z</time></trkpt><trkpt lat="45.60487660547258" lon="10.693457986957494"><ele>206.0</ele><time>2026-04-06T15:58:48.924Z</time></trkpt><trkpt lat="45.60494438098771" lon="10.693517108665716"><ele>206.0</ele><time>2026-04-06T15:58:49.924Z</time></trkpt><trkpt lat="45.60500120391541" lon="10.693573873698277"><ele>206.0</ele><time>2026-04-06T15:58:50.924Z</time></trkpt><trkpt lat="45.60505429422437" lon="10.693628601875016"><ele>206.0</ele><time>2026-04-06T15:58:51.924Z</time></trkpt><trkpt lat="45.60516231197055" lon="10.693739215424822"><ele>206.0</ele><time>2026-04-06T15:58:53.924Z</time></trkpt><trkpt lat="45.605267896170616" lon="10.693838692125635"><ele>206.66666666666669</ele><time>2026-04-06T15:58:55.924Z</time></trkpt><trkpt lat="45.60532077996691" lon="10.693898427581132"><ele>207.33333333333334</ele><time>2026-04-06T15:58:56.924Z</time></trkpt><trkpt lat="45.605375730509515" lon="10.69395392765219"><ele>208.0</ele><time>2026-04-06T15:58:57.924Z</time></trkpt><trkpt lat="45.60546590187776" lon="10.694058838663027"><ele>208.66666666666669</ele><time>2026-04-06T15:58:59.924Z</time></trkpt><trkpt lat="45.60551631150621" lon="10.69411713530007"><ele>209.33333333333334</ele><time>2026-04-06T15:59:00.924Z</time></trkpt><trkpt lat="45.6055739876724" lon="10.69418108259841"><ele>210.0</ele><time>2026-04-06T15:59:01.924Z</time></trkpt><trkpt lat="45.605629990845316" lon="10.69425256127287"><ele>210.0</ele><time>2026-04-06T15:59:02.924Z</time></trkpt><trkpt lat="45.60568954237686" lon="10.694332139082727"><ele>210.0</ele><time>2026-04-06T15:59:03.924Z</time></trkpt><trkpt lat="45.60575836926367" lon="10.694411140163169"><ele>210.0</ele><time>2026-04-06T15:59:04.924Z</time></trkpt><trkpt lat="45.60581241975472" lon="10.694523024994849"><ele>210.0</ele><time>2026-04-06T15:59:05.924Z</time></trkpt><trkpt lat="45.60588680519361" lon="10.694610755521273"><ele>210.0</ele><time>2026-04-06T15:59:06.924Z</time></trkpt><trkpt lat="45.60595607041588" lon="10.69471261435902"><ele>210.5</ele><time>2026-04-06T15:59:07.924Z</time></trkpt><trkpt lat="45.60601937527692" lon="10.69479740579023"><ele>211.0</ele><time>2026-04-06T15:59:08.924Z</time></trkpt><trkpt lat="45.60606946968088" lon="10.694874933043897"><ele>211.5</ele><time>2026-04-06T15:59:09.924Z</time></trkpt><trkpt lat="45.606122128920134" lon="10.694938848529826"><ele>212.0</ele><time>2026-04-06T15:59:11.924Z</time></trkpt><trkpt lat="45.606177755342934" lon="10.694797646094878"><ele>212.5</ele><time>2026-04-06T16:01:18.923Z</time></trkpt><trkpt lat="45.60615812288189" lon="10.694884993324631"><ele>213.0</ele><time>2026-04-06T16:10:27.912Z</time></trkpt><trkpt lat="45.60618630871808" lon="10.694985340253309"><ele>213.0</ele><time>2026-04-06T16:10:31.912Z</time></trkpt><trkpt lat="45.60624509779872" lon="10.695064845349089"><ele>213.0</ele><time>2026-04-06T16:10:32.912Z</time></trkpt><trkpt lat="45.606327344141526" lon="10.695155540749202"><ele>213.0</ele><time>2026-04-06T16:10:33.912Z</time></trkpt><trkpt lat="45.606435842526366" lon="10.695256780368446"><ele>213.0</ele><time>2026-04-06T16:10:34.912Z</time></trkpt><trkpt lat="45.60653425875129" lon="10.695337222081811"><ele>213.0</ele><time>2026-04-06T16:10:35.912Z</time></trkpt><trkpt lat="45.60660965293228" lon="10.695407174249063"><ele>217.0</ele><time>2026-04-06T16:10:36.912Z</time></trkpt><trkpt lat="45.606671536236526" lon="10.695465047638173"><ele>221.0</ele><time>2026-04-06T16:10:37.912Z</time></trkpt><trkpt lat="45.60673725986262" lon="10.695520562967385"><ele>225.0</ele><time>2026-04-06T16:10:38.912Z</time></trkpt><trkpt lat="45.60681573436844" lon="10.695603118689109"><ele>229.0</ele><time>2026-04-06T16:10:39.912Z</time></trkpt><trkpt lat="45.60691324963617" lon="10.695693265057937"><ele>233.0</ele><time>2026-04-06T16:10:40.912Z</time></trkpt><trkpt lat="45.60698264434066" lon="10.695788761118859"><ele>232.50000000000003</ele><time>2026-04-06T16:10:41.912Z</time></trkpt><trkpt lat="45.607035077588954" lon="10.695871759127584"><ele>232.0</ele><time>2026-04-06T16:10:42.912Z</time></trkpt><trkpt lat="45.60709911540286" lon="10.69595698451415"><ele>231.5</ele><time>2026-04-06T16:10:43.912Z</time></trkpt><trkpt lat="45.60715344172059" lon="10.696025262142545"><ele>231.0</ele><time>2026-04-06T16:10:44.912Z</time></trkpt><trkpt lat="45.607209590491436" lon="10.69613978261599"><ele>230.50000000000003</ele><time>2026-04-06T16:10:46.912Z</time></trkpt><trkpt lat="45.60712912431669" lon="10.696216326733724"><ele>230.0</ele><time>2026-04-06T16:10:48.912Z</time></trkpt><trkpt lat="45.60706762574801" lon="10.696137238217942"><ele>230.6</ele><time>2026-04-06T16:10:49.912Z</time></trkpt><trkpt lat="45.606992910892366" lon="10.69606249424354"><ele>231.2</ele><time>2026-04-06T16:10:50.912Z</time></trkpt><trkpt lat="45.606901351664426" lon="10.695979571042308"><ele>231.8</ele><time>2026-04-06T16:10:51.912Z</time></trkpt><trkpt lat="45.60682006596315" lon="10.695912727164249"><ele>232.4</ele><time>2026-04-06T16:10:52.912Z</time></trkpt><trkpt lat="45.60674153894971" lon="10.695866850441172"><ele>233.0</ele><time>2026-04-06T16:10:53.912Z</time></trkpt><trkpt lat="45.60662822948351" lon="10.69581641214774"><ele>233.0</ele><time>2026-04-06T16:10:54.912Z</time></trkpt><trkpt lat="45.60648919074407" lon="10.69576336885424"><ele>233.0</ele><time>2026-04-06T16:10:55.912Z</time></trkpt><trkpt lat="45.6063255990502" lon="10.69566787401824"><ele>233.0</ele><time>2026-04-06T16:10:56.912Z</time></trkpt><trkpt lat="45.606149279867694" lon="10.695542061120888"><ele>232.0</ele><time>2026-04-06T16:10:57.912Z</time></trkpt><trkpt lat="45.60599770070261" lon="10.695433729292837"><ele>231.0</ele><time>2026-04-06T16:10:58.912Z</time></trkpt><trkpt lat="45.6058651365688" lon="10.69534890068491"><ele>230.0</ele><time>2026-04-06T16:10:59.912Z</time></trkpt><trkpt lat="45.60575511279971" lon="10.695271703502037"><ele>229.0</ele><time>2026-04-06T16:11:00.912Z</time></trkpt><trkpt lat="45.60566579215265" lon="10.69520846636468"><ele>229.0</ele><time>2026-04-06T16:11:01.912Z</time></trkpt><trkpt lat="45.60560487448652" lon="10.695165578442897"><ele>228.99999999999997</ele><time>2026-04-06T16:11:02.912Z</time></trkpt><trkpt lat="45.605538825308564" lon="10.695169220647948"><ele>228.99999999999997</ele><time>2026-04-06T16:11:04.912Z</time></trkpt><trkpt lat="45.60549903757176" lon="10.695297638685604"><ele>229.0</ele><time>2026-04-06T16:11:05.912Z</time></trkpt><trkpt lat="45.60561380563309" lon="10.695423983051699"><ele>229.0</ele><time>2026-04-06T16:11:06.912Z</time></trkpt><trkpt lat="45.60568017094849" lon="10.695527913506455"><ele>233.5</ele><time>2026-04-06T16:11:07.912Z</time></trkpt><trkpt lat="45.60574094491901" lon="10.695618147592475"><ele>238.0</ele><time>2026-04-06T16:11:08.912Z</time></trkpt><trkpt lat="45.605833909563295" lon="10.695751088199996"><ele>242.5</ele><time>2026-04-06T16:11:09.912Z</time></trkpt><trkpt lat="45.60594476296691" lon="10.695889808384022"><ele>247.0</ele><time>2026-04-06T16:11:10.912Z</time></trkpt><trkpt lat="45.606025729427934" lon="10.695969500514808"><ele>246.99999999999997</ele><time>2026-04-06T16:11:11.912Z</time></trkpt><trkpt lat="45.606110635099334" lon="10.696045857795095"><ele>247.0</ele><time>2026-04-06T16:11:12.912Z</time></trkpt><trkpt lat="45.60619946852905" lon="10.696119218631669"><ele>247.0</ele><time>2026-04-06T16:11:13.912Z</time></trkpt><trkpt lat="45.60627956634168" lon="10.696167294698563"><ele>247.0</ele><time>2026-04-06T16:11:14.912Z</time></trkpt><trkpt lat="45.606344845011435" lon="10.696234591162193"><ele>246.99999999999997</ele><time>2026-04-06T16:11:15.912Z</time></trkpt><trkpt lat="45.60639156795832" lon="10.696316874836432"><ele>247.0</ele><time>2026-04-06T16:11:16.912Z</time></trkpt><trkpt lat="45.606438451322035" lon="10.69638592729458"><ele>247.16666666666666</ele><time>2026-04-06T16:11:17.912Z</time></trkpt><trkpt lat="45.60646651340934" lon="10.696472924234332"><ele>247.33333333333331</ele><time>2026-04-06T16:11:18.912Z</time></trkpt><trkpt lat="45.60645572360149" lon="10.696604860963214"><ele>247.5</ele><time>2026-04-06T16:11:19.912Z</time></trkpt><trkpt lat="45.60644608787282" lon="10.696749256899885"><ele>247.66666666666669</ele><time>2026-04-06T16:11:20.912Z</time></trkpt><trkpt lat="45.60644537395941" lon="10.696884478737411"><ele>247.83333333333334</ele><time>2026-04-06T16:11:21.912Z</time></trkpt><trkpt lat="45.60644467961561" lon="10.696984810092651"><ele>248.0</ele><time>2026-04-06T16:11:22.912Z</time></trkpt><trkpt lat="45.60642495626434" lon="10.697118522284011"><ele>249.8</ele><time>2026-04-06T16:11:24.912Z</time></trkpt><trkpt lat="45.60642737234679" lon="10.697268714289082"><ele>251.60000000000002</ele><time>2026-04-06T16:11:26.912Z</time></trkpt><trkpt lat="45.6064564050047" lon="10.697365274487549"><ele>253.39999999999998</ele><time>2026-04-06T16:11:27.912Z</time></trkpt><trkpt lat="45.6065259056988" lon="10.69745960576425"><ele>255.2</ele><time>2026-04-06T16:11:28.912Z</time></trkpt><trkpt lat="45.60659731774061" lon="10.697573174005178"><ele>257.0</ele><time>2026-04-06T16:11:29.912Z</time></trkpt><trkpt lat="45.60667831356125" lon="10.697708946687806"><ele>257.5</ele><time>2026-04-06T16:11:30.912Z</time></trkpt><trkpt lat="45.60677904236393" lon="10.697875281672866"><ele>258.0</ele><time>2026-04-06T16:11:31.911Z</time></trkpt><trkpt lat="45.606878102159776" lon="10.69799537988826"><ele>258.5</ele><time>2026-04-06T16:11:32.911Z</time></trkpt><trkpt lat="45.60693802328877" lon="10.698117138870582"><ele>259.0</ele><time>2026-04-06T16:11:33.911Z</time></trkpt><trkpt lat="45.60700378201301" lon="10.698180623771945"><ele>259.0</ele><time>2026-04-06T16:11:34.911Z</time></trkpt><trkpt lat="45.60705944078961" lon="10.698261244193407"><ele>259.0</ele><time>2026-04-06T16:11:35.911Z</time></trkpt><trkpt lat="45.60709943094126" lon="10.69834875438167"><ele>259.0</ele><time>2026-04-06T16:11:36.911Z</time></trkpt><trkpt lat="45.60714655701927" lon="10.698453917639492"><ele>259.0</ele><time>2026-04-06T16:11:37.911Z</time></trkpt><trkpt lat="45.607183451454056" lon="10.698557838124588"><ele>259.0</ele><time>2026-04-06T16:11:38.911Z</time></trkpt><trkpt lat="45.60720685456116" lon="10.698667720874392"><ele>259.0</ele><time>2026-04-06T16:11:39.911Z</time></trkpt><trkpt lat="45.60722993364992" lon="10.698783467789415"><ele>261.4</ele><time>2026-04-06T16:11:40.911Z</time></trkpt><trkpt lat="45.607259539882556" lon="10.69886667767226"><ele>263.79999999999995</ele><time>2026-04-06T16:11:41.911Z</time></trkpt><trkpt lat="45.60729592772742" lon="10.698978858548063"><ele>266.20000000000005</ele><time>2026-04-06T16:11:42.911Z</time></trkpt><trkpt lat="45.60737410197783" lon="10.69910776011934"><ele>268.6</ele><time>2026-04-06T16:11:43.911Z</time></trkpt><trkpt lat="45.60745701230334" lon="10.699221330047815"><ele>271.0</ele><time>2026-04-06T16:11:44.911Z</time></trkpt><trkpt lat="45.60754691052169" lon="10.699304522301944"><ele>271.0</ele><time>2026-04-06T16:11:45.911Z</time></trkpt><trkpt lat="45.60764046438054" lon="10.699376609236621"><ele>271.0</ele><time>2026-04-06T16:11:46.911Z</time></trkpt><trkpt lat="45.60775407088073" lon="10.699408653397231"><ele>271.0</ele><time>2026-04-06T16:11:47.911Z</time></trkpt><trkpt lat="45.60786445603847" lon="10.699410633224472"><ele>271.0</ele><time>2026-04-06T16:11:48.911Z</time></trkpt><trkpt lat="45.60794845219736" lon="10.699413583890633"><ele>271.0</ele><time>2026-04-06T16:11:49.911Z</time></trkpt><trkpt lat="45.60803516710972" lon="10.699446071613105"><ele>274.0</ele><time>2026-04-06T16:11:50.911Z</time></trkpt><trkpt lat="45.60811812475444" lon="10.69952731170669"><ele>277.0</ele><time>2026-04-06T16:11:51.911Z</time></trkpt><trkpt lat="45.60819000105955" lon="10.699601964712478"><ele>280.0</ele><time>2026-04-06T16:11:52.911Z</time></trkpt><trkpt lat="45.60827224727723" lon="10.699663790201818"><ele>283.0</ele><time>2026-04-06T16:11:53.911Z</time></trkpt><trkpt lat="45.608373174041645" lon="10.699679378458177"><ele>286.0</ele><time>2026-04-06T16:11:54.911Z</time></trkpt><trkpt lat="45.60844326462931" lon="10.699722673158062"><ele>286.0</ele><time>2026-04-06T16:11:55.911Z</time></trkpt><trkpt lat="45.608515535499734" lon="10.699759923106182"><ele>286.0</ele><time>2026-04-06T16:11:56.911Z</time></trkpt><trkpt lat="45.60858366707452" lon="10.699813282694024"><ele>286.0</ele><time>2026-04-06T16:11:57.911Z</time></trkpt><trkpt lat="45.608651408425764" lon="10.699871794057243"><ele>286.0</ele><time>2026-04-06T16:11:58.911Z</time></trkpt><trkpt lat="45.60872710498495" lon="10.699923107531543"><ele>286.0</ele><time>2026-04-06T16:11:59.911Z</time></trkpt><trkpt lat="45.60882158757938" lon="10.6999384957443"><ele>286.0</ele><time>2026-04-06T16:12:00.911Z</time></trkpt><trkpt lat="45.6088999376905" lon="10.69994356317943"><ele>284.0</ele><time>2026-04-06T16:12:01.911Z</time></trkpt><trkpt lat="45.60897305754536" lon="10.699961783257715"><ele>282.0</ele><time>2026-04-06T16:12:02.911Z</time></trkpt><trkpt lat="45.60903447199833" lon="10.70000093584873"><ele>280.0</ele><time>2026-04-06T16:12:03.911Z</time></trkpt><trkpt lat="45.60911894838408" lon="10.700019595036263"><ele>278.0</ele><time>2026-04-06T16:12:05.911Z</time></trkpt><trkpt lat="45.609182112159395" lon="10.700073258055657"><ele>276.0</ele><time>2026-04-06T16:12:07.911Z</time></trkpt><trkpt lat="45.60912730397646" lon="10.700177446519646"><ele>274.0</ele><time>2026-04-06T16:12:09.911Z</time></trkpt><trkpt lat="45.608983596367096" lon="10.700141813956082"><ele>274.0</ele><time>2026-04-06T16:12:11.911Z</time></trkpt><trkpt lat="45.608853314274945" lon="10.700148637970178"><ele>274.0</ele><time>2026-04-06T16:12:12.911Z</time></trkpt><trkpt lat="45.6087554007173" lon="10.700143702787408"><ele>274.0</ele><time>2026-04-06T16:12:13.911Z</time></trkpt><trkpt lat="45.608674112357" lon="10.700126405544454"><ele>274.0</ele><time>2026-04-06T16:12:14.911Z</time></trkpt><trkpt lat="45.60858671223513" lon="10.700104252727245"><ele>274.0</ele><time>2026-04-06T16:12:15.911Z</time></trkpt><trkpt lat="45.60847990622574" lon="10.700053198752189"><ele>276.4</ele><time>2026-04-06T16:12:16.911Z</time></trkpt><trkpt lat="45.60839213675784" lon="10.700032221029161"><ele>278.79999999999995</ele><time>2026-04-06T16:12:17.911Z</time></trkpt><trkpt lat="45.60828941756882" lon="10.700015630796004"><ele>281.20000000000005</ele><time>2026-04-06T16:12:18.911Z</time></trkpt><trkpt lat="45.60819553427299" lon="10.699978351576158"><ele>283.6</ele><time>2026-04-06T16:12:19.911Z</time></trkpt><trkpt lat="45.60810616895093" lon="10.699936291215225"><ele>286.0</ele><time>2026-04-06T16:12:20.911Z</time></trkpt><trkpt lat="45.60801315397737" lon="10.699903483494278"><ele>286.0</ele><time>2026-04-06T16:12:21.911Z</time></trkpt><trkpt lat="45.60793428340279" lon="10.699887843138788"><ele>286.0</ele><time>2026-04-06T16:12:22.911Z</time></trkpt><trkpt lat="45.607864576268696" lon="10.699889513125449"><ele>286.0</ele><time>2026-04-06T16:12:23.911Z</time></trkpt><trkpt lat="45.60779523388198" lon="10.699919529165586"><ele>286.0</ele><time>2026-04-06T16:12:24.911Z</time></trkpt><trkpt lat="45.60772478553766" lon="10.699955790043754"><ele>286.0</ele><time>2026-04-06T16:12:25.911Z</time></trkpt><trkpt lat="45.60764702106068" lon="10.699987703560918"><ele>286.0</ele><time>2026-04-06T16:12:26.911Z</time></trkpt><trkpt lat="45.60754844880775" lon="10.700048509672909"><ele>287.0</ele><time>2026-04-06T16:12:28.911Z</time></trkpt><trkpt lat="45.60746643073667" lon="10.700037180213803"><ele>288.0</ele><time>2026-04-06T16:12:32.911Z</time></trkpt><trkpt lat="45.607407886827524" lon="10.699998721966802"><ele>289.0</ele><time>2026-04-06T16:12:34.911Z</time></trkpt><trkpt lat="45.60731029770413" lon="10.700063062240828"><ele>290.0</ele><time>2026-04-06T16:12:38.911Z</time></trkpt><trkpt lat="45.60721640451005" lon="10.700078009635405"><ele>291.0</ele><time>2026-04-06T16:12:40.911Z</time></trkpt><trkpt lat="45.60708849759636" lon="10.700092808323815"><ele>291.0</ele><time>2026-04-06T16:12:42.911Z</time></trkpt><trkpt lat="45.607024260373954" lon="10.700091535270985"><ele>291.0</ele><time>2026-04-06T16:12:43.911Z</time></trkpt><trkpt lat="45.60690521331787" lon="10.700096722655884"><ele>291.0</ele><time>2026-04-06T16:12:45.911Z</time></trkpt><trkpt lat="45.606802446026386" lon="10.700129363999798"><ele>291.0</ele><time>2026-04-06T16:12:47.911Z</time></trkpt><trkpt lat="45.60674297781755" lon="10.700190020410846"><ele>291.0</ele><time>2026-04-06T16:12:48.911Z</time></trkpt><trkpt lat="45.606677775818945" lon="10.700172231894493"><ele>291.0</ele><time>2026-04-06T16:12:49.911Z</time></trkpt><trkpt lat="45.60661348613065" lon="10.700227314626707"><ele>291.8</ele><time>2026-04-06T16:12:50.911Z</time></trkpt><trkpt lat="45.606517103634815" lon="10.700334885703478"><ele>292.6</ele><time>2026-04-06T16:12:52.911Z</time></trkpt><trkpt lat="45.606451631661464" lon="10.700345731886681"><ele>293.4</ele><time>2026-04-06T16:12:53.911Z</time></trkpt><trkpt lat="45.606352635125916" lon="10.700338836356213"><ele>294.2</ele><time>2026-04-06T16:12:54.911Z</time></trkpt><trkpt lat="45.60622414547745" lon="10.700303622624784"><ele>295.0</ele><time>2026-04-06T16:12:55.911Z</time></trkpt><trkpt lat="45.60609017782521" lon="10.700246774168605"><ele>295.0</ele><time>2026-04-06T16:12:56.911Z</time></trkpt><trkpt lat="45.606022677703265" lon="10.70022286112441"><ele>295.0</ele><time>2026-04-06T16:12:58.911Z</time></trkpt><trkpt lat="45.60593210159151" lon="10.700174062639244"><ele>295.0</ele><time>2026-04-06T16:12:59.911Z</time></trkpt><trkpt lat="45.60584715390866" lon="10.70009169873266"><ele>295.0</ele><time>2026-04-06T16:13:00.911Z</time></trkpt><trkpt lat="45.60574911408655" lon="10.699997528801573"><ele>295.0</ele><time>2026-04-06T16:13:01.911Z</time></trkpt><trkpt lat="45.60562248665021" lon="10.699853200963327"><ele>295.0</ele><time>2026-04-06T16:13:02.911Z</time></trkpt><trkpt lat="45.605447669260904" lon="10.699732791723987"><ele>295.0</ele><time>2026-04-06T16:13:03.911Z</time></trkpt><trkpt lat="45.60528523263838" lon="10.69962214907035"><ele>295.0</ele><time>2026-04-06T16:13:04.911Z</time></trkpt><trkpt lat="45.60513984712399" lon="10.699560987826064"><ele>294.25</ele><time>2026-04-06T16:13:05.911Z</time></trkpt><trkpt lat="45.604986220774656" lon="10.699536363210807"><ele>293.5</ele><time>2026-04-06T16:13:06.911Z</time></trkpt><trkpt lat="45.60484030891432" lon="10.699548283537403"><ele>292.75</ele><time>2026-04-06T16:13:07.911Z</time></trkpt><trkpt lat="45.604707740035586" lon="10.699569217621686"><ele>292.0</ele><time>2026-04-06T16:13:08.911Z</time></trkpt><trkpt lat="45.604589888432194" lon="10.69959139575164"><ele>291.2</ele><time>2026-04-06T16:13:09.911Z</time></trkpt><trkpt lat="45.60449267780576" lon="10.699611451834372"><ele>290.4</ele><time>2026-04-06T16:13:10.911Z</time></trkpt><trkpt lat="45.60440662870874" lon="10.699633028365607"><ele>289.6</ele><time>2026-04-06T16:13:11.911Z</time></trkpt><trkpt lat="45.604319814462315" lon="10.699671848617903"><ele>288.8</ele><time>2026-04-06T16:13:12.911Z</time></trkpt><trkpt lat="45.60422099180759" lon="10.699733207022684"><ele>288.0</ele><time>2026-04-06T16:13:13.911Z</time></trkpt><trkpt lat="45.60412333209957" lon="10.69977468807048"><ele>288.0</ele><time>2026-04-06T16:13:14.911Z</time></trkpt><trkpt lat="45.60400619579028" lon="10.699811783495011"><ele>288.0</ele><time>2026-04-06T16:13:15.911Z</time></trkpt><trkpt lat="45.603876620160506" lon="10.699850978855073"><ele>288.0</ele><time>2026-04-06T16:13:16.911Z</time></trkpt><trkpt lat="45.60373550428893" lon="10.699873772010202"><ele>288.0</ele><time>2026-04-06T16:13:17.911Z</time></trkpt><trkpt lat="45.60360926576104" lon="10.699876545593494"><ele>287.75</ele><time>2026-04-06T16:13:18.911Z</time></trkpt><trkpt lat="45.60347041527511" lon="10.699892962936588"><ele>287.5</ele><time>2026-04-06T16:13:19.911Z</time></trkpt><trkpt lat="45.60333405812926" lon="10.699904658626483"><ele>287.25</ele><time>2026-04-06T16:13:20.911Z</time></trkpt><trkpt lat="45.60320501856888" lon="10.699918117225446"><ele>287.0</ele><time>2026-04-06T16:13:21.911Z</time></trkpt><trkpt lat="45.60309331525946" lon="10.699918226080792"><ele>287.0</ele><time>2026-04-06T16:13:22.911Z</time></trkpt><trkpt lat="45.60301290180796" lon="10.699917717488999"><ele>287.0</ele><time>2026-04-06T16:13:23.911Z</time></trkpt><trkpt lat="45.6029139943674" lon="10.699933612117285"><ele>287.0</ele><time>2026-04-06T16:13:24.911Z</time></trkpt><trkpt lat="45.60279290098103" lon="10.699940992214389"><ele>287.0</ele><time>2026-04-06T16:13:25.911Z</time></trkpt><trkpt lat="45.60265376978986" lon="10.699952858768931"><ele>287.0</ele><time>2026-04-06T16:13:26.911Z</time></trkpt><trkpt lat="45.60248275719159" lon="10.699967704534101"><ele>286.0</ele><time>2026-04-06T16:13:27.911Z</time></trkpt><trkpt lat="45.60229298533248" lon="10.69997352217639"><ele>285.0</ele><time>2026-04-06T16:13:28.911Z</time></trkpt><trkpt lat="45.60205746302392" lon="10.70000192315909"><ele>284.0</ele><time>2026-04-06T16:13:29.911Z</time></trkpt><trkpt lat="45.60186787783054" lon="10.700017216379065"><ele>283.6666666666667</ele><time>2026-04-06T16:13:30.911Z</time></trkpt><trkpt lat="45.60169537207725" lon="10.700029727604344"><ele>283.3333333333333</ele><time>2026-04-06T16:13:31.911Z</time></trkpt><trkpt lat="45.601533240565786" lon="10.70004803936009"><ele>283.0</ele><time>2026-04-06T16:13:32.911Z</time></trkpt><trkpt lat="45.60138760978731" lon="10.700056450403396"><ele>283.0</ele><time>2026-04-06T16:13:33.911Z</time></trkpt><trkpt lat="45.60124340161872" lon="10.700069450393293"><ele>283.0</ele><time>2026-04-06T16:13:34.911Z</time></trkpt><trkpt lat="45.60109596332508" lon="10.700075522477427"><ele>283.0</ele><time>2026-04-06T16:13:35.911Z</time></trkpt><trkpt lat="45.60095090420065" lon="10.700103096852532"><ele>283.0</ele><time>2026-04-06T16:13:36.911Z</time></trkpt><trkpt lat="45.60080529530087" lon="10.700112095733154"><ele>283.0</ele><time>2026-04-06T16:13:37.91Z</time></trkpt><trkpt lat="45.600652927645434" lon="10.700119238811961"><ele>283.0</ele><time>2026-04-06T16:13:38.91Z</time></trkpt><trkpt lat="45.600503578731555" lon="10.7001131313473"><ele>283.0</ele><time>2026-04-06T16:13:39.91Z</time></trkpt><trkpt lat="45.60036340696717" lon="10.700088185007225"><ele>283.0</ele><time>2026-04-06T16:13:40.91Z</time></trkpt><trkpt lat="45.60022813448313" lon="10.700064765630616"><ele>284.0</ele><time>2026-04-06T16:13:41.91Z</time></trkpt><trkpt lat="45.60009402756087" lon="10.70004375111421"><ele>285.0</ele><time>2026-04-06T16:13:42.91Z</time></trkpt><trkpt lat="45.599957454253015" lon="10.700031076902246"><ele>286.0</ele><time>2026-04-06T16:13:43.91Z</time></trkpt><trkpt lat="45.59981979505608" lon="10.70003840052064"><ele>287.0</ele><time>2026-04-06T16:13:44.91Z</time></trkpt><trkpt lat="45.59969590892342" lon="10.700046062391241"><ele>287.0</ele><time>2026-04-06T16:13:45.91Z</time></trkpt><trkpt lat="45.59958053846578" lon="10.700050346090123"><ele>287.0</ele><time>2026-04-06T16:13:46.91Z</time></trkpt><trkpt lat="45.59945632554813" lon="10.700061990575007"><ele>287.0</ele><time>2026-04-06T16:13:47.91Z</time></trkpt><trkpt lat="45.59934224747291" lon="10.700065410706491"><ele>287.0</ele><time>2026-04-06T16:13:48.91Z</time></trkpt><trkpt lat="45.59922609275629" lon="10.700074096996085"><ele>286.6666666666667</ele><time>2026-04-06T16:13:49.91Z</time></trkpt><trkpt lat="45.599124307461" lon="10.700081566179138"><ele>286.33333333333337</ele><time>2026-04-06T16:13:50.91Z</time></trkpt><trkpt lat="45.59904536446048" lon="10.700090424215594"><ele>286.0</ele><time>2026-04-06T16:13:51.91Z</time></trkpt><trkpt lat="45.59897206088138" lon="10.700104074300302"><ele>285.6666666666667</ele><time>2026-04-06T16:13:52.91Z</time></trkpt><trkpt lat="45.59889854498563" lon="10.700093943190234"><ele>285.3333333333333</ele><time>2026-04-06T16:13:53.91Z</time></trkpt><trkpt lat="45.5988256401464" lon="10.700098115948323"><ele>285.0</ele><time>2026-04-06T16:13:54.91Z</time></trkpt><trkpt lat="45.598758845752364" lon="10.700101938962153"><ele>284.4</ele><time>2026-04-06T16:13:55.91Z</time></trkpt><trkpt lat="45.59865495834373" lon="10.700107884996228"><ele>283.8</ele><time>2026-04-06T16:13:57.91Z</time></trkpt><trkpt lat="45.59858581627112" lon="10.700111842181558"><ele>283.2</ele><time>2026-04-06T16:14:01.91Z</time></trkpt><trkpt lat="45.59850466122859" lon="10.70011648690016"><ele>282.6</ele><time>2026-04-06T16:14:03.91Z</time></trkpt><trkpt lat="45.59839443673071" lon="10.700122795345662"><ele>282.0</ele><time>2026-04-06T16:14:05.91Z</time></trkpt><trkpt lat="45.59832153312311" lon="10.700208124316655"><ele>282.0</ele><time>2026-04-06T16:14:06.91Z</time></trkpt><trkpt lat="45.598246136269395" lon="10.700245842256681"><ele>282.0</ele><time>2026-04-06T16:14:07.91Z</time></trkpt><trkpt lat="45.59818732221298" lon="10.700299779513509"><ele>282.0</ele><time>2026-04-06T16:14:08.91Z</time></trkpt><trkpt lat="45.59811421696182" lon="10.700367612090401"><ele>282.0</ele><time>2026-04-06T16:14:09.91Z</time></trkpt><trkpt lat="45.5980150030044" lon="10.70044698295882"><ele>282.0</ele><time>2026-04-06T16:14:10.91Z</time></trkpt><trkpt lat="45.597900867860794" lon="10.70053009898414"><ele>283.0</ele><time>2026-04-06T16:14:11.91Z</time></trkpt><trkpt lat="45.59779115831035" lon="10.700579336448598"><ele>284.0</ele><time>2026-04-06T16:14:12.91Z</time></trkpt><trkpt lat="45.597692075446" lon="10.700605350817376"><ele>285.0</ele><time>2026-04-06T16:14:13.91Z</time></trkpt><trkpt lat="45.59759909002779" lon="10.700628696337706"><ele>286.0</ele><time>2026-04-06T16:14:14.91Z</time></trkpt><trkpt lat="45.59749287232745" lon="10.70065085785584"><ele>287.0</ele><time>2026-04-06T16:14:15.91Z</time></trkpt><trkpt lat="45.59739269129842" lon="10.700672314226043"><ele>287.0</ele><time>2026-04-06T16:14:16.91Z</time></trkpt><trkpt lat="45.597302256639985" lon="10.700697295940978"><ele>287.0</ele><time>2026-04-06T16:14:17.91Z</time></trkpt><trkpt lat="45.59720937020907" lon="10.700716245570996"><ele>287.0</ele><time>2026-04-06T16:14:18.91Z</time></trkpt><trkpt lat="45.59710684972777" lon="10.700754449909322"><ele>287.0</ele><time>2026-04-06T16:14:19.91Z</time></trkpt><trkpt lat="45.59699343457423" lon="10.70079279882007"><ele>287.0</ele><time>2026-04-06T16:14:20.91Z</time></trkpt><trkpt lat="45.59688009923329" lon="10.700821252065293"><ele>286.75</ele><time>2026-04-06T16:14:21.91Z</time></trkpt><trkpt lat="45.59675338991137" lon="10.700843281278095"><ele>286.5</ele><time>2026-04-06T16:14:22.91Z</time></trkpt><trkpt lat="45.59662577510309" lon="10.700842705526746"><ele>286.25</ele><time>2026-04-06T16:14:23.91Z</time></trkpt><trkpt lat="45.59650903056636" lon="10.700844273295552"><ele>286.0</ele><time>2026-04-06T16:14:24.91Z</time></trkpt><trkpt lat="45.596387007920804" lon="10.700849726610802"><ele>286.0</ele><time>2026-04-06T16:14:25.91Z</time></trkpt><trkpt lat="45.5962447777488" lon="10.700895145774311"><ele>286.0</ele><time>2026-04-06T16:14:26.91Z</time></trkpt><trkpt lat="45.596072358757326" lon="10.70096768650043"><ele>286.0</ele><time>2026-04-06T16:14:27.91Z</time></trkpt><trkpt lat="45.59589752184112" lon="10.701054763409186"><ele>291.25</ele><time>2026-04-06T16:14:28.91Z</time></trkpt><trkpt lat="45.59574408114471" lon="10.701131604211978"><ele>296.5</ele><time>2026-04-06T16:14:29.91Z</time></trkpt><trkpt lat="45.595609799600936" lon="10.701160932442592"><ele>301.75</ele><time>2026-04-06T16:14:30.91Z</time></trkpt><trkpt lat="45.59547796118936" lon="10.701152079114754"><ele>307.0</ele><time>2026-04-06T16:14:31.91Z</time></trkpt><trkpt lat="45.59532398295347" lon="10.701090557952636"><ele>303.5</ele><time>2026-04-06T16:14:32.91Z</time></trkpt><trkpt lat="45.59518554016738" lon="10.701013132668503"><ele>300.0</ele><time>2026-04-06T16:14:33.91Z</time></trkpt><trkpt lat="45.59508247075309" lon="10.700972538931374"><ele>296.5</ele><time>2026-04-06T16:14:34.91Z</time></trkpt><trkpt lat="45.594988150318436" lon="10.700959816939543"><ele>293.0</ele><time>2026-04-06T16:14:35.91Z</time></trkpt><trkpt lat="45.59487834267185" lon="10.700969643204274"><ele>293.0</ele><time>2026-04-06T16:14:36.91Z</time></trkpt><trkpt lat="45.59474686209003" lon="10.701001449797468"><ele>293.0</ele><time>2026-04-06T16:14:37.91Z</time></trkpt><trkpt lat="45.59457245191424" lon="10.70103176364429"><ele>293.0</ele><time>2026-04-06T16:14:38.91Z</time></trkpt><trkpt lat="45.59438085213512" lon="10.701036028589874"><ele>296.6666666666667</ele><time>2026-04-06T16:14:39.91Z</time></trkpt><trkpt lat="45.594199684280056" lon="10.701012342486449"><ele>300.3333333333333</ele><time>2026-04-06T16:14:40.91Z</time></trkpt><trkpt lat="45.594003614044745" lon="10.700950239376068"><ele>304.0</ele><time>2026-04-06T16:14:41.91Z</time></trkpt><trkpt lat="45.593783889366925" lon="10.700901689656906"><ele>308.66666666666663</ele><time>2026-04-06T16:14:42.91Z</time></trkpt><trkpt lat="45.593587140278366" lon="10.700862432987641"><ele>313.3333333333333</ele><time>2026-04-06T16:14:43.91Z</time></trkpt><trkpt lat="45.59343347870573" lon="10.700810723371585"><ele>318.0</ele><time>2026-04-06T16:14:44.91Z</time></trkpt><trkpt lat="45.59329708388563" lon="10.700755200149219"><ele>318.0</ele><time>2026-04-06T16:14:45.91Z</time></trkpt><trkpt lat="45.5931549662558" lon="10.700715231215403"><ele>318.0</ele><time>2026-04-06T16:14:46.91Z</time></trkpt><trkpt lat="45.59300858021421" lon="10.700684146950485"><ele>318.0</ele><time>2026-04-06T16:14:47.91Z</time></trkpt><trkpt lat="45.59285514088861" lon="10.70067035422625"><ele>318.0</ele><time>2026-04-06T16:14:48.91Z</time></trkpt><trkpt lat="45.592703753308186" lon="10.700652032285705"><ele>319.0</ele><time>2026-04-06T16:14:49.91Z</time></trkpt><trkpt lat="45.59256367781368" lon="10.70063255971327"><ele>320.0</ele><time>2026-04-06T16:14:50.91Z</time></trkpt><trkpt lat="45.592441704171975" lon="10.700625954359001"><ele>321.0</ele><time>2026-04-06T16:14:51.91Z</time></trkpt><trkpt lat="45.59231574211997" lon="10.700636512097311"><ele>322.0</ele><time>2026-04-06T16:14:52.91Z</time></trkpt><trkpt lat="45.592156358999816" lon="10.700677900974835"><ele>320.66666666666663</ele><time>2026-04-06T16:14:53.91Z</time></trkpt><trkpt lat="45.591971171101626" lon="10.700749746828478"><ele>319.3333333333333</ele><time>2026-04-06T16:14:54.91Z</time></trkpt><trkpt lat="45.59179822950722" lon="10.700791271706324"><ele>318.0</ele><time>2026-04-06T16:14:55.91Z</time></trkpt><trkpt lat="45.5916466787942" lon="10.700820951349373"><ele>318.0</ele><time>2026-04-06T16:14:56.91Z</time></trkpt><trkpt lat="45.591518604598726" lon="10.700848980831946"><ele>318.0</ele><time>2026-04-06T16:14:57.91Z</time></trkpt><trkpt lat="45.59140417511963" lon="10.700899431580563"><ele>318.0</ele><time>2026-04-06T16:14:58.91Z</time></trkpt><trkpt lat="45.591299442599016" lon="10.700983374675996"><ele>318.0</ele><time>2026-04-06T16:14:59.91Z</time></trkpt><trkpt lat="45.5912135821517" lon="10.701069305105586"><ele>315.8</ele><time>2026-04-06T16:15:00.91Z</time></trkpt><trkpt lat="45.591147473941554" lon="10.701181733670337"><ele>313.6</ele><time>2026-04-06T16:15:01.91Z</time></trkpt><trkpt lat="45.591104254660735" lon="10.701304151925195"><ele>311.4</ele><time>2026-04-06T16:15:02.91Z</time></trkpt><trkpt lat="45.59108933209732" lon="10.701426889512932"><ele>309.2</ele><time>2026-04-06T16:15:03.91Z</time></trkpt><trkpt lat="45.59110503027266" lon="10.70156045969559"><ele>307.0</ele><time>2026-04-06T16:15:04.91Z</time></trkpt><trkpt lat="45.59114565163877" lon="10.701697916857299"><ele>310.5</ele><time>2026-04-06T16:15:05.91Z</time></trkpt><trkpt lat="45.59120887368119" lon="10.701842287170734"><ele>314.0</ele><time>2026-04-06T16:15:06.91Z</time></trkpt><trkpt lat="45.5913096255141" lon="10.701993373081287"><ele>317.5</ele><time>2026-04-06T16:15:07.91Z</time></trkpt><trkpt lat="45.59141090829988" lon="10.702152987468953"><ele>321.0</ele><time>2026-04-06T16:15:08.91Z</time></trkpt><trkpt lat="45.591486482800036" lon="10.702303535348882"><ele>321.0</ele><time>2026-04-06T16:15:09.91Z</time></trkpt><trkpt lat="45.59154759720234" lon="10.702452945901706"><ele>321.0</ele><time>2026-04-06T16:15:10.91Z</time></trkpt><trkpt lat="45.59159923445576" lon="10.702602475165003"><ele>321.0</ele><time>2026-04-06T16:15:11.91Z</time></trkpt><trkpt lat="45.591638293403214" lon="10.702765206604377"><ele>321.0</ele><time>2026-04-06T16:15:12.91Z</time></trkpt><trkpt lat="45.59165335086291" lon="10.702936255996287"><ele>319.6666666666667</ele><time>2026-04-06T16:15:13.91Z</time></trkpt><trkpt lat="45.59165789560059" lon="10.703127497457729"><ele>318.33333333333337</ele><time>2026-04-06T16:15:14.91Z</time></trkpt><trkpt lat="45.591656125775295" lon="10.703350638395086"><ele>317.0</ele><time>2026-04-06T16:15:15.91Z</time></trkpt><trkpt lat="45.591647958404614" lon="10.70360260076678"><ele>316.75</ele><time>2026-04-06T16:15:16.91Z</time></trkpt><trkpt lat="45.591636646869986" lon="10.703831021861635"><ele>316.5</ele><time>2026-04-06T16:15:17.91Z</time></trkpt><trkpt lat="45.59163483833419" lon="10.7040327200451"><ele>316.25</ele><time>2026-04-06T16:15:18.91Z</time></trkpt><trkpt lat="45.591632430399635" lon="10.704221356958449"><ele>316.0</ele><time>2026-04-06T16:15:19.91Z</time></trkpt><trkpt lat="45.59162867109653" lon="10.704399057041357"><ele>314.75</ele><time>2026-04-06T16:15:20.91Z</time></trkpt><trkpt lat="45.59162088202816" lon="10.704580417422417"><ele>313.5</ele><time>2026-04-06T16:15:21.91Z</time></trkpt><trkpt lat="45.59162592854475" lon="10.704776552080657"><ele>312.25</ele><time>2026-04-06T16:15:22.91Z</time></trkpt><trkpt lat="45.591647174035785" lon="10.704975078997947"><ele>311.0</ele><time>2026-04-06T16:15:23.91Z</time></trkpt><trkpt lat="45.591660083474316" lon="10.705158980362354"><ele>310.5</ele><time>2026-04-06T16:15:24.91Z</time></trkpt><trkpt lat="45.59166897502478" lon="10.70532569511693"><ele>310.0</ele><time>2026-04-06T16:15:25.91Z</time></trkpt><trkpt lat="45.591688805994" lon="10.705497909993836"><ele>309.5</ele><time>2026-04-06T16:15:26.91Z</time></trkpt><trkpt lat="45.59171941234332" lon="10.705681381806755"><ele>309.0</ele><time>2026-04-06T16:15:27.91Z</time></trkpt><trkpt lat="45.591764436558236" lon="10.705862569067431"><ele>309.0</ele><time>2026-04-06T16:15:28.91Z</time></trkpt><trkpt lat="45.591801018529814" lon="10.706028529627126"><ele>309.0</ele><time>2026-04-06T16:15:29.91Z</time></trkpt><trkpt lat="45.59184065245843" lon="10.70620354418108"><ele>309.0</ele><time>2026-04-06T16:15:30.91Z</time></trkpt><trkpt lat="45.59189569159879" lon="10.70638834935014"><ele>309.0</ele><time>2026-04-06T16:15:31.91Z</time></trkpt><trkpt lat="45.591942512815976" lon="10.70655021714625"><ele>308.2</ele><time>2026-04-06T16:15:32.91Z</time></trkpt><trkpt lat="45.59197811909964" lon="10.706677181336936"><ele>307.4</ele><time>2026-04-06T16:15:33.91Z</time></trkpt><trkpt lat="45.59203105952365" lon="10.706795008468438"><ele>306.6</ele><time>2026-04-06T16:15:34.91Z</time></trkpt><trkpt lat="45.59208686632992" lon="10.706904916320793"><ele>305.8</ele><time>2026-04-06T16:15:35.91Z</time></trkpt><trkpt lat="45.59213804232779" lon="10.70700524926641"><ele>305.0</ele><time>2026-04-06T16:15:36.91Z</time></trkpt><trkpt lat="45.59218964288124" lon="10.707107351006421"><ele>305.0</ele><time>2026-04-06T16:15:37.91Z</time></trkpt><trkpt lat="45.59223472564837" lon="10.707196702681468"><ele>305.0</ele><time>2026-04-06T16:15:38.91Z</time></trkpt><trkpt lat="45.59227705668082" lon="10.707283884643404"><ele>305.0</ele><time>2026-04-06T16:15:39.91Z</time></trkpt><trkpt lat="45.592314237497554" lon="10.707365762304152"><ele>305.0</ele><time>2026-04-06T16:15:40.91Z</time></trkpt><trkpt lat="45.592345040051505" lon="10.707458650204083"><ele>305.0</ele><time>2026-04-06T16:15:41.91Z</time></trkpt><trkpt lat="45.59237817618931" lon="10.70758261944587"><ele>305.0</ele><time>2026-04-06T16:15:42.91Z</time></trkpt><trkpt lat="45.592398346549146" lon="10.707729940100966"><ele>305.0</ele><time>2026-04-06T16:15:43.911Z</time></trkpt><trkpt lat="45.59241234643333" lon="10.707873044041452"><ele>305.0</ele><time>2026-04-06T16:15:44.911Z</time></trkpt><trkpt lat="45.5924291418284" lon="10.707998754438385"><ele>305.0</ele><time>2026-04-06T16:15:45.911Z</time></trkpt><trkpt lat="45.592452939603646" lon="10.7081051107335"><ele>305.0</ele><time>2026-04-06T16:15:46.911Z</time></trkpt><trkpt lat="45.59248671253371" lon="10.708193162052766"><ele>305.0</ele><time>2026-04-06T16:15:47.911Z</time></trkpt><trkpt lat="45.59256651391545" lon="10.7083070586779"><ele>305.0</ele><time>2026-04-06T16:15:49.911Z</time></trkpt><trkpt lat="45.59263979907878" lon="10.708459955808753"><ele>305.0</ele><time>2026-04-06T16:15:51.911Z</time></trkpt><trkpt lat="45.59266250221648" lon="10.708569812606052"><ele>305.0</ele><time>2026-04-06T16:15:52.911Z</time></trkpt><trkpt lat="45.59267926283109" lon="10.708692077532886"><ele>305.0</ele><time>2026-04-06T16:15:53.911Z</time></trkpt><trkpt lat="45.59268995642828" lon="10.708823362876775"><ele>305.0</ele><time>2026-04-06T16:15:54.911Z</time></trkpt><trkpt lat="45.592702039756986" lon="10.708967369380856"><ele>305.4</ele><time>2026-04-06T16:15:55.911Z</time></trkpt><trkpt lat="45.59270829361221" lon="10.709097654991451"><ele>305.8</ele><time>2026-04-06T16:15:56.911Z</time></trkpt><trkpt lat="45.592726828762316" lon="10.70926874216845"><ele>306.2</ele><time>2026-04-06T16:15:57.911Z</time></trkpt><trkpt lat="45.5927406981117" lon="10.709423224596765"><ele>306.6</ele><time>2026-04-06T16:15:58.911Z</time></trkpt><trkpt lat="45.59275329093836" lon="10.709584781161213"><ele>307.0</ele><time>2026-04-06T16:15:59.911Z</time></trkpt><trkpt lat="45.592768714706835" lon="10.709741644433418"><ele>305.75</ele><time>2026-04-06T16:16:00.911Z</time></trkpt><trkpt lat="45.59278539201128" lon="10.709916742462822"><ele>304.5</ele><time>2026-04-06T16:16:01.911Z</time></trkpt><trkpt lat="45.592793916878" lon="10.710110159713205"><ele>303.25</ele><time>2026-04-06T16:16:02.911Z</time></trkpt><trkpt lat="45.592803853148155" lon="10.710228349017086"><ele>302.0</ele><time>2026-04-06T16:16:03.911Z</time></trkpt><trkpt lat="45.59280559381043" lon="10.710396120747864"><ele>300.75</ele><time>2026-04-06T16:16:04.911Z</time></trkpt><trkpt lat="45.59281179298247" lon="10.710562628429592"><ele>299.5</ele><time>2026-04-06T16:16:05.911Z</time></trkpt><trkpt lat="45.59282208491055" lon="10.710729810726995"><ele>298.25</ele><time>2026-04-06T16:16:06.911Z</time></trkpt><trkpt lat="45.592829390499155" lon="10.710901328869358"><ele>297.0</ele><time>2026-04-06T16:16:07.911Z</time></trkpt><trkpt lat="45.592828331063735" lon="10.711064159206453"><ele>295.8</ele><time>2026-04-06T16:16:08.911Z</time></trkpt><trkpt lat="45.592830695185846" lon="10.71121797943685"><ele>294.6</ele><time>2026-04-06T16:16:09.911Z</time></trkpt><trkpt lat="45.59282560195073" lon="10.711365866228318"><ele>293.40000000000003</ele><time>2026-04-06T16:16:10.911Z</time></trkpt><trkpt lat="45.59282021109485" lon="10.711505156186261"><ele>292.2</ele><time>2026-04-06T16:16:11.911Z</time></trkpt><trkpt lat="45.59281040306445" lon="10.711636687753442"><ele>291.0</ele><time>2026-04-06T16:16:12.911Z</time></trkpt><trkpt lat="45.59279166979996" lon="10.711767573942206"><ele>291.0</ele><time>2026-04-06T16:16:13.911Z</time></trkpt><trkpt lat="45.59277267087854" lon="10.711896959072307"><ele>291.0</ele><time>2026-04-06T16:16:14.911Z</time></trkpt><trkpt lat="45.59275182870218" lon="10.711996841322822"><ele>291.0</ele><time>2026-04-06T16:16:15.911Z</time></trkpt><trkpt lat="45.59272844930229" lon="10.71208817363291"><ele>291.0</ele><time>2026-04-06T16:16:16.911Z</time></trkpt><trkpt lat="45.59269871319754" lon="10.712171351169504"><ele>291.0</ele><time>2026-04-06T16:16:19.911Z</time></trkpt><trkpt lat="45.592696294487666" lon="10.712297687074996"><ele>291.0</ele><time>2026-04-06T16:16:22.911Z</time></trkpt><trkpt lat="45.592819638371815" lon="10.712340329012854"><ele>290.0</ele><time>2026-04-06T16:16:23.911Z</time></trkpt><trkpt lat="45.59291304548398" lon="10.712346581205917"><ele>289.0</ele><time>2026-04-06T16:16:24.911Z</time></trkpt><trkpt lat="45.59300839584626" lon="10.712389754599677"><ele>288.0</ele><time>2026-04-06T16:16:25.911Z</time></trkpt><trkpt lat="45.593094928351455" lon="10.7124065230732"><ele>287.0</ele><time>2026-04-06T16:16:26.911Z</time></trkpt><trkpt lat="45.59321860931935" lon="10.712430311399627"><ele>286.0</ele><time>2026-04-06T16:16:27.911Z</time></trkpt><trkpt lat="45.593353000769845" lon="10.712456159737267"><ele>286.0</ele><time>2026-04-06T16:16:28.911Z</time></trkpt><trkpt lat="45.593468249882406" lon="10.7124774727282"><ele>286.0</ele><time>2026-04-06T16:16:29.911Z</time></trkpt><trkpt lat="45.59355909618095" lon="10.71247024761526"><ele>286.0</ele><time>2026-04-06T16:16:30.911Z</time></trkpt><trkpt lat="45.59365116251348" lon="10.712501470974797"><ele>286.0</ele><time>2026-04-06T16:16:31.911Z</time></trkpt><trkpt lat="45.59374934167252" lon="10.712539411680211"><ele>286.0</ele><time>2026-04-06T16:16:32.911Z</time></trkpt><trkpt lat="45.59383841370876" lon="10.712598183331089"><ele>289.25</ele><time>2026-04-06T16:16:33.911Z</time></trkpt><trkpt lat="45.593908231057675" lon="10.712663489659914"><ele>292.5</ele><time>2026-04-06T16:16:34.911Z</time></trkpt><trkpt lat="45.59399857576253" lon="10.71281279186487"><ele>295.75</ele><time>2026-04-06T16:16:36.911Z</time></trkpt><trkpt lat="45.594013862500255" lon="10.712986167401468"><ele>299.0</ele><time>2026-04-06T16:16:37.911Z</time></trkpt><trkpt lat="45.59406973546985" lon="10.71318759296515"><ele>299.25</ele><time>2026-04-06T16:16:38.911Z</time></trkpt><trkpt lat="45.59414502006763" lon="10.713364754137597"><ele>299.5</ele><time>2026-04-06T16:16:39.911Z</time></trkpt><trkpt lat="45.59421273532065" lon="10.713493225136284"><ele>299.75</ele><time>2026-04-06T16:16:40.911Z</time></trkpt><trkpt lat="45.5943122113706" lon="10.713615040279093"><ele>300.0</ele><time>2026-04-06T16:16:41.911Z</time></trkpt><trkpt lat="45.5944090047339" lon="10.713711079569519"><ele>300.0</ele><time>2026-04-06T16:16:42.911Z</time></trkpt><trkpt lat="45.59450018228239" lon="10.713757958493439"><ele>300.0</ele><time>2026-04-06T16:16:43.911Z</time></trkpt><trkpt lat="45.594606540817004" lon="10.713776345589414"><ele>300.0</ele><time>2026-04-06T16:16:44.911Z</time></trkpt><trkpt lat="45.594708439522435" lon="10.713789087138062"><ele>300.0</ele><time>2026-04-06T16:16:45.911Z</time></trkpt><trkpt lat="45.59480751607494" lon="10.713845162250566"><ele>300.0</ele><time>2026-04-06T16:16:46.911Z</time></trkpt><trkpt lat="45.594907664025996" lon="10.713940458805281"><ele>298.3333333333333</ele><time>2026-04-06T16:16:47.911Z</time></trkpt><trkpt lat="45.59499723102814" lon="10.714076620666152"><ele>296.66666666666663</ele><time>2026-04-06T16:16:48.911Z</time></trkpt><trkpt lat="45.59510858916027" lon="10.714235206212162"><ele>295.0</ele><time>2026-04-06T16:16:49.911Z</time></trkpt><trkpt lat="45.59526187380777" lon="10.714456669805168"><ele>293.66666666666663</ele><time>2026-04-06T16:16:50.911Z</time></trkpt><trkpt lat="45.59542037838518" lon="10.714673171944458"><ele>292.3333333333333</ele><time>2026-04-06T16:16:51.911Z</time></trkpt><trkpt lat="45.59556710013624" lon="10.714884142089815"><ele>291.0</ele><time>2026-04-06T16:16:52.911Z</time></trkpt><trkpt lat="45.59567973655766" lon="10.715049493576922"><ele>289.0</ele><time>2026-04-06T16:16:53.911Z</time></trkpt><trkpt lat="45.59582704995518" lon="10.715263074777088"><ele>287.0</ele><time>2026-04-06T16:16:54.911Z</time></trkpt><trkpt lat="45.595983492074396" lon="10.715483593089703"><ele>285.0</ele><time>2026-04-06T16:16:55.911Z</time></trkpt><trkpt lat="45.59614188122555" lon="10.715709996651528"><ele>284.0</ele><time>2026-04-06T16:16:56.911Z</time></trkpt><trkpt lat="45.59628169278644" lon="10.715917621736724"><ele>283.0</ele><time>2026-04-06T16:16:57.911Z</time></trkpt><trkpt lat="45.59641756181255" lon="10.716107123994886"><ele>282.0</ele><time>2026-04-06T16:16:58.911Z</time></trkpt><trkpt lat="45.59653889664539" lon="10.716292828747688"><ele>281.6666666666667</ele><time>2026-04-06T16:16:59.911Z</time></trkpt><trkpt lat="45.59666080877789" lon="10.716463857736414"><ele>281.33333333333337</ele><time>2026-04-06T16:17:00.911Z</time></trkpt><trkpt lat="45.596782544701426" lon="10.716621293815255"><ele>281.0</ele><time>2026-04-06T16:17:01.911Z</time></trkpt><trkpt lat="45.59689329760805" lon="10.716764771474459"><ele>281.0</ele><time>2026-04-06T16:17:02.911Z</time></trkpt><trkpt lat="45.59699973867718" lon="10.716901262470687"><ele>281.0</ele><time>2026-04-06T16:17:03.911Z</time></trkpt><trkpt lat="45.597102764165605" lon="10.717031432085243"><ele>281.0</ele><time>2026-04-06T16:17:04.911Z</time></trkpt><trkpt lat="45.59721215093721" lon="10.717154609611272"><ele>281.0</ele><time>2026-04-06T16:17:05.911Z</time></trkpt><trkpt lat="45.59734326824647" lon="10.717250987853792"><ele>281.0</ele><time>2026-04-06T16:17:06.911Z</time></trkpt><trkpt lat="45.59750152717445" lon="10.717327535763616"><ele>281.0</ele><time>2026-04-06T16:17:07.911Z</time></trkpt><trkpt lat="45.5976737612314" lon="10.717397542341098"><ele>281.0</ele><time>2026-04-06T16:17:08.911Z</time></trkpt><trkpt lat="45.59785735290748" lon="10.717482125196744"><ele>281.0</ele><time>2026-04-06T16:17:09.911Z</time></trkpt><trkpt lat="45.59802484019128" lon="10.717532972037185"><ele>281.0</ele><time>2026-04-06T16:17:10.911Z</time></trkpt><trkpt lat="45.598184296661294" lon="10.71759752997251"><ele>281.0</ele><time>2026-04-06T16:17:11.911Z</time></trkpt><trkpt lat="45.5983284464182" lon="10.717673392769322"><ele>279.6666666666667</ele><time>2026-04-06T16:17:12.911Z</time></trkpt><trkpt lat="45.59847562215544" lon="10.71774545607207"><ele>278.3333333333333</ele><time>2026-04-06T16:17:13.911Z</time></trkpt><trkpt lat="45.59861891477745" lon="10.717849992938818"><ele>277.0</ele><time>2026-04-06T16:17:14.911Z</time></trkpt><trkpt lat="45.59874717326957" lon="10.717989145103026"><ele>277.0</ele><time>2026-04-06T16:17:15.911Z</time></trkpt><trkpt lat="45.59887627304106" lon="10.7181351860337"><ele>277.0</ele><time>2026-04-06T16:17:16.911Z</time></trkpt><trkpt lat="45.599011254448946" lon="10.718276992733012"><ele>277.0</ele><time>2026-04-06T16:17:17.911Z</time></trkpt><trkpt lat="45.59913628329309" lon="10.71842752129393"><ele>277.3333333333333</ele><time>2026-04-06T16:17:18.911Z</time></trkpt><trkpt lat="45.59923910393222" lon="10.718586951818216"><ele>277.6666666666667</ele><time>2026-04-06T16:17:19.911Z</time></trkpt><trkpt lat="45.599354559739595" lon="10.718746826158847"><ele>278.0</ele><time>2026-04-06T16:17:20.911Z</time></trkpt><trkpt lat="45.59944291963733" lon="10.718940963275104"><ele>280.0</ele><time>2026-04-06T16:17:21.911Z</time></trkpt><trkpt lat="45.599525989553754" lon="10.719171021240273"><ele>282.0</ele><time>2026-04-06T16:17:22.911Z</time></trkpt><trkpt lat="45.599616678325084" lon="10.719415101001394"><ele>284.0</ele><time>2026-04-06T16:17:23.911Z</time></trkpt><trkpt lat="45.59972597263342" lon="10.71964610728932"><ele>284.0</ele><time>2026-04-06T16:17:24.911Z</time></trkpt><trkpt lat="45.599850071753735" lon="10.719850940017372"><ele>284.0</ele><time>2026-04-06T16:17:25.911Z</time></trkpt><trkpt lat="45.599966593833884" lon="10.720020490024524"><ele>284.0</ele><time>2026-04-06T16:17:26.911Z</time></trkpt><trkpt lat="45.600108963287596" lon="10.720179746476171"><ele>284.0</ele><time>2026-04-06T16:17:27.911Z</time></trkpt><trkpt lat="45.60026885929574" lon="10.720322192971462"><ele>284.0</ele><time>2026-04-06T16:17:28.911Z</time></trkpt><trkpt lat="45.60043251037318" lon="10.72047764287207"><ele>284.0</ele><time>2026-04-06T16:17:29.911Z</time></trkpt><trkpt lat="45.6006209695255" lon="10.720615257277307"><ele>284.0</ele><time>2026-04-06T16:17:30.911Z</time></trkpt><trkpt lat="45.600808468946546" lon="10.72072651425955"><ele>284.0</ele><time>2026-04-06T16:17:31.911Z</time></trkpt><trkpt lat="45.600966773915026" lon="10.720830436569255"><ele>284.0</ele><time>2026-04-06T16:17:32.911Z</time></trkpt><trkpt lat="45.60109606795924" lon="10.720964795877265"><ele>285.0</ele><time>2026-04-06T16:17:33.911Z</time></trkpt><trkpt lat="45.60120871396016" lon="10.721094350033674"><ele>286.0</ele><time>2026-04-06T16:17:34.911Z</time></trkpt><trkpt lat="45.601299596852776" lon="10.721237591275576"><ele>287.0</ele><time>2026-04-06T16:17:35.911Z</time></trkpt><trkpt lat="45.60139278065161" lon="10.72139867831983"><ele>288.0</ele><time>2026-04-06T16:17:36.911Z</time></trkpt><trkpt lat="45.60146438730413" lon="10.721541089280468"><ele>288.0</ele><time>2026-04-06T16:17:37.911Z</time></trkpt><trkpt lat="45.601540648130666" lon="10.721670307322364"><ele>288.0</ele><time>2026-04-06T16:17:38.911Z</time></trkpt><trkpt lat="45.60159857943216" lon="10.72181091058781"><ele>288.0</ele><time>2026-04-06T16:17:39.911Z</time></trkpt><trkpt lat="45.601653862630094" lon="10.72194666745415"><ele>288.0</ele><time>2026-04-06T16:17:40.911Z</time></trkpt><trkpt lat="45.60171286122779" lon="10.722070504054043"><ele>288.0</ele><time>2026-04-06T16:17:41.911Z</time></trkpt><trkpt lat="45.601779408131264" lon="10.722183782058543"><ele>288.6</ele><time>2026-04-06T16:17:42.911Z</time></trkpt><trkpt lat="45.601857117477195" lon="10.722272072905282"><ele>289.20000000000005</ele><time>2026-04-06T16:17:43.911Z</time></trkpt><trkpt lat="45.601953961397726" lon="10.72233640710388"><ele>289.8</ele><time>2026-04-06T16:17:44.911Z</time></trkpt><trkpt lat="45.60203467384312" lon="10.722413342573436"><ele>290.40000000000003</ele><time>2026-04-06T16:17:45.911Z</time></trkpt><trkpt lat="45.60210301592284" lon="10.722508227395034"><ele>291.0</ele><time>2026-04-06T16:17:46.911Z</time></trkpt><trkpt lat="45.602144562519406" lon="10.722625209733618"><ele>291.0</ele><time>2026-04-06T16:17:47.911Z</time></trkpt><trkpt lat="45.60220961667882" lon="10.722686277062987"><ele>291.0</ele><time>2026-04-06T16:17:48.911Z</time></trkpt><trkpt lat="45.60230853885085" lon="10.722680403557707"><ele>291.0</ele><time>2026-04-06T16:17:49.911Z</time></trkpt><trkpt lat="45.602400977504594" lon="10.722631681834436"><ele>291.0</ele><time>2026-04-06T16:17:50.911Z</time></trkpt><trkpt lat="45.60248498010436" lon="10.722582206661995"><ele>291.0</ele><time>2026-04-06T16:17:51.911Z</time></trkpt><trkpt lat="45.60259471933766" lon="10.722587047796038"><ele>291.0</ele><time>2026-04-06T16:17:52.911Z</time></trkpt><trkpt lat="45.602747121334474" lon="10.722583480601157"><ele>291.0</ele><time>2026-04-06T16:17:53.911Z</time></trkpt><trkpt lat="45.602921927526" lon="10.72257153869973"><ele>291.0</ele><time>2026-04-06T16:17:54.911Z</time></trkpt><trkpt lat="45.60312827925625" lon="10.72256340865498"><ele>293.5</ele><time>2026-04-06T16:17:55.911Z</time></trkpt><trkpt lat="45.603356171142664" lon="10.722614068307"><ele>296.0</ele><time>2026-04-06T16:17:56.911Z</time></trkpt><trkpt lat="45.60360299491184" lon="10.722704449564326"><ele>293.0</ele><time>2026-04-06T16:17:57.911Z</time></trkpt><trkpt lat="45.60385167107412" lon="10.72275541623812"><ele>290.0</ele><time>2026-04-06T16:17:58.911Z</time></trkpt><trkpt lat="45.60406270343627" lon="10.722814903536367"><ele>290.0</ele><time>2026-04-06T16:17:59.911Z</time></trkpt><trkpt lat="45.60425175727551" lon="10.722864620783197"><ele>290.0</ele><time>2026-04-06T16:18:00.911Z</time></trkpt><trkpt lat="45.604415803896735" lon="10.72294099123958"><ele>290.0</ele><time>2026-04-06T16:18:01.911Z</time></trkpt><trkpt lat="45.60457432794092" lon="10.722964441495295"><ele>291.33333333333337</ele><time>2026-04-06T16:18:02.911Z</time></trkpt><trkpt lat="45.604744662766386" lon="10.722974974394115"><ele>292.6666666666667</ele><time>2026-04-06T16:18:03.911Z</time></trkpt><trkpt lat="45.6049438262951" lon="10.722948198486366"><ele>294.0</ele><time>2026-04-06T16:18:04.911Z</time></trkpt><trkpt lat="45.605156732923206" lon="10.722886082324894"><ele>295.3333333333333</ele><time>2026-04-06T16:18:05.911Z</time></trkpt><trkpt lat="45.605371121596704" lon="10.722799673667394"><ele>296.66666666666663</ele><time>2026-04-06T16:18:06.911Z</time></trkpt><trkpt lat="45.60555397209053" lon="10.722748559989771"><ele>298.0</ele><time>2026-04-06T16:18:07.911Z</time></trkpt><trkpt lat="45.60571381938327" lon="10.722717983602978"><ele>298.0</ele><time>2026-04-06T16:18:08.911Z</time></trkpt><trkpt lat="45.60585437985526" lon="10.722701688167023"><ele>298.0</ele><time>2026-04-06T16:18:09.911Z</time></trkpt><trkpt lat="45.60598338869163" lon="10.722730013179715"><ele>298.0</ele><time>2026-04-06T16:18:10.911Z</time></trkpt><trkpt lat="45.60610354663312" lon="10.72277819610931"><ele>298.0</ele><time>2026-04-06T16:18:11.911Z</time></trkpt><trkpt lat="45.60621279836042" lon="10.722847443577125"><ele>298.8</ele><time>2026-04-06T16:18:12.911Z</time></trkpt><trkpt lat="45.606312788108106" lon="10.722929285050975"><ele>299.6</ele><time>2026-04-06T16:18:13.911Z</time></trkpt><trkpt lat="45.606398315137604" lon="10.723029154964653"><ele>300.4</ele><time>2026-04-06T16:18:14.911Z</time></trkpt><trkpt lat="45.6064626545147" lon="10.723134379006279"><ele>301.2</ele><time>2026-04-06T16:18:15.911Z</time></trkpt><trkpt lat="45.6065289657791" lon="10.723209964952394"><ele>302.0</ele><time>2026-04-06T16:18:17.911Z</time></trkpt><trkpt lat="45.60655565353213" lon="10.723349153631299"><ele>302.0</ele><time>2026-04-06T16:18:19.911Z</time></trkpt><trkpt lat="45.60660842671862" lon="10.723495398553178"><ele>302.0</ele><time>2026-04-06T16:18:21.911Z</time></trkpt><trkpt lat="45.606705377404445" lon="10.723579712203863"><ele>302.0</ele><time>2026-04-06T16:18:23.911Z</time></trkpt><trkpt lat="45.606803444354654" lon="10.723623697453096"><ele>302.0</ele><time>2026-04-06T16:18:25.911Z</time></trkpt><trkpt lat="45.60685215438293" lon="10.723682256410749"><ele>302.0</ele><time>2026-04-06T16:18:26.911Z</time></trkpt><trkpt lat="45.60689545752904" lon="10.723776509231095"><ele>302.1666666666667</ele><time>2026-04-06T16:18:27.911Z</time></trkpt><trkpt lat="45.6069054848109" lon="10.72387829895774"><ele>302.33333333333337</ele><time>2026-04-06T16:18:28.911Z</time></trkpt><trkpt lat="45.60690135044811" lon="10.723980652495442"><ele>302.5</ele><time>2026-04-06T16:18:29.911Z</time></trkpt><trkpt lat="45.60687731802806" lon="10.724086526856516"><ele>302.6666666666667</ele><time>2026-04-06T16:18:30.911Z</time></trkpt><trkpt lat="45.6068391525987" lon="10.72419329430836"><ele>302.8333333333333</ele><time>2026-04-06T16:18:31.911Z</time></trkpt><trkpt lat="45.60678856978865" lon="10.724329257328149"><ele>303.0</ele><time>2026-04-06T16:18:32.911Z</time></trkpt><trkpt lat="45.606706171847016" lon="10.724487163608837"><ele>304.4</ele><time>2026-04-06T16:18:33.911Z</time></trkpt><trkpt lat="45.606625203369425" lon="10.724637299263485"><ele>305.8</ele><time>2026-04-06T16:18:34.911Z</time></trkpt><trkpt lat="45.60657720462195" lon="10.724752914974035"><ele>307.2</ele><time>2026-04-06T16:18:35.911Z</time></trkpt><trkpt lat="45.60653982675759" lon="10.724836937440857"><ele>308.6</ele><time>2026-04-06T16:18:36.911Z</time></trkpt><trkpt lat="45.60650418306253" lon="10.724995549333547"><ele>310.0</ele><time>2026-04-06T16:18:38.911Z</time></trkpt><trkpt lat="45.60646458223624" lon="10.725134463824585"><ele>310.0</ele><time>2026-04-06T16:18:40.911Z</time></trkpt><trkpt lat="45.60644515429737" lon="10.725223258827937"><ele>310.0</ele><time>2026-04-06T16:18:41.911Z</time></trkpt><trkpt lat="45.60642960631033" lon="10.725326766993403"><ele>310.0</ele><time>2026-04-06T16:18:42.911Z</time></trkpt><trkpt lat="45.60641714682946" lon="10.725437797487928"><ele>310.0</ele><time>2026-04-06T16:18:43.911Z</time></trkpt><trkpt lat="45.606407251646516" lon="10.725550226008057"><ele>310.0</ele><time>2026-04-06T16:18:44.911Z</time></trkpt><trkpt lat="45.606407533716144" lon="10.725660813158965"><ele>310.0</ele><time>2026-04-06T16:18:45.911Z</time></trkpt><trkpt lat="45.606409290105944" lon="10.7257664278859"><ele>310.0</ele><time>2026-04-06T16:18:46.911Z</time></trkpt><trkpt lat="45.60642932264228" lon="10.725904373210149"><ele>310.8333333333333</ele><time>2026-04-06T16:18:48.911Z</time></trkpt><trkpt lat="45.60644080254057" lon="10.726032099277626"><ele>311.66666666666663</ele><time>2026-04-06T16:18:52.911Z</time></trkpt><trkpt lat="45.606460401987334" lon="10.726123249382207"><ele>312.5</ele><time>2026-04-06T16:18:54.911Z</time></trkpt><trkpt lat="45.60649551959459" lon="10.726250431079514"><ele>313.3333333333333</ele><time>2026-04-06T16:18:57.911Z</time></trkpt><trkpt lat="45.6065096984232" lon="10.726384164502408"><ele>314.1666666666667</ele><time>2026-04-06T16:19:00.911Z</time></trkpt><trkpt lat="45.60651507643551" lon="10.726496073502982"><ele>315.0</ele><time>2026-04-06T16:19:03.911Z</time></trkpt><trkpt lat="45.60652848778418" lon="10.726588646523409"><ele>315.2</ele><time>2026-04-06T16:19:09.911Z</time></trkpt><trkpt lat="45.6065419264011" lon="10.72669528648882"><ele>315.4</ele><time>2026-04-06T16:19:14.911Z</time></trkpt><trkpt lat="45.60657490138294" lon="10.726803340285526"><ele>315.6</ele><time>2026-04-06T16:19:18.911Z</time></trkpt><trkpt lat="45.606650886303605" lon="10.726864721182919"><ele>315.8</ele><time>2026-04-06T16:19:21.911Z</time></trkpt><trkpt lat="45.60664015322791" lon="10.727009429580335"><ele>316.0</ele><time>2026-04-06T16:19:23.911Z</time></trkpt><trkpt lat="45.6066040279576" lon="10.727153611319748"><ele>316.0</ele><time>2026-04-06T16:19:25.911Z</time></trkpt><trkpt lat="45.60658822791331" lon="10.727262216097339"><ele>316.0</ele><time>2026-04-06T16:19:26.911Z</time></trkpt><trkpt lat="45.606569027588286" lon="10.727412872701732"><ele>316.0</ele><time>2026-04-06T16:19:27.911Z</time></trkpt><trkpt lat="45.6065230041251" lon="10.727536560162143"><ele>316.0</ele><time>2026-04-06T16:19:28.911Z</time></trkpt><trkpt lat="45.606489865410644" lon="10.727657858287158"><ele>316.0</ele><time>2026-04-06T16:19:29.911Z</time></trkpt><trkpt lat="45.606464314301114" lon="10.727772602906976"><ele>315.0</ele><time>2026-04-06T16:19:30.911Z</time></trkpt><trkpt lat="45.60642117870117" lon="10.727882671553175"><ele>314.0</ele><time>2026-04-06T16:19:31.911Z</time></trkpt><trkpt lat="45.60638863051594" lon="10.727981675299956"><ele>313.0</ele><time>2026-04-06T16:19:32.911Z</time></trkpt><trkpt lat="45.60635498009148" lon="10.728083944562266"><ele>312.0</ele><time>2026-04-06T16:19:33.911Z</time></trkpt><trkpt lat="45.60633753764375" lon="10.728180824906358"><ele>311.0</ele><time>2026-04-06T16:19:34.911Z</time></trkpt><trkpt lat="45.60639782874051" lon="10.72834074208078"><ele>310.0</ele><time>2026-04-06T16:19:36.911Z</time></trkpt><trkpt lat="45.606468245540555" lon="10.728566891584574"><ele>309.5</ele><time>2026-04-06T16:19:38.911Z</time></trkpt><trkpt lat="45.60650069822392" lon="10.728798285197602"><ele>309.0</ele><time>2026-04-06T16:19:39.911Z</time></trkpt><trkpt lat="45.606559225388935" lon="10.728946077849278"><ele>308.5</ele><time>2026-04-06T16:19:40.911Z</time></trkpt><trkpt lat="45.606616136977365" lon="10.72908481117428"><ele>308.0</ele><time>2026-04-06T16:19:41.911Z</time></trkpt><trkpt lat="45.6066618214322" lon="10.729222236005548"><ele>308.0</ele><time>2026-04-06T16:19:42.911Z</time></trkpt><trkpt lat="45.606706724926646" lon="10.72935914207114"><ele>308.0</ele><time>2026-04-06T16:19:43.911Z</time></trkpt><trkpt lat="45.60674009425727" lon="10.729503235771814"><ele>308.0</ele><time>2026-04-06T16:19:44.911Z</time></trkpt><trkpt lat="45.60675245967756" lon="10.729653821997276"><ele>308.0</ele><time>2026-04-06T16:19:45.911Z</time></trkpt><trkpt lat="45.606746378075435" lon="10.729808145368331"><ele>308.0</ele><time>2026-04-06T16:19:46.911Z</time></trkpt><trkpt lat="45.60673378416779" lon="10.729958795080627"><ele>306.75</ele><time>2026-04-06T16:19:47.911Z</time></trkpt><trkpt lat="45.60673259412138" lon="10.730121717572091"><ele>305.5</ele><time>2026-04-06T16:19:48.911Z</time></trkpt><trkpt lat="45.60673894001151" lon="10.73028939330718"><ele>304.25</ele><time>2026-04-06T16:19:49.911Z</time></trkpt><trkpt lat="45.6067422816157" lon="10.730454124755838"><ele>303.0</ele><time>2026-04-06T16:19:50.911Z</time></trkpt><trkpt lat="45.606746419822144" lon="10.73063485271601"><ele>301.75</ele><time>2026-04-06T16:19:51.911Z</time></trkpt><trkpt lat="45.606748199385116" lon="10.730809759946636"><ele>300.5</ele><time>2026-04-06T16:19:52.911Z</time></trkpt><trkpt lat="45.606747335582114" lon="10.730981242302489"><ele>299.25</ele><time>2026-04-06T16:19:53.911Z</time></trkpt><trkpt lat="45.60675442610307" lon="10.731157538888977"><ele>298.0</ele><time>2026-04-06T16:19:54.911Z</time></trkpt><trkpt lat="45.606756584876535" lon="10.731351674216391"><ele>297.25</ele><time>2026-04-06T16:19:55.91Z</time></trkpt><trkpt lat="45.60676159347036" lon="10.731557238991067"><ele>296.5</ele><time>2026-04-06T16:19:56.91Z</time></trkpt><trkpt lat="45.60676204421209" lon="10.731750822916162"><ele>295.75</ele><time>2026-04-06T16:19:57.91Z</time></trkpt><trkpt lat="45.606761276931586" lon="10.731936898524859"><ele>295.0</ele><time>2026-04-06T16:19:58.91Z</time></trkpt><trkpt lat="45.60674251620207" lon="10.732115513432918"><ele>295.0</ele><time>2026-04-06T16:19:59.91Z</time></trkpt><trkpt lat="45.60672227354859" lon="10.732300656182757"><ele>295.0</ele><time>2026-04-06T16:20:00.91Z</time></trkpt><trkpt lat="45.60668631776787" lon="10.732493219614804"><ele>295.0</ele><time>2026-04-06T16:20:01.909Z</time></trkpt><trkpt lat="45.606600357763995" lon="10.732654511645867"><ele>295.0</ele><time>2026-04-06T16:20:02.909Z</time></trkpt><trkpt lat="45.60650965437764" lon="10.732830914990599"><ele>297.0</ele><time>2026-04-06T16:20:03.909Z</time></trkpt><trkpt lat="45.60638612369272" lon="10.732993345086063"><ele>299.0</ele><time>2026-04-06T16:20:04.909Z</time></trkpt><trkpt lat="45.60623159672656" lon="10.733151297193645"><ele>301.0</ele><time>2026-04-06T16:20:05.909Z</time></trkpt><trkpt lat="45.606082276205406" lon="10.733304811529846"><ele>299.66666666666663</ele><time>2026-04-06T16:20:06.909Z</time></trkpt><trkpt lat="45.60593987689292" lon="10.733449270646123"><ele>298.3333333333333</ele><time>2026-04-06T16:20:07.909Z</time></trkpt><trkpt lat="45.605799055518524" lon="10.733591337558043"><ele>297.0</ele><time>2026-04-06T16:20:08.909Z</time></trkpt><trkpt lat="45.6056602232528" lon="10.733736249330688"><ele>297.0</ele><time>2026-04-06T16:20:09.909Z</time></trkpt><trkpt lat="45.6055246224008" lon="10.733880609289255"><ele>297.0</ele><time>2026-04-06T16:20:10.909Z</time></trkpt><trkpt lat="45.605386189275286" lon="10.734029238130816"><ele>297.0</ele><time>2026-04-06T16:20:11.909Z</time></trkpt><trkpt lat="45.605244091842515" lon="10.734180949192169"><ele>295.3333333333333</ele><time>2026-04-06T16:20:12.909Z</time></trkpt><trkpt lat="45.60509176201108" lon="10.7343515850103"><ele>293.66666666666663</ele><time>2026-04-06T16:20:13.909Z</time></trkpt><trkpt lat="45.60494412717586" lon="10.73451219112247"><ele>292.0</ele><time>2026-04-06T16:20:14.909Z</time></trkpt><trkpt lat="45.60480178902128" lon="10.734667031321994"><ele>292.0</ele><time>2026-04-06T16:20:15.909Z</time></trkpt><trkpt lat="45.60466621443939" lon="10.734812594557734"><ele>292.0</ele><time>2026-04-06T16:20:16.909Z</time></trkpt><trkpt lat="45.60453968151183" lon="10.734954057265243"><ele>292.0</ele><time>2026-04-06T16:20:17.909Z</time></trkpt><trkpt lat="45.604414841683244" lon="10.735094905388681"><ele>291.5</ele><time>2026-04-06T16:20:18.909Z</time></trkpt><trkpt lat="45.60429213396759" lon="10.735229373385637"><ele>291.0</ele><time>2026-04-06T16:20:19.909Z</time></trkpt><trkpt lat="45.604178302259115" lon="10.735352439171022"><ele>290.5</ele><time>2026-04-06T16:20:20.909Z</time></trkpt><trkpt lat="45.604063262720416" lon="10.73547405257556"><ele>290.0</ele><time>2026-04-06T16:20:21.909Z</time></trkpt><trkpt lat="45.60394394413552" lon="10.735590814048031"><ele>290.0</ele><time>2026-04-06T16:20:22.909Z</time></trkpt><trkpt lat="45.603821170215745" lon="10.73571981116829"><ele>290.0</ele><time>2026-04-06T16:20:23.909Z</time></trkpt><trkpt lat="45.60368863949892" lon="10.735862455342057"><ele>290.0</ele><time>2026-04-06T16:20:24.909Z</time></trkpt><trkpt lat="45.60354387924775" lon="10.735999919349576"><ele>289.33333333333337</ele><time>2026-04-06T16:20:25.909Z</time></trkpt><trkpt lat="45.603394187159594" lon="10.736140449224514"><ele>288.6666666666667</ele><time>2026-04-06T16:20:26.909Z</time></trkpt><trkpt lat="45.60323750236704" lon="10.73628417418897"><ele>288.0</ele><time>2026-04-06T16:20:27.909Z</time></trkpt><trkpt lat="45.60308216279146" lon="10.736430077450278"><ele>288.0</ele><time>2026-04-06T16:20:28.909Z</time></trkpt><trkpt lat="45.60291979878359" lon="10.736568292427163"><ele>288.0</ele><time>2026-04-06T16:20:29.909Z</time></trkpt><trkpt lat="45.602756290334995" lon="10.736696023475092"><ele>288.0</ele><time>2026-04-06T16:20:30.909Z</time></trkpt><trkpt lat="45.602599780969584" lon="10.736814461135841"><ele>287.0</ele><time>2026-04-06T16:20:31.909Z</time></trkpt><trkpt lat="45.60244006658162" lon="10.736940326393874"><ele>286.0</ele><time>2026-04-06T16:20:32.909Z</time></trkpt><trkpt lat="45.602277382388294" lon="10.737069209249077"><ele>285.0</ele><time>2026-04-06T16:20:33.909Z</time></trkpt><trkpt lat="45.602122094328294" lon="10.737190157479507"><ele>281.6666666666667</ele><time>2026-04-06T16:20:34.909Z</time></trkpt><trkpt lat="45.60197239782946" lon="10.737300473725536"><ele>278.33333333333337</ele><time>2026-04-06T16:20:35.909Z</time></trkpt><trkpt lat="45.601826998411404" lon="10.73741325575213"><ele>275.0</ele><time>2026-04-06T16:20:36.909Z</time></trkpt><trkpt lat="45.601681519939454" lon="10.737527238819649"><ele>275.0</ele><time>2026-04-06T16:20:37.909Z</time></trkpt><trkpt lat="45.60154049301401" lon="10.73763482676428"><ele>275.0</ele><time>2026-04-06T16:20:38.909Z</time></trkpt><trkpt lat="45.60139689527195" lon="10.737742518728764"><ele>275.0</ele><time>2026-04-06T16:20:39.909Z</time></trkpt><trkpt lat="45.60125877489601" lon="10.737839501822931"><ele>273.5</ele><time>2026-04-06T16:20:40.909Z</time></trkpt><trkpt lat="45.60112175935184" lon="10.737920896991842"><ele>272.0</ele><time>2026-04-06T16:20:41.909Z</time></trkpt><trkpt lat="45.60098025486149" lon="10.73798046046984"><ele>270.5</ele><time>2026-04-06T16:20:42.909Z</time></trkpt><trkpt lat="45.60083439693341" lon="10.738004903092689"><ele>269.0</ele><time>2026-04-06T16:20:43.909Z</time></trkpt><trkpt lat="45.60068602553775" lon="10.7380012046486"><ele>269.0</ele><time>2026-04-06T16:20:44.909Z</time></trkpt><trkpt lat="45.60052932372646" lon="10.737965707048318"><ele>269.0</ele><time>2026-04-06T16:20:45.909Z</time></trkpt><trkpt lat="45.600364065629506" lon="10.737901997691708"><ele>269.0</ele><time>2026-04-06T16:20:46.909Z</time></trkpt><trkpt lat="45.60019694590158" lon="10.737785698955632"><ele>267.0</ele><time>2026-04-06T16:20:47.909Z</time></trkpt><trkpt lat="45.60004232463646" lon="10.737585343531643"><ele>265.0</ele><time>2026-04-06T16:20:48.909Z</time></trkpt><trkpt lat="45.59986598070404" lon="10.737387210705592"><ele>263.0</ele><time>2026-04-06T16:20:49.909Z</time></trkpt><trkpt lat="45.59969458283224" lon="10.737204602590868"><ele>263.0</ele><time>2026-04-06T16:20:50.909Z</time></trkpt><trkpt lat="45.59954284758383" lon="10.737030290168708"><ele>263.0</ele><time>2026-04-06T16:20:51.909Z</time></trkpt><trkpt lat="45.59939319100682" lon="10.736883954484687"><ele>263.0</ele><time>2026-04-06T16:20:52.909Z</time></trkpt><trkpt lat="45.59923846940083" lon="10.73676294646249"><ele>261.0</ele><time>2026-04-06T16:20:53.909Z</time></trkpt><trkpt lat="45.59907053838148" lon="10.736676802753234"><ele>259.0</ele><time>2026-04-06T16:20:54.909Z</time></trkpt><trkpt lat="45.59889366711705" lon="10.73664133810592"><ele>257.0</ele><time>2026-04-06T16:20:55.909Z</time></trkpt><trkpt lat="45.59871127185225" lon="10.736642333206271"><ele>256.6666666666667</ele><time>2026-04-06T16:20:56.909Z</time></trkpt><trkpt lat="45.598520657859304" lon="10.736688178512901"><ele>256.3333333333333</ele><time>2026-04-06T16:20:57.909Z</time></trkpt><trkpt lat="45.598317324950074" lon="10.736791734876135"><ele>256.0</ele><time>2026-04-06T16:20:58.909Z</time></trkpt><trkpt lat="45.59810796933499" lon="10.736938383454993"><ele>257.0</ele><time>2026-04-06T16:20:59.909Z</time></trkpt><trkpt lat="45.59788470493693" lon="10.7371096503851"><ele>258.0</ele><time>2026-04-06T16:21:00.909Z</time></trkpt><trkpt lat="45.597661672690116" lon="10.737280605137697"><ele>255.5</ele><time>2026-04-06T16:21:01.909Z</time></trkpt><trkpt lat="45.597452910001834" lon="10.7374265530265"><ele>253.0</ele><time>2026-04-06T16:21:02.909Z</time></trkpt><trkpt lat="45.597255072372704" lon="10.737559286325443"><ele>253.0</ele><time>2026-04-06T16:21:03.909Z</time></trkpt><trkpt lat="45.59706663040107" lon="10.73768280022297"><ele>253.0</ele><time>2026-04-06T16:21:04.909Z</time></trkpt><trkpt lat="45.59688465922001" lon="10.737810226768927"><ele>253.0</ele><time>2026-04-06T16:21:05.909Z</time></trkpt><trkpt lat="45.59670885020019" lon="10.737936314414753"><ele>252.33333333333331</ele><time>2026-04-06T16:21:06.909Z</time></trkpt><trkpt lat="45.59653820075604" lon="10.738058383297442"><ele>251.66666666666669</ele><time>2026-04-06T16:21:07.909Z</time></trkpt><trkpt lat="45.59636588726226" lon="10.738177699148963"><ele>251.0</ele><time>2026-04-06T16:21:08.909Z</time></trkpt><trkpt lat="45.59619694149371" lon="10.738294726979897"><ele>249.66666666666669</ele><time>2026-04-06T16:21:09.909Z</time></trkpt><trkpt lat="45.59602709459237" lon="10.73841350242236"><ele>248.33333333333331</ele><time>2026-04-06T16:21:10.909Z</time></trkpt><trkpt lat="45.595859561043774" lon="10.738528267333724"><ele>247.0</ele><time>2026-04-06T16:21:11.909Z</time></trkpt><trkpt lat="45.595690716461725" lon="10.738644381834428"><ele>246.66666666666666</ele><time>2026-04-06T16:21:12.909Z</time></trkpt><trkpt lat="45.59552924796447" lon="10.738758736585659"><ele>246.33333333333331</ele><time>2026-04-06T16:21:13.909Z</time></trkpt><trkpt lat="45.59537186670699" lon="10.738869099206802"><ele>246.0</ele><time>2026-04-06T16:21:14.909Z</time></trkpt><trkpt lat="45.595217446885634" lon="10.738969841752311"><ele>245.66666666666669</ele><time>2026-04-06T16:21:15.909Z</time></trkpt><trkpt lat="45.59506555946254" lon="10.739068471293917"><ele>245.33333333333334</ele><time>2026-04-06T16:21:16.909Z</time></trkpt><trkpt lat="45.594916051640965" lon="10.73915948569113"><ele>245.0</ele><time>2026-04-06T16:21:17.909Z</time></trkpt><trkpt lat="45.59476409521496" lon="10.739255990979272"><ele>245.0</ele><time>2026-04-06T16:21:18.909Z</time></trkpt><trkpt lat="45.594625515336695" lon="10.73932898815708"><ele>245.0</ele><time>2026-04-06T16:21:19.909Z</time></trkpt><trkpt lat="45.59449046274902" lon="10.739409256820494"><ele>245.0</ele><time>2026-04-06T16:21:20.909Z</time></trkpt><trkpt lat="45.59435490936016" lon="10.739492247409126"><ele>245.0</ele><time>2026-04-06T16:21:21.909Z</time></trkpt><trkpt lat="45.594219195267144" lon="10.73957717110025"><ele>243.66666666666669</ele><time>2026-04-06T16:21:22.909Z</time></trkpt><trkpt lat="45.594082448647534" lon="10.739668097240104"><ele>242.33333333333331</ele><time>2026-04-06T16:21:23.909Z</time></trkpt><trkpt lat="45.59394694803575" lon="10.739779815682427"><ele>241.0</ele><time>2026-04-06T16:21:24.909Z</time></trkpt><trkpt lat="45.59381884362821" lon="10.73990914051597"><ele>241.0</ele><time>2026-04-06T16:21:25.909Z</time></trkpt><trkpt lat="45.59369257180054" lon="10.74005040575117"><ele>241.0</ele><time>2026-04-06T16:21:26.909Z</time></trkpt><trkpt lat="45.593567515483365" lon="10.740197058699525"><ele>241.0</ele><time>2026-04-06T16:21:27.909Z</time></trkpt><trkpt lat="45.59344878900635" lon="10.740333811443929"><ele>240.5</ele><time>2026-04-06T16:21:28.909Z</time></trkpt><trkpt lat="45.59333149567924" lon="10.74046554507108"><ele>240.0</ele><time>2026-04-06T16:21:29.909Z</time></trkpt><trkpt lat="45.59321699441367" lon="10.740587359541252"><ele>239.5</ele><time>2026-04-06T16:21:30.909Z</time></trkpt><trkpt lat="45.59310042065517" lon="10.740713398864191"><ele>239.0</ele><time>2026-04-06T16:21:31.909Z</time></trkpt><trkpt lat="45.59298953495789" lon="10.74083348135865"><ele>239.0</ele><time>2026-04-06T16:21:32.909Z</time></trkpt><trkpt lat="45.59288283599391" lon="10.740953125058196"><ele>239.0</ele><time>2026-04-06T16:21:33.909Z</time></trkpt><trkpt lat="45.59277528638381" lon="10.74106970805324"><ele>239.0</ele><time>2026-04-06T16:21:34.909Z</time></trkpt><trkpt lat="45.59267364158571" lon="10.741188307379367"><ele>239.0</ele><time>2026-04-06T16:21:35.909Z</time></trkpt><trkpt lat="45.592571194483256" lon="10.741301873425849"><ele>238.0</ele><time>2026-04-06T16:21:36.909Z</time></trkpt><trkpt lat="45.592468748302394" lon="10.741407079045278"><ele>237.0</ele><time>2026-04-06T16:21:37.909Z</time></trkpt><trkpt lat="45.592375423561705" lon="10.741518287713543"><ele>236.0</ele><time>2026-04-06T16:21:38.909Z</time></trkpt><trkpt lat="45.592282091055054" lon="10.74162136969667"><ele>235.0</ele><time>2026-04-06T16:21:39.909Z</time></trkpt><trkpt lat="45.59218763920424" lon="10.741727570458979"><ele>235.0</ele><time>2026-04-06T16:21:40.909Z</time></trkpt><trkpt lat="45.592095422316206" lon="10.741828909334437"><ele>235.0</ele><time>2026-04-06T16:21:41.909Z</time></trkpt><trkpt lat="45.591998114557384" lon="10.741925790720128"><ele>235.0</ele><time>2026-04-06T16:21:42.909Z</time></trkpt><trkpt lat="45.591904496394555" lon="10.742038630142822"><ele>235.0</ele><time>2026-04-06T16:21:43.909Z</time></trkpt><trkpt lat="45.591810035229834" lon="10.742151467630451"><ele>233.75</ele><time>2026-04-06T16:21:44.909Z</time></trkpt><trkpt lat="45.59171811832155" lon="10.74225896189163"><ele>232.5</ele><time>2026-04-06T16:21:45.909Z</time></trkpt><trkpt lat="45.591624216335" lon="10.742361526069311"><ele>231.25</ele><time>2026-04-06T16:21:46.909Z</time></trkpt><trkpt lat="45.59152604318043" lon="10.742472008162169"><ele>230.0</ele><time>2026-04-06T16:21:47.909Z</time></trkpt><trkpt lat="45.59142753537122" lon="10.742581087559998"><ele>230.0</ele><time>2026-04-06T16:21:48.909Z</time></trkpt><trkpt lat="45.591325684676924" lon="10.742694819505884"><ele>230.0</ele><time>2026-04-06T16:21:49.909Z</time></trkpt><trkpt lat="45.59121989175434" lon="10.742815864949959"><ele>230.0</ele><time>2026-04-06T16:21:50.909Z</time></trkpt><trkpt lat="45.59112131442781" lon="10.742927637837104"><ele>230.0</ele><time>2026-04-06T16:21:51.909Z</time></trkpt><trkpt lat="45.59102143567701" lon="10.743036744559307"><ele>229.75</ele><time>2026-04-06T16:21:52.909Z</time></trkpt><trkpt lat="45.590926789646204" lon="10.743146936621143"><ele>229.5</ele><time>2026-04-06T16:21:53.909Z</time></trkpt><trkpt lat="45.59083346897915" lon="10.74325607231477"><ele>229.25</ele><time>2026-04-06T16:21:54.909Z</time></trkpt><trkpt lat="45.59074179435315" lon="10.743362581519198"><ele>229.0</ele><time>2026-04-06T16:21:55.909Z</time></trkpt><trkpt lat="45.59065235407129" lon="10.743465583256219"><ele>228.75</ele><time>2026-04-06T16:21:56.909Z</time></trkpt><trkpt lat="45.5905610841841" lon="10.74357086662423"><ele>228.5</ele><time>2026-04-06T16:21:57.909Z</time></trkpt><trkpt lat="45.59046821182207" lon="10.743669023067469"><ele>228.25</ele><time>2026-04-06T16:21:58.909Z</time></trkpt><trkpt lat="45.590378400250806" lon="10.74376701682121"><ele>228.0</ele><time>2026-04-06T16:21:59.909Z</time></trkpt><trkpt lat="45.59029847265598" lon="10.743880308888837"><ele>228.0</ele><time>2026-04-06T16:22:00.909Z</time></trkpt><trkpt lat="45.590213716520594" lon="10.743987294021823"><ele>228.0</ele><time>2026-04-06T16:22:01.909Z</time></trkpt><trkpt lat="45.59012118825415" lon="10.744088335846715"><ele>228.0</ele><time>2026-04-06T16:22:02.909Z</time></trkpt><trkpt lat="45.59002425702271" lon="10.744196194824411"><ele>228.0</ele><time>2026-04-06T16:22:03.909Z</time></trkpt><trkpt lat="45.589925414167915" lon="10.74430689800706"><ele>227.5</ele><time>2026-04-06T16:22:04.909Z</time></trkpt><trkpt lat="45.58983104668175" lon="10.7444191088648"><ele>227.0</ele><time>2026-04-06T16:22:05.909Z</time></trkpt><trkpt lat="45.589742868110996" lon="10.744519436115718"><ele>226.5</ele><time>2026-04-06T16:22:06.909Z</time></trkpt><trkpt lat="45.58965449815934" lon="10.744619544302608"><ele>226.0</ele><time>2026-04-06T16:22:07.909Z</time></trkpt><trkpt lat="45.58956541148986" lon="10.744710839792393"><ele>226.0</ele><time>2026-04-06T16:22:08.909Z</time></trkpt><trkpt lat="45.58947746268643" lon="10.744802161848767"><ele>226.00000000000003</ele><time>2026-04-06T16:22:09.909Z</time></trkpt><trkpt lat="45.58939204199541" lon="10.744894982627937"><ele>226.00000000000003</ele><time>2026-04-06T16:22:10.909Z</time></trkpt><trkpt lat="45.589312365018586" lon="10.744984784033875"><ele>226.0</ele><time>2026-04-06T16:22:11.909Z</time></trkpt><trkpt lat="45.58924220126798" lon="10.745067582090565"><ele>226.0</ele><time>2026-04-06T16:22:12.909Z</time></trkpt><trkpt lat="45.58917231126177" lon="10.745162821710007"><ele>226.0</ele><time>2026-04-06T16:22:13.909Z</time></trkpt><trkpt lat="45.58909113000609" lon="10.745246431554403"><ele>226.00000000000003</ele><time>2026-04-06T16:22:14.909Z</time></trkpt><trkpt lat="45.58900296550934" lon="10.745338365783466"><ele>226.00000000000003</ele><time>2026-04-06T16:22:15.909Z</time></trkpt><trkpt lat="45.58891711782397" lon="10.74543769045975"><ele>226.0</ele><time>2026-04-06T16:22:16.909Z</time></trkpt><trkpt lat="45.58884175389642" lon="10.7455306855384"><ele>226.0</ele><time>2026-04-06T16:22:17.909Z</time></trkpt><trkpt lat="45.588758923332975" lon="10.745599378203531"><ele>226.0</ele><time>2026-04-06T16:22:18.909Z</time></trkpt><trkpt lat="45.588692796958085" lon="10.745673934995832"><ele>226.0</ele><time>2026-04-06T16:22:19.909Z</time></trkpt><trkpt lat="45.588635473936066" lon="10.745738566044079"><ele>226.0</ele><time>2026-04-06T16:22:20.909Z</time></trkpt><trkpt lat="45.58857684498092" lon="10.745804669398611"><ele>226.0</ele><time>2026-04-06T16:22:21.909Z</time></trkpt><trkpt lat="45.58852341417066" lon="10.74586491205772"><ele>226.0</ele><time>2026-04-06T16:22:22.909Z</time></trkpt><trkpt lat="45.588471783905646" lon="10.745930721120212"><ele>226.0</ele><time>2026-04-06T16:22:23.909Z</time></trkpt><trkpt lat="45.588436609061766" lon="10.746006729935596"><ele>226.0</ele><time>2026-04-06T16:22:24.909Z</time></trkpt><trkpt lat="45.58834287434705" lon="10.746114400333798"><ele>225.5</ele><time>2026-04-06T16:22:26.909Z</time></trkpt><trkpt lat="45.58825586441082" lon="10.746220159172383"><ele>225.0</ele><time>2026-04-06T16:22:28.909Z</time></trkpt><trkpt lat="45.58817255283177" lon="10.746314649144896"><ele>224.5</ele><time>2026-04-06T16:22:30.909Z</time></trkpt><trkpt lat="45.58806723041141" lon="10.7464337238169"><ele>224.0</ele><time>2026-04-06T16:22:32.909Z</time></trkpt><trkpt lat="45.58797175801579" lon="10.746523247165955"><ele>224.0</ele><time>2026-04-06T16:22:33.909Z</time></trkpt><trkpt lat="45.58790428233375" lon="10.746569708098717"><ele>224.0</ele><time>2026-04-06T16:22:34.909Z</time></trkpt><trkpt lat="45.587826838056834" lon="10.746608041151628"><ele>224.0</ele><time>2026-04-06T16:22:35.909Z</time></trkpt><trkpt lat="45.58778296161461" lon="10.746784907322711"><ele>224.0</ele><time>2026-04-06T16:22:36.909Z</time></trkpt><trkpt lat="45.58770511408681" lon="10.74699319317391"><ele>224.0</ele><time>2026-04-06T16:22:37.909Z</time></trkpt><trkpt lat="45.58765017488166" lon="10.747045718891373"><ele>223.99999999999997</ele><time>2026-04-06T16:22:39.909Z</time></trkpt><trkpt lat="45.5875803036024" lon="10.747173428600364"><ele>223.99999999999997</ele><time>2026-04-06T16:22:40.909Z</time></trkpt><trkpt lat="45.58751469945668" lon="10.747282686263063"><ele>224.0</ele><time>2026-04-06T16:22:41.909Z</time></trkpt><trkpt lat="45.58745335456139" lon="10.74738066995691"><ele>224.0</ele><time>2026-04-06T16:22:42.909Z</time></trkpt><trkpt lat="45.587389310064545" lon="10.747456732789134"><ele>224.00000000000003</ele><time>2026-04-06T16:22:43.909Z</time></trkpt><trkpt lat="45.58732589718319" lon="10.747532508195247"><ele>224.0</ele><time>2026-04-06T16:22:44.909Z</time></trkpt><trkpt lat="45.587257087506174" lon="10.747628896674735"><ele>224.0</ele><time>2026-04-06T16:22:45.909Z</time></trkpt><trkpt lat="45.58718501451506" lon="10.747697219990254"><ele>224.0</ele><time>2026-04-06T16:22:46.909Z</time></trkpt><trkpt lat="45.58713215460573" lon="10.74775257404295"><ele>224.00000000000003</ele><time>2026-04-06T16:22:47.909Z</time></trkpt><trkpt lat="45.587040715654275" lon="10.747853559904264"><ele>224.0</ele><time>2026-04-06T16:22:49.909Z</time></trkpt><trkpt lat="45.586937830068265" lon="10.74791532314772"><ele>223.79999999999998</ele><time>2026-04-06T16:22:51.909Z</time></trkpt><trkpt lat="45.586879060152235" lon="10.747947915160337"><ele>223.59999999999997</ele><time>2026-04-06T16:23:03.909Z</time></trkpt><trkpt lat="45.58677622020053" lon="10.748065417173015"><ele>223.4</ele><time>2026-04-06T16:23:05.909Z</time></trkpt><trkpt lat="45.58669184084483" lon="10.74815878615431"><ele>223.2</ele><time>2026-04-06T16:23:06.909Z</time></trkpt><trkpt lat="45.586615763475734" lon="10.748245489936686"><ele>223.0</ele><time>2026-04-06T16:23:07.909Z</time></trkpt><trkpt lat="45.586545707477235" lon="10.748305577783734"><ele>222.99999999999997</ele><time>2026-04-06T16:23:08.909Z</time></trkpt><trkpt lat="45.58648696865308" lon="10.74835423964717"><ele>223.0</ele><time>2026-04-06T16:23:09.909Z</time></trkpt><trkpt lat="45.58642779739974" lon="10.748410840779341"><ele>223.0</ele><time>2026-04-06T16:23:10.909Z</time></trkpt><trkpt lat="45.5863654675038" lon="10.74847141088574"><ele>223.0</ele><time>2026-04-06T16:23:11.909Z</time></trkpt><trkpt lat="45.58630154927861" lon="10.748531339991182"><ele>222.99999999999997</ele><time>2026-04-06T16:23:12.909Z</time></trkpt><trkpt lat="45.58622156109269" lon="10.748605229710686"><ele>223.0</ele><time>2026-04-06T16:23:13.909Z</time></trkpt><trkpt lat="45.58612608414181" lon="10.748699512009635"><ele>222.60000000000002</ele><time>2026-04-06T16:23:14.909Z</time></trkpt><trkpt lat="45.58602488340773" lon="10.748794627314147"><ele>222.20000000000002</ele><time>2026-04-06T16:23:15.909Z</time></trkpt><trkpt lat="45.5859398385342" lon="10.748877504247261"><ele>221.8</ele><time>2026-04-06T16:23:16.909Z</time></trkpt><trkpt lat="45.585857569665954" lon="10.748961338156374"><ele>221.4</ele><time>2026-04-06T16:23:17.909Z</time></trkpt><trkpt lat="45.58576619231069" lon="10.749048712274938"><ele>221.0</ele><time>2026-04-06T16:23:18.909Z</time></trkpt><trkpt lat="45.58567706569222" lon="10.749141881423327"><ele>221.0</ele><time>2026-04-06T16:23:19.909Z</time></trkpt><trkpt lat="45.58558554742567" lon="10.749241321068759"><ele>221.0</ele><time>2026-04-06T16:23:20.909Z</time></trkpt><trkpt lat="45.58549980108749" lon="10.74934067551893"><ele>221.0</ele><time>2026-04-06T16:23:21.909Z</time></trkpt><trkpt lat="45.585411019073554" lon="10.74944531245726"><ele>221.0</ele><time>2026-04-06T16:23:22.909Z</time></trkpt><trkpt lat="45.585322187428645" lon="10.749560194952345"><ele>220.75</ele><time>2026-04-06T16:23:23.909Z</time></trkpt><trkpt lat="45.58523555887994" lon="10.749674917908727"><ele>220.5</ele><time>2026-04-06T16:23:24.909Z</time></trkpt><trkpt lat="45.58514430205955" lon="10.7498024783946"><ele>220.25</ele><time>2026-04-06T16:23:25.909Z</time></trkpt><trkpt lat="45.5850406038931" lon="10.749951453939703"><ele>220.0</ele><time>2026-04-06T16:23:26.909Z</time></trkpt><trkpt lat="45.584925210093715" lon="10.750104186164766"><ele>220.0</ele><time>2026-04-06T16:23:27.909Z</time></trkpt><trkpt lat="45.584822631870395" lon="10.750250890085994"><ele>220.0</ele><time>2026-04-06T16:23:28.909Z</time></trkpt><trkpt lat="45.584721427119575" lon="10.750389607333782"><ele>220.0</ele><time>2026-04-06T16:23:29.909Z</time></trkpt><trkpt lat="45.584621632121056" lon="10.750533591589926"><ele>220.0</ele><time>2026-04-06T16:23:30.909Z</time></trkpt><trkpt lat="45.584522645421664" lon="10.750674142410722"><ele>220.25</ele><time>2026-04-06T16:23:31.909Z</time></trkpt><trkpt lat="45.58442808390483" lon="10.750805623221403"><ele>220.5</ele><time>2026-04-06T16:23:32.909Z</time></trkpt><trkpt lat="45.58433460911046" lon="10.750932829135737"><ele>220.75</ele><time>2026-04-06T16:23:33.909Z</time></trkpt><trkpt lat="45.584243732944294" lon="10.751054915454052"><ele>221.0</ele><time>2026-04-06T16:23:34.909Z</time></trkpt><trkpt lat="45.584156954688176" lon="10.751167997337715"><ele>220.60000000000002</ele><time>2026-04-06T16:23:35.909Z</time></trkpt><trkpt lat="45.584076803878055" lon="10.751260414969344"><ele>220.20000000000002</ele><time>2026-04-06T16:23:36.909Z</time></trkpt><trkpt lat="45.5839977235684" lon="10.751348469657039"><ele>219.79999999999998</ele><time>2026-04-06T16:23:37.909Z</time></trkpt><trkpt lat="45.58389938764208" lon="10.751425038820507"><ele>219.39999999999998</ele><time>2026-04-06T16:23:38.909Z</time></trkpt><trkpt lat="45.58380794249619" lon="10.751541437390223"><ele>219.0</ele><time>2026-04-06T16:23:39.909Z</time></trkpt><trkpt lat="45.58367497314003" lon="10.751664368168225"><ele>217.66666666666669</ele><time>2026-04-06T16:23:40.909Z</time></trkpt><trkpt lat="45.58353264553494" lon="10.751804582059803"><ele>216.33333333333334</ele><time>2026-04-06T16:23:41.909Z</time></trkpt><trkpt lat="45.5833851819366" lon="10.751933770584364"><ele>215.0</ele><time>2026-04-06T16:23:42.909Z</time></trkpt><trkpt lat="45.58324468465901" lon="10.752066905726043"><ele>214.66666666666669</ele><time>2026-04-06T16:23:43.909Z</time></trkpt><trkpt lat="45.58310344614889" lon="10.752205521969001"><ele>214.33333333333331</ele><time>2026-04-06T16:23:44.909Z</time></trkpt><trkpt lat="45.58297569438591" lon="10.752332825705821"><ele>214.0</ele><time>2026-04-06T16:23:45.909Z</time></trkpt><trkpt lat="45.582854477300216" lon="10.752446301973812"><ele>213.25</ele><time>2026-04-06T16:23:46.909Z</time></trkpt><trkpt lat="45.582750373010256" lon="10.752546839476322"><ele>212.5</ele><time>2026-04-06T16:23:47.909Z</time></trkpt><trkpt lat="45.58265961996102" lon="10.752631079286743"><ele>211.75</ele><time>2026-04-06T16:23:48.909Z</time></trkpt><trkpt lat="45.582559866301395" lon="10.752721930700357"><ele>211.0</ele><time>2026-04-06T16:23:49.909Z</time></trkpt><trkpt lat="45.58243562829637" lon="10.752834235348972"><ele>211.0</ele><time>2026-04-06T16:23:50.909Z</time></trkpt><trkpt lat="45.58228871964944" lon="10.752968793598294"><ele>211.0</ele><time>2026-04-06T16:23:51.909Z</time></trkpt><trkpt lat="45.58211995428033" lon="10.753123520048922"><ele>211.0</ele><time>2026-04-06T16:23:52.909Z</time></trkpt><trkpt lat="45.581963894108604" lon="10.753261704677655"><ele>210.33333333333331</ele><time>2026-04-06T16:23:53.909Z</time></trkpt><trkpt lat="45.581827126881436" lon="10.753380865815188"><ele>209.66666666666669</ele><time>2026-04-06T16:23:54.909Z</time></trkpt><trkpt lat="45.58169973686459" lon="10.753500150062619"><ele>209.0</ele><time>2026-04-06T16:23:55.909Z</time></trkpt><trkpt lat="45.58158224910384" lon="10.75360616873458"><ele>209.0</ele><time>2026-04-06T16:23:56.909Z</time></trkpt><trkpt lat="45.581468383357105" lon="10.753706866745928"><ele>209.0</ele><time>2026-04-06T16:23:57.909Z</time></trkpt><trkpt lat="45.58136918429794" lon="10.753798510978005"><ele>209.0</ele><time>2026-04-06T16:23:58.909Z</time></trkpt><trkpt lat="45.58127668924971" lon="10.753885741931438"><ele>209.0</ele><time>2026-04-06T16:23:59.909Z</time></trkpt><trkpt lat="45.58119085497126" lon="10.75396568184773"><ele>209.0</ele><time>2026-04-06T16:24:00.909Z</time></trkpt><trkpt lat="45.58110406167839" lon="10.754051943155279"><ele>209.0</ele><time>2026-04-06T16:24:01.909Z</time></trkpt><trkpt lat="45.581022365781294" lon="10.754133675313101"><ele>209.0</ele><time>2026-04-06T16:24:02.909Z</time></trkpt><trkpt lat="45.58093164221461" lon="10.754213575375692"><ele>209.0</ele><time>2026-04-06T16:24:03.909Z</time></trkpt><trkpt lat="45.5808320913868" lon="10.754303007223388"><ele>209.0</ele><time>2026-04-06T16:24:04.909Z</time></trkpt><trkpt lat="45.58073335797319" lon="10.754399178927182"><ele>209.00000000000003</ele><time>2026-04-06T16:24:05.909Z</time></trkpt><trkpt lat="45.58062977275033" lon="10.754491244099043"><ele>209.0</ele><time>2026-04-06T16:24:06.909Z</time></trkpt><trkpt lat="45.580540163863084" lon="10.754571626042557"><ele>209.0</ele><time>2026-04-06T16:24:07.909Z</time></trkpt><trkpt lat="45.58046927382889" lon="10.75463905390907"><ele>209.0</ele><time>2026-04-06T16:24:08.909Z</time></trkpt><trkpt lat="45.58041706691302" lon="10.754691019536475"><ele>209.00000000000003</ele><time>2026-04-06T16:24:09.909Z</time></trkpt><trkpt lat="45.58035869313285" lon="10.754745637375"><ele>209.0</ele><time>2026-04-06T16:24:10.909Z</time></trkpt><trkpt lat="45.58029905093995" lon="10.754803171080082"><ele>208.79999999999998</ele><time>2026-04-06T16:24:11.909Z</time></trkpt><trkpt lat="45.580231807963315" lon="10.754869076708593"><ele>208.6</ele><time>2026-04-06T16:24:12.909Z</time></trkpt><trkpt lat="45.58015130377539" lon="10.754953769917291"><ele>208.4</ele><time>2026-04-06T16:24:13.909Z</time></trkpt><trkpt lat="45.58005034215601" lon="10.7550504577102"><ele>208.2</ele><time>2026-04-06T16:24:14.909Z</time></trkpt><trkpt lat="45.57996134207621" lon="10.755124281135439"><ele>208.0</ele><time>2026-04-06T16:24:15.909Z</time></trkpt><trkpt lat="45.579889318294086" lon="10.755192313785855"><ele>208.0</ele><time>2026-04-06T16:24:16.909Z</time></trkpt><trkpt lat="45.579821283492905" lon="10.75525003543652"><ele>208.0</ele><time>2026-04-06T16:24:17.909Z</time></trkpt><trkpt lat="45.5797225445728" lon="10.755334632227642"><ele>208.0</ele><time>2026-04-06T16:24:19.909Z</time></trkpt><trkpt lat="45.57964300421431" lon="10.755414402114862"><ele>208.0</ele><time>2026-04-06T16:24:21.909Z</time></trkpt><trkpt lat="45.579575218389984" lon="10.755477880775778"><ele>208.0</ele><time>2026-04-06T16:24:23.909Z</time></trkpt><trkpt lat="45.57948460396394" lon="10.755553150610751"><ele>207.99999999999997</ele><time>2026-04-06T16:24:25.909Z</time></trkpt><trkpt lat="45.57940106334994" lon="10.755624454413264"><ele>208.0</ele><time>2026-04-06T16:24:27.909Z</time></trkpt><trkpt lat="45.579300875844744" lon="10.755708717109044"><ele>208.0</ele><time>2026-04-06T16:24:29.909Z</time></trkpt><trkpt lat="45.57923698307626" lon="10.755758726708132"><ele>208.0</ele><time>2026-04-06T16:24:31.909Z</time></trkpt><trkpt lat="45.579152351906146" lon="10.755825367160767"><ele>207.99999999999997</ele><time>2026-04-06T16:24:34.909Z</time></trkpt><trkpt lat="45.5790977399194" lon="10.755875733376838"><ele>208.0</ele><time>2026-04-06T16:24:35.909Z</time></trkpt><trkpt lat="45.57902132853937" lon="10.755932547544333"><ele>207.99999999999997</ele><time>2026-04-06T16:24:36.909Z</time></trkpt><trkpt lat="45.5789461605096" lon="10.755982103913533"><ele>208.0</ele><time>2026-04-06T16:24:37.909Z</time></trkpt><trkpt lat="45.57887660465544" lon="10.756023503865038"><ele>208.0</ele><time>2026-04-06T16:24:38.909Z</time></trkpt><trkpt lat="45.57880202945442" lon="10.756057852650294"><ele>208.0</ele><time>2026-04-06T16:24:39.909Z</time></trkpt><trkpt lat="45.57872544226688" lon="10.756104498669545"><ele>207.99999999999997</ele><time>2026-04-06T16:24:40.909Z</time></trkpt><trkpt lat="45.57866176893852" lon="10.756137515614721"><ele>208.0</ele><time>2026-04-06T16:24:41.909Z</time></trkpt><trkpt lat="45.57854433287101" lon="10.756193516788613"><ele>207.4</ele><time>2026-04-06T16:24:43.909Z</time></trkpt><trkpt lat="45.5784081976394" lon="10.756246816076255"><ele>206.8</ele><time>2026-04-06T16:24:45.909Z</time></trkpt><trkpt lat="45.578311541289644" lon="10.756276084280497"><ele>206.2</ele><time>2026-04-06T16:24:46.909Z</time></trkpt><trkpt lat="45.57822815387722" lon="10.756313805259358"><ele>205.6</ele><time>2026-04-06T16:24:47.909Z</time></trkpt><trkpt lat="45.57814937233792" lon="10.756334679675708"><ele>205.0</ele><time>2026-04-06T16:24:48.909Z</time></trkpt><trkpt lat="45.57807802135859" lon="10.756353010279646"><ele>205.0</ele><time>2026-04-06T16:24:49.909Z</time></trkpt><trkpt lat="45.577952364000346" lon="10.756394167996149"><ele>205.0</ele><time>2026-04-06T16:24:51.909Z</time></trkpt><trkpt lat="45.57788228509354" lon="10.756419044224643"><ele>205.0</ele><time>2026-04-06T16:24:52.909Z</time></trkpt><trkpt lat="45.57780715705314" lon="10.756446654997221"><ele>205.0</ele><time>2026-04-06T16:24:53.909Z</time></trkpt><trkpt lat="45.57770592214361" lon="10.756483070266231"><ele>205.0</ele><time>2026-04-06T16:24:54.909Z</time></trkpt><trkpt lat="45.577599393664386" lon="10.756528426243879"><ele>205.16666666666666</ele><time>2026-04-06T16:24:55.909Z</time></trkpt><trkpt lat="45.57750710490388" lon="10.756552722612652"><ele>205.33333333333331</ele><time>2026-04-06T16:24:56.909Z</time></trkpt><trkpt lat="45.57743289576274" lon="10.756572988134408"><ele>205.5</ele><time>2026-04-06T16:24:57.909Z</time></trkpt><trkpt lat="45.57736403157769" lon="10.756595541998735"><ele>205.66666666666669</ele><time>2026-04-06T16:24:58.909Z</time></trkpt><trkpt lat="45.57729364563803" lon="10.7566213196318"><ele>205.83333333333334</ele><time>2026-04-06T16:24:59.909Z</time></trkpt><trkpt lat="45.57722299162547" lon="10.756644127217653"><ele>206.0</ele><time>2026-04-06T16:25:00.909Z</time></trkpt><trkpt lat="45.577150319198886" lon="10.75666890638937"><ele>206.00000000000003</ele><time>2026-04-06T16:25:01.909Z</time></trkpt><trkpt lat="45.57707867120911" lon="10.756688259114894"><ele>206.0</ele><time>2026-04-06T16:25:02.909Z</time></trkpt><trkpt lat="45.57700510584087" lon="10.756715017635717"><ele>206.0</ele><time>2026-04-06T16:25:03.909Z</time></trkpt><trkpt lat="45.57692136484873" lon="10.756748651933627"><ele>206.0</ele><time>2026-04-06T16:25:04.909Z</time></trkpt><trkpt lat="45.57682445837155" lon="10.756781120449208"><ele>206.00000000000003</ele><time>2026-04-06T16:25:05.909Z</time></trkpt><trkpt lat="45.576735350088505" lon="10.756814431535727"><ele>206.0</ele><time>2026-04-06T16:25:06.909Z</time></trkpt><trkpt lat="45.57665083229166" lon="10.756842258553446"><ele>206.0</ele><time>2026-04-06T16:25:07.909Z</time></trkpt><trkpt lat="45.57656361811794" lon="10.75686619655319"><ele>206.0</ele><time>2026-04-06T16:25:08.909Z</time></trkpt><trkpt lat="45.576475806611946" lon="10.756904161113303"><ele>206.0</ele><time>2026-04-06T16:25:09.909Z</time></trkpt><trkpt lat="45.57637578537143" lon="10.756940324745557"><ele>206.0</ele><time>2026-04-06T16:25:10.909Z</time></trkpt><trkpt lat="45.57627087279237" lon="10.7569629773568"><ele>206.0</ele><time>2026-04-06T16:25:11.909Z</time></trkpt><trkpt lat="45.57618653452058" lon="10.75699705876951"><ele>206.4</ele><time>2026-04-06T16:25:12.909Z</time></trkpt><trkpt lat="45.576086496704356" lon="10.75702202962377"><ele>206.8</ele><time>2026-04-06T16:25:13.909Z</time></trkpt><trkpt lat="45.57599552065524" lon="10.7570690887586"><ele>207.20000000000002</ele><time>2026-04-06T16:25:14.909Z</time></trkpt><trkpt lat="45.575882757890355" lon="10.757097629764031"><ele>207.60000000000002</ele><time>2026-04-06T16:25:15.909Z</time></trkpt><trkpt lat="45.57576934369448" lon="10.75714109385217"><ele>208.0</ele><time>2026-04-06T16:25:16.909Z</time></trkpt><trkpt lat="45.575645929726605" lon="10.75718742708065"><ele>208.0</ele><time>2026-04-06T16:25:17.909Z</time></trkpt><trkpt lat="45.57552036985862" lon="10.757226596019533"><ele>208.0</ele><time>2026-04-06T16:25:18.909Z</time></trkpt><trkpt lat="45.57539777193477" lon="10.757265974508334"><ele>208.0</ele><time>2026-04-06T16:25:19.909Z</time></trkpt><trkpt lat="45.575283842595375" lon="10.75729223908244"><ele>208.0</ele><time>2026-04-06T16:25:20.909Z</time></trkpt><trkpt lat="45.57519175840274" lon="10.757327504441"><ele>207.83333333333331</ele><time>2026-04-06T16:25:21.909Z</time></trkpt><trkpt lat="45.57511283778585" lon="10.75735308818744"><ele>207.66666666666666</ele><time>2026-04-06T16:25:22.909Z</time></trkpt><trkpt lat="45.575048836719695" lon="10.75737119589906"><ele>207.5</ele><time>2026-04-06T16:25:23.909Z</time></trkpt><trkpt lat="45.574941165476346" lon="10.75740694160951"><ele>207.33333333333331</ele><time>2026-04-06T16:25:25.909Z</time></trkpt><trkpt lat="45.57483008958848" lon="10.75743251621239"><ele>207.16666666666666</ele><time>2026-04-06T16:25:27.909Z</time></trkpt><trkpt lat="45.57475538794021" lon="10.757461348944362"><ele>207.0</ele><time>2026-04-06T16:25:28.909Z</time></trkpt><trkpt lat="45.57467003441388" lon="10.757490963001587"><ele>207.0</ele><time>2026-04-06T16:25:29.909Z</time></trkpt><trkpt lat="45.574573353668065" lon="10.757522792148732"><ele>207.0</ele><time>2026-04-06T16:25:30.909Z</time></trkpt><trkpt lat="45.574454032343986" lon="10.757574174697067"><ele>207.0</ele><time>2026-04-06T16:25:31.909Z</time></trkpt><trkpt lat="45.57434725643761" lon="10.757607392290623"><ele>207.0</ele><time>2026-04-06T16:25:32.909Z</time></trkpt><trkpt lat="45.57425556019935" lon="10.75762425750758"><ele>207.0</ele><time>2026-04-06T16:25:33.909Z</time></trkpt><trkpt lat="45.57417735586758" lon="10.757648836076998"><ele>206.8</ele><time>2026-04-06T16:25:34.909Z</time></trkpt><trkpt lat="45.57408572657721" lon="10.757687152492883"><ele>206.6</ele><time>2026-04-06T16:25:35.909Z</time></trkpt><trkpt lat="45.573981911896894" lon="10.757717221988381"><ele>206.4</ele><time>2026-04-06T16:25:36.909Z</time></trkpt><trkpt lat="45.57388596012142" lon="10.757751206084356"><ele>206.20000000000002</ele><time>2026-04-06T16:25:37.909Z</time></trkpt><trkpt lat="45.573794042733184" lon="10.75778043298452"><ele>206.0</ele><time>2026-04-06T16:25:38.909Z</time></trkpt><trkpt lat="45.57368671640687" lon="10.757816117124902"><ele>206.0</ele><time>2026-04-06T16:25:39.909Z</time></trkpt><trkpt lat="45.57357309627377" lon="10.757849118196594"><ele>206.0</ele><time>2026-04-06T16:25:40.909Z</time></trkpt><trkpt lat="45.57345749665894" lon="10.757883884070312"><ele>206.0</ele><time>2026-04-06T16:25:41.909Z</time></trkpt><trkpt lat="45.57335052861446" lon="10.757912767384736"><ele>206.0</ele><time>2026-04-06T16:25:42.909Z</time></trkpt><trkpt lat="45.5732530399824" lon="10.757939168857112"><ele>206.0</ele><time>2026-04-06T16:25:43.909Z</time></trkpt><trkpt lat="45.573163055908125" lon="10.757961829013883"><ele>206.0</ele><time>2026-04-06T16:25:44.909Z</time></trkpt><trkpt lat="45.57307510270829" lon="10.757979234132078"><ele>206.0</ele><time>2026-04-06T16:25:45.909Z</time></trkpt><trkpt lat="45.572960538146475" lon="10.758028296464552"><ele>206.0</ele><time>2026-04-06T16:25:46.909Z</time></trkpt><trkpt lat="45.572851061536895" lon="10.758056962772999"><ele>206.0</ele><time>2026-04-06T16:25:47.909Z</time></trkpt><trkpt lat="45.57275206186932" lon="10.758082202246088"><ele>206.0</ele><time>2026-04-06T16:25:48.909Z</time></trkpt><trkpt lat="45.57266804523211" lon="10.758102942436404"><ele>206.16666666666669</ele><time>2026-04-06T16:25:49.909Z</time></trkpt><trkpt lat="45.57254920900483" lon="10.758137833666925"><ele>206.33333333333334</ele><time>2026-04-06T16:25:51.909Z</time></trkpt><trkpt lat="45.57247551891146" lon="10.758162095589702"><ele>206.5</ele><time>2026-04-06T16:25:52.909Z</time></trkpt><trkpt lat="45.57240342402521" lon="10.758184087682928"><ele>206.66666666666669</ele><time>2026-04-06T16:25:53.909Z</time></trkpt><trkpt lat="45.572338161505556" lon="10.758215568012824"><ele>206.83333333333334</ele><time>2026-04-06T16:25:54.909Z</time></trkpt><trkpt lat="45.572247168040775" lon="10.758259807680513"><ele>207.0</ele><time>2026-04-06T16:25:56.909Z</time></trkpt><trkpt lat="45.572166772843836" lon="10.758284198245008"><ele>207.0</ele><time>2026-04-06T16:25:58.909Z</time></trkpt><trkpt lat="45.57203734984595" lon="10.758289142360113"><ele>207.0</ele><time>2026-04-06T16:26:00.909Z</time></trkpt><trkpt lat="45.57193068501157" lon="10.758385875979853"><ele>207.0</ele><time>2026-04-06T16:26:02.909Z</time></trkpt><trkpt lat="45.57190428781703" lon="10.758470145592995"><ele>207.0</ele><time>2026-04-06T16:26:03.909Z</time></trkpt><trkpt lat="45.57196719362194" lon="10.758606947729414"><ele>207.0</ele><time>2026-04-06T16:26:05.909Z</time></trkpt><trkpt lat="45.5720423699787" lon="10.758665217810552"><ele>207.0</ele><time>2026-04-06T16:26:07.909Z</time></trkpt><trkpt lat="45.57211631917919" lon="10.758636093523748"><ele>207.0</ele><time>2026-04-06T16:26:09.909Z</time></trkpt><trkpt lat="45.57216501502816" lon="10.758567785459384"><ele>207.0</ele><time>2026-04-06T16:26:10.909Z</time></trkpt><trkpt lat="45.572191765510915" lon="10.758451036115957"><ele>207.0</ele><time>2026-04-06T16:26:11.909Z</time></trkpt><trkpt lat="45.57219216252169" lon="10.758359001009527"><ele>207.0</ele><time>2026-04-06T16:26:12.909Z</time></trkpt><trkpt lat="45.57211830881125" lon="10.758297433631936"><ele>207.0</ele><time>2026-04-06T16:26:13.909Z</time></trkpt><trkpt lat="45.571999403766505" lon="10.758261452475427"><ele>207.25</ele><time>2026-04-06T16:26:15.909Z</time></trkpt><trkpt lat="45.57191153583588" lon="10.758383070117457"><ele>207.5</ele><time>2026-04-06T16:26:16.909Z</time></trkpt><trkpt lat="45.571795873165726" lon="10.758521862725635"><ele>207.75</ele><time>2026-04-06T16:26:17.909Z</time></trkpt><trkpt lat="45.57167305968221" lon="10.758653020398937"><ele>208.0</ele><time>2026-04-06T16:26:18.909Z</time></trkpt><trkpt lat="45.57157276889854" lon="10.758719846898414"><ele>207.2</ele><time>2026-04-06T16:26:19.909Z</time></trkpt><trkpt lat="45.57149742483605" lon="10.758754127267824"><ele>206.4</ele><time>2026-04-06T16:26:20.909Z</time></trkpt><trkpt lat="45.57142940114605" lon="10.758804170690137"><ele>205.6</ele><time>2026-04-06T16:26:22.909Z</time></trkpt><trkpt lat="45.571597355259044" lon="10.758794161455075"><ele>204.79999999999998</ele><time>2026-04-06T16:27:00.909Z</time></trkpt><trkpt lat="45.571697297583604" lon="10.75870191815804"><ele>204.0</ele><time>2026-04-06T16:27:01.909Z</time></trkpt><trkpt lat="45.57178057741635" lon="10.758653472714734"><ele>204.0</ele><time>2026-04-06T16:27:02.909Z</time></trkpt><trkpt lat="45.57185723980668" lon="10.758625835539194"><ele>204.0</ele><time>2026-04-06T16:27:03.909Z</time></trkpt><trkpt lat="45.57192656593766" lon="10.758609818023652"><ele>204.0</ele><time>2026-04-06T16:27:04.909Z</time></trkpt><trkpt lat="45.57199493409724" lon="10.758627333650352"><ele>204.0</ele><time>2026-04-06T16:27:05.909Z</time></trkpt><trkpt lat="45.57206990371067" lon="10.758692602994993"><ele>204.0</ele><time>2026-04-06T16:27:06.909Z</time></trkpt><trkpt lat="45.57214966920024" lon="10.758732440836623"><ele>204.0</ele><time>2026-04-06T16:27:07.909Z</time></trkpt><trkpt lat="45.572177886083125" lon="10.758927569028078"><ele>204.0</ele><time>2026-04-06T16:27:08.909Z</time></trkpt><trkpt lat="45.57221798051327" lon="10.75910040610026"><ele>204.0</ele><time>2026-04-06T16:27:09.909Z</time></trkpt><trkpt lat="45.57224017528698" lon="10.759325658260943"><ele>204.0</ele><time>2026-04-06T16:27:10.909Z</time></trkpt><trkpt lat="45.57228141753708" lon="10.759582990027589"><ele>203.0</ele><time>2026-04-06T16:27:11.909Z</time></trkpt><trkpt lat="45.572331475659695" lon="10.759892198604058"><ele>202.0</ele><time>2026-04-06T16:27:12.909Z</time></trkpt><trkpt lat="45.57238454643082" lon="10.760226857098292"><ele>202.0</ele><time>2026-04-06T16:27:13.909Z</time></trkpt><trkpt lat="45.572437880782445" lon="10.760544076055048"><ele>202.0</ele><time>2026-04-06T16:27:14.909Z</time></trkpt><trkpt lat="45.572483239038775" lon="10.76082957854409"><ele>202.0</ele><time>2026-04-06T16:27:15.909Z</time></trkpt><trkpt lat="45.57253054049999" lon="10.761114696458733"><ele>202.0</ele><time>2026-04-06T16:27:16.909Z</time></trkpt><trkpt lat="45.572584451845" lon="10.761419084181204"><ele>202.0</ele><time>2026-04-06T16:27:17.909Z</time></trkpt><trkpt lat="45.572640013406854" lon="10.761737967371694"><ele>202.0</ele><time>2026-04-06T16:27:18.909Z</time></trkpt><trkpt lat="45.572689389720345" lon="10.762042288990454"><ele>202.0</ele><time>2026-04-06T16:27:19.909Z</time></trkpt><trkpt lat="45.572733495477735" lon="10.762323638659542"><ele>202.0</ele><time>2026-04-06T16:27:20.909Z</time></trkpt><trkpt lat="45.572775832708615" lon="10.762587581437804"><ele>202.0</ele><time>2026-04-06T16:27:21.909Z</time></trkpt><trkpt lat="45.57281997467066" lon="10.76285542476404"><ele>202.0</ele><time>2026-04-06T16:27:22.909Z</time></trkpt><trkpt lat="45.57285789865005" lon="10.763132196492917"><ele>202.0</ele><time>2026-04-06T16:27:23.909Z</time></trkpt><trkpt lat="45.5728947450666" lon="10.763406412335875"><ele>203.33333333333331</ele><time>2026-04-06T16:27:24.909Z</time></trkpt><trkpt lat="45.57293185163621" lon="10.763680418660877"><ele>204.66666666666669</ele><time>2026-04-06T16:27:25.909Z</time></trkpt><trkpt lat="45.57296677145838" lon="10.763953011916383"><ele>206.0</ele><time>2026-04-06T16:27:26.909Z</time></trkpt><trkpt lat="45.5729977783776" lon="10.764195907682163"><ele>206.33333333333334</ele><time>2026-04-06T16:27:27.909Z</time></trkpt><trkpt lat="45.573038237327445" lon="10.764405933622044"><ele>206.66666666666669</ele><time>2026-04-06T16:27:28.909Z</time></trkpt><trkpt lat="45.57309829296314" lon="10.764600802872671"><ele>207.0</ele><time>2026-04-06T16:27:29.909Z</time></trkpt><trkpt lat="45.573202423263204" lon="10.76480498740955"><ele>207.0</ele><time>2026-04-06T16:27:30.909Z</time></trkpt><trkpt lat="45.57333046364243" lon="10.765019792858979"><ele>207.0</ele><time>2026-04-06T16:27:31.909Z</time></trkpt><trkpt lat="45.57346374658191" lon="10.765236260480016"><ele>207.0</ele><time>2026-04-06T16:27:32.909Z</time></trkpt><trkpt lat="45.57355968793016" lon="10.765450627044817"><ele>206.5</ele><time>2026-04-06T16:27:33.909Z</time></trkpt><trkpt lat="45.57362547423293" lon="10.76564830714796"><ele>206.0</ele><time>2026-04-06T16:27:34.909Z</time></trkpt><trkpt lat="45.57365733876248" lon="10.765832587961684"><ele>205.5</ele><time>2026-04-06T16:27:35.909Z</time></trkpt><trkpt lat="45.57368099820739" lon="10.766019307773604"><ele>205.0</ele><time>2026-04-06T16:27:36.909Z</time></trkpt><trkpt lat="45.57368582846475" lon="10.766190870042376"><ele>205.0</ele><time>2026-04-06T16:27:37.909Z</time></trkpt><trkpt lat="45.573668229716525" lon="10.76635377364508"><ele>205.0</ele><time>2026-04-06T16:27:38.909Z</time></trkpt><trkpt lat="45.57365258935352" lon="10.766540538981928"><ele>205.0</ele><time>2026-04-06T16:27:39.909Z</time></trkpt><trkpt lat="45.573637537510756" lon="10.766754082702503"><ele>205.0</ele><time>2026-04-06T16:27:40.909Z</time></trkpt><trkpt lat="45.57362225183271" lon="10.76700202349699"><ele>204.66666666666666</ele><time>2026-04-06T16:27:41.909Z</time></trkpt><trkpt lat="45.573609791597505" lon="10.76727512733383"><ele>204.33333333333331</ele><time>2026-04-06T16:27:42.909Z</time></trkpt><trkpt lat="45.57360820254191" lon="10.767579593523415"><ele>204.0</ele><time>2026-04-06T16:27:43.909Z</time></trkpt><trkpt lat="45.57361246556521" lon="10.76789127759055"><ele>205.0</ele><time>2026-04-06T16:27:44.909Z</time></trkpt><trkpt lat="45.57362110497705" lon="10.76823112790958"><ele>206.0</ele><time>2026-04-06T16:27:45.909Z</time></trkpt><trkpt lat="45.57362945267479" lon="10.768548609955815"><ele>206.66666666666669</ele><time>2026-04-06T16:27:46.909Z</time></trkpt><trkpt lat="45.573633439804354" lon="10.768831292199676"><ele>207.33333333333331</ele><time>2026-04-06T16:27:47.909Z</time></trkpt><trkpt lat="45.57362607692522" lon="10.76909656334527"><ele>208.0</ele><time>2026-04-06T16:27:48.909Z</time></trkpt><trkpt lat="45.573614341059354" lon="10.769353260969368"><ele>208.33333333333331</ele><time>2026-04-06T16:27:49.909Z</time></trkpt><trkpt lat="45.57360377150016" lon="10.769613518798849"><ele>208.66666666666669</ele><time>2026-04-06T16:27:50.909Z</time></trkpt><trkpt lat="45.573603455660106" lon="10.769894293546765"><ele>209.0</ele><time>2026-04-06T16:27:51.909Z</time></trkpt><trkpt lat="45.5736069648735" lon="10.770176637250895"><ele>209.33333333333334</ele><time>2026-04-06T16:27:52.909Z</time></trkpt><trkpt lat="45.57360740729868" lon="10.77041931442084"><ele>209.66666666666669</ele><time>2026-04-06T16:27:53.909Z</time></trkpt><trkpt lat="45.57359174064946" lon="10.770679785665083"><ele>210.0</ele><time>2026-04-06T16:27:54.909Z</time></trkpt><trkpt lat="45.573555278842605" lon="10.77091263680613"><ele>210.33333333333331</ele><time>2026-04-06T16:27:55.909Z</time></trkpt><trkpt lat="45.57351471921003" lon="10.771133297859876"><ele>210.66666666666666</ele><time>2026-04-06T16:27:56.909Z</time></trkpt><trkpt lat="45.57347406906402" lon="10.771351901148432"><ele>211.0</ele><time>2026-04-06T16:27:57.909Z</time></trkpt><trkpt lat="45.573444744621845" lon="10.771569377052515"><ele>211.0</ele><time>2026-04-06T16:27:58.909Z</time></trkpt><trkpt lat="45.573421688146496" lon="10.771771718987502"><ele>211.0</ele><time>2026-04-06T16:27:59.909Z</time></trkpt><trkpt lat="45.57339694722188" lon="10.771961759493621"><ele>211.0</ele><time>2026-04-06T16:28:00.909Z</time></trkpt><trkpt lat="45.57337078617535" lon="10.772106270606079"><ele>211.0</ele><time>2026-04-06T16:28:01.909Z</time></trkpt><trkpt lat="45.57334816404681" lon="10.772212676171373"><ele>211.5</ele><time>2026-04-06T16:28:02.909Z</time></trkpt><trkpt lat="45.57333659300878" lon="10.772315879675782"><ele>212.0</ele><time>2026-04-06T16:28:03.909Z</time></trkpt><trkpt lat="45.57334055757896" lon="10.772683132507305"><ele>212.5</ele><time>2026-04-06T16:28:04.909Z</time></trkpt><trkpt lat="45.573333293666224" lon="10.77283691292393"><ele>213.0</ele><time>2026-04-06T16:28:05.909Z</time></trkpt><trkpt lat="45.57333011400353" lon="10.772970062434414"><ele>213.0</ele><time>2026-04-06T16:28:06.909Z</time></trkpt><trkpt lat="45.573325944141914" lon="10.773087449567637"><ele>213.0</ele><time>2026-04-06T16:28:07.909Z</time></trkpt><trkpt lat="45.57332583413224" lon="10.773177711997995"><ele>213.0</ele><time>2026-04-06T16:28:08.909Z</time></trkpt><trkpt lat="45.57332898667499" lon="10.773271014828296"><ele>213.0</ele><time>2026-04-06T16:28:10.909Z</time></trkpt><trkpt lat="45.57334881604207" lon="10.773379013369544"><ele>213.0</ele><time>2026-04-06T16:28:19.91Z</time></trkpt><trkpt lat="45.573334058548085" lon="10.773490414779378"><ele>213.0</ele><time>2026-04-06T16:28:21.91Z</time></trkpt><trkpt lat="45.57332722837647" lon="10.773625626599562"><ele>213.0</ele><time>2026-04-06T16:28:24.91Z</time></trkpt><trkpt lat="45.57332841805852" lon="10.77380954793594"><ele>213.0</ele><time>2026-04-06T16:28:26.91Z</time></trkpt><trkpt lat="45.573340161230824" lon="10.773958956247156"><ele>213.0</ele><time>2026-04-06T16:28:27.91Z</time></trkpt><trkpt lat="45.57335934049205" lon="10.774075675173112"><ele>213.0</ele><time>2026-04-06T16:28:28.91Z</time></trkpt><trkpt lat="45.573383707786455" lon="10.774228463987104"><ele>213.0</ele><time>2026-04-06T16:28:29.91Z</time></trkpt><trkpt lat="45.57340524679512" lon="10.774396593421706"><ele>214.0</ele><time>2026-04-06T16:28:30.91Z</time></trkpt><trkpt lat="45.57343432369255" lon="10.774595280479062"><ele>215.0</ele><time>2026-04-06T16:28:31.91Z</time></trkpt><trkpt lat="45.57347705281418" lon="10.774838365099377"><ele>216.0</ele><time>2026-04-06T16:28:32.91Z</time></trkpt><trkpt lat="45.57354895593677" lon="10.77513589877475"><ele>217.0</ele><time>2026-04-06T16:28:33.91Z</time></trkpt><trkpt lat="45.57363745841294" lon="10.775436921559248"><ele>218.0</ele><time>2026-04-06T16:28:34.91Z</time></trkpt><trkpt lat="45.57372088864178" lon="10.775685295760525"><ele>219.0</ele><time>2026-04-06T16:28:35.91Z</time></trkpt><trkpt lat="45.573798642234436" lon="10.775918687080479"><ele>219.33333333333331</ele><time>2026-04-06T16:28:36.91Z</time></trkpt><trkpt lat="45.57388256152615" lon="10.776168229127855"><ele>219.66666666666666</ele><time>2026-04-06T16:28:37.91Z</time></trkpt><trkpt lat="45.57397943832437" lon="10.776434950533185"><ele>220.0</ele><time>2026-04-06T16:28:38.91Z</time></trkpt><trkpt lat="45.5740974399189" lon="10.776732392862499"><ele>219.5</ele><time>2026-04-06T16:28:39.91Z</time></trkpt><trkpt lat="45.574235463547446" lon="10.77706203027206"><ele>219.0</ele><time>2026-04-06T16:28:40.91Z</time></trkpt><trkpt lat="45.57436584789834" lon="10.77736774163632"><ele>219.0</ele><time>2026-04-06T16:28:41.91Z</time></trkpt><trkpt lat="45.57447666992418" lon="10.777635437203623"><ele>219.0</ele><time>2026-04-06T16:28:42.91Z</time></trkpt><trkpt lat="45.57457637087917" lon="10.777880216880583"><ele>219.0</ele><time>2026-04-06T16:28:43.91Z</time></trkpt><trkpt lat="45.57466803035773" lon="10.778098992961583"><ele>220.0</ele><time>2026-04-06T16:28:44.91Z</time></trkpt><trkpt lat="45.574759210787924" lon="10.7782991739232"><ele>221.0</ele><time>2026-04-06T16:28:45.91Z</time></trkpt><trkpt lat="45.57485023731119" lon="10.778482802574562"><ele>222.0</ele><time>2026-04-06T16:28:46.91Z</time></trkpt><trkpt lat="45.57494611166818" lon="10.778654885253365"><ele>225.66666666666669</ele><time>2026-04-06T16:28:47.91Z</time></trkpt><trkpt lat="45.575045644903646" lon="10.778822883967528"><ele>229.33333333333334</ele><time>2026-04-06T16:28:48.91Z</time></trkpt><trkpt lat="45.5751478365146" lon="10.778996875425904"><ele>233.0</ele><time>2026-04-06T16:28:49.91Z</time></trkpt><trkpt lat="45.57526329959665" lon="10.779170220392976"><ele>232.66666666666669</ele><time>2026-04-06T16:28:50.91Z</time></trkpt><trkpt lat="45.57538354609854" lon="10.779337221168717"><ele>232.33333333333331</ele><time>2026-04-06T16:28:51.91Z</time></trkpt><trkpt lat="45.575486215311564" lon="10.779522257356774"><ele>232.0</ele><time>2026-04-06T16:28:52.91Z</time></trkpt><trkpt lat="45.57556433714308" lon="10.779715036778704"><ele>232.0</ele><time>2026-04-06T16:28:53.91Z</time></trkpt><trkpt lat="45.57562574401217" lon="10.779898266087653"><ele>232.0</ele><time>2026-04-06T16:28:54.91Z</time></trkpt><trkpt lat="45.575663360943764" lon="10.78007615108648"><ele>232.0</ele><time>2026-04-06T16:28:55.91Z</time></trkpt><trkpt lat="45.57568154349719" lon="10.780273568713813"><ele>232.0</ele><time>2026-04-06T16:28:56.91Z</time></trkpt><trkpt lat="45.57568222672169" lon="10.780493251368174"><ele>235.0</ele><time>2026-04-06T16:28:57.91Z</time></trkpt><trkpt lat="45.57565463341127" lon="10.780722081140825"><ele>238.0</ele><time>2026-04-06T16:28:58.91Z</time></trkpt><trkpt lat="45.57560776080207" lon="10.780948458551736"><ele>241.0</ele><time>2026-04-06T16:28:59.91Z</time></trkpt><trkpt lat="45.57553952682503" lon="10.781179072117771"><ele>242.0</ele><time>2026-04-06T16:29:00.91Z</time></trkpt><trkpt lat="45.57543618923163" lon="10.781384795017281"><ele>243.0</ele><time>2026-04-06T16:29:01.91Z</time></trkpt><trkpt lat="45.57533749647166" lon="10.781552065020843"><ele>244.0</ele><time>2026-04-06T16:29:02.91Z</time></trkpt><trkpt lat="45.57526112540401" lon="10.781734479514867"><ele>238.33333333333331</ele><time>2026-04-06T16:29:03.91Z</time></trkpt><trkpt lat="45.575229690412584" lon="10.78194983304142"><ele>232.66666666666669</ele><time>2026-04-06T16:29:04.91Z</time></trkpt><trkpt lat="45.57522324737321" lon="10.78219560156753"><ele>227.0</ele><time>2026-04-06T16:29:05.91Z</time></trkpt><trkpt lat="45.57524642473837" lon="10.782469735171794"><ele>225.66666666666669</ele><time>2026-04-06T16:29:06.91Z</time></trkpt><trkpt lat="45.575255791976446" lon="10.782751958002974"><ele>224.33333333333331</ele><time>2026-04-06T16:29:07.91Z</time></trkpt><trkpt lat="45.575264661250884" lon="10.783001825770446"><ele>223.0</ele><time>2026-04-06T16:29:08.91Z</time></trkpt><trkpt lat="45.575275430288656" lon="10.78324301178297"><ele>223.0</ele><time>2026-04-06T16:29:09.91Z</time></trkpt><trkpt lat="45.57528892937412" lon="10.78347343279525"><ele>223.0</ele><time>2026-04-06T16:29:10.91Z</time></trkpt><trkpt lat="45.57531540786808" lon="10.783715474474645"><ele>223.0</ele><time>2026-04-06T16:29:11.91Z</time></trkpt><trkpt lat="45.5753563870885" lon="10.783957222516438"><ele>225.66666666666666</ele><time>2026-04-06T16:29:12.91Z</time></trkpt><trkpt lat="45.57540749481254" lon="10.784185823086787"><ele>228.33333333333331</ele><time>2026-04-06T16:29:13.91Z</time></trkpt><trkpt lat="45.57545352373517" lon="10.784425755857793"><ele>231.0</ele><time>2026-04-06T16:29:14.91Z</time></trkpt><trkpt lat="45.57549159931443" lon="10.78467280992506"><ele>231.0</ele><time>2026-04-06T16:29:15.91Z</time></trkpt><trkpt lat="45.575510300715976" lon="10.784914239000416"><ele>231.0</ele><time>2026-04-06T16:29:16.91Z</time></trkpt><trkpt lat="45.575542330768755" lon="10.785159525475212"><ele>231.0</ele><time>2026-04-06T16:29:17.91Z</time></trkpt><trkpt lat="45.57557423713678" lon="10.78539550023958"><ele>229.25</ele><time>2026-04-06T16:29:18.91Z</time></trkpt><trkpt lat="45.57560426446725" lon="10.785624184376791"><ele>227.5</ele><time>2026-04-06T16:29:19.91Z</time></trkpt><trkpt lat="45.575611981530024" lon="10.78582189356837"><ele>225.75</ele><time>2026-04-06T16:29:20.91Z</time></trkpt><trkpt lat="45.57561894369045" lon="10.786003173244524"><ele>224.0</ele><time>2026-04-06T16:29:21.91Z</time></trkpt><trkpt lat="45.575616590896054" lon="10.786176855026765"><ele>222.75</ele><time>2026-04-06T16:29:22.91Z</time></trkpt><trkpt lat="45.575606826061616" lon="10.786356740550886"><ele>221.5</ele><time>2026-04-06T16:29:23.91Z</time></trkpt><trkpt lat="45.57558974654869" lon="10.78656037053569"><ele>220.25</ele><time>2026-04-06T16:29:24.91Z</time></trkpt><trkpt lat="45.575559758501456" lon="10.786786457317625"><ele>219.0</ele><time>2026-04-06T16:29:25.91Z</time></trkpt><trkpt lat="45.57552488157127" lon="10.787025282644834"><ele>219.0</ele><time>2026-04-06T16:29:26.91Z</time></trkpt><trkpt lat="45.575490685614454" lon="10.787264768112095"><ele>219.0</ele><time>2026-04-06T16:29:27.91Z</time></trkpt><trkpt lat="45.57546213966209" lon="10.787488469237447"><ele>219.0</ele><time>2026-04-06T16:29:28.91Z</time></trkpt><trkpt lat="45.575437317682855" lon="10.7877089296167"><ele>219.0</ele><time>2026-04-06T16:29:29.91Z</time></trkpt><trkpt lat="45.57542324595285" lon="10.787933155850169"><ele>219.0</ele><time>2026-04-06T16:29:30.91Z</time></trkpt><trkpt lat="45.57541667186783" lon="10.788160421540098"><ele>219.0</ele><time>2026-04-06T16:29:31.91Z</time></trkpt><trkpt lat="45.57540645608425" lon="10.788382206491402"><ele>219.33333333333331</ele><time>2026-04-06T16:29:32.91Z</time></trkpt><trkpt lat="45.575399523106825" lon="10.788606462183566"><ele>219.66666666666666</ele><time>2026-04-06T16:29:33.91Z</time></trkpt><trkpt lat="45.575399339679" lon="10.788827060199797"><ele>220.0</ele><time>2026-04-06T16:29:34.91Z</time></trkpt><trkpt lat="45.57541776753639" lon="10.789036655645525"><ele>220.0</ele><time>2026-04-06T16:29:35.91Z</time></trkpt><trkpt lat="45.57545723136737" lon="10.789242539886502"><ele>220.0</ele><time>2026-04-06T16:29:36.91Z</time></trkpt><trkpt lat="45.575522703450694" lon="10.789457116143376"><ele>220.0</ele><time>2026-04-06T16:29:37.91Z</time></trkpt><trkpt lat="45.57561735546035" lon="10.7897002087157"><ele>216.33333333333331</ele><time>2026-04-06T16:29:38.91Z</time></trkpt><trkpt lat="45.57573232523058" lon="10.789971920475223"><ele>212.66666666666669</ele><time>2026-04-06T16:29:39.91Z</time></trkpt><trkpt lat="45.5758446705732" lon="10.79023145602777"><ele>209.0</ele><time>2026-04-06T16:29:40.91Z</time></trkpt><trkpt lat="45.57594522001018" lon="10.790476167792738"><ele>207.66666666666669</ele><time>2026-04-06T16:29:41.91Z</time></trkpt><trkpt lat="45.57605367942916" lon="10.790703286060982"><ele>206.33333333333331</ele><time>2026-04-06T16:29:42.91Z</time></trkpt><trkpt lat="45.57616717667018" lon="10.790898520970782"><ele>205.0</ele><time>2026-04-06T16:29:43.91Z</time></trkpt><trkpt lat="45.576280855247276" lon="10.791064252326834"><ele>204.0</ele><time>2026-04-06T16:29:44.91Z</time></trkpt><trkpt lat="45.57638237707357" lon="10.791226060460497"><ele>203.0</ele><time>2026-04-06T16:29:45.91Z</time></trkpt><trkpt lat="45.57646567019275" lon="10.791414408640724"><ele>202.0</ele><time>2026-04-06T16:29:46.91Z</time></trkpt><trkpt lat="45.576537155455746" lon="10.791646946710708"><ele>202.0</ele><time>2026-04-06T16:29:47.91Z</time></trkpt><trkpt lat="45.57657843295511" lon="10.791885627352674"><ele>202.0</ele><time>2026-04-06T16:29:48.91Z</time></trkpt><trkpt lat="45.57658810961695" lon="10.792158145276762"><ele>202.0</ele><time>2026-04-06T16:29:49.91Z</time></trkpt><trkpt lat="45.57656724447409" lon="10.792462621124816"><ele>202.0</ele><time>2026-04-06T16:29:50.91Z</time></trkpt><trkpt lat="45.57653876736483" lon="10.792785112544744"><ele>202.0</ele><time>2026-04-06T16:29:51.91Z</time></trkpt><trkpt lat="45.57652060527011" lon="10.793139906865873"><ele>202.0</ele><time>2026-04-06T16:29:52.91Z</time></trkpt><trkpt lat="45.57651489516798" lon="10.793455427381517"><ele>202.0</ele><time>2026-04-06T16:29:53.91Z</time></trkpt><trkpt lat="45.57650604840019" lon="10.793746486957454"><ele>202.0</ele><time>2026-04-06T16:29:54.91Z</time></trkpt><trkpt lat="45.57649456757708" lon="10.794010450796655"><ele>202.0</ele><time>2026-04-06T16:29:55.91Z</time></trkpt><trkpt lat="45.57648788249966" lon="10.794260689196149"><ele>202.0</ele><time>2026-04-06T16:29:56.91Z</time></trkpt><trkpt lat="45.576483907997655" lon="10.794494834855804"><ele>202.0</ele><time>2026-04-06T16:29:57.91Z</time></trkpt><trkpt lat="45.576481459998796" lon="10.794721310105546"><ele>202.0</ele><time>2026-04-06T16:29:58.91Z</time></trkpt><trkpt lat="45.576476942254686" lon="10.794942290897268"><ele>202.0</ele><time>2026-04-06T16:29:59.91Z</time></trkpt><trkpt lat="45.576476736149694" lon="10.795169857396898"><ele>202.0</ele><time>2026-04-06T16:30:00.91Z</time></trkpt><trkpt lat="45.57646500355686" lon="10.795404193598527"><ele>201.0</ele><time>2026-04-06T16:30:01.91Z</time></trkpt><trkpt lat="45.576410486844594" lon="10.795645229105318"><ele>200.0</ele><time>2026-04-06T16:30:02.91Z</time></trkpt><trkpt lat="45.57634316246215" lon="10.795891478819078"><ele>199.0</ele><time>2026-04-06T16:30:03.91Z</time></trkpt><trkpt lat="45.57627349657567" lon="10.796127908821903"><ele>199.0</ele><time>2026-04-06T16:30:04.91Z</time></trkpt><trkpt lat="45.5762099971459" lon="10.796347888267968"><ele>199.0</ele><time>2026-04-06T16:30:05.91Z</time></trkpt><trkpt lat="45.57614958395729" lon="10.796561514274122"><ele>199.0</ele><time>2026-04-06T16:30:06.91Z</time></trkpt><trkpt lat="45.57609007335172" lon="10.796777741423984"><ele>198.0</ele><time>2026-04-06T16:30:07.91Z</time></trkpt><trkpt lat="45.57603008569462" lon="10.796996355062063"><ele>197.0</ele><time>2026-04-06T16:30:08.91Z</time></trkpt><trkpt lat="45.575967594184256" lon="10.797216716342824"><ele>196.0</ele><time>2026-04-06T16:30:09.91Z</time></trkpt><trkpt lat="45.5759140019007" lon="10.797435326693533"><ele>196.0</ele><time>2026-04-06T16:30:10.91Z</time></trkpt><trkpt lat="45.57585619225268" lon="10.797652159414442"><ele>196.0</ele><time>2026-04-06T16:30:11.91Z</time></trkpt><trkpt lat="45.57579286817508" lon="10.797868456952996"><ele>196.0</ele><time>2026-04-06T16:30:12.91Z</time></trkpt><trkpt lat="45.57572800471895" lon="10.798093514842432"><ele>196.33333333333331</ele><time>2026-04-06T16:30:13.91Z</time></trkpt><trkpt lat="45.57566971625745" lon="10.798334596738018"><ele>196.66666666666669</ele><time>2026-04-06T16:30:14.91Z</time></trkpt><trkpt lat="45.57563436328107" lon="10.798583767968198"><ele>197.0</ele><time>2026-04-06T16:30:15.91Z</time></trkpt><trkpt lat="45.57561812736681" lon="10.798842836866893"><ele>197.66666666666669</ele><time>2026-04-06T16:30:16.91Z</time></trkpt><trkpt lat="45.575617599768535" lon="10.799106489076115"><ele>198.33333333333331</ele><time>2026-04-06T16:30:17.91Z</time></trkpt><trkpt lat="45.57562995487019" lon="10.799354082633085"><ele>199.0</ele><time>2026-04-06T16:30:18.91Z</time></trkpt><trkpt lat="45.575641426505655" lon="10.799593222517032"><ele>199.66666666666666</ele><time>2026-04-06T16:30:19.91Z</time></trkpt><trkpt lat="45.575633333486266" lon="10.799826921370391"><ele>200.33333333333331</ele><time>2026-04-06T16:30:20.91Z</time></trkpt><trkpt lat="45.57560498464279" lon="10.800056237385162"><ele>201.0</ele><time>2026-04-06T16:30:21.91Z</time></trkpt><trkpt lat="45.57556619624461" lon="10.800266119262204"><ele>201.25</ele><time>2026-04-06T16:30:22.91Z</time></trkpt><trkpt lat="45.57551979420735" lon="10.800461333660321"><ele>201.5</ele><time>2026-04-06T16:30:23.91Z</time></trkpt><trkpt lat="45.575470832207934" lon="10.800656268863259"><ele>201.75</ele><time>2026-04-06T16:30:24.91Z</time></trkpt><trkpt lat="45.57540843843692" lon="10.800847972788857"><ele>202.0</ele><time>2026-04-06T16:30:25.91Z</time></trkpt><trkpt lat="45.57533180639562" lon="10.801037685027639"><ele>201.0</ele><time>2026-04-06T16:30:26.91Z</time></trkpt><trkpt lat="45.57524967601852" lon="10.801231947497996"><ele>200.0</ele><time>2026-04-06T16:30:27.91Z</time></trkpt><trkpt lat="45.57517067263012" lon="10.80144225990195"><ele>199.0</ele><time>2026-04-06T16:30:28.91Z</time></trkpt><trkpt lat="45.57510348038649" lon="10.801647390592306"><ele>199.0</ele><time>2026-04-06T16:30:29.91Z</time></trkpt><trkpt lat="45.57503052846341" lon="10.801840236035126"><ele>199.0</ele><time>2026-04-06T16:30:30.91Z</time></trkpt><trkpt lat="45.574963424846885" lon="10.802027362472758"><ele>199.0</ele><time>2026-04-06T16:30:31.91Z</time></trkpt><trkpt lat="45.574901562930336" lon="10.802216421824673"><ele>199.0</ele><time>2026-04-06T16:30:32.91Z</time></trkpt><trkpt lat="45.57483219332063" lon="10.802400305296295"><ele>199.0</ele><time>2026-04-06T16:30:33.91Z</time></trkpt><trkpt lat="45.57476476752062" lon="10.802582594035604"><ele>199.0</ele><time>2026-04-06T16:30:34.91Z</time></trkpt><trkpt lat="45.57469542554414" lon="10.802757805742338"><ele>199.0</ele><time>2026-04-06T16:30:35.91Z</time></trkpt><trkpt lat="45.5746411983456" lon="10.802919245783052"><ele>199.0</ele><time>2026-04-06T16:30:36.91Z</time></trkpt><trkpt lat="45.574586871608865" lon="10.803066520505643"><ele>198.6</ele><time>2026-04-06T16:30:37.91Z</time></trkpt><trkpt lat="45.57452741890698" lon="10.803226415548721"><ele>198.2</ele><time>2026-04-06T16:30:38.91Z</time></trkpt><trkpt lat="45.57447228441325" lon="10.803354266636717"><ele>197.79999999999998</ele><time>2026-04-06T16:30:39.91Z</time></trkpt><trkpt lat="45.5744188100272" lon="10.803488674693082"><ele>197.39999999999998</ele><time>2026-04-06T16:30:40.91Z</time></trkpt><trkpt lat="45.57436023567462" lon="10.803591475154981"><ele>197.0</ele><time>2026-04-06T16:30:41.91Z</time></trkpt><trkpt lat="45.574322240837695" lon="10.803680755380858"><ele>196.39999999999998</ele><time>2026-04-06T16:30:42.91Z</time></trkpt><trkpt lat="45.57426867419316" lon="10.803729846737749"><ele>195.79999999999998</ele><time>2026-04-06T16:30:43.91Z</time></trkpt><trkpt lat="45.5741834274715" lon="10.803795830643736"><ele>195.2</ele><time>2026-04-06T16:30:45.91Z</time></trkpt><trkpt lat="45.574098539929906" lon="10.80380846337891"><ele>194.6</ele><time>2026-04-06T16:30:48.91Z</time></trkpt><trkpt lat="45.57398733350501" lon="10.803939197235715"><ele>194.0</ele><time>2026-04-06T16:30:50.91Z</time></trkpt><trkpt lat="45.57391694366076" lon="10.804029281506951"><ele>194.0</ele><time>2026-04-06T16:30:51.91Z</time></trkpt><trkpt lat="45.573785216117244" lon="10.80402136436765"><ele>194.0</ele><time>2026-04-06T16:30:52.91Z</time></trkpt><trkpt lat="45.57366788436804" lon="10.804009319961699"><ele>194.0</ele><time>2026-04-06T16:30:53.91Z</time></trkpt><trkpt lat="45.57355234190031" lon="10.803975709275619"><ele>194.0</ele><time>2026-04-06T16:30:54.91Z</time></trkpt><trkpt lat="45.57342643496511" lon="10.803922855591983"><ele>193.75</ele><time>2026-04-06T16:30:55.91Z</time></trkpt><trkpt lat="45.5732887322167" lon="10.803886752729856"><ele>193.5</ele><time>2026-04-06T16:30:56.91Z</time></trkpt><trkpt lat="45.573162874952736" lon="10.803823509231048"><ele>193.25</ele><time>2026-04-06T16:30:57.91Z</time></trkpt><trkpt lat="45.573035204794735" lon="10.803746570162371"><ele>193.0</ele><time>2026-04-06T16:30:58.91Z</time></trkpt><trkpt lat="45.57287923730972" lon="10.803675445727276"><ele>192.66666666666666</ele><time>2026-04-06T16:30:59.91Z</time></trkpt><trkpt lat="45.57268826780833" lon="10.803588349596431"><ele>192.33333333333331</ele><time>2026-04-06T16:31:00.91Z</time></trkpt><trkpt lat="45.57246199828782" lon="10.803484819772233"><ele>192.0</ele><time>2026-04-06T16:31:01.91Z</time></trkpt><trkpt lat="45.572202928383454" lon="10.803366279932535"><ele>193.0</ele><time>2026-04-06T16:31:02.91Z</time></trkpt><trkpt lat="45.571949736114554" lon="10.803250673404618"><ele>194.0</ele><time>2026-04-06T16:31:03.91Z</time></trkpt><trkpt lat="45.57172873063836" lon="10.803149997150998"><ele>194.0</ele><time>2026-04-06T16:31:04.91Z</time></trkpt><trkpt lat="45.57149391041804" lon="10.803067013858806"><ele>194.0</ele><time>2026-04-06T16:31:05.91Z</time></trkpt><trkpt lat="45.571273467443575" lon="10.802969651441165"><ele>193.33333333333334</ele><time>2026-04-06T16:31:06.91Z</time></trkpt><trkpt lat="45.571062866364485" lon="10.802875224733947"><ele>192.66666666666669</ele><time>2026-04-06T16:31:07.91Z</time></trkpt><trkpt lat="45.570852455572094" lon="10.802791950004792"><ele>192.0</ele><time>2026-04-06T16:31:08.91Z</time></trkpt><trkpt lat="45.5706468513014" lon="10.802690116447138"><ele>192.0</ele><time>2026-04-06T16:31:09.91Z</time></trkpt><trkpt lat="45.570452870317176" lon="10.802614747842453"><ele>192.0</ele><time>2026-04-06T16:31:10.91Z</time></trkpt><trkpt lat="45.57027167449857" lon="10.80254522835122"><ele>192.0</ele><time>2026-04-06T16:31:11.91Z</time></trkpt><trkpt lat="45.57010319837385" lon="10.80248058903375"><ele>192.0</ele><time>2026-04-06T16:31:12.91Z</time></trkpt><trkpt lat="45.56993968208744" lon="10.802417852652232"><ele>192.0</ele><time>2026-04-06T16:31:13.91Z</time></trkpt><trkpt lat="45.569780610035295" lon="10.802379354784641"><ele>192.0</ele><time>2026-04-06T16:31:14.91Z</time></trkpt><trkpt lat="45.56963226490946" lon="10.80231352826884"><ele>192.66666666666669</ele><time>2026-04-06T16:31:15.91Z</time></trkpt><trkpt lat="45.56948338484862" lon="10.8022470481372"><ele>193.33333333333334</ele><time>2026-04-06T16:31:16.91Z</time></trkpt><trkpt lat="45.56932882251088" lon="10.802180993648642"><ele>194.0</ele><time>2026-04-06T16:31:17.91Z</time></trkpt><trkpt lat="45.56918189057377" lon="10.80213816279609"><ele>194.0</ele><time>2026-04-06T16:31:18.91Z</time></trkpt><trkpt lat="45.56902588029595" lon="10.802103572214186"><ele>194.0</ele><time>2026-04-06T16:31:19.91Z</time></trkpt><trkpt lat="45.56884885201693" lon="10.802092920369834"><ele>194.0</ele><time>2026-04-06T16:31:20.91Z</time></trkpt><trkpt lat="45.56865024751949" lon="10.802100755437486"><ele>192.5</ele><time>2026-04-06T16:31:21.91Z</time></trkpt><trkpt lat="45.56842098478659" lon="10.802123134021672"><ele>191.0</ele><time>2026-04-06T16:31:22.91Z</time></trkpt><trkpt lat="45.56816307932302" lon="10.80215762749975"><ele>191.0</ele><time>2026-04-06T16:31:23.91Z</time></trkpt><trkpt lat="45.56788718672822" lon="10.802198297838677"><ele>191.0</ele><time>2026-04-06T16:31:24.91Z</time></trkpt><trkpt lat="45.56761666498349" lon="10.80221765405427"><ele>191.5</ele><time>2026-04-06T16:31:25.91Z</time></trkpt><trkpt lat="45.56737184608754" lon="10.802219356153516"><ele>192.0</ele><time>2026-04-06T16:31:26.91Z</time></trkpt><trkpt lat="45.56714438044642" lon="10.80220506244942"><ele>191.33333333333334</ele><time>2026-04-06T16:31:27.91Z</time></trkpt><trkpt lat="45.566936946934014" lon="10.802196867209407"><ele>190.66666666666669</ele><time>2026-04-06T16:31:28.91Z</time></trkpt><trkpt lat="45.566742771209015" lon="10.802166488416713"><ele>190.0</ele><time>2026-04-06T16:31:29.91Z</time></trkpt><trkpt lat="45.56656056033387" lon="10.802134909815944"><ele>190.0</ele><time>2026-04-06T16:31:30.91Z</time></trkpt><trkpt lat="45.5663915678722" lon="10.802099744545195"><ele>190.0</ele><time>2026-04-06T16:31:31.91Z</time></trkpt><trkpt lat="45.56623266988097" lon="10.802064998217523"><ele>190.0</ele><time>2026-04-06T16:31:32.91Z</time></trkpt><trkpt lat="45.56608792155897" lon="10.802027204734019"><ele>190.25</ele><time>2026-04-06T16:31:33.91Z</time></trkpt><trkpt lat="45.56595142046491" lon="10.801993854774263"><ele>190.5</ele><time>2026-04-06T16:31:34.91Z</time></trkpt><trkpt lat="45.565825671008376" lon="10.801960325331319"><ele>190.75</ele><time>2026-04-06T16:31:35.91Z</time></trkpt><trkpt lat="45.56570579172383" lon="10.801930187170802"><ele>191.0</ele><time>2026-04-06T16:31:36.91Z</time></trkpt><trkpt lat="45.565596274430945" lon="10.801899474616167"><ele>191.0</ele><time>2026-04-06T16:31:37.91Z</time></trkpt><trkpt lat="45.565474529631196" lon="10.801873723190418"><ele>191.0</ele><time>2026-04-06T16:31:38.91Z</time></trkpt><trkpt lat="45.56533518336243" lon="10.801843537774348"><ele>191.0</ele><time>2026-04-06T16:31:39.91Z</time></trkpt><trkpt lat="45.56520577225983" lon="10.801805696709351"><ele>191.0</ele><time>2026-04-06T16:31:40.91Z</time></trkpt><trkpt lat="45.5650712608949" lon="10.80177380030615"><ele>191.0</ele><time>2026-04-06T16:31:41.91Z</time></trkpt><trkpt lat="45.564947999789396" lon="10.80170218134106"><ele>191.0</ele><time>2026-04-06T16:31:42.91Z</time></trkpt><trkpt lat="45.564822701668575" lon="10.801646082129375"><ele>191.0</ele><time>2026-04-06T16:31:43.91Z</time></trkpt><trkpt lat="45.56468524553528" lon="10.801572544583227"><ele>191.0</ele><time>2026-04-06T16:31:44.91Z</time></trkpt><trkpt lat="45.564525698293195" lon="10.80147452495875"><ele>190.33333333333331</ele><time>2026-04-06T16:31:45.91Z</time></trkpt><trkpt lat="45.564361407362355" lon="10.801353087472588"><ele>189.66666666666666</ele><time>2026-04-06T16:31:46.91Z</time></trkpt><trkpt lat="45.56422549222369" lon="10.801241513007557"><ele>189.0</ele><time>2026-04-06T16:31:47.91Z</time></trkpt><trkpt lat="45.564097117259514" lon="10.801135027163472"><ele>189.0</ele><time>2026-04-06T16:31:48.91Z</time></trkpt><trkpt lat="45.563962819641056" lon="10.801020729906616"><ele>189.0</ele><time>2026-04-06T16:31:49.91Z</time></trkpt><trkpt lat="45.56383232394684" lon="10.800908500438272"><ele>189.0</ele><time>2026-04-06T16:31:50.91Z</time></trkpt><trkpt lat="45.56370919641688" lon="10.800805505965615"><ele>189.5</ele><time>2026-04-06T16:31:51.91Z</time></trkpt><trkpt lat="45.56358829047012" lon="10.800707328449331"><ele>190.0</ele><time>2026-04-06T16:31:52.91Z</time></trkpt><trkpt lat="45.56346305812878" lon="10.800613516416677"><ele>190.5</ele><time>2026-04-06T16:31:53.91Z</time></trkpt><trkpt lat="45.56333410758298" lon="10.800550189200415"><ele>191.0</ele><time>2026-04-06T16:31:54.91Z</time></trkpt><trkpt lat="45.56321862224817" lon="10.800479822974866"><ele>191.0</ele><time>2026-04-06T16:31:55.91Z</time></trkpt><trkpt lat="45.56310288475948" lon="10.800428080312123"><ele>191.0</ele><time>2026-04-06T16:31:56.91Z</time></trkpt><trkpt lat="45.56298137258628" lon="10.80037540880269"><ele>191.0</ele><time>2026-04-06T16:31:57.91Z</time></trkpt><trkpt lat="45.56283023451081" lon="10.800322090895277"><ele>191.0</ele><time>2026-04-06T16:31:58.91Z</time></trkpt><trkpt lat="45.56265213083585" lon="10.800239343528975"><ele>189.5</ele><time>2026-04-06T16:31:59.91Z</time></trkpt><trkpt lat="45.562443081544124" lon="10.800180720039572"><ele>188.0</ele><time>2026-04-06T16:32:00.91Z</time></trkpt><trkpt lat="45.56220842673565" lon="10.800129868876603"><ele>187.0</ele><time>2026-04-06T16:32:01.91Z</time></trkpt><trkpt lat="45.56195468011972" lon="10.80009086819033"><ele>186.0</ele><time>2026-04-06T16:32:02.91Z</time></trkpt><trkpt lat="45.56167993062866" lon="10.800059225387479"><ele>186.0</ele><time>2026-04-06T16:32:03.91Z</time></trkpt><trkpt lat="45.561403195389055" lon="10.800027353881974"><ele>186.0</ele><time>2026-04-06T16:32:04.91Z</time></trkpt><trkpt lat="45.561158432154386" lon="10.799999164580324"><ele>185.66666666666666</ele><time>2026-04-06T16:32:05.91Z</time></trkpt><trkpt lat="45.560929538761535" lon="10.799972803043891"><ele>185.33333333333331</ele><time>2026-04-06T16:32:06.91Z</time></trkpt><trkpt lat="45.56071470283068" lon="10.799948998430422"><ele>185.0</ele><time>2026-04-06T16:32:07.91Z</time></trkpt><trkpt lat="45.56051232050819" lon="10.799926416029654"><ele>185.33333333333331</ele><time>2026-04-06T16:32:08.91Z</time></trkpt><trkpt lat="45.560321291315674" lon="10.799904571939052"><ele>185.66666666666666</ele><time>2026-04-06T16:32:09.91Z</time></trkpt><trkpt lat="45.56013712929245" lon="10.799882332449481"><ele>186.0</ele><time>2026-04-06T16:32:10.91Z</time></trkpt><trkpt lat="45.5599652366086" lon="10.799861321613623"><ele>186.0</ele><time>2026-04-06T16:32:11.91Z</time></trkpt><trkpt lat="45.559801796149756" lon="10.79986521949288"><ele>186.0</ele><time>2026-04-06T16:32:12.91Z</time></trkpt><trkpt lat="45.559645791803305" lon="10.799843008648757"><ele>186.0</ele><time>2026-04-06T16:32:13.91Z</time></trkpt><trkpt lat="45.55949981116156" lon="10.799839900179949"><ele>185.75</ele><time>2026-04-06T16:32:14.91Z</time></trkpt><trkpt lat="45.55935943480281" lon="10.799867017626612"><ele>185.5</ele><time>2026-04-06T16:32:15.91Z</time></trkpt><trkpt lat="45.55922648639227" lon="10.79992656559305"><ele>185.25</ele><time>2026-04-06T16:32:16.91Z</time></trkpt><trkpt lat="45.55910364493399" lon="10.800002967092373"><ele>185.0</ele><time>2026-04-06T16:32:17.91Z</time></trkpt><trkpt lat="45.55899198641597" lon="10.800093975121676"><ele>185.0</ele><time>2026-04-06T16:32:18.91Z</time></trkpt><trkpt lat="45.55889282324295" lon="10.800197249611795"><ele>185.0</ele><time>2026-04-06T16:32:19.91Z</time></trkpt><trkpt lat="45.55880232689452" lon="10.80030651817898"><ele>185.0</ele><time>2026-04-06T16:32:20.91Z</time></trkpt><trkpt lat="45.55871787288466" lon="10.800430571372571"><ele>185.0</ele><time>2026-04-06T16:32:21.91Z</time></trkpt><trkpt lat="45.55862894716494" lon="10.800558074768114"><ele>185.0</ele><time>2026-04-06T16:32:22.91Z</time></trkpt><trkpt lat="45.55855339887243" lon="10.800641184273058"><ele>185.0</ele><time>2026-04-06T16:32:23.91Z</time></trkpt><trkpt lat="45.55846643707009" lon="10.800732211973136"><ele>185.0</ele><time>2026-04-06T16:32:24.91Z</time></trkpt><trkpt lat="45.558345932667144" lon="10.800852521039339"><ele>185.0</ele><time>2026-04-06T16:32:25.91Z</time></trkpt><trkpt lat="45.55822817523121" lon="10.800962147196515"><ele>185.33333333333331</ele><time>2026-04-06T16:32:26.91Z</time></trkpt><trkpt lat="45.558086341599555" lon="10.801075207315435"><ele>185.66666666666666</ele><time>2026-04-06T16:32:27.91Z</time></trkpt><trkpt lat="45.55792583323113" lon="10.801199774491666"><ele>186.0</ele><time>2026-04-06T16:32:28.91Z</time></trkpt><trkpt lat="45.55777477086761" lon="10.801317140038796"><ele>185.0</ele><time>2026-04-06T16:32:29.91Z</time></trkpt><trkpt lat="45.55762412997792" lon="10.80143048134969"><ele>184.0</ele><time>2026-04-06T16:32:30.91Z</time></trkpt><trkpt lat="45.5574538017103" lon="10.801570164846483"><ele>183.0</ele><time>2026-04-06T16:32:31.911Z</time></trkpt><trkpt lat="45.557270650599165" lon="10.801724056804401"><ele>182.0</ele><time>2026-04-06T16:32:32.911Z</time></trkpt><trkpt lat="45.55710655936847" lon="10.80187543594989"><ele>181.0</ele><time>2026-04-06T16:32:33.911Z</time></trkpt><trkpt lat="45.55695857172232" lon="10.80202711696038"><ele>180.0</ele><time>2026-04-06T16:32:34.911Z</time></trkpt><trkpt lat="45.55680391060188" lon="10.80217821160586"><ele>180.0</ele><time>2026-04-06T16:32:35.911Z</time></trkpt><trkpt lat="45.55662966045075" lon="10.802347226555304"><ele>180.0</ele><time>2026-04-06T16:32:36.911Z</time></trkpt><trkpt lat="45.55642116680796" lon="10.80251153098958"><ele>180.0</ele><time>2026-04-06T16:32:37.911Z</time></trkpt><trkpt lat="45.55620387343767" lon="10.802705182576139"><ele>179.0</ele><time>2026-04-06T16:32:38.911Z</time></trkpt><trkpt lat="45.555988180183824" lon="10.802899847130059"><ele>178.0</ele><time>2026-04-06T16:32:39.911Z</time></trkpt><trkpt lat="45.55580185412205" lon="10.803089526727588"><ele>178.0</ele><time>2026-04-06T16:32:40.911Z</time></trkpt><trkpt lat="45.55561911314633" lon="10.8032440742185"><ele>178.0</ele><time>2026-04-06T16:32:41.911Z</time></trkpt><trkpt lat="45.55544923503511" lon="10.803374504699908"><ele>178.0</ele><time>2026-04-06T16:32:42.911Z</time></trkpt><trkpt lat="45.555289617453894" lon="10.803467848766834"><ele>178.0</ele><time>2026-04-06T16:32:43.911Z</time></trkpt><trkpt lat="45.55510325465174" lon="10.803567922756988"><ele>178.0</ele><time>2026-04-06T16:32:44.911Z</time></trkpt><trkpt lat="45.55490855714911" lon="10.80361235711797"><ele>178.0</ele><time>2026-04-06T16:32:45.911Z</time></trkpt><trkpt lat="45.55469804951067" lon="10.803631046937372"><ele>176.5</ele><time>2026-04-06T16:32:46.911Z</time></trkpt><trkpt lat="45.55446502700981" lon="10.803599337384012"><ele>175.0</ele><time>2026-04-06T16:32:47.911Z</time></trkpt><trkpt lat="45.55421616268967" lon="10.803562178314145"><ele>175.0</ele><time>2026-04-06T16:32:48.911Z</time></trkpt><trkpt lat="45.553979353700996" lon="10.803546474481205"><ele>175.0</ele><time>2026-04-06T16:32:49.911Z</time></trkpt><trkpt lat="45.55375504643544" lon="10.803562414627345"><ele>175.0</ele><time>2026-04-06T16:32:50.911Z</time></trkpt><trkpt lat="45.553530812067386" lon="10.8036015695244"><ele>175.0</ele><time>2026-04-06T16:32:51.911Z</time></trkpt><trkpt lat="45.55329979714297" lon="10.80365325379885"><ele>175.0</ele><time>2026-04-06T16:32:52.911Z</time></trkpt><trkpt lat="45.553063671746536" lon="10.803707440955325"><ele>175.0</ele><time>2026-04-06T16:32:53.911Z</time></trkpt><trkpt lat="45.55283376881927" lon="10.803748946294313"><ele>174.0</ele><time>2026-04-06T16:32:54.911Z</time></trkpt><trkpt lat="45.55262520540313" lon="10.80378305805594"><ele>173.0</ele><time>2026-04-06T16:32:55.911Z</time></trkpt><trkpt lat="45.55242915263296" lon="10.803816612885448"><ele>172.0</ele><time>2026-04-06T16:32:56.911Z</time></trkpt><trkpt lat="45.552243210923656" lon="10.803844233705838"><ele>172.0</ele><time>2026-04-06T16:32:57.911Z</time></trkpt><trkpt lat="45.55206803533327" lon="10.803866561129508"><ele>172.0</ele><time>2026-04-06T16:32:58.911Z</time></trkpt><trkpt lat="45.55190217299769" lon="10.803881651202502"><ele>172.0</ele><time>2026-04-06T16:32:59.911Z</time></trkpt><trkpt lat="45.55174340932179" lon="10.80389266437546"><ele>172.25</ele><time>2026-04-06T16:33:00.911Z</time></trkpt><trkpt lat="45.55160742611238" lon="10.803899309246399"><ele>172.5</ele><time>2026-04-06T16:33:01.911Z</time></trkpt><trkpt lat="45.55147808146421" lon="10.80391300457354"><ele>172.75</ele><time>2026-04-06T16:33:02.911Z</time></trkpt><trkpt lat="45.55135780788631" lon="10.80391925869149"><ele>173.0</ele><time>2026-04-06T16:33:03.911Z</time></trkpt><trkpt lat="45.551242541240995" lon="10.803930094049088"><ele>172.60000000000002</ele><time>2026-04-06T16:33:04.911Z</time></trkpt><trkpt lat="45.551137730596736" lon="10.803930119833193"><ele>172.20000000000002</ele><time>2026-04-06T16:33:05.911Z</time></trkpt><trkpt lat="45.55104963217397" lon="10.803919202404943"><ele>171.8</ele><time>2026-04-06T16:33:06.911Z</time></trkpt><trkpt lat="45.550974925862675" lon="10.803895488092087"><ele>171.4</ele><time>2026-04-06T16:33:07.911Z</time></trkpt><trkpt lat="45.55090819883061" lon="10.803851672386914"><ele>171.0</ele><time>2026-04-06T16:33:08.911Z</time></trkpt><trkpt lat="45.55081305108605" lon="10.803752734478799"><ele>171.0</ele><time>2026-04-06T16:33:10.911Z</time></trkpt><trkpt lat="45.550740610283405" lon="10.803654859057517"><ele>171.0</ele><time>2026-04-06T16:33:12.911Z</time></trkpt><trkpt lat="45.55069388676108" lon="10.803573938136944"><ele>171.0</ele><time>2026-04-06T16:33:13.911Z</time></trkpt><trkpt lat="45.5506405156165" lon="10.803477962276375"><ele>171.0</ele><time>2026-04-06T16:33:14.911Z</time></trkpt><trkpt lat="45.55056291921836" lon="10.80341650218241"><ele>171.0</ele><time>2026-04-06T16:33:15.911Z</time></trkpt><trkpt lat="45.550472309542215" lon="10.803429651486905"><ele>171.0</ele><time>2026-04-06T16:33:16.911Z</time></trkpt><trkpt lat="45.5503993502362" lon="10.803470183246727"><ele>170.83333333333334</ele><time>2026-04-06T16:33:17.911Z</time></trkpt><trkpt lat="45.55032514075286" lon="10.803552314475121"><ele>170.66666666666666</ele><time>2026-04-06T16:33:18.911Z</time></trkpt><trkpt lat="45.550249062224324" lon="10.803622086682635"><ele>170.5</ele><time>2026-04-06T16:33:19.911Z</time></trkpt><trkpt lat="45.55017305950643" lon="10.803677516252888"><ele>170.33333333333331</ele><time>2026-04-06T16:33:20.911Z</time></trkpt><trkpt lat="45.55009500061319" lon="10.803723525681166"><ele>170.16666666666666</ele><time>2026-04-06T16:33:21.911Z</time></trkpt><trkpt lat="45.55001659388904" lon="10.803767550917897"><ele>170.0</ele><time>2026-04-06T16:33:22.911Z</time></trkpt><trkpt lat="45.549955076214204" lon="10.80385252644793"><ele>170.0</ele><time>2026-04-06T16:33:23.911Z</time></trkpt><trkpt lat="45.54988136712736" lon="10.8039246237787"><ele>170.0</ele><time>2026-04-06T16:33:24.911Z</time></trkpt><trkpt lat="45.549751567836815" lon="10.803867611486181"><ele>170.0</ele><time>2026-04-06T16:33:25.911Z</time></trkpt><trkpt lat="45.54965484727654" lon="10.803892310845361"><ele>170.0</ele><time>2026-04-06T16:33:26.911Z</time></trkpt><trkpt lat="45.5495650772948" lon="10.80391004462636"><ele>170.0</ele><time>2026-04-06T16:33:27.911Z</time></trkpt><trkpt lat="45.549683336756566" lon="10.80391076999864"><ele>168.0</ele><time>2026-04-06T16:33:32.911Z</time></trkpt><trkpt lat="45.548793893601484" lon="10.803839032017146"><ele>167.33333333333334</ele><time>2026-04-06T16:33:33.911Z</time></trkpt><trkpt lat="45.54863485261486" lon="10.803787915299523"><ele>166.66666666666669</ele><time>2026-04-06T16:33:34.911Z</time></trkpt><trkpt lat="45.54849603269965" lon="10.803740523357408"><ele>166.0</ele><time>2026-04-06T16:33:35.911Z</time></trkpt><trkpt lat="45.548350987830105" lon="10.803697406809492"><ele>166.0</ele><time>2026-04-06T16:33:36.911Z</time></trkpt><trkpt lat="45.548186169585605" lon="10.803652375123129"><ele>166.0</ele><time>2026-04-06T16:33:37.911Z</time></trkpt><trkpt lat="45.5480026052676" lon="10.80359992337453"><ele>166.0</ele><time>2026-04-06T16:33:38.911Z</time></trkpt><trkpt lat="45.547791095550615" lon="10.80353894840298"><ele>166.0</ele><time>2026-04-06T16:33:39.911Z</time></trkpt><trkpt lat="45.54755897312716" lon="10.80347154859832"><ele>166.0</ele><time>2026-04-06T16:33:40.911Z</time></trkpt><trkpt lat="45.547338353987584" lon="10.803411580837485"><ele>166.0</ele><time>2026-04-06T16:33:41.911Z</time></trkpt><trkpt lat="45.547137011341064" lon="10.803350126393795"><ele>166.0</ele><time>2026-04-06T16:33:42.911Z</time></trkpt><trkpt lat="45.54694716131188" lon="10.803287548635366"><ele>166.0</ele><time>2026-04-06T16:33:43.911Z</time></trkpt><trkpt lat="45.54674013787244" lon="10.803237381784587"><ele>166.0</ele><time>2026-04-06T16:33:44.911Z</time></trkpt><trkpt lat="45.546529601598365" lon="10.80317512116031"><ele>166.0</ele><time>2026-04-06T16:33:45.911Z</time></trkpt><trkpt lat="45.54630659081669" lon="10.803108680534265"><ele>166.0</ele><time>2026-04-06T16:33:46.911Z</time></trkpt><trkpt lat="45.546075346327875" lon="10.803035879220431"><ele>165.0</ele><time>2026-04-06T16:33:47.911Z</time></trkpt><trkpt lat="45.545842637378534" lon="10.802970930461827"><ele>164.0</ele><time>2026-04-06T16:33:48.911Z</time></trkpt><trkpt lat="45.54563023774351" lon="10.802905108566613"><ele>164.0</ele><time>2026-04-06T16:33:49.911Z</time></trkpt><trkpt lat="45.54542895279618" lon="10.802841636259226"><ele>164.0</ele><time>2026-04-06T16:33:50.911Z</time></trkpt><trkpt lat="45.54523916375964" lon="10.802788917834937"><ele>164.0</ele><time>2026-04-06T16:33:51.911Z</time></trkpt><trkpt lat="45.54505828701943" lon="10.80273705200095"><ele>163.66666666666666</ele><time>2026-04-06T16:33:52.911Z</time></trkpt><trkpt lat="45.54488733723979" lon="10.802685201826108"><ele>163.33333333333334</ele><time>2026-04-06T16:33:53.911Z</time></trkpt><trkpt lat="45.54470852351704" lon="10.802637685471417"><ele>163.0</ele><time>2026-04-06T16:33:54.911Z</time></trkpt><trkpt lat="45.54452689313647" lon="10.802578948729073"><ele>162.66666666666669</ele><time>2026-04-06T16:33:55.911Z</time></trkpt><trkpt lat="45.544352840192104" lon="10.80252879217493"><ele>162.33333333333334</ele><time>2026-04-06T16:33:56.911Z</time></trkpt><trkpt lat="45.54418321988353" lon="10.802482146383932"><ele>162.0</ele><time>2026-04-06T16:33:57.911Z</time></trkpt><trkpt lat="45.5440186851111" lon="10.802440424853991"><ele>162.0</ele><time>2026-04-06T16:33:58.911Z</time></trkpt><trkpt lat="45.54385133788109" lon="10.802394359672919"><ele>162.0</ele><time>2026-04-06T16:33:59.911Z</time></trkpt><trkpt lat="45.543683579103885" lon="10.802364325647956"><ele>162.0</ele><time>2026-04-06T16:34:00.911Z</time></trkpt><trkpt lat="45.543525512621336" lon="10.802324136531595"><ele>161.66666666666666</ele><time>2026-04-06T16:34:01.911Z</time></trkpt><trkpt lat="45.54337081194417" lon="10.802289077354045"><ele>161.33333333333331</ele><time>2026-04-06T16:34:02.911Z</time></trkpt><trkpt lat="45.54321832348786" lon="10.802258378842037"><ele>161.0</ele><time>2026-04-06T16:34:03.911Z</time></trkpt><trkpt lat="45.54307089351465" lon="10.80223063432126"><ele>161.0</ele><time>2026-04-06T16:34:04.911Z</time></trkpt><trkpt lat="45.54292643902406" lon="10.802209318314109"><ele>161.0</ele><time>2026-04-06T16:34:05.911Z</time></trkpt><trkpt lat="45.5427893624524" lon="10.802183232633945"><ele>161.0</ele><time>2026-04-06T16:34:06.911Z</time></trkpt><trkpt lat="45.54264877419421" lon="10.802149543378327"><ele>161.0</ele><time>2026-04-06T16:34:07.911Z</time></trkpt><trkpt lat="45.542509013977345" lon="10.802104643250768"><ele>160.25</ele><time>2026-04-06T16:34:08.911Z</time></trkpt><trkpt lat="45.54237146309222" lon="10.80204672468879"><ele>159.5</ele><time>2026-04-06T16:34:09.911Z</time></trkpt><trkpt lat="45.54223295805229" lon="10.801988793690665"><ele>158.75</ele><time>2026-04-06T16:34:10.911Z</time></trkpt><trkpt lat="45.542114550122484" lon="10.801936837737422"><ele>158.0</ele><time>2026-04-06T16:34:11.911Z</time></trkpt><trkpt lat="45.54199892177159" lon="10.801896773201301"><ele>158.0</ele><time>2026-04-06T16:34:12.911Z</time></trkpt><trkpt lat="45.541884360535825" lon="10.801845328574673"><ele>158.0</ele><time>2026-04-06T16:34:13.911Z</time></trkpt><trkpt lat="45.541772892883955" lon="10.801793930541551"><ele>158.0</ele><time>2026-04-06T16:34:14.911Z</time></trkpt><trkpt lat="45.54163977404591" lon="10.801760957230265"><ele>158.0</ele><time>2026-04-06T16:34:15.911Z</time></trkpt><trkpt lat="45.541480131945995" lon="10.801742043162813"><ele>158.0</ele><time>2026-04-06T16:34:16.911Z</time></trkpt><trkpt lat="45.54129460417156" lon="10.801729585854078"><ele>158.0</ele><time>2026-04-06T16:34:17.911Z</time></trkpt><trkpt lat="45.54108721087682" lon="10.801733911973535"><ele>158.0</ele><time>2026-04-06T16:34:18.911Z</time></trkpt><trkpt lat="45.54085938627511" lon="10.80175245840559"><ele>158.33333333333331</ele><time>2026-04-06T16:34:19.911Z</time></trkpt><trkpt lat="45.54064362792503" lon="10.801777751836616"><ele>158.66666666666666</ele><time>2026-04-06T16:34:20.911Z</time></trkpt><trkpt lat="45.54044283783392" lon="10.80179062302156"><ele>159.0</ele><time>2026-04-06T16:34:21.911Z</time></trkpt><trkpt lat="45.54026190941005" lon="10.80179512266253"><ele>158.0</ele><time>2026-04-06T16:34:22.911Z</time></trkpt><trkpt lat="45.54008602593735" lon="10.801785985029607"><ele>157.0</ele><time>2026-04-06T16:34:23.911Z</time></trkpt><trkpt lat="45.53990094778334" lon="10.8017702906055"><ele>156.0</ele><time>2026-04-06T16:34:24.911Z</time></trkpt><trkpt lat="45.539706871904414" lon="10.80174924431563"><ele>155.33333333333334</ele><time>2026-04-06T16:34:25.911Z</time></trkpt><trkpt lat="45.53950810251111" lon="10.801729659073647"><ele>154.66666666666669</ele><time>2026-04-06T16:34:26.911Z</time></trkpt><trkpt lat="45.53930697753963" lon="10.80170735967914"><ele>154.0</ele><time>2026-04-06T16:34:27.911Z</time></trkpt><trkpt lat="45.53909299270621" lon="10.801699473902104"><ele>154.0</ele><time>2026-04-06T16:34:28.911Z</time></trkpt><trkpt lat="45.538857758399146" lon="10.80171228559848"><ele>154.0</ele><time>2026-04-06T16:34:29.911Z</time></trkpt><trkpt lat="45.53859927140772" lon="10.801747126047339"><ele>153.0</ele><time>2026-04-06T16:34:30.911Z</time></trkpt><trkpt lat="45.53832984676982" lon="10.801790279964585"><ele>152.0</ele><time>2026-04-06T16:34:31.911Z</time></trkpt><trkpt lat="45.538044391968256" lon="10.801831404464478"><ele>150.5</ele><time>2026-04-06T16:34:32.911Z</time></trkpt><trkpt lat="45.53776709820249" lon="10.801870499811063"><ele>149.0</ele><time>2026-04-06T16:34:33.911Z</time></trkpt><trkpt lat="45.537514251279994" lon="10.80190797789924"><ele>149.0</ele><time>2026-04-06T16:34:34.911Z</time></trkpt><trkpt lat="45.53728032425943" lon="10.801941657160441"><ele>149.0</ele><time>2026-04-06T16:34:35.911Z</time></trkpt><trkpt lat="45.5370562619717" lon="10.801978207573207"><ele>148.33333333333331</ele><time>2026-04-06T16:34:36.911Z</time></trkpt><trkpt lat="45.53683364229006" lon="10.80201131714378"><ele>147.66666666666666</ele><time>2026-04-06T16:34:37.911Z</time></trkpt><trkpt lat="45.53661569408986" lon="10.802047121363243"><ele>147.0</ele><time>2026-04-06T16:34:38.911Z</time></trkpt><trkpt lat="45.53639829202195" lon="10.802071758562748"><ele>146.66666666666666</ele><time>2026-04-06T16:34:39.911Z</time></trkpt><trkpt lat="45.5361857596161" lon="10.80208345237552"><ele>146.33333333333331</ele><time>2026-04-06T16:34:40.911Z</time></trkpt><trkpt lat="45.53598851620998" lon="10.802079843904293"><ele>146.0</ele><time>2026-04-06T16:34:41.911Z</time></trkpt><trkpt lat="45.53579824594229" lon="10.802039838742202"><ele>146.0</ele><time>2026-04-06T16:34:42.911Z</time></trkpt><trkpt lat="45.5355951629047" lon="10.802032850626576"><ele>146.0</ele><time>2026-04-06T16:34:43.911Z</time></trkpt><trkpt lat="45.535382328371504" lon="10.801990812868741"><ele>146.0</ele><time>2026-04-06T16:34:44.911Z</time></trkpt><trkpt lat="45.535149269556115" lon="10.801962588548195"><ele>144.0</ele><time>2026-04-06T16:34:45.911Z</time></trkpt><trkpt lat="45.534908445170416" lon="10.801930502288336"><ele>142.0</ele><time>2026-04-06T16:34:46.911Z</time></trkpt><trkpt lat="45.53468103726662" lon="10.80189971814937"><ele>141.66666666666669</ele><time>2026-04-06T16:34:47.911Z</time></trkpt><trkpt lat="45.53447125759337" lon="10.801869478081347"><ele>141.33333333333334</ele><time>2026-04-06T16:34:48.911Z</time></trkpt><trkpt lat="45.534255963486835" lon="10.801829702133618"><ele>141.0</ele><time>2026-04-06T16:34:49.911Z</time></trkpt><trkpt lat="45.53404135236856" lon="10.80179575912789"><ele>141.0</ele><time>2026-04-06T16:34:50.911Z</time></trkpt><trkpt lat="45.53384563735494" lon="10.801769621601292"><ele>141.0</ele><time>2026-04-06T16:34:51.911Z</time></trkpt><trkpt lat="45.53366441780431" lon="10.80174352047589"><ele>141.0</ele><time>2026-04-06T16:34:52.911Z</time></trkpt><trkpt lat="45.53349423194399" lon="10.801729126568649"><ele>141.33333333333334</ele><time>2026-04-06T16:34:53.911Z</time></trkpt><trkpt lat="45.53333147650017" lon="10.801737641451037"><ele>141.66666666666669</ele><time>2026-04-06T16:34:54.911Z</time></trkpt><trkpt lat="45.53317023442782" lon="10.801768090071697"><ele>142.0</ele><time>2026-04-06T16:34:55.911Z</time></trkpt><trkpt lat="45.532996055484894" lon="10.801797925889726"><ele>141.66666666666669</ele><time>2026-04-06T16:34:56.911Z</time></trkpt><trkpt lat="45.532792683249205" lon="10.801802242832405"><ele>141.33333333333334</ele><time>2026-04-06T16:34:57.911Z</time></trkpt><trkpt lat="45.53260637119553" lon="10.801848950202228"><ele>141.0</ele><time>2026-04-06T16:34:58.911Z</time></trkpt><trkpt lat="45.5324275156804" lon="10.801864380098442"><ele>138.66666666666666</ele><time>2026-04-06T16:34:59.911Z</time></trkpt><trkpt lat="45.53225721980674" lon="10.801882644106344"><ele>136.33333333333331</ele><time>2026-04-06T16:35:00.911Z</time></trkpt><trkpt lat="45.5320984430991" lon="10.801908827346663"><ele>134.0</ele><time>2026-04-06T16:35:01.911Z</time></trkpt><trkpt lat="45.53194881211027" lon="10.801954238653236"><ele>132.25</ele><time>2026-04-06T16:35:02.911Z</time></trkpt><trkpt lat="45.531820481175956" lon="10.802019318545554"><ele>130.5</ele><time>2026-04-06T16:35:03.911Z</time></trkpt><trkpt lat="45.53170144429881" lon="10.80209087763856"><ele>128.75</ele><time>2026-04-06T16:35:04.911Z</time></trkpt><trkpt lat="45.531583735507766" lon="10.802164944520428"><ele>127.0</ele><time>2026-04-06T16:35:05.911Z</time></trkpt><trkpt lat="45.53147546645385" lon="10.802222046246287"><ele>127.0</ele><time>2026-04-06T16:35:06.911Z</time></trkpt><trkpt lat="45.53137604367621" lon="10.802265230049134"><ele>127.0</ele><time>2026-04-06T16:35:07.911Z</time></trkpt><trkpt lat="45.53126796131987" lon="10.802274417476806"><ele>127.0</ele><time>2026-04-06T16:35:08.911Z</time></trkpt><trkpt lat="45.531147731358644" lon="10.802227004263838"><ele>127.0</ele><time>2026-04-06T16:35:09.911Z</time></trkpt><trkpt lat="45.53103099990665" lon="10.80215565683763"><ele>124.25</ele><time>2026-04-06T16:35:10.911Z</time></trkpt><trkpt lat="45.530911502976984" lon="10.802069561429741"><ele>121.5</ele><time>2026-04-06T16:35:11.911Z</time></trkpt><trkpt lat="45.5307883821164" lon="10.80199740642108"><ele>118.75</ele><time>2026-04-06T16:35:12.911Z</time></trkpt><trkpt lat="45.530667674229576" lon="10.801940074742038"><ele>116.0</ele><time>2026-04-06T16:35:13.911Z</time></trkpt><trkpt lat="45.530538696070415" lon="10.801869156820116"><ele>117.25</ele><time>2026-04-06T16:35:14.911Z</time></trkpt><trkpt lat="45.53040015521856" lon="10.801809078064126"><ele>118.5</ele><time>2026-04-06T16:35:15.911Z</time></trkpt><trkpt lat="45.53027568961519" lon="10.801748157923797"><ele>119.75</ele><time>2026-04-06T16:35:16.911Z</time></trkpt><trkpt lat="45.5301703734803" lon="10.801689246125228"><ele>121.0</ele><time>2026-04-06T16:35:17.911Z</time></trkpt><trkpt lat="45.53006173028397" lon="10.80162983106498"><ele>121.0</ele><time>2026-04-06T16:35:18.911Z</time></trkpt><trkpt lat="45.52994723549748" lon="10.801572104496264"><ele>121.0</ele><time>2026-04-06T16:35:19.911Z</time></trkpt><trkpt lat="45.529828308785305" lon="10.80151155934754"><ele>121.0</ele><time>2026-04-06T16:35:20.911Z</time></trkpt><trkpt lat="45.5297303752248" lon="10.801449082113061"><ele>121.0</ele><time>2026-04-06T16:35:21.911Z</time></trkpt><trkpt lat="45.52961544335331" lon="10.801385019230354"><ele>118.75</ele><time>2026-04-06T16:35:22.911Z</time></trkpt><trkpt lat="45.52949678516359" lon="10.801332482946638"><ele>116.5</ele><time>2026-04-06T16:35:23.911Z</time></trkpt><trkpt lat="45.52938396497125" lon="10.80127271198847"><ele>114.25</ele><time>2026-04-06T16:35:24.911Z</time></trkpt><trkpt lat="45.52926756373078" lon="10.801214321715669"><ele>112.0</ele><time>2026-04-06T16:35:25.911Z</time></trkpt><trkpt lat="45.5291574983549" lon="10.801155215998335"><ele>112.0</ele><time>2026-04-06T16:35:26.911Z</time></trkpt><trkpt lat="45.529035600910895" lon="10.801097994887787"><ele>112.0</ele><time>2026-04-06T16:35:27.911Z</time></trkpt><trkpt lat="45.52893156058028" lon="10.801040419631326"><ele>112.0</ele><time>2026-04-06T16:35:28.911Z</time></trkpt><trkpt lat="45.52882622740662" lon="10.800984296868858"><ele>112.0</ele><time>2026-04-06T16:35:29.911Z</time></trkpt><trkpt lat="45.52869154376228" lon="10.800936561447607"><ele>112.75</ele><time>2026-04-06T16:35:30.911Z</time></trkpt><trkpt lat="45.52857089143237" lon="10.800892063597857"><ele>113.5</ele><time>2026-04-06T16:35:31.911Z</time></trkpt><trkpt lat="45.52845251541064" lon="10.800851481554012"><ele>114.25</ele><time>2026-04-06T16:35:32.911Z</time></trkpt><trkpt lat="45.5283366643547" lon="10.80080180404758"><ele>115.0</ele><time>2026-04-06T16:35:33.911Z</time></trkpt><trkpt lat="45.52822417658137" lon="10.800753918422563"><ele>115.0</ele><time>2026-04-06T16:35:34.911Z</time></trkpt><trkpt lat="45.528100007390634" lon="10.800707139190308"><ele>115.0</ele><time>2026-04-06T16:35:35.911Z</time></trkpt><trkpt lat="45.52798223703713" lon="10.800657416832914"><ele>115.0</ele><time>2026-04-06T16:35:36.911Z</time></trkpt><trkpt lat="45.52786351121347" lon="10.800605933076591"><ele>115.0</ele><time>2026-04-06T16:35:37.911Z</time></trkpt><trkpt lat="45.52773814531724" lon="10.800559265923233"><ele>113.0</ele><time>2026-04-06T16:35:38.911Z</time></trkpt><trkpt lat="45.52761918889887" lon="10.800506540226063"><ele>111.0</ele><time>2026-04-06T16:35:39.911Z</time></trkpt><trkpt lat="45.52750208719144" lon="10.800450167881753"><ele>109.0</ele><time>2026-04-06T16:35:40.911Z</time></trkpt><trkpt lat="45.52738575773968" lon="10.800390097870368"><ele>107.0</ele><time>2026-04-06T16:35:41.911Z</time></trkpt><trkpt lat="45.52727475459325" lon="10.800324340796447"><ele>107.0</ele><time>2026-04-06T16:35:42.911Z</time></trkpt><trkpt lat="45.52716795801513" lon="10.800248960443474"><ele>107.0</ele><time>2026-04-06T16:35:43.911Z</time></trkpt><trkpt lat="45.52706302925169" lon="10.800178521770494"><ele>107.0</ele><time>2026-04-06T16:35:44.911Z</time></trkpt><trkpt lat="45.526957230073215" lon="10.800129797675368"><ele>107.0</ele><time>2026-04-06T16:35:45.911Z</time></trkpt><trkpt lat="45.52684320748793" lon="10.800110325338661"><ele>105.8</ele><time>2026-04-06T16:35:46.911Z</time></trkpt><trkpt lat="45.526730652973434" lon="10.800106923877205"><ele>104.6</ele><time>2026-04-06T16:35:47.911Z</time></trkpt><trkpt lat="45.52661962678222" lon="10.800113640035331"><ele>103.39999999999999</ele><time>2026-04-06T16:35:48.911Z</time></trkpt><trkpt lat="45.52651025813788" lon="10.800116850375064"><ele>102.19999999999999</ele><time>2026-04-06T16:35:49.911Z</time></trkpt><trkpt lat="45.526402776749855" lon="10.80011365374554"><ele>101.0</ele><time>2026-04-06T16:35:50.911Z</time></trkpt><trkpt lat="45.526311926266835" lon="10.80012561431973"><ele>101.19999999999999</ele><time>2026-04-06T16:35:51.911Z</time></trkpt><trkpt lat="45.52622858596006" lon="10.80017562119061"><ele>101.39999999999999</ele><time>2026-04-06T16:35:52.911Z</time></trkpt><trkpt lat="45.526152348946624" lon="10.800255173139494"><ele>101.6</ele><time>2026-04-06T16:35:53.911Z</time></trkpt><trkpt lat="45.52608551454396" lon="10.80035909625534"><ele>101.8</ele><time>2026-04-06T16:35:54.911Z</time></trkpt><trkpt lat="45.526026751725425" lon="10.8004652806658"><ele>102.0</ele><time>2026-04-06T16:35:55.911Z</time></trkpt><trkpt lat="45.52595342040939" lon="10.800565994821723"><ele>101.6</ele><time>2026-04-06T16:35:56.911Z</time></trkpt><trkpt lat="45.52588370982959" lon="10.800666130517488"><ele>101.19999999999999</ele><time>2026-04-06T16:35:57.911Z</time></trkpt><trkpt lat="45.52581668642175" lon="10.800770919273747"><ele>100.8</ele><time>2026-04-06T16:35:58.911Z</time></trkpt><trkpt lat="45.52575427606199" lon="10.800862437978637"><ele>100.4</ele><time>2026-04-06T16:35:59.911Z</time></trkpt><trkpt lat="45.52569271827274" lon="10.80095182877246"><ele>100.0</ele><time>2026-04-06T16:36:00.911Z</time></trkpt><trkpt lat="45.52562475602489" lon="10.801032118437432"><ele>99.8</ele><time>2026-04-06T16:36:01.911Z</time></trkpt><trkpt lat="45.52554708045026" lon="10.801108761798782"><ele>99.6</ele><time>2026-04-06T16:36:02.911Z</time></trkpt><trkpt lat="45.525458676123236" lon="10.80118485706899"><ele>99.4</ele><time>2026-04-06T16:36:03.911Z</time></trkpt><trkpt lat="45.52537380815801" lon="10.801248476571635"><ele>99.2</ele><time>2026-04-06T16:36:04.911Z</time></trkpt><trkpt lat="45.525284670050844" lon="10.80131289116795"><ele>99.0</ele><time>2026-04-06T16:36:05.911Z</time></trkpt><trkpt lat="45.52518961237094" lon="10.801386905639951"><ele>99.0</ele><time>2026-04-06T16:36:06.911Z</time></trkpt><trkpt lat="45.52510339309795" lon="10.80145497540244"><ele>99.0</ele><time>2026-04-06T16:36:07.911Z</time></trkpt><trkpt lat="45.52502414236034" lon="10.801504512395878"><ele>99.0</ele><time>2026-04-06T16:36:08.911Z</time></trkpt><trkpt lat="45.524948963968065" lon="10.801550533559238"><ele>99.0</ele><time>2026-04-06T16:36:09.911Z</time></trkpt><trkpt lat="45.52487264223148" lon="10.80159614925578"><ele>99.0</ele><time>2026-04-06T16:36:10.911Z</time></trkpt><trkpt lat="45.52479790652572" lon="10.801640696658124"><ele>99.0</ele><time>2026-04-06T16:36:11.911Z</time></trkpt><trkpt lat="45.52472419257215" lon="10.801677944627357"><ele>99.0</ele><time>2026-04-06T16:36:12.911Z</time></trkpt><trkpt lat="45.52465159071604" lon="10.801709790248053"><ele>99.0</ele><time>2026-04-06T16:36:13.911Z</time></trkpt><trkpt lat="45.524579131751636" lon="10.801745431239496"><ele>99.0</ele><time>2026-04-06T16:36:14.911Z</time></trkpt><trkpt lat="45.524507764319246" lon="10.801780206153454"><ele>99.0</ele><time>2026-04-06T16:36:15.911Z</time></trkpt><trkpt lat="45.52443786624789" lon="10.801820692559764"><ele>99.0</ele><time>2026-04-06T16:36:16.911Z</time></trkpt><trkpt lat="45.52436796230092" lon="10.801868761696895"><ele>99.0</ele><time>2026-04-06T16:36:17.911Z</time></trkpt><trkpt lat="45.52430282054729" lon="10.801924555249514"><ele>98.80000000000001</ele><time>2026-04-06T16:36:18.911Z</time></trkpt><trkpt lat="45.524237396519695" lon="10.801989511962592"><ele>98.60000000000001</ele><time>2026-04-06T16:36:19.911Z</time></trkpt><trkpt lat="45.52417023226113" lon="10.802074772893626"><ele>98.4</ele><time>2026-04-06T16:36:20.911Z</time></trkpt><trkpt lat="45.52410139471187" lon="10.80217691598595"><ele>98.2</ele><time>2026-04-06T16:36:21.911Z</time></trkpt><trkpt lat="45.52403761042075" lon="10.802272264953638"><ele>98.0</ele><time>2026-04-06T16:36:22.911Z</time></trkpt><trkpt lat="45.52397837448184" lon="10.802367729314662"><ele>97.99999999999999</ele><time>2026-04-06T16:36:23.911Z</time></trkpt><trkpt lat="45.52391754964891" lon="10.802447610742357"><ele>98.0</ele><time>2026-04-06T16:36:24.911Z</time></trkpt><trkpt lat="45.52384283199558" lon="10.802534034547289"><ele>98.0</ele><time>2026-04-06T16:36:25.911Z</time></trkpt><trkpt lat="45.523774340629394" lon="10.802596905699065"><ele>98.0</ele><time>2026-04-06T16:36:26.911Z</time></trkpt><trkpt lat="45.52370245680895" lon="10.80265131880449"><ele>97.99999999999999</ele><time>2026-04-06T16:36:27.911Z</time></trkpt><trkpt lat="45.52363122392996" lon="10.802687967571684"><ele>98.0</ele><time>2026-04-06T16:36:28.911Z</time></trkpt><trkpt lat="45.52356343171617" lon="10.80270763368981"><ele>98.0</ele><time>2026-04-06T16:36:29.911Z</time></trkpt><trkpt lat="45.523479376591624" lon="10.802710615947916"><ele>98.0</ele><time>2026-04-06T16:36:31.911Z</time></trkpt><trkpt lat="45.523404496753884" lon="10.802719546912186"><ele>98.0</ele><time>2026-04-06T16:36:33.911Z</time></trkpt><trkpt lat="45.5233244038641" lon="10.802726434138824"><ele>98.0</ele><time>2026-04-06T16:36:35.911Z</time></trkpt><trkpt lat="45.52320766334718" lon="10.802744149449557"><ele>98.0</ele><time>2026-04-06T16:36:37.911Z</time></trkpt><trkpt lat="45.52311249288846" lon="10.802748176443703"><ele>97.99999999999999</ele><time>2026-04-06T16:36:39.911Z</time></trkpt><trkpt lat="45.523013147526086" lon="10.80275495548093"><ele>98.0</ele><time>2026-04-06T16:36:41.911Z</time></trkpt><trkpt lat="45.522949314098256" lon="10.80275427564335"><ele>98.0</ele><time>2026-04-06T16:36:42.911Z</time></trkpt><trkpt lat="45.52283488753073" lon="10.802729274835078"><ele>98.0</ele><time>2026-04-06T16:36:44.911Z</time></trkpt><trkpt lat="45.522764905859894" lon="10.802703566802888"><ele>97.99999999999999</ele><time>2026-04-06T16:36:46.911Z</time></trkpt><trkpt lat="45.52273410537345" lon="10.802809337938038"><ele>98.0</ele><time>2026-04-06T16:36:47.911Z</time></trkpt><trkpt lat="45.52263372229194" lon="10.803006451659058"><ele>97.75</ele><time>2026-04-06T16:36:49.911Z</time></trkpt><trkpt lat="45.52264633182942" lon="10.803120930762223"><ele>97.5</ele><time>2026-04-06T16:36:50.911Z</time></trkpt><trkpt lat="45.522710105141904" lon="10.803223097635684"><ele>97.25</ele><time>2026-04-06T16:36:51.911Z</time></trkpt><trkpt lat="45.522660812892354" lon="10.803391986983273"><ele>97.0</ele><time>2026-04-06T16:36:52.911Z</time></trkpt><trkpt lat="45.522631526427844" lon="10.803598420525246"><ele>96.33333333333334</ele><time>2026-04-06T16:36:53.911Z</time></trkpt><trkpt lat="45.52254870110092" lon="10.803862055718074"><ele>95.66666666666667</ele><time>2026-04-06T16:36:54.911Z</time></trkpt><trkpt lat="45.52248591830058" lon="10.804129211409254"><ele>95.0</ele><time>2026-04-06T16:36:55.912Z</time></trkpt><trkpt lat="45.52243227216091" lon="10.804349880907704"><ele>94.25</ele><time>2026-04-06T16:36:56.912Z</time></trkpt><trkpt lat="45.52238043590344" lon="10.804549803981189"><ele>93.5</ele><time>2026-04-06T16:36:57.912Z</time></trkpt><trkpt lat="45.5223313213437" lon="10.80472561962268"><ele>92.75</ele><time>2026-04-06T16:36:58.912Z</time></trkpt><trkpt lat="45.522290789993" lon="10.804900629027612"><ele>92.0</ele><time>2026-04-06T16:36:59.912Z</time></trkpt><trkpt lat="45.52225660646896" lon="10.805072131854562"><ele>92.6</ele><time>2026-04-06T16:37:00.912Z</time></trkpt><trkpt lat="45.52222773416097" lon="10.805216064051862"><ele>93.19999999999999</ele><time>2026-04-06T16:37:01.912Z</time></trkpt><trkpt lat="45.52219980498365" lon="10.805345744524011"><ele>93.8</ele><time>2026-04-06T16:37:02.912Z</time></trkpt><trkpt lat="45.52217182699254" lon="10.805466284841376"><ele>94.4</ele><time>2026-04-06T16:37:03.912Z</time></trkpt><trkpt lat="45.52214223986874" lon="10.805599727442466"><ele>95.0</ele><time>2026-04-06T16:37:04.912Z</time></trkpt><trkpt lat="45.522112470972665" lon="10.805746028329494"><ele>95.0</ele><time>2026-04-06T16:37:05.912Z</time></trkpt><trkpt lat="45.52208387245525" lon="10.805889917872207"><ele>95.0</ele><time>2026-04-06T16:37:06.912Z</time></trkpt><trkpt lat="45.52205425851356" lon="10.806026920347042"><ele>95.0</ele><time>2026-04-06T16:37:07.912Z</time></trkpt><trkpt lat="45.522019191298334" lon="10.806152875615885"><ele>95.0</ele><time>2026-04-06T16:37:08.912Z</time></trkpt><trkpt lat="45.521988107193046" lon="10.806280768503854"><ele>95.0</ele><time>2026-04-06T16:37:09.912Z</time></trkpt><trkpt lat="45.52200521513934" lon="10.806380452637208"><ele>97.0</ele><time>2026-04-06T16:37:10.912Z</time></trkpt><trkpt lat="45.521806627827175" lon="10.806426049612742"><ele>99.0</ele><time>2026-04-06T16:37:12.912Z</time></trkpt><trkpt lat="45.521711367532006" lon="10.80645294010115"><ele>101.0</ele><time>2026-04-06T16:37:13.912Z</time></trkpt><trkpt lat="45.52161585170612" lon="10.806439545202373"><ele>103.0</ele><time>2026-04-06T16:37:14.912Z</time></trkpt><trkpt lat="45.52153169839404" lon="10.80642129785007"><ele>103.00000000000001</ele><time>2026-04-06T16:37:15.912Z</time></trkpt><trkpt lat="45.52145360868704" lon="10.80641024565112"><ele>103.0</ele><time>2026-04-06T16:37:16.912Z</time></trkpt><trkpt lat="45.521377082431385" lon="10.806403507877224"><ele>103.0</ele><time>2026-04-06T16:37:17.912Z</time></trkpt><trkpt lat="45.521294246575444" lon="10.806385288157596"><ele>103.0</ele><time>2026-04-06T16:37:18.912Z</time></trkpt><trkpt lat="45.521202158005295" lon="10.806363487286587"><ele>103.00000000000001</ele><time>2026-04-06T16:37:19.912Z</time></trkpt><trkpt lat="45.52110766475332" lon="10.806347428712627"><ele>103.0</ele><time>2026-04-06T16:37:20.912Z</time></trkpt><trkpt lat="45.52102303894843" lon="10.806337919685499"><ele>103.33333333333334</ele><time>2026-04-06T16:37:21.912Z</time></trkpt><trkpt lat="45.52094851688348" lon="10.806328607974605"><ele>103.66666666666667</ele><time>2026-04-06T16:37:22.912Z</time></trkpt><trkpt lat="45.52087823430621" lon="10.80631685050536"><ele>104.0</ele><time>2026-04-06T16:37:23.912Z</time></trkpt><trkpt lat="45.52080392977492" lon="10.806307531110825"><ele>104.33333333333334</ele><time>2026-04-06T16:37:24.912Z</time></trkpt><trkpt lat="45.52071021359893" lon="10.806302410801079"><ele>104.66666666666667</ele><time>2026-04-06T16:37:25.912Z</time></trkpt><trkpt lat="45.52062217729827" lon="10.806303014875954"><ele>105.0</ele><time>2026-04-06T16:37:26.912Z</time></trkpt><trkpt lat="45.52054477590459" lon="10.806291373530561"><ele>105.0</ele><time>2026-04-06T16:37:27.912Z</time></trkpt><trkpt lat="45.520485666821955" lon="10.806251546103661"><ele>105.0</ele><time>2026-04-06T16:37:28.912Z</time></trkpt><trkpt lat="45.520410232866844" lon="10.80623681001152"><ele>105.0</ele><time>2026-04-06T16:37:29.912Z</time></trkpt><trkpt lat="45.52031408095677" lon="10.806202249327141"><ele>105.0</ele><time>2026-04-06T16:37:30.912Z</time></trkpt><trkpt lat="45.52022655615457" lon="10.806141793242032"><ele>105.0</ele><time>2026-04-06T16:37:31.912Z</time></trkpt><trkpt lat="45.52014253716657" lon="10.806091484919929"><ele>105.0</ele><time>2026-04-06T16:37:32.912Z</time></trkpt><trkpt lat="45.52006993786276" lon="10.806008502278901"><ele>103.6</ele><time>2026-04-06T16:37:33.912Z</time></trkpt><trkpt lat="45.51998001119197" lon="10.805939950916505"><ele>102.2</ele><time>2026-04-06T16:37:34.912Z</time></trkpt><trkpt lat="45.51989379339019" lon="10.805890211027453"><ele>100.80000000000001</ele><time>2026-04-06T16:37:35.912Z</time></trkpt><trkpt lat="45.519804630216775" lon="10.805855999089511"><ele>99.4</ele><time>2026-04-06T16:37:36.912Z</time></trkpt><trkpt lat="45.519723775683815" lon="10.805812589565418"><ele>98.0</ele><time>2026-04-06T16:37:37.912Z</time></trkpt><trkpt lat="45.519655569926975" lon="10.805738085535594"><ele>98.4</ele><time>2026-04-06T16:37:38.912Z</time></trkpt><trkpt lat="45.51955973589586" lon="10.805658764614796"><ele>98.80000000000001</ele><time>2026-04-06T16:37:39.912Z</time></trkpt><trkpt lat="45.51946194332148" lon="10.80562178796943"><ele>99.2</ele><time>2026-04-06T16:37:40.912Z</time></trkpt><trkpt lat="45.51937440186374" lon="10.80557089664336"><ele>99.6</ele><time>2026-04-06T16:37:41.912Z</time></trkpt><trkpt lat="45.519291401924676" lon="10.805524536378982"><ele>100.0</ele><time>2026-04-06T16:37:42.912Z</time></trkpt><trkpt lat="45.51920910417288" lon="10.805470162729613"><ele>100.0</ele><time>2026-04-06T16:37:43.912Z</time></trkpt><trkpt lat="45.51910244823104" lon="10.805413787501209"><ele>100.0</ele><time>2026-04-06T16:37:44.912Z</time></trkpt><trkpt lat="45.51899010841445" lon="10.805390285017499"><ele>100.0</ele><time>2026-04-06T16:37:45.912Z</time></trkpt><trkpt lat="45.518865404581085" lon="10.805374013696763"><ele>100.0</ele><time>2026-04-06T16:37:46.912Z</time></trkpt><trkpt lat="45.51872435415245" lon="10.80537448011698"><ele>99.8</ele><time>2026-04-06T16:37:47.912Z</time></trkpt><trkpt lat="45.51859608705666" lon="10.805402013575957"><ele>99.6</ele><time>2026-04-06T16:37:48.912Z</time></trkpt><trkpt lat="45.518483797582434" lon="10.805434974068964"><ele>99.4</ele><time>2026-04-06T16:37:49.912Z</time></trkpt><trkpt lat="45.518385390695876" lon="10.805458480216513"><ele>99.2</ele><time>2026-04-06T16:37:50.912Z</time></trkpt><trkpt lat="45.5182857725724" lon="10.80547507289481"><ele>99.0</ele><time>2026-04-06T16:37:51.912Z</time></trkpt><trkpt lat="45.5182039442602" lon="10.805495766382547"><ele>99.0</ele><time>2026-04-06T16:37:52.912Z</time></trkpt><trkpt lat="45.51812863739773" lon="10.80549888780299"><ele>99.0</ele><time>2026-04-06T16:37:53.912Z</time></trkpt><trkpt lat="45.51801478811954" lon="10.805521100808976"><ele>99.0</ele><time>2026-04-06T16:37:55.912Z</time></trkpt><trkpt lat="45.517941716676646" lon="10.805537261804258"><ele>99.0</ele><time>2026-04-06T16:37:56.912Z</time></trkpt><trkpt lat="45.51786606420143" lon="10.805565753830914"><ele>99.0</ele><time>2026-04-06T16:37:57.912Z</time></trkpt><trkpt lat="45.517794943939" lon="10.805672409638623"><ele>99.0</ele><time>2026-04-06T16:37:58.912Z</time></trkpt><trkpt lat="45.517732173333165" lon="10.805764899262606"><ele>98.83333333333333</ele><time>2026-04-06T16:37:59.912Z</time></trkpt><trkpt lat="45.51768292486392" lon="10.80582403915051"><ele>98.66666666666666</ele><time>2026-04-06T16:38:00.912Z</time></trkpt><trkpt lat="45.51764139484068" lon="10.805906024530335"><ele>98.5</ele><time>2026-04-06T16:38:01.912Z</time></trkpt><trkpt lat="45.51763541698779" lon="10.806031255943381"><ele>98.33333333333333</ele><time>2026-04-06T16:38:02.912Z</time></trkpt><trkpt lat="45.5176521188182" lon="10.806123558850384"><ele>98.16666666666666</ele><time>2026-04-06T16:38:03.912Z</time></trkpt><trkpt lat="45.51768980275149" lon="10.80621612616271"><ele>98.0</ele><time>2026-04-06T16:38:04.912Z</time></trkpt><trkpt lat="45.517732940301215" lon="10.806331348210493"><ele>99.4</ele><time>2026-04-06T16:38:05.912Z</time></trkpt><trkpt lat="45.51777794941819" lon="10.806450539981084"><ele>100.80000000000001</ele><time>2026-04-06T16:38:06.912Z</time></trkpt><trkpt lat="45.51780353012377" lon="10.806547648473902"><ele>102.2</ele><time>2026-04-06T16:38:07.912Z</time></trkpt><trkpt lat="45.51785811693535" lon="10.806726645331175"><ele>103.6</ele><time>2026-04-06T16:38:09.912Z</time></trkpt><trkpt lat="45.51791016952936" lon="10.80684401059441"><ele>105.0</ele><time>2026-04-06T16:38:10.912Z</time></trkpt><trkpt lat="45.51795209477366" lon="10.806972950796212"><ele>106.4</ele><time>2026-04-06T16:38:11.912Z</time></trkpt><trkpt lat="45.51800041962025" lon="10.807093180559425"><ele>107.8</ele><time>2026-04-06T16:38:12.912Z</time></trkpt><trkpt lat="45.51805041600908" lon="10.807209525777939"><ele>109.19999999999999</ele><time>2026-04-06T16:38:13.912Z</time></trkpt><trkpt lat="45.518096619977044" lon="10.80734123213874"><ele>110.6</ele><time>2026-04-06T16:38:14.912Z</time></trkpt><trkpt lat="45.518135859297125" lon="10.807483954106486"><ele>112.0</ele><time>2026-04-06T16:38:15.912Z</time></trkpt><trkpt lat="45.518171471049776" lon="10.807628221672177"><ele>112.0</ele><time>2026-04-06T16:38:16.912Z</time></trkpt><trkpt lat="45.51819434866429" lon="10.807787250549024"><ele>112.0</ele><time>2026-04-06T16:38:17.912Z</time></trkpt><trkpt lat="45.51820597687226" lon="10.80794607596964"><ele>112.0</ele><time>2026-04-06T16:38:18.912Z</time></trkpt><trkpt lat="45.51819819644707" lon="10.808121574409084"><ele>112.0</ele><time>2026-04-06T16:38:19.912Z</time></trkpt><trkpt lat="45.51819752021221" lon="10.8082728445476"><ele>112.00000000000001</ele><time>2026-04-06T16:38:20.912Z</time></trkpt><trkpt lat="45.518195374863105" lon="10.808378464660946"><ele>112.0</ele><time>2026-04-06T16:38:21.912Z</time></trkpt><trkpt lat="45.5182067355674" lon="10.808518869062107"><ele>112.0</ele><time>2026-04-06T16:38:23.912Z</time></trkpt><trkpt lat="45.51820277852563" lon="10.808614722219236"><ele>112.0</ele><time>2026-04-06T16:38:24.912Z</time></trkpt><trkpt lat="45.518200618268246" lon="10.808704836125907"><ele>112.00000000000001</ele><time>2026-04-06T16:38:25.912Z</time></trkpt><trkpt lat="45.51820568529397" lon="10.808826912589064"><ele>112.0</ele><time>2026-04-06T16:38:26.912Z</time></trkpt><trkpt lat="45.518204362712474" lon="10.808959024787585"><ele>112.0</ele><time>2026-04-06T16:38:27.912Z</time></trkpt><trkpt lat="45.518201024002174" lon="10.80908168713423"><ele>111.99999999999999</ele><time>2026-04-06T16:38:28.912Z</time></trkpt><trkpt lat="45.518199274068394" lon="10.809207574995723"><ele>111.99999999999999</ele><time>2026-04-06T16:38:29.912Z</time></trkpt><trkpt lat="45.518190511758895" lon="10.8093478580747"><ele>112.0</ele><time>2026-04-06T16:38:30.912Z</time></trkpt><trkpt lat="45.51818177224083" lon="10.809539006706519"><ele>112.0</ele><time>2026-04-06T16:38:31.912Z</time></trkpt><trkpt lat="45.51817179607594" lon="10.809793006458063"><ele>112.33333333333334</ele><time>2026-04-06T16:38:32.912Z</time></trkpt><trkpt lat="45.518162201194166" lon="10.810074110356712"><ele>112.66666666666666</ele><time>2026-04-06T16:38:33.912Z</time></trkpt><trkpt lat="45.51816630922162" lon="10.810319609440173"><ele>113.0</ele><time>2026-04-06T16:38:34.912Z</time></trkpt><trkpt lat="45.51816202635384" lon="10.810524404962097"><ele>113.0</ele><time>2026-04-06T16:38:35.912Z</time></trkpt><trkpt lat="45.51815638188362" lon="10.810726396737248"><ele>113.0</ele><time>2026-04-06T16:38:36.912Z</time></trkpt><trkpt lat="45.51815371874091" lon="10.810938281146298"><ele>113.0</ele><time>2026-04-06T16:38:37.912Z</time></trkpt><trkpt lat="45.51815466639941" lon="10.811146074837222"><ele>113.0</ele><time>2026-04-06T16:38:38.912Z</time></trkpt><trkpt lat="45.51815168625557" lon="10.81133324395843"><ele>113.0</ele><time>2026-04-06T16:38:39.912Z</time></trkpt><trkpt lat="45.51815154135361" lon="10.811501059038372"><ele>113.00000000000001</ele><time>2026-04-06T16:38:40.912Z</time></trkpt><trkpt lat="45.51816563964738" lon="10.811644481083206"><ele>113.00000000000001</ele><time>2026-04-06T16:38:41.912Z</time></trkpt><trkpt lat="45.51817581771557" lon="10.811770447077379"><ele>113.0</ele><time>2026-04-06T16:38:42.912Z</time></trkpt><trkpt lat="45.51818223635502" lon="10.811895010165129"><ele>113.0</ele><time>2026-04-06T16:38:43.912Z</time></trkpt><trkpt lat="45.51818882610016" lon="10.812037009372082"><ele>113.5</ele><time>2026-04-06T16:38:44.912Z</time></trkpt><trkpt lat="45.518188465689356" lon="10.81217895851029"><ele>114.0</ele><time>2026-04-06T16:38:45.912Z</time></trkpt><trkpt lat="45.518196680611986" lon="10.812350617899245"><ele>114.5</ele><time>2026-04-06T16:38:46.912Z</time></trkpt><trkpt lat="45.518220994219824" lon="10.81256783078964"><ele>115.0</ele><time>2026-04-06T16:38:47.912Z</time></trkpt><trkpt lat="45.518229564900956" lon="10.81276657532991"><ele>115.0</ele><time>2026-04-06T16:38:48.912Z</time></trkpt><trkpt lat="45.518234060608215" lon="10.81294028730895"><ele>115.0</ele><time>2026-04-06T16:38:49.912Z</time></trkpt><trkpt lat="45.518245155410995" lon="10.813111476947892"><ele>115.0</ele><time>2026-04-06T16:38:50.912Z</time></trkpt><trkpt lat="45.51826799775564" lon="10.813277072723599"><ele>115.0</ele><time>2026-04-06T16:38:51.912Z</time></trkpt><trkpt lat="45.51828593163575" lon="10.81346537838277"><ele>115.25</ele><time>2026-04-06T16:38:52.912Z</time></trkpt><trkpt lat="45.51829572187552" lon="10.813633508844902"><ele>115.5</ele><time>2026-04-06T16:38:53.912Z</time></trkpt><trkpt lat="45.51831355602284" lon="10.813815950900244"><ele>115.75</ele><time>2026-04-06T16:38:54.912Z</time></trkpt><trkpt lat="45.518341339859504" lon="10.813961520064243"><ele>116.0</ele><time>2026-04-06T16:38:55.912Z</time></trkpt><trkpt lat="45.51836343925398" lon="10.814209006631698"><ele>116.0</ele><time>2026-04-06T16:38:56.912Z</time></trkpt><trkpt lat="45.518386663771075" lon="10.81441750795312"><ele>116.0</ele><time>2026-04-06T16:38:57.912Z</time></trkpt><trkpt lat="45.518410196835134" lon="10.814619442886478"><ele>116.0</ele><time>2026-04-06T16:38:58.912Z</time></trkpt><trkpt lat="45.51842983705048" lon="10.814806835797258"><ele>116.0</ele><time>2026-04-06T16:38:59.912Z</time></trkpt><trkpt lat="45.51844426799011" lon="10.81499501695288"><ele>115.5</ele><time>2026-04-06T16:39:00.912Z</time></trkpt><trkpt lat="45.51845383205044" lon="10.815191244661923"><ele>115.0</ele><time>2026-04-06T16:39:01.912Z</time></trkpt><trkpt lat="45.51847112144348" lon="10.815412795536155"><ele>114.5</ele><time>2026-04-06T16:39:02.912Z</time></trkpt><trkpt lat="45.51848774475052" lon="10.815630730852936"><ele>114.0</ele><time>2026-04-06T16:39:03.912Z</time></trkpt><trkpt lat="45.518506735806305" lon="10.815843581284271"><ele>113.66666666666666</ele><time>2026-04-06T16:39:04.912Z</time></trkpt><trkpt lat="45.51852073243024" lon="10.816059315493714"><ele>113.33333333333333</ele><time>2026-04-06T16:39:05.912Z</time></trkpt><trkpt lat="45.51853126247651" lon="10.816279422674276"><ele>113.0</ele><time>2026-04-06T16:39:06.912Z</time></trkpt><trkpt lat="45.51854859298836" lon="10.816494609144009"><ele>113.0</ele><time>2026-04-06T16:39:07.912Z</time></trkpt><trkpt lat="45.51856101315451" lon="10.816693674879131"><ele>113.0</ele><time>2026-04-06T16:39:08.912Z</time></trkpt><trkpt lat="45.518585130050795" lon="10.816892835705774"><ele>113.0</ele><time>2026-04-06T16:39:09.912Z</time></trkpt><trkpt lat="45.51859704829989" lon="10.817084176233694"><ele>113.0</ele><time>2026-04-06T16:39:10.912Z</time></trkpt><trkpt lat="45.518617402050666" lon="10.817273067411195"><ele>113.5</ele><time>2026-04-06T16:39:11.912Z</time></trkpt><trkpt lat="45.518642820213145" lon="10.81745238289058"><ele>114.0</ele><time>2026-04-06T16:39:12.912Z</time></trkpt><trkpt lat="45.5186669689602" lon="10.81762358722031"><ele>114.5</ele><time>2026-04-06T16:39:13.912Z</time></trkpt><trkpt lat="45.51868755136686" lon="10.81779330183389"><ele>115.0</ele><time>2026-04-06T16:39:14.912Z</time></trkpt><trkpt lat="45.5186955454504" lon="10.817938527527872"><ele>115.2</ele><time>2026-04-06T16:39:15.912Z</time></trkpt><trkpt lat="45.518710693663195" lon="10.81807007781389"><ele>115.4</ele><time>2026-04-06T16:39:16.912Z</time></trkpt><trkpt lat="45.51872818768515" lon="10.818197102189846"><ele>115.6</ele><time>2026-04-06T16:39:17.912Z</time></trkpt><trkpt lat="45.518747540653834" lon="10.818316413415511"><ele>115.8</ele><time>2026-04-06T16:39:18.912Z</time></trkpt><trkpt lat="45.51875951657544" lon="10.818423699609262"><ele>116.0</ele><time>2026-04-06T16:39:19.912Z</time></trkpt><trkpt lat="45.518773201572856" lon="10.81858320586611"><ele>115.66666666666666</ele><time>2026-04-06T16:39:21.912Z</time></trkpt><trkpt lat="45.51877085354643" lon="10.818713776298052"><ele>115.33333333333333</ele><time>2026-04-06T16:39:23.912Z</time></trkpt><trkpt lat="45.518787511704105" lon="10.818819814491581"><ele>115.0</ele><time>2026-04-06T16:39:25.912Z</time></trkpt><trkpt lat="45.518810502267286" lon="10.818948672412228"><ele>114.66666666666666</ele><time>2026-04-06T16:39:28.912Z</time></trkpt><trkpt lat="45.51882066195435" lon="10.819085826021404"><ele>114.33333333333333</ele><time>2026-04-06T16:39:30.912Z</time></trkpt><trkpt lat="45.51882771916811" lon="10.819194212130295"><ele>114.0</ele><time>2026-04-06T16:39:32.912Z</time></trkpt><trkpt lat="45.518815481760186" lon="10.819311307802609"><ele>114.0</ele><time>2026-04-06T16:39:35.912Z</time></trkpt><trkpt lat="45.518745862826876" lon="10.819416220026573"><ele>114.0</ele><time>2026-04-06T16:39:37.912Z</time></trkpt><trkpt lat="45.518716462059146" lon="10.819502017238838"><ele>114.0</ele><time>2026-04-06T16:39:38.912Z</time></trkpt><trkpt lat="45.51863037029595" lon="10.81955490394149"><ele>114.0</ele><time>2026-04-06T16:39:39.912Z</time></trkpt><trkpt lat="45.51854326054514" lon="10.819664874723363"><ele>114.0</ele><time>2026-04-06T16:39:40.912Z</time></trkpt><trkpt lat="45.518413395484245" lon="10.81982548649376"><ele>114.5</ele><time>2026-04-06T16:39:41.912Z</time></trkpt><trkpt lat="45.51822377796371" lon="10.819997675768253"><ele>115.0</ele><time>2026-04-06T16:39:42.912Z</time></trkpt><trkpt lat="45.518044083787" lon="10.82023292712115"><ele>115.0</ele><time>2026-04-06T16:39:44.912Z</time></trkpt><trkpt lat="45.51789689202444" lon="10.820384791449047"><ele>115.0</ele><time>2026-04-06T16:39:45.912Z</time></trkpt><trkpt lat="45.517749004777286" lon="10.820531872087498"><ele>115.0</ele><time>2026-04-06T16:39:46.912Z</time></trkpt><trkpt lat="45.517600263930696" lon="10.820691846164706"><ele>115.0</ele><time>2026-04-06T16:39:47.912Z</time></trkpt><trkpt lat="45.51745662213156" lon="10.820847809602405"><ele>115.0</ele><time>2026-04-06T16:39:48.912Z</time></trkpt><trkpt lat="45.517322261441564" lon="10.820993296865389"><ele>115.0</ele><time>2026-04-06T16:39:49.912Z</time></trkpt><trkpt lat="45.51719626216054" lon="10.821130968509515"><ele>114.0</ele><time>2026-04-06T16:39:50.912Z</time></trkpt><trkpt lat="45.517066085076166" lon="10.821274031817417"><ele>113.0</ele><time>2026-04-06T16:39:51.912Z</time></trkpt><trkpt lat="45.516928905644434" lon="10.821415887759887"><ele>112.0</ele><time>2026-04-06T16:39:52.912Z</time></trkpt><trkpt lat="45.51679448779921" lon="10.821561152975944"><ele>112.0</ele><time>2026-04-06T16:39:53.912Z</time></trkpt><trkpt lat="45.51665671362977" lon="10.82171078694309"><ele>112.0</ele><time>2026-04-06T16:39:54.912Z</time></trkpt><trkpt lat="45.516519554554705" lon="10.821859300274213"><ele>112.0</ele><time>2026-04-06T16:39:55.912Z</time></trkpt><trkpt lat="45.51638909768875" lon="10.821993005766664"><ele>112.33333333333334</ele><time>2026-04-06T16:39:56.912Z</time></trkpt><trkpt lat="45.51626014309251" lon="10.822118124988144"><ele>112.66666666666666</ele><time>2026-04-06T16:39:57.912Z</time></trkpt><trkpt lat="45.516132804314736" lon="10.822250589774365"><ele>113.0</ele><time>2026-04-06T16:39:58.912Z</time></trkpt><trkpt lat="45.51600494537567" lon="10.822387285497545"><ele>112.33333333333333</ele><time>2026-04-06T16:39:59.912Z</time></trkpt><trkpt lat="45.515879520879935" lon="10.822528209657262"><ele>111.66666666666666</ele><time>2026-04-06T16:40:00.912Z</time></trkpt><trkpt lat="45.51574497965306" lon="10.822673810641259"><ele>111.0</ele><time>2026-04-06T16:40:01.912Z</time></trkpt><trkpt lat="45.51559559422449" lon="10.82283166135313"><ele>111.66666666666666</ele><time>2026-04-06T16:40:02.912Z</time></trkpt><trkpt lat="45.51542803036693" lon="10.823008467075304"><ele>112.33333333333333</ele><time>2026-04-06T16:40:03.912Z</time></trkpt><trkpt lat="45.51525450994766" lon="10.823186973791627"><ele>113.0</ele><time>2026-04-06T16:40:04.912Z</time></trkpt><trkpt lat="45.515093762898395" lon="10.823353883578312"><ele>113.33333333333333</ele><time>2026-04-06T16:40:05.912Z</time></trkpt><trkpt lat="45.514938803739334" lon="10.823511835751345"><ele>113.66666666666666</ele><time>2026-04-06T16:40:06.912Z</time></trkpt><trkpt lat="45.514779687301164" lon="10.823692209831584"><ele>114.0</ele><time>2026-04-06T16:40:07.912Z</time></trkpt><trkpt lat="45.51459833376217" lon="10.823890736480557"><ele>113.0</ele><time>2026-04-06T16:40:08.912Z</time></trkpt><trkpt lat="45.5144053314969" lon="10.824104729331093"><ele>112.0</ele><time>2026-04-06T16:40:09.912Z</time></trkpt><trkpt lat="45.51420049097984" lon="10.824320948467172"><ele>114.0</ele><time>2026-04-06T16:40:10.912Z</time></trkpt><trkpt lat="45.513990849533855" lon="10.824541917368958"><ele>116.0</ele><time>2026-04-06T16:40:11.912Z</time></trkpt><trkpt lat="45.51379456698072" lon="10.824746864167276"><ele>116.66666666666666</ele><time>2026-04-06T16:40:12.912Z</time></trkpt><trkpt lat="45.51361758057416" lon="10.82493463958949"><ele>117.33333333333334</ele><time>2026-04-06T16:40:13.912Z</time></trkpt><trkpt lat="45.51344952672819" lon="10.825108611859205"><ele>118.0</ele><time>2026-04-06T16:40:14.912Z</time></trkpt><trkpt lat="45.51328324477954" lon="10.82528093988152"><ele>118.66666666666667</ele><time>2026-04-06T16:40:15.912Z</time></trkpt><trkpt lat="45.51312448359283" lon="10.825436285554106"><ele>119.33333333333334</ele><time>2026-04-06T16:40:16.912Z</time></trkpt><trkpt lat="45.51297360621529" lon="10.82559502184444"><ele>120.0</ele><time>2026-04-06T16:40:17.912Z</time></trkpt><trkpt lat="45.51281721714212" lon="10.825763480815143"><ele>118.33333333333334</ele><time>2026-04-06T16:40:18.912Z</time></trkpt><trkpt lat="45.512662315611614" lon="10.825932009699592"><ele>116.66666666666667</ele><time>2026-04-06T16:40:19.912Z</time></trkpt><trkpt lat="45.51250508133892" lon="10.826097186730973"><ele>115.0</ele><time>2026-04-06T16:40:20.912Z</time></trkpt><trkpt lat="45.51235393853999" lon="10.826260520760705"><ele>115.0</ele><time>2026-04-06T16:40:21.912Z</time></trkpt><trkpt lat="45.51221057861726" lon="10.826410518570453"><ele>115.0</ele><time>2026-04-06T16:40:22.912Z</time></trkpt><trkpt lat="45.51207480300343" lon="10.826549233996005"><ele>115.0</ele><time>2026-04-06T16:40:23.912Z</time></trkpt><trkpt lat="45.51194198465251" lon="10.826696057973141"><ele>116.33333333333334</ele><time>2026-04-06T16:40:24.912Z</time></trkpt><trkpt lat="45.51181775524642" lon="10.826824610232727"><ele>117.66666666666666</ele><time>2026-04-06T16:40:25.912Z</time></trkpt><trkpt lat="45.5116877249841" lon="10.826972943639095"><ele>119.0</ele><time>2026-04-06T16:40:26.912Z</time></trkpt><trkpt lat="45.51151772117694" lon="10.82713913539094"><ele>119.0</ele><time>2026-04-06T16:40:27.912Z</time></trkpt><trkpt lat="45.511377672735776" lon="10.827272556732215"><ele>119.0</ele><time>2026-04-06T16:40:28.912Z</time></trkpt><trkpt lat="45.511278892581316" lon="10.827382921884983"><ele>119.0</ele><time>2026-04-06T16:40:29.912Z</time></trkpt><trkpt lat="45.5111376696386" lon="10.82753394480801"><ele>118.0</ele><time>2026-04-06T16:40:30.912Z</time></trkpt><trkpt lat="45.5109865809326" lon="10.827697234455718"><ele>117.0</ele><time>2026-04-06T16:40:31.912Z</time></trkpt><trkpt lat="45.51082344662867" lon="10.827872757885212"><ele>116.0</ele><time>2026-04-06T16:40:32.912Z</time></trkpt><trkpt lat="45.51064961186128" lon="10.828052645484004"><ele>116.0</ele><time>2026-04-06T16:40:33.912Z</time></trkpt><trkpt lat="45.51047039561535" lon="10.828244614324907"><ele>116.0</ele><time>2026-04-06T16:40:34.912Z</time></trkpt><trkpt lat="45.510295376332515" lon="10.828439389012372"><ele>116.0</ele><time>2026-04-06T16:40:35.912Z</time></trkpt><trkpt lat="45.51013517526" lon="10.828611799356034"><ele>116.33333333333333</ele><time>2026-04-06T16:40:36.912Z</time></trkpt><trkpt lat="45.50998934135238" lon="10.828769336847357"><ele>116.66666666666666</ele><time>2026-04-06T16:40:37.912Z</time></trkpt><trkpt lat="45.50984765433004" lon="10.828929182877514"><ele>117.0</ele><time>2026-04-06T16:40:38.912Z</time></trkpt><trkpt lat="45.50970207293013" lon="10.829084914472082"><ele>117.33333333333334</ele><time>2026-04-06T16:40:39.912Z</time></trkpt><trkpt lat="45.50955256210307" lon="10.829252638288594"><ele>117.66666666666667</ele><time>2026-04-06T16:40:40.912Z</time></trkpt><trkpt lat="45.50941011793306" lon="10.82942575714763"><ele>118.0</ele><time>2026-04-06T16:40:41.912Z</time></trkpt><trkpt lat="45.50928043967712" lon="10.82959423255433"><ele>118.0</ele><time>2026-04-06T16:40:42.912Z</time></trkpt><trkpt lat="45.50915531949425" lon="10.829778395470484"><ele>118.0</ele><time>2026-04-06T16:40:43.912Z</time></trkpt><trkpt lat="45.50903593705478" lon="10.829974499993888"><ele>118.0</ele><time>2026-04-06T16:40:44.912Z</time></trkpt><trkpt lat="45.508929160486886" lon="10.830171111231127"><ele>118.0</ele><time>2026-04-06T16:40:45.912Z</time></trkpt><trkpt lat="45.508830539789926" lon="10.830357770950695"><ele>118.0</ele><time>2026-04-06T16:40:46.912Z</time></trkpt><trkpt lat="45.5087373190924" lon="10.830550393684243"><ele>118.0</ele><time>2026-04-06T16:40:47.912Z</time></trkpt><trkpt lat="45.50864723943158" lon="10.830731428423658"><ele>118.0</ele><time>2026-04-06T16:40:48.912Z</time></trkpt><trkpt lat="45.50856152100211" lon="10.83091310160635"><ele>118.0</ele><time>2026-04-06T16:40:49.912Z</time></trkpt><trkpt lat="45.50848973973915" lon="10.831090104248872"><ele>118.0</ele><time>2026-04-06T16:40:50.912Z</time></trkpt><trkpt lat="45.50842319757508" lon="10.83128002049484"><ele>118.0</ele><time>2026-04-06T16:40:51.912Z</time></trkpt><trkpt lat="45.50835631069213" lon="10.831505022689495"><ele>117.33333333333334</ele><time>2026-04-06T16:40:52.912Z</time></trkpt><trkpt lat="45.508289317902836" lon="10.831731324182932"><ele>116.66666666666666</ele><time>2026-04-06T16:40:53.912Z</time></trkpt><trkpt lat="45.50822869028303" lon="10.831931864128869"><ele>116.0</ele><time>2026-04-06T16:40:54.912Z</time></trkpt><trkpt lat="45.508173212796244" lon="10.832138277639864"><ele>116.5</ele><time>2026-04-06T16:40:55.912Z</time></trkpt><trkpt lat="45.50812342736874" lon="10.832340283984419"><ele>117.0</ele><time>2026-04-06T16:40:56.912Z</time></trkpt><trkpt lat="45.508080448950274" lon="10.832544061915966"><ele>117.5</ele><time>2026-04-06T16:40:57.912Z</time></trkpt><trkpt lat="45.50803020250672" lon="10.832746185866327"><ele>118.0</ele><time>2026-04-06T16:40:58.912Z</time></trkpt><trkpt lat="45.50798369445986" lon="10.832964132283328"><ele>118.0</ele><time>2026-04-06T16:40:59.912Z</time></trkpt><trkpt lat="45.507929814437325" lon="10.833204002958661"><ele>118.0</ele><time>2026-04-06T16:41:00.912Z</time></trkpt><trkpt lat="45.50787425228774" lon="10.83343791910619"><ele>118.0</ele><time>2026-04-06T16:41:01.912Z</time></trkpt><trkpt lat="45.507810033759064" lon="10.833700569182628"><ele>119.0</ele><time>2026-04-06T16:41:02.912Z</time></trkpt><trkpt lat="45.50774478520228" lon="10.833976225968538"><ele>120.0</ele><time>2026-04-06T16:41:03.912Z</time></trkpt><trkpt lat="45.50767713986816" lon="10.834257057309886"><ele>121.0</ele><time>2026-04-06T16:41:04.912Z</time></trkpt><trkpt lat="45.50761596208685" lon="10.834526212478602"><ele>121.0</ele><time>2026-04-06T16:41:05.912Z</time></trkpt><trkpt lat="45.50756065611009" lon="10.834791988895727"><ele>121.0</ele><time>2026-04-06T16:41:06.912Z</time></trkpt><trkpt lat="45.507509383001555" lon="10.835062864268878"><ele>121.0</ele><time>2026-04-06T16:41:07.912Z</time></trkpt><trkpt lat="45.50745627847208" lon="10.835328044067802"><ele>121.0</ele><time>2026-04-06T16:41:08.912Z</time></trkpt><trkpt lat="45.507405239471034" lon="10.8355955042644"><ele>121.0</ele><time>2026-04-06T16:41:09.912Z</time></trkpt><trkpt lat="45.50735899907706" lon="10.835857970867762"><ele>121.0</ele><time>2026-04-06T16:41:10.912Z</time></trkpt><trkpt lat="45.507322786509235" lon="10.836108208426223"><ele>121.66666666666667</ele><time>2026-04-06T16:41:11.912Z</time></trkpt><trkpt lat="45.50728998510821" lon="10.83635520136691"><ele>122.33333333333334</ele><time>2026-04-06T16:41:12.912Z</time></trkpt><trkpt lat="45.50725487607409" lon="10.836600206593378"><ele>123.0</ele><time>2026-04-06T16:41:13.912Z</time></trkpt><trkpt lat="45.507218444192695" lon="10.836836544589442"><ele>123.0</ele><time>2026-04-06T16:41:14.912Z</time></trkpt><trkpt lat="45.507186190779706" lon="10.837067100707177"><ele>123.0</ele><time>2026-04-06T16:41:15.912Z</time></trkpt><trkpt lat="45.507149179022434" lon="10.837304856996536"><ele>123.0</ele><time>2026-04-06T16:41:16.912Z</time></trkpt><trkpt lat="45.50711371058509" lon="10.837544595909073"><ele>122.66666666666666</ele><time>2026-04-06T16:41:17.912Z</time></trkpt><trkpt lat="45.50708042080617" lon="10.837789102817917"><ele>122.33333333333333</ele><time>2026-04-06T16:41:18.912Z</time></trkpt><trkpt lat="45.50704509846703" lon="10.838036821604566"><ele>122.0</ele><time>2026-04-06T16:41:19.912Z</time></trkpt><trkpt lat="45.50700876820834" lon="10.838283272875247"><ele>121.33333333333333</ele><time>2026-04-06T16:41:20.912Z</time></trkpt><trkpt lat="45.506969755746574" lon="10.838533486971727"><ele>120.66666666666666</ele><time>2026-04-06T16:41:21.912Z</time></trkpt><trkpt lat="45.50693685445857" lon="10.838787168855287"><ele>120.0</ele><time>2026-04-06T16:41:22.912Z</time></trkpt><trkpt lat="45.50690629600549" lon="10.839040361888353"><ele>120.0</ele><time>2026-04-06T16:41:23.912Z</time></trkpt><trkpt lat="45.506875483331285" lon="10.839284740077744"><ele>120.0</ele><time>2026-04-06T16:41:24.912Z</time></trkpt><trkpt lat="45.50684201957746" lon="10.839515117186224"><ele>120.0</ele><time>2026-04-06T16:41:25.912Z</time></trkpt><trkpt lat="45.5068063532947" lon="10.839728275017348"><ele>120.0</ele><time>2026-04-06T16:41:26.912Z</time></trkpt><trkpt lat="45.50677154852858" lon="10.839932853866989"><ele>120.0</ele><time>2026-04-06T16:41:27.912Z</time></trkpt><trkpt lat="45.50673970984316" lon="10.84013744523312"><ele>120.0</ele><time>2026-04-06T16:41:28.912Z</time></trkpt><trkpt lat="45.5067117743054" lon="10.840335366494324"><ele>120.0</ele><time>2026-04-06T16:41:29.912Z</time></trkpt><trkpt lat="45.50668021929626" lon="10.840521535157713"><ele>120.0</ele><time>2026-04-06T16:41:30.912Z</time></trkpt><trkpt lat="45.50664961716791" lon="10.840703224471365"><ele>120.0</ele><time>2026-04-06T16:41:31.912Z</time></trkpt><trkpt lat="45.50661854157066" lon="10.84087664980308"><ele>120.0</ele><time>2026-04-06T16:41:32.912Z</time></trkpt><trkpt lat="45.5065819823384" lon="10.841039981519186"><ele>120.0</ele><time>2026-04-06T16:41:33.912Z</time></trkpt><trkpt lat="45.50655199547396" lon="10.841190586537953"><ele>120.0</ele><time>2026-04-06T16:41:34.912Z</time></trkpt><trkpt lat="45.50652234341303" lon="10.841347749449136"><ele>120.0</ele><time>2026-04-06T16:41:35.912Z</time></trkpt><trkpt lat="45.50649255558635" lon="10.841496760099913"><ele>120.0</ele><time>2026-04-06T16:41:36.912Z</time></trkpt><trkpt lat="45.50646403679993" lon="10.84163399451971"><ele>120.0</ele><time>2026-04-06T16:41:37.912Z</time></trkpt><trkpt lat="45.506437357250626" lon="10.84175722363492"><ele>120.0</ele><time>2026-04-06T16:41:38.912Z</time></trkpt><trkpt lat="45.506410965579654" lon="10.841874159839419"><ele>119.66666666666667</ele><time>2026-04-06T16:41:39.912Z</time></trkpt><trkpt lat="45.506388119786926" lon="10.841960548678482"><ele>119.33333333333334</ele><time>2026-04-06T16:41:40.912Z</time></trkpt><trkpt lat="45.50635986170953" lon="10.842087004042213"><ele>119.0</ele><time>2026-04-06T16:41:42.912Z</time></trkpt><trkpt lat="45.506338525421725" lon="10.842177629966892"><ele>118.66666666666667</ele><time>2026-04-06T16:41:44.912Z</time></trkpt><trkpt lat="45.5063117606645" lon="10.842293524895418"><ele>118.33333333333334</ele><time>2026-04-06T16:41:47.912Z</time></trkpt><trkpt lat="45.506291348278594" lon="10.842396137079827"><ele>118.0</ele><time>2026-04-06T16:41:56.912Z</time></trkpt><trkpt lat="45.506278081103" lon="10.842508150100564"><ele>118.00000000000001</ele><time>2026-04-06T16:41:59.912Z</time></trkpt><trkpt lat="45.50626391605558" lon="10.842621591483068"><ele>118.0</ele><time>2026-04-06T16:42:03.912Z</time></trkpt><trkpt lat="45.506233050608095" lon="10.842731406230275"><ele>118.0</ele><time>2026-04-06T16:42:06.912Z</time></trkpt><trkpt lat="45.50618121865155" lon="10.842822674533329"><ele>118.0</ele><time>2026-04-06T16:42:08.912Z</time></trkpt><trkpt lat="45.50612982826499" lon="10.84298096624473"><ele>118.00000000000001</ele><time>2026-04-06T16:42:10.912Z</time></trkpt><trkpt lat="45.50612482458532" lon="10.843070847096469"><ele>118.0</ele><time>2026-04-06T16:42:11.912Z</time></trkpt><trkpt lat="45.506136007830236" lon="10.843232945744695"><ele>118.4</ele><time>2026-04-06T16:42:13.912Z</time></trkpt><trkpt lat="45.5061229187917" lon="10.843341696314916"><ele>118.80000000000001</ele><time>2026-04-06T16:42:14.912Z</time></trkpt><trkpt lat="45.50609336925702" lon="10.843473531729664"><ele>119.2</ele><time>2026-04-06T16:42:15.912Z</time></trkpt><trkpt lat="45.50606201835949" lon="10.84360267394084"><ele>119.6</ele><time>2026-04-06T16:42:16.912Z</time></trkpt><trkpt lat="45.50602265398953" lon="10.843746975783198"><ele>120.0</ele><time>2026-04-06T16:42:17.912Z</time></trkpt><trkpt lat="45.50597955315814" lon="10.843971801654689"><ele>120.25</ele><time>2026-04-06T16:42:18.912Z</time></trkpt><trkpt lat="45.505945723478476" lon="10.844162129727085"><ele>120.5</ele><time>2026-04-06T16:42:19.912Z</time></trkpt><trkpt lat="45.505906371853264" lon="10.844328473175548"><ele>120.75</ele><time>2026-04-06T16:42:20.912Z</time></trkpt><trkpt lat="45.50587449593715" lon="10.844492889209228"><ele>121.0</ele><time>2026-04-06T16:42:21.912Z</time></trkpt><trkpt lat="45.50583928690847" lon="10.844660490702502"><ele>121.0</ele><time>2026-04-06T16:42:22.912Z</time></trkpt><trkpt lat="45.50578911415496" lon="10.844834192096483"><ele>121.0</ele><time>2026-04-06T16:42:23.912Z</time></trkpt><trkpt lat="45.50572418152929" lon="10.845023200796632"><ele>121.0</ele><time>2026-04-06T16:42:24.912Z</time></trkpt><trkpt lat="45.50563138940044" lon="10.845255738006125"><ele>120.66666666666667</ele><time>2026-04-06T16:42:25.912Z</time></trkpt><trkpt lat="45.50552940798986" lon="10.845509223343262"><ele>120.33333333333334</ele><time>2026-04-06T16:42:26.912Z</time></trkpt><trkpt lat="45.50542559130636" lon="10.84572026029372"><ele>120.0</ele><time>2026-04-06T16:42:27.912Z</time></trkpt><trkpt lat="45.50531223031072" lon="10.84592683611829"><ele>119.66666666666666</ele><time>2026-04-06T16:42:28.912Z</time></trkpt><trkpt lat="45.50518175709423" lon="10.846145218301498"><ele>119.33333333333333</ele><time>2026-04-06T16:42:29.912Z</time></trkpt><trkpt lat="45.505043653572336" lon="10.846393215614938"><ele>119.0</ele><time>2026-04-06T16:42:30.912Z</time></trkpt><trkpt lat="45.50492302764514" lon="10.84662581246536"><ele>119.66666666666666</ele><time>2026-04-06T16:42:31.912Z</time></trkpt><trkpt lat="45.50481425238617" lon="10.846842675412113"><ele>120.33333333333334</ele><time>2026-04-06T16:42:32.912Z</time></trkpt><trkpt lat="45.50471492715831" lon="10.847046125314037"><ele>121.0</ele><time>2026-04-06T16:42:33.912Z</time></trkpt><trkpt lat="45.50462877559184" lon="10.847254933196133"><ele>120.33333333333334</ele><time>2026-04-06T16:42:34.912Z</time></trkpt><trkpt lat="45.50455232476421" lon="10.847475547590252"><ele>119.66666666666666</ele><time>2026-04-06T16:42:35.912Z</time></trkpt><trkpt lat="45.50447532698075" lon="10.847702192797769"><ele>119.0</ele><time>2026-04-06T16:42:36.912Z</time></trkpt><trkpt lat="45.504401754684245" lon="10.847933359999187"><ele>118.66666666666666</ele><time>2026-04-06T16:42:37.912Z</time></trkpt><trkpt lat="45.504327215308834" lon="10.84816887914476"><ele>118.33333333333334</ele><time>2026-04-06T16:42:38.912Z</time></trkpt><trkpt lat="45.504255370989895" lon="10.848406333107183"><ele>118.0</ele><time>2026-04-06T16:42:39.912Z</time></trkpt><trkpt lat="45.50417710351952" lon="10.848651977753317"><ele>118.0</ele><time>2026-04-06T16:42:40.912Z</time></trkpt><trkpt lat="45.504102056709115" lon="10.848907602791204"><ele>118.0</ele><time>2026-04-06T16:42:41.912Z</time></trkpt><trkpt lat="45.50402315688935" lon="10.849205243844814"><ele>118.0</ele><time>2026-04-06T16:42:42.912Z</time></trkpt><trkpt lat="45.50393533623544" lon="10.849527287205934"><ele>117.5</ele><time>2026-04-06T16:42:43.912Z</time></trkpt><trkpt lat="45.503845919749516" lon="10.8498757027359"><ele>117.0</ele><time>2026-04-06T16:42:44.912Z</time></trkpt><trkpt lat="45.50376009764174" lon="10.850205589998179"><ele>117.0</ele><time>2026-04-06T16:42:45.912Z</time></trkpt><trkpt lat="45.50368112307457" lon="10.85051908977767"><ele>117.0</ele><time>2026-04-06T16:42:46.912Z</time></trkpt><trkpt lat="45.503602829201874" lon="10.850819691022753"><ele>116.5</ele><time>2026-04-06T16:42:47.912Z</time></trkpt><trkpt lat="45.5035171895025" lon="10.851111977741269"><ele>116.0</ele><time>2026-04-06T16:42:48.912Z</time></trkpt><trkpt lat="45.503415819720324" lon="10.851417476728045"><ele>116.0</ele><time>2026-04-06T16:42:49.912Z</time></trkpt><trkpt lat="45.50330116067914" lon="10.851715407018961"><ele>116.0</ele><time>2026-04-06T16:42:50.912Z</time></trkpt><trkpt lat="45.503246489284024" lon="10.851842328995135"><ele>116.0</ele><time>2026-04-06T16:42:51.912Z</time></trkpt><trkpt lat="45.5031588357104" lon="10.852065151374084"><ele>116.0</ele><time>2026-04-06T16:42:52.912Z</time></trkpt><trkpt lat="45.503064082629514" lon="10.852281426957976"><ele>116.0</ele><time>2026-04-06T16:42:53.912Z</time></trkpt><trkpt lat="45.50296956791125" lon="10.852510977529796"><ele>116.0</ele><time>2026-04-06T16:42:54.912Z</time></trkpt><trkpt lat="45.502878822720454" lon="10.852742139196963"><ele>116.0</ele><time>2026-04-06T16:42:55.912Z</time></trkpt><trkpt lat="45.502787848478256" lon="10.85298060085658"><ele>116.0</ele><time>2026-04-06T16:42:56.912Z</time></trkpt><trkpt lat="45.502698818568874" lon="10.853224358172142"><ele>116.0</ele><time>2026-04-06T16:42:57.912Z</time></trkpt><trkpt lat="45.502608598668196" lon="10.853469748749209"><ele>115.33333333333333</ele><time>2026-04-06T16:42:58.912Z</time></trkpt><trkpt lat="45.502520745728035" lon="10.853723297408393"><ele>114.66666666666666</ele><time>2026-04-06T16:42:59.912Z</time></trkpt><trkpt lat="45.50243124397636" lon="10.853977415076367"><ele>114.0</ele><time>2026-04-06T16:43:00.912Z</time></trkpt><trkpt lat="45.50233879280202" lon="10.854227355407223"><ele>114.0</ele><time>2026-04-06T16:43:01.912Z</time></trkpt><trkpt lat="45.502244733484645" lon="10.854481212414388"><ele>114.0</ele><time>2026-04-06T16:43:02.912Z</time></trkpt><trkpt lat="45.502158194524526" lon="10.854720984395199"><ele>114.0</ele><time>2026-04-06T16:43:03.912Z</time></trkpt><trkpt lat="45.50207842121715" lon="10.854965302536984"><ele>113.66666666666666</ele><time>2026-04-06T16:43:04.912Z</time></trkpt><trkpt lat="45.50199481454588" lon="10.855212811354122"><ele>113.33333333333333</ele><time>2026-04-06T16:43:05.912Z</time></trkpt><trkpt lat="45.50191071506077" lon="10.855455937224592"><ele>113.0</ele><time>2026-04-06T16:43:06.912Z</time></trkpt><trkpt lat="45.50182020328998" lon="10.855700470195973"><ele>113.0</ele><time>2026-04-06T16:43:07.912Z</time></trkpt><trkpt lat="45.5017321047564" lon="10.855941599256045"><ele>113.0</ele><time>2026-04-06T16:43:08.912Z</time></trkpt><trkpt lat="45.50165288940044" lon="10.856173689582253"><ele>113.0</ele><time>2026-04-06T16:43:09.912Z</time></trkpt><trkpt lat="45.50157854339165" lon="10.856392899073294"><ele>113.0</ele><time>2026-04-06T16:43:10.912Z</time></trkpt><trkpt lat="45.50150598419815" lon="10.856615980098345"><ele>113.0</ele><time>2026-04-06T16:43:11.912Z</time></trkpt><trkpt lat="45.50143744241931" lon="10.856821989565379"><ele>113.0</ele><time>2026-04-06T16:43:12.912Z</time></trkpt><trkpt lat="45.50136744799765" lon="10.857018878959419"><ele>113.25</ele><time>2026-04-06T16:43:13.912Z</time></trkpt><trkpt lat="45.50130818241382" lon="10.85720116963394"><ele>113.5</ele><time>2026-04-06T16:43:14.912Z</time></trkpt><trkpt lat="45.50124650092109" lon="10.857349140797462"><ele>113.75</ele><time>2026-04-06T16:43:15.912Z</time></trkpt><trkpt lat="45.50119230050765" lon="10.857493176597714"><ele>114.0</ele><time>2026-04-06T16:43:16.912Z</time></trkpt><trkpt lat="45.50112822552546" lon="10.857646232547832"><ele>114.0</ele><time>2026-04-06T16:43:17.912Z</time></trkpt><trkpt lat="45.50107334721152" lon="10.85778720789964"><ele>114.0</ele><time>2026-04-06T16:43:18.912Z</time></trkpt><trkpt lat="45.50102208462361" lon="10.857924496985483"><ele>114.0</ele><time>2026-04-06T16:43:19.912Z</time></trkpt><trkpt lat="45.50096993317909" lon="10.858062026044303"><ele>114.0</ele><time>2026-04-06T16:43:20.912Z</time></trkpt><trkpt lat="45.50091457681518" lon="10.858204340990634"><ele>114.0</ele><time>2026-04-06T16:43:21.912Z</time></trkpt><trkpt lat="45.50085955697992" lon="10.858330525542964"><ele>114.0</ele><time>2026-04-06T16:43:22.912Z</time></trkpt><trkpt lat="45.500803001696376" lon="10.858447496221794"><ele>114.0</ele><time>2026-04-06T16:43:23.912Z</time></trkpt><trkpt lat="45.50074730265436" lon="10.858561349790394"><ele>114.0</ele><time>2026-04-06T16:43:24.912Z</time></trkpt><trkpt lat="45.50069604161937" lon="10.85865379512559"><ele>114.0</ele><time>2026-04-06T16:43:25.912Z</time></trkpt><trkpt lat="45.500640869477905" lon="10.858798943939473"><ele>114.0</ele><time>2026-04-06T16:43:26.912Z</time></trkpt><trkpt lat="45.500578603123294" lon="10.85891822406573"><ele>114.0</ele><time>2026-04-06T16:43:27.912Z</time></trkpt><trkpt lat="45.50051053239752" lon="10.859050053469897"><ele>114.0</ele><time>2026-04-06T16:43:28.912Z</time></trkpt><trkpt lat="45.50044578790245" lon="10.859195347755483"><ele>114.0</ele><time>2026-04-06T16:43:29.912Z</time></trkpt><trkpt lat="45.500379351008036" lon="10.859343111401687"><ele>114.0</ele><time>2026-04-06T16:43:30.912Z</time></trkpt><trkpt lat="45.50031272129504" lon="10.859481997028048"><ele>114.0</ele><time>2026-04-06T16:43:31.912Z</time></trkpt><trkpt lat="45.5002442819375" lon="10.859618426218168"><ele>114.0</ele><time>2026-04-06T16:43:32.912Z</time></trkpt><trkpt lat="45.50017852698811" lon="10.859758202958494"><ele>114.0</ele><time>2026-04-06T16:43:33.912Z</time></trkpt><trkpt lat="45.500110027964645" lon="10.859900159538668"><ele>114.0</ele><time>2026-04-06T16:43:34.912Z</time></trkpt><trkpt lat="45.50004914024979" lon="10.860037615397532"><ele>113.5</ele><time>2026-04-06T16:43:35.912Z</time></trkpt><trkpt lat="45.49998097773108" lon="10.860177236861862"><ele>113.0</ele><time>2026-04-06T16:43:36.912Z</time></trkpt><trkpt lat="45.499915707461746" lon="10.860315037598975"><ele>112.5</ele><time>2026-04-06T16:43:37.912Z</time></trkpt><trkpt lat="45.49984547032297" lon="10.860445816616338"><ele>112.0</ele><time>2026-04-06T16:43:38.912Z</time></trkpt><trkpt lat="45.49976913231702" lon="10.860578083511324"><ele>112.0</ele><time>2026-04-06T16:43:39.912Z</time></trkpt><trkpt lat="45.49969176043994" lon="10.860712111139533"><ele>112.0</ele><time>2026-04-06T16:43:40.912Z</time></trkpt><trkpt lat="45.49961630880792" lon="10.860842522819874"><ele>112.0</ele><time>2026-04-06T16:43:41.912Z</time></trkpt><trkpt lat="45.49953869580456" lon="10.860972247185192"><ele>112.0</ele><time>2026-04-06T16:43:42.912Z</time></trkpt><trkpt lat="45.49946406303624" lon="10.861087211133201"><ele>111.39999999999999</ele><time>2026-04-06T16:43:43.912Z</time></trkpt><trkpt lat="45.499393248621104" lon="10.861200118785048"><ele>110.79999999999998</ele><time>2026-04-06T16:43:44.912Z</time></trkpt><trkpt lat="45.49932979517717" lon="10.861309117337381"><ele>110.2</ele><time>2026-04-06T16:43:45.912Z</time></trkpt><trkpt lat="45.499261001571085" lon="10.861414655742838"><ele>109.6</ele><time>2026-04-06T16:43:46.912Z</time></trkpt><trkpt lat="45.49918883456445" lon="10.86148136817718"><ele>109.0</ele><time>2026-04-06T16:43:47.912Z</time></trkpt><trkpt lat="45.499098735615526" lon="10.861524231073897"><ele>109.0</ele><time>2026-04-06T16:43:48.912Z</time></trkpt><trkpt lat="45.49900711536751" lon="10.86153602284044"><ele>109.0</ele><time>2026-04-06T16:43:49.912Z</time></trkpt><trkpt lat="45.498905068872205" lon="10.861522782210663"><ele>109.0</ele><time>2026-04-06T16:43:50.912Z</time></trkpt><trkpt lat="45.49880769143639" lon="10.861474417012474"><ele>109.0</ele><time>2026-04-06T16:43:51.912Z</time></trkpt><trkpt lat="45.49871841573849" lon="10.86140446844751"><ele>109.0</ele><time>2026-04-06T16:43:52.912Z</time></trkpt><trkpt lat="45.4986280172991" lon="10.861337080207772"><ele>108.80000000000001</ele><time>2026-04-06T16:43:53.912Z</time></trkpt><trkpt lat="45.498537069419214" lon="10.861279702123568"><ele>108.60000000000001</ele><time>2026-04-06T16:43:54.912Z</time></trkpt><trkpt lat="45.49844799680187" lon="10.86122047203723"><ele>108.4</ele><time>2026-04-06T16:43:55.912Z</time></trkpt><trkpt lat="45.498357906819734" lon="10.86116513882721"><ele>108.2</ele><time>2026-04-06T16:43:56.912Z</time></trkpt><trkpt lat="45.4982650447724" lon="10.86110065556215"><ele>108.0</ele><time>2026-04-06T16:43:57.912Z</time></trkpt><trkpt lat="45.498159491280894" lon="10.86103586956474"><ele>108.0</ele><time>2026-04-06T16:43:58.912Z</time></trkpt><trkpt lat="45.49804707301604" lon="10.860957835160287"><ele>108.0</ele><time>2026-04-06T16:43:59.912Z</time></trkpt><trkpt lat="45.49793051872193" lon="10.860865644111975"><ele>108.0</ele><time>2026-04-06T16:44:00.912Z</time></trkpt><trkpt lat="45.49781415412546" lon="10.860756695844596"><ele>108.0</ele><time>2026-04-06T16:44:01.912Z</time></trkpt><trkpt lat="45.49769904953504" lon="10.860626056012658"><ele>107.66666666666666</ele><time>2026-04-06T16:44:02.912Z</time></trkpt><trkpt lat="45.49758687447624" lon="10.86047439978285"><ele>107.33333333333333</ele><time>2026-04-06T16:44:03.912Z</time></trkpt><trkpt lat="45.497454038406275" lon="10.860313131152457"><ele>107.0</ele><time>2026-04-06T16:44:04.912Z</time></trkpt><trkpt lat="45.49732707562901" lon="10.860148062960908"><ele>108.0</ele><time>2026-04-06T16:44:05.912Z</time></trkpt><trkpt lat="45.497210205958055" lon="10.859986973090164"><ele>109.0</ele><time>2026-04-06T16:44:06.912Z</time></trkpt><trkpt lat="45.49706585717609" lon="10.859821113599372"><ele>110.0</ele><time>2026-04-06T16:44:07.912Z</time></trkpt><trkpt lat="45.4969093449682" lon="10.859640389965913"><ele>110.0</ele><time>2026-04-06T16:44:08.912Z</time></trkpt><trkpt lat="45.49673427112698" lon="10.85945380392422"><ele>110.0</ele><time>2026-04-06T16:44:09.912Z</time></trkpt><trkpt lat="45.49655568641276" lon="10.859273273596271"><ele>110.0</ele><time>2026-04-06T16:44:10.912Z</time></trkpt><trkpt lat="45.49636348643159" lon="10.859099497969172"><ele>108.0</ele><time>2026-04-06T16:44:11.912Z</time></trkpt><trkpt lat="45.496150528424444" lon="10.858926215408717"><ele>106.0</ele><time>2026-04-06T16:44:12.912Z</time></trkpt><trkpt lat="45.495915027713195" lon="10.858753753804914"><ele>106.0</ele><time>2026-04-06T16:44:13.912Z</time></trkpt><trkpt lat="45.49565769879729" lon="10.858599909089943"><ele>106.0</ele><time>2026-04-06T16:44:14.912Z</time></trkpt><trkpt lat="45.49540700293812" lon="10.858459104058275"><ele>105.5</ele><time>2026-04-06T16:44:15.912Z</time></trkpt><trkpt lat="45.49517072938001" lon="10.85837504499594"><ele>105.0</ele><time>2026-04-06T16:44:16.912Z</time></trkpt><trkpt lat="45.49492978838408" lon="10.858283978934335"><ele>105.0</ele><time>2026-04-06T16:44:17.912Z</time></trkpt><trkpt lat="45.49466975704331" lon="10.858204798485044"><ele>105.0</ele><time>2026-04-06T16:44:18.912Z</time></trkpt><trkpt lat="45.49439850994029" lon="10.8581495070061"><ele>104.5</ele><time>2026-04-06T16:44:19.912Z</time></trkpt><trkpt lat="45.494121119806366" lon="10.85812222065051"><ele>104.0</ele><time>2026-04-06T16:44:20.912Z</time></trkpt><trkpt lat="45.493842159932605" lon="10.858109854776382"><ele>104.5</ele><time>2026-04-06T16:44:21.912Z</time></trkpt><trkpt lat="45.49357741484017" lon="10.858118749340626"><ele>105.0</ele><time>2026-04-06T16:44:22.912Z</time></trkpt><trkpt lat="45.49332523963851" lon="10.858146603064823"><ele>105.0</ele><time>2026-04-06T16:44:23.912Z</time></trkpt><trkpt lat="45.493080682455506" lon="10.858176672253002"><ele>105.0</ele><time>2026-04-06T16:44:24.912Z</time></trkpt><trkpt lat="45.49285058460384" lon="10.858195412625266"><ele>104.66666666666666</ele><time>2026-04-06T16:44:25.912Z</time></trkpt><trkpt lat="45.492630992066275" lon="10.858212007941079"><ele>104.33333333333333</ele><time>2026-04-06T16:44:26.912Z</time></trkpt><trkpt lat="45.49241779706941" lon="10.858226355361548"><ele>104.0</ele><time>2026-04-06T16:44:27.912Z</time></trkpt><trkpt lat="45.492199207150506" lon="10.858243144064692"><ele>102.33333333333333</ele><time>2026-04-06T16:44:28.912Z</time></trkpt><trkpt lat="45.49197787044126" lon="10.858259257937336"><ele>100.66666666666666</ele><time>2026-04-06T16:44:29.912Z</time></trkpt><trkpt lat="45.4917576746715" lon="10.858274564472739"><ele>99.0</ele><time>2026-04-06T16:44:30.912Z</time></trkpt><trkpt lat="45.49153997220681" lon="10.858294156274319"><ele>99.0</ele><time>2026-04-06T16:44:31.912Z</time></trkpt><trkpt lat="45.49131876302196" lon="10.858314508589578"><ele>99.0</ele><time>2026-04-06T16:44:32.912Z</time></trkpt><trkpt lat="45.49109454868772" lon="10.858332772781239"><ele>99.0</ele><time>2026-04-06T16:44:33.912Z</time></trkpt><trkpt lat="45.490861798100305" lon="10.858348007744576"><ele>96.0</ele><time>2026-04-06T16:44:34.912Z</time></trkpt><trkpt lat="45.490624572567604" lon="10.858366950474517"><ele>93.0</ele><time>2026-04-06T16:44:35.912Z</time></trkpt><trkpt lat="45.49038678914724" lon="10.858386457464878"><ele>92.5</ele><time>2026-04-06T16:44:36.912Z</time></trkpt><trkpt lat="45.49015259917511" lon="10.858400963982165"><ele>92.0</ele><time>2026-04-06T16:44:37.912Z</time></trkpt><trkpt lat="45.489926194180235" lon="10.85841655174137"><ele>92.0</ele><time>2026-04-06T16:44:38.912Z</time></trkpt><trkpt lat="45.48969715195213" lon="10.85842989288691"><ele>92.0</ele><time>2026-04-06T16:44:39.912Z</time></trkpt><trkpt lat="45.48947877926413" lon="10.858432684452533"><ele>92.0</ele><time>2026-04-06T16:44:40.912Z</time></trkpt><trkpt lat="45.48926027754095" lon="10.858437367107994"><ele>93.0</ele><time>2026-04-06T16:44:41.912Z</time></trkpt><trkpt lat="45.48902596093242" lon="10.858443878256585"><ele>94.0</ele><time>2026-04-06T16:44:42.912Z</time></trkpt><trkpt lat="45.4887689205724" lon="10.858461019315019"><ele>93.5</ele><time>2026-04-06T16:44:43.912Z</time></trkpt><trkpt lat="45.48848620916093" lon="10.858489262682491"><ele>93.0</ele><time>2026-04-06T16:44:44.912Z</time></trkpt><trkpt lat="45.48820181383355" lon="10.85852530239826"><ele>93.0</ele><time>2026-04-06T16:44:45.912Z</time></trkpt><trkpt lat="45.487933503262916" lon="10.858560249577062"><ele>93.0</ele><time>2026-04-06T16:44:46.912Z</time></trkpt><trkpt lat="45.48768451219778" lon="10.858586497588183"><ele>92.5</ele><time>2026-04-06T16:44:47.912Z</time></trkpt><trkpt lat="45.487441481808055" lon="10.858614636850813"><ele>92.0</ele><time>2026-04-06T16:44:48.912Z</time></trkpt><trkpt lat="45.48719350554203" lon="10.85864006934796"><ele>86.0</ele><time>2026-04-06T16:44:49.912Z</time></trkpt><trkpt lat="45.486935086988744" lon="10.858670548577676"><ele>80.0</ele><time>2026-04-06T16:44:50.912Z</time></trkpt><trkpt lat="45.48667241475099" lon="10.85869646141607"><ele>80.0</ele><time>2026-04-06T16:44:51.912Z</time></trkpt><trkpt lat="45.486406670574716" lon="10.858722851120065"><ele>80.0</ele><time>2026-04-06T16:44:52.912Z</time></trkpt><trkpt lat="45.48615122236301" lon="10.85874427021359"><ele>78.5</ele><time>2026-04-06T16:44:53.912Z</time></trkpt><trkpt lat="45.485899290458704" lon="10.858761714294333"><ele>77.0</ele><time>2026-04-06T16:44:54.912Z</time></trkpt><trkpt lat="45.48563683244344" lon="10.858784174360517"><ele>77.5</ele><time>2026-04-06T16:44:55.912Z</time></trkpt><trkpt lat="45.48536302119474" lon="10.85879987541397"><ele>78.0</ele><time>2026-04-06T16:44:56.912Z</time></trkpt><trkpt lat="45.485079325561784" lon="10.858822207320314"><ele>78.0</ele><time>2026-04-06T16:44:57.912Z</time></trkpt><trkpt lat="45.484784042267215" lon="10.858844975214447"><ele>78.0</ele><time>2026-04-06T16:44:58.912Z</time></trkpt><trkpt lat="45.48447532434903" lon="10.858873244612928"><ele>78.5</ele><time>2026-04-06T16:44:59.912Z</time></trkpt><trkpt lat="45.48415753949059" lon="10.858901288253326"><ele>79.0</ele><time>2026-04-06T16:45:00.912Z</time></trkpt><trkpt lat="45.48384240058134" lon="10.858920723630224"><ele>78.0</ele><time>2026-04-06T16:45:01.912Z</time></trkpt><trkpt lat="45.48350422021291" lon="10.858952074669665"><ele>77.0</ele><time>2026-04-06T16:45:02.912Z</time></trkpt><trkpt lat="45.48317557393878" lon="10.858985060153216"><ele>77.5</ele><time>2026-04-06T16:45:03.912Z</time></trkpt><trkpt lat="45.482881045334466" lon="10.85900753811356"><ele>78.0</ele><time>2026-04-06T16:45:04.912Z</time></trkpt><trkpt lat="45.482607935759205" lon="10.859023790299721"><ele>78.0</ele><time>2026-04-06T16:45:05.912Z</time></trkpt><trkpt lat="45.48234756664986" lon="10.859041427659571"><ele>78.0</ele><time>2026-04-06T16:45:06.912Z</time></trkpt><trkpt lat="45.482083587049" lon="10.859060790804147"><ele>79.0</ele><time>2026-04-06T16:45:07.912Z</time></trkpt><trkpt lat="45.48182308602039" lon="10.85907356604057"><ele>80.0</ele><time>2026-04-06T16:45:08.912Z</time></trkpt><trkpt lat="45.481565764207176" lon="10.859090024776554"><ele>80.0</ele><time>2026-04-06T16:45:09.912Z</time></trkpt><trkpt lat="45.48132754097917" lon="10.859102729044674"><ele>80.0</ele><time>2026-04-06T16:45:10.912Z</time></trkpt><trkpt lat="45.48109919403227" lon="10.859119089839526"><ele>80.66666666666667</ele><time>2026-04-06T16:45:11.912Z</time></trkpt><trkpt lat="45.480874689610026" lon="10.85913150044874"><ele>81.33333333333333</ele><time>2026-04-06T16:45:12.912Z</time></trkpt><trkpt lat="45.48065452437064" lon="10.859146574032414"><ele>82.0</ele><time>2026-04-06T16:45:13.912Z</time></trkpt><trkpt lat="45.48043829038521" lon="10.859169273153723"><ele>81.66666666666666</ele><time>2026-04-06T16:45:14.912Z</time></trkpt><trkpt lat="45.480216418841025" lon="10.859193552653808"><ele>81.33333333333333</ele><time>2026-04-06T16:45:15.912Z</time></trkpt><trkpt lat="45.47999426504335" lon="10.859211510072782"><ele>81.0</ele><time>2026-04-06T16:45:16.912Z</time></trkpt><trkpt lat="45.47977466680849" lon="10.859224092544524"><ele>80.33333333333333</ele><time>2026-04-06T16:45:17.912Z</time></trkpt><trkpt lat="45.479556653850715" lon="10.859241453791949"><ele>79.66666666666666</ele><time>2026-04-06T16:45:18.912Z</time></trkpt><trkpt lat="45.47933252753614" lon="10.859271311933046"><ele>79.0</ele><time>2026-04-06T16:45:19.912Z</time></trkpt><trkpt lat="45.4791070044154" lon="10.859318360808777"><ele>79.0</ele><time>2026-04-06T16:45:20.912Z</time></trkpt><trkpt lat="45.478884747531026" lon="10.859394335175747"><ele>79.0</ele><time>2026-04-06T16:45:21.912Z</time></trkpt><trkpt lat="45.47865735908796" lon="10.859499024742508"><ele>78.0</ele><time>2026-04-06T16:45:22.912Z</time></trkpt><trkpt lat="45.47843170965251" lon="10.859621102572564"><ele>77.0</ele><time>2026-04-06T16:45:23.912Z</time></trkpt><trkpt lat="45.47820750913952" lon="10.859763482419424"><ele>77.0</ele><time>2026-04-06T16:45:24.912Z</time></trkpt><trkpt lat="45.477971973211766" lon="10.859913156776337"><ele>77.0</ele><time>2026-04-06T16:45:25.912Z</time></trkpt><trkpt lat="45.47773128599586" lon="10.860058483262053"><ele>80.5</ele><time>2026-04-06T16:45:26.912Z</time></trkpt><trkpt lat="45.47748448563507" lon="10.860197055727346"><ele>84.0</ele><time>2026-04-06T16:45:27.912Z</time></trkpt><trkpt lat="45.477226341585066" lon="10.860341165058026"><ele>86.5</ele><time>2026-04-06T16:45:28.912Z</time></trkpt><trkpt lat="45.476966564537456" lon="10.8604905204534"><ele>89.0</ele><time>2026-04-06T16:45:29.912Z</time></trkpt><trkpt lat="45.47669030299508" lon="10.860638886376895"><ele>89.0</ele><time>2026-04-06T16:45:30.912Z</time></trkpt><trkpt lat="45.47640222416155" lon="10.860807297504794"><ele>89.0</ele><time>2026-04-06T16:45:31.912Z</time></trkpt><trkpt lat="45.476116912085025" lon="10.860963350019162"><ele>88.5</ele><time>2026-04-06T16:45:32.912Z</time></trkpt><trkpt lat="45.47586355793423" lon="10.861101743441461"><ele>88.0</ele><time>2026-04-06T16:45:33.912Z</time></trkpt><trkpt lat="45.47562452254395" lon="10.861237011151227"><ele>88.0</ele><time>2026-04-06T16:45:34.912Z</time></trkpt><trkpt lat="45.475392851935574" lon="10.861364833900845"><ele>88.0</ele><time>2026-04-06T16:45:35.912Z</time></trkpt><trkpt lat="45.47515484572474" lon="10.861487951682705"><ele>88.0</ele><time>2026-04-06T16:45:36.912Z</time></trkpt><trkpt lat="45.474919231320435" lon="10.861618325174813"><ele>88.0</ele><time>2026-04-06T16:45:37.912Z</time></trkpt><trkpt lat="45.47467856886323" lon="10.86175219260833"><ele>87.5</ele><time>2026-04-06T16:45:38.912Z</time></trkpt><trkpt lat="45.474440762805244" lon="10.861885670551919"><ele>87.0</ele><time>2026-04-06T16:45:39.912Z</time></trkpt><trkpt lat="45.474211782916875" lon="10.862015882075006"><ele>87.0</ele><time>2026-04-06T16:45:40.912Z</time></trkpt><trkpt lat="45.47398130949973" lon="10.862143704110409"><ele>87.0</ele><time>2026-04-06T16:45:41.912Z</time></trkpt><trkpt lat="45.47374168726381" lon="10.862267462494698"><ele>87.5</ele><time>2026-04-06T16:45:42.912Z</time></trkpt><trkpt lat="45.47350526127434" lon="10.86240548180632"><ele>88.0</ele><time>2026-04-06T16:45:43.912Z</time></trkpt><trkpt lat="45.47325268760809" lon="10.862545393786453"><ele>88.0</ele><time>2026-04-06T16:45:44.912Z</time></trkpt><trkpt lat="45.472991287523286" lon="10.86269269884027"><ele>88.0</ele><time>2026-04-06T16:45:45.912Z</time></trkpt><trkpt lat="45.4727150435121" lon="10.862850082230361"><ele>88.0</ele><time>2026-04-06T16:45:46.912Z</time></trkpt><trkpt lat="45.47242681897522" lon="10.863009649243233"><ele>88.0</ele><time>2026-04-06T16:45:47.912Z</time></trkpt><trkpt lat="45.4721409469941" lon="10.86317079731552"><ele>88.5</ele><time>2026-04-06T16:45:48.912Z</time></trkpt><trkpt lat="45.471861031263124" lon="10.863337465683996"><ele>89.0</ele><time>2026-04-06T16:45:49.912Z</time></trkpt><trkpt lat="45.47157230673174" lon="10.863486015604744"><ele>89.0</ele><time>2026-04-06T16:45:50.912Z</time></trkpt><trkpt lat="45.47129622717471" lon="10.863632632422675"><ele>89.0</ele><time>2026-04-06T16:45:51.912Z</time></trkpt><trkpt lat="45.47103858639591" lon="10.86378141147649"><ele>90.5</ele><time>2026-04-06T16:45:52.912Z</time></trkpt><trkpt lat="45.470782175787896" lon="10.863933366741385"><ele>92.0</ele><time>2026-04-06T16:45:53.912Z</time></trkpt><trkpt lat="45.47050238957528" lon="10.864084680435692"><ele>93.5</ele><time>2026-04-06T16:45:54.912Z</time></trkpt><trkpt lat="45.470218083086564" lon="10.864235370710125"><ele>95.0</ele><time>2026-04-06T16:45:55.912Z</time></trkpt><trkpt lat="45.46992798676123" lon="10.864392897104835"><ele>95.0</ele><time>2026-04-06T16:45:56.912Z</time></trkpt><trkpt lat="45.46962445099102" lon="10.86456802630919"><ele>95.0</ele><time>2026-04-06T16:45:57.912Z</time></trkpt><trkpt lat="45.4693109520266" lon="10.864741015773584"><ele>100.5</ele><time>2026-04-06T16:45:58.912Z</time></trkpt><trkpt lat="45.468996385450374" lon="10.864905297465022"><ele>106.0</ele><time>2026-04-06T16:45:59.912Z</time></trkpt><trkpt lat="45.46867843013516" lon="10.865080616691685"><ele>108.0</ele><time>2026-04-06T16:46:00.912Z</time></trkpt><trkpt lat="45.46835684272613" lon="10.865255930771163"><ele>110.0</ele><time>2026-04-06T16:46:01.912Z</time></trkpt><trkpt lat="45.46802567236238" lon="10.865440188161198"><ele>110.0</ele><time>2026-04-06T16:46:02.912Z</time></trkpt><trkpt lat="45.46768763922611" lon="10.86562954247262"><ele>110.0</ele><time>2026-04-06T16:46:03.912Z</time></trkpt><trkpt lat="45.46734456792372" lon="10.865817179489033"><ele>110.0</ele><time>2026-04-06T16:46:04.912Z</time></trkpt><trkpt lat="45.46699550867726" lon="10.865998999654808"><ele>110.0</ele><time>2026-04-06T16:46:05.912Z</time></trkpt><trkpt lat="45.4666825130565" lon="10.866143843545753"><ele>110.0</ele><time>2026-04-06T16:46:06.912Z</time></trkpt><trkpt lat="45.46639748676881" lon="10.866263286144363"><ele>110.0</ele><time>2026-04-06T16:46:07.912Z</time></trkpt><trkpt lat="45.46612849759928" lon="10.86639109240443"><ele>111.0</ele><time>2026-04-06T16:46:08.912Z</time></trkpt><trkpt lat="45.465859553182476" lon="10.866517585471952"><ele>112.0</ele><time>2026-04-06T16:46:09.912Z</time></trkpt><trkpt lat="45.46559991791418" lon="10.866649513902445"><ele>111.0</ele><time>2026-04-06T16:46:10.912Z</time></trkpt><trkpt lat="45.46533665607943" lon="10.866783381493615"><ele>110.0</ele><time>2026-04-06T16:46:11.912Z</time></trkpt><trkpt lat="45.46509431984651" lon="10.866950927162328"><ele>110.0</ele><time>2026-04-06T16:46:12.912Z</time></trkpt><trkpt lat="45.464822231348755" lon="10.867103253707528"><ele>110.0</ele><time>2026-04-06T16:46:13.912Z</time></trkpt><trkpt lat="45.46454726043764" lon="10.867256092844837"><ele>111.5</ele><time>2026-04-06T16:46:14.912Z</time></trkpt><trkpt lat="45.464291595943465" lon="10.8674086337863"><ele>113.0</ele><time>2026-04-06T16:46:15.912Z</time></trkpt><trkpt lat="45.46400351972783" lon="10.867639567985366"><ele>114.5</ele><time>2026-04-06T16:46:16.912Z</time></trkpt><trkpt lat="45.46374206963449" lon="10.867797616934816"><ele>116.0</ele><time>2026-04-06T16:46:17.912Z</time></trkpt><trkpt lat="45.46348063117597" lon="10.867957837998535"><ele>116.0</ele><time>2026-04-06T16:46:18.912Z</time></trkpt><trkpt lat="45.4632162411068" lon="10.86810989687244"><ele>116.0</ele><time>2026-04-06T16:46:19.912Z</time></trkpt><trkpt lat="45.462949690020956" lon="10.86825098481521"><ele>115.0</ele><time>2026-04-06T16:46:20.912Z</time></trkpt><trkpt lat="45.46268841004505" lon="10.868390619774592"><ele>114.0</ele><time>2026-04-06T16:46:21.912Z</time></trkpt><trkpt lat="45.462438027187" lon="10.868533215579797"><ele>112.5</ele><time>2026-04-06T16:46:22.912Z</time></trkpt><trkpt lat="45.46220618786637" lon="10.868682812863401"><ele>111.0</ele><time>2026-04-06T16:46:23.912Z</time></trkpt><trkpt lat="45.461975424643384" lon="10.868851393244592"><ele>111.0</ele><time>2026-04-06T16:46:24.912Z</time></trkpt><trkpt lat="45.461747394027796" lon="10.869043076279436"><ele>111.0</ele><time>2026-04-06T16:46:25.912Z</time></trkpt><trkpt lat="45.461524431446364" lon="10.869251133981162"><ele>110.5</ele><time>2026-04-06T16:46:26.912Z</time></trkpt><trkpt lat="45.46130599032346" lon="10.869479533351441"><ele>110.0</ele><time>2026-04-06T16:46:27.912Z</time></trkpt><trkpt lat="45.461085825448436" lon="10.86972271850564"><ele>110.0</ele><time>2026-04-06T16:46:28.912Z</time></trkpt><trkpt lat="45.46087238798867" lon="10.869981387305739"><ele>110.0</ele><time>2026-04-06T16:46:29.912Z</time></trkpt><trkpt lat="45.46066879880661" lon="10.870255781238322"><ele>110.0</ele><time>2026-04-06T16:46:30.912Z</time></trkpt><trkpt lat="45.460477783457854" lon="10.870540684118513"><ele>110.0</ele><time>2026-04-06T16:46:31.912Z</time></trkpt><trkpt lat="45.460295946368284" lon="10.870835665027581"><ele>110.5</ele><time>2026-04-06T16:46:32.912Z</time></trkpt><trkpt lat="45.46011606026867" lon="10.871150272231493"><ele>111.0</ele><time>2026-04-06T16:46:33.912Z</time></trkpt><trkpt lat="45.45993590470853" lon="10.87148134574277"><ele>110.0</ele><time>2026-04-06T16:46:34.912Z</time></trkpt><trkpt lat="45.45975603754227" lon="10.871829347557865"><ele>109.0</ele><time>2026-04-06T16:46:35.912Z</time></trkpt><trkpt lat="45.45956664002362" lon="10.872200620405057"><ele>109.0</ele><time>2026-04-06T16:46:36.912Z</time></trkpt><trkpt lat="45.45937024352962" lon="10.872560524552068"><ele>109.0</ele><time>2026-04-06T16:46:37.912Z</time></trkpt><trkpt lat="45.45917685527921" lon="10.872919603284425"><ele>109.0</ele><time>2026-04-06T16:46:38.912Z</time></trkpt><trkpt lat="45.45900081773678" lon="10.873241049716606"><ele>109.0</ele><time>2026-04-06T16:46:39.912Z</time></trkpt><trkpt lat="45.458828513269005" lon="10.873506980202492"><ele>108.0</ele><time>2026-04-06T16:46:40.912Z</time></trkpt><trkpt lat="45.45870933573786" lon="10.873765275570673"><ele>107.0</ele><time>2026-04-06T16:46:41.912Z</time></trkpt><trkpt lat="45.45844601700677" lon="10.87443118355402"><ele>106.0</ele><time>2026-04-06T16:46:42.912Z</time></trkpt><trkpt lat="45.4582809068255" lon="10.874759985637247"><ele>105.0</ele><time>2026-04-06T16:46:43.912Z</time></trkpt><trkpt lat="45.458117144979504" lon="10.875086319140257"><ele>105.5</ele><time>2026-04-06T16:46:44.912Z</time></trkpt><trkpt lat="45.457958448641556" lon="10.875394605972675"><ele>106.0</ele><time>2026-04-06T16:46:45.912Z</time></trkpt><trkpt lat="45.457806355338256" lon="10.875703683171501"><ele>105.0</ele><time>2026-04-06T16:46:46.912Z</time></trkpt><trkpt lat="45.45765047598447" lon="10.876017221048835"><ele>104.0</ele><time>2026-04-06T16:46:47.912Z</time></trkpt><trkpt lat="45.45749028597334" lon="10.876335568658567"><ele>104.0</ele><time>2026-04-06T16:46:48.912Z</time></trkpt><trkpt lat="45.45733052001871" lon="10.876649969525808"><ele>104.0</ele><time>2026-04-06T16:46:49.912Z</time></trkpt><trkpt lat="45.45716364939631" lon="10.876975666663306"><ele>103.0</ele><time>2026-04-06T16:46:50.912Z</time></trkpt><trkpt lat="45.456997480576476" lon="10.877303472417355"><ele>102.0</ele><time>2026-04-06T16:46:51.912Z</time></trkpt><trkpt lat="45.45682714277255" lon="10.877615451202335"><ele>101.0</ele><time>2026-04-06T16:46:52.912Z</time></trkpt><trkpt lat="45.45665484413284" lon="10.877923079111026"><ele>100.0</ele><time>2026-04-06T16:46:53.912Z</time></trkpt><trkpt lat="45.45647423162233" lon="10.878222734981597"><ele>100.0</ele><time>2026-04-06T16:46:54.912Z</time></trkpt><trkpt lat="45.4562922065879" lon="10.878531071246456"><ele>100.0</ele><time>2026-04-06T16:46:55.912Z</time></trkpt><trkpt lat="45.45610694209587" lon="10.878833535521917"><ele>99.5</ele><time>2026-04-06T16:46:56.912Z</time></trkpt><trkpt lat="45.45592514484439" lon="10.879103316324988"><ele>99.0</ele><time>2026-04-06T16:46:57.912Z</time></trkpt><trkpt lat="45.45575140286068" lon="10.8793463728303"><ele>99.0</ele><time>2026-04-06T16:46:58.912Z</time></trkpt><trkpt lat="45.45558908078866" lon="10.87958698566695"><ele>99.0</ele><time>2026-04-06T16:46:59.912Z</time></trkpt><trkpt lat="45.45543357982443" lon="10.879815412719381"><ele>99.33333333333334</ele><time>2026-04-06T16:47:00.912Z</time></trkpt><trkpt lat="45.455279489793334" lon="10.880032057927759"><ele>99.66666666666667</ele><time>2026-04-06T16:47:01.912Z</time></trkpt><trkpt lat="45.455123404511724" lon="10.880252586327511"><ele>100.0</ele><time>2026-04-06T16:47:02.912Z</time></trkpt><trkpt lat="45.45496509863227" lon="10.880473642355915"><ele>100.0</ele><time>2026-04-06T16:47:03.912Z</time></trkpt><trkpt lat="45.45480029239998" lon="10.880700044443282"><ele>100.0</ele><time>2026-04-06T16:47:04.912Z</time></trkpt><trkpt lat="45.45463551536958" lon="10.880935953299211"><ele>101.0</ele><time>2026-04-06T16:47:05.912Z</time></trkpt><trkpt lat="45.45446265347305" lon="10.881174884896682"><ele>102.0</ele><time>2026-04-06T16:47:06.912Z</time></trkpt><trkpt lat="45.45428971737359" lon="10.881422111944321"><ele>102.0</ele><time>2026-04-06T16:47:07.912Z</time></trkpt><trkpt lat="45.45411114276626" lon="10.881677955285634"><ele>102.0</ele><time>2026-04-06T16:47:08.912Z</time></trkpt><trkpt lat="45.45391789851065" lon="10.881936239847818"><ele>102.0</ele><time>2026-04-06T16:47:09.912Z</time></trkpt><trkpt lat="45.45374235712232" lon="10.882201024412547"><ele>102.0</ele><time>2026-04-06T16:47:10.912Z</time></trkpt><trkpt lat="45.4535787074323" lon="10.882434997244117"><ele>101.66666666666666</ele><time>2026-04-06T16:47:11.912Z</time></trkpt><trkpt lat="45.453419535844844" lon="10.882661798279045"><ele>101.33333333333333</ele><time>2026-04-06T16:47:12.912Z</time></trkpt><trkpt lat="45.453271915077956" lon="10.882872783227707"><ele>101.0</ele><time>2026-04-06T16:47:13.912Z</time></trkpt><trkpt lat="45.45312016504963" lon="10.883088953919966"><ele>101.0</ele><time>2026-04-06T16:47:14.912Z</time></trkpt><trkpt lat="45.4529657334422" lon="10.883306562201529"><ele>101.0</ele><time>2026-04-06T16:47:15.912Z</time></trkpt><trkpt lat="45.45280524596876" lon="10.883532260094936"><ele>101.0</ele><time>2026-04-06T16:47:16.912Z</time></trkpt><trkpt lat="45.45264153003093" lon="10.883767278372883"><ele>101.5</ele><time>2026-04-06T16:47:17.912Z</time></trkpt><trkpt lat="45.45247302555645" lon="10.884013234216212"><ele>102.0</ele><time>2026-04-06T16:47:18.912Z</time></trkpt><trkpt lat="45.452299661451676" lon="10.88426168652035"><ele>101.5</ele><time>2026-04-06T16:47:19.912Z</time></trkpt><trkpt lat="45.45212962293136" lon="10.884502815808823"><ele>101.0</ele><time>2026-04-06T16:47:20.912Z</time></trkpt><trkpt lat="45.451968151415215" lon="10.884729107980297"><ele>101.0</ele><time>2026-04-06T16:47:21.912Z</time></trkpt><trkpt lat="45.451807434689805" lon="10.884951312674609"><ele>101.0</ele><time>2026-04-06T16:47:22.912Z</time></trkpt><trkpt lat="45.45165021206306" lon="10.885179097882274"><ele>101.0</ele><time>2026-04-06T16:47:23.912Z</time></trkpt><trkpt lat="45.45148700168407" lon="10.885414300332938"><ele>100.5</ele><time>2026-04-06T16:47:24.912Z</time></trkpt><trkpt lat="45.451322982230096" lon="10.885644887252761"><ele>100.0</ele><time>2026-04-06T16:47:25.912Z</time></trkpt><trkpt lat="45.45115971176007" lon="10.885870965234007"><ele>100.0</ele><time>2026-04-06T16:47:26.912Z</time></trkpt><trkpt lat="45.45099903048212" lon="10.886091234450308"><ele>100.0</ele><time>2026-04-06T16:47:27.912Z</time></trkpt><trkpt lat="45.450835879651976" lon="10.886313084234283"><ele>100.0</ele><time>2026-04-06T16:47:28.912Z</time></trkpt><trkpt lat="45.450669738206855" lon="10.886531029923034"><ele>100.0</ele><time>2026-04-06T16:47:29.912Z</time></trkpt><trkpt lat="45.45049250479929" lon="10.886749628962763"><ele>100.0</ele><time>2026-04-06T16:47:30.912Z</time></trkpt><trkpt lat="45.45030801002615" lon="10.886955832262826"><ele>99.0</ele><time>2026-04-06T16:47:31.912Z</time></trkpt><trkpt lat="45.45011533797218" lon="10.887163152279243"><ele>98.0</ele><time>2026-04-06T16:47:32.912Z</time></trkpt><trkpt lat="45.44991657098602" lon="10.887358591696689"><ele>98.0</ele><time>2026-04-06T16:47:33.912Z</time></trkpt><trkpt lat="45.44971440223751" lon="10.887557935277286"><ele>98.0</ele><time>2026-04-06T16:47:34.912Z</time></trkpt><trkpt lat="45.44948507448012" lon="10.887766834899775"><ele>98.0</ele><time>2026-04-06T16:47:35.912Z</time></trkpt><trkpt lat="45.44926719626189" lon="10.887955970656233"><ele>98.0</ele><time>2026-04-06T16:47:36.912Z</time></trkpt><trkpt lat="45.44906826482625" lon="10.888135203361069"><ele>98.0</ele><time>2026-04-06T16:47:37.912Z</time></trkpt><trkpt lat="45.44888109209682" lon="10.888305131105277"><ele>98.0</ele><time>2026-04-06T16:47:38.912Z</time></trkpt><trkpt lat="45.44870067126698" lon="10.888469833644987"><ele>98.0</ele><time>2026-04-06T16:47:39.912Z</time></trkpt><trkpt lat="45.448525758200866" lon="10.888640206103586"><ele>98.0</ele><time>2026-04-06T16:47:40.912Z</time></trkpt><trkpt lat="45.4483657427837" lon="10.888798861639005"><ele>98.0</ele><time>2026-04-06T16:47:41.912Z</time></trkpt><trkpt lat="45.448211280374245" lon="10.888958275104152"><ele>98.0</ele><time>2026-04-06T16:47:42.912Z</time></trkpt><trkpt lat="45.44805889386052" lon="10.889133679708234"><ele>97.0</ele><time>2026-04-06T16:47:43.912Z</time></trkpt><trkpt lat="45.447909788053344" lon="10.889307187409987"><ele>96.0</ele><time>2026-04-06T16:47:44.912Z</time></trkpt><trkpt lat="45.447768067288244" lon="10.8894732944471"><ele>95.0</ele><time>2026-04-06T16:47:45.912Z</time></trkpt><trkpt lat="45.44762897242764" lon="10.889643812283598"><ele>95.0</ele><time>2026-04-06T16:47:46.912Z</time></trkpt><trkpt lat="45.4474921340892" lon="10.889805714669453"><ele>95.0</ele><time>2026-04-06T16:47:47.912Z</time></trkpt><trkpt lat="45.447355226801385" lon="10.889963630140238"><ele>95.0</ele><time>2026-04-06T16:47:48.912Z</time></trkpt><trkpt lat="45.44723031368454" lon="10.890110964823654"><ele>95.0</ele><time>2026-04-06T16:47:49.912Z</time></trkpt><trkpt lat="45.44711694099616" lon="10.890241485394911"><ele>95.0</ele><time>2026-04-06T16:47:50.912Z</time></trkpt><trkpt lat="45.44701689814499" lon="10.8903581319028"><ele>95.0</ele><time>2026-04-06T16:47:51.912Z</time></trkpt><trkpt lat="45.44693065418392" lon="10.890465086750538"><ele>95.0</ele><time>2026-04-06T16:47:52.912Z</time></trkpt><trkpt lat="45.44684786382937" lon="10.89058643827395"><ele>95.0</ele><time>2026-04-06T16:47:53.912Z</time></trkpt><trkpt lat="45.446760093889296" lon="10.890675728757664"><ele>95.0</ele><time>2026-04-06T16:47:54.912Z</time></trkpt><trkpt lat="45.44667567656475" lon="10.890772368730417"><ele>95.0</ele><time>2026-04-06T16:47:55.912Z</time></trkpt><trkpt lat="45.44659208818659" lon="10.890869460089068"><ele>95.0</ele><time>2026-04-06T16:47:56.912Z</time></trkpt><trkpt lat="45.44649719208851" lon="10.890956083130025"><ele>95.0</ele><time>2026-04-06T16:47:57.912Z</time></trkpt><trkpt lat="45.446379000542926" lon="10.891078375619282"><ele>94.8</ele><time>2026-04-06T16:47:58.912Z</time></trkpt><trkpt lat="45.44627888102491" lon="10.891179049686171"><ele>94.6</ele><time>2026-04-06T16:47:59.912Z</time></trkpt><trkpt lat="45.44618058725879" lon="10.89127147204607"><ele>94.4</ele><time>2026-04-06T16:48:00.912Z</time></trkpt><trkpt lat="45.446090412557346" lon="10.89135585076552"><ele>94.2</ele><time>2026-04-06T16:48:01.912Z</time></trkpt><trkpt lat="45.44600416404905" lon="10.891430792962167"><ele>94.0</ele><time>2026-04-06T16:48:02.912Z</time></trkpt><trkpt lat="45.44592505668561" lon="10.891494676686673"><ele>94.0</ele><time>2026-04-06T16:48:03.912Z</time></trkpt><trkpt lat="45.445835334129015" lon="10.891558641813727"><ele>94.0</ele><time>2026-04-06T16:48:04.912Z</time></trkpt><trkpt lat="45.445743413105674" lon="10.891635200388693"><ele>94.0</ele><time>2026-04-06T16:48:05.912Z</time></trkpt><trkpt lat="45.44565650109102" lon="10.891694527383859"><ele>94.0</ele><time>2026-04-06T16:48:06.912Z</time></trkpt><trkpt lat="45.445591950395155" lon="10.891740189016012"><ele>94.0</ele><time>2026-04-06T16:48:07.912Z</time></trkpt><trkpt lat="45.4455328696825" lon="10.891780712126963"><ele>94.0</ele><time>2026-04-06T16:48:08.912Z</time></trkpt><trkpt lat="45.44543148859839" lon="10.891842646293068"><ele>93.80000000000001</ele><time>2026-04-06T16:48:10.912Z</time></trkpt><trkpt lat="45.44535527967421" lon="10.891889414278822"><ele>93.60000000000001</ele><time>2026-04-06T16:48:13.912Z</time></trkpt><trkpt lat="45.44525741443582" lon="10.891954287463292"><ele>93.4</ele><time>2026-04-06T16:48:16.912Z</time></trkpt><trkpt lat="45.4451651208682" lon="10.892004579053072"><ele>93.2</ele><time>2026-04-06T16:48:18.912Z</time></trkpt><trkpt lat="45.44508674930572" lon="10.892046593339375"><ele>93.0</ele><time>2026-04-06T16:48:20.912Z</time></trkpt><trkpt lat="45.44498031511583" lon="10.89210683560012"><ele>93.0</ele><time>2026-04-06T16:48:22.912Z</time></trkpt><trkpt lat="45.44488866905019" lon="10.892161472879932"><ele>93.0</ele><time>2026-04-06T16:48:24.912Z</time></trkpt><trkpt lat="45.444778153023776" lon="10.892224733952391"><ele>93.0</ele><time>2026-04-06T16:48:26.912Z</time></trkpt><trkpt lat="45.44471171785353" lon="10.892263652885754"><ele>93.0</ele><time>2026-04-06T16:48:27.912Z</time></trkpt><trkpt lat="45.44463571315155" lon="10.892309341571544"><ele>93.0</ele><time>2026-04-06T16:48:28.912Z</time></trkpt><trkpt lat="45.44455622199095" lon="10.892363540932626"><ele>92.83333333333333</ele><time>2026-04-06T16:48:29.912Z</time></trkpt><trkpt lat="45.44449359858201" lon="10.892398378691452"><ele>92.66666666666667</ele><time>2026-04-06T16:48:30.912Z</time></trkpt><trkpt lat="45.444430902449994" lon="10.89243089488055"><ele>92.5</ele><time>2026-04-06T16:48:31.912Z</time></trkpt><trkpt lat="45.4443693968528" lon="10.892467419980301"><ele>92.33333333333334</ele><time>2026-04-06T16:48:32.912Z</time></trkpt><trkpt lat="45.444304347863756" lon="10.89250036335803"><ele>92.16666666666667</ele><time>2026-04-06T16:48:33.912Z</time></trkpt><trkpt lat="45.44424492789645" lon="10.892536912952748"><ele>92.0</ele><time>2026-04-06T16:48:34.912Z</time></trkpt><trkpt lat="45.4441348758238" lon="10.892612257572994"><ele>91.6</ele><time>2026-04-06T16:48:36.912Z</time></trkpt><trkpt lat="45.4440089342696" lon="10.892695308539189"><ele>91.19999999999999</ele><time>2026-04-06T16:48:38.912Z</time></trkpt><trkpt lat="45.44392625970774" lon="10.892759075366504"><ele>90.8</ele><time>2026-04-06T16:48:39.912Z</time></trkpt><trkpt lat="45.443849597866986" lon="10.892812523742677"><ele>90.4</ele><time>2026-04-06T16:48:40.912Z</time></trkpt><trkpt lat="45.44378200117222" lon="10.892854910263805"><ele>90.0</ele><time>2026-04-06T16:48:41.912Z</time></trkpt><trkpt lat="45.44371447917837" lon="10.892906534402584"><ele>90.0</ele><time>2026-04-06T16:48:42.912Z</time></trkpt><trkpt lat="45.44365011491739" lon="10.892961433778215"><ele>90.0</ele><time>2026-04-06T16:48:43.912Z</time></trkpt><trkpt lat="45.44358482173867" lon="10.89302487464039"><ele>90.0</ele><time>2026-04-06T16:48:44.912Z</time></trkpt><trkpt lat="45.4435008049006" lon="10.893104760101854"><ele>90.0</ele><time>2026-04-06T16:48:45.912Z</time></trkpt><trkpt lat="45.443423696394355" lon="10.893188072010853"><ele>90.0</ele><time>2026-04-06T16:48:46.912Z</time></trkpt><trkpt lat="45.44335569223694" lon="10.893267891360685"><ele>90.0</ele><time>2026-04-06T16:48:47.912Z</time></trkpt><trkpt lat="45.443284159877784" lon="10.893351739276303"><ele>90.0</ele><time>2026-04-06T16:48:48.912Z</time></trkpt><trkpt lat="45.44321499497139" lon="10.893435263339006"><ele>90.0</ele><time>2026-04-06T16:48:49.912Z</time></trkpt><trkpt lat="45.44315465799524" lon="10.893512516667913"><ele>90.0</ele><time>2026-04-06T16:48:50.912Z</time></trkpt><trkpt lat="45.44310687321267" lon="10.893577777686344"><ele>90.0</ele><time>2026-04-06T16:48:51.912Z</time></trkpt><trkpt lat="45.44302772902792" lon="10.893699169443567"><ele>90.0</ele><time>2026-04-06T16:48:53.912Z</time></trkpt><trkpt lat="45.442981348555975" lon="10.893769410318122"><ele>90.0</ele><time>2026-04-06T16:48:54.912Z</time></trkpt><trkpt lat="45.44292232276528" lon="10.893855338435356"><ele>90.0</ele><time>2026-04-06T16:48:55.912Z</time></trkpt><trkpt lat="45.44286920348739" lon="10.893934240701514"><ele>90.0</ele><time>2026-04-06T16:48:56.912Z</time></trkpt><trkpt lat="45.442823135389546" lon="10.894000420630931"><ele>90.0</ele><time>2026-04-06T16:48:57.912Z</time></trkpt><trkpt lat="45.4427369199293" lon="10.894119599849226"><ele>90.0</ele><time>2026-04-06T16:48:59.912Z</time></trkpt><trkpt lat="45.44269093591325" lon="10.894187017174204"><ele>90.0</ele><time>2026-04-06T16:49:00.912Z</time></trkpt><trkpt lat="45.44262486728952" lon="10.894267985922648"><ele>90.0</ele><time>2026-04-06T16:49:01.912Z</time></trkpt><trkpt lat="45.44256743383193" lon="10.894365213723187"><ele>90.0</ele><time>2026-04-06T16:49:02.912Z</time></trkpt><trkpt lat="45.442510063771984" lon="10.894456020689775"><ele>90.0</ele><time>2026-04-06T16:49:03.912Z</time></trkpt><trkpt lat="45.44245840045291" lon="10.894534472678663"><ele>90.0</ele><time>2026-04-06T16:49:04.912Z</time></trkpt><trkpt lat="45.44240721772539" lon="10.894607369116837"><ele>90.0</ele><time>2026-04-06T16:49:05.912Z</time></trkpt><trkpt lat="45.44234403744455" lon="10.894700395934432"><ele>90.0</ele><time>2026-04-06T16:49:06.912Z</time></trkpt><trkpt lat="45.44227512444544" lon="10.894802416073842"><ele>90.0</ele><time>2026-04-06T16:49:07.912Z</time></trkpt><trkpt lat="45.44221854315729" lon="10.89489309828755"><ele>90.0</ele><time>2026-04-06T16:49:08.912Z</time></trkpt><trkpt lat="45.442147170893435" lon="10.894998462814163"><ele>90.0</ele><time>2026-04-06T16:49:10.912Z</time></trkpt><trkpt lat="45.442099736630716" lon="10.895068052954407"><ele>90.0</ele><time>2026-04-06T16:49:11.912Z</time></trkpt><trkpt lat="45.442007137581825" lon="10.895212215339544"><ele>90.0</ele><time>2026-04-06T16:49:13.912Z</time></trkpt><trkpt lat="45.4419446318865" lon="10.895300852276343"><ele>90.0</ele><time>2026-04-06T16:49:14.912Z</time></trkpt><trkpt lat="45.44187813972961" lon="10.89539616546909"><ele>90.16666666666667</ele><time>2026-04-06T16:49:15.912Z</time></trkpt><trkpt lat="45.44181344353265" lon="10.895491040062666"><ele>90.33333333333333</ele><time>2026-04-06T16:49:16.912Z</time></trkpt><trkpt lat="45.44174443218444" lon="10.89559265399375"><ele>90.5</ele><time>2026-04-06T16:49:17.912Z</time></trkpt><trkpt lat="45.441683210473144" lon="10.89568475542382"><ele>90.66666666666666</ele><time>2026-04-06T16:49:18.912Z</time></trkpt><trkpt lat="45.44163004627692" lon="10.895766833451228"><ele>90.83333333333333</ele><time>2026-04-06T16:49:19.912Z</time></trkpt><trkpt lat="45.4415800416717" lon="10.895844457362452"><ele>91.0</ele><time>2026-04-06T16:49:20.912Z</time></trkpt><trkpt lat="45.44153488219519" lon="10.895913794627468"><ele>91.0</ele><time>2026-04-06T16:49:21.912Z</time></trkpt><trkpt lat="45.44148618960034" lon="10.895983263373394"><ele>91.0</ele><time>2026-04-06T16:49:22.912Z</time></trkpt><trkpt lat="45.44142600935396" lon="10.89607312579079"><ele>91.0</ele><time>2026-04-06T16:49:23.912Z</time></trkpt><trkpt lat="45.44135984697692" lon="10.896170247881875"><ele>91.0</ele><time>2026-04-06T16:49:24.912Z</time></trkpt><trkpt lat="45.44131025986494" lon="10.896243973119962"><ele>91.0</ele><time>2026-04-06T16:49:25.912Z</time></trkpt><trkpt lat="45.44123925831151" lon="10.896341703399523"><ele>91.0</ele><time>2026-04-06T16:49:27.912Z</time></trkpt><trkpt lat="45.44115674788433" lon="10.896457047285528"><ele>91.0</ele><time>2026-04-06T16:49:29.912Z</time></trkpt><trkpt lat="45.441087778191" lon="10.896560169123628"><ele>91.0</ele><time>2026-04-06T16:49:31.912Z</time></trkpt><trkpt lat="45.44101586877293" lon="10.896666245571543"><ele>91.0</ele><time>2026-04-06T16:49:33.912Z</time></trkpt><trkpt lat="45.440968842021555" lon="10.896737451726269"><ele>91.0</ele><time>2026-04-06T16:49:34.912Z</time></trkpt><trkpt lat="45.440909901211334" lon="10.896821974752786"><ele>91.0</ele><time>2026-04-06T16:49:35.912Z</time></trkpt><trkpt lat="45.44084005375531" lon="10.89691487192345"><ele>90.5</ele><time>2026-04-06T16:49:36.912Z</time></trkpt><trkpt lat="45.440786726816896" lon="10.896983028743046"><ele>90.0</ele><time>2026-04-06T16:49:37.912Z</time></trkpt><trkpt lat="45.44073170103746" lon="10.897069546485968"><ele>89.5</ele><time>2026-04-06T16:49:38.912Z</time></trkpt><trkpt lat="45.440626430344494" lon="10.897246741269464"><ele>89.0</ele><time>2026-04-06T16:49:39.912Z</time></trkpt><trkpt lat="45.44051935018468" lon="10.897465376167016"><ele>89.4</ele><time>2026-04-06T16:49:40.912Z</time></trkpt><trkpt lat="45.440422625449806" lon="10.897548484978753"><ele>89.80000000000001</ele><time>2026-04-06T16:49:42.912Z</time></trkpt><trkpt lat="45.4403500044273" lon="10.897654933723036"><ele>90.19999999999999</ele><time>2026-04-06T16:49:43.912Z</time></trkpt><trkpt lat="45.440276220284304" lon="10.897760903917627"><ele>90.6</ele><time>2026-04-06T16:49:44.912Z</time></trkpt><trkpt lat="45.4401902606713" lon="10.897884611046548"><ele>91.0</ele><time>2026-04-06T16:49:45.912Z</time></trkpt><trkpt lat="45.44008228165048" lon="10.89804080208049"><ele>91.0</ele><time>2026-04-06T16:49:46.912Z</time></trkpt><trkpt lat="45.43996003454718" lon="10.89821243752096"><ele>91.0</ele><time>2026-04-06T16:49:47.912Z</time></trkpt><trkpt lat="45.43985406320362" lon="10.898368564786914"><ele>91.0</ele><time>2026-04-06T16:49:48.912Z</time></trkpt><trkpt lat="45.439749758158506" lon="10.898529744667254"><ele>91.0</ele><time>2026-04-06T16:49:49.912Z</time></trkpt><trkpt lat="45.439634930692165" lon="10.898712862421785"><ele>91.0</ele><time>2026-04-06T16:49:50.912Z</time></trkpt><trkpt lat="45.43951643305785" lon="10.898912287357193"><ele>91.0</ele><time>2026-04-06T16:49:51.912Z</time></trkpt><trkpt lat="45.43939235202053" lon="10.899114041258478"><ele>90.33333333333333</ele><time>2026-04-06T16:49:52.912Z</time></trkpt><trkpt lat="45.43925713485058" lon="10.899318992224087"><ele>89.66666666666667</ele><time>2026-04-06T16:49:53.912Z</time></trkpt><trkpt lat="45.439123469623624" lon="10.899504654892647"><ele>89.0</ele><time>2026-04-06T16:49:54.912Z</time></trkpt><trkpt lat="45.43900321824162" lon="10.89968180806978"><ele>89.0</ele><time>2026-04-06T16:49:55.912Z</time></trkpt><trkpt lat="45.43888864660041" lon="10.899841750179196"><ele>89.0</ele><time>2026-04-06T16:49:56.912Z</time></trkpt><trkpt lat="45.43878655609621" lon="10.90000448144017"><ele>89.0</ele><time>2026-04-06T16:49:57.912Z</time></trkpt><trkpt lat="45.43868353592214" lon="10.900160756279389"><ele>89.25</ele><time>2026-04-06T16:49:58.912Z</time></trkpt><trkpt lat="45.438581354206754" lon="10.900317715477158"><ele>89.5</ele><time>2026-04-06T16:49:59.912Z</time></trkpt><trkpt lat="45.43848065311002" lon="10.900474462046423"><ele>89.75</ele><time>2026-04-06T16:50:00.912Z</time></trkpt><trkpt lat="45.43838554482214" lon="10.900616350456476"><ele>90.0</ele><time>2026-04-06T16:50:01.912Z</time></trkpt><trkpt lat="45.4382888563617" lon="10.90074899361164"><ele>90.0</ele><time>2026-04-06T16:50:02.912Z</time></trkpt><trkpt lat="45.43819660729236" lon="10.900884866798311"><ele>90.0</ele><time>2026-04-06T16:50:03.912Z</time></trkpt><trkpt lat="45.43809913064616" lon="10.901022774629"><ele>90.0</ele><time>2026-04-06T16:50:04.912Z</time></trkpt><trkpt lat="45.438004007260176" lon="10.901154128999412"><ele>90.0</ele><time>2026-04-06T16:50:05.912Z</time></trkpt><trkpt lat="45.437918193008265" lon="10.901283900434004"><ele>90.25</ele><time>2026-04-06T16:50:06.912Z</time></trkpt><trkpt lat="45.43783763344107" lon="10.901405819670586"><ele>90.5</ele><time>2026-04-06T16:50:07.912Z</time></trkpt><trkpt lat="45.437760005524595" lon="10.90152539446201"><ele>90.75</ele><time>2026-04-06T16:50:08.912Z</time></trkpt><trkpt lat="45.437685132278084" lon="10.901642371605936"><ele>91.0</ele><time>2026-04-06T16:50:09.912Z</time></trkpt><trkpt lat="45.43760228206842" lon="10.901756183769109"><ele>90.5</ele><time>2026-04-06T16:50:10.912Z</time></trkpt><trkpt lat="45.43752174788745" lon="10.901870203212964"><ele>90.0</ele><time>2026-04-06T16:50:11.912Z</time></trkpt><trkpt lat="45.43743668172461" lon="10.901995127961484"><ele>89.5</ele><time>2026-04-06T16:50:12.912Z</time></trkpt><trkpt lat="45.43735834470825" lon="10.902108020955536"><ele>89.0</ele><time>2026-04-06T16:50:13.912Z</time></trkpt><trkpt lat="45.437288223829356" lon="10.902221940102972"><ele>89.0</ele><time>2026-04-06T16:50:14.912Z</time></trkpt><trkpt lat="45.43722468115424" lon="10.90232720449282"><ele>89.0</ele><time>2026-04-06T16:50:15.912Z</time></trkpt><trkpt lat="45.437156891757645" lon="10.902432441814964"><ele>89.0</ele><time>2026-04-06T16:50:16.912Z</time></trkpt><trkpt lat="45.4370798467779" lon="10.902541657358004"><ele>89.0</ele><time>2026-04-06T16:50:17.912Z</time></trkpt><trkpt lat="45.4370052009756" lon="10.902648614120789"><ele>89.0</ele><time>2026-04-06T16:50:18.912Z</time></trkpt><trkpt lat="45.43693825025937" lon="10.902747452843403"><ele>89.0</ele><time>2026-04-06T16:50:19.912Z</time></trkpt><trkpt lat="45.43687333577414" lon="10.90283656276656"><ele>89.0</ele><time>2026-04-06T16:50:20.912Z</time></trkpt><trkpt lat="45.43681030628587" lon="10.902929271751152"><ele>89.0</ele><time>2026-04-06T16:50:21.912Z</time></trkpt><trkpt lat="45.43674081040223" lon="10.903031662431841"><ele>89.0</ele><time>2026-04-06T16:50:22.912Z</time></trkpt><trkpt lat="45.43667094413036" lon="10.903139283683469"><ele>89.0</ele><time>2026-04-06T16:50:23.912Z</time></trkpt><trkpt lat="45.43660023160077" lon="10.903245816395858"><ele>89.0</ele><time>2026-04-06T16:50:24.912Z</time></trkpt><trkpt lat="45.43651652005484" lon="10.903380896826206"><ele>89.0</ele><time>2026-04-06T16:50:25.912Z</time></trkpt><trkpt lat="45.436414571389804" lon="10.903538038661392"><ele>89.0</ele><time>2026-04-06T16:50:26.912Z</time></trkpt><trkpt lat="45.43632333949418" lon="10.903673762317505"><ele>89.0</ele><time>2026-04-06T16:50:27.912Z</time></trkpt><trkpt lat="45.436236906907084" lon="10.903794537698044"><ele>89.0</ele><time>2026-04-06T16:50:28.912Z</time></trkpt><trkpt lat="45.43616904434079" lon="10.903902280146804"><ele>89.0</ele><time>2026-04-06T16:50:29.912Z</time></trkpt><trkpt lat="45.436089968615434" lon="10.904020264408915"><ele>89.0</ele><time>2026-04-06T16:50:30.912Z</time></trkpt><trkpt lat="45.435996815441655" lon="10.904154082498302"><ele>89.0</ele><time>2026-04-06T16:50:31.912Z</time></trkpt><trkpt lat="45.43590200262646" lon="10.904278826703166"><ele>89.0</ele><time>2026-04-06T16:50:32.912Z</time></trkpt><trkpt lat="45.43580392343813" lon="10.904413513122822"><ele>89.0</ele><time>2026-04-06T16:50:33.912Z</time></trkpt><trkpt lat="45.435707158510425" lon="10.90454342485727"><ele>89.0</ele><time>2026-04-06T16:50:34.912Z</time></trkpt><trkpt lat="45.435617877524834" lon="10.904667344289132"><ele>89.0</ele><time>2026-04-06T16:50:35.912Z</time></trkpt><trkpt lat="45.435536595753774" lon="10.904791695660856"><ele>89.2</ele><time>2026-04-06T16:50:36.912Z</time></trkpt><trkpt lat="45.435459407517904" lon="10.904906017790356"><ele>89.4</ele><time>2026-04-06T16:50:37.912Z</time></trkpt><trkpt lat="45.435377980156716" lon="10.905021810391917"><ele>89.6</ele><time>2026-04-06T16:50:38.912Z</time></trkpt><trkpt lat="45.4352966730135" lon="10.905133133327077"><ele>89.8</ele><time>2026-04-06T16:50:39.912Z</time></trkpt><trkpt lat="45.435221507749034" lon="10.905238538592565"><ele>90.0</ele><time>2026-04-06T16:50:40.912Z</time></trkpt><trkpt lat="45.43515058492417" lon="10.905338604431966"><ele>89.6</ele><time>2026-04-06T16:50:41.912Z</time></trkpt><trkpt lat="45.43508023002423" lon="10.905443774387727"><ele>89.2</ele><time>2026-04-06T16:50:42.912Z</time></trkpt><trkpt lat="45.435010503494226" lon="10.905544128461411"><ele>88.80000000000001</ele><time>2026-04-06T16:50:43.912Z</time></trkpt><trkpt lat="45.43495161753669" lon="10.905601964880397"><ele>88.4</ele><time>2026-04-06T16:50:44.912Z</time></trkpt><trkpt lat="45.43487773938374" lon="10.905641296950254"><ele>88.0</ele><time>2026-04-06T16:50:45.912Z</time></trkpt><trkpt lat="45.43477951773455" lon="10.90568329053966"><ele>88.0</ele><time>2026-04-06T16:50:46.912Z</time></trkpt><trkpt lat="45.434669953629964" lon="10.9057345672167"><ele>88.0</ele><time>2026-04-06T16:50:47.912Z</time></trkpt><trkpt lat="45.43455725130338" lon="10.905776666603508"><ele>88.0</ele><time>2026-04-06T16:50:48.912Z</time></trkpt><trkpt lat="45.43444328325149" lon="10.905825129962867"><ele>88.0</ele><time>2026-04-06T16:50:49.912Z</time></trkpt><trkpt lat="45.43433898945781" lon="10.905876561326325"><ele>88.5</ele><time>2026-04-06T16:50:50.912Z</time></trkpt><trkpt lat="45.434228161147686" lon="10.9059403354958"><ele>89.0</ele><time>2026-04-06T16:50:51.912Z</time></trkpt><trkpt lat="45.43411251609732" lon="10.906032193324904"><ele>89.5</ele><time>2026-04-06T16:50:52.912Z</time></trkpt><trkpt lat="45.434005154629425" lon="10.906125639880688"><ele>90.0</ele><time>2026-04-06T16:50:53.912Z</time></trkpt><trkpt lat="45.433905939675135" lon="10.906226079353294"><ele>90.0</ele><time>2026-04-06T16:50:54.912Z</time></trkpt><trkpt lat="45.43381318283078" lon="10.906344862366067"><ele>90.0</ele><time>2026-04-06T16:50:55.912Z</time></trkpt><trkpt lat="45.43373197542823" lon="10.906454625834566"><ele>90.0</ele><time>2026-04-06T16:50:56.912Z</time></trkpt><trkpt lat="45.433661780315724" lon="10.906573883602913"><ele>90.0</ele><time>2026-04-06T16:50:57.912Z</time></trkpt><trkpt lat="45.433599734134624" lon="10.906704292252392"><ele>89.25</ele><time>2026-04-06T16:50:58.912Z</time></trkpt><trkpt lat="45.433531782794454" lon="10.906848134988595"><ele>88.5</ele><time>2026-04-06T16:50:59.912Z</time></trkpt><trkpt lat="45.43346987211329" lon="10.90699035150402"><ele>87.75</ele><time>2026-04-06T16:51:00.912Z</time></trkpt><trkpt lat="45.43341884932928" lon="10.907139378151998"><ele>87.0</ele><time>2026-04-06T16:51:01.912Z</time></trkpt><trkpt lat="45.43336348139176" lon="10.907272036517044"><ele>87.0</ele><time>2026-04-06T16:51:02.912Z</time></trkpt><trkpt lat="45.433304006176236" lon="10.90740633316303"><ele>87.0</ele><time>2026-04-06T16:51:03.912Z</time></trkpt><trkpt lat="45.43323871162728" lon="10.907553274825467"><ele>87.0</ele><time>2026-04-06T16:51:04.912Z</time></trkpt><trkpt lat="45.43317282146764" lon="10.907696022198023"><ele>87.0</ele><time>2026-04-06T16:51:05.912Z</time></trkpt><trkpt lat="45.433096913276444" lon="10.907845815420531"><ele>87.0</ele><time>2026-04-06T16:51:06.912Z</time></trkpt><trkpt lat="45.43301798047116" lon="10.907972618014716"><ele>87.0</ele><time>2026-04-06T16:51:07.912Z</time></trkpt><trkpt lat="45.43293742289167" lon="10.908091163342187"><ele>87.0</ele><time>2026-04-06T16:51:08.912Z</time></trkpt><trkpt lat="45.432855578274975" lon="10.908190674533607"><ele>87.0</ele><time>2026-04-06T16:51:09.912Z</time></trkpt><trkpt lat="45.4327534135343" lon="10.908327088168056"><ele>87.0</ele><time>2026-04-06T16:51:10.912Z</time></trkpt><trkpt lat="45.432646221694355" lon="10.90846970940109"><ele>87.0</ele><time>2026-04-06T16:51:11.912Z</time></trkpt><trkpt lat="45.43254257256321" lon="10.908576544258315"><ele>87.0</ele><time>2026-04-06T16:51:12.912Z</time></trkpt><trkpt lat="45.432434384343445" lon="10.90867030937863"><ele>87.0</ele><time>2026-04-06T16:51:13.912Z</time></trkpt><trkpt lat="45.43231505540493" lon="10.908759318372327"><ele>87.0</ele><time>2026-04-06T16:51:14.912Z</time></trkpt><trkpt lat="45.43217224017691" lon="10.908858204306128"><ele>87.0</ele><time>2026-04-06T16:51:15.912Z</time></trkpt><trkpt lat="45.43202347956211" lon="10.908959390970365"><ele>87.0</ele><time>2026-04-06T16:51:16.912Z</time></trkpt><trkpt lat="45.43188757380366" lon="10.909060826731087"><ele>86.33333333333333</ele><time>2026-04-06T16:51:17.912Z</time></trkpt><trkpt lat="45.43175122220907" lon="10.909152357341066"><ele>85.66666666666666</ele><time>2026-04-06T16:51:18.912Z</time></trkpt><trkpt lat="45.43161569369405" lon="10.909245984545056"><ele>85.0</ele><time>2026-04-06T16:51:19.912Z</time></trkpt><trkpt lat="45.43147086084429" lon="10.909348657684363"><ele>85.0</ele><time>2026-04-06T16:51:20.912Z</time></trkpt><trkpt lat="45.431331646384685" lon="10.909441427171279"><ele>85.0</ele><time>2026-04-06T16:51:21.912Z</time></trkpt><trkpt lat="45.431198126396275" lon="10.909534068546863"><ele>85.0</ele><time>2026-04-06T16:51:22.912Z</time></trkpt><trkpt lat="45.4310682956635" lon="10.909629556668134"><ele>85.0</ele><time>2026-04-06T16:51:23.912Z</time></trkpt><trkpt lat="45.43093860219764" lon="10.909724209833144"><ele>84.33333333333333</ele><time>2026-04-06T16:51:24.912Z</time></trkpt><trkpt lat="45.430812966350985" lon="10.90981560912819"><ele>83.66666666666667</ele><time>2026-04-06T16:51:25.912Z</time></trkpt><trkpt lat="45.43068694843173" lon="10.909925900115864"><ele>83.0</ele><time>2026-04-06T16:51:26.912Z</time></trkpt><trkpt lat="45.430543220267424" lon="10.910071120160035"><ele>82.60000000000001</ele><time>2026-04-06T16:51:27.912Z</time></trkpt><trkpt lat="45.43041481856499" lon="10.910185124780803"><ele>82.2</ele><time>2026-04-06T16:51:28.912Z</time></trkpt><trkpt lat="45.43033540443726" lon="10.910185461398994"><ele>81.8</ele><time>2026-04-06T16:51:29.912Z</time></trkpt><trkpt lat="45.430256190172955" lon="10.910192235171086"><ele>81.4</ele><time>2026-04-06T16:51:30.912Z</time></trkpt><trkpt lat="45.430159999994885" lon="10.910285759658928"><ele>81.0</ele><time>2026-04-06T16:51:31.912Z</time></trkpt><trkpt lat="45.42997281439181" lon="10.910444054532979"><ele>81.0</ele><time>2026-04-06T16:51:32.912Z</time></trkpt><trkpt lat="45.42983907063084" lon="10.910559358453131"><ele>81.0</ele><time>2026-04-06T16:51:33.912Z</time></trkpt><trkpt lat="45.429700995690645" lon="10.910675462906912"><ele>81.0</ele><time>2026-04-06T16:51:34.912Z</time></trkpt><trkpt lat="45.429575656358665" lon="10.910796688271875"><ele>81.0</ele><time>2026-04-06T16:51:35.912Z</time></trkpt><trkpt lat="45.429455560749155" lon="10.910926436450115"><ele>81.0</ele><time>2026-04-06T16:51:36.912Z</time></trkpt><trkpt lat="45.429346842237834" lon="10.911075194992444"><ele>81.0</ele><time>2026-04-06T16:51:37.912Z</time></trkpt><trkpt lat="45.429233140248414" lon="10.911246938620723"><ele>81.0</ele><time>2026-04-06T16:51:38.912Z</time></trkpt><trkpt lat="45.429120503500926" lon="10.91143213415721"><ele>81.0</ele><time>2026-04-06T16:51:39.912Z</time></trkpt><trkpt lat="45.429024485958976" lon="10.911618620363381"><ele>81.0</ele><time>2026-04-06T16:51:40.912Z</time></trkpt><trkpt lat="45.42894315602999" lon="10.911806209219899"><ele>80.66666666666667</ele><time>2026-04-06T16:51:41.912Z</time></trkpt><trkpt lat="45.428875224317345" lon="10.912003056058973"><ele>80.33333333333334</ele><time>2026-04-06T16:51:42.912Z</time></trkpt><trkpt lat="45.42881438153545" lon="10.912203388717023"><ele>80.0</ele><time>2026-04-06T16:51:43.912Z</time></trkpt><trkpt lat="45.42875389036991" lon="10.912413268340318"><ele>79.75</ele><time>2026-04-06T16:51:44.912Z</time></trkpt><trkpt lat="45.42870219095041" lon="10.912622165315474"><ele>79.5</ele><time>2026-04-06T16:51:45.912Z</time></trkpt><trkpt lat="45.428650811855675" lon="10.912817259128007"><ele>79.25</ele><time>2026-04-06T16:51:46.912Z</time></trkpt><trkpt lat="45.42859739500391" lon="10.913012261568618"><ele>79.0</ele><time>2026-04-06T16:51:47.912Z</time></trkpt><trkpt lat="45.4285462065743" lon="10.913205199987017"><ele>79.0</ele><time>2026-04-06T16:51:48.912Z</time></trkpt><trkpt lat="45.428493939748215" lon="10.913388940111853"><ele>79.0</ele><time>2026-04-06T16:51:49.912Z</time></trkpt><trkpt lat="45.428436259993504" lon="10.913578789967293"><ele>79.0</ele><time>2026-04-06T16:51:50.912Z</time></trkpt><trkpt lat="45.428372507190055" lon="10.91375660178052"><ele>79.0</ele><time>2026-04-06T16:51:51.912Z</time></trkpt><trkpt lat="45.42829577675852" lon="10.913908915271968"><ele>78.75</ele><time>2026-04-06T16:51:52.912Z</time></trkpt><trkpt lat="45.42820290035882" lon="10.914053573134446"><ele>78.5</ele><time>2026-04-06T16:51:53.912Z</time></trkpt><trkpt lat="45.42808867519297" lon="10.914183462899954"><ele>78.25</ele><time>2026-04-06T16:51:54.912Z</time></trkpt><trkpt lat="45.427959282292555" lon="10.914293653692335"><ele>78.0</ele><time>2026-04-06T16:51:55.912Z</time></trkpt><trkpt lat="45.42781195974025" lon="10.91436563587863"><ele>77.66666666666667</ele><time>2026-04-06T16:51:56.912Z</time></trkpt><trkpt lat="45.42765510576421" lon="10.914418982881092"><ele>77.33333333333334</ele><time>2026-04-06T16:51:57.912Z</time></trkpt><trkpt lat="45.42749085247505" lon="10.914468388282055"><ele>77.0</ele><time>2026-04-06T16:51:58.912Z</time></trkpt><trkpt lat="45.42733385665819" lon="10.914511884356036"><ele>77.0</ele><time>2026-04-06T16:51:59.912Z</time></trkpt><trkpt lat="45.427168841737085" lon="10.914561942499923"><ele>77.0</ele><time>2026-04-06T16:52:00.912Z</time></trkpt><trkpt lat="45.42699219164525" lon="10.914607922084796"><ele>77.0</ele><time>2026-04-06T16:52:01.912Z</time></trkpt><trkpt lat="45.426782929637355" lon="10.914642184603924"><ele>77.0</ele><time>2026-04-06T16:52:02.912Z</time></trkpt><trkpt lat="45.42657279359984" lon="10.914705966010965"><ele>77.0</ele><time>2026-04-06T16:52:03.912Z</time></trkpt><trkpt lat="45.42636842283532" lon="10.914736174570129"><ele>77.0</ele><time>2026-04-06T16:52:04.912Z</time></trkpt><trkpt lat="45.426156652594656" lon="10.914748981834665"><ele>76.5</ele><time>2026-04-06T16:52:05.912Z</time></trkpt><trkpt lat="45.42592876243096" lon="10.914750891041864"><ele>76.0</ele><time>2026-04-06T16:52:06.912Z</time></trkpt><trkpt lat="45.425692194212935" lon="10.914740054153791"><ele>75.0</ele><time>2026-04-06T16:52:07.912Z</time></trkpt><trkpt lat="45.42544026973177" lon="10.914716109841963"><ele>74.0</ele><time>2026-04-06T16:52:08.912Z</time></trkpt><trkpt lat="45.42518349314866" lon="10.91469191879252"><ele>74.0</ele><time>2026-04-06T16:52:09.912Z</time></trkpt><trkpt lat="45.424918570510904" lon="10.914680817027167"><ele>74.0</ele><time>2026-04-06T16:52:10.912Z</time></trkpt><trkpt lat="45.42464501062006" lon="10.914684878261573"><ele>74.5</ele><time>2026-04-06T16:52:11.912Z</time></trkpt><trkpt lat="45.42438348307105" lon="10.914688925375307"><ele>75.0</ele><time>2026-04-06T16:52:12.912Z</time></trkpt><trkpt lat="45.42413513440491" lon="10.914686197851795"><ele>75.0</ele><time>2026-04-06T16:52:13.912Z</time></trkpt><trkpt lat="45.423862306379654" lon="10.914708578240177"><ele>75.0</ele><time>2026-04-06T16:52:14.912Z</time></trkpt><trkpt lat="45.42359205300248" lon="10.91471047350239"><ele>75.5</ele><time>2026-04-06T16:52:15.912Z</time></trkpt><trkpt lat="45.423297885401965" lon="10.914729836451366"><ele>76.0</ele><time>2026-04-06T16:52:16.912Z</time></trkpt><trkpt lat="45.423039255762305" lon="10.914700703090297"><ele>74.5</ele><time>2026-04-06T16:52:17.912Z</time></trkpt><trkpt lat="45.42278122120749" lon="10.914699847422112"><ele>73.0</ele><time>2026-04-06T16:52:18.912Z</time></trkpt><trkpt lat="45.422517725200706" lon="10.914696577392109"><ele>73.0</ele><time>2026-04-06T16:52:19.912Z</time></trkpt><trkpt lat="45.42225023311407" lon="10.914694775057137"><ele>73.0</ele><time>2026-04-06T16:52:20.912Z</time></trkpt><trkpt lat="45.42198202931079" lon="10.914690567016779"><ele>73.0</ele><time>2026-04-06T16:52:21.912Z</time></trkpt><trkpt lat="45.42170879506804" lon="10.914684764010719"><ele>73.0</ele><time>2026-04-06T16:52:22.912Z</time></trkpt><trkpt lat="45.421438630640516" lon="10.914678768439384"><ele>73.5</ele><time>2026-04-06T16:52:23.912Z</time></trkpt><trkpt lat="45.42116823799338" lon="10.914673976585014"><ele>74.0</ele><time>2026-04-06T16:52:24.912Z</time></trkpt><trkpt lat="45.42089821334513" lon="10.91466698472421"><ele>74.0</ele><time>2026-04-06T16:52:25.912Z</time></trkpt><trkpt lat="45.42061768247922" lon="10.914663066875416"><ele>74.0</ele><time>2026-04-06T16:52:26.912Z</time></trkpt><trkpt lat="45.42032545504141" lon="10.914661231681578"><ele>73.5</ele><time>2026-04-06T16:52:27.912Z</time></trkpt><trkpt lat="45.42002800649879" lon="10.914653457993907"><ele>73.0</ele><time>2026-04-06T16:52:28.912Z</time></trkpt><trkpt lat="45.419734481375485" lon="10.914643994031227"><ele>73.5</ele><time>2026-04-06T16:52:29.912Z</time></trkpt><trkpt lat="45.41944453417224" lon="10.914634359266921"><ele>74.0</ele><time>2026-04-06T16:52:30.912Z</time></trkpt><trkpt lat="45.419144471455176" lon="10.914631461512716"><ele>74.0</ele><time>2026-04-06T16:52:31.912Z</time></trkpt><trkpt lat="45.41884713698917" lon="10.914626137132977"><ele>74.0</ele><time>2026-04-06T16:52:32.912Z</time></trkpt><trkpt lat="45.4185516319342" lon="10.914622381891828"><ele>74.0</ele><time>2026-04-06T16:52:33.912Z</time></trkpt><trkpt lat="45.41825987794774" lon="10.914614523865112"><ele>74.0</ele><time>2026-04-06T16:52:34.912Z</time></trkpt><trkpt lat="45.4179788447533" lon="10.914612317225723"><ele>74.0</ele><time>2026-04-06T16:52:35.912Z</time></trkpt><trkpt lat="45.41770985459765" lon="10.914608553765298"><ele>74.0</ele><time>2026-04-06T16:52:36.912Z</time></trkpt><trkpt lat="45.41742361813996" lon="10.914608959730783"><ele>74.5</ele><time>2026-04-06T16:52:37.912Z</time></trkpt><trkpt lat="45.41712332407056" lon="10.914622930028896"><ele>75.0</ele><time>2026-04-06T16:52:38.912Z</time></trkpt><trkpt lat="45.4168428730101" lon="10.914638367292085"><ele>75.0</ele><time>2026-04-06T16:52:39.912Z</time></trkpt><trkpt lat="45.41657123550872" lon="10.914653852719024"><ele>75.0</ele><time>2026-04-06T16:52:40.912Z</time></trkpt><trkpt lat="45.41630352059494" lon="10.914678114742713"><ele>75.0</ele><time>2026-04-06T16:52:41.912Z</time></trkpt><trkpt lat="45.4160369539354" lon="10.914708707454494"><ele>75.0</ele><time>2026-04-06T16:52:42.912Z</time></trkpt><trkpt lat="45.415788669652954" lon="10.914735051364303"><ele>75.0</ele><time>2026-04-06T16:52:43.912Z</time></trkpt><trkpt lat="45.415548351436556" lon="10.914771785358"><ele>75.0</ele><time>2026-04-06T16:52:44.912Z</time></trkpt><trkpt lat="45.41531920275724" lon="10.914815792717818"><ele>74.5</ele><time>2026-04-06T16:52:45.912Z</time></trkpt><trkpt lat="45.415090467095034" lon="10.914862972171324"><ele>74.0</ele><time>2026-04-06T16:52:46.912Z</time></trkpt><trkpt lat="45.414852483142504" lon="10.914907031600519"><ele>72.0</ele><time>2026-04-06T16:52:47.912Z</time></trkpt><trkpt lat="45.41460267985341" lon="10.91496119985459"><ele>70.0</ele><time>2026-04-06T16:52:48.912Z</time></trkpt><trkpt lat="45.414337481438174" lon="10.915016364027348"><ele>69.5</ele><time>2026-04-06T16:52:49.912Z</time></trkpt><trkpt lat="45.41405733818582" lon="10.915078728377157"><ele>69.0</ele><time>2026-04-06T16:52:50.912Z</time></trkpt><trkpt lat="45.4137671576925" lon="10.915127837210767"><ele>68.5</ele><time>2026-04-06T16:52:51.912Z</time></trkpt><trkpt lat="45.41346651939783" lon="10.915187263840119"><ele>68.0</ele><time>2026-04-06T16:52:52.912Z</time></trkpt><trkpt lat="45.41317079800292" lon="10.91524106324044"><ele>68.0</ele><time>2026-04-06T16:52:53.912Z</time></trkpt><trkpt lat="45.41288197007328" lon="10.915299341106849"><ele>68.0</ele><time>2026-04-06T16:52:54.912Z</time></trkpt><trkpt lat="45.41258733570235" lon="10.915340046659143"><ele>68.0</ele><time>2026-04-06T16:52:55.912Z</time></trkpt><trkpt lat="45.41231781612475" lon="10.915389690512166"><ele>68.0</ele><time>2026-04-06T16:52:56.912Z</time></trkpt><trkpt lat="45.41206674261315" lon="10.915440701772862"><ele>68.5</ele><time>2026-04-06T16:52:57.912Z</time></trkpt><trkpt lat="45.411830672664586" lon="10.915499477804769"><ele>69.0</ele><time>2026-04-06T16:52:58.912Z</time></trkpt><trkpt lat="45.411596434612605" lon="10.915568440595608"><ele>69.0</ele><time>2026-04-06T16:52:59.912Z</time></trkpt><trkpt lat="45.41135351433267" lon="10.915667879650908"><ele>69.0</ele><time>2026-04-06T16:53:00.912Z</time></trkpt><trkpt lat="45.41110765187839" lon="10.915790519528008"><ele>67.0</ele><time>2026-04-06T16:53:01.912Z</time></trkpt><trkpt lat="45.41086137893101" lon="10.915934360004261"><ele>65.0</ele><time>2026-04-06T16:53:02.912Z</time></trkpt><trkpt lat="45.41061343664642" lon="10.916094207029673"><ele>68.0</ele><time>2026-04-06T16:53:03.912Z</time></trkpt><trkpt lat="45.41038783757495" lon="10.91625147315469"><ele>71.0</ele><time>2026-04-06T16:53:04.912Z</time></trkpt><trkpt lat="45.41017289876693" lon="10.916414531669798"><ele>71.0</ele><time>2026-04-06T16:53:05.912Z</time></trkpt><trkpt lat="45.40994908564958" lon="10.916594269042712"><ele>71.0</ele><time>2026-04-06T16:53:06.912Z</time></trkpt><trkpt lat="45.40972611442743" lon="10.916786220547989"><ele>69.5</ele><time>2026-04-06T16:53:07.912Z</time></trkpt><trkpt lat="45.40950857403583" lon="10.91700152825051"><ele>68.0</ele><time>2026-04-06T16:53:08.912Z</time></trkpt><trkpt lat="45.40929907672606" lon="10.917232732314739"><ele>68.0</ele><time>2026-04-06T16:53:09.912Z</time></trkpt><trkpt lat="45.40909577998789" lon="10.917482467028384"><ele>68.0</ele><time>2026-04-06T16:53:10.912Z</time></trkpt><trkpt lat="45.40890123894013" lon="10.917739936034975"><ele>66.0</ele><time>2026-04-06T16:53:11.912Z</time></trkpt><trkpt lat="45.408723716846076" lon="10.918006896885919"><ele>64.0</ele><time>2026-04-06T16:53:12.912Z</time></trkpt><trkpt lat="45.40855867070168" lon="10.918281295490619"><ele>65.5</ele><time>2026-04-06T16:53:13.912Z</time></trkpt><trkpt lat="45.40840363500887" lon="10.91855764130582"><ele>67.0</ele><time>2026-04-06T16:53:14.912Z</time></trkpt><trkpt lat="45.40826814765462" lon="10.918831006675733"><ele>67.0</ele><time>2026-04-06T16:53:15.912Z</time></trkpt><trkpt lat="45.408148531191664" lon="10.919106711202529"><ele>67.0</ele><time>2026-04-06T16:53:16.912Z</time></trkpt><trkpt lat="45.40807780228598" lon="10.919376405257651"><ele>67.0</ele><time>2026-04-06T16:53:17.912Z</time></trkpt><trkpt lat="45.408009111773254" lon="10.91963499361566"><ele>67.0</ele><time>2026-04-06T16:53:18.912Z</time></trkpt><trkpt lat="45.40795630434883" lon="10.91990751838417"><ele>67.0</ele><time>2026-04-06T16:53:19.912Z</time></trkpt><trkpt lat="45.40792299199075" lon="10.920185498315123"><ele>67.0</ele><time>2026-04-06T16:53:20.912Z</time></trkpt><trkpt lat="45.40789866752222" lon="10.920494425510322"><ele>67.0</ele><time>2026-04-06T16:53:21.912Z</time></trkpt><trkpt lat="45.40789316838683" lon="10.92083043717079"><ele>67.0</ele><time>2026-04-06T16:53:22.912Z</time></trkpt><trkpt lat="45.407879864516175" lon="10.921169663349744"><ele>66.5</ele><time>2026-04-06T16:53:23.912Z</time></trkpt><trkpt lat="45.4078490145418" lon="10.921494363570813"><ele>66.0</ele><time>2026-04-06T16:53:24.912Z</time></trkpt><trkpt lat="45.40779432075986" lon="10.921810769514078"><ele>66.0</ele><time>2026-04-06T16:53:25.912Z</time></trkpt><trkpt lat="45.407710903292255" lon="10.922146863267033"><ele>66.0</ele><time>2026-04-06T16:53:26.912Z</time></trkpt><trkpt lat="45.407598847444625" lon="10.922492028428568"><ele>66.5</ele><time>2026-04-06T16:53:27.912Z</time></trkpt><trkpt lat="45.40746203005727" lon="10.922838189050108"><ele>67.0</ele><time>2026-04-06T16:53:28.912Z</time></trkpt><trkpt lat="45.40731461578351" lon="10.92317574507262"><ele>66.5</ele><time>2026-04-06T16:53:29.912Z</time></trkpt><trkpt lat="45.407179401892265" lon="10.923518859234342"><ele>66.0</ele><time>2026-04-06T16:53:30.912Z</time></trkpt><trkpt lat="45.407062278381254" lon="10.923826671292895"><ele>67.0</ele><time>2026-04-06T16:53:31.912Z</time></trkpt><trkpt lat="45.40695010800944" lon="10.924124191667742"><ele>68.0</ele><time>2026-04-06T16:53:32.912Z</time></trkpt><trkpt lat="45.40683270036183" lon="10.924425384854237"><ele>66.0</ele><time>2026-04-06T16:53:33.912Z</time></trkpt><trkpt lat="45.40670107238807" lon="10.924728055336516"><ele>64.0</ele><time>2026-04-06T16:53:34.912Z</time></trkpt><trkpt lat="45.4065561941759" lon="10.925007041014124"><ele>64.0</ele><time>2026-04-06T16:53:35.912Z</time></trkpt><trkpt lat="45.40640484437822" lon="10.925275986754757"><ele>64.0</ele><time>2026-04-06T16:53:36.912Z</time></trkpt><trkpt lat="45.40623655388998" lon="10.925543856270112"><ele>64.0</ele><time>2026-04-06T16:53:37.912Z</time></trkpt><trkpt lat="45.406055358540094" lon="10.925800948964746"><ele>64.0</ele><time>2026-04-06T16:53:38.912Z</time></trkpt><trkpt lat="45.40586364021212" lon="10.926063278166136"><ele>65.0</ele><time>2026-04-06T16:53:39.912Z</time></trkpt><trkpt lat="45.40563264049729" lon="10.926321678817978"><ele>66.0</ele><time>2026-04-06T16:53:40.912Z</time></trkpt><trkpt lat="45.405391382635706" lon="10.926588414429904"><ele>66.5</ele><time>2026-04-06T16:53:41.912Z</time></trkpt><trkpt lat="45.405137950214986" lon="10.926867548805648"><ele>67.0</ele><time>2026-04-06T16:53:42.912Z</time></trkpt><trkpt lat="45.4048973378356" lon="10.92712667835429"><ele>67.0</ele><time>2026-04-06T16:53:43.912Z</time></trkpt><trkpt lat="45.40467142065241" lon="10.927375935901011"><ele>67.0</ele><time>2026-04-06T16:53:44.912Z</time></trkpt><trkpt lat="45.40447669003387" lon="10.927617858087036"><ele>66.5</ele><time>2026-04-06T16:53:45.912Z</time></trkpt><trkpt lat="45.40427251170903" lon="10.927796263129189"><ele>66.0</ele><time>2026-04-06T16:53:46.912Z</time></trkpt><trkpt lat="45.40407204351026" lon="10.928021769073629"><ele>66.0</ele><time>2026-04-06T16:53:47.912Z</time></trkpt><trkpt lat="45.40385120211867" lon="10.92824348875438"><ele>66.0</ele><time>2026-04-06T16:53:48.912Z</time></trkpt><trkpt lat="45.40362348024021" lon="10.928467845915897"><ele>65.33333333333333</ele><time>2026-04-06T16:53:49.912Z</time></trkpt><trkpt lat="45.403462269533144" lon="10.928681207682997"><ele>64.66666666666666</ele><time>2026-04-06T16:53:50.912Z</time></trkpt><trkpt lat="45.40335081350027" lon="10.928915313484788"><ele>64.0</ele><time>2026-04-06T16:53:51.912Z</time></trkpt><trkpt lat="45.403221503423275" lon="10.929182891996913"><ele>66.5</ele><time>2026-04-06T16:53:52.912Z</time></trkpt><trkpt lat="45.40311635501073" lon="10.929474500205759"><ele>69.0</ele><time>2026-04-06T16:53:53.912Z</time></trkpt><trkpt lat="45.40303116253285" lon="10.92977795543001"><ele>66.5</ele><time>2026-04-06T16:53:54.912Z</time></trkpt><trkpt lat="45.40296112181438" lon="10.930091175926355"><ele>64.0</ele><time>2026-04-06T16:53:55.912Z</time></trkpt><trkpt lat="45.40291208005956" lon="10.930411541422226"><ele>64.0</ele><time>2026-04-06T16:53:56.912Z</time></trkpt><trkpt lat="45.40288850643715" lon="10.930740108071355"><ele>64.0</ele><time>2026-04-06T16:53:57.912Z</time></trkpt><trkpt lat="45.40287142987556" lon="10.931094464082397"><ele>64.0</ele><time>2026-04-06T16:53:58.912Z</time></trkpt><trkpt lat="45.402854619636756" lon="10.931451345678576"><ele>64.0</ele><time>2026-04-06T16:53:59.912Z</time></trkpt><trkpt lat="45.402833072971305" lon="10.931774889195859"><ele>64.0</ele><time>2026-04-06T16:54:00.912Z</time></trkpt><trkpt lat="45.40281086362399" lon="10.932085550677945"><ele>64.0</ele><time>2026-04-06T16:54:01.912Z</time></trkpt><trkpt lat="45.402789767059005" lon="10.932412984253146"><ele>64.0</ele><time>2026-04-06T16:54:02.912Z</time></trkpt><trkpt lat="45.402769347341696" lon="10.932765808612793"><ele>64.0</ele><time>2026-04-06T16:54:03.912Z</time></trkpt><trkpt lat="45.40273522064752" lon="10.933132960546159"><ele>64.0</ele><time>2026-04-06T16:54:04.912Z</time></trkpt><trkpt lat="45.4026837337453" lon="10.933502314003247"><ele>64.0</ele><time>2026-04-06T16:54:05.912Z</time></trkpt><trkpt lat="45.40260995935459" lon="10.933882090625719"><ele>64.0</ele><time>2026-04-06T16:54:06.912Z</time></trkpt><trkpt lat="45.402521665010624" lon="10.934277793337332"><ele>64.0</ele><time>2026-04-06T16:54:07.912Z</time></trkpt><trkpt lat="45.40243397627834" lon="10.934683206812611"><ele>64.5</ele><time>2026-04-06T16:54:08.912Z</time></trkpt><trkpt lat="45.402350360871345" lon="10.93509025951799"><ele>65.0</ele><time>2026-04-06T16:54:09.912Z</time></trkpt><trkpt lat="45.402267832585665" lon="10.935486074254742"><ele>65.0</ele><time>2026-04-06T16:54:10.912Z</time></trkpt><trkpt lat="45.402186083521" lon="10.935879134619558"><ele>65.0</ele><time>2026-04-06T16:54:11.912Z</time></trkpt><trkpt lat="45.402107188950076" lon="10.936276427406678"><ele>63.5</ele><time>2026-04-06T16:54:12.912Z</time></trkpt><trkpt lat="45.40202610687984" lon="10.93668818682604"><ele>62.0</ele><time>2026-04-06T16:54:13.912Z</time></trkpt><trkpt lat="45.40194165820464" lon="10.93712739911916"><ele>62.0</ele><time>2026-04-06T16:54:14.912Z</time></trkpt><trkpt lat="45.40184820168105" lon="10.937575496244555"><ele>62.0</ele><time>2026-04-06T16:54:15.912Z</time></trkpt><trkpt lat="45.40175785680039" lon="10.938020232720172"><ele>61.5</ele><time>2026-04-06T16:54:16.912Z</time></trkpt><trkpt lat="45.401676905558105" lon="10.938428894449611"><ele>61.0</ele><time>2026-04-06T16:54:17.912Z</time></trkpt><trkpt lat="45.40160100067521" lon="10.93882219120203"><ele>61.0</ele><time>2026-04-06T16:54:18.912Z</time></trkpt><trkpt lat="45.40152539413366" lon="10.93919582800886"><ele>61.0</ele><time>2026-04-06T16:54:19.912Z</time></trkpt><trkpt lat="45.401453459936455" lon="10.93955637068781"><ele>60.0</ele><time>2026-04-06T16:54:20.912Z</time></trkpt><trkpt lat="45.401386627780084" lon="10.939920370444783"><ele>59.0</ele><time>2026-04-06T16:54:21.912Z</time></trkpt><trkpt lat="45.401316468852315" lon="10.940288679443071"><ele>59.0</ele><time>2026-04-06T16:54:22.912Z</time></trkpt><trkpt lat="45.40124215699442" lon="10.94065514132797"><ele>59.0</ele><time>2026-04-06T16:54:23.912Z</time></trkpt><trkpt lat="45.40116858393099" lon="10.9410342946742"><ele>59.0</ele><time>2026-04-06T16:54:24.912Z</time></trkpt><trkpt lat="45.401092712230124" lon="10.941410043837148"><ele>59.0</ele><time>2026-04-06T16:54:25.912Z</time></trkpt><trkpt lat="45.40101241028076" lon="10.941789440387176"><ele>59.0</ele><time>2026-04-06T16:54:26.912Z</time></trkpt><trkpt lat="45.40093480493455" lon="10.942172550807985"><ele>59.0</ele><time>2026-04-06T16:54:27.912Z</time></trkpt><trkpt lat="45.40085653644967" lon="10.94255442732317"><ele>59.0</ele><time>2026-04-06T16:54:28.912Z</time></trkpt><trkpt lat="45.400783120669466" lon="10.942929872929533"><ele>59.0</ele><time>2026-04-06T16:54:29.912Z</time></trkpt><trkpt lat="45.40070735181924" lon="10.943306452621133"><ele>59.5</ele><time>2026-04-06T16:54:30.912Z</time></trkpt><trkpt lat="45.40062551945067" lon="10.943698596392922"><ele>60.0</ele><time>2026-04-06T16:54:31.912Z</time></trkpt><trkpt lat="45.40054271500594" lon="10.944108176686655"><ele>59.0</ele><time>2026-04-06T16:54:32.912Z</time></trkpt><trkpt lat="45.40045962717915" lon="10.944532415123145"><ele>58.0</ele><time>2026-04-06T16:54:33.912Z</time></trkpt><trkpt lat="45.400378399572055" lon="10.94497269125945"><ele>59.0</ele><time>2026-04-06T16:54:34.912Z</time></trkpt><trkpt lat="45.4002888627392" lon="10.945406858167443"><ele>60.0</ele><time>2026-04-06T16:54:35.912Z</time></trkpt><trkpt lat="45.400197883974215" lon="10.945874997490046"><ele>60.5</ele><time>2026-04-06T16:54:36.912Z</time></trkpt><trkpt lat="45.40010483535348" lon="10.94634944755423"><ele>61.0</ele><time>2026-04-06T16:54:37.912Z</time></trkpt><trkpt lat="45.40001513787031" lon="10.946837416792873"><ele>60.0</ele><time>2026-04-06T16:54:38.912Z</time></trkpt><trkpt lat="45.39991796053363" lon="10.94735263971268"><ele>59.0</ele><time>2026-04-06T16:54:39.912Z</time></trkpt><trkpt lat="45.399811899024" lon="10.947841949927332"><ele>58.5</ele><time>2026-04-06T16:54:40.912Z</time></trkpt><trkpt lat="45.399719631561815" lon="10.9482933858006"><ele>58.0</ele><time>2026-04-06T16:54:41.912Z</time></trkpt><trkpt lat="45.39963199217953" lon="10.948713226949694"><ele>57.5</ele><time>2026-04-06T16:54:42.912Z</time></trkpt><trkpt lat="45.399550964846505" lon="10.949108779995711"><ele>57.0</ele><time>2026-04-06T16:54:43.912Z</time></trkpt><trkpt lat="45.39947053830844" lon="10.949484488063097"><ele>57.0</ele><time>2026-04-06T16:54:44.912Z</time></trkpt><trkpt lat="45.39939639355177" lon="10.94986277588218"><ele>57.0</ele><time>2026-04-06T16:54:45.912Z</time></trkpt><trkpt lat="45.39932187555477" lon="10.950244171979936"><ele>58.5</ele><time>2026-04-06T16:54:46.912Z</time></trkpt><trkpt lat="45.39924658721387" lon="10.95062262064296"><ele>60.0</ele><time>2026-04-06T16:54:47.912Z</time></trkpt><trkpt lat="45.39917004781946" lon="10.950997646169855"><ele>60.5</ele><time>2026-04-06T16:54:48.912Z</time></trkpt><trkpt lat="45.399091687121235" lon="10.951373323528763"><ele>61.0</ele><time>2026-04-06T16:54:49.912Z</time></trkpt><trkpt lat="45.399015385304885" lon="10.95174611392029"><ele>61.0</ele><time>2026-04-06T16:54:50.912Z</time></trkpt><trkpt lat="45.39894028246155" lon="10.952121285572334"><ele>61.0</ele><time>2026-04-06T16:54:51.912Z</time></trkpt><trkpt lat="45.39886114945666" lon="10.95250131710213"><ele>60.0</ele><time>2026-04-06T16:54:52.912Z</time></trkpt><trkpt lat="45.398778049119095" lon="10.952885065625686"><ele>59.0</ele><time>2026-04-06T16:54:53.912Z</time></trkpt><trkpt lat="45.398697838893625" lon="10.95327901604322"><ele>59.0</ele><time>2026-04-06T16:54:54.912Z</time></trkpt><trkpt lat="45.398618786792454" lon="10.953672555497384"><ele>59.0</ele><time>2026-04-06T16:54:55.912Z</time></trkpt><trkpt lat="45.3985377687735" lon="10.954073658882425"><ele>61.0</ele><time>2026-04-06T16:54:56.912Z</time></trkpt><trkpt lat="45.398456527336506" lon="10.954480568189382"><ele>63.0</ele><time>2026-04-06T16:54:57.912Z</time></trkpt><trkpt lat="45.39837623535619" lon="10.954884495816147"><ele>62.5</ele><time>2026-04-06T16:54:58.912Z</time></trkpt><trkpt lat="45.39830416871786" lon="10.95528508368262"><ele>62.0</ele><time>2026-04-06T16:54:59.912Z</time></trkpt><trkpt lat="45.39823679448446" lon="10.955679339979794"><ele>61.0</ele><time>2026-04-06T16:55:00.912Z</time></trkpt><trkpt lat="45.39816978694484" lon="10.956077539759786"><ele>60.0</ele><time>2026-04-06T16:55:01.912Z</time></trkpt><trkpt lat="45.39810779477462" lon="10.956478536014922"><ele>60.0</ele><time>2026-04-06T16:55:02.912Z</time></trkpt><trkpt lat="45.398053840358145" lon="10.956882096543625"><ele>60.0</ele><time>2026-04-06T16:55:03.912Z</time></trkpt><trkpt lat="45.398002568742534" lon="10.957282576560933"><ele>59.0</ele><time>2026-04-06T16:55:04.912Z</time></trkpt><trkpt lat="45.3979560272203" lon="10.957678282111766"><ele>58.0</ele><time>2026-04-06T16:55:05.912Z</time></trkpt><trkpt lat="45.397910393271495" lon="10.958058649043345"><ele>58.0</ele><time>2026-04-06T16:55:06.912Z</time></trkpt><trkpt lat="45.39786928714789" lon="10.958409113755806"><ele>58.0</ele><time>2026-04-06T16:55:07.912Z</time></trkpt><trkpt lat="45.397825643578855" lon="10.958749709312533"><ele>58.0</ele><time>2026-04-06T16:55:08.912Z</time></trkpt><trkpt lat="45.39778461810082" lon="10.959073925078867"><ele>58.0</ele><time>2026-04-06T16:55:09.912Z</time></trkpt><trkpt lat="45.39774965714061" lon="10.959390012626777"><ele>58.33333333333333</ele><time>2026-04-06T16:55:10.912Z</time></trkpt><trkpt lat="45.39771443817974" lon="10.959695941392429"><ele>58.66666666666667</ele><time>2026-04-06T16:55:11.912Z</time></trkpt><trkpt lat="45.39767563748547" lon="10.960005759996905"><ele>59.0</ele><time>2026-04-06T16:55:12.912Z</time></trkpt><trkpt lat="45.39764434872945" lon="10.960310296083147"><ele>59.333333333333336</ele><time>2026-04-06T16:55:13.912Z</time></trkpt><trkpt lat="45.39761566532437" lon="10.960612286528333"><ele>59.66666666666667</ele><time>2026-04-06T16:55:14.912Z</time></trkpt><trkpt lat="45.39758297858816" lon="10.96089842971442"><ele>60.0</ele><time>2026-04-06T16:55:15.912Z</time></trkpt><trkpt lat="45.397554977258444" lon="10.961172704672375"><ele>60.0</ele><time>2026-04-06T16:55:16.912Z</time></trkpt><trkpt lat="45.39753137274982" lon="10.96143392461614"><ele>60.0</ele><time>2026-04-06T16:55:17.912Z</time></trkpt><trkpt lat="45.39750917364368" lon="10.96170098056162"><ele>60.0</ele><time>2026-04-06T16:55:18.912Z</time></trkpt><trkpt lat="45.3974930424965" lon="10.961995474389454"><ele>59.0</ele><time>2026-04-06T16:55:19.912Z</time></trkpt><trkpt lat="45.39747769636674" lon="10.962324430526403"><ele>58.0</ele><time>2026-04-06T16:55:20.912Z</time></trkpt><trkpt lat="45.39746046349583" lon="10.962685711277002"><ele>58.0</ele><time>2026-04-06T16:55:21.912Z</time></trkpt><trkpt lat="45.39743988758517" lon="10.963067933807624"><ele>58.0</ele><time>2026-04-06T16:55:22.912Z</time></trkpt><trkpt lat="45.397420405725924" lon="10.963461609004977"><ele>58.0</ele><time>2026-04-06T16:55:23.912Z</time></trkpt><trkpt lat="45.39740588018843" lon="10.963835513139564"><ele>58.0</ele><time>2026-04-06T16:55:24.912Z</time></trkpt><trkpt lat="45.39739432473364" lon="10.964186941513367"><ele>58.0</ele><time>2026-04-06T16:55:25.912Z</time></trkpt><trkpt lat="45.39737701435379" lon="10.964516588360686"><ele>58.0</ele><time>2026-04-06T16:55:26.912Z</time></trkpt><trkpt lat="45.39736166142285" lon="10.964829377375368"><ele>57.666666666666664</ele><time>2026-04-06T16:55:27.912Z</time></trkpt><trkpt lat="45.39735025953575" lon="10.965134381674533"><ele>57.33333333333333</ele><time>2026-04-06T16:55:28.912Z</time></trkpt><trkpt lat="45.397339510769044" lon="10.965439290450194"><ele>57.0</ele><time>2026-04-06T16:55:29.912Z</time></trkpt><trkpt lat="45.39732682891361" lon="10.965743516332005"><ele>56.66666666666667</ele><time>2026-04-06T16:55:30.912Z</time></trkpt><trkpt lat="45.39731552061517" lon="10.966047295150508"><ele>56.333333333333336</ele><time>2026-04-06T16:55:31.912Z</time></trkpt><trkpt lat="45.397283087116605" lon="10.966318724742033"><ele>56.0</ele><time>2026-04-06T16:55:32.912Z</time></trkpt><trkpt lat="45.39727051767205" lon="10.966600631465113"><ele>56.66666666666667</ele><time>2026-04-06T16:55:33.912Z</time></trkpt><trkpt lat="45.39725467133714" lon="10.966878321700651"><ele>57.33333333333333</ele><time>2026-04-06T16:55:34.912Z</time></trkpt><trkpt lat="45.3972323551686" lon="10.967159938412841"><ele>58.0</ele><time>2026-04-06T16:55:35.912Z</time></trkpt><trkpt lat="45.39719458248317" lon="10.967446850899417"><ele>56.5</ele><time>2026-04-06T16:55:36.912Z</time></trkpt><trkpt lat="45.39712992565388" lon="10.967736061637078"><ele>55.0</ele><time>2026-04-06T16:55:37.912Z</time></trkpt><trkpt lat="45.39706392836141" lon="10.968080383059872"><ele>55.0</ele><time>2026-04-06T16:55:38.912Z</time></trkpt><trkpt lat="45.396990859240795" lon="10.968375628919942"><ele>55.0</ele><time>2026-04-06T16:55:39.912Z</time></trkpt><trkpt lat="45.39694550805706" lon="10.968674769296282"><ele>55.0</ele><time>2026-04-06T16:55:40.912Z</time></trkpt><trkpt lat="45.39692280422517" lon="10.968971023042986"><ele>55.33333333333333</ele><time>2026-04-06T16:55:41.912Z</time></trkpt><trkpt lat="45.39691724759198" lon="10.969260644842363"><ele>55.66666666666667</ele><time>2026-04-06T16:55:42.912Z</time></trkpt><trkpt lat="45.3969247047736" lon="10.969579572102747"><ele>56.0</ele><time>2026-04-06T16:55:43.912Z</time></trkpt><trkpt lat="45.39698085274124" lon="10.96991418657944"><ele>56.0</ele><time>2026-04-06T16:55:44.912Z</time></trkpt><trkpt lat="45.39702779476773" lon="10.970223024552169"><ele>56.0</ele><time>2026-04-06T16:55:45.912Z</time></trkpt><trkpt lat="45.397066677329406" lon="10.970502061505192"><ele>56.0</ele><time>2026-04-06T16:55:46.912Z</time></trkpt><trkpt lat="45.397089039574745" lon="10.970791491003547"><ele>55.0</ele><time>2026-04-06T16:55:47.912Z</time></trkpt><trkpt lat="45.397096544128836" lon="10.971092556806193"><ele>54.0</ele><time>2026-04-06T16:55:48.912Z</time></trkpt><trkpt lat="45.397070475271676" lon="10.97141398507201"><ele>53.0</ele><time>2026-04-06T16:55:49.912Z</time></trkpt><trkpt lat="45.397049078400556" lon="10.971777054146337"><ele>52.5</ele><time>2026-04-06T16:55:50.912Z</time></trkpt><trkpt lat="45.39702910626076" lon="10.972146373482163"><ele>52.0</ele><time>2026-04-06T16:55:51.912Z</time></trkpt><trkpt lat="45.3970156199082" lon="10.972531817845532"><ele>53.5</ele><time>2026-04-06T16:55:52.912Z</time></trkpt><trkpt lat="45.397004341289446" lon="10.972937486788078"><ele>55.0</ele><time>2026-04-06T16:55:53.912Z</time></trkpt><trkpt lat="45.396986252538966" lon="10.97336772672258"><ele>55.5</ele><time>2026-04-06T16:55:54.912Z</time></trkpt><trkpt lat="45.39697343719844" lon="10.973840919676407"><ele>56.0</ele><time>2026-04-06T16:55:55.912Z</time></trkpt><trkpt lat="45.39695336377724" lon="10.974296824894793"><ele>56.0</ele><time>2026-04-06T16:55:56.912Z</time></trkpt><trkpt lat="45.396932997888285" lon="10.974774642079584"><ele>56.0</ele><time>2026-04-06T16:55:57.912Z</time></trkpt><trkpt lat="45.3969135913055" lon="10.97526733761971"><ele>55.5</ele><time>2026-04-06T16:55:58.912Z</time></trkpt><trkpt lat="45.39689442350935" lon="10.975768951820443"><ele>55.0</ele><time>2026-04-06T16:55:59.912Z</time></trkpt><trkpt lat="45.39687711902625" lon="10.976271906585032"><ele>53.0</ele><time>2026-04-06T16:56:00.912Z</time></trkpt><trkpt lat="45.39685505128383" lon="10.976748346447353"><ele>51.0</ele><time>2026-04-06T16:56:01.912Z</time></trkpt><trkpt lat="45.39683153664783" lon="10.977209362961553"><ele>51.0</ele><time>2026-04-06T16:56:02.912Z</time></trkpt><trkpt lat="45.39681300049142" lon="10.977663499807633"><ele>51.0</ele><time>2026-04-06T16:56:03.912Z</time></trkpt><trkpt lat="45.3967964616384" lon="10.978114749766332"><ele>51.5</ele><time>2026-04-06T16:56:04.912Z</time></trkpt><trkpt lat="45.39678298623617" lon="10.97856579078031"><ele>52.0</ele><time>2026-04-06T16:56:05.912Z</time></trkpt><trkpt lat="45.396777008227346" lon="10.979016469764431"><ele>51.0</ele><time>2026-04-06T16:56:06.912Z</time></trkpt><trkpt lat="45.39677075933061" lon="10.979428973455375"><ele>50.0</ele><time>2026-04-06T16:56:07.912Z</time></trkpt><trkpt lat="45.39675087517624" lon="10.979781867027821"><ele>49.0</ele><time>2026-04-06T16:56:08.912Z</time></trkpt><trkpt lat="45.3967661188384" lon="10.980199294173302"><ele>48.0</ele><time>2026-04-06T16:56:09.912Z</time></trkpt><trkpt lat="45.396778249164534" lon="10.980604387481748"><ele>49.0</ele><time>2026-04-06T16:56:10.912Z</time></trkpt><trkpt lat="45.396787708433216" lon="10.981022337570753"><ele>50.0</ele><time>2026-04-06T16:56:11.912Z</time></trkpt><trkpt lat="45.396797803654444" lon="10.98146036342009"><ele>50.0</ele><time>2026-04-06T16:56:12.912Z</time></trkpt><trkpt lat="45.39681625111638" lon="10.981912966439738"><ele>50.0</ele><time>2026-04-06T16:56:13.912Z</time></trkpt><trkpt lat="45.39683579565279" lon="10.982364806182842"><ele>51.0</ele><time>2026-04-06T16:56:14.912Z</time></trkpt><trkpt lat="45.39686666369772" lon="10.982803212962974"><ele>52.0</ele><time>2026-04-06T16:56:15.912Z</time></trkpt><trkpt lat="45.39689334112692" lon="10.983209453990165"><ele>54.0</ele><time>2026-04-06T16:56:16.912Z</time></trkpt><trkpt lat="45.39692603564817" lon="10.983592456205896"><ele>56.0</ele><time>2026-04-06T16:56:17.912Z</time></trkpt><trkpt lat="45.39696068350815" lon="10.983987364671858"><ele>55.0</ele><time>2026-04-06T16:56:18.912Z</time></trkpt><trkpt lat="45.396998501274474" lon="10.984395608989274"><ele>54.0</ele><time>2026-04-06T16:56:19.912Z</time></trkpt><trkpt lat="45.3970403403319" lon="10.984812952996524"><ele>53.5</ele><time>2026-04-06T16:56:20.912Z</time></trkpt><trkpt lat="45.39709124405416" lon="10.985243675491562"><ele>53.0</ele><time>2026-04-06T16:56:21.912Z</time></trkpt><trkpt lat="45.39714822404043" lon="10.985693812926316"><ele>55.5</ele><time>2026-04-06T16:56:22.912Z</time></trkpt><trkpt lat="45.39720918180419" lon="10.98614942937012"><ele>58.0</ele><time>2026-04-06T16:56:23.912Z</time></trkpt><trkpt lat="45.3972784762054" lon="10.986626148285794"><ele>57.5</ele><time>2026-04-06T16:56:24.912Z</time></trkpt><trkpt lat="45.39734906226757" lon="10.987089001673848"><ele>57.0</ele><time>2026-04-06T16:56:25.912Z</time></trkpt><trkpt lat="45.39741641811263" lon="10.987519093096697"><ele>56.5</ele><time>2026-04-06T16:56:26.912Z</time></trkpt><trkpt lat="45.397475044554305" lon="10.987911324912934"><ele>56.0</ele><time>2026-04-06T16:56:27.912Z</time></trkpt><trkpt lat="45.39752874712609" lon="10.988310862631266"><ele>55.0</ele><time>2026-04-06T16:56:28.912Z</time></trkpt><trkpt lat="45.39759102223752" lon="10.98871136060096"><ele>54.0</ele><time>2026-04-06T16:56:29.912Z</time></trkpt><trkpt lat="45.39765364711062" lon="10.98912340539256"><ele>53.0</ele><time>2026-04-06T16:56:30.912Z</time></trkpt><trkpt lat="45.397719007688416" lon="10.989539003620298"><ele>52.0</ele><time>2026-04-06T16:56:31.912Z</time></trkpt><trkpt lat="45.39778895963939" lon="10.989972424160435"><ele>52.0</ele><time>2026-04-06T16:56:32.912Z</time></trkpt><trkpt lat="45.39785911212237" lon="10.990419813231513"><ele>52.0</ele><time>2026-04-06T16:56:33.912Z</time></trkpt><trkpt lat="45.39792959376614" lon="10.990868862086565"><ele>52.0</ele><time>2026-04-06T16:56:34.912Z</time></trkpt><trkpt lat="45.39800029400336" lon="10.991298055034006"><ele>52.0</ele><time>2026-04-06T16:56:35.912Z</time></trkpt><trkpt lat="45.398048763853446" lon="10.99168871415079"><ele>54.0</ele><time>2026-04-06T16:56:36.912Z</time></trkpt><trkpt lat="45.39809109992225" lon="10.992067287866222"><ele>56.0</ele><time>2026-04-06T16:56:37.912Z</time></trkpt><trkpt lat="45.39812988491024" lon="10.992461111568435"><ele>55.5</ele><time>2026-04-06T16:56:38.912Z</time></trkpt><trkpt lat="45.39816587829674" lon="10.992859381861527"><ele>55.0</ele><time>2026-04-06T16:56:39.912Z</time></trkpt><trkpt lat="45.398204333654526" lon="10.993274490078289"><ele>55.0</ele><time>2026-04-06T16:56:40.912Z</time></trkpt><trkpt lat="45.39824465890064" lon="10.993688205566436"><ele>55.0</ele><time>2026-04-06T16:56:41.912Z</time></trkpt><trkpt lat="45.398287497067784" lon="10.994097589845582"><ele>55.0</ele><time>2026-04-06T16:56:42.912Z</time></trkpt><trkpt lat="45.39832824139903" lon="10.994502703657805"><ele>55.0</ele><time>2026-04-06T16:56:43.912Z</time></trkpt><trkpt lat="45.39836430473022" lon="10.994906108786985"><ele>55.0</ele><time>2026-04-06T16:56:44.912Z</time></trkpt><trkpt lat="45.39839494740165" lon="10.995295685121624"><ele>55.0</ele><time>2026-04-06T16:56:45.912Z</time></trkpt><trkpt lat="45.39842094875751" lon="10.995678504452345"><ele>55.0</ele><time>2026-04-06T16:56:46.912Z</time></trkpt><trkpt lat="45.39844313144264" lon="10.996055649871106"><ele>55.0</ele><time>2026-04-06T16:56:47.912Z</time></trkpt><trkpt lat="45.39846428770824" lon="10.996441921855864"><ele>53.5</ele><time>2026-04-06T16:56:48.912Z</time></trkpt><trkpt lat="45.39848804510452" lon="10.996829821047589"><ele>52.0</ele><time>2026-04-06T16:56:49.912Z</time></trkpt><trkpt lat="45.39851329130475" lon="10.997217103581963"><ele>50.5</ele><time>2026-04-06T16:56:50.912Z</time></trkpt><trkpt lat="45.3985421247285" lon="10.997604849292706"><ele>49.0</ele><time>2026-04-06T16:56:51.912Z</time></trkpt><trkpt lat="45.398566942056945" lon="10.997994630720218"><ele>49.0</ele><time>2026-04-06T16:56:52.912Z</time></trkpt><trkpt lat="45.3985924572558" lon="10.998387394197856"><ele>49.0</ele><time>2026-04-06T16:56:53.912Z</time></trkpt><trkpt lat="45.398618324154675" lon="10.998779681420125"><ele>48.5</ele><time>2026-04-06T16:56:54.912Z</time></trkpt><trkpt lat="45.39864552740947" lon="10.999177346440504"><ele>48.0</ele><time>2026-04-06T16:56:55.912Z</time></trkpt><trkpt lat="45.39867707151714" lon="10.999574678407779"><ele>48.0</ele><time>2026-04-06T16:56:56.912Z</time></trkpt><trkpt lat="45.398709168837975" lon="10.999977321440815"><ele>48.0</ele><time>2026-04-06T16:56:57.912Z</time></trkpt><trkpt lat="45.3987429802374" lon="11.000391431477963"><ele>48.0</ele><time>2026-04-06T16:56:58.912Z</time></trkpt><trkpt lat="45.39878116390396" lon="11.00082872264535"><ele>48.0</ele><time>2026-04-06T16:56:59.912Z</time></trkpt><trkpt lat="45.39882284262304" lon="11.00127995898628"><ele>49.5</ele><time>2026-04-06T16:57:00.912Z</time></trkpt><trkpt lat="45.39887263280328" lon="11.001753195606875"><ele>51.0</ele><time>2026-04-06T16:57:01.912Z</time></trkpt><trkpt lat="45.39891779635831" lon="11.00223008083144"><ele>52.0</ele><time>2026-04-06T16:57:02.912Z</time></trkpt><trkpt lat="45.398966648444805" lon="11.002720982177653"><ele>53.0</ele><time>2026-04-06T16:57:03.912Z</time></trkpt><trkpt lat="45.39901213991567" lon="11.003225255106354"><ele>52.5</ele><time>2026-04-06T16:57:04.912Z</time></trkpt><trkpt lat="45.39906263913767" lon="11.003738550815475"><ele>52.0</ele><time>2026-04-06T16:57:05.912Z</time></trkpt><trkpt lat="45.39911028738354" lon="11.004227734871895"><ele>52.0</ele><time>2026-04-06T16:57:06.912Z</time></trkpt><trkpt lat="45.39915399987243" lon="11.004677736901044"><ele>52.0</ele><time>2026-04-06T16:57:07.912Z</time></trkpt><trkpt lat="45.39918784895567" lon="11.005094612776277"><ele>51.5</ele><time>2026-04-06T16:57:08.912Z</time></trkpt><trkpt lat="45.3992298257859" lon="11.005513970650702"><ele>51.0</ele><time>2026-04-06T16:57:09.912Z</time></trkpt><trkpt lat="45.399269404185844" lon="11.005927002501778"><ele>50.0</ele><time>2026-04-06T16:57:10.912Z</time></trkpt><trkpt lat="45.39930930086905" lon="11.006322250412387"><ele>49.0</ele><time>2026-04-06T16:57:11.912Z</time></trkpt><trkpt lat="45.399346730296514" lon="11.006699244708875"><ele>49.0</ele><time>2026-04-06T16:57:12.912Z</time></trkpt><trkpt lat="45.39938270205529" lon="11.007070491919036"><ele>49.0</ele><time>2026-04-06T16:57:13.912Z</time></trkpt><trkpt lat="45.399421413769204" lon="11.007445366868529"><ele>49.5</ele><time>2026-04-06T16:57:14.912Z</time></trkpt><trkpt lat="45.3994602375279" lon="11.007821893725787"><ele>50.0</ele><time>2026-04-06T16:57:15.912Z</time></trkpt><trkpt lat="45.399494896968505" lon="11.008188213104024"><ele>50.0</ele><time>2026-04-06T16:57:16.912Z</time></trkpt><trkpt lat="45.399529665847076" lon="11.00854034711897"><ele>50.0</ele><time>2026-04-06T16:57:17.912Z</time></trkpt><trkpt lat="45.39956649734943" lon="11.008885534903378"><ele>51.5</ele><time>2026-04-06T16:57:18.912Z</time></trkpt><trkpt lat="45.39960215668413" lon="11.009225615464674"><ele>53.0</ele><time>2026-04-06T16:57:19.912Z</time></trkpt><trkpt lat="45.399631572723344" lon="11.009563968470456"><ele>53.0</ele><time>2026-04-06T16:57:20.912Z</time></trkpt><trkpt lat="45.39967167077204" lon="11.009924991472467"><ele>53.0</ele><time>2026-04-06T16:57:21.912Z</time></trkpt><trkpt lat="45.3997012006487" lon="11.010249764509638"><ele>53.0</ele><time>2026-04-06T16:57:22.912Z</time></trkpt><trkpt lat="45.39973206290608" lon="11.01056766984472"><ele>53.0</ele><time>2026-04-06T16:57:23.912Z</time></trkpt><trkpt lat="45.399760303787716" lon="11.010877046385323"><ele>53.0</ele><time>2026-04-06T16:57:24.912Z</time></trkpt><trkpt lat="45.39978981507972" lon="11.01118269725566"><ele>53.0</ele><time>2026-04-06T16:57:25.912Z</time></trkpt><trkpt lat="45.39982091121968" lon="11.011497627968549"><ele>53.0</ele><time>2026-04-06T16:57:26.912Z</time></trkpt><trkpt lat="45.399851084313276" lon="11.011799091164821"><ele>53.0</ele><time>2026-04-06T16:57:27.912Z</time></trkpt><trkpt lat="45.399878376332076" lon="11.012073144159588"><ele>52.0</ele><time>2026-04-06T16:57:28.912Z</time></trkpt><trkpt lat="45.39990474054492" lon="11.01235146164049"><ele>51.0</ele><time>2026-04-06T16:57:29.912Z</time></trkpt><trkpt lat="45.399931599038155" lon="11.012632571844762"><ele>50.0</ele><time>2026-04-06T16:57:30.912Z</time></trkpt><trkpt lat="45.39995945744574" lon="11.012896317893434"><ele>49.333333333333336</ele><time>2026-04-06T16:57:31.912Z</time></trkpt><trkpt lat="45.3999870348499" lon="11.01315555918216"><ele>48.66666666666667</ele><time>2026-04-06T16:57:32.912Z</time></trkpt><trkpt lat="45.400011591606024" lon="11.013401537182157"><ele>48.0</ele><time>2026-04-06T16:57:33.912Z</time></trkpt><trkpt lat="45.40003566808986" lon="11.013640040453694"><ele>48.0</ele><time>2026-04-06T16:57:34.912Z</time></trkpt><trkpt lat="45.40006166744434" lon="11.013872469647128"><ele>48.0</ele><time>2026-04-06T16:57:35.912Z</time></trkpt><trkpt lat="45.40008095230162" lon="11.014105138489416"><ele>48.0</ele><time>2026-04-06T16:57:36.912Z</time></trkpt><trkpt lat="45.40010445615361" lon="11.014344703666836"><ele>48.33333333333333</ele><time>2026-04-06T16:57:37.912Z</time></trkpt><trkpt lat="45.400126534047466" lon="11.014571452825848"><ele>48.666666666666664</ele><time>2026-04-06T16:57:38.912Z</time></trkpt><trkpt lat="45.40015296801742" lon="11.014792098582271"><ele>49.0</ele><time>2026-04-06T16:57:39.912Z</time></trkpt><trkpt lat="45.400173112232345" lon="11.015019768109415"><ele>49.33333333333333</ele><time>2026-04-06T16:57:40.912Z</time></trkpt><trkpt lat="45.40020011204988" lon="11.015244643683207"><ele>49.66666666666667</ele><time>2026-04-06T16:57:41.912Z</time></trkpt><trkpt lat="45.40021470469191" lon="11.015455400538661"><ele>50.0</ele><time>2026-04-06T16:57:42.912Z</time></trkpt><trkpt lat="45.40023343632102" lon="11.015668892301994"><ele>51.333333333333336</ele><time>2026-04-06T16:57:43.912Z</time></trkpt><trkpt lat="45.40025463248145" lon="11.01588490900918"><ele>52.66666666666667</ele><time>2026-04-06T16:57:44.912Z</time></trkpt><trkpt lat="45.40027882544289" lon="11.016099664225681"><ele>54.0</ele><time>2026-04-06T16:57:45.912Z</time></trkpt><trkpt lat="45.400300585995986" lon="11.016317131910819"><ele>54.0</ele><time>2026-04-06T16:57:46.912Z</time></trkpt><trkpt lat="45.40032242253645" lon="11.016527014365161"><ele>54.0</ele><time>2026-04-06T16:57:47.912Z</time></trkpt><trkpt lat="45.40034160732889" lon="11.016739324535445"><ele>54.0</ele><time>2026-04-06T16:57:48.912Z</time></trkpt><trkpt lat="45.40036206847793" lon="11.016945620807936"><ele>54.0</ele><time>2026-04-06T16:57:49.912Z</time></trkpt><trkpt lat="45.400378397480324" lon="11.017141670077224"><ele>52.75</ele><time>2026-04-06T16:57:50.912Z</time></trkpt><trkpt lat="45.4003993506582" lon="11.01732852893056"><ele>51.5</ele><time>2026-04-06T16:57:51.912Z</time></trkpt><trkpt lat="45.40041570789114" lon="11.017527386810139"><ele>50.25</ele><time>2026-04-06T16:57:52.912Z</time></trkpt><trkpt lat="45.40042745519281" lon="11.017733409322988"><ele>49.0</ele><time>2026-04-06T16:57:53.912Z</time></trkpt><trkpt lat="45.40044315747196" lon="11.017943726711222"><ele>48.75</ele><time>2026-04-06T16:57:54.912Z</time></trkpt><trkpt lat="45.40045747168539" lon="11.018154373154996"><ele>48.5</ele><time>2026-04-06T16:57:55.912Z</time></trkpt><trkpt lat="45.40047668778385" lon="11.018368089692034"><ele>48.25</ele><time>2026-04-06T16:57:56.912Z</time></trkpt><trkpt lat="45.400495177476216" lon="11.018578926651413"><ele>48.0</ele><time>2026-04-06T16:57:57.912Z</time></trkpt><trkpt lat="45.40050874718494" lon="11.018790591535527"><ele>49.5</ele><time>2026-04-06T16:57:58.912Z</time></trkpt><trkpt lat="45.40051612119039" lon="11.018985423732758"><ele>51.0</ele><time>2026-04-06T16:57:59.912Z</time></trkpt><trkpt lat="45.40054754981812" lon="11.019190333768938"><ele>52.5</ele><time>2026-04-06T16:58:00.912Z</time></trkpt><trkpt lat="45.400567286894514" lon="11.019410145397927"><ele>54.0</ele><time>2026-04-06T16:58:01.912Z</time></trkpt><trkpt lat="45.40058021132497" lon="11.019650293768107"><ele>54.0</ele><time>2026-04-06T16:58:02.912Z</time></trkpt><trkpt lat="45.40057001142445" lon="11.019893727415639"><ele>54.0</ele><time>2026-04-06T16:58:03.912Z</time></trkpt><trkpt lat="45.40062932447028" lon="11.020200446692007"><ele>54.0</ele><time>2026-04-06T16:58:04.912Z</time></trkpt><trkpt lat="45.400673973676085" lon="11.020512821720338"><ele>52.5</ele><time>2026-04-06T16:58:05.912Z</time></trkpt><trkpt lat="45.40070666428564" lon="11.020838211568472"><ele>51.0</ele><time>2026-04-06T16:58:06.912Z</time></trkpt><trkpt lat="45.400748346441674" lon="11.021191673956029"><ele>51.0</ele><time>2026-04-06T16:58:07.912Z</time></trkpt><trkpt lat="45.400789420928746" lon="11.021565003357521"><ele>51.0</ele><time>2026-04-06T16:58:08.912Z</time></trkpt><trkpt lat="45.400823173356045" lon="11.021940550394227"><ele>51.0</ele><time>2026-04-06T16:58:09.912Z</time></trkpt><trkpt lat="45.40085924687385" lon="11.022299105865011"><ele>51.0</ele><time>2026-04-06T16:58:10.912Z</time></trkpt><trkpt lat="45.400894741649495" lon="11.022638680311772"><ele>51.5</ele><time>2026-04-06T16:58:11.912Z</time></trkpt><trkpt lat="45.400931929642184" lon="11.022967669202208"><ele>52.0</ele><time>2026-04-06T16:58:12.912Z</time></trkpt><trkpt lat="45.400962229258816" lon="11.023277467219515"><ele>52.33333333333333</ele><time>2026-04-06T16:58:13.912Z</time></trkpt><trkpt lat="45.40099202019431" lon="11.023569904562603"><ele>52.66666666666667</ele><time>2026-04-06T16:58:14.912Z</time></trkpt><trkpt lat="45.40102343997107" lon="11.02384416083787"><ele>53.0</ele><time>2026-04-06T16:58:15.912Z</time></trkpt><trkpt lat="45.401057396552986" lon="11.024108226810974"><ele>53.333333333333336</ele><time>2026-04-06T16:58:16.912Z</time></trkpt><trkpt lat="45.40108916536268" lon="11.024347920966218"><ele>53.66666666666667</ele><time>2026-04-06T16:58:17.912Z</time></trkpt><trkpt lat="45.4011185444579" lon="11.024560344585483"><ele>54.0</ele><time>2026-04-06T16:58:18.912Z</time></trkpt><trkpt lat="45.40114578980589" lon="11.024747597668478"><ele>54.0</ele><time>2026-04-06T16:58:19.912Z</time></trkpt><trkpt lat="45.401173100099015" lon="11.024925645446052"><ele>54.00000000000001</ele><time>2026-04-06T16:58:20.912Z</time></trkpt><trkpt lat="45.401193147599486" lon="11.025090530781116"><ele>54.00000000000001</ele><time>2026-04-06T16:58:21.912Z</time></trkpt><trkpt lat="45.401205710020974" lon="11.025235233126457"><ele>54.0</ele><time>2026-04-06T16:58:22.912Z</time></trkpt><trkpt lat="45.40121715106413" lon="11.025361557824242"><ele>54.0</ele><time>2026-04-06T16:58:23.912Z</time></trkpt><trkpt lat="45.40122510969481" lon="11.025472090635215"><ele>53.6</ele><time>2026-04-06T16:58:24.912Z</time></trkpt><trkpt lat="45.401244898799284" lon="11.025589416284587"><ele>53.2</ele><time>2026-04-06T16:58:25.912Z</time></trkpt><trkpt lat="45.401256873612" lon="11.025690988087872"><ele>52.800000000000004</ele><time>2026-04-06T16:58:27.912Z</time></trkpt><trkpt lat="45.401282268054224" lon="11.025860382265712"><ele>52.400000000000006</ele><time>2026-04-06T17:07:31.911Z</time></trkpt><trkpt lat="45.4013138697379" lon="11.025996933147086"><ele>52.0</ele><time>2026-04-06T17:07:32.911Z</time></trkpt><trkpt lat="45.401350739866864" lon="11.02614788517999"><ele>52.0</ele><time>2026-04-06T17:07:33.911Z</time></trkpt><trkpt lat="45.40138139097226" lon="11.02626647662483"><ele>52.0</ele><time>2026-04-06T17:07:34.911Z</time></trkpt><trkpt lat="45.40140202383826" lon="11.02639244174532"><ele>52.0</ele><time>2026-04-06T17:07:35.911Z</time></trkpt><trkpt lat="45.40142440651635" lon="11.026546399440033"><ele>52.0</ele><time>2026-04-06T17:07:36.911Z</time></trkpt><trkpt lat="45.401451971595336" lon="11.026735671254189"><ele>52.0</ele><time>2026-04-06T17:07:37.911Z</time></trkpt><trkpt lat="45.40149041999266" lon="11.026993894099022"><ele>52.0</ele><time>2026-04-06T17:07:38.911Z</time></trkpt><trkpt lat="45.40152002208399" lon="11.02720792498627"><ele>52.0</ele><time>2026-04-06T17:07:39.911Z</time></trkpt><trkpt lat="45.40153703452933" lon="11.02739677718292"><ele>52.0</ele><time>2026-04-06T17:07:40.911Z</time></trkpt><trkpt lat="45.401557819890314" lon="11.027583973679963"><ele>52.0</ele><time>2026-04-06T17:07:41.911Z</time></trkpt><trkpt lat="45.40158633077327" lon="11.027797132196115"><ele>51.33333333333333</ele><time>2026-04-06T17:07:42.911Z</time></trkpt><trkpt lat="45.40161010530594" lon="11.028029517262146"><ele>50.66666666666667</ele><time>2026-04-06T17:07:43.911Z</time></trkpt><trkpt lat="45.40163789604986" lon="11.028300618315981"><ele>50.0</ele><time>2026-04-06T17:07:44.911Z</time></trkpt><trkpt lat="45.40167198804725" lon="11.028614453776065"><ele>49.5</ele><time>2026-04-06T17:07:45.911Z</time></trkpt><trkpt lat="45.40170468410074" lon="11.02897093577853"><ele>49.0</ele><time>2026-04-06T17:07:46.911Z</time></trkpt><trkpt lat="45.40173561486289" lon="11.029286045136434"><ele>47.5</ele><time>2026-04-06T17:07:47.911Z</time></trkpt><trkpt lat="45.40176440146588" lon="11.029597973098705"><ele>46.0</ele><time>2026-04-06T17:07:48.911Z</time></trkpt><trkpt lat="45.40179791765267" lon="11.029932892118598"><ele>45.5</ele><time>2026-04-06T17:07:49.911Z</time></trkpt><trkpt lat="45.40182817531462" lon="11.030288040804246"><ele>45.0</ele><time>2026-04-06T17:07:50.911Z</time></trkpt><trkpt lat="45.40185458168578" lon="11.03066196080566"><ele>44.0</ele><time>2026-04-06T17:07:51.911Z</time></trkpt><trkpt lat="45.40186918220037" lon="11.031022804857356"><ele>43.0</ele><time>2026-04-06T17:07:52.911Z</time></trkpt><trkpt lat="45.4018706077443" lon="11.031356603021205"><ele>40.0</ele><time>2026-04-06T17:07:53.911Z</time></trkpt><trkpt lat="45.40188419836299" lon="11.031674413976763"><ele>37.0</ele><time>2026-04-06T17:07:54.911Z</time></trkpt><trkpt lat="45.40190867458821" lon="11.031998345128248"><ele>37.0</ele><time>2026-04-06T17:07:55.911Z</time></trkpt><trkpt lat="45.401940329655204" lon="11.032323016276937"><ele>37.0</ele><time>2026-04-06T17:07:56.911Z</time></trkpt><trkpt lat="45.40197491363586" lon="11.032646992564445"><ele>37.0</ele><time>2026-04-06T17:07:57.911Z</time></trkpt><trkpt lat="45.402043946610334" lon="11.032984145591387"><ele>37.0</ele><time>2026-04-06T17:07:58.911Z</time></trkpt><trkpt lat="45.40208459252654" lon="11.033299078593595"><ele>37.66666666666667</ele><time>2026-04-06T17:07:59.911Z</time></trkpt><trkpt lat="45.402120822296695" lon="11.033608496660923"><ele>38.333333333333336</ele><time>2026-04-06T17:08:00.911Z</time></trkpt><trkpt lat="45.402158559615614" lon="11.033921968634544"><ele>39.0</ele><time>2026-04-06T17:08:01.911Z</time></trkpt><trkpt lat="45.40219757326045" lon="11.03424308519527"><ele>39.333333333333336</ele><time>2026-04-06T17:08:02.911Z</time></trkpt><trkpt lat="45.40222750718282" lon="11.034556245717768"><ele>39.66666666666667</ele><time>2026-04-06T17:08:03.911Z</time></trkpt><trkpt lat="45.402250750172016" lon="11.034858710466112"><ele>40.0</ele><time>2026-04-06T17:08:04.911Z</time></trkpt><trkpt lat="45.40226693598373" lon="11.035146598333213"><ele>40.0</ele><time>2026-04-06T17:08:05.911Z</time></trkpt><trkpt lat="45.40228381054124" lon="11.03542976578664"><ele>40.0</ele><time>2026-04-06T17:08:06.911Z</time></trkpt><trkpt lat="45.402298273532075" lon="11.03570880521353"><ele>40.0</ele><time>2026-04-06T17:08:07.911Z</time></trkpt><trkpt lat="45.40230362231371" lon="11.035993134918915"><ele>39.66666666666667</ele><time>2026-04-06T17:08:08.911Z</time></trkpt><trkpt lat="45.402298689448614" lon="11.03627229209379"><ele>39.333333333333336</ele><time>2026-04-06T17:08:09.911Z</time></trkpt><trkpt lat="45.40229518129112" lon="11.036542529719835"><ele>39.0</ele><time>2026-04-06T17:08:10.911Z</time></trkpt><trkpt lat="45.4022879592967" lon="11.036805287410973"><ele>39.666666666666664</ele><time>2026-04-06T17:08:11.911Z</time></trkpt><trkpt lat="45.402282905943345" lon="11.03707078345564"><ele>40.33333333333333</ele><time>2026-04-06T17:08:12.911Z</time></trkpt><trkpt lat="45.40228850147041" lon="11.037362145086577"><ele>41.0</ele><time>2026-04-06T17:08:13.91Z</time></trkpt><trkpt lat="45.40230268740421" lon="11.037658148295892"><ele>41.33333333333333</ele><time>2026-04-06T17:08:14.91Z</time></trkpt><trkpt lat="45.40231687363828" lon="11.037944799584507"><ele>41.666666666666664</ele><time>2026-04-06T17:08:15.91Z</time></trkpt><trkpt lat="45.402279970045754" lon="11.03820485993018"><ele>42.0</ele><time>2026-04-06T17:08:16.91Z</time></trkpt><trkpt lat="45.40224810525137" lon="11.038465817018615"><ele>42.666666666666664</ele><time>2026-04-06T17:08:17.91Z</time></trkpt><trkpt lat="45.402177506558075" lon="11.038562155473052"><ele>43.33333333333333</ele><time>2026-04-06T17:08:18.91Z</time></trkpt><trkpt lat="45.40213819738543" lon="11.038859958404533"><ele>44.0</ele><time>2026-04-06T17:08:19.91Z</time></trkpt><trkpt lat="45.40209162509864" lon="11.039187804871355"><ele>40.5</ele><time>2026-04-06T17:08:20.91Z</time></trkpt><trkpt lat="45.40204410658322" lon="11.039518608553331"><ele>37.0</ele><time>2026-04-06T17:08:21.91Z</time></trkpt><trkpt lat="45.402010562906824" lon="11.03982295244784"><ele>38.0</ele><time>2026-04-06T17:08:22.91Z</time></trkpt><trkpt lat="45.40198345907545" lon="11.040134244203648"><ele>39.0</ele><time>2026-04-06T17:08:23.91Z</time></trkpt><trkpt lat="45.401975478458624" lon="11.04044367741191"><ele>40.0</ele><time>2026-04-06T17:08:24.91Z</time></trkpt><trkpt lat="45.40199560670586" lon="11.040750597182189"><ele>39.333333333333336</ele><time>2026-04-06T17:08:25.91Z</time></trkpt><trkpt lat="45.40203810405097" lon="11.041056764975496"><ele>38.666666666666664</ele><time>2026-04-06T17:08:26.91Z</time></trkpt><trkpt lat="45.402106356868984" lon="11.041361563616396"><ele>38.0</ele><time>2026-04-06T17:08:27.91Z</time></trkpt><trkpt lat="45.40220977587878" lon="11.041663660070444"><ele>38.0</ele><time>2026-04-06T17:08:28.91Z</time></trkpt><trkpt lat="45.40234567422557" lon="11.041969673331234"><ele>38.0</ele><time>2026-04-06T17:08:29.91Z</time></trkpt><trkpt lat="45.402447254115714" lon="11.042302593067408"><ele>38.0</ele><time>2026-04-06T17:08:30.91Z</time></trkpt><trkpt lat="45.40265315269509" lon="11.042558274209215"><ele>38.0</ele><time>2026-04-06T17:08:31.91Z</time></trkpt><trkpt lat="45.40276448940812" lon="11.042825993553565"><ele>38.0</ele><time>2026-04-06T17:08:32.91Z</time></trkpt><trkpt lat="45.402843298685816" lon="11.043131302075375"><ele>38.0</ele><time>2026-04-06T17:08:33.91Z</time></trkpt><trkpt lat="45.402894643066794" lon="11.043472587103626"><ele>38.0</ele><time>2026-04-06T17:08:34.91Z</time></trkpt><trkpt lat="45.4029261885493" lon="11.043854302056776"><ele>38.0</ele><time>2026-04-06T17:08:35.91Z</time></trkpt><trkpt lat="45.40295932802748" lon="11.044263748370447"><ele>38.5</ele><time>2026-04-06T17:08:36.91Z</time></trkpt><trkpt lat="45.40299863518772" lon="11.044688868774717"><ele>39.0</ele><time>2026-04-06T17:08:37.91Z</time></trkpt><trkpt lat="45.4030353610179" lon="11.045137462483467"><ele>39.0</ele><time>2026-04-06T17:08:38.91Z</time></trkpt><trkpt lat="45.40308144857752" lon="11.045619522507437"><ele>39.0</ele><time>2026-04-06T17:08:39.91Z</time></trkpt><trkpt lat="45.40312785354983" lon="11.046104156552236"><ele>39.0</ele><time>2026-04-06T17:08:40.91Z</time></trkpt><trkpt lat="45.40317397973565" lon="11.046583865972497"><ele>39.0</ele><time>2026-04-06T17:08:41.91Z</time></trkpt><trkpt lat="45.40321845894751" lon="11.047061181743128"><ele>38.0</ele><time>2026-04-06T17:08:42.91Z</time></trkpt><trkpt lat="45.4032672777009" lon="11.047558494124875"><ele>37.0</ele><time>2026-04-06T17:08:43.91Z</time></trkpt><trkpt lat="45.40332072727509" lon="11.048057145490715"><ele>37.0</ele><time>2026-04-06T17:08:44.91Z</time></trkpt><trkpt lat="45.40336988544301" lon="11.04851848808761"><ele>37.0</ele><time>2026-04-06T17:08:45.91Z</time></trkpt><trkpt lat="45.40340946769255" lon="11.048940175209252"><ele>37.0</ele><time>2026-04-06T17:08:46.91Z</time></trkpt><trkpt lat="45.40344749608887" lon="11.049356525989564"><ele>37.0</ele><time>2026-04-06T17:08:47.91Z</time></trkpt><trkpt lat="45.403488505024036" lon="11.049778728049601"><ele>37.0</ele><time>2026-04-06T17:08:48.91Z</time></trkpt><trkpt lat="45.403516967471276" lon="11.050219154051725"><ele>37.0</ele><time>2026-04-06T17:08:49.91Z</time></trkpt><trkpt lat="45.403556046627465" lon="11.050617521516045"><ele>36.5</ele><time>2026-04-06T17:08:50.91Z</time></trkpt><trkpt lat="45.40360442865312" lon="11.051017369532973"><ele>36.0</ele><time>2026-04-06T17:08:51.91Z</time></trkpt><trkpt lat="45.40364849714225" lon="11.051432860281546"><ele>36.0</ele><time>2026-04-06T17:08:52.91Z</time></trkpt><trkpt lat="45.40368731861865" lon="11.051850418043564"><ele>36.0</ele><time>2026-04-06T17:08:53.91Z</time></trkpt><trkpt lat="45.4037267346615" lon="11.052281253959883"><ele>36.5</ele><time>2026-04-06T17:08:54.91Z</time></trkpt><trkpt lat="45.40376631680425" lon="11.052715716384867"><ele>37.0</ele><time>2026-04-06T17:08:55.91Z</time></trkpt><trkpt lat="45.40380726672677" lon="11.053143468823682"><ele>37.5</ele><time>2026-04-06T17:08:56.91Z</time></trkpt><trkpt lat="45.40384560324657" lon="11.05356632169141"><ele>38.0</ele><time>2026-04-06T17:08:57.91Z</time></trkpt><trkpt lat="45.40388311393566" lon="11.053994366203899"><ele>37.5</ele><time>2026-04-06T17:08:58.91Z</time></trkpt><trkpt lat="45.403920719740896" lon="11.054427556070209"><ele>37.0</ele><time>2026-04-06T17:08:59.91Z</time></trkpt><trkpt lat="45.40395625974461" lon="11.054872503250749"><ele>36.5</ele><time>2026-04-06T17:09:00.91Z</time></trkpt><trkpt lat="45.403992736552894" lon="11.055330082916099"><ele>36.0</ele><time>2026-04-06T17:09:01.91Z</time></trkpt><trkpt lat="45.40403137574999" lon="11.055787734058327"><ele>37.0</ele><time>2026-04-06T17:09:02.91Z</time></trkpt><trkpt lat="45.4040702037243" lon="11.056244482564887"><ele>38.0</ele><time>2026-04-06T17:09:03.91Z</time></trkpt><trkpt lat="45.40410700514261" lon="11.05670018348714"><ele>38.0</ele><time>2026-04-06T17:09:04.91Z</time></trkpt><trkpt lat="45.40414688657156" lon="11.057166520388535"><ele>38.0</ele><time>2026-04-06T17:09:05.91Z</time></trkpt><trkpt lat="45.40418862231931" lon="11.057633843408361"><ele>38.0</ele><time>2026-04-06T17:09:06.91Z</time></trkpt><trkpt lat="45.404228204540985" lon="11.05810478246302"><ele>38.0</ele><time>2026-04-06T17:09:07.91Z</time></trkpt><trkpt lat="45.40426487989472" lon="11.058580784097904"><ele>37.5</ele><time>2026-04-06T17:09:08.91Z</time></trkpt><trkpt lat="45.40430323745445" lon="11.05905568672762"><ele>37.0</ele><time>2026-04-06T17:09:09.91Z</time></trkpt><trkpt lat="45.40434350186376" lon="11.059523932238486"><ele>37.0</ele><time>2026-04-06T17:09:10.91Z</time></trkpt><trkpt lat="45.40438337244933" lon="11.059979776057608"><ele>37.0</ele><time>2026-04-06T17:09:11.91Z</time></trkpt><trkpt lat="45.40442120892711" lon="11.060437945005248"><ele>37.0</ele><time>2026-04-06T17:09:12.91Z</time></trkpt><trkpt lat="45.404461109655855" lon="11.060892642183303"><ele>37.0</ele><time>2026-04-06T17:09:13.91Z</time></trkpt><trkpt lat="45.40450040869077" lon="11.061348093831615"><ele>37.5</ele><time>2026-04-06T17:09:14.91Z</time></trkpt><trkpt lat="45.40453666695881" lon="11.061802581408969"><ele>38.0</ele><time>2026-04-06T17:09:15.91Z</time></trkpt><trkpt lat="45.4045714497183" lon="11.062263650945217"><ele>37.0</ele><time>2026-04-06T17:09:16.91Z</time></trkpt><trkpt lat="45.40460953272732" lon="11.062724320632485"><ele>36.0</ele><time>2026-04-06T17:09:17.91Z</time></trkpt><trkpt lat="45.40464613221907" lon="11.063180835763287"><ele>36.0</ele><time>2026-04-06T17:09:18.91Z</time></trkpt><trkpt lat="45.404681393039134" lon="11.063642830384103"><ele>36.0</ele><time>2026-04-06T17:09:19.91Z</time></trkpt><trkpt lat="45.40472090626027" lon="11.064115656804276"><ele>36.0</ele><time>2026-04-06T17:09:20.91Z</time></trkpt><trkpt lat="45.40476164288659" lon="11.064588860277857"><ele>36.0</ele><time>2026-04-06T17:09:21.91Z</time></trkpt><trkpt lat="45.40479797989939" lon="11.065065156842635"><ele>35.5</ele><time>2026-04-06T17:09:22.91Z</time></trkpt><trkpt lat="45.404837665546644" lon="11.06554491797905"><ele>35.0</ele><time>2026-04-06T17:09:23.91Z</time></trkpt><trkpt lat="45.404873606043445" lon="11.06603952817821"><ele>36.0</ele><time>2026-04-06T17:09:24.91Z</time></trkpt><trkpt lat="45.404919527587445" lon="11.066529636744713"><ele>37.0</ele><time>2026-04-06T17:09:25.91Z</time></trkpt><trkpt lat="45.40496134159372" lon="11.067022135641487"><ele>37.0</ele><time>2026-04-06T17:09:26.91Z</time></trkpt><trkpt lat="45.40500215945363" lon="11.067507074532564"><ele>37.0</ele><time>2026-04-06T17:09:27.91Z</time></trkpt><trkpt lat="45.405039391555015" lon="11.067976599691374"><ele>38.0</ele><time>2026-04-06T17:09:28.91Z</time></trkpt><trkpt lat="45.405076738033614" lon="11.068432268012076"><ele>39.0</ele><time>2026-04-06T17:09:29.91Z</time></trkpt><trkpt lat="45.405115599472005" lon="11.068880883091584"><ele>39.5</ele><time>2026-04-06T17:09:30.91Z</time></trkpt><trkpt lat="45.4051534309076" lon="11.069321471550776"><ele>40.0</ele><time>2026-04-06T17:09:31.91Z</time></trkpt><trkpt lat="45.4051913249645" lon="11.069757606298099"><ele>40.5</ele><time>2026-04-06T17:09:32.91Z</time></trkpt><trkpt lat="45.405225055578015" lon="11.070193082052956"><ele>41.0</ele><time>2026-04-06T17:09:33.91Z</time></trkpt><trkpt lat="45.405259978981235" lon="11.070630178811268"><ele>42.0</ele><time>2026-04-06T17:09:34.91Z</time></trkpt><trkpt lat="45.405293096441326" lon="11.07106045315381"><ele>43.0</ele><time>2026-04-06T17:09:35.91Z</time></trkpt><trkpt lat="45.405326319622404" lon="11.071461784545892"><ele>42.5</ele><time>2026-04-06T17:09:36.91Z</time></trkpt><trkpt lat="45.405356463537004" lon="11.071853988829954"><ele>42.0</ele><time>2026-04-06T17:09:37.91Z</time></trkpt><trkpt lat="45.40538964532846" lon="11.072252254645617"><ele>41.5</ele><time>2026-04-06T17:09:38.91Z</time></trkpt><trkpt lat="45.40542916828783" lon="11.072644502503906"><ele>41.0</ele><time>2026-04-06T17:09:39.91Z</time></trkpt><trkpt lat="45.40547458469766" lon="11.073034014806492"><ele>41.0</ele><time>2026-04-06T17:09:40.91Z</time></trkpt><trkpt lat="45.4055276671666" lon="11.073421596100582"><ele>41.0</ele><time>2026-04-06T17:09:41.91Z</time></trkpt><trkpt lat="45.40558819845689" lon="11.073805187274052"><ele>41.0</ele><time>2026-04-06T17:09:42.91Z</time></trkpt><trkpt lat="45.405656701249285" lon="11.074195359814635"><ele>41.0</ele><time>2026-04-06T17:09:43.91Z</time></trkpt><trkpt lat="45.40573645165326" lon="11.074576282526523"><ele>41.0</ele><time>2026-04-06T17:09:44.91Z</time></trkpt><trkpt lat="45.40582694838735" lon="11.074952826216144"><ele>41.0</ele><time>2026-04-06T17:09:45.91Z</time></trkpt><trkpt lat="45.40592631566776" lon="11.075319862635013"><ele>41.0</ele><time>2026-04-06T17:09:46.91Z</time></trkpt><trkpt lat="45.4060260028518" lon="11.075684800860932"><ele>41.0</ele><time>2026-04-06T17:09:47.91Z</time></trkpt><trkpt lat="45.40612948195154" lon="11.076037797760376"><ele>41.0</ele><time>2026-04-06T17:09:48.91Z</time></trkpt><trkpt lat="45.40623817107094" lon="11.076385748511516"><ele>41.0</ele><time>2026-04-06T17:09:49.91Z</time></trkpt><trkpt lat="45.40635217385789" lon="11.076720721635592"><ele>41.0</ele><time>2026-04-06T17:09:50.91Z</time></trkpt><trkpt lat="45.40647003512514" lon="11.077038062656156"><ele>41.0</ele><time>2026-04-06T17:09:51.91Z</time></trkpt><trkpt lat="45.406588493518434" lon="11.077347977877288"><ele>41.5</ele><time>2026-04-06T17:09:52.91Z</time></trkpt><trkpt lat="45.40671333775912" lon="11.077642396223913"><ele>42.0</ele><time>2026-04-06T17:09:53.91Z</time></trkpt><trkpt lat="45.406848232903755" lon="11.077942442117026"><ele>42.0</ele><time>2026-04-06T17:09:54.91Z</time></trkpt><trkpt lat="45.40699873305911" lon="11.078264117755793"><ele>42.0</ele><time>2026-04-06T17:09:55.91Z</time></trkpt><trkpt lat="45.40714663965897" lon="11.078610221966198"><ele>42.5</ele><time>2026-04-06T17:09:56.91Z</time></trkpt><trkpt lat="45.407289695646504" lon="11.078978979891092"><ele>43.0</ele><time>2026-04-06T17:09:57.91Z</time></trkpt><trkpt lat="45.40743067758341" lon="11.079367815348608"><ele>41.5</ele><time>2026-04-06T17:09:58.91Z</time></trkpt><trkpt lat="45.40756438572011" lon="11.079768377618796"><ele>40.0</ele><time>2026-04-06T17:09:59.91Z</time></trkpt><trkpt lat="45.407688535603505" lon="11.080179676078664"><ele>40.0</ele><time>2026-04-06T17:10:00.91Z</time></trkpt><trkpt lat="45.40780355024023" lon="11.080605928378596"><ele>40.0</ele><time>2026-04-06T17:10:01.91Z</time></trkpt><trkpt lat="45.40792426863349" lon="11.081058112485554"><ele>41.5</ele><time>2026-04-06T17:10:02.91Z</time></trkpt><trkpt lat="45.40804624211715" lon="11.081524188261126"><ele>43.0</ele><time>2026-04-06T17:10:03.91Z</time></trkpt><trkpt lat="45.40816994810253" lon="11.08197770481192"><ele>43.0</ele><time>2026-04-06T17:10:04.91Z</time></trkpt><trkpt lat="45.40828759958767" lon="11.082413079986507"><ele>43.0</ele><time>2026-04-06T17:10:05.91Z</time></trkpt><trkpt lat="45.40839992335791" lon="11.082837322067547"><ele>43.0</ele><time>2026-04-06T17:10:06.91Z</time></trkpt><trkpt lat="45.408514243117125" lon="11.083263604810883"><ele>43.0</ele><time>2026-04-06T17:10:07.91Z</time></trkpt><trkpt lat="45.408620377583404" lon="11.083664029735193"><ele>43.0</ele><time>2026-04-06T17:10:08.91Z</time></trkpt><trkpt lat="45.40872651848698" lon="11.084060565356811"><ele>43.0</ele><time>2026-04-06T17:10:09.91Z</time></trkpt><trkpt lat="45.408832581147664" lon="11.084452058942787"><ele>43.5</ele><time>2026-04-06T17:10:10.91Z</time></trkpt><trkpt lat="45.40893149942804" lon="11.08483567542527"><ele>44.0</ele><time>2026-04-06T17:10:11.91Z</time></trkpt><trkpt lat="45.40902713347816" lon="11.085220682560433"><ele>44.0</ele><time>2026-04-06T17:10:12.91Z</time></trkpt><trkpt lat="45.40912187011957" lon="11.08560296593617"><ele>44.0</ele><time>2026-04-06T17:10:13.91Z</time></trkpt><trkpt lat="45.40922147802427" lon="11.085978072341323"><ele>44.0</ele><time>2026-04-06T17:10:14.91Z</time></trkpt><trkpt lat="45.409322444375185" lon="11.08634920166392"><ele>44.0</ele><time>2026-04-06T17:10:15.91Z</time></trkpt><trkpt lat="45.409413379340634" lon="11.086695590933845"><ele>44.0</ele><time>2026-04-06T17:10:16.91Z</time></trkpt><trkpt lat="45.40949485983027" lon="11.087023338342302"><ele>44.0</ele><time>2026-04-06T17:10:17.91Z</time></trkpt><trkpt lat="45.409569595128666" lon="11.087337095580134"><ele>44.5</ele><time>2026-04-06T17:10:18.91Z</time></trkpt><trkpt lat="45.409634483222426" lon="11.087646752946904"><ele>45.0</ele><time>2026-04-06T17:10:19.909Z</time></trkpt><trkpt lat="45.40966979563339" lon="11.087960189516087"><ele>44.666666666666664</ele><time>2026-04-06T17:10:20.909Z</time></trkpt><trkpt lat="45.40968494725849" lon="11.088272151460677"><ele>44.33333333333333</ele><time>2026-04-06T17:10:21.909Z</time></trkpt><trkpt lat="45.40967988204497" lon="11.088591129178948"><ele>44.0</ele><time>2026-04-06T17:10:22.909Z</time></trkpt><trkpt lat="45.409648443326695" lon="11.088912604485525"><ele>44.5</ele><time>2026-04-06T17:10:23.909Z</time></trkpt><trkpt lat="45.40959879720169" lon="11.08924451224904"><ele>45.0</ele><time>2026-04-06T17:10:24.909Z</time></trkpt><trkpt lat="45.40952370427594" lon="11.089566981894075"><ele>45.0</ele><time>2026-04-06T17:10:25.909Z</time></trkpt><trkpt lat="45.40942888647323" lon="11.08988810642199"><ele>45.0</ele><time>2026-04-06T17:10:26.909Z</time></trkpt><trkpt lat="45.40932534956929" lon="11.090209202045083"><ele>45.333333333333336</ele><time>2026-04-06T17:10:27.909Z</time></trkpt><trkpt lat="45.40924378639204" lon="11.090506934547877"><ele>45.66666666666667</ele><time>2026-04-06T17:10:28.909Z</time></trkpt><trkpt lat="45.40919000596666" lon="11.090786500970987"><ele>46.0</ele><time>2026-04-06T17:10:29.909Z</time></trkpt><trkpt lat="45.40914385246276" lon="11.091065188350527"><ele>46.0</ele><time>2026-04-06T17:10:30.909Z</time></trkpt><trkpt lat="45.40909912828394" lon="11.09134616243077"><ele>46.0</ele><time>2026-04-06T17:10:31.909Z</time></trkpt><trkpt lat="45.40902915963884" lon="11.09161773158144"><ele>46.0</ele><time>2026-04-06T17:10:32.909Z</time></trkpt><trkpt lat="45.40896149116086" lon="11.091899279249121"><ele>44.5</ele><time>2026-04-06T17:10:33.909Z</time></trkpt><trkpt lat="45.408899530229725" lon="11.092214746064506"><ele>43.0</ele><time>2026-04-06T17:10:34.909Z</time></trkpt><trkpt lat="45.40889592765394" lon="11.092668763638228"><ele>43.0</ele><time>2026-04-06T17:10:35.909Z</time></trkpt><trkpt lat="45.40901515957924" lon="11.093112091331808"><ele>43.0</ele><time>2026-04-06T17:10:36.909Z</time></trkpt><trkpt lat="45.409191321104046" lon="11.093443352444623"><ele>42.5</ele><time>2026-04-06T17:10:37.909Z</time></trkpt><trkpt lat="45.409426906001315" lon="11.093694334173133"><ele>42.0</ele><time>2026-04-06T17:10:38.909Z</time></trkpt><trkpt lat="45.409638658367626" lon="11.093849667763783"><ele>42.0</ele><time>2026-04-06T17:10:39.909Z</time></trkpt><trkpt lat="45.40984609411735" lon="11.093988962381847"><ele>42.0</ele><time>2026-04-06T17:10:40.909Z</time></trkpt><trkpt lat="45.41004546384247" lon="11.09417739076741"><ele>42.0</ele><time>2026-04-06T17:10:41.909Z</time></trkpt><trkpt lat="45.41025634612256" lon="11.094381180963975"><ele>42.0</ele><time>2026-04-06T17:10:42.909Z</time></trkpt><trkpt lat="45.41048714592663" lon="11.094563158755351"><ele>42.5</ele><time>2026-04-06T17:10:43.909Z</time></trkpt><trkpt lat="45.41074256340624" lon="11.094733021836097"><ele>43.0</ele><time>2026-04-06T17:10:44.909Z</time></trkpt><trkpt lat="45.41098509335561" lon="11.094900726079372"><ele>42.5</ele><time>2026-04-06T17:10:45.909Z</time></trkpt><trkpt lat="45.41119783980514" lon="11.095070541366796"><ele>42.0</ele><time>2026-04-06T17:10:46.909Z</time></trkpt><trkpt lat="45.41139841872282" lon="11.095265030316936"><ele>42.5</ele><time>2026-04-06T17:10:47.909Z</time></trkpt><trkpt lat="45.41158421922518" lon="11.095503032696227"><ele>43.0</ele><time>2026-04-06T17:10:48.909Z</time></trkpt><trkpt lat="45.41175237775831" lon="11.095778519470842"><ele>43.0</ele><time>2026-04-06T17:10:49.909Z</time></trkpt><trkpt lat="45.41189877805929" lon="11.096085532628743"><ele>43.0</ele><time>2026-04-06T17:10:50.909Z</time></trkpt><trkpt lat="45.41201394535369" lon="11.096440911025173"><ele>44.0</ele><time>2026-04-06T17:10:51.909Z</time></trkpt><trkpt lat="45.412125197242375" lon="11.096804091372926"><ele>45.0</ele><time>2026-04-06T17:10:52.909Z</time></trkpt><trkpt lat="45.41221373189715" lon="11.097215016371685"><ele>45.0</ele><time>2026-04-06T17:10:53.909Z</time></trkpt><trkpt lat="45.412323259050396" lon="11.097603497000495"><ele>45.0</ele><time>2026-04-06T17:10:54.909Z</time></trkpt><trkpt lat="45.41244251599306" lon="11.09802196101808"><ele>44.0</ele><time>2026-04-06T17:10:55.909Z</time></trkpt><trkpt lat="45.41256151140466" lon="11.098461323831595"><ele>43.0</ele><time>2026-04-06T17:10:56.909Z</time></trkpt><trkpt lat="45.41267529448061" lon="11.098881882230282"><ele>42.0</ele><time>2026-04-06T17:10:57.909Z</time></trkpt><trkpt lat="45.41278427622729" lon="11.099271070333396"><ele>41.0</ele><time>2026-04-06T17:10:58.909Z</time></trkpt><trkpt lat="45.412888715692695" lon="11.099636805865012"><ele>42.0</ele><time>2026-04-06T17:10:59.909Z</time></trkpt><trkpt lat="45.41297980440562" lon="11.099991262616"><ele>43.0</ele><time>2026-04-06T17:11:00.909Z</time></trkpt><trkpt lat="45.41306140948314" lon="11.100321581752318"><ele>43.0</ele><time>2026-04-06T17:11:01.909Z</time></trkpt><trkpt lat="45.41314385794461" lon="11.100639507195838"><ele>43.0</ele><time>2026-04-06T17:11:02.909Z</time></trkpt><trkpt lat="45.413221068371236" lon="11.100939621481453"><ele>43.0</ele><time>2026-04-06T17:11:03.909Z</time></trkpt><trkpt lat="45.4132885779512" lon="11.10122233385685"><ele>43.0</ele><time>2026-04-06T17:11:04.909Z</time></trkpt><trkpt lat="45.41335162408334" lon="11.101493724014539"><ele>43.0</ele><time>2026-04-06T17:11:05.909Z</time></trkpt><trkpt lat="45.41339413134584" lon="11.101766949906793"><ele>43.333333333333336</ele><time>2026-04-06T17:11:06.909Z</time></trkpt><trkpt lat="45.41341363841227" lon="11.102041205325701"><ele>43.666666666666664</ele><time>2026-04-06T17:11:07.909Z</time></trkpt><trkpt lat="45.41340971448567" lon="11.102319001687821"><ele>44.0</ele><time>2026-04-06T17:11:08.909Z</time></trkpt><trkpt lat="45.413392296611576" lon="11.102609419900194"><ele>42.5</ele><time>2026-04-06T17:11:09.909Z</time></trkpt><trkpt lat="45.41336254203641" lon="11.102918658727596"><ele>41.0</ele><time>2026-04-06T17:11:10.909Z</time></trkpt><trkpt lat="45.41331972420371" lon="11.103242224748708"><ele>40.666666666666664</ele><time>2026-04-06T17:11:11.909Z</time></trkpt><trkpt lat="45.41328814644514" lon="11.103562294378166"><ele>40.333333333333336</ele><time>2026-04-06T17:11:12.909Z</time></trkpt><trkpt lat="45.413279796108775" lon="11.103866289613862"><ele>40.0</ele><time>2026-04-06T17:11:13.909Z</time></trkpt><trkpt lat="45.413285706494165" lon="11.104174701305972"><ele>40.0</ele><time>2026-04-06T17:11:14.909Z</time></trkpt><trkpt lat="45.413318357991336" lon="11.104463959653538"><ele>40.0</ele><time>2026-04-06T17:11:15.909Z</time></trkpt><trkpt lat="45.413374696984526" lon="11.104751422710965"><ele>40.0</ele><time>2026-04-06T17:11:16.909Z</time></trkpt><trkpt lat="45.4134633898689" lon="11.105032067042591"><ele>40.333333333333336</ele><time>2026-04-06T17:11:17.909Z</time></trkpt><trkpt lat="45.4135700288255" lon="11.105299249989018"><ele>40.666666666666664</ele><time>2026-04-06T17:11:18.909Z</time></trkpt><trkpt lat="45.413706283092985" lon="11.105552000115331"><ele>41.0</ele><time>2026-04-06T17:11:19.909Z</time></trkpt><trkpt lat="45.413862168013196" lon="11.105781717260108"><ele>42.5</ele><time>2026-04-06T17:11:20.909Z</time></trkpt><trkpt lat="45.414044107642916" lon="11.105993019620128"><ele>44.0</ele><time>2026-04-06T17:11:21.909Z</time></trkpt><trkpt lat="45.41423516415583" lon="11.106197715681374"><ele>44.0</ele><time>2026-04-06T17:11:22.909Z</time></trkpt><trkpt lat="45.41441720569611" lon="11.106387866303299"><ele>44.0</ele><time>2026-04-06T17:11:23.909Z</time></trkpt><trkpt lat="45.41459340684645" lon="11.106576990129842"><ele>44.0</ele><time>2026-04-06T17:11:24.909Z</time></trkpt><trkpt lat="45.414755872184706" lon="11.106791619568211"><ele>44.0</ele><time>2026-04-06T17:11:25.909Z</time></trkpt><trkpt lat="45.41489673870067" lon="11.107032718799"><ele>44.0</ele><time>2026-04-06T17:11:26.909Z</time></trkpt><trkpt lat="45.41502281968927" lon="11.107300140486485"><ele>44.0</ele><time>2026-04-06T17:11:27.909Z</time></trkpt><trkpt lat="45.415131823012786" lon="11.10758882764324"><ele>42.5</ele><time>2026-04-06T17:11:28.909Z</time></trkpt><trkpt lat="45.415224590965536" lon="11.107918041335399"><ele>41.0</ele><time>2026-04-06T17:11:29.909Z</time></trkpt><trkpt lat="45.41531101997356" lon="11.108263499039788"><ele>41.0</ele><time>2026-04-06T17:11:30.909Z</time></trkpt><trkpt lat="45.41540348704453" lon="11.108631065172684"><ele>41.0</ele><time>2026-04-06T17:11:31.909Z</time></trkpt><trkpt lat="45.41550820992296" lon="11.109018954838417"><ele>41.0</ele><time>2026-04-06T17:11:32.909Z</time></trkpt><trkpt lat="45.415623499537844" lon="11.109421115732454"><ele>41.0</ele><time>2026-04-06T17:11:33.909Z</time></trkpt><trkpt lat="45.4157458572621" lon="11.109831169166402"><ele>40.5</ele><time>2026-04-06T17:11:34.909Z</time></trkpt><trkpt lat="45.415886713966735" lon="11.110252479576955"><ele>40.0</ele><time>2026-04-06T17:11:35.909Z</time></trkpt><trkpt lat="45.41602024058909" lon="11.110670785543267"><ele>40.0</ele><time>2026-04-06T17:11:36.909Z</time></trkpt><trkpt lat="45.41616289652489" lon="11.111045011540057"><ele>40.0</ele><time>2026-04-06T17:11:37.909Z</time></trkpt><trkpt lat="45.41628827534817" lon="11.111394576468925"><ele>41.0</ele><time>2026-04-06T17:11:38.909Z</time></trkpt><trkpt lat="45.416402817966954" lon="11.11171945867984"><ele>42.0</ele><time>2026-04-06T17:11:39.909Z</time></trkpt><trkpt lat="45.416511827618976" lon="11.112023025514652"><ele>42.0</ele><time>2026-04-06T17:11:40.909Z</time></trkpt><trkpt lat="45.41661952844509" lon="11.112312448930059"><ele>42.0</ele><time>2026-04-06T17:11:41.909Z</time></trkpt><trkpt lat="45.416724627187484" lon="11.112602903673428"><ele>42.0</ele><time>2026-04-06T17:11:42.909Z</time></trkpt><trkpt lat="45.41682275844417" lon="11.112894599641116"><ele>42.0</ele><time>2026-04-06T17:11:43.909Z</time></trkpt><trkpt lat="45.41690578817333" lon="11.113192578873347"><ele>41.5</ele><time>2026-04-06T17:11:44.909Z</time></trkpt><trkpt lat="45.416962360564426" lon="11.113502918136836"><ele>41.0</ele><time>2026-04-06T17:11:45.909Z</time></trkpt><trkpt lat="45.41699355410669" lon="11.113826068904215"><ele>41.5</ele><time>2026-04-06T17:11:46.909Z</time></trkpt><trkpt lat="45.417007670089696" lon="11.114156349447994"><ele>42.0</ele><time>2026-04-06T17:11:47.909Z</time></trkpt><trkpt lat="45.41699412237089" lon="11.114471904098576"><ele>42.0</ele><time>2026-04-06T17:11:48.909Z</time></trkpt><trkpt lat="45.41695303288316" lon="11.114780702745277"><ele>42.0</ele><time>2026-04-06T17:11:49.909Z</time></trkpt><trkpt lat="45.41689641437123" lon="11.115090413986055"><ele>42.0</ele><time>2026-04-06T17:11:50.909Z</time></trkpt><trkpt lat="45.41682491963232" lon="11.115396457445822"><ele>41.5</ele><time>2026-04-06T17:11:51.909Z</time></trkpt><trkpt lat="45.41672787675528" lon="11.11570208686701"><ele>41.0</ele><time>2026-04-06T17:11:52.909Z</time></trkpt><trkpt lat="45.41661367806815" lon="11.116012905935449"><ele>41.0</ele><time>2026-04-06T17:11:53.909Z</time></trkpt><trkpt lat="45.41649772788826" lon="11.1163259168345"><ele>41.0</ele><time>2026-04-06T17:11:54.909Z</time></trkpt><trkpt lat="45.41639345949274" lon="11.116641366399564"><ele>41.5</ele><time>2026-04-06T17:11:55.909Z</time></trkpt><trkpt lat="45.41629109107171" lon="11.116954901191244"><ele>42.0</ele><time>2026-04-06T17:11:56.909Z</time></trkpt><trkpt lat="45.41618902192857" lon="11.117262858543445"><ele>41.666666666666664</ele><time>2026-04-06T17:11:57.909Z</time></trkpt><trkpt lat="45.41609364349609" lon="11.117552068891538"><ele>41.33333333333333</ele><time>2026-04-06T17:11:58.909Z</time></trkpt><trkpt lat="45.41600412515113" lon="11.117828754864716"><ele>41.0</ele><time>2026-04-06T17:11:59.909Z</time></trkpt><trkpt lat="45.4159179065832" lon="11.11807618864954"><ele>41.666666666666664</ele><time>2026-04-06T17:12:00.909Z</time></trkpt><trkpt lat="45.41583834472684" lon="11.118312995814424"><ele>42.333333333333336</ele><time>2026-04-06T17:12:01.909Z</time></trkpt><trkpt lat="45.415766141312275" lon="11.118539795450618"><ele>43.0</ele><time>2026-04-06T17:12:02.909Z</time></trkpt><trkpt lat="45.41570431245442" lon="11.118744341027135"><ele>43.0</ele><time>2026-04-06T17:12:03.909Z</time></trkpt><trkpt lat="45.415644325971144" lon="11.11892662545242"><ele>43.0</ele><time>2026-04-06T17:12:04.909Z</time></trkpt><trkpt lat="45.41558812612376" lon="11.119075668540988"><ele>43.0</ele><time>2026-04-06T17:12:05.909Z</time></trkpt><trkpt lat="45.41553886484111" lon="11.119193364578955"><ele>43.0</ele><time>2026-04-06T17:12:06.909Z</time></trkpt><trkpt lat="45.41548344368299" lon="11.119303603187207"><ele>42.4</ele><time>2026-04-06T17:12:07.909Z</time></trkpt><trkpt lat="45.4154137305995" lon="11.119394767773153"><ele>41.8</ele><time>2026-04-06T17:12:08.909Z</time></trkpt><trkpt lat="45.415362792904524" lon="11.119496290017485"><ele>41.2</ele><time>2026-04-06T17:12:09.909Z</time></trkpt><trkpt lat="45.415243704920975" lon="11.119497292104246"><ele>40.6</ele><time>2026-04-06T17:12:10.909Z</time></trkpt><trkpt lat="45.41516663592171" lon="11.119574297666754"><ele>40.0</ele><time>2026-04-06T17:12:11.909Z</time></trkpt><trkpt lat="45.41511180071866" lon="11.119706247324432"><ele>40.0</ele><time>2026-04-06T17:12:12.909Z</time></trkpt><trkpt lat="45.41510322723254" lon="11.119872938041656"><ele>40.0</ele><time>2026-04-06T17:12:13.909Z</time></trkpt><trkpt lat="45.415111267103725" lon="11.120036020661992"><ele>40.0</ele><time>2026-04-06T17:12:14.909Z</time></trkpt><trkpt lat="45.41518120046495" lon="11.120169469503912"><ele>40.0</ele><time>2026-04-06T17:12:15.909Z</time></trkpt><trkpt lat="45.41515717277751" lon="11.120363248385896"><ele>40.25</ele><time>2026-04-06T17:12:16.909Z</time></trkpt><trkpt lat="45.41516308057019" lon="11.120551234193194"><ele>40.5</ele><time>2026-04-06T17:12:17.909Z</time></trkpt><trkpt lat="45.41507657053957" lon="11.120727092107698"><ele>40.75</ele><time>2026-04-06T17:12:18.909Z</time></trkpt><trkpt lat="45.415019546285116" lon="11.120898930007414"><ele>41.0</ele><time>2026-04-06T17:12:19.909Z</time></trkpt><trkpt lat="45.414949575606464" lon="11.12108017861185"><ele>41.33333333333333</ele><time>2026-04-06T17:12:20.909Z</time></trkpt><trkpt lat="45.414883352972524" lon="11.121293186716015"><ele>41.666666666666664</ele><time>2026-04-06T17:12:21.909Z</time></trkpt><trkpt lat="45.41480866595991" lon="11.121537627350232"><ele>42.0</ele><time>2026-04-06T17:12:22.909Z</time></trkpt><trkpt lat="45.41472466041312" lon="11.12181116719125"><ele>41.0</ele><time>2026-04-06T17:12:23.909Z</time></trkpt><trkpt lat="45.41463031019372" lon="11.122123986232756"><ele>40.0</ele><time>2026-04-06T17:12:24.909Z</time></trkpt><trkpt lat="45.41454137684755" lon="11.122410209453014"><ele>40.0</ele><time>2026-04-06T17:12:25.909Z</time></trkpt><trkpt lat="45.41445546370577" lon="11.122672701971519"><ele>40.0</ele><time>2026-04-06T17:12:26.909Z</time></trkpt><trkpt lat="45.41437323625384" lon="11.12292289844189"><ele>40.0</ele><time>2026-04-06T17:12:27.909Z</time></trkpt><trkpt lat="45.41429303298145" lon="11.123174362877208"><ele>40.333333333333336</ele><time>2026-04-06T17:12:28.909Z</time></trkpt><trkpt lat="45.414209320274445" lon="11.123436348780078"><ele>40.666666666666664</ele><time>2026-04-06T17:12:29.909Z</time></trkpt><trkpt lat="45.41412664012467" lon="11.123700347989114"><ele>41.0</ele><time>2026-04-06T17:12:30.909Z</time></trkpt><trkpt lat="45.4140433894904" lon="11.123963342082076"><ele>41.0</ele><time>2026-04-06T17:12:31.909Z</time></trkpt><trkpt lat="45.413958625666936" lon="11.12423051942106"><ele>41.0</ele><time>2026-04-06T17:12:32.909Z</time></trkpt><trkpt lat="45.4138719413622" lon="11.124498742069003"><ele>41.0</ele><time>2026-04-06T17:12:33.909Z</time></trkpt><trkpt lat="45.41378429478518" lon="11.12477555300768"><ele>40.0</ele><time>2026-04-06T17:12:34.909Z</time></trkpt><trkpt lat="45.41369380614089" lon="11.125073292387777"><ele>39.0</ele><time>2026-04-06T17:12:35.909Z</time></trkpt><trkpt lat="45.4135918197658" lon="11.125390812007085"><ele>39.0</ele><time>2026-04-06T17:12:36.909Z</time></trkpt><trkpt lat="45.413481585878266" lon="11.125735819057324"><ele>39.0</ele><time>2026-04-06T17:12:37.909Z</time></trkpt><trkpt lat="45.413378748942016" lon="11.126059448035392"><ele>39.0</ele><time>2026-04-06T17:12:38.909Z</time></trkpt><trkpt lat="45.41328534905663" lon="11.126357102242284"><ele>39.0</ele><time>2026-04-06T17:12:39.909Z</time></trkpt><trkpt lat="45.4131897722349" lon="11.126656617060243"><ele>39.5</ele><time>2026-04-06T17:12:40.909Z</time></trkpt><trkpt lat="45.41309261990583" lon="11.12698629939732"><ele>40.0</ele><time>2026-04-06T17:12:41.909Z</time></trkpt><trkpt lat="45.41299167440695" lon="11.127346277447927"><ele>40.0</ele><time>2026-04-06T17:12:42.909Z</time></trkpt><trkpt lat="45.41287788317179" lon="11.127723454275841"><ele>40.0</ele><time>2026-04-06T17:12:43.909Z</time></trkpt><trkpt lat="45.412759035568165" lon="11.128099718563728"><ele>39.5</ele><time>2026-04-06T17:12:44.909Z</time></trkpt><trkpt lat="45.41265223117606" lon="11.128437842475"><ele>39.0</ele><time>2026-04-06T17:12:45.909Z</time></trkpt><trkpt lat="45.41255225945326" lon="11.128744087352446"><ele>39.0</ele><time>2026-04-06T17:12:46.909Z</time></trkpt><trkpt lat="45.41245633881277" lon="11.129039422100012"><ele>39.0</ele><time>2026-04-06T17:12:47.909Z</time></trkpt><trkpt lat="45.412362396743966" lon="11.129325079193972"><ele>39.0</ele><time>2026-04-06T17:12:48.909Z</time></trkpt><trkpt lat="45.41227938431478" lon="11.129586424012395"><ele>39.0</ele><time>2026-04-06T17:12:49.909Z</time></trkpt><trkpt lat="45.41220506294202" lon="11.129810129216612"><ele>39.0</ele><time>2026-04-06T17:12:50.909Z</time></trkpt><trkpt lat="45.41213927300117" lon="11.130013545519866"><ele>39.0</ele><time>2026-04-06T17:12:51.909Z</time></trkpt><trkpt lat="45.41208268961424" lon="11.13019019871793"><ele>39.0</ele><time>2026-04-06T17:12:52.909Z</time></trkpt><trkpt lat="45.412025353831154" lon="11.130330612954996"><ele>39.0</ele><time>2026-04-06T17:12:53.909Z</time></trkpt><trkpt lat="45.411971560381474" lon="11.130456017357767"><ele>39.0</ele><time>2026-04-06T17:12:54.909Z</time></trkpt><trkpt lat="45.41191609798105" lon="11.13054556568874"><ele>39.0</ele><time>2026-04-06T17:12:55.909Z</time></trkpt><trkpt lat="45.411859802509724" lon="11.130599644634351"><ele>39.0</ele><time>2026-04-06T17:12:56.909Z</time></trkpt><trkpt lat="45.41179557175746" lon="11.130643106425659"><ele>39.0</ele><time>2026-04-06T17:12:57.909Z</time></trkpt><trkpt lat="45.41171511343334" lon="11.130710459605893"><ele>39.0</ele><time>2026-04-06T17:12:58.909Z</time></trkpt><trkpt lat="45.41163367252894" lon="11.130770511824034"><ele>39.0</ele><time>2026-04-06T17:12:59.909Z</time></trkpt><trkpt lat="45.41156970992808" lon="11.130855256577089"><ele>39.0</ele><time>2026-04-06T17:13:00.909Z</time></trkpt><trkpt lat="45.41152951508035" lon="11.130963952558739"><ele>39.0</ele><time>2026-04-06T17:13:01.909Z</time></trkpt><trkpt lat="45.41151206549169" lon="11.131078917542842"><ele>39.0</ele><time>2026-04-06T17:13:02.909Z</time></trkpt><trkpt lat="45.41151441253307" lon="11.131206761631"><ele>39.0</ele><time>2026-04-06T17:13:03.909Z</time></trkpt><trkpt lat="45.41153868439614" lon="11.13135317930365"><ele>39.0</ele><time>2026-04-06T17:13:04.909Z</time></trkpt><trkpt lat="45.411568303672944" lon="11.131513682707782"><ele>39.0</ele><time>2026-04-06T17:13:05.909Z</time></trkpt><trkpt lat="45.41159557667297" lon="11.131710126285189"><ele>39.0</ele><time>2026-04-06T17:13:06.909Z</time></trkpt><trkpt lat="45.41159023044422" lon="11.131930930804582"><ele>39.0</ele><time>2026-04-06T17:13:07.909Z</time></trkpt><trkpt lat="45.411567786179994" lon="11.132142886197578"><ele>39.0</ele><time>2026-04-06T17:13:08.909Z</time></trkpt><trkpt lat="45.41152145609714" lon="11.132347243890287"><ele>39.333333333333336</ele><time>2026-04-06T17:13:09.909Z</time></trkpt><trkpt lat="45.4114678637056" lon="11.13253312732895"><ele>39.66666666666667</ele><time>2026-04-06T17:13:10.909Z</time></trkpt><trkpt lat="45.411408072024756" lon="11.132737304423173"><ele>40.0</ele><time>2026-04-06T17:13:11.909Z</time></trkpt><trkpt lat="45.4113496288269" lon="11.132952928371152"><ele>39.66666666666667</ele><time>2026-04-06T17:13:12.909Z</time></trkpt><trkpt lat="45.41127886288235" lon="11.133183277466623"><ele>39.333333333333336</ele><time>2026-04-06T17:13:13.909Z</time></trkpt><trkpt lat="45.411192361845025" lon="11.133455611886296"><ele>39.0</ele><time>2026-04-06T17:13:14.909Z</time></trkpt><trkpt lat="45.4110908877431" lon="11.133777144490713"><ele>39.0</ele><time>2026-04-06T17:13:15.909Z</time></trkpt><trkpt lat="45.4109699467201" lon="11.134138083002378"><ele>39.0</ele><time>2026-04-06T17:13:16.909Z</time></trkpt><trkpt lat="45.41084488601817" lon="11.134527644618549"><ele>38.0</ele><time>2026-04-06T17:13:17.909Z</time></trkpt><trkpt lat="45.41072496407885" lon="11.13490613713016"><ele>37.0</ele><time>2026-04-06T17:13:18.909Z</time></trkpt><trkpt lat="45.41061044971278" lon="11.135283402653307"><ele>37.0</ele><time>2026-04-06T17:13:19.909Z</time></trkpt><trkpt lat="45.410508679742016" lon="11.135619893421916"><ele>37.0</ele><time>2026-04-06T17:13:20.909Z</time></trkpt><trkpt lat="45.410410676148636" lon="11.135932722860062"><ele>36.5</ele><time>2026-04-06T17:13:21.909Z</time></trkpt><trkpt lat="45.410315418161794" lon="11.136237555621362"><ele>36.0</ele><time>2026-04-06T17:13:22.909Z</time></trkpt><trkpt lat="45.41022393619369" lon="11.136527363965408"><ele>35.333333333333336</ele><time>2026-04-06T17:13:23.909Z</time></trkpt><trkpt lat="45.41013559832466" lon="11.136810507822544"><ele>34.66666666666667</ele><time>2026-04-06T17:13:24.909Z</time></trkpt><trkpt lat="45.410052782299445" lon="11.137088667289605"><ele>34.0</ele><time>2026-04-06T17:13:25.909Z</time></trkpt><trkpt lat="45.4099682315945" lon="11.137364157575941"><ele>34.333333333333336</ele><time>2026-04-06T17:13:26.909Z</time></trkpt><trkpt lat="45.40988421889664" lon="11.137629482173837"><ele>34.666666666666664</ele><time>2026-04-06T17:13:27.909Z</time></trkpt><trkpt lat="45.40979863420085" lon="11.137877574407455"><ele>35.0</ele><time>2026-04-06T17:13:28.909Z</time></trkpt><trkpt lat="45.409709565164235" lon="11.138104491356813"><ele>35.0</ele><time>2026-04-06T17:13:29.909Z</time></trkpt><trkpt lat="45.40961817803491" lon="11.138321146919793"><ele>35.0</ele><time>2026-04-06T17:13:30.909Z</time></trkpt><trkpt lat="45.40952375581365" lon="11.138535129478896"><ele>35.0</ele><time>2026-04-06T17:13:31.909Z</time></trkpt><trkpt lat="45.40943169304393" lon="11.138742687944626"><ele>35.0</ele><time>2026-04-06T17:13:32.909Z</time></trkpt><trkpt lat="45.40933884691082" lon="11.138950925755708"><ele>35.0</ele><time>2026-04-06T17:13:33.909Z</time></trkpt><trkpt lat="45.40924243274999" lon="11.139164335173442"><ele>35.0</ele><time>2026-04-06T17:13:34.909Z</time></trkpt><trkpt lat="45.409144792797875" lon="11.13939038150225"><ele>35.666666666666664</ele><time>2026-04-06T17:13:35.909Z</time></trkpt><trkpt lat="45.409044329881915" lon="11.139621090320771"><ele>36.333333333333336</ele><time>2026-04-06T17:13:36.909Z</time></trkpt><trkpt lat="45.40894490039409" lon="11.139844558957796"><ele>37.0</ele><time>2026-04-06T17:13:37.909Z</time></trkpt><trkpt lat="45.40884599998902" lon="11.140084775528052"><ele>37.333333333333336</ele><time>2026-04-06T17:13:38.909Z</time></trkpt><trkpt lat="45.408756283926586" lon="11.140322368994076"><ele>37.666666666666664</ele><time>2026-04-06T17:13:39.909Z</time></trkpt><trkpt lat="45.408679861882256" lon="11.140549186324673"><ele>38.0</ele><time>2026-04-06T17:13:40.909Z</time></trkpt><trkpt lat="45.408616884055974" lon="11.140779005415766"><ele>38.0</ele><time>2026-04-06T17:13:41.909Z</time></trkpt><trkpt lat="45.40855721399772" lon="11.140989426015421"><ele>38.0</ele><time>2026-04-06T17:13:42.909Z</time></trkpt><trkpt lat="45.40850250340525" lon="11.141180067883376"><ele>38.0</ele><time>2026-04-06T17:13:43.909Z</time></trkpt><trkpt lat="45.408462699060124" lon="11.141323160834927"><ele>38.0</ele><time>2026-04-06T17:13:44.909Z</time></trkpt><trkpt lat="45.408433738029615" lon="11.141442191838994"><ele>37.83333333333333</ele><time>2026-04-06T17:13:45.909Z</time></trkpt><trkpt lat="45.40840800327864" lon="11.141554885264645"><ele>37.666666666666664</ele><time>2026-04-06T17:13:46.909Z</time></trkpt><trkpt lat="45.40837691122202" lon="11.141671111138752"><ele>37.5</ele><time>2026-04-06T17:13:47.909Z</time></trkpt><trkpt lat="45.40834724630876" lon="11.141781462054388"><ele>37.333333333333336</ele><time>2026-04-06T17:13:48.909Z</time></trkpt><trkpt lat="45.40831959418771" lon="11.141896472425476"><ele>37.16666666666667</ele><time>2026-04-06T17:13:49.909Z</time></trkpt><trkpt lat="45.40828815479151" lon="11.1420261715774"><ele>37.0</ele><time>2026-04-06T17:13:50.909Z</time></trkpt><trkpt lat="45.40825013535488" lon="11.142159797050612"><ele>37.0</ele><time>2026-04-06T17:13:51.909Z</time></trkpt><trkpt lat="45.408209584492916" lon="11.142292842350125"><ele>37.0</ele><time>2026-04-06T17:13:52.909Z</time></trkpt><trkpt lat="45.40817792036855" lon="11.142413221343343"><ele>37.0</ele><time>2026-04-06T17:13:53.909Z</time></trkpt><trkpt lat="45.40815320454932" lon="11.14251376113221"><ele>37.0</ele><time>2026-04-06T17:13:54.909Z</time></trkpt><trkpt lat="45.40813003376287" lon="11.1425989672877"><ele>37.0</ele><time>2026-04-06T17:13:55.909Z</time></trkpt><trkpt lat="45.40809245980818" lon="11.142758139213255"><ele>37.0</ele><time>2026-04-06T17:13:57.909Z</time></trkpt><trkpt lat="45.40805437538554" lon="11.14290355605583"><ele>36.800000000000004</ele><time>2026-04-06T17:13:59.909Z</time></trkpt><trkpt lat="45.40800642651207" lon="11.143050363964946"><ele>36.6</ele><time>2026-04-06T17:14:01.909Z</time></trkpt><trkpt lat="45.4079681549222" lon="11.143127426595525"><ele>36.400000000000006</ele><time>2026-04-06T17:14:02.909Z</time></trkpt><trkpt lat="45.407902311532766" lon="11.143194949280852"><ele>36.2</ele><time>2026-04-06T17:14:03.909Z</time></trkpt><trkpt lat="45.407802239286404" lon="11.143233373986146"><ele>36.0</ele><time>2026-04-06T17:14:04.909Z</time></trkpt><trkpt lat="45.40770470822382" lon="11.14331279158801"><ele>35.25</ele><time>2026-04-06T17:14:05.909Z</time></trkpt><trkpt lat="45.40763497741884" lon="11.143394712712693"><ele>34.5</ele><time>2026-04-06T17:14:06.909Z</time></trkpt><trkpt lat="45.40756869515046" lon="11.143500102656695"><ele>33.75</ele><time>2026-04-06T17:14:07.909Z</time></trkpt><trkpt lat="45.40754145427441" lon="11.143676512834263"><ele>33.0</ele><time>2026-04-06T17:14:08.909Z</time></trkpt><trkpt lat="45.407547497856285" lon="11.143875218674971"><ele>33.25</ele><time>2026-04-06T17:14:09.909Z</time></trkpt><trkpt lat="45.40757882288152" lon="11.144076603704347"><ele>33.5</ele><time>2026-04-06T17:14:10.909Z</time></trkpt><trkpt lat="45.4076352157432" lon="11.144178702906796"><ele>33.75</ele><time>2026-04-06T17:14:12.909Z</time></trkpt><trkpt lat="45.40765546565147" lon="11.144352854205216"><ele>34.0</ele><time>2026-04-06T17:14:13.909Z</time></trkpt><trkpt lat="45.40768996801021" lon="11.14455667847932"><ele>34.0</ele><time>2026-04-06T17:14:14.909Z</time></trkpt><trkpt lat="45.407566029527665" lon="11.144813569505862"><ele>34.0</ele><time>2026-04-06T17:14:15.909Z</time></trkpt><trkpt lat="45.407494540439565" lon="11.145084123151175"><ele>34.0</ele><time>2026-04-06T17:14:16.909Z</time></trkpt><trkpt lat="45.40742578696445" lon="11.145408884024125"><ele>33.0</ele><time>2026-04-06T17:14:17.909Z</time></trkpt><trkpt lat="45.40732553252523" lon="11.14576700557515"><ele>32.0</ele><time>2026-04-06T17:14:18.909Z</time></trkpt><trkpt lat="45.407225497846895" lon="11.146142120834314"><ele>32.5</ele><time>2026-04-06T17:14:19.909Z</time></trkpt><trkpt lat="45.40711945220644" lon="11.1465201573904"><ele>33.0</ele><time>2026-04-06T17:14:20.909Z</time></trkpt><trkpt lat="45.40701517599233" lon="11.146915694829513"><ele>33.0</ele><time>2026-04-06T17:14:21.909Z</time></trkpt><trkpt lat="45.40691135128573" lon="11.147312602578973"><ele>33.0</ele><time>2026-04-06T17:14:22.909Z</time></trkpt><trkpt lat="45.406823673964894" lon="11.147671929085716"><ele>32.5</ele><time>2026-04-06T17:14:23.909Z</time></trkpt><trkpt lat="45.4067421364138" lon="11.14802113327194"><ele>32.0</ele><time>2026-04-06T17:14:24.909Z</time></trkpt><trkpt lat="45.40666723419396" lon="11.148391439317374"><ele>31.0</ele><time>2026-04-06T17:14:25.909Z</time></trkpt><trkpt lat="45.40659392317534" lon="11.148732349546481"><ele>30.0</ele><time>2026-04-06T17:14:26.909Z</time></trkpt><trkpt lat="45.40650377296757" lon="11.149110325388232"><ele>29.5</ele><time>2026-04-06T17:14:27.909Z</time></trkpt><trkpt lat="45.406401104693735" lon="11.149505810231187"><ele>29.0</ele><time>2026-04-06T17:14:28.909Z</time></trkpt><trkpt lat="45.40628722538506" lon="11.149916284308096"><ele>29.0</ele><time>2026-04-06T17:14:29.909Z</time></trkpt><trkpt lat="45.406167816235715" lon="11.150346353696552"><ele>29.0</ele><time>2026-04-06T17:14:30.909Z</time></trkpt><trkpt lat="45.406053737321855" lon="11.150803528878836"><ele>29.0</ele><time>2026-04-06T17:14:31.909Z</time></trkpt><trkpt lat="45.405940713788446" lon="11.151225413257809"><ele>29.0</ele><time>2026-04-06T17:14:32.909Z</time></trkpt><trkpt lat="45.40582631359003" lon="11.151646136658929"><ele>29.0</ele><time>2026-04-06T17:14:33.909Z</time></trkpt><trkpt lat="45.4057131622084" lon="11.152023978363298"><ele>29.0</ele><time>2026-04-06T17:14:34.909Z</time></trkpt><trkpt lat="45.40562004371739" lon="11.15242638406808"><ele>29.0</ele><time>2026-04-06T17:14:35.909Z</time></trkpt><trkpt lat="45.40549994482982" lon="11.152938812511858"><ele>29.0</ele><time>2026-04-06T17:14:36.909Z</time></trkpt><trkpt lat="45.4053813403158" lon="11.153410336170271"><ele>29.0</ele><time>2026-04-06T17:14:37.909Z</time></trkpt><trkpt lat="45.40526063180582" lon="11.153880100882787"><ele>29.0</ele><time>2026-04-06T17:14:38.909Z</time></trkpt><trkpt lat="45.40513142691856" lon="11.154347429831512"><ele>29.0</ele><time>2026-04-06T17:14:39.909Z</time></trkpt><trkpt lat="45.40499949339053" lon="11.15482292891611"><ele>29.0</ele><time>2026-04-06T17:14:40.909Z</time></trkpt><trkpt lat="45.404870792291526" lon="11.155299812254121"><ele>29.0</ele><time>2026-04-06T17:14:41.909Z</time></trkpt><trkpt lat="45.40475232536459" lon="11.155726719371271"><ele>29.0</ele><time>2026-04-06T17:14:42.909Z</time></trkpt><trkpt lat="45.404638647484404" lon="11.156134842743676"><ele>28.0</ele><time>2026-04-06T17:14:43.909Z</time></trkpt><trkpt lat="45.40452879323564" lon="11.156546122747232"><ele>27.0</ele><time>2026-04-06T17:14:44.909Z</time></trkpt><trkpt lat="45.40442158108652" lon="11.156952910906867"><ele>27.0</ele><time>2026-04-06T17:14:45.909Z</time></trkpt><trkpt lat="45.40431699595063" lon="11.157346984101087"><ele>27.0</ele><time>2026-04-06T17:14:46.909Z</time></trkpt><trkpt lat="45.40421179977574" lon="11.157729411017673"><ele>27.5</ele><time>2026-04-06T17:14:47.909Z</time></trkpt><trkpt lat="45.40410700630843" lon="11.158116704216456"><ele>28.0</ele><time>2026-04-06T17:14:48.909Z</time></trkpt><trkpt lat="45.404002626706884" lon="11.158506839603113"><ele>28.0</ele><time>2026-04-06T17:14:49.909Z</time></trkpt><trkpt lat="45.40390112717947" lon="11.15889403511139"><ele>28.0</ele><time>2026-04-06T17:14:50.909Z</time></trkpt><trkpt lat="45.403798165871244" lon="11.15928671354985"><ele>28.0</ele><time>2026-04-06T17:14:51.909Z</time></trkpt><trkpt lat="45.40369644494306" lon="11.159674082188271"><ele>28.0</ele><time>2026-04-06T17:14:52.909Z</time></trkpt><trkpt lat="45.4035918298775" lon="11.16006148916651"><ele>28.0</ele><time>2026-04-06T17:14:53.909Z</time></trkpt><trkpt lat="45.40348783302856" lon="11.160450647002579"><ele>28.0</ele><time>2026-04-06T17:14:54.909Z</time></trkpt><trkpt lat="45.40338480308954" lon="11.160838241580693"><ele>27.5</ele><time>2026-04-06T17:14:55.909Z</time></trkpt><trkpt lat="45.40328228479328" lon="11.161215104413584"><ele>27.0</ele><time>2026-04-06T17:14:56.909Z</time></trkpt><trkpt lat="45.40318896483866" lon="11.161565086207432"><ele>27.0</ele><time>2026-04-06T17:14:57.909Z</time></trkpt><trkpt lat="45.40310027159816" lon="11.161888247106964"><ele>27.0</ele><time>2026-04-06T17:14:58.909Z</time></trkpt><trkpt lat="45.40301650411819" lon="11.162187199417383"><ele>27.0</ele><time>2026-04-06T17:14:59.909Z</time></trkpt><trkpt lat="45.40294149764553" lon="11.162467307474923"><ele>27.0</ele><time>2026-04-06T17:15:00.909Z</time></trkpt><trkpt lat="45.402878277568874" lon="11.162719623201358"><ele>27.0</ele><time>2026-04-06T17:15:01.909Z</time></trkpt><trkpt lat="45.40281921675731" lon="11.162928875168"><ele>27.0</ele><time>2026-04-06T17:15:02.909Z</time></trkpt><trkpt lat="45.40278626803414" lon="11.163114676275145"><ele>27.0</ele><time>2026-04-06T17:15:03.909Z</time></trkpt><trkpt lat="45.402722064172465" lon="11.163233326752147"><ele>27.0</ele><time>2026-04-06T17:15:04.909Z</time></trkpt><trkpt lat="45.402648347047034" lon="11.163337609407224"><ele>27.0</ele><time>2026-04-06T17:15:05.909Z</time></trkpt><trkpt lat="45.40254232366026" lon="11.163420657289606"><ele>27.25</ele><time>2026-04-06T17:15:06.909Z</time></trkpt><trkpt lat="45.40242118824803" lon="11.163482780059"><ele>27.5</ele><time>2026-04-06T17:15:07.909Z</time></trkpt><trkpt lat="45.40230911657144" lon="11.163587010976011"><ele>27.75</ele><time>2026-04-06T17:15:08.909Z</time></trkpt><trkpt lat="45.40224347055959" lon="11.16373116804792"><ele>28.0</ele><time>2026-04-06T17:15:09.909Z</time></trkpt><trkpt lat="45.40221599641153" lon="11.163916778209737"><ele>28.25</ele><time>2026-04-06T17:15:10.909Z</time></trkpt><trkpt lat="45.40223477565931" lon="11.164114463396986"><ele>28.5</ele><time>2026-04-06T17:15:11.909Z</time></trkpt><trkpt lat="45.40228682361627" lon="11.164301702511901"><ele>28.75</ele><time>2026-04-06T17:15:12.909Z</time></trkpt><trkpt lat="45.402324638388386" lon="11.164497117064734"><ele>29.0</ele><time>2026-04-06T17:15:13.909Z</time></trkpt><trkpt lat="45.40230396153027" lon="11.164721854212813"><ele>29.333333333333332</ele><time>2026-04-06T17:15:14.909Z</time></trkpt><trkpt lat="45.40223891289236" lon="11.164982310768943"><ele>29.666666666666664</ele><time>2026-04-06T17:15:15.909Z</time></trkpt><trkpt lat="45.40216080834683" lon="11.165212286576077"><ele>30.0</ele><time>2026-04-06T17:15:16.909Z</time></trkpt><trkpt lat="45.40210038798587" lon="11.165431173123073"><ele>30.333333333333336</ele><time>2026-04-06T17:15:17.909Z</time></trkpt><trkpt lat="45.402037561068084" lon="11.165662420492254"><ele>30.666666666666668</ele><time>2026-04-06T17:15:18.909Z</time></trkpt><trkpt lat="45.40196185046895" lon="11.16591034275707"><ele>31.0</ele><time>2026-04-06T17:15:19.909Z</time></trkpt><trkpt lat="45.40185923957702" lon="11.16617518283607"><ele>29.5</ele><time>2026-04-06T17:15:20.909Z</time></trkpt><trkpt lat="45.40173782808329" lon="11.166459326545443"><ele>28.0</ele><time>2026-04-06T17:15:21.909Z</time></trkpt><trkpt lat="45.401601576584135" lon="11.166761912089836"><ele>27.5</ele><time>2026-04-06T17:15:22.909Z</time></trkpt><trkpt lat="45.40144719678369" lon="11.16707956435137"><ele>27.0</ele><time>2026-04-06T17:15:23.909Z</time></trkpt><trkpt lat="45.40127987404712" lon="11.16740825960596"><ele>28.0</ele><time>2026-04-06T17:15:24.909Z</time></trkpt><trkpt lat="45.401097376665746" lon="11.167759376888565"><ele>29.0</ele><time>2026-04-06T17:15:25.909Z</time></trkpt><trkpt lat="45.40090676819447" lon="11.168121723201144"><ele>28.0</ele><time>2026-04-06T17:15:26.909Z</time></trkpt><trkpt lat="45.40071222722149" lon="11.168511544470846"><ele>27.0</ele><time>2026-04-06T17:15:27.909Z</time></trkpt><trkpt lat="45.40051138487231" lon="11.168923468033706"><ele>25.5</ele><time>2026-04-06T17:15:28.909Z</time></trkpt><trkpt lat="45.400304062693884" lon="11.169341684321557"><ele>24.0</ele><time>2026-04-06T17:15:29.909Z</time></trkpt><trkpt lat="45.40010971794878" lon="11.169747524868882"><ele>23.0</ele><time>2026-04-06T17:15:30.909Z</time></trkpt><trkpt lat="45.39991874729827" lon="11.170147167632688"><ele>22.0</ele><time>2026-04-06T17:15:31.909Z</time></trkpt><trkpt lat="45.39974645411344" lon="11.170519911974809"><ele>22.5</ele><time>2026-04-06T17:15:32.909Z</time></trkpt><trkpt lat="45.39958474423891" lon="11.1708621573666"><ele>23.0</ele><time>2026-04-06T17:15:33.909Z</time></trkpt><trkpt lat="45.39942777060933" lon="11.17117985346485"><ele>23.0</ele><time>2026-04-06T17:15:34.909Z</time></trkpt><trkpt lat="45.3992803157122" lon="11.171478612585366"><ele>23.0</ele><time>2026-04-06T17:15:35.909Z</time></trkpt><trkpt lat="45.399139888731895" lon="11.171768791303178"><ele>24.0</ele><time>2026-04-06T17:15:36.909Z</time></trkpt><trkpt lat="45.39900779394104" lon="11.172042952803247"><ele>25.0</ele><time>2026-04-06T17:15:37.909Z</time></trkpt><trkpt lat="45.398880004694426" lon="11.17230677352655"><ele>25.5</ele><time>2026-04-06T17:15:38.909Z</time></trkpt><trkpt lat="45.3987533284699" lon="11.172586052175927"><ele>26.0</ele><time>2026-04-06T17:15:39.909Z</time></trkpt><trkpt lat="45.39862611154064" lon="11.172864923197857"><ele>26.0</ele><time>2026-04-06T17:15:40.909Z</time></trkpt><trkpt lat="45.39850583472254" lon="11.173117869876348"><ele>26.0</ele><time>2026-04-06T17:15:41.909Z</time></trkpt><trkpt lat="45.39839068344898" lon="11.173366341969137"><ele>26.0</ele><time>2026-04-06T17:15:42.909Z</time></trkpt><trkpt lat="45.39827513693216" lon="11.173610179876524"><ele>25.333333333333332</ele><time>2026-04-06T17:15:43.909Z</time></trkpt><trkpt lat="45.398156911384945" lon="11.173849073997516"><ele>24.666666666666664</ele><time>2026-04-06T17:15:44.909Z</time></trkpt><trkpt lat="45.39803304268392" lon="11.17410519301102"><ele>24.0</ele><time>2026-04-06T17:15:45.909Z</time></trkpt><trkpt lat="45.39791270138212" lon="11.174370950584548"><ele>24.0</ele><time>2026-04-06T17:15:46.909Z</time></trkpt><trkpt lat="45.39779159457397" lon="11.174641369580387"><ele>24.0</ele><time>2026-04-06T17:15:47.909Z</time></trkpt><trkpt lat="45.39766621370519" lon="11.174909929169795"><ele>24.333333333333336</ele><time>2026-04-06T17:15:48.909Z</time></trkpt><trkpt lat="45.39754426215757" lon="11.175165610265731"><ele>24.666666666666668</ele><time>2026-04-06T17:15:49.909Z</time></trkpt><trkpt lat="45.397434265678434" lon="11.175397470707304"><ele>25.0</ele><time>2026-04-06T17:15:50.909Z</time></trkpt><trkpt lat="45.39733115451944" lon="11.175609466815539"><ele>25.0</ele><time>2026-04-06T17:15:51.909Z</time></trkpt><trkpt lat="45.39723099147582" lon="11.175808808911263"><ele>25.0</ele><time>2026-04-06T17:15:52.909Z</time></trkpt><trkpt lat="45.397140496447626" lon="11.176007371098928"><ele>25.0</ele><time>2026-04-06T17:15:53.909Z</time></trkpt><trkpt lat="45.39705094120628" lon="11.176203020761491"><ele>24.666666666666668</ele><time>2026-04-06T17:15:54.909Z</time></trkpt><trkpt lat="45.396955161402744" lon="11.176403481395843"><ele>24.333333333333336</ele><time>2026-04-06T17:15:55.909Z</time></trkpt><trkpt lat="45.39685430407638" lon="11.176606756950127"><ele>24.0</ele><time>2026-04-06T17:15:56.909Z</time></trkpt><trkpt lat="45.39675296016018" lon="11.17682243286773"><ele>23.666666666666668</ele><time>2026-04-06T17:15:57.909Z</time></trkpt><trkpt lat="45.39665797551147" lon="11.177032856952499"><ele>23.333333333333336</ele><time>2026-04-06T17:15:58.909Z</time></trkpt><trkpt lat="45.39656158536465" lon="11.177241248644782"><ele>23.0</ele><time>2026-04-06T17:15:59.909Z</time></trkpt><trkpt lat="45.39645838231867" lon="11.17745303438178"><ele>23.0</ele><time>2026-04-06T17:16:00.909Z</time></trkpt><trkpt lat="45.3963531198069" lon="11.17767213138943"><ele>23.0</ele><time>2026-04-06T17:16:01.909Z</time></trkpt><trkpt lat="45.396245609562726" lon="11.177901311067995"><ele>23.0</ele><time>2026-04-06T17:16:02.909Z</time></trkpt><trkpt lat="45.39613943177566" lon="11.178128344778528"><ele>23.333333333333336</ele><time>2026-04-06T17:16:03.909Z</time></trkpt><trkpt lat="45.39603609226877" lon="11.178347717874669"><ele>23.666666666666668</ele><time>2026-04-06T17:16:04.909Z</time></trkpt><trkpt lat="45.39593473746686" lon="11.178564416071033"><ele>24.0</ele><time>2026-04-06T17:16:05.909Z</time></trkpt><trkpt lat="45.39582966725351" lon="11.17878531023217"><ele>24.0</ele><time>2026-04-06T17:16:06.909Z</time></trkpt><trkpt lat="45.39572103556037" lon="11.179014532027153"><ele>24.0</ele><time>2026-04-06T17:16:07.909Z</time></trkpt><trkpt lat="45.39561602299569" lon="11.179232914888392"><ele>24.0</ele><time>2026-04-06T17:16:08.909Z</time></trkpt><trkpt lat="45.395519439898514" lon="11.179442414763233"><ele>23.666666666666668</ele><time>2026-04-06T17:16:09.909Z</time></trkpt><trkpt lat="45.395423095952154" lon="11.179657792517773"><ele>23.333333333333336</ele><time>2026-04-06T17:16:10.909Z</time></trkpt><trkpt lat="45.39533187324037" lon="11.179884827814744"><ele>23.0</ele><time>2026-04-06T17:16:11.909Z</time></trkpt><trkpt lat="45.39525037103746" lon="11.180119644356461"><ele>23.333333333333336</ele><time>2026-04-06T17:16:12.909Z</time></trkpt><trkpt lat="45.39517761006041" lon="11.180350431516885"><ele>23.666666666666668</ele><time>2026-04-06T17:16:13.909Z</time></trkpt><trkpt lat="45.39511124468978" lon="11.180571018194401"><ele>24.0</ele><time>2026-04-06T17:16:14.909Z</time></trkpt><trkpt lat="45.39505221067896" lon="11.180784505409562"><ele>24.0</ele><time>2026-04-06T17:16:15.909Z</time></trkpt><trkpt lat="45.39500111517484" lon="11.180984050523621"><ele>24.0</ele><time>2026-04-06T17:16:16.909Z</time></trkpt><trkpt lat="45.39495582085447" lon="11.181167278667614"><ele>24.0</ele><time>2026-04-06T17:16:17.909Z</time></trkpt><trkpt lat="45.39491396873916" lon="11.181325625517191"><ele>24.0</ele><time>2026-04-06T17:16:18.909Z</time></trkpt><trkpt lat="45.39486522950938" lon="11.181466989661518"><ele>23.799999999999997</ele><time>2026-04-06T17:16:19.909Z</time></trkpt><trkpt lat="45.39479358556463" lon="11.181572058416137"><ele>23.599999999999998</ele><time>2026-04-06T17:16:20.909Z</time></trkpt><trkpt lat="45.394711085177185" lon="11.181648403058153"><ele>23.4</ele><time>2026-04-06T17:16:21.909Z</time></trkpt><trkpt lat="45.3946110341326" lon="11.181720692050353"><ele>23.2</ele><time>2026-04-06T17:16:22.909Z</time></trkpt><trkpt lat="45.39453176969989" lon="11.181823252503634"><ele>23.0</ele><time>2026-04-06T17:16:23.909Z</time></trkpt><trkpt lat="45.39448862261707" lon="11.181962851469848"><ele>23.0</ele><time>2026-04-06T17:16:24.909Z</time></trkpt><trkpt lat="45.39447482224318" lon="11.18212277363067"><ele>23.0</ele><time>2026-04-06T17:16:25.909Z</time></trkpt><trkpt lat="45.39450276436523" lon="11.18227792480269"><ele>23.0</ele><time>2026-04-06T17:16:26.909Z</time></trkpt><trkpt lat="45.394558852201676" lon="11.182420236312788"><ele>23.0</ele><time>2026-04-06T17:16:27.909Z</time></trkpt><trkpt lat="45.394642360590076" lon="11.182524155428792"><ele>23.0</ele><time>2026-04-06T17:16:28.909Z</time></trkpt><trkpt lat="45.394709921129476" lon="11.182639840735925"><ele>23.0</ele><time>2026-04-06T17:16:29.909Z</time></trkpt><trkpt lat="45.39471566297162" lon="11.182801109502398"><ele>23.0</ele><time>2026-04-06T17:16:30.909Z</time></trkpt><trkpt lat="45.394692716650546" lon="11.183005509130243"><ele>23.0</ele><time>2026-04-06T17:16:31.909Z</time></trkpt><trkpt lat="45.39466748343663" lon="11.183225917990015"><ele>22.666666666666668</ele><time>2026-04-06T17:16:32.909Z</time></trkpt><trkpt lat="45.39465595251306" lon="11.183478804700542"><ele>22.333333333333332</ele><time>2026-04-06T17:16:33.909Z</time></trkpt><trkpt lat="45.394651990307445" lon="11.183749059193701"><ele>22.0</ele><time>2026-04-06T17:16:34.909Z</time></trkpt><trkpt lat="45.394647199926695" lon="11.18406401002181"><ele>22.0</ele><time>2026-04-06T17:16:35.909Z</time></trkpt><trkpt lat="45.39463798455115" lon="11.184440430781047"><ele>22.0</ele><time>2026-04-06T17:16:36.909Z</time></trkpt><trkpt lat="45.39462567748438" lon="11.184859612699144"><ele>22.5</ele><time>2026-04-06T17:16:37.909Z</time></trkpt><trkpt lat="45.39460724625484" lon="11.185301684175307"><ele>23.0</ele><time>2026-04-06T17:16:38.909Z</time></trkpt><trkpt lat="45.39458053434366" lon="11.185746256419183"><ele>22.0</ele><time>2026-04-06T17:16:39.909Z</time></trkpt><trkpt lat="45.39456393808386" lon="11.186226660107453"><ele>21.0</ele><time>2026-04-06T17:16:40.909Z</time></trkpt><trkpt lat="45.39455181021136" lon="11.186729600228524"><ele>21.0</ele><time>2026-04-06T17:16:41.909Z</time></trkpt><trkpt lat="45.39453606228136" lon="11.187215621790081"><ele>21.0</ele><time>2026-04-06T17:16:42.909Z</time></trkpt><trkpt lat="45.39450772109707" lon="11.1876788841192"><ele>22.0</ele><time>2026-04-06T17:16:43.909Z</time></trkpt><trkpt lat="45.39447422812381" lon="11.188149885213805"><ele>23.0</ele><time>2026-04-06T17:16:44.909Z</time></trkpt><trkpt lat="45.39443654195905" lon="11.188640008902562"><ele>22.5</ele><time>2026-04-06T17:16:45.909Z</time></trkpt><trkpt lat="45.39439278060469" lon="11.189140683133513"><ele>22.0</ele><time>2026-04-06T17:16:46.909Z</time></trkpt><trkpt lat="45.39434146441976" lon="11.189607283213967"><ele>22.0</ele><time>2026-04-06T17:16:47.909Z</time></trkpt><trkpt lat="45.394286637434966" lon="11.190042475573504"><ele>22.0</ele><time>2026-04-06T17:16:48.909Z</time></trkpt><trkpt lat="45.394231241876874" lon="11.190475331586123"><ele>22.0</ele><time>2026-04-06T17:16:49.909Z</time></trkpt><trkpt lat="45.39417424412401" lon="11.190904642704238"><ele>22.0</ele><time>2026-04-06T17:16:50.909Z</time></trkpt><trkpt lat="45.39411515035866" lon="11.191334122203083"><ele>22.5</ele><time>2026-04-06T17:16:51.909Z</time></trkpt><trkpt lat="45.39405768272527" lon="11.19176108337491"><ele>23.0</ele><time>2026-04-06T17:16:52.909Z</time></trkpt><trkpt lat="45.394001202677565" lon="11.192193830505161"><ele>22.5</ele><time>2026-04-06T17:16:53.909Z</time></trkpt><trkpt lat="45.39394960701135" lon="11.192622484242483"><ele>22.0</ele><time>2026-04-06T17:16:54.909Z</time></trkpt><trkpt lat="45.393896163216816" lon="11.193016248545517"><ele>22.0</ele><time>2026-04-06T17:16:55.909Z</time></trkpt><trkpt lat="45.393843501187504" lon="11.193391758528286"><ele>22.0</ele><time>2026-04-06T17:16:56.909Z</time></trkpt><trkpt lat="45.39379211272711" lon="11.193744436128878"><ele>22.0</ele><time>2026-04-06T17:16:57.909Z</time></trkpt><trkpt lat="45.39374127745443" lon="11.194106352549102"><ele>22.0</ele><time>2026-04-06T17:16:58.909Z</time></trkpt><trkpt lat="45.393686855859606" lon="11.1944678933829"><ele>22.0</ele><time>2026-04-06T17:16:59.909Z</time></trkpt><trkpt lat="45.39362644891158" lon="11.19482654154754"><ele>22.0</ele><time>2026-04-06T17:17:00.909Z</time></trkpt><trkpt lat="45.393571850402324" lon="11.195185775989184"><ele>22.5</ele><time>2026-04-06T17:17:01.909Z</time></trkpt><trkpt lat="45.393510727376906" lon="11.195548674636667"><ele>23.0</ele><time>2026-04-06T17:17:02.909Z</time></trkpt><trkpt lat="45.39345509616523" lon="11.195874381565188"><ele>22.333333333333336</ele><time>2026-04-06T17:17:03.909Z</time></trkpt><trkpt lat="45.39340752436829" lon="11.196166505568137"><ele>21.666666666666668</ele><time>2026-04-06T17:17:04.909Z</time></trkpt><trkpt lat="45.39336451124264" lon="11.196429080370049"><ele>21.0</ele><time>2026-04-06T17:17:05.909Z</time></trkpt><trkpt lat="45.39332825816893" lon="11.196663302631068"><ele>21.0</ele><time>2026-04-06T17:17:06.909Z</time></trkpt><trkpt lat="45.393296160858355" lon="11.196862420646706"><ele>21.0</ele><time>2026-04-06T17:17:07.909Z</time></trkpt><trkpt lat="45.393250864993284" lon="11.197039764893304"><ele>21.0</ele><time>2026-04-06T17:17:08.909Z</time></trkpt><trkpt lat="45.39317591057167" lon="11.197180957089245"><ele>21.0</ele><time>2026-04-06T17:17:09.909Z</time></trkpt><trkpt lat="45.39307315810154" lon="11.197289008280096"><ele>21.0</ele><time>2026-04-06T17:17:10.909Z</time></trkpt><trkpt lat="45.39297023030904" lon="11.197395804456908"><ele>21.0</ele><time>2026-04-06T17:17:11.909Z</time></trkpt><trkpt lat="45.39292249914645" lon="11.197542703761455"><ele>21.0</ele><time>2026-04-06T17:17:12.909Z</time></trkpt><trkpt lat="45.39290442023049" lon="11.197706322605656"><ele>21.0</ele><time>2026-04-06T17:17:13.909Z</time></trkpt><trkpt lat="45.39293199736442" lon="11.197863622738367"><ele>21.0</ele><time>2026-04-06T17:17:14.909Z</time></trkpt><trkpt lat="45.39299767983922" lon="11.198017090527443"><ele>21.0</ele><time>2026-04-06T17:17:15.909Z</time></trkpt><trkpt lat="45.39305801961775" lon="11.198147917733671"><ele>21.0</ele><time>2026-04-06T17:17:16.909Z</time></trkpt><trkpt lat="45.39307298033934" lon="11.198308761471528"><ele>21.0</ele><time>2026-04-06T17:17:17.909Z</time></trkpt><trkpt lat="45.39305665997946" lon="11.198524931956639"><ele>21.0</ele><time>2026-04-06T17:17:18.909Z</time></trkpt><trkpt lat="45.393009268996124" lon="11.198754811627087"><ele>21.0</ele><time>2026-04-06T17:17:19.909Z</time></trkpt><trkpt lat="45.3929796469751" lon="11.198997065427102"><ele>21.0</ele><time>2026-04-06T17:17:20.909Z</time></trkpt><trkpt lat="45.39296329961616" lon="11.199257793220033"><ele>21.666666666666668</ele><time>2026-04-06T17:17:21.909Z</time></trkpt><trkpt lat="45.392958152603555" lon="11.199534876211807"><ele>22.333333333333336</ele><time>2026-04-06T17:17:22.909Z</time></trkpt><trkpt lat="45.392960274889134" lon="11.199821524955428"><ele>23.0</ele><time>2026-04-06T17:17:23.909Z</time></trkpt><trkpt lat="45.39295058105569" lon="11.200121003852203"><ele>23.0</ele><time>2026-04-06T17:17:24.909Z</time></trkpt><trkpt lat="45.392781466100054" lon="11.200181768173199"><ele>23.0</ele><time>2026-04-06T17:17:25.909Z</time></trkpt><trkpt lat="45.392731552738304" lon="11.200465363684781"><ele>23.0</ele><time>2026-04-06T17:17:26.909Z</time></trkpt><trkpt lat="45.392680022190454" lon="11.200771624534756"><ele>21.5</ele><time>2026-04-06T17:17:27.909Z</time></trkpt><trkpt lat="45.39262319188646" lon="11.201100031919776"><ele>20.0</ele><time>2026-04-06T17:17:28.909Z</time></trkpt><trkpt lat="45.39256750832357" lon="11.201461869440056"><ele>20.0</ele><time>2026-04-06T17:17:29.909Z</time></trkpt><trkpt lat="45.39250687369035" lon="11.201859858563918"><ele>20.0</ele><time>2026-04-06T17:17:30.909Z</time></trkpt><trkpt lat="45.39243521601269" lon="11.20227992615334"><ele>20.5</ele><time>2026-04-06T17:17:31.909Z</time></trkpt><trkpt lat="45.39236011795668" lon="11.20273764805824"><ele>21.0</ele><time>2026-04-06T17:17:32.909Z</time></trkpt><trkpt lat="45.39229288854772" lon="11.203189770897442"><ele>21.0</ele><time>2026-04-06T17:17:33.909Z</time></trkpt><trkpt lat="45.39222369737545" lon="11.203616444372235"><ele>21.0</ele><time>2026-04-06T17:17:34.909Z</time></trkpt><trkpt lat="45.39216146053158" lon="11.204059831724853"><ele>21.5</ele><time>2026-04-06T17:17:35.909Z</time></trkpt><trkpt lat="45.39210522868498" lon="11.204511437054057"><ele>22.0</ele><time>2026-04-06T17:17:36.909Z</time></trkpt><trkpt lat="45.392042563267026" lon="11.204958341212873"><ele>22.0</ele><time>2026-04-06T17:17:37.909Z</time></trkpt><trkpt lat="45.39197872006407" lon="11.205414039662328"><ele>22.0</ele><time>2026-04-06T17:17:38.909Z</time></trkpt><trkpt lat="45.391922079538226" lon="11.205819655625074"><ele>22.0</ele><time>2026-04-06T17:17:39.909Z</time></trkpt><trkpt lat="45.39186443467979" lon="11.206204218781743"><ele>22.0</ele><time>2026-04-06T17:17:40.909Z</time></trkpt><trkpt lat="45.39181025137792" lon="11.20657366912147"><ele>22.0</ele><time>2026-04-06T17:17:41.909Z</time></trkpt><trkpt lat="45.39175495396979" lon="11.206946182881135"><ele>22.0</ele><time>2026-04-06T17:17:42.909Z</time></trkpt><trkpt lat="45.391690431921724" lon="11.207320203964672"><ele>21.5</ele><time>2026-04-06T17:17:43.909Z</time></trkpt><trkpt lat="45.39160899238256" lon="11.207697777448557"><ele>21.0</ele><time>2026-04-06T17:17:44.909Z</time></trkpt><trkpt lat="45.39152106453312" lon="11.208075745673325"><ele>21.5</ele><time>2026-04-06T17:17:45.909Z</time></trkpt><trkpt lat="45.39142679567056" lon="11.208458400899758"><ele>22.0</ele><time>2026-04-06T17:17:46.909Z</time></trkpt><trkpt lat="45.391328020079975" lon="11.208841621593274"><ele>22.0</ele><time>2026-04-06T17:17:47.909Z</time></trkpt><trkpt lat="45.391231822854316" lon="11.20922559972552"><ele>22.0</ele><time>2026-04-06T17:17:48.909Z</time></trkpt><trkpt lat="45.391158549075065" lon="11.209584084034507"><ele>22.0</ele><time>2026-04-06T17:17:49.909Z</time></trkpt><trkpt lat="45.39110329849727" lon="11.209919949931077"><ele>22.0</ele><time>2026-04-06T17:17:50.909Z</time></trkpt><trkpt lat="45.39106167338945" lon="11.210236259691166"><ele>22.0</ele><time>2026-04-06T17:17:51.909Z</time></trkpt><trkpt lat="45.3910356405874" lon="11.210537045674938"><ele>22.0</ele><time>2026-04-06T17:17:52.909Z</time></trkpt><trkpt lat="45.391014712618635" lon="11.210813230374391"><ele>22.0</ele><time>2026-04-06T17:17:53.909Z</time></trkpt><trkpt lat="45.391003331686875" lon="11.211073348607933"><ele>22.25</ele><time>2026-04-06T17:17:54.909Z</time></trkpt><trkpt lat="45.390996219039934" lon="11.211307942731723"><ele>22.5</ele><time>2026-04-06T17:17:55.909Z</time></trkpt><trkpt lat="45.3909962248245" lon="11.21151079482365"><ele>22.75</ele><time>2026-04-06T17:17:56.909Z</time></trkpt><trkpt lat="45.39100573933611" lon="11.211685720142286"><ele>23.0</ele><time>2026-04-06T17:17:57.909Z</time></trkpt><trkpt lat="45.39100743069989" lon="11.211822394652788"><ele>23.0</ele><time>2026-04-06T17:17:58.909Z</time></trkpt><trkpt lat="45.3909750482754" lon="11.211932793880138"><ele>23.0</ele><time>2026-04-06T17:17:59.909Z</time></trkpt><trkpt lat="45.39091613703576" lon="11.212018952538935"><ele>23.0</ele><time>2026-04-06T17:18:00.909Z</time></trkpt><trkpt lat="45.39084286135755" lon="11.212084298360809"><ele>23.0</ele><time>2026-04-06T17:18:01.909Z</time></trkpt><trkpt lat="45.39078336567655" lon="11.212181827331653"><ele>23.0</ele><time>2026-04-06T17:18:02.909Z</time></trkpt><trkpt lat="45.3907571277809" lon="11.212331194330925"><ele>22.799999999999997</ele><time>2026-04-06T17:18:03.909Z</time></trkpt><trkpt lat="45.39076849259449" lon="11.212476937753774"><ele>22.6</ele><time>2026-04-06T17:18:04.909Z</time></trkpt><trkpt lat="45.3908068028345" lon="11.21261201494589"><ele>22.4</ele><time>2026-04-06T17:18:05.909Z</time></trkpt><trkpt lat="45.39086817013457" lon="11.212724885085546"><ele>22.200000000000003</ele><time>2026-04-06T17:18:06.909Z</time></trkpt><trkpt lat="45.39096514962755" lon="11.212824700971527"><ele>22.0</ele><time>2026-04-06T17:18:07.909Z</time></trkpt><trkpt lat="45.391070257589455" lon="11.212901160526751"><ele>22.0</ele><time>2026-04-06T17:18:08.909Z</time></trkpt><trkpt lat="45.39117256498836" lon="11.212918183433992"><ele>22.0</ele><time>2026-04-06T17:18:09.909Z</time></trkpt><trkpt lat="45.39121416583783" lon="11.21320344463391"><ele>22.0</ele><time>2026-04-06T17:18:10.909Z</time></trkpt><trkpt lat="45.39125733344153" lon="11.213448392012129"><ele>22.0</ele><time>2026-04-06T17:18:11.909Z</time></trkpt><trkpt lat="45.39129509860963" lon="11.213703807166675"><ele>22.0</ele><time>2026-04-06T17:18:12.909Z</time></trkpt><trkpt lat="45.391328234194255" lon="11.213937251057033"><ele>22.0</ele><time>2026-04-06T17:18:13.909Z</time></trkpt><trkpt lat="45.39136451880748" lon="11.214178908515327"><ele>22.0</ele><time>2026-04-06T17:18:14.909Z</time></trkpt><trkpt lat="45.3914065679953" lon="11.214426259967855"><ele>22.0</ele><time>2026-04-06T17:18:15.909Z</time></trkpt><trkpt lat="45.39145256118133" lon="11.214688056383235"><ele>22.0</ele><time>2026-04-06T17:18:16.909Z</time></trkpt><trkpt lat="45.391496639421156" lon="11.214970833427097"><ele>21.5</ele><time>2026-04-06T17:18:17.909Z</time></trkpt><trkpt lat="45.39153410159966" lon="11.21528387550048"><ele>21.0</ele><time>2026-04-06T17:18:18.909Z</time></trkpt><trkpt lat="45.391557223550706" lon="11.215627911040757"><ele>21.5</ele><time>2026-04-06T17:18:19.909Z</time></trkpt><trkpt lat="45.391567009579816" lon="11.216007582441408"><ele>22.0</ele><time>2026-04-06T17:18:20.909Z</time></trkpt><trkpt lat="45.39155853848801" lon="11.216418289361565"><ele>22.0</ele><time>2026-04-06T17:18:21.909Z</time></trkpt><trkpt lat="45.39153262405779" lon="11.216858113332185"><ele>22.0</ele><time>2026-04-06T17:18:22.909Z</time></trkpt><trkpt lat="45.391493326133514" lon="11.217314868220077"><ele>21.5</ele><time>2026-04-06T17:18:23.909Z</time></trkpt><trkpt lat="45.3914416483776" lon="11.217726581291169"><ele>21.0</ele><time>2026-04-06T17:18:24.909Z</time></trkpt><trkpt lat="45.39138493052235" lon="11.218116172962059"><ele>20.5</ele><time>2026-04-06T17:18:25.909Z</time></trkpt><trkpt lat="45.39133964162404" lon="11.218511114408273"><ele>20.0</ele><time>2026-04-06T17:18:26.909Z</time></trkpt><trkpt lat="45.39129882887921" lon="11.218911986404805"><ele>21.0</ele><time>2026-04-06T17:18:27.909Z</time></trkpt><trkpt lat="45.39125512963675" lon="11.219331115302174"><ele>22.0</ele><time>2026-04-06T17:18:28.909Z</time></trkpt><trkpt lat="45.39120498028594" lon="11.219781679966976"><ele>22.0</ele><time>2026-04-06T17:18:29.909Z</time></trkpt><trkpt lat="45.391152497114" lon="11.220253587166363"><ele>22.0</ele><time>2026-04-06T17:18:30.909Z</time></trkpt><trkpt lat="45.39110785011037" lon="11.220708305615405"><ele>21.5</ele><time>2026-04-06T17:18:31.909Z</time></trkpt><trkpt lat="45.39106304202477" lon="11.22111393540499"><ele>21.0</ele><time>2026-04-06T17:18:32.909Z</time></trkpt><trkpt lat="45.391016896530246" lon="11.22150074949327"><ele>20.5</ele><time>2026-04-06T17:18:33.909Z</time></trkpt><trkpt lat="45.39097219320286" lon="11.221886242925748"><ele>20.0</ele><time>2026-04-06T17:18:34.909Z</time></trkpt><trkpt lat="45.390929855787924" lon="11.222280900896616"><ele>20.0</ele><time>2026-04-06T17:18:35.909Z</time></trkpt><trkpt lat="45.39089021173149" lon="11.22267867911805"><ele>20.0</ele><time>2026-04-06T17:18:36.909Z</time></trkpt><trkpt lat="45.390849261137454" lon="11.223076764617804"><ele>20.0</ele><time>2026-04-06T17:18:37.909Z</time></trkpt><trkpt lat="45.39080562303507" lon="11.223479696941135"><ele>20.0</ele><time>2026-04-06T17:18:38.909Z</time></trkpt><trkpt lat="45.39076555746532" lon="11.22388393329569"><ele>19.5</ele><time>2026-04-06T17:18:39.909Z</time></trkpt><trkpt lat="45.39072568632209" lon="11.224290191298639"><ele>19.0</ele><time>2026-04-06T17:18:40.909Z</time></trkpt><trkpt lat="45.39068569887508" lon="11.22469731002987"><ele>19.0</ele><time>2026-04-06T17:18:41.909Z</time></trkpt><trkpt lat="45.39064557711084" lon="11.225106418634997"><ele>19.0</ele><time>2026-04-06T17:18:42.909Z</time></trkpt><trkpt lat="45.39060850952615" lon="11.225519562046305"><ele>19.5</ele><time>2026-04-06T17:18:43.909Z</time></trkpt><trkpt lat="45.390570883409616" lon="11.225923312306952"><ele>20.0</ele><time>2026-04-06T17:18:44.909Z</time></trkpt><trkpt lat="45.3905335501119" lon="11.22631180949597"><ele>20.0</ele><time>2026-04-06T17:18:45.909Z</time></trkpt><trkpt lat="45.39050077051064" lon="11.22668097311362"><ele>20.0</ele><time>2026-04-06T17:18:46.909Z</time></trkpt><trkpt lat="45.39046578040884" lon="11.227047963393652"><ele>20.0</ele><time>2026-04-06T17:18:47.909Z</time></trkpt><trkpt lat="45.390428131216865" lon="11.227416102878932"><ele>20.0</ele><time>2026-04-06T17:18:48.909Z</time></trkpt><trkpt lat="45.39039076880888" lon="11.227788114281408"><ele>20.5</ele><time>2026-04-06T17:18:49.909Z</time></trkpt><trkpt lat="45.39035472294962" lon="11.228160394912454"><ele>21.0</ele><time>2026-04-06T17:18:50.909Z</time></trkpt><trkpt lat="45.3903213609208" lon="11.228528945509703"><ele>21.0</ele><time>2026-04-06T17:18:51.909Z</time></trkpt><trkpt lat="45.3902868428302" lon="11.228887083932634"><ele>21.0</ele><time>2026-04-06T17:18:52.909Z</time></trkpt><trkpt lat="45.39025167725342" lon="11.22924010894021"><ele>20.5</ele><time>2026-04-06T17:18:53.909Z</time></trkpt><trkpt lat="45.390216879995286" lon="11.229608129320994"><ele>20.0</ele><time>2026-04-06T17:18:54.909Z</time></trkpt><trkpt lat="45.39018500353139" lon="11.229987895447838"><ele>20.0</ele><time>2026-04-06T17:18:55.909Z</time></trkpt><trkpt lat="45.390151204318144" lon="11.230366689943269"><ele>20.0</ele><time>2026-04-06T17:18:56.909Z</time></trkpt><trkpt lat="45.390115583293046" lon="11.230724607020138"><ele>20.5</ele><time>2026-04-06T17:18:57.909Z</time></trkpt><trkpt lat="45.39008199139871" lon="11.231074705145883"><ele>21.0</ele><time>2026-04-06T17:18:58.909Z</time></trkpt><trkpt lat="45.3900509239562" lon="11.231428112875374"><ele>21.0</ele><time>2026-04-06T17:18:59.909Z</time></trkpt><trkpt lat="45.39002076828476" lon="11.23177106833597"><ele>21.0</ele><time>2026-04-06T17:19:00.909Z</time></trkpt><trkpt lat="45.38998640408999" lon="11.232107960091732"><ele>20.5</ele><time>2026-04-06T17:19:01.909Z</time></trkpt><trkpt lat="45.389938372896644" lon="11.232450602516149"><ele>20.0</ele><time>2026-04-06T17:19:02.909Z</time></trkpt><trkpt lat="45.389879601028014" lon="11.232809623616928"><ele>19.5</ele><time>2026-04-06T17:19:03.909Z</time></trkpt><trkpt lat="45.38980427990462" lon="11.233171687837588"><ele>19.0</ele><time>2026-04-06T17:19:04.909Z</time></trkpt><trkpt lat="45.38971360664672" lon="11.233542666783295"><ele>20.0</ele><time>2026-04-06T17:19:05.909Z</time></trkpt><trkpt lat="45.38959935503712" lon="11.233918037597373"><ele>21.0</ele><time>2026-04-06T17:19:06.909Z</time></trkpt><trkpt lat="45.38946780759131" lon="11.234297673298686"><ele>21.0</ele><time>2026-04-06T17:19:07.909Z</time></trkpt><trkpt lat="45.38932636256765" lon="11.234686402207736"><ele>21.0</ele><time>2026-04-06T17:19:08.909Z</time></trkpt><trkpt lat="45.38917738810372" lon="11.23506920556805"><ele>21.0</ele><time>2026-04-06T17:19:09.909Z</time></trkpt><trkpt lat="45.38903502753644" lon="11.235411719419371"><ele>21.0</ele><time>2026-04-06T17:19:10.909Z</time></trkpt><trkpt lat="45.38891244535043" lon="11.235740143497077"><ele>21.0</ele><time>2026-04-06T17:19:11.909Z</time></trkpt><trkpt lat="45.38881032469744" lon="11.236077500873225"><ele>21.0</ele><time>2026-04-06T17:19:12.909Z</time></trkpt><trkpt lat="45.38871748727699" lon="11.236423659573326"><ele>21.0</ele><time>2026-04-06T17:19:13.909Z</time></trkpt><trkpt lat="45.388635158557236" lon="11.236781569206972"><ele>21.0</ele><time>2026-04-06T17:19:14.909Z</time></trkpt><trkpt lat="45.38856925786382" lon="11.237159204371173"><ele>21.5</ele><time>2026-04-06T17:19:15.909Z</time></trkpt><trkpt lat="45.38851285802018" lon="11.237543477349137"><ele>22.0</ele><time>2026-04-06T17:19:16.909Z</time></trkpt><trkpt lat="45.38846630958017" lon="11.237928273338548"><ele>22.0</ele><time>2026-04-06T17:19:17.909Z</time></trkpt><trkpt lat="45.38843150396263" lon="11.238298692799267"><ele>22.0</ele><time>2026-04-06T17:19:18.909Z</time></trkpt><trkpt lat="45.388411938968396" lon="11.238660807728287"><ele>22.0</ele><time>2026-04-06T17:19:19.909Z</time></trkpt><trkpt lat="45.38839951137595" lon="11.239032091197828"><ele>22.0</ele><time>2026-04-06T17:19:20.909Z</time></trkpt><trkpt lat="45.388390670403886" lon="11.239408101058688"><ele>22.0</ele><time>2026-04-06T17:19:21.909Z</time></trkpt><trkpt lat="45.38838671609704" lon="11.239787475924123"><ele>22.0</ele><time>2026-04-06T17:19:22.909Z</time></trkpt><trkpt lat="45.3883792858051" lon="11.240173183782616"><ele>21.5</ele><time>2026-04-06T17:19:23.909Z</time></trkpt><trkpt lat="45.38836754843384" lon="11.24055683767714"><ele>21.0</ele><time>2026-04-06T17:19:24.909Z</time></trkpt><trkpt lat="45.38835952966171" lon="11.240933940976335"><ele>20.5</ele><time>2026-04-06T17:19:25.909Z</time></trkpt><trkpt lat="45.38835103480073" lon="11.241305166811294"><ele>20.0</ele><time>2026-04-06T17:19:26.909Z</time></trkpt><trkpt lat="45.38834330116101" lon="11.241673643424571"><ele>20.0</ele><time>2026-04-06T17:19:27.909Z</time></trkpt><trkpt lat="45.38833597472671" lon="11.242038199049684"><ele>20.0</ele><time>2026-04-06T17:19:28.909Z</time></trkpt><trkpt lat="45.38833001119823" lon="11.242399077753326"><ele>20.0</ele><time>2026-04-06T17:19:29.909Z</time></trkpt><trkpt lat="45.38832168725185" lon="11.242755636324251"><ele>20.0</ele><time>2026-04-06T17:19:30.909Z</time></trkpt><trkpt lat="45.388311813956676" lon="11.243090976645606"><ele>20.0</ele><time>2026-04-06T17:19:31.909Z</time></trkpt><trkpt lat="45.38830162345843" lon="11.24341245163285"><ele>20.0</ele><time>2026-04-06T17:19:32.909Z</time></trkpt><trkpt lat="45.38829633847433" lon="11.243712353216885"><ele>20.0</ele><time>2026-04-06T17:19:33.909Z</time></trkpt><trkpt lat="45.388288386445524" lon="11.24399024652898"><ele>19.666666666666668</ele><time>2026-04-06T17:19:34.909Z</time></trkpt><trkpt lat="45.38828057645738" lon="11.244256224975002"><ele>19.333333333333332</ele><time>2026-04-06T17:19:35.909Z</time></trkpt><trkpt lat="45.3882783405643" lon="11.244509428016174"><ele>19.0</ele><time>2026-04-06T17:19:36.909Z</time></trkpt><trkpt lat="45.38827319367405" lon="11.244743279324961"><ele>19.25</ele><time>2026-04-06T17:19:37.909Z</time></trkpt><trkpt lat="45.38826310675966" lon="11.244961903442569"><ele>19.5</ele><time>2026-04-06T17:19:38.909Z</time></trkpt><trkpt lat="45.38825353103009" lon="11.24513931622084"><ele>19.75</ele><time>2026-04-06T17:19:39.909Z</time></trkpt><trkpt lat="45.3882381030277" lon="11.245293187526029"><ele>20.0</ele><time>2026-04-06T17:19:40.909Z</time></trkpt><trkpt lat="45.38820789646686" lon="11.24540930741242"><ele>20.0</ele><time>2026-04-06T17:19:41.909Z</time></trkpt><trkpt lat="45.388176679285515" lon="11.245489033113047"><ele>20.0</ele><time>2026-04-06T17:19:42.909Z</time></trkpt><trkpt lat="45.38811006154312" lon="11.245632875463127"><ele>20.0</ele><time>2026-04-06T17:19:44.909Z</time></trkpt><trkpt lat="45.38805407290044" lon="11.24573190189373"><ele>20.0</ele><time>2026-04-06T17:19:45.909Z</time></trkpt><trkpt lat="45.3879853292037" lon="11.245817514086337"><ele>20.0</ele><time>2026-04-06T17:19:46.909Z</time></trkpt><trkpt lat="45.387925581149574" lon="11.245891250789624"><ele>20.0</ele><time>2026-04-06T17:19:47.909Z</time></trkpt><trkpt lat="45.38788964190867" lon="11.24599009416626"><ele>20.0</ele><time>2026-04-06T17:19:48.909Z</time></trkpt><trkpt lat="45.38787291656791" lon="11.246105170740476"><ele>20.0</ele><time>2026-04-06T17:19:49.909Z</time></trkpt><trkpt lat="45.38786872258984" lon="11.24622932797731"><ele>20.0</ele><time>2026-04-06T17:19:50.909Z</time></trkpt><trkpt lat="45.38789141313286" lon="11.246375051233198"><ele>20.0</ele><time>2026-04-06T17:19:51.909Z</time></trkpt><trkpt lat="45.38794615939699" lon="11.246540116216298"><ele>20.0</ele><time>2026-04-06T17:19:52.909Z</time></trkpt><trkpt lat="45.38802284095865" lon="11.246656835293479"><ele>20.25</ele><time>2026-04-06T17:19:53.909Z</time></trkpt><trkpt lat="45.38813790999768" lon="11.246742310144105"><ele>20.5</ele><time>2026-04-06T17:19:54.909Z</time></trkpt><trkpt lat="45.38826919421726" lon="11.24677713978217"><ele>20.75</ele><time>2026-04-06T17:19:55.909Z</time></trkpt><trkpt lat="45.388404822119895" lon="11.246747878196409"><ele>21.0</ele><time>2026-04-06T17:19:56.909Z</time></trkpt><trkpt lat="45.38855459918584" lon="11.246666370509763"><ele>21.0</ele><time>2026-04-06T17:19:57.909Z</time></trkpt><trkpt lat="45.388693355376816" lon="11.246551299480577"><ele>21.0</ele><time>2026-04-06T17:19:58.909Z</time></trkpt><trkpt lat="45.388826156186276" lon="11.246481975155733"><ele>21.0</ele><time>2026-04-06T17:19:59.909Z</time></trkpt><trkpt lat="45.38897566001908" lon="11.246482863791133"><ele>21.333333333333332</ele><time>2026-04-06T17:20:00.909Z</time></trkpt><trkpt lat="45.3891556746798" lon="11.246504294919152"><ele>21.666666666666664</ele><time>2026-04-06T17:20:01.909Z</time></trkpt><trkpt lat="45.389365001458984" lon="11.246553523002898"><ele>22.0</ele><time>2026-04-06T17:20:02.909Z</time></trkpt><trkpt lat="45.389585149011445" lon="11.246603847761875"><ele>22.0</ele><time>2026-04-06T17:20:03.909Z</time></trkpt><trkpt lat="45.38981080778062" lon="11.24666537040738"><ele>22.0</ele><time>2026-04-06T17:20:04.909Z</time></trkpt><trkpt lat="45.39003076240886" lon="11.246709534194279"><ele>22.0</ele><time>2026-04-06T17:20:05.909Z</time></trkpt><trkpt lat="45.39023561463306" lon="11.24674735511814"><ele>22.0</ele><time>2026-04-06T17:20:06.909Z</time></trkpt><trkpt lat="45.390428381362746" lon="11.246792434873333"><ele>22.0</ele><time>2026-04-06T17:20:07.909Z</time></trkpt><trkpt lat="45.39062359660298" lon="11.246835835220583"><ele>21.666666666666664</ele><time>2026-04-06T17:20:08.909Z</time></trkpt><trkpt lat="45.39082427434272" lon="11.246871855673382"><ele>21.333333333333332</ele><time>2026-04-06T17:20:09.909Z</time></trkpt><trkpt lat="45.39102975609554" lon="11.246908565721329"><ele>21.0</ele><time>2026-04-06T17:20:10.909Z</time></trkpt><trkpt lat="45.39123800517453" lon="11.246947396457607"><ele>20.666666666666668</ele><time>2026-04-06T17:20:11.909Z</time></trkpt><trkpt lat="45.39143007941279" lon="11.246983871743184"><ele>20.333333333333336</ele><time>2026-04-06T17:20:12.909Z</time></trkpt><trkpt lat="45.391610446134685" lon="11.24702369029034"><ele>20.0</ele><time>2026-04-06T17:20:13.909Z</time></trkpt><trkpt lat="45.39178384798125" lon="11.247063888774683"><ele>20.0</ele><time>2026-04-06T17:20:14.909Z</time></trkpt><trkpt lat="45.39196038460088" lon="11.24709840293389"><ele>20.0</ele><time>2026-04-06T17:20:15.909Z</time></trkpt><trkpt lat="45.392143062989604" lon="11.247130258063645"><ele>20.0</ele><time>2026-04-06T17:20:16.909Z</time></trkpt><trkpt lat="45.392320659859394" lon="11.24716684261753"><ele>21.0</ele><time>2026-04-06T17:20:17.909Z</time></trkpt><trkpt lat="45.392503517787056" lon="11.247203047174274"><ele>22.0</ele><time>2026-04-06T17:20:18.909Z</time></trkpt><trkpt lat="45.3926845698449" lon="11.247237766219337"><ele>23.0</ele><time>2026-04-06T17:20:19.909Z</time></trkpt><trkpt lat="45.39287414249352" lon="11.247269375137693"><ele>22.0</ele><time>2026-04-06T17:20:20.909Z</time></trkpt><trkpt lat="45.3930589280688" lon="11.247298994185451"><ele>21.0</ele><time>2026-04-06T17:20:21.909Z</time></trkpt><trkpt lat="45.39325449701841" lon="11.247335920383795"><ele>20.0</ele><time>2026-04-06T17:20:22.909Z</time></trkpt><trkpt lat="45.39347306800682" lon="11.247379880326548"><ele>20.0</ele><time>2026-04-06T17:20:23.909Z</time></trkpt><trkpt lat="45.393711657289124" lon="11.24744487889372"><ele>20.0</ele><time>2026-04-06T17:20:24.909Z</time></trkpt><trkpt lat="45.39397154550724" lon="11.247495774389035"><ele>20.5</ele><time>2026-04-06T17:20:25.909Z</time></trkpt><trkpt lat="45.3942500545219" lon="11.247550316508272"><ele>21.0</ele><time>2026-04-06T17:20:26.909Z</time></trkpt><trkpt lat="45.394542511769565" lon="11.247606379669708"><ele>21.5</ele><time>2026-04-06T17:20:27.909Z</time></trkpt><trkpt lat="45.39481551605143" lon="11.247640457340097"><ele>22.0</ele><time>2026-04-06T17:20:28.909Z</time></trkpt><trkpt lat="45.395069550957736" lon="11.247683005570956"><ele>22.0</ele><time>2026-04-06T17:20:29.909Z</time></trkpt><trkpt lat="45.39530800569946" lon="11.24773649592162"><ele>22.0</ele><time>2026-04-06T17:20:30.909Z</time></trkpt><trkpt lat="45.39553650906046" lon="11.24778588879032"><ele>21.333333333333332</ele><time>2026-04-06T17:20:31.909Z</time></trkpt><trkpt lat="45.39574589699618" lon="11.247818052851473"><ele>20.666666666666668</ele><time>2026-04-06T17:20:32.909Z</time></trkpt><trkpt lat="45.395950104682335" lon="11.247846033010998"><ele>20.0</ele><time>2026-04-06T17:20:33.909Z</time></trkpt><trkpt lat="45.39616183610665" lon="11.247872761130123"><ele>20.333333333333336</ele><time>2026-04-06T17:20:34.909Z</time></trkpt><trkpt lat="45.39637393505502" lon="11.247906062910268"><ele>20.666666666666668</ele><time>2026-04-06T17:20:35.909Z</time></trkpt><trkpt lat="45.39659998272171" lon="11.24794133678101"><ele>21.0</ele><time>2026-04-06T17:20:36.909Z</time></trkpt><trkpt lat="45.39683109343334" lon="11.247967623482314"><ele>21.0</ele><time>2026-04-06T17:20:37.909Z</time></trkpt><trkpt lat="45.39706831102952" lon="11.247997784813252"><ele>21.0</ele><time>2026-04-06T17:20:38.909Z</time></trkpt><trkpt lat="45.39729102251261" lon="11.248030965478366"><ele>21.333333333333332</ele><time>2026-04-06T17:20:39.909Z</time></trkpt><trkpt lat="45.397515919221654" lon="11.2480672809513"><ele>21.666666666666664</ele><time>2026-04-06T17:20:40.909Z</time></trkpt><trkpt lat="45.39770742261202" lon="11.248095813211092"><ele>22.0</ele><time>2026-04-06T17:20:41.909Z</time></trkpt><trkpt lat="45.397904636922846" lon="11.248128121003527"><ele>22.333333333333332</ele><time>2026-04-06T17:20:42.909Z</time></trkpt><trkpt lat="45.39810371119348" lon="11.248159434785293"><ele>22.666666666666668</ele><time>2026-04-06T17:20:43.909Z</time></trkpt><trkpt lat="45.398312903630355" lon="11.248189112875687"><ele>23.0</ele><time>2026-04-06T17:20:44.909Z</time></trkpt><trkpt lat="45.39852711308398" lon="11.248212597195778"><ele>23.0</ele><time>2026-04-06T17:20:45.909Z</time></trkpt><trkpt lat="45.39873691174447" lon="11.248246862309404"><ele>23.0</ele><time>2026-04-06T17:20:46.909Z</time></trkpt><trkpt lat="45.398951378289034" lon="11.248277817771479"><ele>23.0</ele><time>2026-04-06T17:20:47.909Z</time></trkpt><trkpt lat="45.39914460459766" lon="11.248307926445525"><ele>23.0</ele><time>2026-04-06T17:20:48.909Z</time></trkpt><trkpt lat="45.39932068170325" lon="11.2483392701396"><ele>23.0</ele><time>2026-04-06T17:20:49.91Z</time></trkpt><trkpt lat="45.399486837154804" lon="11.248397384493037"><ele>23.0</ele><time>2026-04-06T17:20:50.91Z</time></trkpt><trkpt lat="45.39964225658038" lon="11.248488984903497"><ele>23.0</ele><time>2026-04-06T17:20:51.91Z</time></trkpt><trkpt lat="45.39978623600002" lon="11.24859923850901"><ele>23.0</ele><time>2026-04-06T17:20:52.91Z</time></trkpt><trkpt lat="45.399920404913956" lon="11.248720727963876"><ele>23.0</ele><time>2026-04-06T17:20:53.91Z</time></trkpt><trkpt lat="45.4000532900769" lon="11.248860833743333"><ele>23.0</ele><time>2026-04-06T17:20:54.91Z</time></trkpt><trkpt lat="45.40018349013158" lon="11.249018057400233"><ele>23.0</ele><time>2026-04-06T17:20:55.91Z</time></trkpt><trkpt lat="45.400302924892266" lon="11.24919830979546"><ele>23.0</ele><time>2026-04-06T17:20:56.91Z</time></trkpt><trkpt lat="45.400400320025824" lon="11.249388242474614"><ele>23.0</ele><time>2026-04-06T17:20:57.91Z</time></trkpt><trkpt lat="45.40048108079421" lon="11.24958870239751"><ele>23.0</ele><time>2026-04-06T17:20:58.91Z</time></trkpt><trkpt lat="45.40055455983442" lon="11.249793340517492"><ele>23.0</ele><time>2026-04-06T17:20:59.91Z</time></trkpt><trkpt lat="45.4006121227458" lon="11.250004661456922"><ele>23.333333333333336</ele><time>2026-04-06T17:21:00.91Z</time></trkpt><trkpt lat="45.40065951864666" lon="11.250220890371684"><ele>23.666666666666668</ele><time>2026-04-06T17:21:01.91Z</time></trkpt><trkpt lat="45.40069339492887" lon="11.25042880421381"><ele>24.0</ele><time>2026-04-06T17:21:02.91Z</time></trkpt><trkpt lat="45.40073214256465" lon="11.250635096587501"><ele>24.333333333333336</ele><time>2026-04-06T17:21:03.91Z</time></trkpt><trkpt lat="45.400780543559435" lon="11.25084436307446"><ele>24.666666666666668</ele><time>2026-04-06T17:21:04.91Z</time></trkpt><trkpt lat="45.40083093894065" lon="11.251055835854679"><ele>25.0</ele><time>2026-04-06T17:21:05.91Z</time></trkpt><trkpt lat="45.4008715988413" lon="11.251268117095828"><ele>25.0</ele><time>2026-04-06T17:21:06.91Z</time></trkpt><trkpt lat="45.400908806912504" lon="11.251491745022053"><ele>25.0</ele><time>2026-04-06T17:21:07.91Z</time></trkpt><trkpt lat="45.40096556219731" lon="11.251716180342147"><ele>25.0</ele><time>2026-04-06T17:21:08.91Z</time></trkpt><trkpt lat="45.40103181259981" lon="11.25191678120897"><ele>25.0</ele><time>2026-04-06T17:21:09.91Z</time></trkpt><trkpt lat="45.40111039039937" lon="11.252108427625092"><ele>25.0</ele><time>2026-04-06T17:21:10.91Z</time></trkpt><trkpt lat="45.40120268281473" lon="11.252285734484774"><ele>25.0</ele><time>2026-04-06T17:21:11.91Z</time></trkpt><trkpt lat="45.401310032442275" lon="11.252446061877599"><ele>25.666666666666668</ele><time>2026-04-06T17:21:12.91Z</time></trkpt><trkpt lat="45.40142124093616" lon="11.252608696568698"><ele>26.333333333333336</ele><time>2026-04-06T17:21:13.91Z</time></trkpt><trkpt lat="45.401538371001614" lon="11.252748764905451"><ele>27.0</ele><time>2026-04-06T17:21:14.91Z</time></trkpt><trkpt lat="45.40166865394609" lon="11.25287490976659"><ele>27.0</ele><time>2026-04-06T17:21:15.91Z</time></trkpt><trkpt lat="45.40180633576212" lon="11.252993561927951"><ele>27.0</ele><time>2026-04-06T17:21:16.91Z</time></trkpt><trkpt lat="45.40195273019057" lon="11.253102043859707"><ele>27.0</ele><time>2026-04-06T17:21:17.91Z</time></trkpt><trkpt lat="45.40209897217926" lon="11.253212937410778"><ele>26.0</ele><time>2026-04-06T17:21:18.91Z</time></trkpt><trkpt lat="45.40226433629023" lon="11.253336156811935"><ele>25.0</ele><time>2026-04-06T17:21:19.91Z</time></trkpt><trkpt lat="45.402400767196234" lon="11.253429478970157"><ele>24.0</ele><time>2026-04-06T17:21:20.91Z</time></trkpt><trkpt lat="45.402531100257384" lon="11.253554372559774"><ele>24.0</ele><time>2026-04-06T17:21:21.91Z</time></trkpt><trkpt lat="45.40266143446494" lon="11.253660576287173"><ele>24.0</ele><time>2026-04-06T17:21:22.91Z</time></trkpt><trkpt lat="45.40278768659709" lon="11.253763222878598"><ele>24.0</ele><time>2026-04-06T17:21:23.91Z</time></trkpt><trkpt lat="45.402915525295505" lon="11.253863488154936"><ele>24.0</ele><time>2026-04-06T17:21:24.91Z</time></trkpt><trkpt lat="45.40303807626165" lon="11.253962391292125"><ele>23.5</ele><time>2026-04-06T17:21:25.91Z</time></trkpt><trkpt lat="45.403155565312645" lon="11.254057175052688"><ele>23.0</ele><time>2026-04-06T17:21:26.91Z</time></trkpt><trkpt lat="45.40326298008695" lon="11.254145602905181"><ele>22.5</ele><time>2026-04-06T17:21:27.91Z</time></trkpt><trkpt lat="45.40336532679773" lon="11.254228999683503"><ele>22.0</ele><time>2026-04-06T17:21:28.91Z</time></trkpt><trkpt lat="45.40345823103774" lon="11.254305110336619"><ele>22.0</ele><time>2026-04-06T17:21:29.91Z</time></trkpt><trkpt lat="45.403544583832186" lon="11.254373113609182"><ele>22.0</ele><time>2026-04-06T17:21:30.91Z</time></trkpt><trkpt lat="45.40362475748118" lon="11.254441279700641"><ele>22.0</ele><time>2026-04-06T17:21:31.91Z</time></trkpt><trkpt lat="45.40369463335445" lon="11.254503509553198"><ele>22.0</ele><time>2026-04-06T17:21:32.91Z</time></trkpt><trkpt lat="45.40376066646217" lon="11.254563018845978"><ele>22.0</ele><time>2026-04-06T17:21:33.91Z</time></trkpt><trkpt lat="45.403821208890385" lon="11.254632550656176"><ele>22.0</ele><time>2026-04-06T17:21:34.91Z</time></trkpt><trkpt lat="45.403885653861074" lon="11.254735480034224"><ele>22.0</ele><time>2026-04-06T17:21:35.91Z</time></trkpt><trkpt lat="45.40394773199422" lon="11.254872874086068"><ele>22.0</ele><time>2026-04-06T17:21:36.91Z</time></trkpt><trkpt lat="45.4039967233253" lon="11.255031148734346"><ele>22.0</ele><time>2026-04-06T17:21:37.91Z</time></trkpt><trkpt lat="45.404032389787446" lon="11.255171845997337"><ele>22.0</ele><time>2026-04-06T17:21:38.91Z</time></trkpt><trkpt lat="45.40408612555051" lon="11.255311699680554"><ele>22.0</ele><time>2026-04-06T17:21:39.91Z</time></trkpt><trkpt lat="45.404139900994196" lon="11.25548341117833"><ele>22.0</ele><time>2026-04-06T17:21:40.91Z</time></trkpt><trkpt lat="45.40415842337153" lon="11.255700253608955"><ele>22.0</ele><time>2026-04-06T17:21:41.91Z</time></trkpt><trkpt lat="45.40413711979247" lon="11.255951870358636"><ele>23.0</ele><time>2026-04-06T17:21:42.91Z</time></trkpt><trkpt lat="45.404097689823814" lon="11.256234102792959"><ele>24.0</ele><time>2026-04-06T17:21:43.91Z</time></trkpt><trkpt lat="45.4040574627273" lon="11.256542912946196"><ele>25.0</ele><time>2026-04-06T17:21:44.91Z</time></trkpt><trkpt lat="45.40402043115153" lon="11.256843431491962"><ele>25.0</ele><time>2026-04-06T17:21:45.91Z</time></trkpt><trkpt lat="45.40399136672021" lon="11.257105538809231"><ele>25.0</ele><time>2026-04-06T17:21:46.91Z</time></trkpt><trkpt lat="45.403973221763486" lon="11.257344613244147"><ele>25.0</ele><time>2026-04-06T17:21:47.91Z</time></trkpt><trkpt lat="45.40395598899535" lon="11.257551090404524"><ele>25.0</ele><time>2026-04-06T17:21:48.91Z</time></trkpt><trkpt lat="45.40393940016334" lon="11.25774513405514"><ele>25.0</ele><time>2026-04-06T17:21:49.91Z</time></trkpt><trkpt lat="45.40392750553262" lon="11.25794219652892"><ele>25.0</ele><time>2026-04-06T17:21:50.91Z</time></trkpt><trkpt lat="45.40390372645187" lon="11.258152651857445"><ele>25.0</ele><time>2026-04-06T17:21:51.91Z</time></trkpt><trkpt lat="45.40385515659193" lon="11.25838292534695"><ele>25.333333333333336</ele><time>2026-04-06T17:21:52.91Z</time></trkpt><trkpt lat="45.403792663188746" lon="11.258644075342804"><ele>25.666666666666664</ele><time>2026-04-06T17:21:53.91Z</time></trkpt><trkpt lat="45.40372731056584" lon="11.258897207432469"><ele>26.0</ele><time>2026-04-06T17:21:54.91Z</time></trkpt><trkpt lat="45.40366964003791" lon="11.259133964070024"><ele>26.333333333333332</ele><time>2026-04-06T17:21:55.91Z</time></trkpt><trkpt lat="45.40361439045608" lon="11.259359822972698"><ele>26.666666666666664</ele><time>2026-04-06T17:21:56.91Z</time></trkpt><trkpt lat="45.403568345131475" lon="11.259579996185039"><ele>27.0</ele><time>2026-04-06T17:21:57.91Z</time></trkpt><trkpt lat="45.40352628709762" lon="11.25979112112071"><ele>27.5</ele><time>2026-04-06T17:21:58.91Z</time></trkpt><trkpt lat="45.40348419719715" lon="11.259997177146584"><ele>28.0</ele><time>2026-04-06T17:21:59.91Z</time></trkpt><trkpt lat="45.4034415256158" lon="11.260193521701968"><ele>28.5</ele><time>2026-04-06T17:22:00.91Z</time></trkpt><trkpt lat="45.40340152475035" lon="11.260387468020106"><ele>29.0</ele><time>2026-04-06T17:22:01.91Z</time></trkpt><trkpt lat="45.40335936223578" lon="11.260556074822878"><ele>29.75</ele><time>2026-04-06T17:22:02.91Z</time></trkpt><trkpt lat="45.40332635545189" lon="11.26076143187621"><ele>30.5</ele><time>2026-04-06T17:22:03.91Z</time></trkpt><trkpt lat="45.40329182019497" lon="11.260949082729258"><ele>31.25</ele><time>2026-04-06T17:22:04.91Z</time></trkpt><trkpt lat="45.40325053680148" lon="11.261099796794754"><ele>32.0</ele><time>2026-04-06T17:22:05.91Z</time></trkpt><trkpt lat="45.403233887680756" lon="11.261320636522965"><ele>32.25</ele><time>2026-04-06T17:22:06.91Z</time></trkpt><trkpt lat="45.40321249792539" lon="11.261495102162007"><ele>32.5</ele><time>2026-04-06T17:22:07.91Z</time></trkpt><trkpt lat="45.40319389580734" lon="11.261668450010468"><ele>32.75</ele><time>2026-04-06T17:22:08.91Z</time></trkpt><trkpt lat="45.40318165559007" lon="11.261845776517772"><ele>33.0</ele><time>2026-04-06T17:22:09.91Z</time></trkpt><trkpt lat="45.403171564979985" lon="11.26202318493178"><ele>33.0</ele><time>2026-04-06T17:22:10.91Z</time></trkpt><trkpt lat="45.4031350201632" lon="11.262200847781328"><ele>33.0</ele><time>2026-04-06T17:22:11.91Z</time></trkpt><trkpt lat="45.40309671814714" lon="11.262376054171297"><ele>33.0</ele><time>2026-04-06T17:22:12.91Z</time></trkpt><trkpt lat="45.40309037264414" lon="11.262567576308479"><ele>33.0</ele><time>2026-04-06T17:22:13.91Z</time></trkpt><trkpt lat="45.40310777596458" lon="11.26276645298573"><ele>32.666666666666664</ele><time>2026-04-06T17:22:14.91Z</time></trkpt><trkpt lat="45.403140215252606" lon="11.262979073295856"><ele>32.33333333333333</ele><time>2026-04-06T17:22:15.91Z</time></trkpt><trkpt lat="45.40319202815441" lon="11.26320824812414"><ele>32.0</ele><time>2026-04-06T17:22:16.91Z</time></trkpt><trkpt lat="45.4032547991652" lon="11.263412255633833"><ele>31.75</ele><time>2026-04-06T17:22:17.91Z</time></trkpt><trkpt lat="45.40331015372224" lon="11.263595910101127"><ele>31.5</ele><time>2026-04-06T17:22:18.91Z</time></trkpt><trkpt lat="45.40337191043451" lon="11.263783712622324"><ele>31.25</ele><time>2026-04-06T17:22:19.91Z</time></trkpt><trkpt lat="45.403411367111076" lon="11.263953106777185"><ele>31.0</ele><time>2026-04-06T17:22:20.91Z</time></trkpt><trkpt lat="45.40346779385494" lon="11.264127141653013"><ele>31.0</ele><time>2026-04-06T17:22:21.91Z</time></trkpt><trkpt lat="45.40351893479924" lon="11.264281899297838"><ele>31.0</ele><time>2026-04-06T17:22:22.91Z</time></trkpt><trkpt lat="45.4035638964184" lon="11.264432623588387"><ele>31.0</ele><time>2026-04-06T17:22:23.91Z</time></trkpt><trkpt lat="45.403588837961976" lon="11.264588917773846"><ele>31.0</ele><time>2026-04-06T17:22:24.91Z</time></trkpt><trkpt lat="45.40359022813877" lon="11.264741163277227"><ele>31.25</ele><time>2026-04-06T17:22:25.91Z</time></trkpt><trkpt lat="45.40357287953615" lon="11.264890242880949"><ele>31.5</ele><time>2026-04-06T17:22:26.91Z</time></trkpt><trkpt lat="45.403529117999234" lon="11.26505103870238"><ele>31.75</ele><time>2026-04-06T17:22:27.91Z</time></trkpt><trkpt lat="45.40345871436177" lon="11.26519429748881"><ele>32.0</ele><time>2026-04-06T17:22:28.91Z</time></trkpt><trkpt lat="45.40339001504823" lon="11.265317649337936"><ele>32.0</ele><time>2026-04-06T17:22:29.91Z</time></trkpt><trkpt lat="45.40335571801788" lon="11.265461017177358"><ele>32.0</ele><time>2026-04-06T17:22:30.91Z</time></trkpt><trkpt lat="45.40342948187458" lon="11.265572034232719"><ele>32.0</ele><time>2026-04-06T17:22:31.91Z</time></trkpt><trkpt lat="45.40349566593159" lon="11.265695673293187"><ele>32.0</ele><time>2026-04-06T17:22:32.91Z</time></trkpt><trkpt lat="45.40356191187687" lon="11.265852138384101"><ele>31.75</ele><time>2026-04-06T17:22:33.91Z</time></trkpt><trkpt lat="45.4036217647023" lon="11.266010592974155"><ele>31.5</ele><time>2026-04-06T17:22:34.91Z</time></trkpt><trkpt lat="45.40371221806522" lon="11.266112257259461"><ele>31.25</ele><time>2026-04-06T17:22:35.91Z</time></trkpt><trkpt lat="45.40376807444997" lon="11.2662769417115"><ele>31.0</ele><time>2026-04-06T17:22:36.91Z</time></trkpt><trkpt lat="45.40382248288107" lon="11.266424099560895"><ele>30.666666666666668</ele><time>2026-04-06T17:22:37.91Z</time></trkpt><trkpt lat="45.40384840978451" lon="11.26661130332047"><ele>30.333333333333336</ele><time>2026-04-06T17:22:38.91Z</time></trkpt><trkpt lat="45.40387260534436" lon="11.266852766972091"><ele>30.0</ele><time>2026-04-06T17:22:39.91Z</time></trkpt><trkpt lat="45.40390393738586" lon="11.267128897783534"><ele>31.0</ele><time>2026-04-06T17:22:40.91Z</time></trkpt><trkpt lat="45.403929289613004" lon="11.2674442308252"><ele>32.0</ele><time>2026-04-06T17:22:41.91Z</time></trkpt><trkpt lat="45.40395000600008" lon="11.267798795758695"><ele>31.5</ele><time>2026-04-06T17:22:42.91Z</time></trkpt><trkpt lat="45.40398190633137" lon="11.268219467694374"><ele>31.0</ele><time>2026-04-06T17:22:43.91Z</time></trkpt><trkpt lat="45.404022588854616" lon="11.268639350204575"><ele>30.0</ele><time>2026-04-06T17:22:44.91Z</time></trkpt><trkpt lat="45.404062651813994" lon="11.269089314526994"><ele>29.0</ele><time>2026-04-06T17:22:45.91Z</time></trkpt><trkpt lat="45.40410239281313" lon="11.269565838998625"><ele>29.5</ele><time>2026-04-06T17:22:46.91Z</time></trkpt><trkpt lat="45.40414078083882" lon="11.270027709039901"><ele>30.0</ele><time>2026-04-06T17:22:47.91Z</time></trkpt><trkpt lat="45.404178958322795" lon="11.270469209754989"><ele>30.5</ele><time>2026-04-06T17:22:48.91Z</time></trkpt><trkpt lat="45.40421728551512" lon="11.270914784071023"><ele>31.0</ele><time>2026-04-06T17:22:49.91Z</time></trkpt><trkpt lat="45.40425827478159" lon="11.271365615932625"><ele>31.0</ele><time>2026-04-06T17:22:50.91Z</time></trkpt><trkpt lat="45.40430009900828" lon="11.2718105602737"><ele>31.0</ele><time>2026-04-06T17:22:51.91Z</time></trkpt><trkpt lat="45.40433534448717" lon="11.27223621182313"><ele>30.5</ele><time>2026-04-06T17:22:52.91Z</time></trkpt><trkpt lat="45.404373743825836" lon="11.272642604500419"><ele>30.0</ele><time>2026-04-06T17:22:53.91Z</time></trkpt><trkpt lat="45.40440836233727" lon="11.27302868406851"><ele>30.0</ele><time>2026-04-06T17:22:54.91Z</time></trkpt><trkpt lat="45.40443928990266" lon="11.273391717841337"><ele>30.0</ele><time>2026-04-06T17:22:55.91Z</time></trkpt><trkpt lat="45.40446977963648" lon="11.273729347916182"><ele>30.0</ele><time>2026-04-06T17:22:56.91Z</time></trkpt><trkpt lat="45.40449871722286" lon="11.274055539046401"><ele>30.0</ele><time>2026-04-06T17:22:57.91Z</time></trkpt><trkpt lat="45.404525123701426" lon="11.27437024599576"><ele>30.0</ele><time>2026-04-06T17:22:58.91Z</time></trkpt><trkpt lat="45.404553434108436" lon="11.274668767735898"><ele>30.0</ele><time>2026-04-06T17:22:59.91Z</time></trkpt><trkpt lat="45.40457412993592" lon="11.274946117249906"><ele>30.0</ele><time>2026-04-06T17:23:00.91Z</time></trkpt><trkpt lat="45.40460251826372" lon="11.27521005380548"><ele>30.0</ele><time>2026-04-06T17:23:01.91Z</time></trkpt><trkpt lat="45.40462676327079" lon="11.275466410918638"><ele>30.0</ele><time>2026-04-06T17:23:02.91Z</time></trkpt><trkpt lat="45.404648130431895" lon="11.275722675181948"><ele>30.0</ele><time>2026-04-06T17:23:03.91Z</time></trkpt><trkpt lat="45.40467037507955" lon="11.275981678272132"><ele>30.0</ele><time>2026-04-06T17:23:04.91Z</time></trkpt><trkpt lat="45.40469684493126" lon="11.27625195623468"><ele>30.0</ele><time>2026-04-06T17:23:05.91Z</time></trkpt><trkpt lat="45.404720254066454" lon="11.276524139937393"><ele>30.0</ele><time>2026-04-06T17:23:06.91Z</time></trkpt><trkpt lat="45.404744834600315" lon="11.276793609874966"><ele>30.0</ele><time>2026-04-06T17:23:07.91Z</time></trkpt><trkpt lat="45.404769825728444" lon="11.277069174790995"><ele>30.0</ele><time>2026-04-06T17:23:08.91Z</time></trkpt><trkpt lat="45.40478952800886" lon="11.27734526462923"><ele>30.0</ele><time>2026-04-06T17:23:09.91Z</time></trkpt><trkpt lat="45.40481834630385" lon="11.27762121432855"><ele>30.0</ele><time>2026-04-06T17:23:10.91Z</time></trkpt><trkpt lat="45.40484584746491" lon="11.277901530251796"><ele>30.0</ele><time>2026-04-06T17:23:11.91Z</time></trkpt><trkpt lat="45.404869731500916" lon="11.27818726028857"><ele>30.0</ele><time>2026-04-06T17:23:12.91Z</time></trkpt><trkpt lat="45.404890883540254" lon="11.278492162010975"><ele>30.5</ele><time>2026-04-06T17:23:13.91Z</time></trkpt><trkpt lat="45.4049145958849" lon="11.278825577280063"><ele>31.0</ele><time>2026-04-06T17:23:14.91Z</time></trkpt><trkpt lat="45.40496819621425" lon="11.279159217843459"><ele>31.0</ele><time>2026-04-06T17:23:15.91Z</time></trkpt><trkpt lat="45.40498365675916" lon="11.279496228147277"><ele>31.0</ele><time>2026-04-06T17:23:16.91Z</time></trkpt><trkpt lat="45.405013359461925" lon="11.27982664855733"><ele>30.666666666666668</ele><time>2026-04-06T17:23:17.91Z</time></trkpt><trkpt lat="45.40504092993431" lon="11.280133358336716"><ele>30.333333333333336</ele><time>2026-04-06T17:23:18.91Z</time></trkpt><trkpt lat="45.40506930227558" lon="11.280397446036508"><ele>30.0</ele><time>2026-04-06T17:23:19.91Z</time></trkpt><trkpt lat="45.40508780929183" lon="11.280613627172194"><ele>30.0</ele><time>2026-04-06T17:23:20.91Z</time></trkpt><trkpt lat="45.40511077283798" lon="11.280840142262699"><ele>30.0</ele><time>2026-04-06T17:23:21.91Z</time></trkpt><trkpt lat="45.405140036323154" lon="11.281080292496306"><ele>30.0</ele><time>2026-04-06T17:23:22.91Z</time></trkpt><trkpt lat="45.40530093546644" lon="11.281305981834155"><ele>30.0</ele><time>2026-04-06T17:23:23.91Z</time></trkpt><trkpt lat="45.40533183358442" lon="11.281575588301482"><ele>30.0</ele><time>2026-04-06T17:23:24.91Z</time></trkpt><trkpt lat="45.405357409313226" lon="11.281865126515786"><ele>30.0</ele><time>2026-04-06T17:23:25.91Z</time></trkpt><trkpt lat="45.40538471039998" lon="11.282182532833767"><ele>30.5</ele><time>2026-04-06T17:23:26.91Z</time></trkpt><trkpt lat="45.40525435303369" lon="11.282555084891053"><ele>31.0</ele><time>2026-04-06T17:23:27.91Z</time></trkpt><trkpt lat="45.40528025926878" lon="11.28291746839515"><ele>31.0</ele><time>2026-04-06T17:23:28.91Z</time></trkpt><trkpt lat="45.40531470103149" lon="11.283294187076343"><ele>31.0</ele><time>2026-04-06T17:23:29.91Z</time></trkpt><trkpt lat="45.40534753914642" lon="11.283688812206604"><ele>31.0</ele><time>2026-04-06T17:23:30.91Z</time></trkpt><trkpt lat="45.40538744978231" lon="11.284098568080362"><ele>31.0</ele><time>2026-04-06T17:23:31.91Z</time></trkpt><trkpt lat="45.40542782560184" lon="11.284525511806832"><ele>30.5</ele><time>2026-04-06T17:23:32.91Z</time></trkpt><trkpt lat="45.405469127457955" lon="11.284963378944765"><ele>30.0</ele><time>2026-04-06T17:23:33.91Z</time></trkpt><trkpt lat="45.405508991596896" lon="11.285397834643188"><ele>29.5</ele><time>2026-04-06T17:23:34.91Z</time></trkpt><trkpt lat="45.4055462810597" lon="11.285794955104882"><ele>29.0</ele><time>2026-04-06T17:23:35.91Z</time></trkpt><trkpt lat="45.405577669623966" lon="11.286168786872222"><ele>29.5</ele><time>2026-04-06T17:23:36.91Z</time></trkpt><trkpt lat="45.40561386237396" lon="11.286544374314701"><ele>30.0</ele><time>2026-04-06T17:23:37.91Z</time></trkpt><trkpt lat="45.40565346991719" lon="11.28693011284434"><ele>30.0</ele><time>2026-04-06T17:23:38.91Z</time></trkpt><trkpt lat="45.405689603437665" lon="11.287327979927396"><ele>30.0</ele><time>2026-04-06T17:23:39.91Z</time></trkpt><trkpt lat="45.40572655175761" lon="11.287740481960798"><ele>29.0</ele><time>2026-04-06T17:23:40.91Z</time></trkpt><trkpt lat="45.40576780108944" lon="11.28817206314342"><ele>28.0</ele><time>2026-04-06T17:23:41.91Z</time></trkpt><trkpt lat="45.40580640464997" lon="11.288612958993378"><ele>29.0</ele><time>2026-04-06T17:23:42.91Z</time></trkpt><trkpt lat="45.40584979080288" lon="11.28906767007232"><ele>30.0</ele><time>2026-04-06T17:23:43.91Z</time></trkpt><trkpt lat="45.405896129112655" lon="11.289541039411763"><ele>30.0</ele><time>2026-04-06T17:23:44.91Z</time></trkpt><trkpt lat="45.40594710112638" lon="11.289978880847709"><ele>30.0</ele><time>2026-04-06T17:23:45.91Z</time></trkpt><trkpt lat="45.4059833084519" lon="11.290362385136513"><ele>29.5</ele><time>2026-04-06T17:23:46.91Z</time></trkpt><trkpt lat="45.40601219275459" lon="11.290714654415822"><ele>29.0</ele><time>2026-04-06T17:23:47.91Z</time></trkpt><trkpt lat="45.40604170156307" lon="11.291053024895787"><ele>29.0</ele><time>2026-04-06T17:23:48.91Z</time></trkpt><trkpt lat="45.40606984658455" lon="11.291374620159612"><ele>29.0</ele><time>2026-04-06T17:23:49.91Z</time></trkpt><trkpt lat="45.406098686785356" lon="11.291677607118148"><ele>29.0</ele><time>2026-04-06T17:23:50.91Z</time></trkpt><trkpt lat="45.40612468377074" lon="11.291968911818172"><ele>29.0</ele><time>2026-04-06T17:23:51.91Z</time></trkpt><trkpt lat="45.406148450933614" lon="11.292245250824566"><ele>29.0</ele><time>2026-04-06T17:23:52.91Z</time></trkpt><trkpt lat="45.40616997836697" lon="11.292503679892748"><ele>29.0</ele><time>2026-04-06T17:23:53.91Z</time></trkpt><trkpt lat="45.40619119557518" lon="11.29274863252"><ele>29.333333333333332</ele><time>2026-04-06T17:23:54.91Z</time></trkpt><trkpt lat="45.406211363533735" lon="11.292982633852525"><ele>29.666666666666664</ele><time>2026-04-06T17:23:55.91Z</time></trkpt><trkpt lat="45.40623314266706" lon="11.293209746095275"><ele>30.0</ele><time>2026-04-06T17:23:56.91Z</time></trkpt><trkpt lat="45.406257234502256" lon="11.293432174228018"><ele>30.0</ele><time>2026-04-06T17:23:57.91Z</time></trkpt><trkpt lat="45.4062713110159" lon="11.293629978146017"><ele>30.0</ele><time>2026-04-06T17:23:58.91Z</time></trkpt><trkpt lat="45.40628892280986" lon="11.293841612846162"><ele>30.0</ele><time>2026-04-06T17:23:59.91Z</time></trkpt><trkpt lat="45.40631250974748" lon="11.294074855798948"><ele>30.25</ele><time>2026-04-06T17:24:00.91Z</time></trkpt><trkpt lat="45.40633010708985" lon="11.294282345030053"><ele>30.5</ele><time>2026-04-06T17:24:01.91Z</time></trkpt><trkpt lat="45.406348194579415" lon="11.294478341800351"><ele>30.75</ele><time>2026-04-06T17:24:02.91Z</time></trkpt><trkpt lat="45.406367260734044" lon="11.294671213455503"><ele>31.0</ele><time>2026-04-06T17:24:03.91Z</time></trkpt><trkpt lat="45.40639010038218" lon="11.29485372874283"><ele>31.0</ele><time>2026-04-06T17:24:04.91Z</time></trkpt><trkpt lat="45.40640779938112" lon="11.295015186620727"><ele>31.0</ele><time>2026-04-06T17:24:05.91Z</time></trkpt><trkpt lat="45.40642497675529" lon="11.295158643923061"><ele>31.0</ele><time>2026-04-06T17:24:06.91Z</time></trkpt><trkpt lat="45.40644765272929" lon="11.295296521164728"><ele>31.0</ele><time>2026-04-06T17:24:07.91Z</time></trkpt><trkpt lat="45.40646955983483" lon="11.295426115397293"><ele>31.0</ele><time>2026-04-06T17:24:08.91Z</time></trkpt><trkpt lat="45.406482689902376" lon="11.295527645518131"><ele>30.666666666666668</ele><time>2026-04-06T17:24:09.91Z</time></trkpt><trkpt lat="45.40649866467625" lon="11.295631206252404"><ele>30.333333333333336</ele><time>2026-04-06T17:24:10.91Z</time></trkpt><trkpt lat="45.406477940495215" lon="11.295736057670203"><ele>30.0</ele><time>2026-04-06T17:24:11.91Z</time></trkpt><trkpt lat="45.406423983737305" lon="11.295862094497432"><ele>29.666666666666664</ele><time>2026-04-06T17:24:12.91Z</time></trkpt><trkpt lat="45.40637969489021" lon="11.295989630687094"><ele>29.333333333333332</ele><time>2026-04-06T17:24:13.91Z</time></trkpt><trkpt lat="45.40639074750647" lon="11.296108463775765"><ele>29.0</ele><time>2026-04-06T17:24:14.91Z</time></trkpt><trkpt lat="45.40644277388242" lon="11.29620917939872"><ele>29.0</ele><time>2026-04-06T17:24:15.91Z</time></trkpt><trkpt lat="45.40652122477018" lon="11.296284607076403"><ele>29.0</ele><time>2026-04-06T17:24:16.91Z</time></trkpt><trkpt lat="45.40660398646056" lon="11.296338591321065"><ele>29.0</ele><time>2026-04-06T17:24:17.91Z</time></trkpt><trkpt lat="45.406685174333376" lon="11.296401277972397"><ele>29.0</ele><time>2026-04-06T17:24:18.91Z</time></trkpt><trkpt lat="45.40675545239537" lon="11.296501229297077"><ele>29.0</ele><time>2026-04-06T17:24:19.91Z</time></trkpt><trkpt lat="45.406798015162934" lon="11.296650284116572"><ele>29.0</ele><time>2026-04-06T17:24:20.91Z</time></trkpt><trkpt lat="45.40684849533555" lon="11.296828957125276"><ele>29.0</ele><time>2026-04-06T17:24:21.91Z</time></trkpt><trkpt lat="45.40689420655804" lon="11.297026633066725"><ele>29.0</ele><time>2026-04-06T17:24:22.91Z</time></trkpt><trkpt lat="45.406941301584794" lon="11.297220605176099"><ele>29.0</ele><time>2026-04-06T17:24:23.91Z</time></trkpt><trkpt lat="45.4069966276778" lon="11.297397415645376"><ele>29.0</ele><time>2026-04-06T17:24:24.91Z</time></trkpt><trkpt lat="45.40706187344385" lon="11.297600551118405"><ele>29.0</ele><time>2026-04-06T17:24:25.91Z</time></trkpt><trkpt lat="45.40712742303047" lon="11.297819701730374"><ele>29.0</ele><time>2026-04-06T17:24:26.91Z</time></trkpt><trkpt lat="45.40720245015266" lon="11.298057524504154"><ele>29.333333333333332</ele><time>2026-04-06T17:24:27.91Z</time></trkpt><trkpt lat="45.407276753025116" lon="11.298322102019613"><ele>29.666666666666664</ele><time>2026-04-06T17:24:28.91Z</time></trkpt><trkpt lat="45.40736213156155" lon="11.298600532895549"><ele>30.0</ele><time>2026-04-06T17:24:29.91Z</time></trkpt><trkpt lat="45.40745669337151" lon="11.298902684474122"><ele>29.0</ele><time>2026-04-06T17:24:30.91Z</time></trkpt><trkpt lat="45.40755970792506" lon="11.299233206471246"><ele>28.0</ele><time>2026-04-06T17:24:31.91Z</time></trkpt><trkpt lat="45.407670525423974" lon="11.29960379853878"><ele>28.0</ele><time>2026-04-06T17:24:32.91Z</time></trkpt><trkpt lat="45.407778886121655" lon="11.299989152679336"><ele>28.0</ele><time>2026-04-06T17:24:33.91Z</time></trkpt><trkpt lat="45.40787510497837" lon="11.300334176783862"><ele>28.0</ele><time>2026-04-06T17:24:34.91Z</time></trkpt><trkpt lat="45.40796617780536" lon="11.30066324867974"><ele>28.0</ele><time>2026-04-06T17:24:35.91Z</time></trkpt><trkpt lat="45.40806418483667" lon="11.301006706568929"><ele>28.0</ele><time>2026-04-06T17:24:36.91Z</time></trkpt><trkpt lat="45.408174063464685" lon="11.30137532500313"><ele>28.0</ele><time>2026-04-06T17:24:37.91Z</time></trkpt><trkpt lat="45.408295532477204" lon="11.301767346858233"><ele>28.0</ele><time>2026-04-06T17:24:38.91Z</time></trkpt><trkpt lat="45.40840966622357" lon="11.302154773317469"><ele>28.0</ele><time>2026-04-06T17:24:39.91Z</time></trkpt><trkpt lat="45.40851904686834" lon="11.30253409938178"><ele>28.5</ele><time>2026-04-06T17:24:40.91Z</time></trkpt><trkpt lat="45.408628241057684" lon="11.302905625856358"><ele>29.0</ele><time>2026-04-06T17:24:41.91Z</time></trkpt><trkpt lat="45.40873147604353" lon="11.303276222105735"><ele>29.0</ele><time>2026-04-06T17:24:42.91Z</time></trkpt><trkpt lat="45.40883510967994" lon="11.303653916033047"><ele>29.0</ele><time>2026-04-06T17:24:43.91Z</time></trkpt><trkpt lat="45.40893328767817" lon="11.304035777931698"><ele>29.0</ele><time>2026-04-06T17:24:44.91Z</time></trkpt><trkpt lat="45.409033032836234" lon="11.304392196259915"><ele>29.0</ele><time>2026-04-06T17:24:45.91Z</time></trkpt><trkpt lat="45.409124320338584" lon="11.304708767072727"><ele>28.5</ele><time>2026-04-06T17:24:46.91Z</time></trkpt><trkpt lat="45.40921704979513" lon="11.305020645440045"><ele>28.0</ele><time>2026-04-06T17:24:47.91Z</time></trkpt><trkpt lat="45.40931114138468" lon="11.305339335204037"><ele>28.0</ele><time>2026-04-06T17:24:48.91Z</time></trkpt><trkpt lat="45.409409506108894" lon="11.30565266905645"><ele>28.0</ele><time>2026-04-06T17:24:49.91Z</time></trkpt><trkpt lat="45.409501483029175" lon="11.305964845675684"><ele>28.0</ele><time>2026-04-06T17:24:50.91Z</time></trkpt><trkpt lat="45.40959161621476" lon="11.30627823133839"><ele>28.0</ele><time>2026-04-06T17:24:51.91Z</time></trkpt><trkpt lat="45.40968125092165" lon="11.306586770754736"><ele>28.5</ele><time>2026-04-06T17:24:52.91Z</time></trkpt><trkpt lat="45.40977031481724" lon="11.30689229864069"><ele>29.0</ele><time>2026-04-06T17:24:53.91Z</time></trkpt><trkpt lat="45.40985959260488" lon="11.307200087536927"><ele>29.0</ele><time>2026-04-06T17:24:54.91Z</time></trkpt><trkpt lat="45.40994860727917" lon="11.307505250512841"><ele>29.0</ele><time>2026-04-06T17:24:55.91Z</time></trkpt><trkpt lat="45.41004033850365" lon="11.307807655402627"><ele>28.666666666666664</ele><time>2026-04-06T17:24:56.91Z</time></trkpt><trkpt lat="45.410128395003056" lon="11.308108619110927"><ele>28.333333333333336</ele><time>2026-04-06T17:24:57.91Z</time></trkpt><trkpt lat="45.410213638612944" lon="11.308389830165906"><ele>28.0</ele><time>2026-04-06T17:24:58.91Z</time></trkpt><trkpt lat="45.41029477531847" lon="11.30866463201952"><ele>28.0</ele><time>2026-04-06T17:24:59.91Z</time></trkpt><trkpt lat="45.41037184162488" lon="11.308942659047787"><ele>28.0</ele><time>2026-04-06T17:25:00.91Z</time></trkpt><trkpt lat="45.41045649611265" lon="11.309232281079042"><ele>28.0</ele><time>2026-04-06T17:25:01.91Z</time></trkpt><trkpt lat="45.41054665380701" lon="11.309543358601122"><ele>30.0</ele><time>2026-04-06T17:25:02.91Z</time></trkpt><trkpt lat="45.410640319449335" lon="11.309857678880007"><ele>32.0</ele><time>2026-04-06T17:25:03.91Z</time></trkpt><trkpt lat="45.41073078371091" lon="11.31017214519457"><ele>32.0</ele><time>2026-04-06T17:25:04.91Z</time></trkpt><trkpt lat="45.410819581756286" lon="11.310482944392769"><ele>32.0</ele><time>2026-04-06T17:25:05.91Z</time></trkpt><trkpt lat="45.410907898469674" lon="11.310788199375434"><ele>31.0</ele><time>2026-04-06T17:25:06.91Z</time></trkpt><trkpt lat="45.41099948503153" lon="11.311097779158851"><ele>30.0</ele><time>2026-04-06T17:25:07.91Z</time></trkpt><trkpt lat="45.411094282756075" lon="11.311414815255876"><ele>29.0</ele><time>2026-04-06T17:25:08.91Z</time></trkpt><trkpt lat="45.41118938973238" lon="11.311755443638306"><ele>28.0</ele><time>2026-04-06T17:25:09.91Z</time></trkpt><trkpt lat="45.41129154856637" lon="11.312121274016194"><ele>29.0</ele><time>2026-04-06T17:25:10.91Z</time></trkpt><trkpt lat="45.4113999561692" lon="11.312487753085733"><ele>30.0</ele><time>2026-04-06T17:25:11.91Z</time></trkpt><trkpt lat="45.41151053038258" lon="11.312875837795499"><ele>29.0</ele><time>2026-04-06T17:25:12.91Z</time></trkpt><trkpt lat="45.411620755359685" lon="11.313269609805412"><ele>28.0</ele><time>2026-04-06T17:25:13.91Z</time></trkpt><trkpt lat="45.41173832264361" lon="11.313677542988088"><ele>28.0</ele><time>2026-04-06T17:25:14.91Z</time></trkpt><trkpt lat="45.41185900999644" lon="11.314092149674888"><ele>28.0</ele><time>2026-04-06T17:25:15.91Z</time></trkpt><trkpt lat="45.41198688578184" lon="11.3145241290609"><ele>28.0</ele><time>2026-04-06T17:25:16.91Z</time></trkpt><trkpt lat="45.41211677694641" lon="11.314964105096745"><ele>28.0</ele><time>2026-04-06T17:25:17.91Z</time></trkpt><trkpt lat="45.41224394759105" lon="11.315382753534006"><ele>29.0</ele><time>2026-04-06T17:25:18.91Z</time></trkpt><trkpt lat="45.412350361416685" lon="11.31577439682192"><ele>30.0</ele><time>2026-04-06T17:25:19.91Z</time></trkpt><trkpt lat="45.412462259192914" lon="11.316172202227344"><ele>30.0</ele><time>2026-04-06T17:25:20.91Z</time></trkpt><trkpt lat="45.41257905662676" lon="11.316567801561908"><ele>30.0</ele><time>2026-04-06T17:25:21.91Z</time></trkpt><trkpt lat="45.41269114436402" lon="11.316961746593972"><ele>30.5</ele><time>2026-04-06T17:25:22.91Z</time></trkpt><trkpt lat="45.41280438320171" lon="11.317351945820167"><ele>31.0</ele><time>2026-04-06T17:25:23.91Z</time></trkpt><trkpt lat="45.41291522265674" lon="11.317739592373071"><ele>31.0</ele><time>2026-04-06T17:25:24.91Z</time></trkpt><trkpt lat="45.41301298617935" lon="11.318118120085938"><ele>31.0</ele><time>2026-04-06T17:25:25.91Z</time></trkpt><trkpt lat="45.4131039307266" lon="11.318482138080816"><ele>31.0</ele><time>2026-04-06T17:25:26.91Z</time></trkpt><trkpt lat="45.41319744748403" lon="11.318838173367649"><ele>31.0</ele><time>2026-04-06T17:25:27.91Z</time></trkpt><trkpt lat="45.413399815624594" lon="11.319344926855766"><ele>30.5</ele><time>2026-04-06T17:25:28.91Z</time></trkpt><trkpt lat="45.41352238841988" lon="11.319760866595113"><ele>30.0</ele><time>2026-04-06T17:25:29.91Z</time></trkpt><trkpt lat="45.41364633908969" lon="11.320189193234388"><ele>30.5</ele><time>2026-04-06T17:25:30.91Z</time></trkpt><trkpt lat="45.41376895992165" lon="11.320602906330143"><ele>31.0</ele><time>2026-04-06T17:25:31.91Z</time></trkpt><trkpt lat="45.41387931285361" lon="11.320976538030449"><ele>30.0</ele><time>2026-04-06T17:25:32.91Z</time></trkpt><trkpt lat="45.41397498661233" lon="11.32133077299094"><ele>29.0</ele><time>2026-04-06T17:25:33.91Z</time></trkpt><trkpt lat="45.4140735032458" lon="11.321662035527527"><ele>29.0</ele><time>2026-04-06T17:25:34.91Z</time></trkpt><trkpt lat="45.41416878908454" lon="11.32197356473355"><ele>29.0</ele><time>2026-04-06T17:25:35.91Z</time></trkpt><trkpt lat="45.41425867157451" lon="11.322265299309734"><ele>29.0</ele><time>2026-04-06T17:25:36.91Z</time></trkpt><trkpt lat="45.414343630848194" lon="11.322543020563542"><ele>29.0</ele><time>2026-04-06T17:25:37.91Z</time></trkpt><trkpt lat="45.41441748772445" lon="11.32280429373195"><ele>29.0</ele><time>2026-04-06T17:25:38.91Z</time></trkpt><trkpt lat="45.41449642307683" lon="11.323071228552639"><ele>29.0</ele><time>2026-04-06T17:25:39.91Z</time></trkpt><trkpt lat="45.41457645939448" lon="11.323343932785031"><ele>29.0</ele><time>2026-04-06T17:25:40.91Z</time></trkpt><trkpt lat="45.414659422828734" lon="11.323619935286105"><ele>29.0</ele><time>2026-04-06T17:25:41.91Z</time></trkpt><trkpt lat="45.41474397989173" lon="11.323903244226642"><ele>30.0</ele><time>2026-04-06T17:25:42.91Z</time></trkpt><trkpt lat="45.41482735764575" lon="11.324193978389856"><ele>31.0</ele><time>2026-04-06T17:25:43.91Z</time></trkpt><trkpt lat="45.414914728819944" lon="11.324496073872224"><ele>32.0</ele><time>2026-04-06T17:25:44.91Z</time></trkpt><trkpt lat="45.415007991942154" lon="11.324807967993973"><ele>33.0</ele><time>2026-04-06T17:25:45.91Z</time></trkpt><trkpt lat="45.4151023531063" lon="11.325131063134625"><ele>33.0</ele><time>2026-04-06T17:25:46.91Z</time></trkpt><trkpt lat="45.41519559979029" lon="11.325453035478198"><ele>33.0</ele><time>2026-04-06T17:25:47.91Z</time></trkpt><trkpt lat="45.415291646094566" lon="11.325741113493718"><ele>34.0</ele><time>2026-04-06T17:25:48.91Z</time></trkpt><trkpt lat="45.415381456653876" lon="11.326040482944892"><ele>35.0</ele><time>2026-04-06T17:25:49.91Z</time></trkpt><trkpt lat="45.41547125646839" lon="11.3263321209288"><ele>33.666666666666664</ele><time>2026-04-06T17:25:50.91Z</time></trkpt><trkpt lat="45.415562215861705" lon="11.326596324173657"><ele>32.333333333333336</ele><time>2026-04-06T17:25:51.91Z</time></trkpt><trkpt lat="45.41565618046274" lon="11.3268409822078"><ele>31.0</ele><time>2026-04-06T17:25:52.91Z</time></trkpt><trkpt lat="45.4157514724724" lon="11.327089629867219"><ele>31.0</ele><time>2026-04-06T17:25:53.91Z</time></trkpt><trkpt lat="45.415875910479436" lon="11.327363155893801"><ele>31.0</ele><time>2026-04-06T17:25:54.91Z</time></trkpt><trkpt lat="45.416017068312065" lon="11.327660259401416"><ele>31.0</ele><time>2026-04-06T17:25:55.91Z</time></trkpt><trkpt lat="45.4161803947567" lon="11.32796554471127"><ele>31.0</ele><time>2026-04-06T17:25:56.91Z</time></trkpt><trkpt lat="45.416366553841186" lon="11.328269524910507"><ele>31.0</ele><time>2026-04-06T17:25:57.91Z</time></trkpt><trkpt lat="45.416571579409876" lon="11.328572280022927"><ele>31.0</ele><time>2026-04-06T17:25:58.91Z</time></trkpt><trkpt lat="45.41679700161224" lon="11.32888883063618"><ele>31.0</ele><time>2026-04-06T17:25:59.91Z</time></trkpt><trkpt lat="45.417009055812606" lon="11.329189642739285"><ele>31.0</ele><time>2026-04-06T17:26:00.91Z</time></trkpt><trkpt lat="45.41720213284881" lon="11.329468434065944"><ele>30.5</ele><time>2026-04-06T17:26:01.91Z</time></trkpt><trkpt lat="45.41739841010602" lon="11.32974410483747"><ele>30.0</ele><time>2026-04-06T17:26:02.91Z</time></trkpt><trkpt lat="45.41760765169904" lon="11.330045243609474"><ele>30.0</ele><time>2026-04-06T17:26:03.91Z</time></trkpt><trkpt lat="45.41781491444624" lon="11.330370353768267"><ele>30.0</ele><time>2026-04-06T17:26:04.91Z</time></trkpt><trkpt lat="45.41802261550933" lon="11.330701655460897"><ele>30.5</ele><time>2026-04-06T17:26:05.91Z</time></trkpt><trkpt lat="45.41822879966918" lon="11.331020226232612"><ele>31.0</ele><time>2026-04-06T17:26:06.91Z</time></trkpt><trkpt lat="45.41841641555381" lon="11.331300777740706"><ele>31.0</ele><time>2026-04-06T17:26:07.91Z</time></trkpt><trkpt lat="45.418595188954654" lon="11.331568962946514"><ele>31.0</ele><time>2026-04-06T17:26:08.91Z</time></trkpt><trkpt lat="45.418766952177286" lon="11.331824046648787"><ele>32.0</ele><time>2026-04-06T17:26:09.91Z</time></trkpt><trkpt lat="45.41892744350032" lon="11.332070525310758"><ele>33.0</ele><time>2026-04-06T17:26:10.91Z</time></trkpt><trkpt lat="45.41909310039323" lon="11.33232257572461"><ele>33.0</ele><time>2026-04-06T17:26:11.91Z</time></trkpt><trkpt lat="45.4192678301534" lon="11.332579285653898"><ele>33.0</ele><time>2026-04-06T17:26:12.91Z</time></trkpt><trkpt lat="45.4194502226261" lon="11.332837111487382"><ele>33.0</ele><time>2026-04-06T17:26:13.91Z</time></trkpt><trkpt lat="45.419626544546574" lon="11.333099472725578"><ele>33.0</ele><time>2026-04-06T17:26:14.91Z</time></trkpt><trkpt lat="45.41979711135187" lon="11.333358222792146"><ele>33.0</ele><time>2026-04-06T17:26:15.91Z</time></trkpt><trkpt lat="45.41996473281605" lon="11.333610230607569"><ele>33.0</ele><time>2026-04-06T17:26:16.91Z</time></trkpt><trkpt lat="45.42014287055925" lon="11.333868291839648"><ele>33.0</ele><time>2026-04-06T17:26:17.91Z</time></trkpt><trkpt lat="45.420333343695425" lon="11.33414035392793"><ele>33.0</ele><time>2026-04-06T17:26:18.91Z</time></trkpt><trkpt lat="45.42052974848805" lon="11.334430261019204"><ele>32.5</ele><time>2026-04-06T17:26:19.91Z</time></trkpt><trkpt lat="45.420727275728275" lon="11.334739949968016"><ele>32.0</ele><time>2026-04-06T17:26:20.91Z</time></trkpt><trkpt lat="45.42093147967022" lon="11.335058806809378"><ele>32.0</ele><time>2026-04-06T17:26:21.91Z</time></trkpt><trkpt lat="45.42113757535225" lon="11.335367831923973"><ele>32.0</ele><time>2026-04-06T17:26:22.91Z</time></trkpt><trkpt lat="45.42133128239062" lon="11.335656954090657"><ele>32.5</ele><time>2026-04-06T17:26:23.91Z</time></trkpt><trkpt lat="45.42150970812798" lon="11.335924263671565"><ele>33.0</ele><time>2026-04-06T17:26:24.91Z</time></trkpt><trkpt lat="45.421676496814634" lon="11.336175913789194"><ele>32.333333333333336</ele><time>2026-04-06T17:26:25.91Z</time></trkpt><trkpt lat="45.421831819573555" lon="11.336414536256308"><ele>31.666666666666668</ele><time>2026-04-06T17:26:26.91Z</time></trkpt><trkpt lat="45.42198178153244" lon="11.336640120942999"><ele>31.0</ele><time>2026-04-06T17:26:27.91Z</time></trkpt><trkpt lat="45.42213364990287" lon="11.336862057769086"><ele>31.0</ele><time>2026-04-06T17:26:28.91Z</time></trkpt><trkpt lat="45.42228617997367" lon="11.337085324125209"><ele>31.0</ele><time>2026-04-06T17:26:29.91Z</time></trkpt><trkpt lat="45.42243567663137" lon="11.33730641410624"><ele>31.0</ele><time>2026-04-06T17:26:30.91Z</time></trkpt><trkpt lat="45.42258216630663" lon="11.337528069387549"><ele>31.0</ele><time>2026-04-06T17:26:31.91Z</time></trkpt><trkpt lat="45.422729400249324" lon="11.33774731753427"><ele>31.0</ele><time>2026-04-06T17:26:32.91Z</time></trkpt><trkpt lat="45.42287413364938" lon="11.337957089938017"><ele>31.0</ele><time>2026-04-06T17:26:33.91Z</time></trkpt><trkpt lat="45.423013737094955" lon="11.338161933050783"><ele>32.66666666666667</ele><time>2026-04-06T17:26:34.91Z</time></trkpt><trkpt lat="45.42314648831753" lon="11.338358181074861"><ele>34.333333333333336</ele><time>2026-04-06T17:26:35.91Z</time></trkpt><trkpt lat="45.423273838361816" lon="11.338552946310909"><ele>36.0</ele><time>2026-04-06T17:26:36.91Z</time></trkpt><trkpt lat="45.4234054531985" lon="11.338751335552507"><ele>36.0</ele><time>2026-04-06T17:26:37.91Z</time></trkpt><trkpt lat="45.423540440889326" lon="11.338951378663198"><ele>36.0</ele><time>2026-04-06T17:26:38.91Z</time></trkpt><trkpt lat="45.42367925804296" lon="11.33915667338069"><ele>36.0</ele><time>2026-04-06T17:26:39.91Z</time></trkpt><trkpt lat="45.42381912760372" lon="11.33936753961093"><ele>36.0</ele><time>2026-04-06T17:26:40.91Z</time></trkpt><trkpt lat="45.42396416376471" lon="11.339592016316969"><ele>36.0</ele><time>2026-04-06T17:26:41.91Z</time></trkpt><trkpt lat="45.42410393452831" lon="11.339818457359137"><ele>36.0</ele><time>2026-04-06T17:26:42.91Z</time></trkpt><trkpt lat="45.42422748218895" lon="11.340039812179189"><ele>36.0</ele><time>2026-04-06T17:26:43.91Z</time></trkpt><trkpt lat="45.424339210697696" lon="11.340263434968323"><ele>36.0</ele><time>2026-04-06T17:26:44.91Z</time></trkpt><trkpt lat="45.42445661573882" lon="11.340481269501243"><ele>36.0</ele><time>2026-04-06T17:26:45.91Z</time></trkpt><trkpt lat="45.42457656350048" lon="11.34070342183717"><ele>35.666666666666664</ele><time>2026-04-06T17:26:46.91Z</time></trkpt><trkpt lat="45.424699034019376" lon="11.340931212776582"><ele>35.33333333333333</ele><time>2026-04-06T17:26:47.91Z</time></trkpt><trkpt lat="45.42482321763717" lon="11.341153947762031"><ele>35.0</ele><time>2026-04-06T17:26:48.91Z</time></trkpt><trkpt lat="45.42494340805719" lon="11.341366208881823"><ele>35.0</ele><time>2026-04-06T17:26:49.91Z</time></trkpt><trkpt lat="45.42506515864759" lon="11.341580145156218"><ele>35.0</ele><time>2026-04-06T17:26:50.91Z</time></trkpt><trkpt lat="45.425199771955484" lon="11.341822416280985"><ele>35.0</ele><time>2026-04-06T17:26:51.91Z</time></trkpt><trkpt lat="45.425340360445496" lon="11.342083921909051"><ele>34.0</ele><time>2026-04-06T17:26:52.91Z</time></trkpt><trkpt lat="45.42549318833716" lon="11.342363005772249"><ele>33.0</ele><time>2026-04-06T17:26:53.91Z</time></trkpt><trkpt lat="45.42565042896135" lon="11.342658119167721"><ele>33.0</ele><time>2026-04-06T17:26:54.91Z</time></trkpt><trkpt lat="45.425814345535876" lon="11.342962574728991"><ele>33.0</ele><time>2026-04-06T17:26:55.91Z</time></trkpt><trkpt lat="45.425985052096806" lon="11.343280008298441"><ele>33.0</ele><time>2026-04-06T17:26:56.91Z</time></trkpt><trkpt lat="45.42616340838689" lon="11.343609833216004"><ele>33.0</ele><time>2026-04-06T17:26:57.91Z</time></trkpt><trkpt lat="45.426347393063466" lon="11.343949609690343"><ele>34.5</ele><time>2026-04-06T17:26:58.91Z</time></trkpt><trkpt lat="45.42653728656769" lon="11.344296901951466"><ele>36.0</ele><time>2026-04-06T17:26:59.91Z</time></trkpt><trkpt lat="45.42671922842204" lon="11.344627692739643"><ele>36.0</ele><time>2026-04-06T17:27:00.91Z</time></trkpt><trkpt lat="45.426882614668244" lon="11.344929524361675"><ele>36.0</ele><time>2026-04-06T17:27:01.91Z</time></trkpt><trkpt lat="45.42703890364836" lon="11.34521791346827"><ele>36.0</ele><time>2026-04-06T17:27:02.91Z</time></trkpt><trkpt lat="45.427190151925636" lon="11.34550021266588"><ele>36.0</ele><time>2026-04-06T17:27:03.91Z</time></trkpt><trkpt lat="45.427345005674184" lon="11.345785976244766"><ele>36.0</ele><time>2026-04-06T17:27:04.91Z</time></trkpt><trkpt lat="45.42749713052822" lon="11.346066672060884"><ele>36.0</ele><time>2026-04-06T17:27:05.91Z</time></trkpt><trkpt lat="45.427650580635664" lon="11.34634280680983"><ele>37.0</ele><time>2026-04-06T17:27:06.91Z</time></trkpt><trkpt lat="45.42780062989269" lon="11.346618483650195"><ele>38.0</ele><time>2026-04-06T17:27:07.91Z</time></trkpt><trkpt lat="45.42795045227688" lon="11.346896973347665"><ele>37.5</ele><time>2026-04-06T17:27:08.91Z</time></trkpt><trkpt lat="45.42809365550502" lon="11.347160814784248"><ele>37.0</ele><time>2026-04-06T17:27:09.91Z</time></trkpt><trkpt lat="45.42823129074258" lon="11.347419363114996"><ele>37.0</ele><time>2026-04-06T17:27:10.91Z</time></trkpt><trkpt lat="45.42837547558859" lon="11.347683285912954"><ele>37.0</ele><time>2026-04-06T17:27:11.91Z</time></trkpt><trkpt lat="45.428512374333714" lon="11.347922658958204"><ele>36.66666666666667</ele><time>2026-04-06T17:27:12.91Z</time></trkpt><trkpt lat="45.428636623099074" lon="11.348153475372266"><ele>36.333333333333336</ele><time>2026-04-06T17:27:13.91Z</time></trkpt><trkpt lat="45.42876661879224" lon="11.348394865602955"><ele>36.0</ele><time>2026-04-06T17:27:14.91Z</time></trkpt><trkpt lat="45.428900799680115" lon="11.348639256051635"><ele>36.0</ele><time>2026-04-06T17:27:15.91Z</time></trkpt><trkpt lat="45.42903536618774" lon="11.348889955839336"><ele>36.0</ele><time>2026-04-06T17:27:16.91Z</time></trkpt><trkpt lat="45.42917495296209" lon="11.349151091540095"><ele>36.0</ele><time>2026-04-06T17:27:17.91Z</time></trkpt><trkpt lat="45.429321228048416" lon="11.349427719063252"><ele>36.0</ele><time>2026-04-06T17:27:18.91Z</time></trkpt><trkpt lat="45.42947301426872" lon="11.349711015079256"><ele>36.5</ele><time>2026-04-06T17:27:19.91Z</time></trkpt><trkpt lat="45.42965631072327" lon="11.350031622552661"><ele>37.0</ele><time>2026-04-06T17:27:20.91Z</time></trkpt><trkpt lat="45.429787827584185" lon="11.350306128757119"><ele>36.5</ele><time>2026-04-06T17:27:21.91Z</time></trkpt><trkpt lat="45.42994360141687" lon="11.350607265822411"><ele>36.0</ele><time>2026-04-06T17:27:22.91Z</time></trkpt><trkpt lat="45.43010811374123" lon="11.350917403297688"><ele>36.0</ele><time>2026-04-06T17:27:23.91Z</time></trkpt><trkpt lat="45.43027097867177" lon="11.351199031219151"><ele>36.0</ele><time>2026-04-06T17:27:24.91Z</time></trkpt><trkpt lat="45.43042083400076" lon="11.351454379341028"><ele>37.0</ele><time>2026-04-06T17:27:25.91Z</time></trkpt><trkpt lat="45.43056902828912" lon="11.351719055029243"><ele>38.0</ele><time>2026-04-06T17:27:26.91Z</time></trkpt><trkpt lat="45.43071957925405" lon="11.351989821067995"><ele>38.0</ele><time>2026-04-06T17:27:27.91Z</time></trkpt><trkpt lat="45.43087703564658" lon="11.352281579804325"><ele>38.0</ele><time>2026-04-06T17:27:28.91Z</time></trkpt><trkpt lat="45.43103891903063" lon="11.352585932791744"><ele>38.0</ele><time>2026-04-06T17:27:29.91Z</time></trkpt><trkpt lat="45.43121093114442" lon="11.35290962832005"><ele>38.0</ele><time>2026-04-06T17:27:30.91Z</time></trkpt><trkpt lat="45.43139102544483" lon="11.353239961460519"><ele>38.0</ele><time>2026-04-06T17:27:31.91Z</time></trkpt><trkpt lat="45.43157808843585" lon="11.353583896550806"><ele>38.0</ele><time>2026-04-06T17:27:32.91Z</time></trkpt><trkpt lat="45.431774792358375" lon="11.353942775467107"><ele>38.0</ele><time>2026-04-06T17:27:33.91Z</time></trkpt><trkpt lat="45.43197584280814" lon="11.354306062330823"><ele>38.0</ele><time>2026-04-06T17:27:34.91Z</time></trkpt><trkpt lat="45.432178867976255" lon="11.354680530347459"><ele>38.0</ele><time>2026-04-06T17:27:35.91Z</time></trkpt><trkpt lat="45.432381389748436" lon="11.355069023390575"><ele>38.0</ele><time>2026-04-06T17:27:36.91Z</time></trkpt><trkpt lat="45.432582624795955" lon="11.355456508707242"><ele>38.0</ele><time>2026-04-06T17:27:37.91Z</time></trkpt><trkpt lat="45.432776954603206" lon="11.355824789013436"><ele>38.0</ele><time>2026-04-06T17:27:38.91Z</time></trkpt><trkpt lat="45.4329733618795" lon="11.35617120920378"><ele>38.0</ele><time>2026-04-06T17:27:39.91Z</time></trkpt><trkpt lat="45.4331560704563" lon="11.356506710517097"><ele>38.0</ele><time>2026-04-06T17:27:40.91Z</time></trkpt><trkpt lat="45.43333566850483" lon="11.356837077694832"><ele>38.0</ele><time>2026-04-06T17:27:41.91Z</time></trkpt><trkpt lat="45.433512753275664" lon="11.35716788158243"><ele>38.0</ele><time>2026-04-06T17:27:42.91Z</time></trkpt><trkpt lat="45.433677002478966" lon="11.357468331234815"><ele>38.5</ele><time>2026-04-06T17:27:43.91Z</time></trkpt><trkpt lat="45.433853398472486" lon="11.357784713611506"><ele>39.0</ele><time>2026-04-06T17:27:44.91Z</time></trkpt><trkpt lat="45.4340314235726" lon="11.358104646118356"><ele>39.0</ele><time>2026-04-06T17:27:45.91Z</time></trkpt><trkpt lat="45.4342095879845" lon="11.358429590536675"><ele>39.0</ele><time>2026-04-06T17:27:46.91Z</time></trkpt><trkpt lat="45.434385030250986" lon="11.358752405807262"><ele>37.5</ele><time>2026-04-06T17:27:47.91Z</time></trkpt><trkpt lat="45.43456134872902" lon="11.35907815172724"><ele>36.0</ele><time>2026-04-06T17:27:48.91Z</time></trkpt><trkpt lat="45.43474002613786" lon="11.359402058080175"><ele>36.5</ele><time>2026-04-06T17:27:49.91Z</time></trkpt><trkpt lat="45.4349199381266" lon="11.359728609823962"><ele>37.0</ele><time>2026-04-06T17:27:50.91Z</time></trkpt><trkpt lat="45.4350994762518" lon="11.360056359632434"><ele>37.0</ele><time>2026-04-06T17:27:51.91Z</time></trkpt><trkpt lat="45.43528025587405" lon="11.360385866680407"><ele>37.0</ele><time>2026-04-06T17:27:52.91Z</time></trkpt><trkpt lat="45.43546090051047" lon="11.36071650577458"><ele>37.0</ele><time>2026-04-06T17:27:53.91Z</time></trkpt><trkpt lat="45.435639919695255" lon="11.36104748415538"><ele>37.0</ele><time>2026-04-06T17:27:54.91Z</time></trkpt><trkpt lat="45.43581674559604" lon="11.36137334238391"><ele>38.0</ele><time>2026-04-06T17:27:55.91Z</time></trkpt><trkpt lat="45.43599185833806" lon="11.361693853155616"><ele>39.0</ele><time>2026-04-06T17:27:56.91Z</time></trkpt><trkpt lat="45.4361627895167" lon="11.362005652414236"><ele>38.5</ele><time>2026-04-06T17:27:57.91Z</time></trkpt><trkpt lat="45.436334512132035" lon="11.36231372292329"><ele>38.0</ele><time>2026-04-06T17:27:58.91Z</time></trkpt><trkpt lat="45.43650887880587" lon="11.362624968418999"><ele>38.0</ele><time>2026-04-06T17:27:59.91Z</time></trkpt><trkpt lat="45.436681688500094" lon="11.36294228702945"><ele>38.0</ele><time>2026-04-06T17:28:00.91Z</time></trkpt><trkpt lat="45.43685239325952" lon="11.363256387909052"><ele>38.5</ele><time>2026-04-06T17:28:01.91Z</time></trkpt><trkpt lat="45.4370237031002" lon="11.363568700420108"><ele>39.0</ele><time>2026-04-06T17:28:02.91Z</time></trkpt><trkpt lat="45.43719464018866" lon="11.36388507067455"><ele>37.0</ele><time>2026-04-06T17:28:03.91Z</time></trkpt><trkpt lat="45.437367289794516" lon="11.364202648602623"><ele>35.0</ele><time>2026-04-06T17:28:04.91Z</time></trkpt><trkpt lat="45.43754301901973" lon="11.364526235503263"><ele>36.0</ele><time>2026-04-06T17:28:05.91Z</time></trkpt><trkpt lat="45.43771977229131" lon="11.36485435211212"><ele>37.0</ele><time>2026-04-06T17:28:06.91Z</time></trkpt><trkpt lat="45.4378975920899" lon="11.365179646000264"><ele>37.5</ele><time>2026-04-06T17:28:07.91Z</time></trkpt><trkpt lat="45.43807574317709" lon="11.365504572238029"><ele>38.0</ele><time>2026-04-06T17:28:08.91Z</time></trkpt><trkpt lat="45.438250366100945" lon="11.365825479740593"><ele>40.0</ele><time>2026-04-06T17:28:09.91Z</time></trkpt><trkpt lat="45.43842319631917" lon="11.366143321998797"><ele>42.0</ele><time>2026-04-06T17:28:10.91Z</time></trkpt><trkpt lat="45.43859316251348" lon="11.366460442421428"><ele>42.0</ele><time>2026-04-06T17:28:11.91Z</time></trkpt><trkpt lat="45.43876277552134" lon="11.36676939172964"><ele>42.0</ele><time>2026-04-06T17:28:12.91Z</time></trkpt><trkpt lat="45.438926201790665" lon="11.36706570973025"><ele>41.5</ele><time>2026-04-06T17:28:13.91Z</time></trkpt><trkpt lat="45.4390916951994" lon="11.367348262219359"><ele>41.0</ele><time>2026-04-06T17:28:14.91Z</time></trkpt><trkpt lat="45.439261304148346" lon="11.367623628401669"><ele>41.0</ele><time>2026-04-06T17:28:15.91Z</time></trkpt><trkpt lat="45.43943332670168" lon="11.367892641834278"><ele>41.0</ele><time>2026-04-06T17:28:16.91Z</time></trkpt><trkpt lat="45.43960584408298" lon="11.368158371274351"><ele>41.0</ele><time>2026-04-06T17:28:17.91Z</time></trkpt><trkpt lat="45.43977198697778" lon="11.368420628589114"><ele>41.0</ele><time>2026-04-06T17:28:18.91Z</time></trkpt><trkpt lat="45.43993454887565" lon="11.368678099512698"><ele>41.0</ele><time>2026-04-06T17:28:19.91Z</time></trkpt><trkpt lat="45.44008825876542" lon="11.368919628580258"><ele>41.0</ele><time>2026-04-06T17:28:20.91Z</time></trkpt><trkpt lat="45.44023569280599" lon="11.369148365176287"><ele>41.0</ele><time>2026-04-06T17:28:21.91Z</time></trkpt><trkpt lat="45.44038174043445" lon="11.369376997435445"><ele>41.0</ele><time>2026-04-06T17:28:22.91Z</time></trkpt><trkpt lat="45.44053178122603" lon="11.369600578280629"><ele>41.0</ele><time>2026-04-06T17:28:23.91Z</time></trkpt><trkpt lat="45.44068528946541" lon="11.369799015719254"><ele>41.0</ele><time>2026-04-06T17:28:24.91Z</time></trkpt><trkpt lat="45.440843799886686" lon="11.369977135643339"><ele>41.33333333333333</ele><time>2026-04-06T17:28:25.91Z</time></trkpt><trkpt lat="45.4410036230213" lon="11.370135000937665"><ele>41.666666666666664</ele><time>2026-04-06T17:28:26.91Z</time></trkpt><trkpt lat="45.44117325360593" lon="11.37025853018229"><ele>42.0</ele><time>2026-04-06T17:28:27.91Z</time></trkpt><trkpt lat="45.44134177480761" lon="11.37037396430701"><ele>42.0</ele><time>2026-04-06T17:28:28.91Z</time></trkpt><trkpt lat="45.44150926171396" lon="11.370486775764618"><ele>42.0</ele><time>2026-04-06T17:28:29.91Z</time></trkpt><trkpt lat="45.44166520962071" lon="11.370593489917374"><ele>42.0</ele><time>2026-04-06T17:28:30.91Z</time></trkpt><trkpt lat="45.44181626767605" lon="11.370700822489663"><ele>42.0</ele><time>2026-04-06T17:28:31.91Z</time></trkpt><trkpt lat="45.441957704208086" lon="11.370810554346756"><ele>42.0</ele><time>2026-04-06T17:28:32.91Z</time></trkpt><trkpt lat="45.44210333486344" lon="11.370924925397235"><ele>42.0</ele><time>2026-04-06T17:28:33.91Z</time></trkpt><trkpt lat="45.4422446018765" lon="11.371053237088207"><ele>42.0</ele><time>2026-04-06T17:28:34.91Z</time></trkpt><trkpt lat="45.44238259557212" lon="11.371197496792332"><ele>42.0</ele><time>2026-04-06T17:28:35.91Z</time></trkpt><trkpt lat="45.44251623634429" lon="11.37136268391969"><ele>42.0</ele><time>2026-04-06T17:28:36.91Z</time></trkpt><trkpt lat="45.442643333973706" lon="11.371543367912867"><ele>42.0</ele><time>2026-04-06T17:28:37.91Z</time></trkpt><trkpt lat="45.44276845510909" lon="11.371738981091728"><ele>42.0</ele><time>2026-04-06T17:28:38.91Z</time></trkpt><trkpt lat="45.44288667786118" lon="11.371944523833164"><ele>42.0</ele><time>2026-04-06T17:28:39.91Z</time></trkpt><trkpt lat="45.442994363689365" lon="11.372147697323902"><ele>42.666666666666664</ele><time>2026-04-06T17:28:40.91Z</time></trkpt><trkpt lat="45.44309558501267" lon="11.372347602149242"><ele>43.33333333333333</ele><time>2026-04-06T17:28:41.91Z</time></trkpt><trkpt lat="45.443192863205006" lon="11.372537709531551"><ele>44.0</ele><time>2026-04-06T17:28:42.91Z</time></trkpt><trkpt lat="45.44328573214093" lon="11.372721641874909"><ele>44.0</ele><time>2026-04-06T17:28:43.91Z</time></trkpt><trkpt lat="45.44336518766089" lon="11.372898342159088"><ele>44.0</ele><time>2026-04-06T17:28:44.91Z</time></trkpt><trkpt lat="45.44345478537868" lon="11.373069840974262"><ele>44.0</ele><time>2026-04-06T17:28:45.91Z</time></trkpt><trkpt lat="45.44353695464231" lon="11.373236811143673"><ele>44.0</ele><time>2026-04-06T17:28:46.91Z</time></trkpt><trkpt lat="45.44362208025755" lon="11.373390554411712"><ele>44.0</ele><time>2026-04-06T17:28:47.91Z</time></trkpt><trkpt lat="45.44370518664219" lon="11.373530596648857"><ele>44.0</ele><time>2026-04-06T17:28:48.91Z</time></trkpt><trkpt lat="45.443773615508476" lon="11.37366579715181"><ele>44.0</ele><time>2026-04-06T17:28:49.91Z</time></trkpt><trkpt lat="45.44385340793047" lon="11.373786971586814"><ele>44.0</ele><time>2026-04-06T17:28:50.91Z</time></trkpt><trkpt lat="45.443933305492614" lon="11.373895012778554"><ele>44.25</ele><time>2026-04-06T17:28:51.91Z</time></trkpt><trkpt lat="45.444011156995956" lon="11.37399741766835"><ele>44.5</ele><time>2026-04-06T17:28:52.91Z</time></trkpt><trkpt lat="45.444076400871246" lon="11.374135900975313"><ele>44.75</ele><time>2026-04-06T17:28:53.91Z</time></trkpt><trkpt lat="45.44410350290626" lon="11.374304976086913"><ele>45.0</ele><time>2026-04-06T17:28:54.91Z</time></trkpt><trkpt lat="45.444122904608115" lon="11.374479470327657"><ele>45.0</ele><time>2026-04-06T17:28:55.91Z</time></trkpt><trkpt lat="45.44418518070032" lon="11.374625942957008"><ele>45.0</ele><time>2026-04-06T17:28:56.91Z</time></trkpt><trkpt lat="45.44428302848918" lon="11.3747299166896"><ele>45.0</ele><time>2026-04-06T17:28:57.91Z</time></trkpt><trkpt lat="45.44440153142959" lon="11.374795357768637"><ele>45.0</ele><time>2026-04-06T17:28:58.91Z</time></trkpt><trkpt lat="45.44445554527654" lon="11.374980108333308"><ele>45.0</ele><time>2026-04-06T17:28:59.91Z</time></trkpt><trkpt lat="45.4445317344698" lon="11.375146120089287"><ele>45.0</ele><time>2026-04-06T17:29:00.91Z</time></trkpt><trkpt lat="45.4445994592004" lon="11.375300040607224"><ele>45.0</ele><time>2026-04-06T17:29:01.91Z</time></trkpt><trkpt lat="45.44468048959314" lon="11.375439611194913"><ele>45.0</ele><time>2026-04-06T17:29:02.91Z</time></trkpt><trkpt lat="45.44477306721117" lon="11.375593830462012"><ele>45.0</ele><time>2026-04-06T17:29:03.91Z</time></trkpt><trkpt lat="45.44487797776259" lon="11.375779035043006"><ele>45.0</ele><time>2026-04-06T17:29:04.91Z</time></trkpt><trkpt lat="45.44500797966919" lon="11.376016666245857"><ele>45.0</ele><time>2026-04-06T17:29:05.91Z</time></trkpt><trkpt lat="45.445103053463505" lon="11.376182107504603"><ele>45.0</ele><time>2026-04-06T17:29:06.91Z</time></trkpt><trkpt lat="45.44524317459529" lon="11.376412641561515"><ele>45.0</ele><time>2026-04-06T17:29:07.91Z</time></trkpt><trkpt lat="45.44538444055551" lon="11.376675995051562"><ele>45.0</ele><time>2026-04-06T17:29:08.91Z</time></trkpt><trkpt lat="45.44553313454015" lon="11.376947592295181"><ele>44.666666666666664</ele><time>2026-04-06T17:29:09.91Z</time></trkpt><trkpt lat="45.445668080389524" lon="11.377188524825783"><ele>44.33333333333333</ele><time>2026-04-06T17:29:10.91Z</time></trkpt><trkpt lat="45.44580426484486" lon="11.37741830606523"><ele>44.0</ele><time>2026-04-06T17:29:11.91Z</time></trkpt><trkpt lat="45.44595233136478" lon="11.377645645128839"><ele>44.0</ele><time>2026-04-06T17:29:12.91Z</time></trkpt><trkpt lat="45.446113852527326" lon="11.377862443488032"><ele>44.0</ele><time>2026-04-06T17:29:13.911Z</time></trkpt><trkpt lat="45.44628270153588" lon="11.378090701730624"><ele>43.5</ele><time>2026-04-06T17:29:14.911Z</time></trkpt><trkpt lat="45.446460821331264" lon="11.378338475306581"><ele>43.0</ele><time>2026-04-06T17:29:15.911Z</time></trkpt><trkpt lat="45.44664751027102" lon="11.378602662353831"><ele>44.0</ele><time>2026-04-06T17:29:16.911Z</time></trkpt><trkpt lat="45.446846265460444" lon="11.378873437138617"><ele>45.0</ele><time>2026-04-06T17:29:17.911Z</time></trkpt><trkpt lat="45.44703670596155" lon="11.379140039768417"><ele>46.0</ele><time>2026-04-06T17:29:18.911Z</time></trkpt><trkpt lat="45.4472189545045" lon="11.379393097919811"><ele>47.0</ele><time>2026-04-06T17:29:19.911Z</time></trkpt><trkpt lat="45.447400883100485" lon="11.379641874379594"><ele>48.0</ele><time>2026-04-06T17:29:20.911Z</time></trkpt><trkpt lat="45.44759055605115" lon="11.379904475617575"><ele>49.0</ele><time>2026-04-06T17:29:21.911Z</time></trkpt><trkpt lat="45.447783796023316" lon="11.380184521461036"><ele>48.5</ele><time>2026-04-06T17:29:22.911Z</time></trkpt><trkpt lat="45.44797809227897" lon="11.380472177244163"><ele>48.0</ele><time>2026-04-06T17:29:23.911Z</time></trkpt><trkpt lat="45.448183181985485" lon="11.380761709977614"><ele>48.0</ele><time>2026-04-06T17:29:24.911Z</time></trkpt><trkpt lat="45.44839278573086" lon="11.381056061130277"><ele>48.0</ele><time>2026-04-06T17:29:25.911Z</time></trkpt><trkpt lat="45.44861273838186" lon="11.381354947470177"><ele>47.0</ele><time>2026-04-06T17:29:26.911Z</time></trkpt><trkpt lat="45.4488395125167" lon="11.381658807977603"><ele>46.0</ele><time>2026-04-06T17:29:27.911Z</time></trkpt><trkpt lat="45.44907396655636" lon="11.381969312015453"><ele>47.0</ele><time>2026-04-06T17:29:28.911Z</time></trkpt><trkpt lat="45.449311840851166" lon="11.382290938644442"><ele>48.0</ele><time>2026-04-06T17:29:29.911Z</time></trkpt><trkpt lat="45.44955459514437" lon="11.382629019488043"><ele>48.0</ele><time>2026-04-06T17:29:30.911Z</time></trkpt><trkpt lat="45.44979387063731" lon="11.382974851492841"><ele>48.0</ele><time>2026-04-06T17:29:31.911Z</time></trkpt><trkpt lat="45.45001078476724" lon="11.383304662066307"><ele>48.0</ele><time>2026-04-06T17:29:32.911Z</time></trkpt><trkpt lat="45.45020155654276" lon="11.383617085273611"><ele>48.0</ele><time>2026-04-06T17:29:33.911Z</time></trkpt><trkpt lat="45.45037492743378" lon="11.383918268991277"><ele>48.5</ele><time>2026-04-06T17:29:34.911Z</time></trkpt><trkpt lat="45.450540136083305" lon="11.384221697000834"><ele>49.0</ele><time>2026-04-06T17:29:35.911Z</time></trkpt><trkpt lat="45.450707484536615" lon="11.384511069547363"><ele>48.5</ele><time>2026-04-06T17:29:36.911Z</time></trkpt><trkpt lat="45.45087458162061" lon="11.384783853716804"><ele>48.0</ele><time>2026-04-06T17:29:37.911Z</time></trkpt><trkpt lat="45.45104148873191" lon="11.385047561282821"><ele>48.0</ele><time>2026-04-06T17:29:38.911Z</time></trkpt><trkpt lat="45.451199381533954" lon="11.38530778017581"><ele>48.0</ele><time>2026-04-06T17:29:39.911Z</time></trkpt><trkpt lat="45.45136589561616" lon="11.385562791346628"><ele>50.0</ele><time>2026-04-06T17:29:40.911Z</time></trkpt><trkpt lat="45.45154182515452" lon="11.38581520801185"><ele>52.0</ele><time>2026-04-06T17:29:41.911Z</time></trkpt><trkpt lat="45.451723182099926" lon="11.38606517494322"><ele>52.0</ele><time>2026-04-06T17:29:42.911Z</time></trkpt><trkpt lat="45.4519081653884" lon="11.386314651647577"><ele>52.0</ele><time>2026-04-06T17:29:43.911Z</time></trkpt><trkpt lat="45.45209920612943" lon="11.386563879089502"><ele>52.5</ele><time>2026-04-06T17:29:44.911Z</time></trkpt><trkpt lat="45.452296501102154" lon="11.386807707018265"><ele>53.0</ele><time>2026-04-06T17:29:45.911Z</time></trkpt><trkpt lat="45.45249324869941" lon="11.387056711875825"><ele>52.0</ele><time>2026-04-06T17:29:46.911Z</time></trkpt><trkpt lat="45.45268924341522" lon="11.38730387910872"><ele>51.0</ele><time>2026-04-06T17:29:47.911Z</time></trkpt><trkpt lat="45.452886743765895" lon="11.38755400235186"><ele>51.5</ele><time>2026-04-06T17:29:48.911Z</time></trkpt><trkpt lat="45.45308120623582" lon="11.387800810998815"><ele>52.0</ele><time>2026-04-06T17:29:49.911Z</time></trkpt><trkpt lat="45.45326653847836" lon="11.388045017577083"><ele>52.0</ele><time>2026-04-06T17:29:50.911Z</time></trkpt><trkpt lat="45.453453152550814" lon="11.388284282009188"><ele>52.0</ele><time>2026-04-06T17:29:51.911Z</time></trkpt><trkpt lat="45.453641697162844" lon="11.38852065802876"><ele>52.0</ele><time>2026-04-06T17:29:52.911Z</time></trkpt><trkpt lat="45.45382755428452" lon="11.388756268823997"><ele>52.0</ele><time>2026-04-06T17:29:53.911Z</time></trkpt><trkpt lat="45.45400159288637" lon="11.388979523300666"><ele>52.33333333333333</ele><time>2026-04-06T17:29:54.911Z</time></trkpt><trkpt lat="45.45416423678787" lon="11.389188776875086"><ele>52.66666666666667</ele><time>2026-04-06T17:29:55.911Z</time></trkpt><trkpt lat="45.45431595509921" lon="11.389384564251644"><ele>53.0</ele><time>2026-04-06T17:29:56.911Z</time></trkpt><trkpt lat="45.4544598097681" lon="11.389556179489068"><ele>53.0</ele><time>2026-04-06T17:29:57.911Z</time></trkpt><trkpt lat="45.4546002933835" lon="11.389722753834851"><ele>53.0</ele><time>2026-04-06T17:29:58.911Z</time></trkpt><trkpt lat="45.45474740270577" lon="11.389860527939941"><ele>53.0</ele><time>2026-04-06T17:29:59.911Z</time></trkpt><trkpt lat="45.45490419026776" lon="11.389982347166496"><ele>53.0</ele><time>2026-04-06T17:30:00.911Z</time></trkpt><trkpt lat="45.45506499793887" lon="11.39006588154182"><ele>53.0</ele><time>2026-04-06T17:30:01.911Z</time></trkpt><trkpt lat="45.45521863575425" lon="11.390111204778718"><ele>53.0</ele><time>2026-04-06T17:30:02.911Z</time></trkpt><trkpt lat="45.45538342738825" lon="11.390104058078757"><ele>53.0</ele><time>2026-04-06T17:30:03.911Z</time></trkpt><trkpt lat="45.45555584876356" lon="11.390067528816179"><ele>53.0</ele><time>2026-04-06T17:30:04.911Z</time></trkpt><trkpt lat="45.455735585640234" lon="11.390018271629923"><ele>53.0</ele><time>2026-04-06T17:30:05.911Z</time></trkpt><trkpt lat="45.45592734150947" lon="11.389975008553176"><ele>53.0</ele><time>2026-04-06T17:30:06.911Z</time></trkpt><trkpt lat="45.4561274491482" lon="11.389932682351036"><ele>53.0</ele><time>2026-04-06T17:30:07.911Z</time></trkpt><trkpt lat="45.45632509408605" lon="11.389888788162422"><ele>53.0</ele><time>2026-04-06T17:30:08.911Z</time></trkpt><trkpt lat="45.4565036492771" lon="11.389849429774337"><ele>53.333333333333336</ele><time>2026-04-06T17:30:09.911Z</time></trkpt><trkpt lat="45.45667515342346" lon="11.389822509878448"><ele>53.66666666666667</ele><time>2026-04-06T17:30:10.911Z</time></trkpt><trkpt lat="45.45683699811546" lon="11.389806502806108"><ele>54.0</ele><time>2026-04-06T17:30:11.911Z</time></trkpt><trkpt lat="45.45699730597206" lon="11.389809457944308"><ele>54.2</ele><time>2026-04-06T17:30:12.911Z</time></trkpt><trkpt lat="45.45712370238181" lon="11.389820821759791"><ele>54.400000000000006</ele><time>2026-04-06T17:30:13.911Z</time></trkpt><trkpt lat="45.45722213062263" lon="11.389849634253617"><ele>54.6</ele><time>2026-04-06T17:30:14.911Z</time></trkpt><trkpt lat="45.45729500171154" lon="11.389924495661338"><ele>54.8</ele><time>2026-04-06T17:30:15.911Z</time></trkpt><trkpt lat="45.45734134388217" lon="11.390041646869197"><ele>55.0</ele><time>2026-04-06T17:30:16.911Z</time></trkpt><trkpt lat="45.45746399164863" lon="11.390119697839738"><ele>55.0</ele><time>2026-04-06T17:30:17.911Z</time></trkpt><trkpt lat="45.45750299031856" lon="11.390278393915603"><ele>55.0</ele><time>2026-04-06T17:30:18.911Z</time></trkpt><trkpt lat="45.457546661435735" lon="11.390433008140697"><ele>55.0</ele><time>2026-04-06T17:30:19.911Z</time></trkpt><trkpt lat="45.457631534733146" lon="11.390540348464087"><ele>55.0</ele><time>2026-04-06T17:30:20.911Z</time></trkpt><trkpt lat="45.45774732841332" lon="11.39059481569525"><ele>54.75</ele><time>2026-04-06T17:30:21.911Z</time></trkpt><trkpt lat="45.45786180165664" lon="11.390675912435896"><ele>54.5</ele><time>2026-04-06T17:30:22.911Z</time></trkpt><trkpt lat="45.45795927386133" lon="11.390832860628786"><ele>54.25</ele><time>2026-04-06T17:30:23.911Z</time></trkpt><trkpt lat="45.45803428509041" lon="11.391038722192608"><ele>54.0</ele><time>2026-04-06T17:30:24.911Z</time></trkpt><trkpt lat="45.45809532375844" lon="11.391271381105826"><ele>53.66666666666667</ele><time>2026-04-06T17:30:25.911Z</time></trkpt><trkpt lat="45.458153938247484" lon="11.39154166199468"><ele>53.333333333333336</ele><time>2026-04-06T17:30:26.911Z</time></trkpt><trkpt lat="45.4582146092933" lon="11.391787542309062"><ele>53.0</ele><time>2026-04-06T17:30:27.911Z</time></trkpt><trkpt lat="45.45829209192305" lon="11.392020325615693"><ele>53.0</ele><time>2026-04-06T17:30:28.911Z</time></trkpt><trkpt lat="45.45839632564202" lon="11.392244276706808"><ele>53.0</ele><time>2026-04-06T17:30:29.911Z</time></trkpt><trkpt lat="45.458515358309434" lon="11.39245070703832"><ele>53.0</ele><time>2026-04-06T17:30:30.911Z</time></trkpt><trkpt lat="45.4586340439644" lon="11.392666888128266"><ele>53.0</ele><time>2026-04-06T17:30:31.911Z</time></trkpt><trkpt lat="45.45875457299258" lon="11.392898900295766"><ele>53.0</ele><time>2026-04-06T17:30:32.911Z</time></trkpt><trkpt lat="45.458878539662635" lon="11.393124985481135"><ele>53.0</ele><time>2026-04-06T17:30:33.911Z</time></trkpt><trkpt lat="45.45900143877905" lon="11.393352006583502"><ele>52.333333333333336</ele><time>2026-04-06T17:30:34.911Z</time></trkpt><trkpt lat="45.45911618442304" lon="11.393574961505633"><ele>51.66666666666667</ele><time>2026-04-06T17:30:35.911Z</time></trkpt><trkpt lat="45.45922066474381" lon="11.39378444563704"><ele>51.0</ele><time>2026-04-06T17:30:36.911Z</time></trkpt><trkpt lat="45.45932395597052" lon="11.393985999352651"><ele>50.33333333333333</ele><time>2026-04-06T17:30:37.911Z</time></trkpt><trkpt lat="45.459431270640394" lon="11.394190847561635"><ele>49.666666666666664</ele><time>2026-04-06T17:30:38.911Z</time></trkpt><trkpt lat="45.45953890666136" lon="11.394392963490706"><ele>49.0</ele><time>2026-04-06T17:30:39.911Z</time></trkpt><trkpt lat="45.45963933188486" lon="11.39459979372732"><ele>49.33333333333333</ele><time>2026-04-06T17:30:40.911Z</time></trkpt><trkpt lat="45.45974304955622" lon="11.394807694359477"><ele>49.66666666666667</ele><time>2026-04-06T17:30:41.911Z</time></trkpt><trkpt lat="45.45985331207089" lon="11.395019717048383"><ele>50.0</ele><time>2026-04-06T17:30:42.911Z</time></trkpt><trkpt lat="45.459966907942515" lon="11.395236469049367"><ele>50.0</ele><time>2026-04-06T17:30:43.911Z</time></trkpt><trkpt lat="45.46008073050603" lon="11.395459206418593"><ele>50.0</ele><time>2026-04-06T17:30:44.911Z</time></trkpt><trkpt lat="45.46020127684345" lon="11.395688510157687"><ele>50.0</ele><time>2026-04-06T17:30:45.911Z</time></trkpt><trkpt lat="45.46032032485108" lon="11.395919397061746"><ele>50.66666666666667</ele><time>2026-04-06T17:30:46.911Z</time></trkpt><trkpt lat="45.46043963122287" lon="11.396149610372838"><ele>51.33333333333333</ele><time>2026-04-06T17:30:47.911Z</time></trkpt><trkpt lat="45.460559271749815" lon="11.396384185076558"><ele>52.0</ele><time>2026-04-06T17:30:48.911Z</time></trkpt><trkpt lat="45.46067926719919" lon="11.396616501611934"><ele>52.0</ele><time>2026-04-06T17:30:49.911Z</time></trkpt><trkpt lat="45.4607966704762" lon="11.396841828599895"><ele>52.0</ele><time>2026-04-06T17:30:50.911Z</time></trkpt><trkpt lat="45.46090526010391" lon="11.397053794616411"><ele>52.0</ele><time>2026-04-06T17:30:51.911Z</time></trkpt><trkpt lat="45.46101026315063" lon="11.397255296493947"><ele>52.0</ele><time>2026-04-06T17:30:52.911Z</time></trkpt><trkpt lat="45.46111189162612" lon="11.397446277675241"><ele>52.0</ele><time>2026-04-06T17:30:53.911Z</time></trkpt><trkpt lat="45.461209335798394" lon="11.397632520421256"><ele>52.0</ele><time>2026-04-06T17:30:54.911Z</time></trkpt><trkpt lat="45.46130363430475" lon="11.397820747005477"><ele>52.33333333333333</ele><time>2026-04-06T17:30:55.911Z</time></trkpt><trkpt lat="45.46140104510335" lon="11.39801234826819"><ele>52.66666666666667</ele><time>2026-04-06T17:30:56.911Z</time></trkpt><trkpt lat="45.46150026637135" lon="11.3982105020285"><ele>53.0</ele><time>2026-04-06T17:30:57.911Z</time></trkpt><trkpt lat="45.461599891103646" lon="11.398421626991974"><ele>53.0</ele><time>2026-04-06T17:30:58.911Z</time></trkpt><trkpt lat="45.461694275280394" lon="11.398648487704547"><ele>53.0</ele><time>2026-04-06T17:30:59.911Z</time></trkpt><trkpt lat="45.46177804662247" lon="11.39889126446052"><ele>53.0</ele><time>2026-04-06T17:31:00.911Z</time></trkpt><trkpt lat="45.461844238170606" lon="11.399130688454852"><ele>53.333333333333336</ele><time>2026-04-06T17:31:01.911Z</time></trkpt><trkpt lat="45.46189691633358" lon="11.39937405396766"><ele>53.66666666666667</ele><time>2026-04-06T17:31:02.911Z</time></trkpt><trkpt lat="45.46193517016482" lon="11.399612874791035"><ele>54.0</ele><time>2026-04-06T17:31:03.911Z</time></trkpt><trkpt lat="45.46196488111206" lon="11.399853520734169"><ele>54.66666666666667</ele><time>2026-04-06T17:31:04.911Z</time></trkpt><trkpt lat="45.462002560289726" lon="11.400090233807685"><ele>55.333333333333336</ele><time>2026-04-06T17:31:05.911Z</time></trkpt><trkpt lat="45.462033234031566" lon="11.40033227359618"><ele>56.0</ele><time>2026-04-06T17:31:06.911Z</time></trkpt><trkpt lat="45.462067198377774" lon="11.400564622858981"><ele>56.0</ele><time>2026-04-06T17:31:07.911Z</time></trkpt><trkpt lat="45.462097672606305" lon="11.400786766889771"><ele>56.0</ele><time>2026-04-06T17:31:08.911Z</time></trkpt><trkpt lat="45.46212623259644" lon="11.401004715758043"><ele>56.0</ele><time>2026-04-06T17:31:09.911Z</time></trkpt><trkpt lat="45.46215179096283" lon="11.401212633441629"><ele>56.333333333333336</ele><time>2026-04-06T17:31:10.911Z</time></trkpt><trkpt lat="45.462179374079994" lon="11.401438126845328"><ele>56.66666666666667</ele><time>2026-04-06T17:31:11.911Z</time></trkpt><trkpt lat="45.46221296480973" lon="11.40167976544857"><ele>57.0</ele><time>2026-04-06T17:31:12.911Z</time></trkpt><trkpt lat="45.46224625586536" lon="11.401921984480113"><ele>57.0</ele><time>2026-04-06T17:31:13.911Z</time></trkpt><trkpt lat="45.46228595545998" lon="11.402162787801903"><ele>57.0</ele><time>2026-04-06T17:31:14.911Z</time></trkpt><trkpt lat="45.46231994866713" lon="11.402379806818457"><ele>57.0</ele><time>2026-04-06T17:31:15.911Z</time></trkpt><trkpt lat="45.4623527186772" lon="11.40257522974918"><ele>56.25</ele><time>2026-04-06T17:31:16.911Z</time></trkpt><trkpt lat="45.46233118555351" lon="11.402763812126157"><ele>55.5</ele><time>2026-04-06T17:31:17.911Z</time></trkpt><trkpt lat="45.46238787440139" lon="11.402899608388276"><ele>54.75</ele><time>2026-04-06T17:31:18.911Z</time></trkpt><trkpt lat="45.462445228854186" lon="11.403105567010856"><ele>54.0</ele><time>2026-04-06T17:31:19.912Z</time></trkpt><trkpt lat="45.46266653164304" lon="11.403453608017335"><ele>54.0</ele><time>2026-04-06T17:31:20.912Z</time></trkpt><trkpt lat="45.46280089678371" lon="11.403666811692908"><ele>54.0</ele><time>2026-04-06T17:31:21.912Z</time></trkpt><trkpt lat="45.46295212275414" lon="11.403881825509352"><ele>54.0</ele><time>2026-04-06T17:31:22.912Z</time></trkpt><trkpt lat="45.46309625078242" lon="11.404064977283069"><ele>54.0</ele><time>2026-04-06T17:31:23.912Z</time></trkpt><trkpt lat="45.46324669199531" lon="11.40421728965339"><ele>54.0</ele><time>2026-04-06T17:31:24.912Z</time></trkpt><trkpt lat="45.46339832986967" lon="11.404357395491322"><ele>54.0</ele><time>2026-04-06T17:31:25.912Z</time></trkpt><trkpt lat="45.46355427071692" lon="11.404465717779546"><ele>54.0</ele><time>2026-04-06T17:31:26.912Z</time></trkpt><trkpt lat="45.46372281168099" lon="11.404564231861213"><ele>54.0</ele><time>2026-04-06T17:31:27.912Z</time></trkpt><trkpt lat="45.463898499342925" lon="11.404656068166153"><ele>54.0</ele><time>2026-04-06T17:31:28.912Z</time></trkpt><trkpt lat="45.464074985474085" lon="11.404748728439856"><ele>54.0</ele><time>2026-04-06T17:31:29.912Z</time></trkpt><trkpt lat="45.464231584081354" lon="11.404834002914592"><ele>54.0</ele><time>2026-04-06T17:31:30.912Z</time></trkpt><trkpt lat="45.46438729121228" lon="11.404921358871878"><ele>54.0</ele><time>2026-04-06T17:31:31.912Z</time></trkpt><trkpt lat="45.46454747898974" lon="11.40501151359371"><ele>54.33333333333333</ele><time>2026-04-06T17:31:32.912Z</time></trkpt><trkpt lat="45.46470198616459" lon="11.405089562734192"><ele>54.666666666666664</ele><time>2026-04-06T17:31:33.912Z</time></trkpt><trkpt lat="45.46485705573973" lon="11.40517220135333"><ele>55.0</ele><time>2026-04-06T17:31:34.912Z</time></trkpt><trkpt lat="45.46501476149685" lon="11.405268814889927"><ele>55.0</ele><time>2026-04-06T17:31:35.912Z</time></trkpt><trkpt lat="45.46518260177126" lon="11.405366496124786"><ele>55.0</ele><time>2026-04-06T17:31:36.912Z</time></trkpt><trkpt lat="45.46534044759179" lon="11.4054501858257"><ele>55.0</ele><time>2026-04-06T17:31:37.912Z</time></trkpt><trkpt lat="45.46549409745675" lon="11.405542128400615"><ele>55.0</ele><time>2026-04-06T17:31:38.912Z</time></trkpt><trkpt lat="45.46564152976169" lon="11.40562859632895"><ele>55.0</ele><time>2026-04-06T17:31:39.912Z</time></trkpt><trkpt lat="45.465786795395154" lon="11.405700301850006"><ele>55.0</ele><time>2026-04-06T17:31:40.912Z</time></trkpt><trkpt lat="45.465926084707064" lon="11.405785609011431"><ele>55.0</ele><time>2026-04-06T17:31:41.912Z</time></trkpt><trkpt lat="45.46606741743886" lon="11.405866424301824"><ele>55.0</ele><time>2026-04-06T17:31:42.912Z</time></trkpt><trkpt lat="45.466226947698445" lon="11.405960016585606"><ele>55.0</ele><time>2026-04-06T17:31:43.912Z</time></trkpt><trkpt lat="45.46641094930672" lon="11.406064034622919"><ele>53.5</ele><time>2026-04-06T17:31:44.912Z</time></trkpt><trkpt lat="45.46663856993735" lon="11.406194412047856"><ele>52.0</ele><time>2026-04-06T17:31:45.912Z</time></trkpt><trkpt lat="45.46685913467632" lon="11.406324192475436"><ele>52.0</ele><time>2026-04-06T17:31:46.912Z</time></trkpt><trkpt lat="45.4670655588696" lon="11.406443410882172"><ele>52.0</ele><time>2026-04-06T17:31:47.912Z</time></trkpt><trkpt lat="45.46725879395316" lon="11.406557365266803"><ele>52.0</ele><time>2026-04-06T17:31:48.912Z</time></trkpt><trkpt lat="45.46743763191133" lon="11.406662888434218"><ele>52.33333333333333</ele><time>2026-04-06T17:31:49.912Z</time></trkpt><trkpt lat="45.46761443319956" lon="11.406770285077997"><ele>52.66666666666667</ele><time>2026-04-06T17:31:50.912Z</time></trkpt><trkpt lat="45.467795234752856" lon="11.406882463018029"><ele>53.0</ele><time>2026-04-06T17:31:51.912Z</time></trkpt><trkpt lat="45.467979593570334" lon="11.406989384456475"><ele>53.0</ele><time>2026-04-06T17:31:52.912Z</time></trkpt><trkpt lat="45.46816443210414" lon="11.40709650765367"><ele>53.0</ele><time>2026-04-06T17:31:53.912Z</time></trkpt><trkpt lat="45.468345511864776" lon="11.407201278490763"><ele>53.0</ele><time>2026-04-06T17:31:54.912Z</time></trkpt><trkpt lat="45.46852561570593" lon="11.407306979476237"><ele>53.0</ele><time>2026-04-06T17:31:55.912Z</time></trkpt><trkpt lat="45.46871706431735" lon="11.407413255843137"><ele>53.0</ele><time>2026-04-06T17:31:56.912Z</time></trkpt><trkpt lat="45.46892085849074" lon="11.407556336885026"><ele>53.0</ele><time>2026-04-06T17:31:57.912Z</time></trkpt><trkpt lat="45.469149123016905" lon="11.40769093154982"><ele>53.5</ele><time>2026-04-06T17:31:58.912Z</time></trkpt><trkpt lat="45.46939364228902" lon="11.407835110691543"><ele>54.0</ele><time>2026-04-06T17:31:59.912Z</time></trkpt><trkpt lat="45.469652476897494" lon="11.407987730794364"><ele>55.0</ele><time>2026-04-06T17:32:00.912Z</time></trkpt><trkpt lat="45.469928335050774" lon="11.408125877857408"><ele>56.0</ele><time>2026-04-06T17:32:01.912Z</time></trkpt><trkpt lat="45.47021569771386" lon="11.408297057636155"><ele>54.0</ele><time>2026-04-06T17:32:02.912Z</time></trkpt><trkpt lat="45.47048935814315" lon="11.408461886936598"><ele>52.0</ele><time>2026-04-06T17:32:03.912Z</time></trkpt><trkpt lat="45.4707380743177" lon="11.408609884711591"><ele>52.0</ele><time>2026-04-06T17:32:04.912Z</time></trkpt><trkpt lat="45.47097827073494" lon="11.40875335038492"><ele>52.0</ele><time>2026-04-06T17:32:05.912Z</time></trkpt><trkpt lat="45.471218761594585" lon="11.408899715884337"><ele>53.0</ele><time>2026-04-06T17:32:06.912Z</time></trkpt><trkpt lat="45.47145874701006" lon="11.409039193387507"><ele>54.0</ele><time>2026-04-06T17:32:07.912Z</time></trkpt><trkpt lat="45.47169193089731" lon="11.409193922699187"><ele>54.0</ele><time>2026-04-06T17:32:08.912Z</time></trkpt><trkpt lat="45.47192739601192" lon="11.409357659708194"><ele>54.0</ele><time>2026-04-06T17:32:09.912Z</time></trkpt><trkpt lat="45.47215838694678" lon="11.409533278541788"><ele>53.5</ele><time>2026-04-06T17:32:10.912Z</time></trkpt><trkpt lat="45.472382518531" lon="11.409725466190231"><ele>53.0</ele><time>2026-04-06T17:32:11.912Z</time></trkpt><trkpt lat="45.47259863730204" lon="11.409931180596827"><ele>53.0</ele><time>2026-04-06T17:32:12.912Z</time></trkpt><trkpt lat="45.47281475049708" lon="11.410146628105295"><ele>53.0</ele><time>2026-04-06T17:32:13.912Z</time></trkpt><trkpt lat="45.473031923084385" lon="11.410357838152393"><ele>53.0</ele><time>2026-04-06T17:32:14.912Z</time></trkpt><trkpt lat="45.47323873622027" lon="11.410557006530599"><ele>53.0</ele><time>2026-04-06T17:32:15.912Z</time></trkpt><trkpt lat="45.47343480900778" lon="11.41074420504158"><ele>53.0</ele><time>2026-04-06T17:32:16.912Z</time></trkpt><trkpt lat="45.47363309908595" lon="11.41093409776322"><ele>53.0</ele><time>2026-04-06T17:32:17.912Z</time></trkpt><trkpt lat="45.473829376207036" lon="11.411129441267926"><ele>53.0</ele><time>2026-04-06T17:32:18.912Z</time></trkpt><trkpt lat="45.4740284411744" lon="11.411325581365167"><ele>53.0</ele><time>2026-04-06T17:32:19.912Z</time></trkpt><trkpt lat="45.474230229253166" lon="11.411519881452902"><ele>53.0</ele><time>2026-04-06T17:32:20.912Z</time></trkpt><trkpt lat="45.474429791979865" lon="11.411710048567603"><ele>53.0</ele><time>2026-04-06T17:32:21.912Z</time></trkpt><trkpt lat="45.47462675438419" lon="11.4118978143334"><ele>53.0</ele><time>2026-04-06T17:32:22.912Z</time></trkpt><trkpt lat="45.47482432249671" lon="11.41208263066975"><ele>53.0</ele><time>2026-04-06T17:32:23.912Z</time></trkpt><trkpt lat="45.47501769137637" lon="11.412264368832236"><ele>53.0</ele><time>2026-04-06T17:32:24.912Z</time></trkpt><trkpt lat="45.475207144831444" lon="11.412441423177826"><ele>53.0</ele><time>2026-04-06T17:32:25.912Z</time></trkpt><trkpt lat="45.475385079756016" lon="11.412613659509484"><ele>53.0</ele><time>2026-04-06T17:32:26.912Z</time></trkpt><trkpt lat="45.475566185652724" lon="11.4127840257427"><ele>53.0</ele><time>2026-04-06T17:32:27.912Z</time></trkpt><trkpt lat="45.47574332298091" lon="11.412943311990405"><ele>53.0</ele><time>2026-04-06T17:32:28.912Z</time></trkpt><trkpt lat="45.475903638948466" lon="11.41309950560084"><ele>53.0</ele><time>2026-04-06T17:32:29.912Z</time></trkpt><trkpt lat="45.47606384506322" lon="11.41325848771221"><ele>53.0</ele><time>2026-04-06T17:32:30.912Z</time></trkpt><trkpt lat="45.47623019407754" lon="11.41341602977168"><ele>53.0</ele><time>2026-04-06T17:32:31.912Z</time></trkpt><trkpt lat="45.47639526943697" lon="11.413568897127846"><ele>53.0</ele><time>2026-04-06T17:32:32.912Z</time></trkpt><trkpt lat="45.476565180721614" lon="11.4137208678524"><ele>53.66666666666667</ele><time>2026-04-06T17:32:33.912Z</time></trkpt><trkpt lat="45.47673092993153" lon="11.413874002577076"><ele>54.33333333333333</ele><time>2026-04-06T17:32:34.912Z</time></trkpt><trkpt lat="45.476892908269015" lon="11.41403465754847"><ele>55.0</ele><time>2026-04-06T17:32:35.912Z</time></trkpt><trkpt lat="45.47706050466318" lon="11.414197698581251"><ele>55.0</ele><time>2026-04-06T17:32:36.912Z</time></trkpt><trkpt lat="45.477229005091246" lon="11.41435796918213"><ele>55.0</ele><time>2026-04-06T17:32:37.912Z</time></trkpt><trkpt lat="45.477400278159756" lon="11.414515169396056"><ele>55.0</ele><time>2026-04-06T17:32:38.912Z</time></trkpt><trkpt lat="45.477565419295324" lon="11.414670153234455"><ele>55.0</ele><time>2026-04-06T17:32:39.912Z</time></trkpt><trkpt lat="45.477726860952664" lon="11.41482448803976"><ele>55.0</ele><time>2026-04-06T17:32:40.912Z</time></trkpt><trkpt lat="45.47788985497309" lon="11.41498002830192"><ele>55.0</ele><time>2026-04-06T17:32:41.912Z</time></trkpt><trkpt lat="45.47805208873719" lon="11.41513603515249"><ele>54.33333333333333</ele><time>2026-04-06T17:32:42.912Z</time></trkpt><trkpt lat="45.47821132318593" lon="11.415286812413731"><ele>53.66666666666667</ele><time>2026-04-06T17:32:43.912Z</time></trkpt><trkpt lat="45.47837324034575" lon="11.415436447324078"><ele>53.0</ele><time>2026-04-06T17:32:44.912Z</time></trkpt><trkpt lat="45.4785407864297" lon="11.415585200932012"><ele>53.0</ele><time>2026-04-06T17:32:45.912Z</time></trkpt><trkpt lat="45.47869679745104" lon="11.415738804098723"><ele>53.0</ele><time>2026-04-06T17:32:46.912Z</time></trkpt><trkpt lat="45.47885753469664" lon="11.415882692880801"><ele>53.0</ele><time>2026-04-06T17:32:47.912Z</time></trkpt><trkpt lat="45.479021621368965" lon="11.416034820749216"><ele>53.0</ele><time>2026-04-06T17:32:48.912Z</time></trkpt><trkpt lat="45.47918681309053" lon="11.416193774587448"><ele>53.0</ele><time>2026-04-06T17:32:49.912Z</time></trkpt><trkpt lat="45.47934375939079" lon="11.416344381701073"><ele>53.0</ele><time>2026-04-06T17:32:50.912Z</time></trkpt><trkpt lat="45.479518479010764" lon="11.416496554268907"><ele>54.66666666666667</ele><time>2026-04-06T17:32:51.912Z</time></trkpt><trkpt lat="45.47969046351384" lon="11.416655857512676"><ele>56.33333333333333</ele><time>2026-04-06T17:32:52.912Z</time></trkpt><trkpt lat="45.47985929770397" lon="11.416824181476965"><ele>58.0</ele><time>2026-04-06T17:32:53.912Z</time></trkpt><trkpt lat="45.480014491285054" lon="11.416977862198696"><ele>58.0</ele><time>2026-04-06T17:32:54.912Z</time></trkpt><trkpt lat="45.48016806802262" lon="11.417123745266602"><ele>58.0</ele><time>2026-04-06T17:32:55.912Z</time></trkpt><trkpt lat="45.48031808761184" lon="11.417267898443102"><ele>58.0</ele><time>2026-04-06T17:32:56.912Z</time></trkpt><trkpt lat="45.480464760724665" lon="11.417408680585133"><ele>55.0</ele><time>2026-04-06T17:32:57.912Z</time></trkpt><trkpt lat="45.4806054697309" lon="11.417545892954886"><ele>52.0</ele><time>2026-04-06T17:32:58.912Z</time></trkpt><trkpt lat="45.480741637669375" lon="11.417677124542982"><ele>49.0</ele><time>2026-04-06T17:32:59.912Z</time></trkpt><trkpt lat="45.480870838951056" lon="11.417797617796598"><ele>49.0</ele><time>2026-04-06T17:33:00.912Z</time></trkpt><trkpt lat="45.48099184753812" lon="11.417911397119402"><ele>49.0</ele><time>2026-04-06T17:33:01.912Z</time></trkpt><trkpt lat="45.48111093266493" lon="11.418024291760153"><ele>49.0</ele><time>2026-04-06T17:33:02.912Z</time></trkpt><trkpt lat="45.48121193555634" lon="11.418127512995037"><ele>49.0</ele><time>2026-04-06T17:33:03.912Z</time></trkpt><trkpt lat="45.48129453127512" lon="11.418215591852237"><ele>49.800000000000004</ele><time>2026-04-06T17:33:04.912Z</time></trkpt><trkpt lat="45.48136449931705" lon="11.41831169065758"><ele>50.6</ele><time>2026-04-06T17:33:05.912Z</time></trkpt><trkpt lat="45.481422312500804" lon="11.418421474176117"><ele>51.4</ele><time>2026-04-06T17:33:06.912Z</time></trkpt><trkpt lat="45.481471018399375" lon="11.418536996889534"><ele>52.2</ele><time>2026-04-06T17:33:07.912Z</time></trkpt><trkpt lat="45.48150317867315" lon="11.41865526458978"><ele>53.0</ele><time>2026-04-06T17:33:08.912Z</time></trkpt><trkpt lat="45.48153291501397" lon="11.418787864610707"><ele>53.16666666666667</ele><time>2026-04-06T17:33:09.912Z</time></trkpt><trkpt lat="45.481555788377165" lon="11.418905922554796"><ele>53.333333333333336</ele><time>2026-04-06T17:33:10.912Z</time></trkpt><trkpt lat="45.48158462015985" lon="11.419013413909633"><ele>53.5</ele><time>2026-04-06T17:33:11.912Z</time></trkpt><trkpt lat="45.48162648501319" lon="11.41910660048395"><ele>53.66666666666667</ele><time>2026-04-06T17:33:12.912Z</time></trkpt><trkpt lat="45.48169432387298" lon="11.419177982578418"><ele>53.833333333333336</ele><time>2026-04-06T17:33:13.912Z</time></trkpt><trkpt lat="45.48177074077379" lon="11.419207375558532"><ele>54.0</ele><time>2026-04-06T17:33:14.912Z</time></trkpt><trkpt lat="45.48185762074438" lon="11.419199168210282"><ele>54.0</ele><time>2026-04-06T17:33:15.912Z</time></trkpt><trkpt lat="45.48193930027566" lon="11.419194065900689"><ele>54.00000000000001</ele><time>2026-04-06T17:33:16.912Z</time></trkpt><trkpt lat="45.48202062436845" lon="11.41924162508376"><ele>54.00000000000001</ele><time>2026-04-06T17:33:17.912Z</time></trkpt><trkpt lat="45.4821142295618" lon="11.419338742044555"><ele>54.0</ele><time>2026-04-06T17:33:18.912Z</time></trkpt><trkpt lat="45.48224137440625" lon="11.419468168257593"><ele>54.0</ele><time>2026-04-06T17:33:19.912Z</time></trkpt><trkpt lat="45.48240606537148" lon="11.419616098619263"><ele>54.5</ele><time>2026-04-06T17:33:20.912Z</time></trkpt><trkpt lat="45.482602846776736" lon="11.419739699500134"><ele>55.0</ele><time>2026-04-06T17:33:21.912Z</time></trkpt><trkpt lat="45.48283471811173" lon="11.419876303989136"><ele>55.0</ele><time>2026-04-06T17:33:22.912Z</time></trkpt><trkpt lat="45.48308892538096" lon="11.420058491318818"><ele>55.0</ele><time>2026-04-06T17:33:23.912Z</time></trkpt><trkpt lat="45.48333673671495" lon="11.420296540921912"><ele>55.0</ele><time>2026-04-06T17:33:24.912Z</time></trkpt><trkpt lat="45.48359101848328" lon="11.420511853946985"><ele>55.0</ele><time>2026-04-06T17:33:25.912Z</time></trkpt><trkpt lat="45.48384630863133" lon="11.420767830258704"><ele>54.5</ele><time>2026-04-06T17:33:26.913Z</time></trkpt><trkpt lat="45.48411318240466" lon="11.421022724434563"><ele>54.0</ele><time>2026-04-06T17:33:27.913Z</time></trkpt><trkpt lat="45.48434897900997" lon="11.421242985384037"><ele>52.5</ele><time>2026-04-06T17:33:28.913Z</time></trkpt><trkpt lat="45.48455497988781" lon="11.421439186243578"><ele>51.0</ele><time>2026-04-06T17:33:29.913Z</time></trkpt><trkpt lat="45.484741574781935" lon="11.4216197925969"><ele>51.0</ele><time>2026-04-06T17:33:30.913Z</time></trkpt><trkpt lat="45.48492094998101" lon="11.421792700956768"><ele>51.0</ele><time>2026-04-06T17:33:31.913Z</time></trkpt><trkpt lat="45.4850851561987" lon="11.421947747778702"><ele>51.0</ele><time>2026-04-06T17:33:32.913Z</time></trkpt><trkpt lat="45.48522650691247" lon="11.422084951649282"><ele>51.25</ele><time>2026-04-06T17:33:33.913Z</time></trkpt><trkpt lat="45.48532873104488" lon="11.422200456169659"><ele>51.5</ele><time>2026-04-06T17:33:34.913Z</time></trkpt><trkpt lat="45.48540384069545" lon="11.422316260357869"><ele>51.75</ele><time>2026-04-06T17:33:35.913Z</time></trkpt><trkpt lat="45.4854505818731" lon="11.422445914020578"><ele>52.0</ele><time>2026-04-06T17:33:36.913Z</time></trkpt><trkpt lat="45.48543386634777" lon="11.422605282449767"><ele>52.25</ele><time>2026-04-06T17:33:37.913Z</time></trkpt><trkpt lat="45.4854564788529" lon="11.422775177201274"><ele>52.5</ele><time>2026-04-06T17:33:38.913Z</time></trkpt><trkpt lat="45.48542644147711" lon="11.422992910405007"><ele>52.75</ele><time>2026-04-06T17:33:39.913Z</time></trkpt><trkpt lat="45.48543736839296" lon="11.423226804834224"><ele>53.0</ele><time>2026-04-06T17:33:40.913Z</time></trkpt><trkpt lat="45.48549352383783" lon="11.423418296177609"><ele>52.0</ele><time>2026-04-06T17:33:41.913Z</time></trkpt><trkpt lat="45.48559967303613" lon="11.423574161957193"><ele>51.0</ele><time>2026-04-06T17:33:42.913Z</time></trkpt><trkpt lat="45.485727527998634" lon="11.423691126023574"><ele>50.0</ele><time>2026-04-06T17:33:43.913Z</time></trkpt><trkpt lat="45.485870756313766" lon="11.42373918516654"><ele>50.0</ele><time>2026-04-06T17:33:44.913Z</time></trkpt><trkpt lat="45.48603424131578" lon="11.423726457637542"><ele>50.0</ele><time>2026-04-06T17:33:45.913Z</time></trkpt><trkpt lat="45.48619460407239" lon="11.423661720599736"><ele>50.0</ele><time>2026-04-06T17:33:46.913Z</time></trkpt><trkpt lat="45.4863386326919" lon="11.423543530698126"><ele>50.75</ele><time>2026-04-06T17:33:47.913Z</time></trkpt><trkpt lat="45.486457040200264" lon="11.423427077923588"><ele>51.5</ele><time>2026-04-06T17:33:48.913Z</time></trkpt><trkpt lat="45.486575915396735" lon="11.423378297971988"><ele>52.25</ele><time>2026-04-06T17:33:49.913Z</time></trkpt><trkpt lat="45.48671568475376" lon="11.423376947762524"><ele>53.0</ele><time>2026-04-06T17:33:50.913Z</time></trkpt><trkpt lat="45.48685732999359" lon="11.42345113916594"><ele>53.0</ele><time>2026-04-06T17:33:51.913Z</time></trkpt><trkpt lat="45.48699299150283" lon="11.423585785003302"><ele>53.0</ele><time>2026-04-06T17:33:52.913Z</time></trkpt><trkpt lat="45.48714011290623" lon="11.423754862160981"><ele>53.0</ele><time>2026-04-06T17:33:53.913Z</time></trkpt><trkpt lat="45.487311923558806" lon="11.423927123963178"><ele>53.0</ele><time>2026-04-06T17:33:54.913Z</time></trkpt><trkpt lat="45.48747489864714" lon="11.42406561397376"><ele>53.0</ele><time>2026-04-06T17:33:55.913Z</time></trkpt><trkpt lat="45.487608919436184" lon="11.424199484488502"><ele>53.0</ele><time>2026-04-06T17:33:56.913Z</time></trkpt><trkpt lat="45.48774153423709" lon="11.424321424224491"><ele>53.0</ele><time>2026-04-06T17:33:57.913Z</time></trkpt><trkpt lat="45.48787390097123" lon="11.424444817517712"><ele>53.0</ele><time>2026-04-06T17:33:58.913Z</time></trkpt><trkpt lat="45.48798840757875" lon="11.424563961807463"><ele>53.0</ele><time>2026-04-06T17:33:59.913Z</time></trkpt><trkpt lat="45.48809539615041" lon="11.424674905651003"><ele>53.0</ele><time>2026-04-06T17:34:00.913Z</time></trkpt><trkpt lat="45.48819706071543" lon="11.424775778197024"><ele>53.599999999999994</ele><time>2026-04-06T17:34:01.913Z</time></trkpt><trkpt lat="45.48829246919661" lon="11.424868303163368"><ele>54.199999999999996</ele><time>2026-04-06T17:34:02.913Z</time></trkpt><trkpt lat="45.48838348759825" lon="11.424956823203793"><ele>54.8</ele><time>2026-04-06T17:34:03.913Z</time></trkpt><trkpt lat="45.48847324677668" lon="11.425049311062056"><ele>55.4</ele><time>2026-04-06T17:34:04.913Z</time></trkpt><trkpt lat="45.4885652093023" lon="11.425137585511079"><ele>56.0</ele><time>2026-04-06T17:34:05.913Z</time></trkpt><trkpt lat="45.48865997488318" lon="11.42521647102298"><ele>56.0</ele><time>2026-04-06T17:34:06.913Z</time></trkpt><trkpt lat="45.48875348509136" lon="11.425297657107722"><ele>55.99999999999999</ele><time>2026-04-06T17:34:07.913Z</time></trkpt><trkpt lat="45.4888411195168" lon="11.4253749757382"><ele>55.99999999999999</ele><time>2026-04-06T17:34:08.913Z</time></trkpt><trkpt lat="45.48892227184327" lon="11.425458917471225"><ele>56.0</ele><time>2026-04-06T17:34:09.913Z</time></trkpt><trkpt lat="45.48900244594239" lon="11.42553722498608"><ele>56.0</ele><time>2026-04-06T17:34:10.913Z</time></trkpt><trkpt lat="45.489087544480036" lon="11.425623399848753"><ele>55.599999999999994</ele><time>2026-04-06T17:34:11.913Z</time></trkpt><trkpt lat="45.48916214461649" lon="11.425720289378866"><ele>55.199999999999996</ele><time>2026-04-06T17:34:12.913Z</time></trkpt><trkpt lat="45.489217086121215" lon="11.42583360719696"><ele>54.800000000000004</ele><time>2026-04-06T17:34:13.913Z</time></trkpt><trkpt lat="45.48927704651416" lon="11.425900612298971"><ele>54.400000000000006</ele><time>2026-04-06T17:34:14.913Z</time></trkpt><trkpt lat="45.489353753131404" lon="11.425973660744496"><ele>54.0</ele><time>2026-04-06T17:34:15.913Z</time></trkpt><trkpt lat="45.48944156878036" lon="11.426057288496576"><ele>54.0</ele><time>2026-04-06T17:34:16.913Z</time></trkpt><trkpt lat="45.48954747796035" lon="11.42609935795139"><ele>54.0</ele><time>2026-04-06T17:34:17.913Z</time></trkpt><trkpt lat="45.489655915242686" lon="11.426151558286612"><ele>54.0</ele><time>2026-04-06T17:34:18.913Z</time></trkpt><trkpt lat="45.48977145874737" lon="11.4262437789478"><ele>54.0</ele><time>2026-04-06T17:34:19.913Z</time></trkpt><trkpt lat="45.489892798065995" lon="11.426373067519831"><ele>54.0</ele><time>2026-04-06T17:34:20.913Z</time></trkpt><trkpt lat="45.490052806770464" lon="11.426525445017953"><ele>54.0</ele><time>2026-04-06T17:34:21.913Z</time></trkpt><trkpt lat="45.49023532848836" lon="11.42669818016432"><ele>54.0</ele><time>2026-04-06T17:34:22.913Z</time></trkpt><trkpt lat="45.490452526849886" lon="11.426894274271037"><ele>55.0</ele><time>2026-04-06T17:34:23.913Z</time></trkpt><trkpt lat="45.49068710453227" lon="11.427132690594455"><ele>56.0</ele><time>2026-04-06T17:34:24.913Z</time></trkpt><trkpt lat="45.490913162105265" lon="11.427351290375665"><ele>56.0</ele><time>2026-04-06T17:34:25.913Z</time></trkpt><trkpt lat="45.491112598471005" lon="11.427543541807166"><ele>56.0</ele><time>2026-04-06T17:34:26.913Z</time></trkpt><trkpt lat="45.49129195906208" lon="11.42772029289968"><ele>56.333333333333336</ele><time>2026-04-06T17:34:27.913Z</time></trkpt><trkpt lat="45.4914535753987" lon="11.427880061870015"><ele>56.66666666666667</ele><time>2026-04-06T17:34:28.913Z</time></trkpt><trkpt lat="45.491606190218015" lon="11.428036640600874"><ele>57.0</ele><time>2026-04-06T17:34:29.913Z</time></trkpt><trkpt lat="45.49174029866224" lon="11.42819328053471"><ele>57.0</ele><time>2026-04-06T17:34:30.913Z</time></trkpt><trkpt lat="45.491876121705296" lon="11.428343243548731"><ele>57.0</ele><time>2026-04-06T17:34:31.913Z</time></trkpt><trkpt lat="45.492007438576266" lon="11.428470983647859"><ele>57.0</ele><time>2026-04-06T17:34:32.913Z</time></trkpt><trkpt lat="45.49213528293025" lon="11.428590201279434"><ele>57.25</ele><time>2026-04-06T17:34:33.913Z</time></trkpt><trkpt lat="45.49226089041015" lon="11.428703955419309"><ele>57.5</ele><time>2026-04-06T17:34:34.913Z</time></trkpt><trkpt lat="45.492382081438045" lon="11.428818677304612"><ele>57.75</ele><time>2026-04-06T17:34:35.913Z</time></trkpt><trkpt lat="45.49250669633901" lon="11.428939037486472"><ele>58.0</ele><time>2026-04-06T17:34:36.913Z</time></trkpt><trkpt lat="45.49262650755752" lon="11.42905660440264"><ele>58.0</ele><time>2026-04-06T17:34:37.913Z</time></trkpt><trkpt lat="45.492745009851944" lon="11.42917024902264"><ele>58.0</ele><time>2026-04-06T17:34:38.913Z</time></trkpt><trkpt lat="45.492863087873225" lon="11.42927964636494"><ele>58.0</ele><time>2026-04-06T17:34:39.913Z</time></trkpt><trkpt lat="45.49297891254519" lon="11.429386818142042"><ele>58.0</ele><time>2026-04-06T17:34:40.913Z</time></trkpt><trkpt lat="45.4931007078572" lon="11.429488693237001"><ele>58.0</ele><time>2026-04-06T17:34:41.913Z</time></trkpt><trkpt lat="45.493220671616626" lon="11.429592319885247"><ele>58.0</ele><time>2026-04-06T17:34:42.913Z</time></trkpt><trkpt lat="45.49333863306722" lon="11.42969984517939"><ele>58.0</ele><time>2026-04-06T17:34:43.913Z</time></trkpt><trkpt lat="45.49345720066415" lon="11.429809580008587"><ele>58.0</ele><time>2026-04-06T17:34:44.913Z</time></trkpt><trkpt lat="45.49357643108662" lon="11.429926831359655"><ele>58.0</ele><time>2026-04-06T17:34:45.913Z</time></trkpt><trkpt lat="45.493692422691026" lon="11.430050742824907"><ele>58.0</ele><time>2026-04-06T17:34:46.913Z</time></trkpt><trkpt lat="45.493811514558494" lon="11.430161143635964"><ele>58.0</ele><time>2026-04-06T17:34:47.913Z</time></trkpt><trkpt lat="45.49391737909446" lon="11.430264983981804"><ele>58.0</ele><time>2026-04-06T17:34:48.913Z</time></trkpt><trkpt lat="45.49402087564981" lon="11.430358954406609"><ele>58.166666666666664</ele><time>2026-04-06T17:34:49.913Z</time></trkpt><trkpt lat="45.494118442086425" lon="11.430444609963807"><ele>58.33333333333333</ele><time>2026-04-06T17:34:50.913Z</time></trkpt><trkpt lat="45.49418846979089" lon="11.430518500133477"><ele>58.5</ele><time>2026-04-06T17:34:51.913Z</time></trkpt><trkpt lat="45.49425989822493" lon="11.430586777848033"><ele>58.66666666666667</ele><time>2026-04-06T17:34:52.913Z</time></trkpt><trkpt lat="45.49432427392297" lon="11.43064772169633"><ele>58.833333333333336</ele><time>2026-04-06T17:34:53.913Z</time></trkpt><trkpt lat="45.494380289112186" lon="11.430705286552802"><ele>59.0</ele><time>2026-04-06T17:34:54.913Z</time></trkpt><trkpt lat="45.49446451936249" lon="11.430834219887815"><ele>59.0</ele><time>2026-04-06T17:34:56.913Z</time></trkpt><trkpt lat="45.49450124402774" lon="11.430941489407457"><ele>59.00000000000001</ele><time>2026-04-06T17:34:57.913Z</time></trkpt><trkpt lat="45.494565758325216" lon="11.431035879943241"><ele>59.00000000000001</ele><time>2026-04-06T17:34:58.913Z</time></trkpt><trkpt lat="45.49465364052357" lon="11.431089301475398"><ele>59.0</ele><time>2026-04-06T17:34:59.913Z</time></trkpt><trkpt lat="45.49474621888833" lon="11.431099922701339"><ele>59.0</ele><time>2026-04-06T17:35:00.913Z</time></trkpt><trkpt lat="45.49483717298614" lon="11.431112877788447"><ele>59.0</ele><time>2026-04-06T17:35:01.913Z</time></trkpt><trkpt lat="45.49492090290833" lon="11.431166749454311"><ele>59.00000000000001</ele><time>2026-04-06T17:35:02.913Z</time></trkpt><trkpt lat="45.495001038226185" lon="11.431262134717725"><ele>59.00000000000001</ele><time>2026-04-06T17:35:03.913Z</time></trkpt><trkpt lat="45.49509317138508" lon="11.431358507876057"><ele>59.0</ele><time>2026-04-06T17:35:04.913Z</time></trkpt><trkpt lat="45.49517036896459" lon="11.431447662268631"><ele>59.0</ele><time>2026-04-06T17:35:05.913Z</time></trkpt><trkpt lat="45.49525646499977" lon="11.431536154771534"><ele>59.0</ele><time>2026-04-06T17:35:06.913Z</time></trkpt><trkpt lat="45.49534670936868" lon="11.431622657783114"><ele>59.00000000000001</ele><time>2026-04-06T17:35:07.913Z</time></trkpt><trkpt lat="45.49543431621288" lon="11.431710216589355"><ele>59.00000000000001</ele><time>2026-04-06T17:35:08.913Z</time></trkpt><trkpt lat="45.49551094030131" lon="11.431789795676005"><ele>59.0</ele><time>2026-04-06T17:35:09.913Z</time></trkpt><trkpt lat="45.49558965519985" lon="11.431863877990889"><ele>59.0</ele><time>2026-04-06T17:35:10.913Z</time></trkpt><trkpt lat="45.495667789289215" lon="11.43193669841425"><ele>59.2</ele><time>2026-04-06T17:35:11.913Z</time></trkpt><trkpt lat="45.49575195834371" lon="11.432013604759947"><ele>59.400000000000006</ele><time>2026-04-06T17:35:12.913Z</time></trkpt><trkpt lat="45.4958394691399" lon="11.432092283317271"><ele>59.6</ele><time>2026-04-06T17:35:13.913Z</time></trkpt><trkpt lat="45.495918772223455" lon="11.432161079250358"><ele>59.8</ele><time>2026-04-06T17:35:14.913Z</time></trkpt><trkpt lat="45.495989771487345" lon="11.432228257201146"><ele>60.0</ele><time>2026-04-06T17:35:15.913Z</time></trkpt><trkpt lat="45.49605414505686" lon="11.43227604037686"><ele>60.0</ele><time>2026-04-06T17:35:16.913Z</time></trkpt><trkpt lat="45.49617260390699" lon="11.43236533430858"><ele>60.0</ele><time>2026-04-06T17:35:18.913Z</time></trkpt><trkpt lat="45.49622462111165" lon="11.432445935080098"><ele>60.0</ele><time>2026-04-06T17:35:19.913Z</time></trkpt><trkpt lat="45.49630423496122" lon="11.43254288346346"><ele>60.0</ele><time>2026-04-06T17:35:21.913Z</time></trkpt><trkpt lat="45.49623459050877" lon="11.432814713021395"><ele>60.0</ele><time>2026-04-06T17:35:23.913Z</time></trkpt><trkpt lat="45.496176873022335" lon="11.432924921815497"><ele>60.0</ele><time>2026-04-06T17:35:25.913Z</time></trkpt><trkpt lat="45.496131052465344" lon="11.433011129235513"><ele>60.0</ele><time>2026-04-06T17:35:27.913Z</time></trkpt><trkpt lat="45.49609422356455" lon="11.4330852871331"><ele>60.0</ele><time>2026-04-06T17:35:29.913Z</time></trkpt><trkpt lat="45.49605606209729" lon="11.433188163438025"><ele>60.0</ele><time>2026-04-06T17:35:43.913Z</time></trkpt><trkpt lat="45.49601928376935" lon="11.433308042937716"><ele>60.0</ele><time>2026-04-06T17:35:46.913Z</time></trkpt><trkpt lat="45.49598360547748" lon="11.433383604034475"><ele>60.0</ele><time>2026-04-06T17:35:50.913Z</time></trkpt><trkpt lat="45.495886258179304" lon="11.433312361834655"><ele>60.0</ele><time>2026-04-06T17:36:20.913Z</time></trkpt><trkpt lat="45.495790684977024" lon="11.433395085840708"><ele>60.0</ele><time>2026-04-06T17:36:21.913Z</time></trkpt><trkpt lat="45.495830266127875" lon="11.433262653711884"><ele>60.0</ele><time>2026-04-06T17:36:23.913Z</time></trkpt><trkpt lat="45.49577623346389" lon="11.433428031170578"><ele>60.0</ele><time>2026-04-06T17:37:43.914Z</time></trkpt></trkseg><trkseg><trkpt lat="45.4957738623084" lon="11.433330659037997"><ele>60.0</ele><time>2026-04-06T18:49:11.923Z</time></trkpt><trkpt lat="45.49597236714512" lon="11.43336479099155"><ele>60.0</ele><time>2026-04-06T18:52:55.923Z</time></trkpt><trkpt lat="45.49608093234274" lon="11.43330956754527"><ele>60.0</ele><time>2026-04-06T18:52:57.923Z</time></trkpt><trkpt lat="45.496123878813826" lon="11.433239013800485"><ele>60.0</ele><time>2026-04-06T18:52:58.923Z</time></trkpt><trkpt lat="45.49612971908602" lon="11.433080879795858"><ele>60.0</ele><time>2026-04-06T18:52:59.923Z</time></trkpt><trkpt lat="45.49618431815162" lon="11.432951310369996"><ele>60.0</ele><time>2026-04-06T18:53:00.923Z</time></trkpt><trkpt lat="45.49624866824754" lon="11.432823925907538"><ele>60.0</ele><time>2026-04-06T18:53:01.923Z</time></trkpt><trkpt lat="45.49632941571103" lon="11.43274674270872"><ele>60.0</ele><time>2026-04-06T18:53:02.923Z</time></trkpt><trkpt lat="45.49637591926259" lon="11.432652611381188"><ele>60.0</ele><time>2026-04-06T18:53:03.923Z</time></trkpt><trkpt lat="45.4964156914476" lon="11.432538863715182"><ele>59.5</ele><time>2026-04-06T18:53:04.923Z</time></trkpt><trkpt lat="45.49650913082424" lon="11.43240678412162"><ele>59.0</ele><time>2026-04-06T18:53:06.923Z</time></trkpt><trkpt lat="45.496561433699505" lon="11.432329522718042"><ele>58.5</ele><time>2026-04-06T18:53:07.923Z</time></trkpt><trkpt lat="45.49641834306337" lon="11.432135621559887"><ele>58.0</ele><time>2026-04-06T18:53:09.923Z</time></trkpt><trkpt lat="45.496339644759416" lon="11.432118466152271"><ele>58.5</ele><time>2026-04-06T18:53:10.923Z</time></trkpt><trkpt lat="45.496208399193385" lon="11.432163806832097"><ele>59.0</ele><time>2026-04-06T18:53:11.923Z</time></trkpt><trkpt lat="45.496101981908964" lon="11.432163520793212"><ele>59.5</ele><time>2026-04-06T18:53:12.923Z</time></trkpt><trkpt lat="45.49594510017721" lon="11.432075078398585"><ele>60.0</ele><time>2026-04-06T18:53:13.923Z</time></trkpt><trkpt lat="45.49576996531922" lon="11.431908592759827"><ele>60.0</ele><time>2026-04-06T18:53:14.923Z</time></trkpt><trkpt lat="45.49557191713799" lon="11.431713339345311"><ele>60.0</ele><time>2026-04-06T18:53:15.923Z</time></trkpt><trkpt lat="45.495410556258854" lon="11.431530745840142"><ele>60.0</ele><time>2026-04-06T18:53:16.923Z</time></trkpt><trkpt lat="45.49526278779531" lon="11.431378798223344"><ele>60.0</ele><time>2026-04-06T18:53:17.923Z</time></trkpt><trkpt lat="45.49512700696262" lon="11.431246591444479"><ele>60.0</ele><time>2026-04-06T18:53:18.923Z</time></trkpt><trkpt lat="45.49503567980293" lon="11.43114010851773"><ele>60.0</ele><time>2026-04-06T18:53:19.923Z</time></trkpt><trkpt lat="45.49494005907299" lon="11.43100487640292"><ele>60.0</ele><time>2026-04-06T18:53:20.923Z</time></trkpt><trkpt lat="45.49485372037371" lon="11.430881037567842"><ele>60.0</ele><time>2026-04-06T18:53:21.924Z</time></trkpt><trkpt lat="45.49481024248319" lon="11.430765468259036"><ele>60.0</ele><time>2026-04-06T18:53:22.924Z</time></trkpt><trkpt lat="45.49478490376935" lon="11.43066689198203"><ele>60.0</ele><time>2026-04-06T18:53:23.924Z</time></trkpt><trkpt lat="45.494693413023" lon="11.430605462801156"><ele>60.0</ele><time>2026-04-06T18:53:24.924Z</time></trkpt><trkpt lat="45.49453396576416" lon="11.430638488651502"><ele>60.0</ele><time>2026-04-06T18:53:25.924Z</time></trkpt><trkpt lat="45.49443397084126" lon="11.430581535797284"><ele>59.75</ele><time>2026-04-06T18:53:26.924Z</time></trkpt><trkpt lat="45.494323946738554" lon="11.430556472382614"><ele>59.5</ele><time>2026-04-06T18:53:27.924Z</time></trkpt><trkpt lat="45.4942250551121" lon="11.430477871776498"><ele>59.25</ele><time>2026-04-06T18:53:28.924Z</time></trkpt><trkpt lat="45.49412238852483" lon="11.43035724738999"><ele>59.0</ele><time>2026-04-06T18:53:29.924Z</time></trkpt><trkpt lat="45.493986636229806" lon="11.430184035709793"><ele>59.0</ele><time>2026-04-06T18:53:30.924Z</time></trkpt><trkpt lat="45.49385911765323" lon="11.430060931982851"><ele>59.0</ele><time>2026-04-06T18:53:31.924Z</time></trkpt><trkpt lat="45.49374865168215" lon="11.429940994299137"><ele>59.0</ele><time>2026-04-06T18:53:32.924Z</time></trkpt><trkpt lat="45.493650931248894" lon="11.42985761165612"><ele>59.0</ele><time>2026-04-06T18:53:33.924Z</time></trkpt><trkpt lat="45.49355065086317" lon="11.429745019206567"><ele>58.6</ele><time>2026-04-06T18:53:34.924Z</time></trkpt><trkpt lat="45.49346178082169" lon="11.429638898237316"><ele>58.2</ele><time>2026-04-06T18:53:35.924Z</time></trkpt><trkpt lat="45.493371670780476" lon="11.429535670823727"><ele>57.800000000000004</ele><time>2026-04-06T18:53:36.924Z</time></trkpt><trkpt lat="45.49328824426709" lon="11.429461259528095"><ele>57.400000000000006</ele><time>2026-04-06T18:53:37.924Z</time></trkpt><trkpt lat="45.493210206612865" lon="11.42939098981313"><ele>57.0</ele><time>2026-04-06T18:53:38.924Z</time></trkpt><trkpt lat="45.49316564828909" lon="11.42931582121574"><ele>57.0</ele><time>2026-04-06T18:53:39.924Z</time></trkpt><trkpt lat="45.49312182301418" lon="11.429236791345927"><ele>57.0</ele><time>2026-04-06T18:53:40.924Z</time></trkpt><trkpt lat="45.49306736841616" lon="11.429120569330742"><ele>57.0</ele><time>2026-04-06T18:53:41.924Z</time></trkpt><trkpt lat="45.49298664209301" lon="11.429003335397134"><ele>57.0</ele><time>2026-04-06T18:53:42.924Z</time></trkpt><trkpt lat="45.492872746044654" lon="11.42893935817743"><ele>57.0</ele><time>2026-04-06T18:53:43.924Z</time></trkpt><trkpt lat="45.492762225111036" lon="11.428909595235462"><ele>57.25</ele><time>2026-04-06T18:53:44.924Z</time></trkpt><trkpt lat="45.49263848041199" lon="11.428905839220766"><ele>57.5</ele><time>2026-04-06T18:53:45.924Z</time></trkpt><trkpt lat="45.49250547116216" lon="11.42880936460297"><ele>57.75</ele><time>2026-04-06T18:53:46.924Z</time></trkpt><trkpt lat="45.49237424314181" lon="11.428656650527044"><ele>58.0</ele><time>2026-04-06T18:53:47.924Z</time></trkpt><trkpt lat="45.49223954499201" lon="11.428525540970318"><ele>57.666666666666664</ele><time>2026-04-06T18:53:48.924Z</time></trkpt><trkpt lat="45.49210807434923" lon="11.428393913769375"><ele>57.33333333333333</ele><time>2026-04-06T18:53:49.924Z</time></trkpt><trkpt lat="45.49198178555921" lon="11.428266035698996"><ele>57.0</ele><time>2026-04-06T18:53:50.924Z</time></trkpt><trkpt lat="45.491850511305024" lon="11.42815834219964"><ele>57.0</ele><time>2026-04-06T18:53:51.924Z</time></trkpt><trkpt lat="45.49172869999017" lon="11.42803843537193"><ele>57.0</ele><time>2026-04-06T18:53:52.924Z</time></trkpt><trkpt lat="45.49160563277273" lon="11.427968991455575"><ele>57.0</ele><time>2026-04-06T18:53:53.924Z</time></trkpt><trkpt lat="45.491506403303696" lon="11.427806527988274"><ele>57.0</ele><time>2026-04-06T18:53:54.924Z</time></trkpt><trkpt lat="45.491387454522375" lon="11.427672147810608"><ele>57.25</ele><time>2026-04-06T18:53:55.924Z</time></trkpt><trkpt lat="45.49127608212518" lon="11.427563153272553"><ele>57.5</ele><time>2026-04-06T18:53:56.924Z</time></trkpt><trkpt lat="45.49115992315639" lon="11.427449018109773"><ele>57.75</ele><time>2026-04-06T18:53:57.924Z</time></trkpt><trkpt lat="45.49105059743805" lon="11.427347536647792"><ele>58.0</ele><time>2026-04-06T18:53:58.924Z</time></trkpt><trkpt lat="45.49093649337813" lon="11.427249995779588"><ele>57.5</ele><time>2026-04-06T18:53:59.924Z</time></trkpt><trkpt lat="45.49082343745406" lon="11.427149206476502"><ele>57.0</ele><time>2026-04-06T18:54:00.924Z</time></trkpt><trkpt lat="45.49070864009873" lon="11.427035800309913"><ele>56.5</ele><time>2026-04-06T18:54:01.924Z</time></trkpt><trkpt lat="45.49059210223216" lon="11.426943533248254"><ele>56.0</ele><time>2026-04-06T18:54:02.924Z</time></trkpt><trkpt lat="45.49047989506596" lon="11.42685004192839"><ele>55.5</ele><time>2026-04-06T18:54:03.924Z</time></trkpt><trkpt lat="45.49036155250065" lon="11.426737091600154"><ele>55.0</ele><time>2026-04-06T18:54:04.924Z</time></trkpt><trkpt lat="45.4902421028266" lon="11.426628175345439"><ele>54.5</ele><time>2026-04-06T18:54:05.924Z</time></trkpt><trkpt lat="45.49012478607591" lon="11.42651922937805"><ele>54.0</ele><time>2026-04-06T18:54:06.924Z</time></trkpt><trkpt lat="45.49002087827358" lon="11.426410791844978"><ele>54.25</ele><time>2026-04-06T18:54:07.924Z</time></trkpt><trkpt lat="45.489918033676204" lon="11.426305349872846"><ele>54.5</ele><time>2026-04-06T18:54:08.924Z</time></trkpt><trkpt lat="45.4898258550597" lon="11.426216841140548"><ele>54.75</ele><time>2026-04-06T18:54:09.924Z</time></trkpt><trkpt lat="45.48973443656856" lon="11.4261226935043"><ele>55.0</ele><time>2026-04-06T18:54:10.924Z</time></trkpt><trkpt lat="45.4896466823669" lon="11.426034641527755"><ele>54.8</ele><time>2026-04-06T18:54:11.924Z</time></trkpt><trkpt lat="45.489568877423764" lon="11.425943461579376"><ele>54.6</ele><time>2026-04-06T18:54:12.924Z</time></trkpt><trkpt lat="45.48950286526694" lon="11.425842822208928"><ele>54.400000000000006</ele><time>2026-04-06T18:54:13.924Z</time></trkpt><trkpt lat="45.48943008576643" lon="11.425761516864087"><ele>54.2</ele><time>2026-04-06T18:54:14.924Z</time></trkpt><trkpt lat="45.48933931885709" lon="11.425675209741211"><ele>54.0</ele><time>2026-04-06T18:54:15.924Z</time></trkpt><trkpt lat="45.48924426504458" lon="11.425578116509259"><ele>54.0</ele><time>2026-04-06T18:54:16.924Z</time></trkpt><trkpt lat="45.489100892878305" lon="11.425521800839604"><ele>54.0</ele><time>2026-04-06T18:54:17.924Z</time></trkpt><trkpt lat="45.48895794241289" lon="11.425397733347003"><ele>54.0</ele><time>2026-04-06T18:54:18.924Z</time></trkpt><trkpt lat="45.4888284478223" lon="11.425291438806592"><ele>54.5</ele><time>2026-04-06T18:54:19.924Z</time></trkpt><trkpt lat="45.48870027671148" lon="11.425182114459828"><ele>55.0</ele><time>2026-04-06T18:54:20.924Z</time></trkpt><trkpt lat="45.488580227244704" lon="11.425078740346619"><ele>55.5</ele><time>2026-04-06T18:54:21.924Z</time></trkpt><trkpt lat="45.48846352818523" lon="11.424960363880691"><ele>56.0</ele><time>2026-04-06T18:54:22.924Z</time></trkpt><trkpt lat="45.488345059693586" lon="11.424842605446164"><ele>56.0</ele><time>2026-04-06T18:54:23.924Z</time></trkpt><trkpt lat="45.48823190015544" lon="11.424738334596206"><ele>56.0</ele><time>2026-04-06T18:54:24.924Z</time></trkpt><trkpt lat="45.48812578191249" lon="11.424633803245083"><ele>56.0</ele><time>2026-04-06T18:54:25.924Z</time></trkpt><trkpt lat="45.48801638630779" lon="11.42452411609"><ele>56.0</ele><time>2026-04-06T18:54:26.924Z</time></trkpt><trkpt lat="45.48789964441524" lon="11.4244194897419"><ele>55.25</ele><time>2026-04-06T18:54:27.924Z</time></trkpt><trkpt lat="45.487785585733974" lon="11.42432102336247"><ele>54.5</ele><time>2026-04-06T18:54:28.924Z</time></trkpt><trkpt lat="45.487671547496035" lon="11.424213883397856"><ele>53.75</ele><time>2026-04-06T18:54:29.924Z</time></trkpt><trkpt lat="45.48755913218318" lon="11.42410292878104"><ele>53.0</ele><time>2026-04-06T18:54:30.924Z</time></trkpt><trkpt lat="45.487461978927804" lon="11.424006727665502"><ele>53.0</ele><time>2026-04-06T18:54:31.924Z</time></trkpt><trkpt lat="45.48736370486718" lon="11.423912316370409"><ele>53.0</ele><time>2026-04-06T18:54:32.924Z</time></trkpt><trkpt lat="45.48725433645175" lon="11.423814004862358"><ele>53.0</ele><time>2026-04-06T18:54:33.924Z</time></trkpt><trkpt lat="45.48715027230332" lon="11.423716637205953"><ele>53.0</ele><time>2026-04-06T18:54:34.924Z</time></trkpt><trkpt lat="45.48704630462239" lon="11.42361063258291"><ele>53.00000000000001</ele><time>2026-04-06T18:54:35.924Z</time></trkpt><trkpt lat="45.486958943495225" lon="11.423522876472953"><ele>53.0</ele><time>2026-04-06T18:54:36.924Z</time></trkpt><trkpt lat="45.48687989537515" lon="11.423435194432935"><ele>53.0</ele><time>2026-04-06T18:54:37.924Z</time></trkpt><trkpt lat="45.48680942535103" lon="11.423365214976984"><ele>53.0</ele><time>2026-04-06T18:54:38.924Z</time></trkpt><trkpt lat="45.486747760574936" lon="11.423302294979928"><ele>53.00000000000001</ele><time>2026-04-06T18:54:39.924Z</time></trkpt><trkpt lat="45.48668976867466" lon="11.423229124508069"><ele>53.0</ele><time>2026-04-06T18:54:40.924Z</time></trkpt><trkpt lat="45.48662447744058" lon="11.423137970529181"><ele>53.00000000000001</ele><time>2026-04-06T18:54:42.924Z</time></trkpt><trkpt lat="45.48657788559051" lon="11.423056807419046"><ele>53.0</ele><time>2026-04-06T18:54:46.924Z</time></trkpt><trkpt lat="45.486518932976445" lon="11.422955261006988"><ele>53.0</ele><time>2026-04-06T18:54:49.924Z</time></trkpt><trkpt lat="45.486499759253064" lon="11.422866085516377"><ele>53.0</ele><time>2026-04-06T18:54:50.924Z</time></trkpt><trkpt lat="45.48649323090241" lon="11.422750006517175"><ele>53.00000000000001</ele><time>2026-04-06T18:54:51.924Z</time></trkpt><trkpt lat="45.48646741639863" lon="11.422621766423628"><ele>53.0</ele><time>2026-04-06T18:54:52.924Z</time></trkpt><trkpt lat="45.486425622198624" lon="11.422504257265093"><ele>53.0</ele><time>2026-04-06T18:54:53.924Z</time></trkpt><trkpt lat="45.486375417640076" lon="11.422418277739004"><ele>53.0</ele><time>2026-04-06T18:54:54.924Z</time></trkpt><trkpt lat="45.4864006601984" lon="11.422292969925781"><ele>53.0</ele><time>2026-04-06T18:54:55.924Z</time></trkpt><trkpt lat="45.48644721552858" lon="11.422182911958844"><ele>53.0</ele><time>2026-04-06T18:54:56.924Z</time></trkpt><trkpt lat="45.48653421763098" lon="11.422036828893589"><ele>53.0</ele><time>2026-04-06T18:54:57.924Z</time></trkpt><trkpt lat="45.48662966849704" lon="11.421862707731469"><ele>54.0</ele><time>2026-04-06T18:54:58.924Z</time></trkpt><trkpt lat="45.486738220578786" lon="11.421664226274835"><ele>55.0</ele><time>2026-04-06T18:54:59.924Z</time></trkpt><trkpt lat="45.48683932823862" lon="11.421505912513402"><ele>56.0</ele><time>2026-04-06T18:55:00.924Z</time></trkpt><trkpt lat="45.48702836344975" lon="11.421441288749328"><ele>56.0</ele><time>2026-04-06T18:55:01.924Z</time></trkpt><trkpt lat="45.487188121969346" lon="11.421293880094943"><ele>56.0</ele><time>2026-04-06T18:55:02.924Z</time></trkpt><trkpt lat="45.48735621045418" lon="11.421091684556867"><ele>56.0</ele><time>2026-04-06T18:55:03.924Z</time></trkpt><trkpt lat="45.48751405020215" lon="11.420864979565769"><ele>56.0</ele><time>2026-04-06T18:55:04.924Z</time></trkpt><trkpt lat="45.487646410412246" lon="11.4206673699989"><ele>56.0</ele><time>2026-04-06T18:55:05.924Z</time></trkpt><trkpt lat="45.487778333582746" lon="11.420468572702125"><ele>56.0</ele><time>2026-04-06T18:55:06.924Z</time></trkpt><trkpt lat="45.48791081082177" lon="11.420265411333437"><ele>56.0</ele><time>2026-04-06T18:55:07.924Z</time></trkpt><trkpt lat="45.48804675614517" lon="11.420056278668211"><ele>56.0</ele><time>2026-04-06T18:55:08.924Z</time></trkpt><trkpt lat="45.488191031388666" lon="11.419842242343902"><ele>56.0</ele><time>2026-04-06T18:55:09.924Z</time></trkpt><trkpt lat="45.48834376406797" lon="11.419615021151275"><ele>56.0</ele><time>2026-04-06T18:55:10.924Z</time></trkpt><trkpt lat="45.48849773664804" lon="11.419375831052784"><ele>56.0</ele><time>2026-04-06T18:55:11.924Z</time></trkpt><trkpt lat="45.48866393389601" lon="11.41910576893382"><ele>57.0</ele><time>2026-04-06T18:55:12.924Z</time></trkpt><trkpt lat="45.48882792292419" lon="11.418824247442695"><ele>58.0</ele><time>2026-04-06T18:55:13.924Z</time></trkpt><trkpt lat="45.488989412605086" lon="11.41853530216984"><ele>58.0</ele><time>2026-04-06T18:55:14.924Z</time></trkpt><trkpt lat="45.48913231018265" lon="11.418267348768556"><ele>58.0</ele><time>2026-04-06T18:55:15.924Z</time></trkpt><trkpt lat="45.489269240886195" lon="11.41800999413546"><ele>58.5</ele><time>2026-04-06T18:55:16.924Z</time></trkpt><trkpt lat="45.489404182198015" lon="11.417762412820696"><ele>59.0</ele><time>2026-04-06T18:55:17.924Z</time></trkpt><trkpt lat="45.48955559448197" lon="11.417513205281024"><ele>59.0</ele><time>2026-04-06T18:55:18.924Z</time></trkpt><trkpt lat="45.48971422543063" lon="11.417257866069304"><ele>59.0</ele><time>2026-04-06T18:55:19.924Z</time></trkpt><trkpt lat="45.489898993665015" lon="11.41698629657072"><ele>59.0</ele><time>2026-04-06T18:55:20.924Z</time></trkpt><trkpt lat="45.490024356541426" lon="11.416604826601434"><ele>59.0</ele><time>2026-04-06T18:55:21.924Z</time></trkpt><trkpt lat="45.49023130148134" lon="11.416309632576894"><ele>57.5</ele><time>2026-04-06T18:55:22.924Z</time></trkpt><trkpt lat="45.49045040853594" lon="11.415997091529697"><ele>56.0</ele><time>2026-04-06T18:55:23.924Z</time></trkpt><trkpt lat="45.490677590231634" lon="11.415682907974087"><ele>56.5</ele><time>2026-04-06T18:55:24.924Z</time></trkpt><trkpt lat="45.49097842334622" lon="11.415441135106246"><ele>57.0</ele><time>2026-04-06T18:55:25.924Z</time></trkpt><trkpt lat="45.491212912684304" lon="11.415093895144048"><ele>56.5</ele><time>2026-04-06T18:55:26.924Z</time></trkpt><trkpt lat="45.49144084131173" lon="11.414753491998223"><ele>56.0</ele><time>2026-04-06T18:55:27.924Z</time></trkpt><trkpt lat="45.49165514398955" lon="11.414445412465948"><ele>56.0</ele><time>2026-04-06T18:55:28.924Z</time></trkpt><trkpt lat="45.49186960163059" lon="11.414145488177915"><ele>56.0</ele><time>2026-04-06T18:55:29.924Z</time></trkpt><trkpt lat="45.49207609597264" lon="11.413849961322544"><ele>56.0</ele><time>2026-04-06T18:55:30.924Z</time></trkpt><trkpt lat="45.492277285603556" lon="11.413560374330272"><ele>56.0</ele><time>2026-04-06T18:55:31.924Z</time></trkpt><trkpt lat="45.49248263632841" lon="11.413273733251982"><ele>57.0</ele><time>2026-04-06T18:55:32.924Z</time></trkpt><trkpt lat="45.49268601118124" lon="11.412987793885765"><ele>58.0</ele><time>2026-04-06T18:55:33.924Z</time></trkpt><trkpt lat="45.49288934577305" lon="11.412700099044375"><ele>58.5</ele><time>2026-04-06T18:55:34.924Z</time></trkpt><trkpt lat="45.49309009804661" lon="11.412410929857144"><ele>59.0</ele><time>2026-04-06T18:55:35.924Z</time></trkpt><trkpt lat="45.49329430259406" lon="11.412114002278022"><ele>59.0</ele><time>2026-04-06T18:55:36.924Z</time></trkpt><trkpt lat="45.49349275329847" lon="11.41183242142903"><ele>59.0</ele><time>2026-04-06T18:55:37.924Z</time></trkpt><trkpt lat="45.493678453273404" lon="11.411558187662589"><ele>58.5</ele><time>2026-04-06T18:55:38.924Z</time></trkpt><trkpt lat="45.493870041774635" lon="11.411285197365304"><ele>58.0</ele><time>2026-04-06T18:55:39.925Z</time></trkpt><trkpt lat="45.49405823670289" lon="11.41101232627879"><ele>58.0</ele><time>2026-04-06T18:55:40.925Z</time></trkpt><trkpt lat="45.494243949764645" lon="11.410739066733933"><ele>58.0</ele><time>2026-04-06T18:55:41.925Z</time></trkpt><trkpt lat="45.49443042387371" lon="11.41047278148455"><ele>59.5</ele><time>2026-04-06T18:55:42.925Z</time></trkpt><trkpt lat="45.49461816788682" lon="11.410208000438427"><ele>61.0</ele><time>2026-04-06T18:55:43.925Z</time></trkpt><trkpt lat="45.49480743232363" lon="11.409946560610916"><ele>61.0</ele><time>2026-04-06T18:55:44.925Z</time></trkpt><trkpt lat="45.49499276517716" lon="11.409683471062852"><ele>61.0</ele><time>2026-04-06T18:55:45.925Z</time></trkpt><trkpt lat="45.49517945122326" lon="11.409408600179319"><ele>61.5</ele><time>2026-04-06T18:55:46.925Z</time></trkpt><trkpt lat="45.49537903580651" lon="11.409115855733626"><ele>62.0</ele><time>2026-04-06T18:55:47.925Z</time></trkpt><trkpt lat="45.495578593798164" lon="11.408816314664584"><ele>61.0</ele><time>2026-04-06T18:55:48.925Z</time></trkpt><trkpt lat="45.49578850526168" lon="11.408500678874002"><ele>60.0</ele><time>2026-04-06T18:55:49.925Z</time></trkpt><trkpt lat="45.49600163544856" lon="11.408165989784568"><ele>59.5</ele><time>2026-04-06T18:55:50.925Z</time></trkpt><trkpt lat="45.49620780499019" lon="11.407812387732891"><ele>59.0</ele><time>2026-04-06T18:55:51.925Z</time></trkpt><trkpt lat="45.496409811460154" lon="11.407436986133508"><ele>60.5</ele><time>2026-04-06T18:55:52.925Z</time></trkpt><trkpt lat="45.496606551034546" lon="11.407038260643201"><ele>62.0</ele><time>2026-04-06T18:55:53.925Z</time></trkpt><trkpt lat="45.496799997180275" lon="11.406618010462502"><ele>62.0</ele><time>2026-04-06T18:55:54.925Z</time></trkpt><trkpt lat="45.49699036359293" lon="11.406183037558405"><ele>62.0</ele><time>2026-04-06T18:55:55.925Z</time></trkpt><trkpt lat="45.49716056307265" lon="11.405730039208027"><ele>63.0</ele><time>2026-04-06T18:55:56.925Z</time></trkpt><trkpt lat="45.49734403575876" lon="11.405260074768849"><ele>64.0</ele><time>2026-04-06T18:55:57.925Z</time></trkpt><trkpt lat="45.497528226706905" lon="11.40478682515674"><ele>66.0</ele><time>2026-04-06T18:55:58.925Z</time></trkpt><trkpt lat="45.49770761825833" lon="11.404311961774319"><ele>68.0</ele><time>2026-04-06T18:55:59.925Z</time></trkpt><trkpt lat="45.497878378315576" lon="11.40387046927542"><ele>68.0</ele><time>2026-04-06T18:56:00.925Z</time></trkpt><trkpt lat="45.49805093467336" lon="11.403436425113037"><ele>68.0</ele><time>2026-04-06T18:56:01.925Z</time></trkpt><trkpt lat="45.49822167801318" lon="11.403002371126714"><ele>67.5</ele><time>2026-04-06T18:56:02.925Z</time></trkpt><trkpt lat="45.4984036561056" lon="11.402555083513759"><ele>67.0</ele><time>2026-04-06T18:56:03.925Z</time></trkpt><trkpt lat="45.49858405331211" lon="11.402098411851647"><ele>65.5</ele><time>2026-04-06T18:56:04.925Z</time></trkpt><trkpt lat="45.49875873352231" lon="11.401636122890412"><ele>64.0</ele><time>2026-04-06T18:56:05.925Z</time></trkpt><trkpt lat="45.49893350640578" lon="11.401169008156998"><ele>64.0</ele><time>2026-04-06T18:56:06.925Z</time></trkpt><trkpt lat="45.49909671266259" lon="11.400743391146518"><ele>64.0</ele><time>2026-04-06T18:56:07.925Z</time></trkpt><trkpt lat="45.49925217408845" lon="11.400354505602564"><ele>64.5</ele><time>2026-04-06T18:56:08.925Z</time></trkpt><trkpt lat="45.499401000851826" lon="11.399986751566628"><ele>65.0</ele><time>2026-04-06T18:56:09.925Z</time></trkpt><trkpt lat="45.499544595326704" lon="11.399628894469606"><ele>65.0</ele><time>2026-04-06T18:56:10.925Z</time></trkpt><trkpt lat="45.49969357349677" lon="11.399271293002071"><ele>65.0</ele><time>2026-04-06T18:56:11.925Z</time></trkpt><trkpt lat="45.499843566455674" lon="11.398916030534785"><ele>64.5</ele><time>2026-04-06T18:56:12.925Z</time></trkpt><trkpt lat="45.500007042607244" lon="11.398565482937684"><ele>64.0</ele><time>2026-04-06T18:56:13.925Z</time></trkpt><trkpt lat="45.500187022820725" lon="11.39822332362922"><ele>65.5</ele><time>2026-04-06T18:56:14.925Z</time></trkpt><trkpt lat="45.500381651513244" lon="11.397875132326346"><ele>67.0</ele><time>2026-04-06T18:56:15.925Z</time></trkpt><trkpt lat="45.50059276334649" lon="11.397532800971199"><ele>67.0</ele><time>2026-04-06T18:56:16.925Z</time></trkpt><trkpt lat="45.50081515309058" lon="11.397190409643546"><ele>67.0</ele><time>2026-04-06T18:56:17.925Z</time></trkpt><trkpt lat="45.50105272188819" lon="11.396860379755845"><ele>68.5</ele><time>2026-04-06T18:56:18.925Z</time></trkpt><trkpt lat="45.50130643455025" lon="11.396537720556855"><ele>70.0</ele><time>2026-04-06T18:56:19.925Z</time></trkpt><trkpt lat="45.50157419995757" lon="11.396221259158018"><ele>70.0</ele><time>2026-04-06T18:56:20.925Z</time></trkpt><trkpt lat="45.501843607677415" lon="11.395929326718745"><ele>70.0</ele><time>2026-04-06T18:56:21.925Z</time></trkpt><trkpt lat="45.50214231436755" lon="11.395617907852904"><ele>68.5</ele><time>2026-04-06T18:56:22.925Z</time></trkpt><trkpt lat="45.50245238586732" lon="11.395320971573188"><ele>67.0</ele><time>2026-04-06T18:56:23.925Z</time></trkpt><trkpt lat="45.50276719023681" lon="11.395025663389157"><ele>67.0</ele><time>2026-04-06T18:56:24.925Z</time></trkpt><trkpt lat="45.50308300059367" lon="11.394738369719326"><ele>67.0</ele><time>2026-04-06T18:56:25.925Z</time></trkpt><trkpt lat="45.50341079092337" lon="11.394450606334269"><ele>67.0</ele><time>2026-04-06T18:56:26.925Z</time></trkpt><trkpt lat="45.50373786468638" lon="11.394161168687587"><ele>67.0</ele><time>2026-04-06T18:56:27.925Z</time></trkpt><trkpt lat="45.50406846051219" lon="11.393870088297028"><ele>68.0</ele><time>2026-04-06T18:56:28.925Z</time></trkpt><trkpt lat="45.50439829739897" lon="11.39357291734722"><ele>69.0</ele><time>2026-04-06T18:56:29.925Z</time></trkpt><trkpt lat="45.50473710953134" lon="11.39328116279044"><ele>70.0</ele><time>2026-04-06T18:56:30.925Z</time></trkpt><trkpt lat="45.50507605315625" lon="11.39299665632521"><ele>71.0</ele><time>2026-04-06T18:56:31.925Z</time></trkpt><trkpt lat="45.50537237869746" lon="11.392737473195861"><ele>70.5</ele><time>2026-04-06T18:56:32.925Z</time></trkpt><trkpt lat="45.50565292628005" lon="11.39249225675196"><ele>70.0</ele><time>2026-04-06T18:56:33.925Z</time></trkpt><trkpt lat="45.50592276470627" lon="11.392252115863139"><ele>70.0</ele><time>2026-04-06T18:56:34.925Z</time></trkpt><trkpt lat="45.50618470429767" lon="11.392023378731958"><ele>70.0</ele><time>2026-04-06T18:56:35.925Z</time></trkpt><trkpt lat="45.50643550942782" lon="11.391798298079234"><ele>69.5</ele><time>2026-04-06T18:56:36.925Z</time></trkpt><trkpt lat="45.506677270925614" lon="11.391582188318514"><ele>69.0</ele><time>2026-04-06T18:56:37.925Z</time></trkpt><trkpt lat="45.50691236175553" lon="11.39137197460817"><ele>70.5</ele><time>2026-04-06T18:56:38.925Z</time></trkpt><trkpt lat="45.50714668248242" lon="11.391165787211838"><ele>72.0</ele><time>2026-04-06T18:56:39.925Z</time></trkpt><trkpt lat="45.50737286599922" lon="11.390964288116496"><ele>72.0</ele><time>2026-04-06T18:56:40.925Z</time></trkpt><trkpt lat="45.50759470349148" lon="11.39077306153427"><ele>72.0</ele><time>2026-04-06T18:56:41.925Z</time></trkpt><trkpt lat="45.507789832790884" lon="11.39060074373861"><ele>73.0</ele><time>2026-04-06T18:56:42.925Z</time></trkpt><trkpt lat="45.50797643243438" lon="11.390432468658156"><ele>74.0</ele><time>2026-04-06T18:56:43.925Z</time></trkpt><trkpt lat="45.50816547145878" lon="11.390265354786042"><ele>75.0</ele><time>2026-04-06T18:56:44.925Z</time></trkpt><trkpt lat="45.50833538889961" lon="11.390106828925129"><ele>75.0</ele><time>2026-04-06T18:56:45.925Z</time></trkpt><trkpt lat="45.50849256695234" lon="11.389970783979935"><ele>75.0</ele><time>2026-04-06T18:56:46.925Z</time></trkpt><trkpt lat="45.50863361268471" lon="11.389862818640086"><ele>75.0</ele><time>2026-04-06T18:56:47.925Z</time></trkpt><trkpt lat="45.508761464506954" lon="11.389759804196922"><ele>75.2</ele><time>2026-04-06T18:56:48.925Z</time></trkpt><trkpt lat="45.508868927538856" lon="11.389676558878964"><ele>75.4</ele><time>2026-04-06T18:56:49.925Z</time></trkpt><trkpt lat="45.50895738622951" lon="11.389612649823412"><ele>75.6</ele><time>2026-04-06T18:56:50.925Z</time></trkpt><trkpt lat="45.50904216645815" lon="11.389560020336424"><ele>75.8</ele><time>2026-04-06T18:56:51.925Z</time></trkpt><trkpt lat="45.50913701772463" lon="11.389550431858641"><ele>76.0</ele><time>2026-04-06T18:56:52.925Z</time></trkpt><trkpt lat="45.50924176498923" lon="11.389590172366479"><ele>76.0</ele><time>2026-04-06T18:56:53.925Z</time></trkpt><trkpt lat="45.50936303356366" lon="11.389650692775724"><ele>76.0</ele><time>2026-04-06T18:56:54.925Z</time></trkpt><trkpt lat="45.50947763315489" lon="11.389735065323414"><ele>76.0</ele><time>2026-04-06T18:56:55.925Z</time></trkpt><trkpt lat="45.50960273815413" lon="11.389778891430668"><ele>76.0</ele><time>2026-04-06T18:56:56.925Z</time></trkpt><trkpt lat="45.509735842952026" lon="11.389767600093624"><ele>76.0</ele><time>2026-04-06T18:56:57.925Z</time></trkpt><trkpt lat="45.50987468332644" lon="11.389728382980747"><ele>76.0</ele><time>2026-04-06T18:56:58.925Z</time></trkpt><trkpt lat="45.510029450983154" lon="11.389647901142785"><ele>76.0</ele><time>2026-04-06T18:56:59.925Z</time></trkpt><trkpt lat="45.51015596037491" lon="11.389512255709114"><ele>76.0</ele><time>2026-04-06T18:57:00.925Z</time></trkpt><trkpt lat="45.51026251667942" lon="11.389325940747575"><ele>76.0</ele><time>2026-04-06T18:57:01.925Z</time></trkpt><trkpt lat="45.51034893365353" lon="11.389107174781442"><ele>76.0</ele><time>2026-04-06T18:57:02.925Z</time></trkpt><trkpt lat="45.51038675503318" lon="11.388868850353875"><ele>77.0</ele><time>2026-04-06T18:57:03.925Z</time></trkpt><trkpt lat="45.51038367532149" lon="11.388626101864888"><ele>78.0</ele><time>2026-04-06T18:57:04.925Z</time></trkpt><trkpt lat="45.51035676757262" lon="11.388395340039093"><ele>79.0</ele><time>2026-04-06T18:57:05.925Z</time></trkpt><trkpt lat="45.510292966126244" lon="11.388201101240268"><ele>79.0</ele><time>2026-04-06T18:57:06.925Z</time></trkpt><trkpt lat="45.51020007620695" lon="11.388030474880418"><ele>79.0</ele><time>2026-04-06T18:57:07.925Z</time></trkpt><trkpt lat="45.51008376051152" lon="11.387888707170218"><ele>79.0</ele><time>2026-04-06T18:57:08.925Z</time></trkpt><trkpt lat="45.509936808383934" lon="11.38778069189528"><ele>79.5</ele><time>2026-04-06T18:57:09.925Z</time></trkpt><trkpt lat="45.50979852381825" lon="11.387713223318379"><ele>80.0</ele><time>2026-04-06T18:57:10.925Z</time></trkpt><trkpt lat="45.50967111883667" lon="11.387643052926782"><ele>80.5</ele><time>2026-04-06T18:57:11.925Z</time></trkpt><trkpt lat="45.509565395229465" lon="11.387543022305321"><ele>81.0</ele><time>2026-04-06T18:57:12.925Z</time></trkpt><trkpt lat="45.509484604117" lon="11.387413086643754"><ele>80.33333333333333</ele><time>2026-04-06T18:57:13.925Z</time></trkpt><trkpt lat="45.509426411248754" lon="11.387232821787876"><ele>79.66666666666666</ele><time>2026-04-06T18:57:14.925Z</time></trkpt><trkpt lat="45.509388652987155" lon="11.386996343655255"><ele>79.0</ele><time>2026-04-06T18:57:15.925Z</time></trkpt><trkpt lat="45.50938933577664" lon="11.38671899893692"><ele>79.0</ele><time>2026-04-06T18:57:16.925Z</time></trkpt><trkpt lat="45.509399040343816" lon="11.386419977957583"><ele>79.0</ele><time>2026-04-06T18:57:17.925Z</time></trkpt><trkpt lat="45.50942401788849" lon="11.386120190933521"><ele>79.0</ele><time>2026-04-06T18:57:18.925Z</time></trkpt><trkpt lat="45.50946997003386" lon="11.385796383131172"><ele>80.0</ele><time>2026-04-06T18:57:19.925Z</time></trkpt><trkpt lat="45.50953864811098" lon="11.385456711645896"><ele>81.0</ele><time>2026-04-06T18:57:20.925Z</time></trkpt><trkpt lat="45.50961045860201" lon="11.385107347975504"><ele>81.0</ele><time>2026-04-06T18:57:21.925Z</time></trkpt><trkpt lat="45.50967744816426" lon="11.38476172638779"><ele>81.0</ele><time>2026-04-06T18:57:22.925Z</time></trkpt><trkpt lat="45.50975469375149" lon="11.384403369914683"><ele>80.0</ele><time>2026-04-06T18:57:23.925Z</time></trkpt><trkpt lat="45.50983102239812" lon="11.38409012125568"><ele>79.0</ele><time>2026-04-06T18:57:24.925Z</time></trkpt><trkpt lat="45.509905696104546" lon="11.383791712090686"><ele>78.66666666666666</ele><time>2026-04-06T18:57:25.925Z</time></trkpt><trkpt lat="45.50996691865827" lon="11.383519262426491"><ele>78.33333333333333</ele><time>2026-04-06T18:57:26.925Z</time></trkpt><trkpt lat="45.51002723631691" lon="11.38325449706033"><ele>78.0</ele><time>2026-04-06T18:57:27.925Z</time></trkpt><trkpt lat="45.51009167952035" lon="11.38297927777548"><ele>79.0</ele><time>2026-04-06T18:57:28.925Z</time></trkpt><trkpt lat="45.510150892301496" lon="11.382687325992345"><ele>80.0</ele><time>2026-04-06T18:57:29.925Z</time></trkpt><trkpt lat="45.51021116788982" lon="11.382381608336056"><ele>81.0</ele><time>2026-04-06T18:57:30.925Z</time></trkpt><trkpt lat="45.510277051193924" lon="11.382074330061082"><ele>81.0</ele><time>2026-04-06T18:57:31.925Z</time></trkpt><trkpt lat="45.51033770370069" lon="11.381783798673675"><ele>81.0</ele><time>2026-04-06T18:57:32.925Z</time></trkpt><trkpt lat="45.510400987124974" lon="11.381481652082348"><ele>81.0</ele><time>2026-04-06T18:57:33.925Z</time></trkpt><trkpt lat="45.51045795356532" lon="11.38120219101027"><ele>81.33333333333333</ele><time>2026-04-06T18:57:34.925Z</time></trkpt><trkpt lat="45.510519166389564" lon="11.38093439372801"><ele>81.66666666666666</ele><time>2026-04-06T18:57:35.925Z</time></trkpt><trkpt lat="45.510581003353245" lon="11.380672891477431"><ele>82.0</ele><time>2026-04-06T18:57:36.925Z</time></trkpt><trkpt lat="45.51064477409719" lon="11.38039834654473"><ele>82.5</ele><time>2026-04-06T18:57:37.925Z</time></trkpt><trkpt lat="45.510728473079155" lon="11.380101128557133"><ele>83.0</ele><time>2026-04-06T18:57:38.925Z</time></trkpt><trkpt lat="45.51082892466469" lon="11.379785819827331"><ele>81.66666666666667</ele><time>2026-04-06T18:57:39.925Z</time></trkpt><trkpt lat="45.51093139545788" lon="11.379505849390032"><ele>80.33333333333333</ele><time>2026-04-06T18:57:40.925Z</time></trkpt><trkpt lat="45.51103960468882" lon="11.379233945129565"><ele>79.0</ele><time>2026-04-06T18:57:41.925Z</time></trkpt><trkpt lat="45.51114023121914" lon="11.378961868790338"><ele>79.33333333333333</ele><time>2026-04-06T18:57:42.925Z</time></trkpt><trkpt lat="45.511232974534195" lon="11.37870402099161"><ele>79.66666666666667</ele><time>2026-04-06T18:57:43.925Z</time></trkpt><trkpt lat="45.51133143375771" lon="11.37845152081163"><ele>80.0</ele><time>2026-04-06T18:57:44.925Z</time></trkpt><trkpt lat="45.51142243419177" lon="11.378199840966296"><ele>81.66666666666667</ele><time>2026-04-06T18:57:45.925Z</time></trkpt><trkpt lat="45.51151582370362" lon="11.377950768846878"><ele>83.33333333333333</ele><time>2026-04-06T18:57:46.925Z</time></trkpt><trkpt lat="45.51160454363809" lon="11.377727917029587"><ele>85.0</ele><time>2026-04-06T18:57:47.925Z</time></trkpt><trkpt lat="45.51169048333658" lon="11.377509856548741"><ele>85.0</ele><time>2026-04-06T18:57:48.925Z</time></trkpt><trkpt lat="45.511777299903436" lon="11.377281411688472"><ele>85.0</ele><time>2026-04-06T18:57:49.925Z</time></trkpt><trkpt lat="45.511875340881225" lon="11.377053062834136"><ele>85.0</ele><time>2026-04-06T18:57:50.925Z</time></trkpt><trkpt lat="45.51196635692132" lon="11.376844009850382"><ele>84.66666666666666</ele><time>2026-04-06T18:57:51.925Z</time></trkpt><trkpt lat="45.512024523953876" lon="11.376653213556729"><ele>84.33333333333333</ele><time>2026-04-06T18:57:52.925Z</time></trkpt><trkpt lat="45.512087966833114" lon="11.376463474177372"><ele>84.0</ele><time>2026-04-06T18:57:53.925Z</time></trkpt><trkpt lat="45.512145988233364" lon="11.376251644556877"><ele>84.0</ele><time>2026-04-06T18:57:54.925Z</time></trkpt><trkpt lat="45.5121882885367" lon="11.376049744817927"><ele>84.0</ele><time>2026-04-06T18:57:55.925Z</time></trkpt><trkpt lat="45.51222038674865" lon="11.375856005562502"><ele>84.0</ele><time>2026-04-06T18:57:56.925Z</time></trkpt><trkpt lat="45.512238716372615" lon="11.375669598758178"><ele>84.0</ele><time>2026-04-06T18:57:57.925Z</time></trkpt><trkpt lat="45.51227496308219" lon="11.375469755150766"><ele>84.33333333333333</ele><time>2026-04-06T18:57:58.925Z</time></trkpt><trkpt lat="45.512309982856976" lon="11.37528908062432"><ele>84.66666666666666</ele><time>2026-04-06T18:57:59.925Z</time></trkpt><trkpt lat="45.51236992248913" lon="11.375082187258487"><ele>85.0</ele><time>2026-04-06T18:58:00.925Z</time></trkpt><trkpt lat="45.51245165687781" lon="11.374869452809236"><ele>84.33333333333333</ele><time>2026-04-06T18:58:01.925Z</time></trkpt><trkpt lat="45.51254697176699" lon="11.374659995822352"><ele>83.66666666666667</ele><time>2026-04-06T18:58:02.925Z</time></trkpt><trkpt lat="45.5126446976156" lon="11.374403437668198"><ele>83.0</ele><time>2026-04-06T18:58:03.925Z</time></trkpt><trkpt lat="45.51273509252149" lon="11.374182642731194"><ele>83.0</ele><time>2026-04-06T18:58:04.925Z</time></trkpt><trkpt lat="45.512831746011194" lon="11.373960630985213"><ele>83.0</ele><time>2026-04-06T18:58:05.925Z</time></trkpt><trkpt lat="45.51292690851046" lon="11.373733140817711"><ele>83.0</ele><time>2026-04-06T18:58:06.925Z</time></trkpt><trkpt lat="45.5130257316195" lon="11.373507435324141"><ele>82.0</ele><time>2026-04-06T18:58:07.925Z</time></trkpt><trkpt lat="45.513118908321715" lon="11.373293409254337"><ele>81.0</ele><time>2026-04-06T18:58:08.925Z</time></trkpt><trkpt lat="45.51319817241799" lon="11.373097974100281"><ele>80.0</ele><time>2026-04-06T18:58:09.925Z</time></trkpt><trkpt lat="45.5132784016786" lon="11.372908285631878"><ele>80.0</ele><time>2026-04-06T18:58:10.925Z</time></trkpt><trkpt lat="45.51335911697226" lon="11.372722326449294"><ele>80.0</ele><time>2026-04-06T18:58:11.925Z</time></trkpt><trkpt lat="45.51342936937315" lon="11.372542610953708"><ele>80.0</ele><time>2026-04-06T18:58:12.925Z</time></trkpt><trkpt lat="45.51349438696347" lon="11.372354351534371"><ele>80.0</ele><time>2026-04-06T18:58:13.925Z</time></trkpt><trkpt lat="45.51355538237425" lon="11.37215180437564"><ele>80.0</ele><time>2026-04-06T18:58:14.925Z</time></trkpt><trkpt lat="45.513602784868425" lon="11.371934511655526"><ele>80.0</ele><time>2026-04-06T18:58:15.925Z</time></trkpt><trkpt lat="45.51362749550239" lon="11.371705508711234"><ele>80.0</ele><time>2026-04-06T18:58:16.925Z</time></trkpt><trkpt lat="45.51364426922247" lon="11.37144335095978"><ele>80.33333333333334</ele><time>2026-04-06T18:58:17.925Z</time></trkpt><trkpt lat="45.51364156108232" lon="11.371152595764881"><ele>80.66666666666667</ele><time>2026-04-06T18:58:18.925Z</time></trkpt><trkpt lat="45.5136362128467" lon="11.370832588054174"><ele>81.0</ele><time>2026-04-06T18:58:19.925Z</time></trkpt><trkpt lat="45.51362984339452" lon="11.370492269165712"><ele>82.0</ele><time>2026-04-06T18:58:20.925Z</time></trkpt><trkpt lat="45.51363716910115" lon="11.370123508922495"><ele>83.0</ele><time>2026-04-06T18:58:21.925Z</time></trkpt><trkpt lat="45.513638407197845" lon="11.369731729034003"><ele>82.5</ele><time>2026-04-06T18:58:22.925Z</time></trkpt><trkpt lat="45.51363073725649" lon="11.369330804211582"><ele>82.0</ele><time>2026-04-06T18:58:23.925Z</time></trkpt><trkpt lat="45.51362512794682" lon="11.368976639176916"><ele>82.5</ele><time>2026-04-06T18:58:24.925Z</time></trkpt><trkpt lat="45.51362058478694" lon="11.368643725269289"><ele>83.0</ele><time>2026-04-06T18:58:25.925Z</time></trkpt><trkpt lat="45.5136231402388" lon="11.368321619015967"><ele>83.66666666666667</ele><time>2026-04-06T18:58:26.925Z</time></trkpt><trkpt lat="45.51362861094075" lon="11.368018858669744"><ele>84.33333333333333</ele><time>2026-04-06T18:58:27.925Z</time></trkpt><trkpt lat="45.51361671433232" lon="11.367722769039588"><ele>85.0</ele><time>2026-04-06T18:58:28.925Z</time></trkpt><trkpt lat="45.51360973963948" lon="11.367426361219987"><ele>85.33333333333333</ele><time>2026-04-06T18:58:29.925Z</time></trkpt><trkpt lat="45.513605140602515" lon="11.367139299284304"><ele>85.66666666666667</ele><time>2026-04-06T18:58:30.925Z</time></trkpt><trkpt lat="45.51360262073025" lon="11.366874597108213"><ele>86.0</ele><time>2026-04-06T18:58:31.925Z</time></trkpt><trkpt lat="45.51360046968524" lon="11.36662882461077"><ele>86.0</ele><time>2026-04-06T18:58:32.925Z</time></trkpt><trkpt lat="45.51359447324383" lon="11.36639626650922"><ele>86.0</ele><time>2026-04-06T18:58:33.925Z</time></trkpt><trkpt lat="45.51359439805706" lon="11.366161896126442"><ele>86.0</ele><time>2026-04-06T18:58:34.925Z</time></trkpt><trkpt lat="45.513589440655544" lon="11.365941009886704"><ele>86.5</ele><time>2026-04-06T18:58:35.925Z</time></trkpt><trkpt lat="45.5135875915748" lon="11.365720842209628"><ele>87.0</ele><time>2026-04-06T18:58:36.925Z</time></trkpt><trkpt lat="45.51357980712707" lon="11.365519550509594"><ele>87.5</ele><time>2026-04-06T18:58:37.925Z</time></trkpt><trkpt lat="45.51357760523139" lon="11.365330461913082"><ele>88.0</ele><time>2026-04-06T18:58:38.925Z</time></trkpt><trkpt lat="45.5135743060281" lon="11.365154319339272"><ele>88.25</ele><time>2026-04-06T18:58:39.925Z</time></trkpt><trkpt lat="45.51356819583272" lon="11.364988699541206"><ele>88.5</ele><time>2026-04-06T18:58:40.925Z</time></trkpt><trkpt lat="45.513557622141846" lon="11.364824597111538"><ele>88.75</ele><time>2026-04-06T18:58:41.925Z</time></trkpt><trkpt lat="45.513551587197966" lon="11.364658103360837"><ele>89.0</ele><time>2026-04-06T18:58:42.925Z</time></trkpt><trkpt lat="45.51355162043422" lon="11.364489825062826"><ele>89.16666666666667</ele><time>2026-04-06T18:58:43.925Z</time></trkpt><trkpt lat="45.51354732030449" lon="11.364348317999928"><ele>89.33333333333334</ele><time>2026-04-06T18:58:44.925Z</time></trkpt><trkpt lat="45.51355713323919" lon="11.364217577866857"><ele>89.5</ele><time>2026-04-06T18:58:45.925Z</time></trkpt><trkpt lat="45.513589084088586" lon="11.364110377388206"><ele>89.66666666666667</ele><time>2026-04-06T18:58:46.925Z</time></trkpt><trkpt lat="45.51363924389501" lon="11.364014446892975"><ele>89.83333333333333</ele><time>2026-04-06T18:58:47.925Z</time></trkpt><trkpt lat="45.51369149286771" lon="11.36390828514577"><ele>90.0</ele><time>2026-04-06T18:58:48.925Z</time></trkpt><trkpt lat="45.51373764418714" lon="11.363802248673844"><ele>90.4</ele><time>2026-04-06T18:58:49.925Z</time></trkpt><trkpt lat="45.51373902415467" lon="11.363674814859367"><ele>90.8</ele><time>2026-04-06T18:58:50.925Z</time></trkpt><trkpt lat="45.51370538987533" lon="11.363544792561061"><ele>91.19999999999999</ele><time>2026-04-06T18:58:51.925Z</time></trkpt><trkpt lat="45.513649017730735" lon="11.363461605907226"><ele>91.6</ele><time>2026-04-06T18:58:52.925Z</time></trkpt><trkpt lat="45.513611248820375" lon="11.363358752530393"><ele>92.0</ele><time>2026-04-06T18:58:53.925Z</time></trkpt><trkpt lat="45.51357395045221" lon="11.363218308240901"><ele>92.0</ele><time>2026-04-06T18:58:54.925Z</time></trkpt><trkpt lat="45.51354155061931" lon="11.363076794319813"><ele>92.0</ele><time>2026-04-06T18:58:55.925Z</time></trkpt><trkpt lat="45.51352251783128" lon="11.36290225419883"><ele>92.0</ele><time>2026-04-06T18:58:56.925Z</time></trkpt><trkpt lat="45.51351900070803" lon="11.362710527125357"><ele>92.0</ele><time>2026-04-06T18:58:57.925Z</time></trkpt><trkpt lat="45.513527397918125" lon="11.362529720740497"><ele>92.0</ele><time>2026-04-06T18:58:58.925Z</time></trkpt><trkpt lat="45.513535578424694" lon="11.362306049802623"><ele>92.0</ele><time>2026-04-06T18:58:59.925Z</time></trkpt><trkpt lat="45.513536498638544" lon="11.362008023369095"><ele>92.0</ele><time>2026-04-06T18:59:00.925Z</time></trkpt><trkpt lat="45.5135250517689" lon="11.361670953513215"><ele>92.33333333333334</ele><time>2026-04-06T18:59:01.925Z</time></trkpt><trkpt lat="45.51351414891901" lon="11.361382203370933"><ele>92.66666666666667</ele><time>2026-04-06T18:59:02.925Z</time></trkpt><trkpt lat="45.513505012766664" lon="11.361139740502775"><ele>93.0</ele><time>2026-04-06T18:59:03.925Z</time></trkpt><trkpt lat="45.5134963574829" lon="11.36096170146186"><ele>93.0</ele><time>2026-04-06T18:59:04.925Z</time></trkpt><trkpt lat="45.513504858399244" lon="11.360826003654955"><ele>93.0</ele><time>2026-04-06T18:59:05.925Z</time></trkpt><trkpt lat="45.5135215158848" lon="11.360707176957103"><ele>93.0</ele><time>2026-04-06T18:59:06.925Z</time></trkpt><trkpt lat="45.513549220033156" lon="11.360597129212062"><ele>93.0</ele><time>2026-04-06T18:59:07.925Z</time></trkpt><trkpt lat="45.51355380307761" lon="11.360476409753698"><ele>93.0</ele><time>2026-04-06T18:59:08.925Z</time></trkpt><trkpt lat="45.513524115849094" lon="11.360364959812442"><ele>93.0</ele><time>2026-04-06T18:59:09.925Z</time></trkpt><trkpt lat="45.51345822400651" lon="11.360284632013693"><ele>93.60000000000001</ele><time>2026-04-06T18:59:10.925Z</time></trkpt><trkpt lat="45.513372537881395" lon="11.360253503372343"><ele>94.2</ele><time>2026-04-06T18:59:11.925Z</time></trkpt><trkpt lat="45.513295524552305" lon="11.360205715275576"><ele>94.8</ele><time>2026-04-06T18:59:12.925Z</time></trkpt><trkpt lat="45.51321922398364" lon="11.360101561374554"><ele>95.4</ele><time>2026-04-06T18:59:13.925Z</time></trkpt><trkpt lat="45.51315335185943" lon="11.359966641266563"><ele>96.0</ele><time>2026-04-06T18:59:14.925Z</time></trkpt><trkpt lat="45.513088646913225" lon="11.359813549790791"><ele>95.66666666666667</ele><time>2026-04-06T18:59:15.925Z</time></trkpt><trkpt lat="45.51301876576889" lon="11.359595211168395"><ele>95.33333333333334</ele><time>2026-04-06T18:59:16.925Z</time></trkpt><trkpt lat="45.51293912276129" lon="11.359299901890086"><ele>95.0</ele><time>2026-04-06T18:59:17.925Z</time></trkpt><trkpt lat="45.51285856396524" lon="11.358965923902664"><ele>94.5</ele><time>2026-04-06T18:59:18.925Z</time></trkpt><trkpt lat="45.51276484042382" lon="11.358639016514411"><ele>94.0</ele><time>2026-04-06T18:59:19.925Z</time></trkpt><trkpt lat="45.512657352400815" lon="11.358267933713755"><ele>95.5</ele><time>2026-04-06T18:59:20.925Z</time></trkpt><trkpt lat="45.51254128793072" lon="11.357865295695145"><ele>97.0</ele><time>2026-04-06T18:59:21.925Z</time></trkpt><trkpt lat="45.51242851706204" lon="11.357469468027373"><ele>97.0</ele><time>2026-04-06T18:59:22.925Z</time></trkpt><trkpt lat="45.512312722499864" lon="11.357064127961797"><ele>97.0</ele><time>2026-04-06T18:59:23.925Z</time></trkpt><trkpt lat="45.5122062604913" lon="11.356669999054816"><ele>97.5</ele><time>2026-04-06T18:59:24.925Z</time></trkpt><trkpt lat="45.512111876934675" lon="11.356299956510693"><ele>98.0</ele><time>2026-04-06T18:59:25.925Z</time></trkpt><trkpt lat="45.51204047305388" lon="11.355960602989503"><ele>97.66666666666666</ele><time>2026-04-06T18:59:26.925Z</time></trkpt><trkpt lat="45.511992095041975" lon="11.355636832765123"><ele>97.33333333333334</ele><time>2026-04-06T18:59:27.925Z</time></trkpt><trkpt lat="45.511963494882096" lon="11.355340677320168"><ele>97.0</ele><time>2026-04-06T18:59:28.925Z</time></trkpt><trkpt lat="45.51193970205002" lon="11.35506015330799"><ele>97.0</ele><time>2026-04-06T18:59:29.925Z</time></trkpt><trkpt lat="45.511927555554664" lon="11.354786724592389"><ele>97.0</ele><time>2026-04-06T18:59:30.925Z</time></trkpt><trkpt lat="45.51191914839482" lon="11.354512021553294"><ele>97.0</ele><time>2026-04-06T18:59:31.925Z</time></trkpt><trkpt lat="45.511908437398226" lon="11.354258988948692"><ele>97.33333333333334</ele><time>2026-04-06T18:59:32.925Z</time></trkpt><trkpt lat="45.51189466433232" lon="11.354008011478328"><ele>97.66666666666666</ele><time>2026-04-06T18:59:33.925Z</time></trkpt><trkpt lat="45.51188004940255" lon="11.353715620401614"><ele>98.0</ele><time>2026-04-06T18:59:34.925Z</time></trkpt><trkpt lat="45.51185216524209" lon="11.353396924064889"><ele>98.0</ele><time>2026-04-06T18:59:35.925Z</time></trkpt><trkpt lat="45.511821288230784" lon="11.353041895110627"><ele>98.0</ele><time>2026-04-06T18:59:36.925Z</time></trkpt><trkpt lat="45.5117899248572" lon="11.352630189294388"><ele>98.0</ele><time>2026-04-06T18:59:37.925Z</time></trkpt><trkpt lat="45.51176322226777" lon="11.352246122100675"><ele>98.0</ele><time>2026-04-06T18:59:38.925Z</time></trkpt><trkpt lat="45.51173410914345" lon="11.351896457151174"><ele>98.5</ele><time>2026-04-06T18:59:39.926Z</time></trkpt><trkpt lat="45.51171164610534" lon="11.351566997800607"><ele>99.0</ele><time>2026-04-06T18:59:40.926Z</time></trkpt><trkpt lat="45.5116887523861" lon="11.351254867203455"><ele>99.0</ele><time>2026-04-06T18:59:41.926Z</time></trkpt><trkpt lat="45.51166314146985" lon="11.350940535179499"><ele>99.0</ele><time>2026-04-06T18:59:42.926Z</time></trkpt><trkpt lat="45.51163655007968" lon="11.350589478810933"><ele>99.0</ele><time>2026-04-06T18:59:43.926Z</time></trkpt><trkpt lat="45.51159963594857" lon="11.350229298080345"><ele>99.0</ele><time>2026-04-06T18:59:44.926Z</time></trkpt><trkpt lat="45.51157505168058" lon="11.349880482960348"><ele>99.0</ele><time>2026-04-06T18:59:45.926Z</time></trkpt><trkpt lat="45.51156287553012" lon="11.349585805864928"><ele>99.0</ele><time>2026-04-06T18:59:46.926Z</time></trkpt><trkpt lat="45.511557474000526" lon="11.349318523778175"><ele>99.0</ele><time>2026-04-06T18:59:47.926Z</time></trkpt><trkpt lat="45.511545495853554" lon="11.349041079122056"><ele>99.66666666666666</ele><time>2026-04-06T18:59:48.926Z</time></trkpt><trkpt lat="45.51155171892712" lon="11.348743534099745"><ele>100.33333333333333</ele><time>2026-04-06T18:59:49.926Z</time></trkpt><trkpt lat="45.51157190470968" lon="11.348407785860399"><ele>101.0</ele><time>2026-04-06T18:59:50.926Z</time></trkpt><trkpt lat="45.51161642655847" lon="11.348053924443443"><ele>101.25</ele><time>2026-04-06T18:59:51.926Z</time></trkpt><trkpt lat="45.51165622271429" lon="11.34777269250218"><ele>101.5</ele><time>2026-04-06T18:59:52.926Z</time></trkpt><trkpt lat="45.511678513637854" lon="11.347572298188576"><ele>101.75</ele><time>2026-04-06T18:59:53.926Z</time></trkpt><trkpt lat="45.51167366953974" lon="11.347433893559463"><ele>102.0</ele><time>2026-04-06T18:59:54.926Z</time></trkpt><trkpt lat="45.5116392875035" lon="11.347324903159437"><ele>102.0</ele><time>2026-04-06T18:59:55.926Z</time></trkpt><trkpt lat="45.51158206580095" lon="11.34721089103407"><ele>102.0</ele><time>2026-04-06T18:59:56.926Z</time></trkpt><trkpt lat="45.51147273770993" lon="11.347122339804358"><ele>102.0</ele><time>2026-04-06T18:59:57.926Z</time></trkpt><trkpt lat="45.51131232832712" lon="11.34707686107286"><ele>102.0</ele><time>2026-04-06T18:59:58.926Z</time></trkpt><trkpt lat="45.511124346396315" lon="11.347043141450042"><ele>101.0</ele><time>2026-04-06T18:59:59.926Z</time></trkpt><trkpt lat="45.510913518140256" lon="11.347044659003668"><ele>100.0</ele><time>2026-04-06T19:00:00.926Z</time></trkpt><trkpt lat="45.51069760754508" lon="11.347065707736173"><ele>99.0</ele><time>2026-04-06T19:00:01.926Z</time></trkpt><trkpt lat="45.510529099045314" lon="11.347052175495357"><ele>98.75</ele><time>2026-04-06T19:00:02.926Z</time></trkpt><trkpt lat="45.510389800998745" lon="11.346994487858549"><ele>98.5</ele><time>2026-04-06T19:00:03.926Z</time></trkpt><trkpt lat="45.51025697721178" lon="11.346892721966"><ele>98.25</ele><time>2026-04-06T19:00:04.926Z</time></trkpt><trkpt lat="45.510187256216234" lon="11.346721917865302"><ele>98.0</ele><time>2026-04-06T19:00:05.926Z</time></trkpt><trkpt lat="45.510116579999064" lon="11.346498343040636"><ele>98.0</ele><time>2026-04-06T19:00:06.926Z</time></trkpt><trkpt lat="45.510018819690764" lon="11.346146735987347"><ele>98.0</ele><time>2026-04-06T19:00:07.926Z</time></trkpt><trkpt lat="45.50990515830002" lon="11.345854591508726"><ele>98.0</ele><time>2026-04-06T19:00:08.926Z</time></trkpt><trkpt lat="45.50979096029631" lon="11.345594780771615"><ele>98.0</ele><time>2026-04-06T19:00:09.926Z</time></trkpt><trkpt lat="45.50968829688021" lon="11.34536674674189"><ele>98.0</ele><time>2026-04-06T19:00:10.926Z</time></trkpt><trkpt lat="45.509604179970445" lon="11.34515456637318"><ele>98.4</ele><time>2026-04-06T19:00:11.926Z</time></trkpt><trkpt lat="45.50953340521188" lon="11.344982647607239"><ele>98.80000000000001</ele><time>2026-04-06T19:00:12.926Z</time></trkpt><trkpt lat="45.50947830435347" lon="11.344854525317869"><ele>99.2</ele><time>2026-04-06T19:00:13.926Z</time></trkpt><trkpt lat="45.509435418406404" lon="11.344748956693236"><ele>99.6</ele><time>2026-04-06T19:00:14.926Z</time></trkpt><trkpt lat="45.50938741085416" lon="11.344652201481502"><ele>100.0</ele><time>2026-04-06T19:00:15.926Z</time></trkpt><trkpt lat="45.50934790227366" lon="11.34456161310356"><ele>99.8</ele><time>2026-04-06T19:00:16.926Z</time></trkpt><trkpt lat="45.509339489531904" lon="11.344411956061244"><ele>99.6</ele><time>2026-04-06T19:00:18.926Z</time></trkpt><trkpt lat="45.50937277574871" lon="11.34430745276447"><ele>99.4</ele><time>2026-04-06T19:00:19.926Z</time></trkpt><trkpt lat="45.509447302691996" lon="11.344235377267399"><ele>99.2</ele><time>2026-04-06T19:00:20.926Z</time></trkpt><trkpt lat="45.5095396766237" lon="11.344169152894466"><ele>99.0</ele><time>2026-04-06T19:00:21.926Z</time></trkpt><trkpt lat="45.50962337818081" lon="11.344068270246392"><ele>99.0</ele><time>2026-04-06T19:00:22.926Z</time></trkpt><trkpt lat="45.50967920479434" lon="11.343959744270881"><ele>99.0</ele><time>2026-04-06T19:00:23.926Z</time></trkpt><trkpt lat="45.50971762612761" lon="11.343834175917523"><ele>99.0</ele><time>2026-04-06T19:00:24.926Z</time></trkpt><trkpt lat="45.50975557182725" lon="11.34373806252933"><ele>99.0</ele><time>2026-04-06T19:00:25.926Z</time></trkpt><trkpt lat="45.50981317888961" lon="11.34359319368674"><ele>99.0</ele><time>2026-04-06T19:00:27.926Z</time></trkpt><trkpt lat="45.509864710922045" lon="11.343412924548337"><ele>99.16666666666667</ele><time>2026-04-06T19:00:29.926Z</time></trkpt><trkpt lat="45.50989988586584" lon="11.343312736840176"><ele>99.33333333333334</ele><time>2026-04-06T19:00:30.926Z</time></trkpt><trkpt lat="45.50994733148903" lon="11.343207441113211"><ele>99.5</ele><time>2026-04-06T19:00:31.926Z</time></trkpt><trkpt lat="45.509983224488835" lon="11.343107217173337"><ele>99.66666666666667</ele><time>2026-04-06T19:00:32.926Z</time></trkpt><trkpt lat="45.51002515141081" lon="11.342991248712755"><ele>99.83333333333334</ele><time>2026-04-06T19:00:34.926Z</time></trkpt><trkpt lat="45.51009114784643" lon="11.343053006040922"><ele>100.0</ele><time>2026-04-06T19:00:38.926Z</time></trkpt><trkpt lat="45.50990819289458" lon="11.343057672264706"><ele>100.66666666666667</ele><time>2026-04-06T19:02:29.927Z</time></trkpt><trkpt lat="45.509838128514716" lon="11.343276021601339"><ele>101.33333333333334</ele><time>2026-04-06T19:02:30.927Z</time></trkpt><trkpt lat="45.50975059228382" lon="11.34350829020214"><ele>102.0</ele><time>2026-04-06T19:02:31.927Z</time></trkpt><trkpt lat="45.50965751396065" lon="11.343778529046787"><ele>102.0</ele><time>2026-04-06T19:02:32.927Z</time></trkpt><trkpt lat="45.50955563136772" lon="11.343995453535022"><ele>102.0</ele><time>2026-04-06T19:02:33.927Z</time></trkpt><trkpt lat="45.50947308711327" lon="11.344126738635923"><ele>102.0</ele><time>2026-04-06T19:02:34.927Z</time></trkpt><trkpt lat="45.509391521045615" lon="11.344221191774531"><ele>102.0</ele><time>2026-04-06T19:02:35.927Z</time></trkpt><trkpt lat="45.509306249408525" lon="11.34428142296987"><ele>102.0</ele><time>2026-04-06T19:02:36.927Z</time></trkpt><trkpt lat="45.5092400248507" lon="11.344347903625309"><ele>102.0</ele><time>2026-04-06T19:02:37.927Z</time></trkpt><trkpt lat="45.50918747441655" lon="11.34439804238467"><ele>102.0</ele><time>2026-04-06T19:02:38.927Z</time></trkpt><trkpt lat="45.509197836462626" lon="11.344557074046463"><ele>102.0</ele><time>2026-04-06T19:02:40.927Z</time></trkpt><trkpt lat="45.50925021766228" lon="11.344648077021354"><ele>102.0</ele><time>2026-04-06T19:02:41.927Z</time></trkpt><trkpt lat="45.509334702528164" lon="11.344756969732545"><ele>101.33333333333334</ele><time>2026-04-06T19:02:42.927Z</time></trkpt><trkpt lat="45.50943617547935" lon="11.344946374590808"><ele>100.66666666666667</ele><time>2026-04-06T19:02:43.927Z</time></trkpt><trkpt lat="45.509542560997495" lon="11.345198296150564"><ele>100.0</ele><time>2026-04-06T19:02:44.927Z</time></trkpt><trkpt lat="45.50964657506344" lon="11.345429390107439"><ele>99.33333333333334</ele><time>2026-04-06T19:02:45.927Z</time></trkpt><trkpt lat="45.50973752970247" lon="11.345630243632566"><ele>98.66666666666666</ele><time>2026-04-06T19:02:46.927Z</time></trkpt><trkpt lat="45.5098228386451" lon="11.345827429941684"><ele>98.0</ele><time>2026-04-06T19:02:47.927Z</time></trkpt><trkpt lat="45.50990889949675" lon="11.346035902854991"><ele>98.0</ele><time>2026-04-06T19:02:48.927Z</time></trkpt><trkpt lat="45.510000503340656" lon="11.346250346674147"><ele>98.0</ele><time>2026-04-06T19:02:49.927Z</time></trkpt><trkpt lat="45.510095541265905" lon="11.346472246453189"><ele>98.0</ele><time>2026-04-06T19:02:50.927Z</time></trkpt><trkpt lat="45.51017425285163" lon="11.34668975144012"><ele>98.0</ele><time>2026-04-06T19:02:51.927Z</time></trkpt><trkpt lat="45.51025209536261" lon="11.346883517381993"><ele>98.0</ele><time>2026-04-06T19:02:52.927Z</time></trkpt><trkpt lat="45.51031750164442" lon="11.347069401580619"><ele>98.0</ele><time>2026-04-06T19:02:53.927Z</time></trkpt><trkpt lat="45.51035896838912" lon="11.347213582851282"><ele>98.0</ele><time>2026-04-06T19:02:54.927Z</time></trkpt><trkpt lat="45.51037382110279" lon="11.34737040558857"><ele>98.0</ele><time>2026-04-06T19:02:55.927Z</time></trkpt><trkpt lat="45.51036460181155" lon="11.347542363796055"><ele>98.0</ele><time>2026-04-06T19:02:56.927Z</time></trkpt><trkpt lat="45.510349181897446" lon="11.347741044258521"><ele>98.0</ele><time>2026-04-06T19:02:57.927Z</time></trkpt><trkpt lat="45.510320093894684" lon="11.347956003622338"><ele>98.0</ele><time>2026-04-06T19:02:58.927Z</time></trkpt><trkpt lat="45.51028562676315" lon="11.348162381046679"><ele>98.0</ele><time>2026-04-06T19:02:59.927Z</time></trkpt><trkpt lat="45.51025264723275" lon="11.348368224271864"><ele>98.0</ele><time>2026-04-06T19:03:00.927Z</time></trkpt><trkpt lat="45.510229028216855" lon="11.348553416871663"><ele>98.0</ele><time>2026-04-06T19:03:01.927Z</time></trkpt><trkpt lat="45.51021132841888" lon="11.348718079186398"><ele>98.0</ele><time>2026-04-06T19:03:02.927Z</time></trkpt><trkpt lat="45.51021811210008" lon="11.348850508698066"><ele>98.0</ele><time>2026-04-06T19:03:03.927Z</time></trkpt><trkpt lat="45.51023873297061" lon="11.348974738232629"><ele>98.0</ele><time>2026-04-06T19:03:04.927Z</time></trkpt><trkpt lat="45.510288229064614" lon="11.34908266186057"><ele>98.0</ele><time>2026-04-06T19:03:05.927Z</time></trkpt><trkpt lat="45.51036941201121" lon="11.349165085726536"><ele>98.0</ele><time>2026-04-06T19:03:06.927Z</time></trkpt><trkpt lat="45.51045504954785" lon="11.349202426002037"><ele>98.0</ele><time>2026-04-06T19:03:07.927Z</time></trkpt><trkpt lat="45.510548449386356" lon="11.349220116244911"><ele>98.5</ele><time>2026-04-06T19:03:08.927Z</time></trkpt><trkpt lat="45.510666557865754" lon="11.349252940403364"><ele>99.0</ele><time>2026-04-06T19:03:09.927Z</time></trkpt><trkpt lat="45.510799224909306" lon="11.349293822128395"><ele>99.5</ele><time>2026-04-06T19:03:10.927Z</time></trkpt><trkpt lat="45.51093449122954" lon="11.349288769054644"><ele>100.0</ele><time>2026-04-06T19:03:11.927Z</time></trkpt><trkpt lat="45.511049696290115" lon="11.349269060873523"><ele>100.0</ele><time>2026-04-06T19:03:12.927Z</time></trkpt><trkpt lat="45.51115201405164" lon="11.349258871483618"><ele>100.0</ele><time>2026-04-06T19:03:13.927Z</time></trkpt><trkpt lat="45.51124363038689" lon="11.34926712152338"><ele>100.0</ele><time>2026-04-06T19:03:14.927Z</time></trkpt><trkpt lat="45.51133804181752" lon="11.349305335822185"><ele>100.0</ele><time>2026-04-06T19:03:15.927Z</time></trkpt><trkpt lat="45.51142829882676" lon="11.349395715551768"><ele>100.0</ele><time>2026-04-06T19:03:16.927Z</time></trkpt><trkpt lat="45.5114944967338" lon="11.349530570918885"><ele>99.66666666666667</ele><time>2026-04-06T19:03:17.927Z</time></trkpt><trkpt lat="45.51153131206114" lon="11.349708627726203"><ele>99.33333333333334</ele><time>2026-04-06T19:03:18.927Z</time></trkpt><trkpt lat="45.511555404149426" lon="11.349924889501901"><ele>99.0</ele><time>2026-04-06T19:03:19.927Z</time></trkpt><trkpt lat="45.51158393794056" lon="11.3501841272277"><ele>99.0</ele><time>2026-04-06T19:03:20.927Z</time></trkpt><trkpt lat="45.51160164976008" lon="11.35049005915411"><ele>99.0</ele><time>2026-04-06T19:03:21.927Z</time></trkpt><trkpt lat="45.51162398292363" lon="11.350835796151765"><ele>99.0</ele><time>2026-04-06T19:03:22.927Z</time></trkpt><trkpt lat="45.51165873743036" lon="11.351231407114037"><ele>99.0</ele><time>2026-04-06T19:03:23.927Z</time></trkpt><trkpt lat="45.51168932974836" lon="11.351652674516528"><ele>99.0</ele><time>2026-04-06T19:03:24.927Z</time></trkpt><trkpt lat="45.511723250624115" lon="11.35207881225769"><ele>99.0</ele><time>2026-04-06T19:03:25.927Z</time></trkpt><trkpt lat="45.51175588013427" lon="11.352543538908101"><ele>98.5</ele><time>2026-04-06T19:03:26.927Z</time></trkpt><trkpt lat="45.51177998015719" lon="11.35300929040351"><ele>98.0</ele><time>2026-04-06T19:03:27.927Z</time></trkpt><trkpt lat="45.51180661567383" lon="11.353441257594092"><ele>98.0</ele><time>2026-04-06T19:03:28.927Z</time></trkpt><trkpt lat="45.511834495977666" lon="11.35386240393246"><ele>98.0</ele><time>2026-04-06T19:03:29.927Z</time></trkpt><trkpt lat="45.51186144897081" lon="11.354259479585055"><ele>98.0</ele><time>2026-04-06T19:03:30.927Z</time></trkpt><trkpt lat="45.51188860157969" lon="11.354648180541458"><ele>98.0</ele><time>2026-04-06T19:03:31.927Z</time></trkpt><trkpt lat="45.51191735233542" lon="11.355037534966378"><ele>97.5</ele><time>2026-04-06T19:03:32.927Z</time></trkpt><trkpt lat="45.51194679395228" lon="11.355431703636365"><ele>97.0</ele><time>2026-04-06T19:03:33.927Z</time></trkpt><trkpt lat="45.511995493913496" lon="11.355809512165328"><ele>97.0</ele><time>2026-04-06T19:03:34.927Z</time></trkpt><trkpt lat="45.51205413198025" lon="11.3561792605427"><ele>97.0</ele><time>2026-04-06T19:03:35.927Z</time></trkpt><trkpt lat="45.512142736580714" lon="11.356539385011642"><ele>97.0</ele><time>2026-04-06T19:03:36.927Z</time></trkpt><trkpt lat="45.51224685981055" lon="11.356923693248437"><ele>97.0</ele><time>2026-04-06T19:03:37.927Z</time></trkpt><trkpt lat="45.51235802189122" lon="11.357327438302088"><ele>97.0</ele><time>2026-04-06T19:03:38.927Z</time></trkpt><trkpt lat="45.512477401282624" lon="11.357742551575548"><ele>97.0</ele><time>2026-04-06T19:03:39.927Z</time></trkpt><trkpt lat="45.51258522896133" lon="11.358123155655516"><ele>95.5</ele><time>2026-04-06T19:03:40.927Z</time></trkpt><trkpt lat="45.51268329120307" lon="11.358478860946082"><ele>94.0</ele><time>2026-04-06T19:03:41.927Z</time></trkpt><trkpt lat="45.51277440161757" lon="11.358808124729455"><ele>94.0</ele><time>2026-04-06T19:03:42.927Z</time></trkpt><trkpt lat="45.51285989349459" lon="11.359126051022354"><ele>94.0</ele><time>2026-04-06T19:03:43.927Z</time></trkpt><trkpt lat="45.51295440118021" lon="11.359407804590615"><ele>94.33333333333333</ele><time>2026-04-06T19:03:44.927Z</time></trkpt><trkpt lat="45.51303538675905" lon="11.35968056183893"><ele>94.66666666666667</ele><time>2026-04-06T19:03:45.927Z</time></trkpt><trkpt lat="45.51310455994923" lon="11.359906416021499"><ele>95.0</ele><time>2026-04-06T19:03:46.927Z</time></trkpt><trkpt lat="45.51316283114642" lon="11.360084363345397"><ele>95.25</ele><time>2026-04-06T19:03:47.927Z</time></trkpt><trkpt lat="45.51321598606365" lon="11.360250255979114"><ele>95.5</ele><time>2026-04-06T19:03:48.927Z</time></trkpt><trkpt lat="45.51326698906265" lon="11.360434557687139"><ele>95.75</ele><time>2026-04-06T19:03:49.927Z</time></trkpt><trkpt lat="45.51331406509341" lon="11.360650292319997"><ele>96.0</ele><time>2026-04-06T19:03:50.927Z</time></trkpt><trkpt lat="45.513383195375575" lon="11.360876757603991"><ele>95.33333333333333</ele><time>2026-04-06T19:03:51.927Z</time></trkpt><trkpt lat="45.51342996835555" lon="11.36113796267707"><ele>94.66666666666666</ele><time>2026-04-06T19:03:52.927Z</time></trkpt><trkpt lat="45.51344111792864" lon="11.361450754093406"><ele>94.0</ele><time>2026-04-06T19:03:53.927Z</time></trkpt><trkpt lat="45.51343671773478" lon="11.361798787301778"><ele>94.0</ele><time>2026-04-06T19:03:54.927Z</time></trkpt><trkpt lat="45.51343595395711" lon="11.362096628212816"><ele>94.0</ele><time>2026-04-06T19:03:55.927Z</time></trkpt><trkpt lat="45.51345390138287" lon="11.362353615609852"><ele>94.0</ele><time>2026-04-06T19:03:56.927Z</time></trkpt><trkpt lat="45.51345499501863" lon="11.362592425112206"><ele>93.5</ele><time>2026-04-06T19:03:57.927Z</time></trkpt><trkpt lat="45.51345871820214" lon="11.362810804998375"><ele>93.0</ele><time>2026-04-06T19:03:58.928Z</time></trkpt><trkpt lat="45.51347273869143" lon="11.362985528107114"><ele>92.5</ele><time>2026-04-06T19:03:59.928Z</time></trkpt><trkpt lat="45.51348872897725" lon="11.363144674686874"><ele>92.0</ele><time>2026-04-06T19:04:00.928Z</time></trkpt><trkpt lat="45.51352025213626" lon="11.36326549820398"><ele>92.0</ele><time>2026-04-06T19:04:01.928Z</time></trkpt><trkpt lat="45.513541554759826" lon="11.363389844658657"><ele>92.0</ele><time>2026-04-06T19:04:02.928Z</time></trkpt><trkpt lat="45.51352434839286" lon="11.36349947045321"><ele>92.0</ele><time>2026-04-06T19:04:03.928Z</time></trkpt><trkpt lat="45.51348436943917" lon="11.36361841581116"><ele>92.0</ele><time>2026-04-06T19:04:04.928Z</time></trkpt><trkpt lat="45.51346535772068" lon="11.363742087816874"><ele>92.0</ele><time>2026-04-06T19:04:05.928Z</time></trkpt><trkpt lat="45.51348810284179" lon="11.363851063310783"><ele>92.0</ele><time>2026-04-06T19:04:06.928Z</time></trkpt><trkpt lat="45.51354055109661" lon="11.363923352465132"><ele>92.19999999999999</ele><time>2026-04-06T19:04:07.928Z</time></trkpt><trkpt lat="45.51361700870072" lon="11.36394102401239"><ele>92.4</ele><time>2026-04-06T19:04:08.928Z</time></trkpt><trkpt lat="45.51369360079714" lon="11.363901879312968"><ele>92.6</ele><time>2026-04-06T19:04:09.928Z</time></trkpt><trkpt lat="45.5137745212948" lon="11.363799380541412"><ele>92.80000000000001</ele><time>2026-04-06T19:04:10.928Z</time></trkpt><trkpt lat="45.51384467748949" lon="11.363673173506069"><ele>93.0</ele><time>2026-04-06T19:04:11.928Z</time></trkpt><trkpt lat="45.51392180808376" lon="11.363574222868314"><ele>93.0</ele><time>2026-04-06T19:04:12.928Z</time></trkpt><trkpt lat="45.51401575757514" lon="11.36349355051971"><ele>93.0</ele><time>2026-04-06T19:04:13.928Z</time></trkpt><trkpt lat="45.51413603256639" lon="11.363424009756356"><ele>93.0</ele><time>2026-04-06T19:04:14.928Z</time></trkpt><trkpt lat="45.514263231740216" lon="11.363376257397498"><ele>93.0</ele><time>2026-04-06T19:04:15.928Z</time></trkpt><trkpt lat="45.514403496709235" lon="11.363357500670878"><ele>93.0</ele><time>2026-04-06T19:04:16.928Z</time></trkpt><trkpt lat="45.51455808299079" lon="11.363350418640529"><ele>93.0</ele><time>2026-04-06T19:04:17.928Z</time></trkpt><trkpt lat="45.51472458921651" lon="11.363338897913485"><ele>93.0</ele><time>2026-04-06T19:04:18.928Z</time></trkpt><trkpt lat="45.51489656058517" lon="11.36331920842275"><ele>91.5</ele><time>2026-04-06T19:04:19.928Z</time></trkpt><trkpt lat="45.51510508858706" lon="11.363297159409766"><ele>90.0</ele><time>2026-04-06T19:04:20.928Z</time></trkpt><trkpt lat="45.515345879821965" lon="11.363288207814055"><ele>91.5</ele><time>2026-04-06T19:04:21.928Z</time></trkpt><trkpt lat="45.51560624884691" lon="11.363282331477333"><ele>93.0</ele><time>2026-04-06T19:04:22.928Z</time></trkpt><trkpt lat="45.5158382914084" lon="11.363274689573434"><ele>93.0</ele><time>2026-04-06T19:04:23.928Z</time></trkpt><trkpt lat="45.51604566098177" lon="11.363266302282003"><ele>93.0</ele><time>2026-04-06T19:04:24.928Z</time></trkpt><trkpt lat="45.51624224649333" lon="11.363266949112209"><ele>93.0</ele><time>2026-04-06T19:04:25.928Z</time></trkpt><trkpt lat="45.516418901835" lon="11.363255111304616"><ele>93.25</ele><time>2026-04-06T19:04:26.928Z</time></trkpt><trkpt lat="45.516575726778655" lon="11.363234249151207"><ele>93.5</ele><time>2026-04-06T19:04:27.928Z</time></trkpt><trkpt lat="45.51672224261199" lon="11.363248092469826"><ele>93.75</ele><time>2026-04-06T19:04:28.928Z</time></trkpt><trkpt lat="45.51685548173641" lon="11.363307958106505"><ele>94.0</ele><time>2026-04-06T19:04:29.928Z</time></trkpt><trkpt lat="45.516994455174064" lon="11.363426593694522"><ele>93.25</ele><time>2026-04-06T19:04:30.928Z</time></trkpt><trkpt lat="45.51711393283658" lon="11.36356344703154"><ele>92.5</ele><time>2026-04-06T19:04:31.928Z</time></trkpt><trkpt lat="45.51723331264816" lon="11.363688970994643"><ele>91.75</ele><time>2026-04-06T19:04:32.928Z</time></trkpt><trkpt lat="45.51733893270987" lon="11.36377777071215"><ele>91.0</ele><time>2026-04-06T19:04:33.928Z</time></trkpt><trkpt lat="45.51746270262309" lon="11.363847278925252"><ele>91.0</ele><time>2026-04-06T19:04:34.928Z</time></trkpt><trkpt lat="45.517611486844544" lon="11.363869192760484"><ele>91.0</ele><time>2026-04-06T19:04:35.928Z</time></trkpt><trkpt lat="45.517764929635554" lon="11.363845900241756"><ele>91.0</ele><time>2026-04-06T19:04:36.928Z</time></trkpt><trkpt lat="45.517951594633594" lon="11.36377953926795"><ele>91.33333333333333</ele><time>2026-04-06T19:04:37.928Z</time></trkpt><trkpt lat="45.518159789001125" lon="11.363747034104264"><ele>91.66666666666667</ele><time>2026-04-06T19:04:38.928Z</time></trkpt><trkpt lat="45.51839400550365" lon="11.363717221319554"><ele>92.0</ele><time>2026-04-06T19:04:39.928Z</time></trkpt><trkpt lat="45.518647660411325" lon="11.363655541876499"><ele>91.0</ele><time>2026-04-06T19:04:40.928Z</time></trkpt><trkpt lat="45.51890350838396" lon="11.363602844618002"><ele>90.0</ele><time>2026-04-06T19:04:41.928Z</time></trkpt><trkpt lat="45.51913370199884" lon="11.363563871082661"><ele>90.0</ele><time>2026-04-06T19:04:42.928Z</time></trkpt><trkpt lat="45.519337263846325" lon="11.363528170953659"><ele>90.0</ele><time>2026-04-06T19:04:43.928Z</time></trkpt><trkpt lat="45.51953523866716" lon="11.363514283149415"><ele>90.0</ele><time>2026-04-06T19:04:44.928Z</time></trkpt><trkpt lat="45.519723769282976" lon="11.36352382056871"><ele>90.0</ele><time>2026-04-06T19:04:45.928Z</time></trkpt><trkpt lat="45.51993330228842" lon="11.363556813488925"><ele>90.0</ele><time>2026-04-06T19:04:46.928Z</time></trkpt><trkpt lat="45.520162228902045" lon="11.363624369856844"><ele>90.0</ele><time>2026-04-06T19:04:47.928Z</time></trkpt><trkpt lat="45.52040423824712" lon="11.363726429518117"><ele>89.5</ele><time>2026-04-06T19:04:48.928Z</time></trkpt><trkpt lat="45.52065601294144" lon="11.3638711586217"><ele>89.0</ele><time>2026-04-06T19:04:49.928Z</time></trkpt><trkpt lat="45.52092703204538" lon="11.364059945983644"><ele>89.0</ele><time>2026-04-06T19:04:50.928Z</time></trkpt><trkpt lat="45.52120467602095" lon="11.364239131636205"><ele>89.0</ele><time>2026-04-06T19:04:51.928Z</time></trkpt><trkpt lat="45.52145737989004" lon="11.364391080544204"><ele>89.5</ele><time>2026-04-06T19:04:52.928Z</time></trkpt><trkpt lat="45.521694004346095" lon="11.364526703472075"><ele>90.0</ele><time>2026-04-06T19:04:53.928Z</time></trkpt><trkpt lat="45.5219198098273" lon="11.364638201621219"><ele>90.66666666666667</ele><time>2026-04-06T19:04:54.928Z</time></trkpt><trkpt lat="45.52213252985865" lon="11.364709318181795"><ele>91.33333333333334</ele><time>2026-04-06T19:04:55.928Z</time></trkpt><trkpt lat="45.52233232641719" lon="11.364750297411584"><ele>92.0</ele><time>2026-04-06T19:04:56.928Z</time></trkpt><trkpt lat="45.52254287322548" lon="11.364746258410882"><ele>92.0</ele><time>2026-04-06T19:04:57.928Z</time></trkpt><trkpt lat="45.52276474873606" lon="11.364708411599215"><ele>92.0</ele><time>2026-04-06T19:04:58.928Z</time></trkpt><trkpt lat="45.522997270773395" lon="11.364624980715938"><ele>91.5</ele><time>2026-04-06T19:04:59.928Z</time></trkpt><trkpt lat="45.523239243403424" lon="11.36453046420624"><ele>91.0</ele><time>2026-04-06T19:05:00.928Z</time></trkpt><trkpt lat="45.523494522031775" lon="11.364420863904716"><ele>92.0</ele><time>2026-04-06T19:05:01.928Z</time></trkpt><trkpt lat="45.52377501726171" lon="11.364319451079275"><ele>93.0</ele><time>2026-04-06T19:05:02.928Z</time></trkpt><trkpt lat="45.52406314871875" lon="11.364204379103786"><ele>93.0</ele><time>2026-04-06T19:05:03.928Z</time></trkpt><trkpt lat="45.52435164964335" lon="11.364088766048305"><ele>93.0</ele><time>2026-04-06T19:05:04.928Z</time></trkpt><trkpt lat="45.52461365922946" lon="11.363983460450635"><ele>92.5</ele><time>2026-04-06T19:05:05.928Z</time></trkpt><trkpt lat="45.524856415124816" lon="11.36388510048892"><ele>92.0</ele><time>2026-04-06T19:05:06.928Z</time></trkpt><trkpt lat="45.52508482802963" lon="11.363781011756238"><ele>92.0</ele><time>2026-04-06T19:05:07.928Z</time></trkpt><trkpt lat="45.52529113805401" lon="11.363672284381007"><ele>92.0</ele><time>2026-04-06T19:05:08.928Z</time></trkpt><trkpt lat="45.52548606493428" lon="11.363549635647969"><ele>92.0</ele><time>2026-04-06T19:05:09.928Z</time></trkpt><trkpt lat="45.52566536417745" lon="11.363393257031234"><ele>92.0</ele><time>2026-04-06T19:05:10.928Z</time></trkpt><trkpt lat="45.52583531668388" lon="11.363212987007943"><ele>92.0</ele><time>2026-04-06T19:05:11.928Z</time></trkpt><trkpt lat="45.5259974453555" lon="11.363010525871056"><ele>92.0</ele><time>2026-04-06T19:05:12.928Z</time></trkpt><trkpt lat="45.52615913152172" lon="11.362790601603187"><ele>92.5</ele><time>2026-04-06T19:05:13.928Z</time></trkpt><trkpt lat="45.526329947924104" lon="11.36253909309015"><ele>93.0</ele><time>2026-04-06T19:05:14.928Z</time></trkpt><trkpt lat="45.526495082345264" lon="11.362267948541005"><ele>94.0</ele><time>2026-04-06T19:05:15.928Z</time></trkpt><trkpt lat="45.526667083747235" lon="11.362004459749812"><ele>95.0</ele><time>2026-04-06T19:05:16.928Z</time></trkpt><trkpt lat="45.52683165876321" lon="11.361751127171347"><ele>95.0</ele><time>2026-04-06T19:05:17.928Z</time></trkpt><trkpt lat="45.52697671239102" lon="11.36151516496691"><ele>95.0</ele><time>2026-04-06T19:05:18.928Z</time></trkpt><trkpt lat="45.527122571340996" lon="11.361277281046052"><ele>95.0</ele><time>2026-04-06T19:05:19.928Z</time></trkpt><trkpt lat="45.52727137289555" lon="11.3610472063072"><ele>95.33333333333334</ele><time>2026-04-06T19:05:20.928Z</time></trkpt><trkpt lat="45.52741512165898" lon="11.360827924895151"><ele>95.66666666666667</ele><time>2026-04-06T19:05:21.928Z</time></trkpt><trkpt lat="45.52756963662247" lon="11.360616610783289"><ele>96.0</ele><time>2026-04-06T19:05:22.928Z</time></trkpt><trkpt lat="45.5277425196918" lon="11.360422339792205"><ele>96.0</ele><time>2026-04-06T19:05:23.928Z</time></trkpt><trkpt lat="45.527910096544176" lon="11.360254478437364"><ele>96.0</ele><time>2026-04-06T19:05:24.928Z</time></trkpt><trkpt lat="45.528097037037426" lon="11.360100116754277"><ele>96.0</ele><time>2026-04-06T19:05:25.928Z</time></trkpt><trkpt lat="45.52829640459727" lon="11.359966786394798"><ele>96.0</ele><time>2026-04-06T19:05:26.928Z</time></trkpt><trkpt lat="45.52849314399677" lon="11.359831302236898"><ele>96.0</ele><time>2026-04-06T19:05:27.928Z</time></trkpt><trkpt lat="45.52869198838439" lon="11.359692973480117"><ele>96.0</ele><time>2026-04-06T19:05:28.928Z</time></trkpt><trkpt lat="45.52890587492498" lon="11.359572446268256"><ele>97.5</ele><time>2026-04-06T19:05:29.928Z</time></trkpt><trkpt lat="45.52914139537435" lon="11.359480269539368"><ele>99.0</ele><time>2026-04-06T19:05:30.928Z</time></trkpt><trkpt lat="45.52938598975781" lon="11.3594135562295"><ele>99.5</ele><time>2026-04-06T19:05:31.928Z</time></trkpt><trkpt lat="45.52963947788503" lon="11.35937052217004"><ele>100.0</ele><time>2026-04-06T19:05:32.928Z</time></trkpt><trkpt lat="45.52990506793979" lon="11.359365727214291"><ele>100.0</ele><time>2026-04-06T19:05:33.928Z</time></trkpt><trkpt lat="45.53017387974357" lon="11.359400448415625"><ele>100.0</ele><time>2026-04-06T19:05:34.928Z</time></trkpt><trkpt lat="45.530433451670746" lon="11.359468370648667"><ele>98.5</ele><time>2026-04-06T19:05:35.928Z</time></trkpt><trkpt lat="45.530678685472346" lon="11.359574850353312"><ele>97.0</ele><time>2026-04-06T19:05:36.928Z</time></trkpt><trkpt lat="45.5309225374628" lon="11.359706981393163"><ele>97.0</ele><time>2026-04-06T19:05:37.928Z</time></trkpt><trkpt lat="45.531141523737794" lon="11.35986657911846"><ele>97.0</ele><time>2026-04-06T19:05:38.928Z</time></trkpt><trkpt lat="45.53133201847686" lon="11.360035503864816"><ele>98.0</ele><time>2026-04-06T19:05:39.928Z</time></trkpt><trkpt lat="45.53149155286374" lon="11.360203921416932"><ele>99.0</ele><time>2026-04-06T19:05:40.928Z</time></trkpt><trkpt lat="45.53163461842135" lon="11.360350630669894"><ele>100.0</ele><time>2026-04-06T19:05:41.928Z</time></trkpt><trkpt lat="45.53175593374573" lon="11.360474487924307"><ele>99.75</ele><time>2026-04-06T19:05:42.928Z</time></trkpt><trkpt lat="45.53186844272113" lon="11.360595427604512"><ele>99.5</ele><time>2026-04-06T19:05:43.928Z</time></trkpt><trkpt lat="45.531974961586265" lon="11.360708941358217"><ele>99.25</ele><time>2026-04-06T19:05:44.928Z</time></trkpt><trkpt lat="45.532078029444335" lon="11.36081238521119"><ele>99.0</ele><time>2026-04-06T19:05:45.928Z</time></trkpt><trkpt lat="45.5321794105759" lon="11.360917806684542"><ele>99.0</ele><time>2026-04-06T19:05:46.928Z</time></trkpt><trkpt lat="45.532267159629654" lon="11.36102114680782"><ele>99.0</ele><time>2026-04-06T19:05:47.928Z</time></trkpt><trkpt lat="45.53235765115304" lon="11.361111460882556"><ele>99.0</ele><time>2026-04-06T19:05:48.928Z</time></trkpt><trkpt lat="45.53243994425601" lon="11.361202736598262"><ele>99.0</ele><time>2026-04-06T19:05:49.928Z</time></trkpt><trkpt lat="45.53252021761225" lon="11.361282239640001"><ele>99.0</ele><time>2026-04-06T19:05:50.928Z</time></trkpt><trkpt lat="45.53259737439112" lon="11.361368325304902"><ele>98.5</ele><time>2026-04-06T19:05:51.928Z</time></trkpt><trkpt lat="45.53265648373638" lon="11.361480935081941"><ele>98.0</ele><time>2026-04-06T19:05:52.928Z</time></trkpt><trkpt lat="45.532694502134134" lon="11.361641522449212"><ele>97.5</ele><time>2026-04-06T19:05:53.928Z</time></trkpt><trkpt lat="45.53271688794989" lon="11.361855120750912"><ele>97.0</ele><time>2026-04-06T19:05:54.928Z</time></trkpt><trkpt lat="45.53270705795433" lon="11.362116280950893"><ele>96.66666666666667</ele><time>2026-04-06T19:05:55.928Z</time></trkpt><trkpt lat="45.53268047079369" lon="11.362408664648521"><ele>96.33333333333334</ele><time>2026-04-06T19:05:56.928Z</time></trkpt><trkpt lat="45.53265946527413" lon="11.362741165452602"><ele>96.0</ele><time>2026-04-06T19:05:57.928Z</time></trkpt><trkpt lat="45.53263807246934" lon="11.363095972454214"><ele>96.0</ele><time>2026-04-06T19:05:58.928Z</time></trkpt><trkpt lat="45.53262290280318" lon="11.363415685301193"><ele>96.0</ele><time>2026-04-06T19:05:59.928Z</time></trkpt><trkpt lat="45.53260515321446" lon="11.36369383982451"><ele>96.0</ele><time>2026-04-06T19:06:00.928Z</time></trkpt><trkpt lat="45.532588204852466" lon="11.363926308014248"><ele>96.0</ele><time>2026-04-06T19:06:01.928Z</time></trkpt><trkpt lat="45.532573908716635" lon="11.364135049826885"><ele>96.0</ele><time>2026-04-06T19:06:02.928Z</time></trkpt><trkpt lat="45.532555992936445" lon="11.36433112370447"><ele>96.0</ele><time>2026-04-06T19:06:03.928Z</time></trkpt><trkpt lat="45.53253066374396" lon="11.36450172514832"><ele>96.0</ele><time>2026-04-06T19:06:04.928Z</time></trkpt><trkpt lat="45.532492805069154" lon="11.364654684711232"><ele>96.19999999999999</ele><time>2026-04-06T19:06:05.928Z</time></trkpt><trkpt lat="45.532444507612844" lon="11.36477610050355"><ele>96.39999999999999</ele><time>2026-04-06T19:06:06.928Z</time></trkpt><trkpt lat="45.532386022800566" lon="11.364886589890789"><ele>96.6</ele><time>2026-04-06T19:06:07.928Z</time></trkpt><trkpt lat="45.532305041956405" lon="11.364957737465962"><ele>96.8</ele><time>2026-04-06T19:06:08.928Z</time></trkpt><trkpt lat="45.53222519117923" lon="11.364986052311554"><ele>97.0</ele><time>2026-04-06T19:06:09.928Z</time></trkpt><trkpt lat="45.5321406911637" lon="11.36505941196338"><ele>97.00000000000001</ele><time>2026-04-06T19:06:10.928Z</time></trkpt><trkpt lat="45.53206252210765" lon="11.36512190215879"><ele>97.0</ele><time>2026-04-06T19:06:11.928Z</time></trkpt><trkpt lat="45.53198246870357" lon="11.365129991829795"><ele>97.0</ele><time>2026-04-06T19:06:12.928Z</time></trkpt><trkpt lat="45.53191252038095" lon="11.365128052282346"><ele>97.0</ele><time>2026-04-06T19:06:13.928Z</time></trkpt><trkpt lat="45.53182739848643" lon="11.365097155904438"><ele>97.00000000000001</ele><time>2026-04-06T19:06:15.928Z</time></trkpt><trkpt lat="45.53176202048105" lon="11.365032852300773"><ele>97.0</ele><time>2026-04-06T19:06:17.928Z</time></trkpt><trkpt lat="45.53170346405082" lon="11.364989915984266"><ele>95.0</ele><time>2026-04-06T19:06:34.928Z</time></trkpt><trkpt lat="45.531747516785444" lon="11.365055171556445"><ele>95.0</ele><time>2026-04-06T19:08:26.929Z</time></trkpt><trkpt lat="45.53180259010202" lon="11.364996653908175"><ele>95.0</ele><time>2026-04-06T19:08:32.929Z</time></trkpt></trkseg></trk></gpx>